<?xml version="1.0" encoding="UTF-8" standalone="no" ?>
<gpx xmlns="http://www.topografix.com/GPX/1/1" xmlns:xsi="http://www.w3.org/2001/XMLSchema-instance" xsi:schemaLocation="http://www.topografix.com/GPX/1/1 http://www.topografix.com/GPX/1/1/gpx.xsd" version="1.1" creator="VisuGPX - https://www.visugpx.com">
  <metadata>
    <name>Petits tour à Mons</name>
    <desc><![CDATA[Petit tour à Mons en passant pas Seillans]]></desc>
  </metadata>
  <trk>
    <name><![CDATA[Petits tour à Mons_1]]></name>
    <trkseg>
      <trkpt lat="43.55365" lon="6.77845">
        <ele>148.28</ele>
        <time>2019-12-08T09:16:04.000Z</time>
      </trkpt>
      <trkpt lat="43.55363" lon="6.77843">
        <ele>148.28</ele>
        <time>2019-12-08T09:16:05.000Z</time>
      </trkpt>
      <trkpt lat="43.5536" lon="6.77839">
        <ele>148.28</ele>
        <time>2019-12-08T09:16:06.000Z</time>
      </trkpt>
      <trkpt lat="43.55357" lon="6.77834">
        <ele>148.28</ele>
        <time>2019-12-08T09:16:07.000Z</time>
      </trkpt>
      <trkpt lat="43.55353" lon="6.77831">
        <ele>147.28</ele>
        <time>2019-12-08T09:16:08.000Z</time>
      </trkpt>
      <trkpt lat="43.55347" lon="6.77829">
        <ele>146.59</ele>
        <time>2019-12-08T09:16:09.000Z</time>
      </trkpt>
      <trkpt lat="43.55341" lon="6.77829">
        <ele>146.29</ele>
        <time>2019-12-08T09:16:10.000Z</time>
      </trkpt>
      <trkpt lat="43.55335" lon="6.77832">
        <ele>146.96</ele>
        <time>2019-12-08T09:16:11.000Z</time>
      </trkpt>
      <trkpt lat="43.55329" lon="6.77835">
        <ele>146.83</ele>
        <time>2019-12-08T09:16:12.000Z</time>
      </trkpt>
      <trkpt lat="43.55323" lon="6.77838">
        <ele>146.57</ele>
        <time>2019-12-08T09:16:13.000Z</time>
      </trkpt>
      <trkpt lat="43.55317" lon="6.77838">
        <ele>146.35</ele>
        <time>2019-12-08T09:16:14.000Z</time>
      </trkpt>
      <trkpt lat="43.55311" lon="6.77835">
        <ele>145.66</ele>
        <time>2019-12-08T09:16:15.000Z</time>
      </trkpt>
      <trkpt lat="43.55307" lon="6.77828">
        <ele>145.52</ele>
        <time>2019-12-08T09:16:16.000Z</time>
      </trkpt>
      <trkpt lat="43.55304" lon="6.7782">
        <ele>145.52</ele>
        <time>2019-12-08T09:16:17.000Z</time>
      </trkpt>
      <trkpt lat="43.55303" lon="6.77809">
        <ele>145.25</ele>
        <time>2019-12-08T09:16:18.000Z</time>
      </trkpt>
      <trkpt lat="43.55305" lon="6.77799">
        <ele>144.41</ele>
        <time>2019-12-08T09:16:19.000Z</time>
      </trkpt>
      <trkpt lat="43.55306" lon="6.77789">
        <ele>143.17</ele>
        <time>2019-12-08T09:16:20.000Z</time>
      </trkpt>
      <trkpt lat="43.55306" lon="6.7778">
        <ele>141.59</ele>
        <time>2019-12-08T09:16:21.000Z</time>
      </trkpt>
      <trkpt lat="43.55305" lon="6.77772">
        <ele>139.97</ele>
        <time>2019-12-08T09:16:22.000Z</time>
      </trkpt>
      <trkpt lat="43.55301" lon="6.77766">
        <ele>139.26</ele>
        <time>2019-12-08T09:16:23.000Z</time>
      </trkpt>
      <trkpt lat="43.55296" lon="6.77762">
        <ele>137.91</ele>
        <time>2019-12-08T09:16:24.000Z</time>
      </trkpt>
      <trkpt lat="43.5529" lon="6.77761">
        <ele>136.63</ele>
        <time>2019-12-08T09:16:25.000Z</time>
      </trkpt>
      <trkpt lat="43.55283" lon="6.77763">
        <ele>135.45</ele>
        <time>2019-12-08T09:16:26.000Z</time>
      </trkpt>
      <trkpt lat="43.55277" lon="6.77766">
        <ele>134.94</ele>
        <time>2019-12-08T09:16:27.000Z</time>
      </trkpt>
      <trkpt lat="43.55272" lon="6.77772">
        <ele>134.02</ele>
        <time>2019-12-08T09:16:28.000Z</time>
      </trkpt>
      <trkpt lat="43.55268" lon="6.7778">
        <ele>133.34</ele>
        <time>2019-12-08T09:16:29.000Z</time>
      </trkpt>
      <trkpt lat="43.55265" lon="6.77789">
        <ele>132.77</ele>
        <time>2019-12-08T09:16:30.000Z</time>
      </trkpt>
      <trkpt lat="43.55262" lon="6.77798">
        <ele>132.58</ele>
        <time>2019-12-08T09:16:31.000Z</time>
      </trkpt>
      <trkpt lat="43.5526" lon="6.77808">
        <ele>132.15</ele>
        <time>2019-12-08T09:16:32.000Z</time>
      </trkpt>
      <trkpt lat="43.55258" lon="6.77818">
        <ele>131.78</ele>
        <time>2019-12-08T09:16:33.000Z</time>
      </trkpt>
      <trkpt lat="43.55256" lon="6.77829">
        <ele>131.41</ele>
        <time>2019-12-08T09:16:34.000Z</time>
      </trkpt>
      <trkpt lat="43.55255" lon="6.7784">
        <ele>131.24</ele>
        <time>2019-12-08T09:16:35.000Z</time>
      </trkpt>
      <trkpt lat="43.55254" lon="6.77851">
        <ele>130.84</ele>
        <time>2019-12-08T09:16:36.000Z</time>
      </trkpt>
      <trkpt lat="43.55253" lon="6.77862">
        <ele>130.53</ele>
        <time>2019-12-08T09:16:37.000Z</time>
      </trkpt>
      <trkpt lat="43.55252" lon="6.77873">
        <ele>130.18</ele>
        <time>2019-12-08T09:16:38.000Z</time>
      </trkpt>
      <trkpt lat="43.55252" lon="6.77884">
        <ele>129.99</ele>
        <time>2019-12-08T09:16:39.000Z</time>
      </trkpt>
      <trkpt lat="43.55251" lon="6.77895">
        <ele>129.7</ele>
        <time>2019-12-08T09:16:40.000Z</time>
      </trkpt>
      <trkpt lat="43.5525" lon="6.77906">
        <ele>129.45</ele>
        <time>2019-12-08T09:16:41.000Z</time>
      </trkpt>
      <trkpt lat="43.55248" lon="6.77917">
        <ele>129.21</ele>
        <time>2019-12-08T09:16:42.000Z</time>
      </trkpt>
      <trkpt lat="43.55245" lon="6.77928">
        <ele>129.04</ele>
        <time>2019-12-08T09:16:43.000Z</time>
      </trkpt>
      <trkpt lat="43.5524" lon="6.77937">
        <ele>128.7</ele>
        <time>2019-12-08T09:16:44.000Z</time>
      </trkpt>
      <trkpt lat="43.55234" lon="6.77945">
        <ele>128.29</ele>
        <time>2019-12-08T09:16:45.000Z</time>
      </trkpt>
      <trkpt lat="43.55228" lon="6.77952">
        <ele>127.85</ele>
        <time>2019-12-08T09:16:46.000Z</time>
      </trkpt>
      <trkpt lat="43.55222" lon="6.7796">
        <ele>127.64</ele>
        <time>2019-12-08T09:16:47.000Z</time>
      </trkpt>
      <trkpt lat="43.55217" lon="6.77969">
        <ele>127.3</ele>
        <time>2019-12-08T09:16:48.000Z</time>
      </trkpt>
      <trkpt lat="43.55211" lon="6.77979">
        <ele>126.89</ele>
        <time>2019-12-08T09:16:49.000Z</time>
      </trkpt>
      <trkpt lat="43.55205" lon="6.77989">
        <ele>126.41</ele>
        <time>2019-12-08T09:16:50.000Z</time>
      </trkpt>
      <trkpt lat="43.55199" lon="6.78">
        <ele>125.77</ele>
        <time>2019-12-08T09:16:51.000Z</time>
      </trkpt>
      <trkpt lat="43.55194" lon="6.78011">
        <ele>125.77</ele>
        <time>2019-12-08T09:16:52.000Z</time>
      </trkpt>
      <trkpt lat="43.55189" lon="6.78023">
        <ele>124.86</ele>
        <time>2019-12-08T09:16:53.000Z</time>
      </trkpt>
      <trkpt lat="43.55185" lon="6.78036">
        <ele>123.97</ele>
        <time>2019-12-08T09:16:54.000Z</time>
      </trkpt>
      <trkpt lat="43.55182" lon="6.78051">
        <ele>123.1</ele>
        <time>2019-12-08T09:16:55.000Z</time>
      </trkpt>
      <trkpt lat="43.55181" lon="6.78066">
        <ele>122.67</ele>
        <time>2019-12-08T09:16:56.000Z</time>
      </trkpt>
      <trkpt lat="43.55181" lon="6.78081">
        <ele>121.91</ele>
        <time>2019-12-08T09:16:57.000Z</time>
      </trkpt>
      <trkpt lat="43.55181" lon="6.78096">
        <ele>121.11</ele>
        <time>2019-12-08T09:16:58.000Z</time>
      </trkpt>
      <trkpt lat="43.55181" lon="6.7811">
        <ele>120.2</ele>
        <time>2019-12-08T09:16:59.000Z</time>
      </trkpt>
      <trkpt lat="43.55181" lon="6.78125">
        <ele>119.68</ele>
        <time>2019-12-08T09:17:00.000Z</time>
      </trkpt>
      <trkpt lat="43.55182" lon="6.7814">
        <ele>118.58</ele>
        <time>2019-12-08T09:17:01.000Z</time>
      </trkpt>
      <trkpt lat="43.55183" lon="6.78155">
        <ele>117.46</ele>
        <time>2019-12-08T09:17:02.000Z</time>
      </trkpt>
      <trkpt lat="43.55185" lon="6.7817">
        <ele>117.46</ele>
        <time>2019-12-08T09:17:03.000Z</time>
      </trkpt>
      <trkpt lat="43.55187" lon="6.78184">
        <ele>117.46</ele>
        <time>2019-12-08T09:17:04.000Z</time>
      </trkpt>
      <trkpt lat="43.55187" lon="6.78198">
        <ele>117.46</ele>
        <time>2019-12-08T09:17:05.000Z</time>
      </trkpt>
      <trkpt lat="43.55185" lon="6.78212">
        <ele>115.51</ele>
        <time>2019-12-08T09:17:06.000Z</time>
      </trkpt>
      <trkpt lat="43.55182" lon="6.78225">
        <ele>113.54</ele>
        <time>2019-12-08T09:17:07.000Z</time>
      </trkpt>
      <trkpt lat="43.55179" lon="6.78238">
        <ele>112.65</ele>
        <time>2019-12-08T09:17:08.000Z</time>
      </trkpt>
      <trkpt lat="43.55175" lon="6.78251">
        <ele>110.94</ele>
        <time>2019-12-08T09:17:09.000Z</time>
      </trkpt>
      <trkpt lat="43.55172" lon="6.78262">
        <ele>109.7</ele>
        <time>2019-12-08T09:17:10.000Z</time>
      </trkpt>
      <trkpt lat="43.55168" lon="6.78273">
        <ele>109.05</ele>
        <time>2019-12-08T09:17:11.000Z</time>
      </trkpt>
      <trkpt lat="43.55166" lon="6.78284">
        <ele>108.5</ele>
        <time>2019-12-08T09:17:12.000Z</time>
      </trkpt>
      <trkpt lat="43.55163" lon="6.78294">
        <ele>108.3</ele>
        <time>2019-12-08T09:17:13.000Z</time>
      </trkpt>
      <trkpt lat="43.55161" lon="6.78303">
        <ele>107.97</ele>
        <time>2019-12-08T09:17:14.000Z</time>
      </trkpt>
      <trkpt lat="43.55158" lon="6.78312">
        <ele>107.87</ele>
        <time>2019-12-08T09:17:15.000Z</time>
      </trkpt>
      <trkpt lat="43.55156" lon="6.78321">
        <ele>107.86</ele>
        <time>2019-12-08T09:17:16.000Z</time>
      </trkpt>
      <trkpt lat="43.55154" lon="6.78329">
        <ele>107.87</ele>
        <time>2019-12-08T09:17:17.000Z</time>
      </trkpt>
      <trkpt lat="43.55152" lon="6.78337">
        <ele>107.98</ele>
        <time>2019-12-08T09:17:18.000Z</time>
      </trkpt>
      <trkpt lat="43.55145" lon="6.78369">
        <ele>109.38</ele>
        <time>2019-12-08T09:17:23.000Z</time>
      </trkpt>
      <trkpt lat="43.55143" lon="6.78375">
        <ele>109.79</ele>
        <time>2019-12-08T09:17:24.000Z</time>
      </trkpt>
      <trkpt lat="43.55142" lon="6.7838">
        <ele>109.98</ele>
        <time>2019-12-08T09:17:25.000Z</time>
      </trkpt>
      <trkpt lat="43.55141" lon="6.78385">
        <ele>110.31</ele>
        <time>2019-12-08T09:17:26.000Z</time>
      </trkpt>
      <trkpt lat="43.5514" lon="6.78389">
        <ele>110.75</ele>
        <time>2019-12-08T09:17:27.000Z</time>
      </trkpt>
      <trkpt lat="43.55139" lon="6.78393">
        <ele>111.15</ele>
        <time>2019-12-08T09:17:28.000Z</time>
      </trkpt>
      <trkpt lat="43.55139" lon="6.78397">
        <ele>111.39</ele>
        <time>2019-12-08T09:17:29.000Z</time>
      </trkpt>
      <trkpt lat="43.55138" lon="6.78401">
        <ele>111.82</ele>
        <time>2019-12-08T09:17:30.000Z</time>
      </trkpt>
      <trkpt lat="43.55137" lon="6.78404">
        <ele>112.14</ele>
        <time>2019-12-08T09:17:31.000Z</time>
      </trkpt>
      <trkpt lat="43.55136" lon="6.78408">
        <ele>112.48</ele>
        <time>2019-12-08T09:17:32.000Z</time>
      </trkpt>
      <trkpt lat="43.55135" lon="6.78412">
        <ele>112.64</ele>
        <time>2019-12-08T09:17:33.000Z</time>
      </trkpt>
      <trkpt lat="43.55134" lon="6.78415">
        <ele>112.94</ele>
        <time>2019-12-08T09:17:34.000Z</time>
      </trkpt>
      <trkpt lat="43.55133" lon="6.78419">
        <ele>113.28</ele>
        <time>2019-12-08T09:17:35.000Z</time>
      </trkpt>
      <trkpt lat="43.55133" lon="6.78423">
        <ele>113.61</ele>
        <time>2019-12-08T09:17:36.000Z</time>
      </trkpt>
      <trkpt lat="43.55132" lon="6.78427">
        <ele>113.77</ele>
        <time>2019-12-08T09:17:37.000Z</time>
      </trkpt>
      <trkpt lat="43.55131" lon="6.7843">
        <ele>114.12</ele>
        <time>2019-12-08T09:17:38.000Z</time>
      </trkpt>
      <trkpt lat="43.5513" lon="6.78434">
        <ele>114.42</ele>
        <time>2019-12-08T09:17:39.000Z</time>
      </trkpt>
      <trkpt lat="43.55129" lon="6.78437">
        <ele>114.77</ele>
        <time>2019-12-08T09:17:40.000Z</time>
      </trkpt>
      <trkpt lat="43.55128" lon="6.78441">
        <ele>114.94</ele>
        <time>2019-12-08T09:17:41.000Z</time>
      </trkpt>
      <trkpt lat="43.55127" lon="6.78444">
        <ele>115.24</ele>
        <time>2019-12-08T09:17:42.000Z</time>
      </trkpt>
      <trkpt lat="43.55125" lon="6.78448">
        <ele>115.52</ele>
        <time>2019-12-08T09:17:43.000Z</time>
      </trkpt>
      <trkpt lat="43.55124" lon="6.78451">
        <ele>115.83</ele>
        <time>2019-12-08T09:17:44.000Z</time>
      </trkpt>
      <trkpt lat="43.55122" lon="6.78455">
        <ele>116.11</ele>
        <time>2019-12-08T09:17:45.000Z</time>
      </trkpt>
      <trkpt lat="43.55121" lon="6.78459">
        <ele>116.23</ele>
        <time>2019-12-08T09:17:46.000Z</time>
      </trkpt>
      <trkpt lat="43.55119" lon="6.78462">
        <ele>116.5</ele>
        <time>2019-12-08T09:17:47.000Z</time>
      </trkpt>
      <trkpt lat="43.55117" lon="6.78465">
        <ele>116.78</ele>
        <time>2019-12-08T09:17:48.000Z</time>
      </trkpt>
      <trkpt lat="43.55115" lon="6.78468">
        <ele>117.06</ele>
        <time>2019-12-08T09:17:49.000Z</time>
      </trkpt>
      <trkpt lat="43.55113" lon="6.78471">
        <ele>117.22</ele>
        <time>2019-12-08T09:17:50.000Z</time>
      </trkpt>
      <trkpt lat="43.5511" lon="6.78474">
        <ele>117.46</ele>
        <time>2019-12-08T09:17:51.000Z</time>
      </trkpt>
      <trkpt lat="43.55108" lon="6.78477">
        <ele>117.73</ele>
        <time>2019-12-08T09:17:52.000Z</time>
      </trkpt>
      <trkpt lat="43.55105" lon="6.7848">
        <ele>117.93</ele>
        <time>2019-12-08T09:17:53.000Z</time>
      </trkpt>
      <trkpt lat="43.55103" lon="6.78485">
        <ele>118.03</ele>
        <time>2019-12-08T09:17:54.000Z</time>
      </trkpt>
      <trkpt lat="43.55101" lon="6.78489">
        <ele>118.03</ele>
        <time>2019-12-08T09:17:55.000Z</time>
      </trkpt>
      <trkpt lat="43.55099" lon="6.78493">
        <ele>118.17</ele>
        <time>2019-12-08T09:17:56.000Z</time>
      </trkpt>
      <trkpt lat="43.55097" lon="6.78498">
        <ele>118.43</ele>
        <time>2019-12-08T09:17:57.000Z</time>
      </trkpt>
      <trkpt lat="43.55096" lon="6.78503">
        <ele>118.57</ele>
        <time>2019-12-08T09:17:58.000Z</time>
      </trkpt>
      <trkpt lat="43.55094" lon="6.78508">
        <ele>118.78</ele>
        <time>2019-12-08T09:17:59.000Z</time>
      </trkpt>
      <trkpt lat="43.55092" lon="6.78513">
        <ele>118.95</ele>
        <time>2019-12-08T09:18:00.000Z</time>
      </trkpt>
      <trkpt lat="43.55091" lon="6.78518">
        <ele>119.02</ele>
        <time>2019-12-08T09:18:01.000Z</time>
      </trkpt>
      <trkpt lat="43.55089" lon="6.78522">
        <ele>119.05</ele>
        <time>2019-12-08T09:18:02.000Z</time>
      </trkpt>
      <trkpt lat="43.55087" lon="6.78527">
        <ele>119.09</ele>
        <time>2019-12-08T09:18:03.000Z</time>
      </trkpt>
      <trkpt lat="43.55086" lon="6.78532">
        <ele>119.16</ele>
        <time>2019-12-08T09:18:04.000Z</time>
      </trkpt>
      <trkpt lat="43.55084" lon="6.78537">
        <ele>119.32</ele>
        <time>2019-12-08T09:18:05.000Z</time>
      </trkpt>
      <trkpt lat="43.55082" lon="6.78542">
        <ele>119.4</ele>
        <time>2019-12-08T09:18:06.000Z</time>
      </trkpt>
      <trkpt lat="43.55081" lon="6.78547">
        <ele>119.61</ele>
        <time>2019-12-08T09:18:07.000Z</time>
      </trkpt>
      <trkpt lat="43.55079" lon="6.78552">
        <ele>119.83</ele>
        <time>2019-12-08T09:18:08.000Z</time>
      </trkpt>
      <trkpt lat="43.55077" lon="6.78557">
        <ele>120.02</ele>
        <time>2019-12-08T09:18:09.000Z</time>
      </trkpt>
      <trkpt lat="43.55076" lon="6.78561">
        <ele>120.07</ele>
        <time>2019-12-08T09:18:10.000Z</time>
      </trkpt>
      <trkpt lat="43.55074" lon="6.78566">
        <ele>120.21</ele>
        <time>2019-12-08T09:18:11.000Z</time>
      </trkpt>
      <trkpt lat="43.55073" lon="6.78571">
        <ele>120.41</ele>
        <time>2019-12-08T09:18:12.000Z</time>
      </trkpt>
      <trkpt lat="43.55071" lon="6.78576">
        <ele>120.62</ele>
        <time>2019-12-08T09:18:13.000Z</time>
      </trkpt>
      <trkpt lat="43.5507" lon="6.78581">
        <ele>120.87</ele>
        <time>2019-12-08T09:18:14.000Z</time>
      </trkpt>
      <trkpt lat="43.55069" lon="6.78586">
        <ele>121</ele>
        <time>2019-12-08T09:18:15.000Z</time>
      </trkpt>
      <trkpt lat="43.55068" lon="6.78591">
        <ele>121.18</ele>
        <time>2019-12-08T09:18:16.000Z</time>
      </trkpt>
      <trkpt lat="43.55067" lon="6.78597">
        <ele>121.35</ele>
        <time>2019-12-08T09:18:17.000Z</time>
      </trkpt>
      <trkpt lat="43.55065" lon="6.78602">
        <ele>121.47</ele>
        <time>2019-12-08T09:18:18.000Z</time>
      </trkpt>
      <trkpt lat="43.55064" lon="6.78607">
        <ele>121.55</ele>
        <time>2019-12-08T09:18:19.000Z</time>
      </trkpt>
      <trkpt lat="43.55063" lon="6.78613">
        <ele>121.71</ele>
        <time>2019-12-08T09:18:20.000Z</time>
      </trkpt>
      <trkpt lat="43.55062" lon="6.78618">
        <ele>121.85</ele>
        <time>2019-12-08T09:18:21.000Z</time>
      </trkpt>
      <trkpt lat="43.55061" lon="6.78623">
        <ele>122.01</ele>
        <time>2019-12-08T09:18:22.000Z</time>
      </trkpt>
      <trkpt lat="43.5506" lon="6.78629">
        <ele>122.1</ele>
        <time>2019-12-08T09:18:23.000Z</time>
      </trkpt>
      <trkpt lat="43.55058" lon="6.78634">
        <ele>122.25</ele>
        <time>2019-12-08T09:18:24.000Z</time>
      </trkpt>
      <trkpt lat="43.55057" lon="6.7864">
        <ele>122.37</ele>
        <time>2019-12-08T09:18:25.000Z</time>
      </trkpt>
      <trkpt lat="43.55056" lon="6.78645">
        <ele>122.53</ele>
        <time>2019-12-08T09:18:26.000Z</time>
      </trkpt>
      <trkpt lat="43.55054" lon="6.78651">
        <ele>122.59</ele>
        <time>2019-12-08T09:18:27.000Z</time>
      </trkpt>
      <trkpt lat="43.55053" lon="6.78656">
        <ele>122.72</ele>
        <time>2019-12-08T09:18:28.000Z</time>
      </trkpt>
      <trkpt lat="43.55052" lon="6.78662">
        <ele>122.86</ele>
        <time>2019-12-08T09:18:29.000Z</time>
      </trkpt>
      <trkpt lat="43.55051" lon="6.78667">
        <ele>122.96</ele>
        <time>2019-12-08T09:18:30.000Z</time>
      </trkpt>
      <trkpt lat="43.55049" lon="6.78673">
        <ele>123.03</ele>
        <time>2019-12-08T09:18:31.000Z</time>
      </trkpt>
      <trkpt lat="43.55047" lon="6.78678">
        <ele>123.13</ele>
        <time>2019-12-08T09:18:32.000Z</time>
      </trkpt>
      <trkpt lat="43.55045" lon="6.78684">
        <ele>123.24</ele>
        <time>2019-12-08T09:18:33.000Z</time>
      </trkpt>
      <trkpt lat="43.55044" lon="6.78689">
        <ele>123.41</ele>
        <time>2019-12-08T09:18:34.000Z</time>
      </trkpt>
      <trkpt lat="43.55041" lon="6.78694">
        <ele>123.49</ele>
        <time>2019-12-08T09:18:35.000Z</time>
      </trkpt>
      <trkpt lat="43.55039" lon="6.78699">
        <ele>123.65</ele>
        <time>2019-12-08T09:18:36.000Z</time>
      </trkpt>
      <trkpt lat="43.55036" lon="6.78703">
        <ele>123.78</ele>
        <time>2019-12-08T09:18:37.000Z</time>
      </trkpt>
      <trkpt lat="43.55033" lon="6.78708">
        <ele>123.96</ele>
        <time>2019-12-08T09:18:38.000Z</time>
      </trkpt>
      <trkpt lat="43.5503" lon="6.78712">
        <ele>124.04</ele>
        <time>2019-12-08T09:18:39.000Z</time>
      </trkpt>
      <trkpt lat="43.55027" lon="6.78717">
        <ele>124.2</ele>
        <time>2019-12-08T09:18:40.000Z</time>
      </trkpt>
      <trkpt lat="43.55024" lon="6.78721">
        <ele>124.33</ele>
        <time>2019-12-08T09:18:41.000Z</time>
      </trkpt>
      <trkpt lat="43.55021" lon="6.78725">
        <ele>124.53</ele>
        <time>2019-12-08T09:18:42.000Z</time>
      </trkpt>
      <trkpt lat="43.55018" lon="6.78729">
        <ele>124.7</ele>
        <time>2019-12-08T09:18:43.000Z</time>
      </trkpt>
      <trkpt lat="43.55015" lon="6.78733">
        <ele>124.8</ele>
        <time>2019-12-08T09:18:44.000Z</time>
      </trkpt>
      <trkpt lat="43.55012" lon="6.78737">
        <ele>125.01</ele>
        <time>2019-12-08T09:18:45.000Z</time>
      </trkpt>
      <trkpt lat="43.55009" lon="6.78741">
        <ele>125.17</ele>
        <time>2019-12-08T09:18:46.000Z</time>
      </trkpt>
      <trkpt lat="43.55006" lon="6.78745">
        <ele>125.28</ele>
        <time>2019-12-08T09:18:47.000Z</time>
      </trkpt>
      <trkpt lat="43.55003" lon="6.78749">
        <ele>125.51</ele>
        <time>2019-12-08T09:18:48.000Z</time>
      </trkpt>
      <trkpt lat="43.55" lon="6.78753">
        <ele>125.65</ele>
        <time>2019-12-08T09:18:49.000Z</time>
      </trkpt>
      <trkpt lat="43.54997" lon="6.78757">
        <ele>125.85</ele>
        <time>2019-12-08T09:18:50.000Z</time>
      </trkpt>
      <trkpt lat="43.54994" lon="6.7876">
        <ele>125.85</ele>
        <time>2019-12-08T09:18:51.000Z</time>
      </trkpt>
      <trkpt lat="43.54991" lon="6.78765">
        <ele>125.85</ele>
        <time>2019-12-08T09:18:52.000Z</time>
      </trkpt>
      <trkpt lat="43.54989" lon="6.78769">
        <ele>126.18</ele>
        <time>2019-12-08T09:18:53.000Z</time>
      </trkpt>
      <trkpt lat="43.54986" lon="6.78773">
        <ele>126.44</ele>
        <time>2019-12-08T09:18:54.000Z</time>
      </trkpt>
      <trkpt lat="43.54984" lon="6.78778">
        <ele>126.73</ele>
        <time>2019-12-08T09:18:55.000Z</time>
      </trkpt>
      <trkpt lat="43.54982" lon="6.78782">
        <ele>126.9</ele>
        <time>2019-12-08T09:18:56.000Z</time>
      </trkpt>
      <trkpt lat="43.54979" lon="6.78787">
        <ele>127.14</ele>
        <time>2019-12-08T09:18:57.000Z</time>
      </trkpt>
      <trkpt lat="43.54977" lon="6.78792">
        <ele>127.32</ele>
        <time>2019-12-08T09:18:58.000Z</time>
      </trkpt>
      <trkpt lat="43.54976" lon="6.78796">
        <ele>127.54</ele>
        <time>2019-12-08T09:18:59.000Z</time>
      </trkpt>
      <trkpt lat="43.54974" lon="6.78802">
        <ele>127.66</ele>
        <time>2019-12-08T09:19:00.000Z</time>
      </trkpt>
      <trkpt lat="43.54973" lon="6.78807">
        <ele>127.81</ele>
        <time>2019-12-08T09:19:01.000Z</time>
      </trkpt>
      <trkpt lat="43.54972" lon="6.78812">
        <ele>128.03</ele>
        <time>2019-12-08T09:19:02.000Z</time>
      </trkpt>
      <trkpt lat="43.5497" lon="6.78818">
        <ele>128.22</ele>
        <time>2019-12-08T09:19:03.000Z</time>
      </trkpt>
      <trkpt lat="43.54969" lon="6.78823">
        <ele>128.3</ele>
        <time>2019-12-08T09:19:04.000Z</time>
      </trkpt>
      <trkpt lat="43.54968" lon="6.78829">
        <ele>128.48</ele>
        <time>2019-12-08T09:19:05.000Z</time>
      </trkpt>
      <trkpt lat="43.54967" lon="6.78834">
        <ele>128.66</ele>
        <time>2019-12-08T09:19:06.000Z</time>
      </trkpt>
      <trkpt lat="43.54966" lon="6.7884">
        <ele>128.78</ele>
        <time>2019-12-08T09:19:07.000Z</time>
      </trkpt>
      <trkpt lat="43.54965" lon="6.78846">
        <ele>128.85</ele>
        <time>2019-12-08T09:19:08.000Z</time>
      </trkpt>
      <trkpt lat="43.54964" lon="6.78851">
        <ele>128.97</ele>
        <time>2019-12-08T09:19:09.000Z</time>
      </trkpt>
      <trkpt lat="43.54963" lon="6.78857">
        <ele>129.1</ele>
        <time>2019-12-08T09:19:10.000Z</time>
      </trkpt>
      <trkpt lat="43.54963" lon="6.78863">
        <ele>129.21</ele>
        <time>2019-12-08T09:19:11.000Z</time>
      </trkpt>
      <trkpt lat="43.54963" lon="6.78869">
        <ele>129.33</ele>
        <time>2019-12-08T09:19:12.000Z</time>
      </trkpt>
      <trkpt lat="43.54963" lon="6.78875">
        <ele>129.39</ele>
        <time>2019-12-08T09:19:13.000Z</time>
      </trkpt>
      <trkpt lat="43.54963" lon="6.78881">
        <ele>129.47</ele>
        <time>2019-12-08T09:19:14.000Z</time>
      </trkpt>
      <trkpt lat="43.54964" lon="6.78887">
        <ele>129.57</ele>
        <time>2019-12-08T09:19:15.000Z</time>
      </trkpt>
      <trkpt lat="43.54965" lon="6.78893">
        <ele>129.63</ele>
        <time>2019-12-08T09:19:16.000Z</time>
      </trkpt>
      <trkpt lat="43.54966" lon="6.78899">
        <ele>129.63</ele>
        <time>2019-12-08T09:19:17.000Z</time>
      </trkpt>
      <trkpt lat="43.54968" lon="6.78905">
        <ele>129.71</ele>
        <time>2019-12-08T09:19:18.000Z</time>
      </trkpt>
      <trkpt lat="43.54969" lon="6.78911">
        <ele>129.79</ele>
        <time>2019-12-08T09:19:19.000Z</time>
      </trkpt>
      <trkpt lat="43.54971" lon="6.78917">
        <ele>129.85</ele>
        <time>2019-12-08T09:19:20.000Z</time>
      </trkpt>
      <trkpt lat="43.54973" lon="6.78924">
        <ele>129.87</ele>
        <time>2019-12-08T09:19:21.000Z</time>
      </trkpt>
      <trkpt lat="43.54975" lon="6.7893">
        <ele>129.95</ele>
        <time>2019-12-08T09:19:22.000Z</time>
      </trkpt>
      <trkpt lat="43.54977" lon="6.78936">
        <ele>129.99</ele>
        <time>2019-12-08T09:19:23.000Z</time>
      </trkpt>
      <trkpt lat="43.5498" lon="6.78942">
        <ele>130.08</ele>
        <time>2019-12-08T09:19:24.000Z</time>
      </trkpt>
      <trkpt lat="43.54982" lon="6.78948">
        <ele>130.16</ele>
        <time>2019-12-08T09:19:25.000Z</time>
      </trkpt>
      <trkpt lat="43.54985" lon="6.78954">
        <ele>130.3</ele>
        <time>2019-12-08T09:19:26.000Z</time>
      </trkpt>
      <trkpt lat="43.54988" lon="6.7896">
        <ele>130.45</ele>
        <time>2019-12-08T09:19:27.000Z</time>
      </trkpt>
      <trkpt lat="43.5499" lon="6.78965">
        <ele>130.62</ele>
        <time>2019-12-08T09:19:28.000Z</time>
      </trkpt>
      <trkpt lat="43.54993" lon="6.78971">
        <ele>130.68</ele>
        <time>2019-12-08T09:19:29.000Z</time>
      </trkpt>
      <trkpt lat="43.54996" lon="6.78976">
        <ele>130.8</ele>
        <time>2019-12-08T09:19:30.000Z</time>
      </trkpt>
      <trkpt lat="43.54999" lon="6.78981">
        <ele>130.98</ele>
        <time>2019-12-08T09:19:31.000Z</time>
      </trkpt>
      <trkpt lat="43.55002" lon="6.78986">
        <ele>131.12</ele>
        <time>2019-12-08T09:19:32.000Z</time>
      </trkpt>
      <trkpt lat="43.55006" lon="6.78991">
        <ele>131.24</ele>
        <time>2019-12-08T09:19:33.000Z</time>
      </trkpt>
      <trkpt lat="43.55009" lon="6.78995">
        <ele>131.45</ele>
        <time>2019-12-08T09:19:34.000Z</time>
      </trkpt>
      <trkpt lat="43.55012" lon="6.78999">
        <ele>131.64</ele>
        <time>2019-12-08T09:19:35.000Z</time>
      </trkpt>
      <trkpt lat="43.55016" lon="6.79004">
        <ele>131.73</ele>
        <time>2019-12-08T09:19:36.000Z</time>
      </trkpt>
      <trkpt lat="43.5502" lon="6.79007">
        <ele>131.84</ele>
        <time>2019-12-08T09:19:37.000Z</time>
      </trkpt>
      <trkpt lat="43.55024" lon="6.79011">
        <ele>131.97</ele>
        <time>2019-12-08T09:19:38.000Z</time>
      </trkpt>
      <trkpt lat="43.55028" lon="6.79014">
        <ele>131.97</ele>
        <time>2019-12-08T09:19:39.000Z</time>
      </trkpt>
      <trkpt lat="43.55033" lon="6.79017">
        <ele>132.06</ele>
        <time>2019-12-08T09:19:40.000Z</time>
      </trkpt>
      <trkpt lat="43.55038" lon="6.79019">
        <ele>132.18</ele>
        <time>2019-12-08T09:19:41.000Z</time>
      </trkpt>
      <trkpt lat="43.55042" lon="6.79022">
        <ele>132.21</ele>
        <time>2019-12-08T09:19:42.000Z</time>
      </trkpt>
      <trkpt lat="43.55047" lon="6.79025">
        <ele>132.24</ele>
        <time>2019-12-08T09:19:43.000Z</time>
      </trkpt>
      <trkpt lat="43.55052" lon="6.79028">
        <ele>132.4</ele>
        <time>2019-12-08T09:19:44.000Z</time>
      </trkpt>
      <trkpt lat="43.55056" lon="6.79031">
        <ele>132.47</ele>
        <time>2019-12-08T09:19:45.000Z</time>
      </trkpt>
      <trkpt lat="43.55061" lon="6.79034">
        <ele>132.55</ele>
        <time>2019-12-08T09:19:46.000Z</time>
      </trkpt>
      <trkpt lat="43.55066" lon="6.79037">
        <ele>132.7</ele>
        <time>2019-12-08T09:19:47.000Z</time>
      </trkpt>
      <trkpt lat="43.55071" lon="6.79039">
        <ele>132.8</ele>
        <time>2019-12-08T09:19:48.000Z</time>
      </trkpt>
      <trkpt lat="43.55076" lon="6.79042">
        <ele>132.86</ele>
        <time>2019-12-08T09:19:49.000Z</time>
      </trkpt>
      <trkpt lat="43.55081" lon="6.79045">
        <ele>132.92</ele>
        <time>2019-12-08T09:19:50.000Z</time>
      </trkpt>
      <trkpt lat="43.55086" lon="6.79048">
        <ele>132.97</ele>
        <time>2019-12-08T09:19:51.000Z</time>
      </trkpt>
      <trkpt lat="43.5509" lon="6.79051">
        <ele>133.08</ele>
        <time>2019-12-08T09:19:52.000Z</time>
      </trkpt>
      <trkpt lat="43.55095" lon="6.79054">
        <ele>133.13</ele>
        <time>2019-12-08T09:19:53.000Z</time>
      </trkpt>
      <trkpt lat="43.551" lon="6.79057">
        <ele>133.25</ele>
        <time>2019-12-08T09:19:54.000Z</time>
      </trkpt>
      <trkpt lat="43.55104" lon="6.79061">
        <ele>133.42</ele>
        <time>2019-12-08T09:19:55.000Z</time>
      </trkpt>
      <trkpt lat="43.55109" lon="6.79064">
        <ele>133.65</ele>
        <time>2019-12-08T09:19:56.000Z</time>
      </trkpt>
      <trkpt lat="43.55113" lon="6.79067">
        <ele>133.89</ele>
        <time>2019-12-08T09:19:57.000Z</time>
      </trkpt>
      <trkpt lat="43.55118" lon="6.7907">
        <ele>134</ele>
        <time>2019-12-08T09:19:58.000Z</time>
      </trkpt>
      <trkpt lat="43.55122" lon="6.79073">
        <ele>134.22</ele>
        <time>2019-12-08T09:19:59.000Z</time>
      </trkpt>
      <trkpt lat="43.55127" lon="6.79076">
        <ele>134.37</ele>
        <time>2019-12-08T09:20:00.000Z</time>
      </trkpt>
      <trkpt lat="43.55132" lon="6.79079">
        <ele>134.52</ele>
        <time>2019-12-08T09:20:01.000Z</time>
      </trkpt>
      <trkpt lat="43.55136" lon="6.79082">
        <ele>134.64</ele>
        <time>2019-12-08T09:20:02.000Z</time>
      </trkpt>
      <trkpt lat="43.55141" lon="6.79086">
        <ele>134.83</ele>
        <time>2019-12-08T09:20:03.000Z</time>
      </trkpt>
      <trkpt lat="43.55145" lon="6.79089">
        <ele>135.01</ele>
        <time>2019-12-08T09:20:04.000Z</time>
      </trkpt>
      <trkpt lat="43.55149" lon="6.79093">
        <ele>135.19</ele>
        <time>2019-12-08T09:20:05.000Z</time>
      </trkpt>
      <trkpt lat="43.55153" lon="6.79097">
        <ele>135.3</ele>
        <time>2019-12-08T09:20:06.000Z</time>
      </trkpt>
      <trkpt lat="43.55156" lon="6.79102">
        <ele>135.5</ele>
        <time>2019-12-08T09:20:07.000Z</time>
      </trkpt>
      <trkpt lat="43.5516" lon="6.79107">
        <ele>135.7</ele>
        <time>2019-12-08T09:20:08.000Z</time>
      </trkpt>
      <trkpt lat="43.55163" lon="6.79111">
        <ele>135.7</ele>
        <time>2019-12-08T09:20:09.000Z</time>
      </trkpt>
      <trkpt lat="43.55166" lon="6.79116">
        <ele>135.8</ele>
        <time>2019-12-08T09:20:10.000Z</time>
      </trkpt>
      <trkpt lat="43.55169" lon="6.79122">
        <ele>136.1</ele>
        <time>2019-12-08T09:20:11.000Z</time>
      </trkpt>
      <trkpt lat="43.55171" lon="6.79127">
        <ele>136.34</ele>
        <time>2019-12-08T09:20:12.000Z</time>
      </trkpt>
      <trkpt lat="43.55174" lon="6.79132">
        <ele>136.59</ele>
        <time>2019-12-08T09:20:13.000Z</time>
      </trkpt>
      <trkpt lat="43.55176" lon="6.79138">
        <ele>136.75</ele>
        <time>2019-12-08T09:20:14.000Z</time>
      </trkpt>
      <trkpt lat="43.55178" lon="6.79144">
        <ele>136.98</ele>
        <time>2019-12-08T09:20:15.000Z</time>
      </trkpt>
      <trkpt lat="43.5518" lon="6.79149">
        <ele>137.19</ele>
        <time>2019-12-08T09:20:16.000Z</time>
      </trkpt>
      <trkpt lat="43.55181" lon="6.79155">
        <ele>137.43</ele>
        <time>2019-12-08T09:20:17.000Z</time>
      </trkpt>
      <trkpt lat="43.55183" lon="6.7916">
        <ele>137.66</ele>
        <time>2019-12-08T09:20:18.000Z</time>
      </trkpt>
      <trkpt lat="43.55186" lon="6.79166">
        <ele>137.79</ele>
        <time>2019-12-08T09:20:19.000Z</time>
      </trkpt>
      <trkpt lat="43.55188" lon="6.79171">
        <ele>138.05</ele>
        <time>2019-12-08T09:20:20.000Z</time>
      </trkpt>
      <trkpt lat="43.55189" lon="6.79177">
        <ele>138.29</ele>
        <time>2019-12-08T09:20:21.000Z</time>
      </trkpt>
      <trkpt lat="43.55191" lon="6.79182">
        <ele>138.39</ele>
        <time>2019-12-08T09:20:22.000Z</time>
      </trkpt>
      <trkpt lat="43.55193" lon="6.79187">
        <ele>138.62</ele>
        <time>2019-12-08T09:20:23.000Z</time>
      </trkpt>
      <trkpt lat="43.55194" lon="6.79193">
        <ele>138.8</ele>
        <time>2019-12-08T09:20:24.000Z</time>
      </trkpt>
      <trkpt lat="43.55196" lon="6.79198">
        <ele>138.96</ele>
        <time>2019-12-08T09:20:25.000Z</time>
      </trkpt>
      <trkpt lat="43.55197" lon="6.79204">
        <ele>139.21</ele>
        <time>2019-12-08T09:20:26.000Z</time>
      </trkpt>
      <trkpt lat="43.55198" lon="6.79209">
        <ele>139.33</ele>
        <time>2019-12-08T09:20:27.000Z</time>
      </trkpt>
      <trkpt lat="43.55199" lon="6.79214">
        <ele>139.58</ele>
        <time>2019-12-08T09:20:28.000Z</time>
      </trkpt>
      <trkpt lat="43.552" lon="6.7922">
        <ele>139.8</ele>
        <time>2019-12-08T09:20:29.000Z</time>
      </trkpt>
      <trkpt lat="43.552" lon="6.79224">
        <ele>140.2</ele>
        <time>2019-12-08T09:20:30.000Z</time>
      </trkpt>
      <trkpt lat="43.55201" lon="6.79229">
        <ele>140.34</ele>
        <time>2019-12-08T09:20:31.000Z</time>
      </trkpt>
      <trkpt lat="43.55201" lon="6.79234">
        <ele>140.62</ele>
        <time>2019-12-08T09:20:32.000Z</time>
      </trkpt>
      <trkpt lat="43.55202" lon="6.79238">
        <ele>141.02</ele>
        <time>2019-12-08T09:20:33.000Z</time>
      </trkpt>
      <trkpt lat="43.55202" lon="6.79243">
        <ele>141.29</ele>
        <time>2019-12-08T09:20:34.000Z</time>
      </trkpt>
      <trkpt lat="43.55202" lon="6.79247">
        <ele>141.41</ele>
        <time>2019-12-08T09:20:35.000Z</time>
      </trkpt>
      <trkpt lat="43.55202" lon="6.79251">
        <ele>141.69</ele>
        <time>2019-12-08T09:20:36.000Z</time>
      </trkpt>
      <trkpt lat="43.55202" lon="6.79255">
        <ele>141.95</ele>
        <time>2019-12-08T09:20:37.000Z</time>
      </trkpt>
      <trkpt lat="43.55202" lon="6.79259">
        <ele>142.24</ele>
        <time>2019-12-08T09:20:38.000Z</time>
      </trkpt>
      <trkpt lat="43.55203" lon="6.79263">
        <ele>142.38</ele>
        <time>2019-12-08T09:20:39.000Z</time>
      </trkpt>
      <trkpt lat="43.55203" lon="6.79267">
        <ele>142.56</ele>
        <time>2019-12-08T09:20:40.000Z</time>
      </trkpt>
      <trkpt lat="43.55204" lon="6.7927">
        <ele>142.86</ele>
        <time>2019-12-08T09:20:41.000Z</time>
      </trkpt>
      <trkpt lat="43.55205" lon="6.79274">
        <ele>143.2</ele>
        <time>2019-12-08T09:20:42.000Z</time>
      </trkpt>
      <trkpt lat="43.55205" lon="6.79278">
        <ele>143.37</ele>
        <time>2019-12-08T09:20:43.000Z</time>
      </trkpt>
      <trkpt lat="43.55206" lon="6.79282">
        <ele>143.72</ele>
        <time>2019-12-08T09:20:44.000Z</time>
      </trkpt>
      <trkpt lat="43.55207" lon="6.79286">
        <ele>144.06</ele>
        <time>2019-12-08T09:20:45.000Z</time>
      </trkpt>
      <trkpt lat="43.55208" lon="6.79289">
        <ele>144.45</ele>
        <time>2019-12-08T09:20:46.000Z</time>
      </trkpt>
      <trkpt lat="43.55209" lon="6.79293">
        <ele>144.75</ele>
        <time>2019-12-08T09:20:47.000Z</time>
      </trkpt>
      <trkpt lat="43.5521" lon="6.79296">
        <ele>144.91</ele>
        <time>2019-12-08T09:20:48.000Z</time>
      </trkpt>
      <trkpt lat="43.55211" lon="6.793">
        <ele>145.28</ele>
        <time>2019-12-08T09:20:49.000Z</time>
      </trkpt>
      <trkpt lat="43.55212" lon="6.79303">
        <ele>145.62</ele>
        <time>2019-12-08T09:20:50.000Z</time>
      </trkpt>
      <trkpt lat="43.55212" lon="6.79307">
        <ele>145.8</ele>
        <time>2019-12-08T09:20:51.000Z</time>
      </trkpt>
      <trkpt lat="43.55213" lon="6.7931">
        <ele>146.15</ele>
        <time>2019-12-08T09:20:52.000Z</time>
      </trkpt>
      <trkpt lat="43.55213" lon="6.79314">
        <ele>146.44</ele>
        <time>2019-12-08T09:20:53.000Z</time>
      </trkpt>
      <trkpt lat="43.55214" lon="6.79318">
        <ele>146.76</ele>
        <time>2019-12-08T09:20:54.000Z</time>
      </trkpt>
      <trkpt lat="43.55214" lon="6.79321">
        <ele>147.04</ele>
        <time>2019-12-08T09:20:55.000Z</time>
      </trkpt>
      <trkpt lat="43.55215" lon="6.79325">
        <ele>147.2</ele>
        <time>2019-12-08T09:20:56.000Z</time>
      </trkpt>
      <trkpt lat="43.55215" lon="6.79329">
        <ele>147.5</ele>
        <time>2019-12-08T09:20:57.000Z</time>
      </trkpt>
      <trkpt lat="43.55215" lon="6.79333">
        <ele>147.85</ele>
        <time>2019-12-08T09:20:58.000Z</time>
      </trkpt>
      <trkpt lat="43.55216" lon="6.79336">
        <ele>148.18</ele>
        <time>2019-12-08T09:20:59.000Z</time>
      </trkpt>
      <trkpt lat="43.55216" lon="6.7934">
        <ele>148.34</ele>
        <time>2019-12-08T09:21:00.000Z</time>
      </trkpt>
      <trkpt lat="43.55216" lon="6.79344">
        <ele>148.7</ele>
        <time>2019-12-08T09:21:01.000Z</time>
      </trkpt>
      <trkpt lat="43.55216" lon="6.79348">
        <ele>149.05</ele>
        <time>2019-12-08T09:21:02.000Z</time>
      </trkpt>
      <trkpt lat="43.55216" lon="6.79351">
        <ele>149.43</ele>
        <time>2019-12-08T09:21:03.000Z</time>
      </trkpt>
      <trkpt lat="43.55216" lon="6.79355">
        <ele>149.61</ele>
        <time>2019-12-08T09:21:04.000Z</time>
      </trkpt>
      <trkpt lat="43.55216" lon="6.79359">
        <ele>149.97</ele>
        <time>2019-12-08T09:21:05.000Z</time>
      </trkpt>
      <trkpt lat="43.55216" lon="6.79362">
        <ele>150.28</ele>
        <time>2019-12-08T09:21:06.000Z</time>
      </trkpt>
      <trkpt lat="43.55215" lon="6.79366">
        <ele>150.62</ele>
        <time>2019-12-08T09:21:07.000Z</time>
      </trkpt>
      <trkpt lat="43.55215" lon="6.7937">
        <ele>150.78</ele>
        <time>2019-12-08T09:21:08.000Z</time>
      </trkpt>
      <trkpt lat="43.55215" lon="6.79373">
        <ele>151.14</ele>
        <time>2019-12-08T09:21:09.000Z</time>
      </trkpt>
      <trkpt lat="43.55214" lon="6.79377">
        <ele>151.46</ele>
        <time>2019-12-08T09:21:10.000Z</time>
      </trkpt>
      <trkpt lat="43.55213" lon="6.7938">
        <ele>151.79</ele>
        <time>2019-12-08T09:21:11.000Z</time>
      </trkpt>
      <trkpt lat="43.55212" lon="6.79384">
        <ele>151.97</ele>
        <time>2019-12-08T09:21:12.000Z</time>
      </trkpt>
      <trkpt lat="43.55211" lon="6.79387">
        <ele>152.28</ele>
        <time>2019-12-08T09:21:13.000Z</time>
      </trkpt>
      <trkpt lat="43.5521" lon="6.79391">
        <ele>152.54</ele>
        <time>2019-12-08T09:21:14.000Z</time>
      </trkpt>
      <trkpt lat="43.55209" lon="6.79395">
        <ele>152.84</ele>
        <time>2019-12-08T09:21:15.000Z</time>
      </trkpt>
      <trkpt lat="43.55208" lon="6.79399">
        <ele>153.1</ele>
        <time>2019-12-08T09:21:16.000Z</time>
      </trkpt>
      <trkpt lat="43.55207" lon="6.79402">
        <ele>153.22</ele>
        <time>2019-12-08T09:21:17.000Z</time>
      </trkpt>
      <trkpt lat="43.55206" lon="6.79406">
        <ele>153.49</ele>
        <time>2019-12-08T09:21:18.000Z</time>
      </trkpt>
      <trkpt lat="43.55204" lon="6.7941">
        <ele>153.76</ele>
        <time>2019-12-08T09:21:19.000Z</time>
      </trkpt>
      <trkpt lat="43.55203" lon="6.79414">
        <ele>153.89</ele>
        <time>2019-12-08T09:21:20.000Z</time>
      </trkpt>
      <trkpt lat="43.55203" lon="6.79418">
        <ele>154.12</ele>
        <time>2019-12-08T09:21:21.000Z</time>
      </trkpt>
      <trkpt lat="43.55202" lon="6.79422">
        <ele>154.29</ele>
        <time>2019-12-08T09:21:22.000Z</time>
      </trkpt>
      <trkpt lat="43.55201" lon="6.79426">
        <ele>154.49</ele>
        <time>2019-12-08T09:21:23.000Z</time>
      </trkpt>
      <trkpt lat="43.552" lon="6.7943">
        <ele>154.67</ele>
        <time>2019-12-08T09:21:24.000Z</time>
      </trkpt>
      <trkpt lat="43.55199" lon="6.79434">
        <ele>154.79</ele>
        <time>2019-12-08T09:21:25.000Z</time>
      </trkpt>
      <trkpt lat="43.55197" lon="6.79438">
        <ele>155.01</ele>
        <time>2019-12-08T09:21:26.000Z</time>
      </trkpt>
      <trkpt lat="43.55196" lon="6.79443">
        <ele>155.24</ele>
        <time>2019-12-08T09:21:27.000Z</time>
      </trkpt>
      <trkpt lat="43.55195" lon="6.79447">
        <ele>155.36</ele>
        <time>2019-12-08T09:21:28.000Z</time>
      </trkpt>
      <trkpt lat="43.55195" lon="6.79452">
        <ele>155.42</ele>
        <time>2019-12-08T09:21:29.000Z</time>
      </trkpt>
      <trkpt lat="43.55194" lon="6.79456">
        <ele>155.51</ele>
        <time>2019-12-08T09:21:30.000Z</time>
      </trkpt>
      <trkpt lat="43.55193" lon="6.79461">
        <ele>155.6</ele>
        <time>2019-12-08T09:21:31.000Z</time>
      </trkpt>
      <trkpt lat="43.55193" lon="6.79467">
        <ele>155.72</ele>
        <time>2019-12-08T09:21:32.000Z</time>
      </trkpt>
      <trkpt lat="43.55193" lon="6.79473">
        <ele>155.76</ele>
        <time>2019-12-08T09:21:33.000Z</time>
      </trkpt>
      <trkpt lat="43.55193" lon="6.79479">
        <ele>155.79</ele>
        <time>2019-12-08T09:21:34.000Z</time>
      </trkpt>
      <trkpt lat="43.55194" lon="6.79485">
        <ele>155.77</ele>
        <time>2019-12-08T09:21:35.000Z</time>
      </trkpt>
      <trkpt lat="43.55194" lon="6.79491">
        <ele>155.8</ele>
        <time>2019-12-08T09:21:36.000Z</time>
      </trkpt>
      <trkpt lat="43.55195" lon="6.79498">
        <ele>155.78</ele>
        <time>2019-12-08T09:21:37.000Z</time>
      </trkpt>
      <trkpt lat="43.55197" lon="6.79505">
        <ele>155.75</ele>
        <time>2019-12-08T09:21:38.000Z</time>
      </trkpt>
      <trkpt lat="43.55199" lon="6.79512">
        <ele>155.66</ele>
        <time>2019-12-08T09:21:39.000Z</time>
      </trkpt>
      <trkpt lat="43.552" lon="6.7952">
        <ele>155.55</ele>
        <time>2019-12-08T09:21:40.000Z</time>
      </trkpt>
      <trkpt lat="43.55202" lon="6.79527">
        <ele>155.49</ele>
        <time>2019-12-08T09:21:41.000Z</time>
      </trkpt>
      <trkpt lat="43.55204" lon="6.79535">
        <ele>155.44</ele>
        <time>2019-12-08T09:21:42.000Z</time>
      </trkpt>
      <trkpt lat="43.55206" lon="6.79542">
        <ele>155.43</ele>
        <time>2019-12-08T09:21:43.000Z</time>
      </trkpt>
      <trkpt lat="43.55208" lon="6.7955">
        <ele>155.46</ele>
        <time>2019-12-08T09:21:44.000Z</time>
      </trkpt>
      <trkpt lat="43.55209" lon="6.79558">
        <ele>155.51</ele>
        <time>2019-12-08T09:21:45.000Z</time>
      </trkpt>
      <trkpt lat="43.55211" lon="6.79566">
        <ele>155.51</ele>
        <time>2019-12-08T09:21:46.000Z</time>
      </trkpt>
      <trkpt lat="43.55213" lon="6.79574">
        <ele>155.55</ele>
        <time>2019-12-08T09:21:47.000Z</time>
      </trkpt>
      <trkpt lat="43.55215" lon="6.79582">
        <ele>155.62</ele>
        <time>2019-12-08T09:21:48.000Z</time>
      </trkpt>
      <trkpt lat="43.55217" lon="6.7959">
        <ele>155.62</ele>
        <time>2019-12-08T09:21:49.000Z</time>
      </trkpt>
      <trkpt lat="43.55218" lon="6.79598">
        <ele>155.71</ele>
        <time>2019-12-08T09:21:50.000Z</time>
      </trkpt>
      <trkpt lat="43.5522" lon="6.79606">
        <ele>155.83</ele>
        <time>2019-12-08T09:21:51.000Z</time>
      </trkpt>
      <trkpt lat="43.55222" lon="6.79614">
        <ele>155.84</ele>
        <time>2019-12-08T09:21:52.000Z</time>
      </trkpt>
      <trkpt lat="43.55223" lon="6.79622">
        <ele>155.84</ele>
        <time>2019-12-08T09:21:53.000Z</time>
      </trkpt>
      <trkpt lat="43.55224" lon="6.7963">
        <ele>155.82</ele>
        <time>2019-12-08T09:21:54.000Z</time>
      </trkpt>
      <trkpt lat="43.55226" lon="6.79637">
        <ele>155.75</ele>
        <time>2019-12-08T09:21:55.000Z</time>
      </trkpt>
      <trkpt lat="43.55227" lon="6.79645">
        <ele>155.63</ele>
        <time>2019-12-08T09:21:56.000Z</time>
      </trkpt>
      <trkpt lat="43.55231" lon="6.7965">
        <ele>155.5</ele>
        <time>2019-12-08T09:21:57.000Z</time>
      </trkpt>
      <trkpt lat="43.55236" lon="6.79654">
        <ele>155.4</ele>
        <time>2019-12-08T09:21:58.000Z</time>
      </trkpt>
      <trkpt lat="43.55242" lon="6.79655">
        <ele>155.18</ele>
        <time>2019-12-08T09:21:59.000Z</time>
      </trkpt>
      <trkpt lat="43.55248" lon="6.79654">
        <ele>155.05</ele>
        <time>2019-12-08T09:22:00.000Z</time>
      </trkpt>
      <trkpt lat="43.55254" lon="6.79652">
        <ele>155.01</ele>
        <time>2019-12-08T09:22:01.000Z</time>
      </trkpt>
      <trkpt lat="43.5526" lon="6.79649">
        <ele>155.07</ele>
        <time>2019-12-08T09:22:02.000Z</time>
      </trkpt>
      <trkpt lat="43.55266" lon="6.79646">
        <ele>155.26</ele>
        <time>2019-12-08T09:22:03.000Z</time>
      </trkpt>
      <trkpt lat="43.55272" lon="6.79643">
        <ele>155.44</ele>
        <time>2019-12-08T09:22:04.000Z</time>
      </trkpt>
      <trkpt lat="43.55278" lon="6.79639">
        <ele>155.61</ele>
        <time>2019-12-08T09:22:05.000Z</time>
      </trkpt>
      <trkpt lat="43.55284" lon="6.79636">
        <ele>155.74</ele>
        <time>2019-12-08T09:22:06.000Z</time>
      </trkpt>
      <trkpt lat="43.5529" lon="6.79633">
        <ele>155.75</ele>
        <time>2019-12-08T09:22:07.000Z</time>
      </trkpt>
      <trkpt lat="43.55296" lon="6.7963">
        <ele>155.81</ele>
        <time>2019-12-08T09:22:08.000Z</time>
      </trkpt>
      <trkpt lat="43.55302" lon="6.79627">
        <ele>155.88</ele>
        <time>2019-12-08T09:22:09.000Z</time>
      </trkpt>
      <trkpt lat="43.55307" lon="6.79624">
        <ele>155.87</ele>
        <time>2019-12-08T09:22:10.000Z</time>
      </trkpt>
      <trkpt lat="43.55313" lon="6.79621">
        <ele>155.87</ele>
        <time>2019-12-08T09:22:11.000Z</time>
      </trkpt>
      <trkpt lat="43.55319" lon="6.79618">
        <ele>155.92</ele>
        <time>2019-12-08T09:22:12.000Z</time>
      </trkpt>
      <trkpt lat="43.55325" lon="6.79615">
        <ele>155.92</ele>
        <time>2019-12-08T09:22:13.000Z</time>
      </trkpt>
      <trkpt lat="43.55331" lon="6.79613">
        <ele>156.04</ele>
        <time>2019-12-08T09:22:14.000Z</time>
      </trkpt>
      <trkpt lat="43.55337" lon="6.79611">
        <ele>156.04</ele>
        <time>2019-12-08T09:22:15.000Z</time>
      </trkpt>
      <trkpt lat="43.55343" lon="6.79609">
        <ele>156.04</ele>
        <time>2019-12-08T09:22:16.000Z</time>
      </trkpt>
      <trkpt lat="43.55349" lon="6.79607">
        <ele>155.99</ele>
        <time>2019-12-08T09:22:17.000Z</time>
      </trkpt>
      <trkpt lat="43.55355" lon="6.79605">
        <ele>155.92</ele>
        <time>2019-12-08T09:22:18.000Z</time>
      </trkpt>
      <trkpt lat="43.55362" lon="6.79604">
        <ele>155.91</ele>
        <time>2019-12-08T09:22:19.000Z</time>
      </trkpt>
      <trkpt lat="43.55368" lon="6.79603">
        <ele>155.96</ele>
        <time>2019-12-08T09:22:20.000Z</time>
      </trkpt>
      <trkpt lat="43.55374" lon="6.79602">
        <ele>156.08</ele>
        <time>2019-12-08T09:22:21.000Z</time>
      </trkpt>
      <trkpt lat="43.5538" lon="6.79601">
        <ele>156.24</ele>
        <time>2019-12-08T09:22:22.000Z</time>
      </trkpt>
      <trkpt lat="43.55386" lon="6.79601">
        <ele>156.35</ele>
        <time>2019-12-08T09:22:23.000Z</time>
      </trkpt>
      <trkpt lat="43.55392" lon="6.79601">
        <ele>156.34</ele>
        <time>2019-12-08T09:22:24.000Z</time>
      </trkpt>
      <trkpt lat="43.55398" lon="6.79601">
        <ele>156.43</ele>
        <time>2019-12-08T09:22:25.000Z</time>
      </trkpt>
      <trkpt lat="43.55404" lon="6.79601">
        <ele>156.54</ele>
        <time>2019-12-08T09:22:26.000Z</time>
      </trkpt>
      <trkpt lat="43.55411" lon="6.79602">
        <ele>156.54</ele>
        <time>2019-12-08T09:22:27.000Z</time>
      </trkpt>
      <trkpt lat="43.55417" lon="6.79602">
        <ele>156.61</ele>
        <time>2019-12-08T09:22:28.000Z</time>
      </trkpt>
      <trkpt lat="43.55423" lon="6.79603">
        <ele>156.82</ele>
        <time>2019-12-08T09:22:29.000Z</time>
      </trkpt>
      <trkpt lat="43.55429" lon="6.79604">
        <ele>156.98</ele>
        <time>2019-12-08T09:22:30.000Z</time>
      </trkpt>
      <trkpt lat="43.55435" lon="6.79605">
        <ele>157.1</ele>
        <time>2019-12-08T09:22:31.000Z</time>
      </trkpt>
      <trkpt lat="43.55442" lon="6.79606">
        <ele>157.22</ele>
        <time>2019-12-08T09:22:32.000Z</time>
      </trkpt>
      <trkpt lat="43.55448" lon="6.79607">
        <ele>157.36</ele>
        <time>2019-12-08T09:22:33.000Z</time>
      </trkpt>
      <trkpt lat="43.55454" lon="6.79608">
        <ele>157.43</ele>
        <time>2019-12-08T09:22:34.000Z</time>
      </trkpt>
      <trkpt lat="43.5546" lon="6.7961">
        <ele>157.41</ele>
        <time>2019-12-08T09:22:35.000Z</time>
      </trkpt>
      <trkpt lat="43.55466" lon="6.79611">
        <ele>157.43</ele>
        <time>2019-12-08T09:22:36.000Z</time>
      </trkpt>
      <trkpt lat="43.55472" lon="6.79612">
        <ele>157.44</ele>
        <time>2019-12-08T09:22:37.000Z</time>
      </trkpt>
      <trkpt lat="43.55479" lon="6.79613">
        <ele>157.46</ele>
        <time>2019-12-08T09:22:38.000Z</time>
      </trkpt>
      <trkpt lat="43.55485" lon="6.79614">
        <ele>157.51</ele>
        <time>2019-12-08T09:22:39.000Z</time>
      </trkpt>
      <trkpt lat="43.55491" lon="6.79615">
        <ele>157.66</ele>
        <time>2019-12-08T09:22:40.000Z</time>
      </trkpt>
      <trkpt lat="43.55497" lon="6.79616">
        <ele>157.79</ele>
        <time>2019-12-08T09:22:41.000Z</time>
      </trkpt>
      <trkpt lat="43.55503" lon="6.79618">
        <ele>158.03</ele>
        <time>2019-12-08T09:22:42.000Z</time>
      </trkpt>
      <trkpt lat="43.55509" lon="6.79619">
        <ele>158.17</ele>
        <time>2019-12-08T09:22:43.000Z</time>
      </trkpt>
      <trkpt lat="43.55515" lon="6.79621">
        <ele>158.4</ele>
        <time>2019-12-08T09:22:44.000Z</time>
      </trkpt>
      <trkpt lat="43.55521" lon="6.79623">
        <ele>158.64</ele>
        <time>2019-12-08T09:22:45.000Z</time>
      </trkpt>
      <trkpt lat="43.55527" lon="6.79624">
        <ele>158.79</ele>
        <time>2019-12-08T09:22:46.000Z</time>
      </trkpt>
      <trkpt lat="43.55533" lon="6.79626">
        <ele>158.82</ele>
        <time>2019-12-08T09:22:47.000Z</time>
      </trkpt>
      <trkpt lat="43.5554" lon="6.79628">
        <ele>158.89</ele>
        <time>2019-12-08T09:22:48.000Z</time>
      </trkpt>
      <trkpt lat="43.55546" lon="6.79631">
        <ele>158.91</ele>
        <time>2019-12-08T09:22:49.000Z</time>
      </trkpt>
      <trkpt lat="43.55552" lon="6.79633">
        <ele>158.83</ele>
        <time>2019-12-08T09:22:50.000Z</time>
      </trkpt>
      <trkpt lat="43.55558" lon="6.79636">
        <ele>158.72</ele>
        <time>2019-12-08T09:22:51.000Z</time>
      </trkpt>
      <trkpt lat="43.55565" lon="6.79639">
        <ele>158.72</ele>
        <time>2019-12-08T09:22:52.000Z</time>
      </trkpt>
      <trkpt lat="43.55571" lon="6.79642">
        <ele>158.62</ele>
        <time>2019-12-08T09:22:53.000Z</time>
      </trkpt>
      <trkpt lat="43.55577" lon="6.79645">
        <ele>158.56</ele>
        <time>2019-12-08T09:22:54.000Z</time>
      </trkpt>
      <trkpt lat="43.55584" lon="6.79648">
        <ele>158.56</ele>
        <time>2019-12-08T09:22:55.000Z</time>
      </trkpt>
      <trkpt lat="43.5559" lon="6.79652">
        <ele>158.57</ele>
        <time>2019-12-08T09:22:56.000Z</time>
      </trkpt>
      <trkpt lat="43.55596" lon="6.79656">
        <ele>158.49</ele>
        <time>2019-12-08T09:22:57.000Z</time>
      </trkpt>
      <trkpt lat="43.55603" lon="6.7966">
        <ele>158.42</ele>
        <time>2019-12-08T09:22:58.000Z</time>
      </trkpt>
      <trkpt lat="43.55609" lon="6.79664">
        <ele>158.36</ele>
        <time>2019-12-08T09:22:59.000Z</time>
      </trkpt>
      <trkpt lat="43.55615" lon="6.79668">
        <ele>158.34</ele>
        <time>2019-12-08T09:23:00.000Z</time>
      </trkpt>
      <trkpt lat="43.55621" lon="6.79672">
        <ele>158.41</ele>
        <time>2019-12-08T09:23:01.000Z</time>
      </trkpt>
      <trkpt lat="43.55627" lon="6.79676">
        <ele>158.58</ele>
        <time>2019-12-08T09:23:02.000Z</time>
      </trkpt>
      <trkpt lat="43.55633" lon="6.79681">
        <ele>158.72</ele>
        <time>2019-12-08T09:23:03.000Z</time>
      </trkpt>
      <trkpt lat="43.55638" lon="6.79685">
        <ele>158.8</ele>
        <time>2019-12-08T09:23:04.000Z</time>
      </trkpt>
      <trkpt lat="43.55644" lon="6.7969">
        <ele>159</ele>
        <time>2019-12-08T09:23:05.000Z</time>
      </trkpt>
      <trkpt lat="43.55649" lon="6.79695">
        <ele>159.12</ele>
        <time>2019-12-08T09:23:06.000Z</time>
      </trkpt>
      <trkpt lat="43.55654" lon="6.79699">
        <ele>159.28</ele>
        <time>2019-12-08T09:23:07.000Z</time>
      </trkpt>
      <trkpt lat="43.5566" lon="6.79704">
        <ele>159.37</ele>
        <time>2019-12-08T09:23:08.000Z</time>
      </trkpt>
      <trkpt lat="43.55665" lon="6.79708">
        <ele>159.55</ele>
        <time>2019-12-08T09:23:09.000Z</time>
      </trkpt>
      <trkpt lat="43.5567" lon="6.79712">
        <ele>159.73</ele>
        <time>2019-12-08T09:23:10.000Z</time>
      </trkpt>
      <trkpt lat="43.55674" lon="6.79716">
        <ele>159.89</ele>
        <time>2019-12-08T09:23:11.000Z</time>
      </trkpt>
      <trkpt lat="43.55679" lon="6.79721">
        <ele>160.12</ele>
        <time>2019-12-08T09:23:12.000Z</time>
      </trkpt>
      <trkpt lat="43.55683" lon="6.79725">
        <ele>160.22</ele>
        <time>2019-12-08T09:23:13.000Z</time>
      </trkpt>
      <trkpt lat="43.55688" lon="6.79729">
        <ele>160.33</ele>
        <time>2019-12-08T09:23:14.000Z</time>
      </trkpt>
      <trkpt lat="43.55692" lon="6.79733">
        <ele>160.59</ele>
        <time>2019-12-08T09:23:15.000Z</time>
      </trkpt>
      <trkpt lat="43.55696" lon="6.79737">
        <ele>160.69</ele>
        <time>2019-12-08T09:23:16.000Z</time>
      </trkpt>
      <trkpt lat="43.55701" lon="6.79741">
        <ele>160.77</ele>
        <time>2019-12-08T09:23:17.000Z</time>
      </trkpt>
      <trkpt lat="43.55705" lon="6.79745">
        <ele>161.04</ele>
        <time>2019-12-08T09:23:18.000Z</time>
      </trkpt>
      <trkpt lat="43.5571" lon="6.79749">
        <ele>161.2</ele>
        <time>2019-12-08T09:23:19.000Z</time>
      </trkpt>
      <trkpt lat="43.55714" lon="6.79753">
        <ele>161.4</ele>
        <time>2019-12-08T09:23:20.000Z</time>
      </trkpt>
      <trkpt lat="43.55719" lon="6.79757">
        <ele>161.55</ele>
        <time>2019-12-08T09:23:21.000Z</time>
      </trkpt>
      <trkpt lat="43.55723" lon="6.79761">
        <ele>161.75</ele>
        <time>2019-12-08T09:23:22.000Z</time>
      </trkpt>
      <trkpt lat="43.55728" lon="6.79765">
        <ele>161.99</ele>
        <time>2019-12-08T09:23:23.000Z</time>
      </trkpt>
      <trkpt lat="43.55732" lon="6.79769">
        <ele>162.2</ele>
        <time>2019-12-08T09:23:24.000Z</time>
      </trkpt>
      <trkpt lat="43.55737" lon="6.79773">
        <ele>162.3</ele>
        <time>2019-12-08T09:23:25.000Z</time>
      </trkpt>
      <trkpt lat="43.55741" lon="6.79778">
        <ele>162.3</ele>
        <time>2019-12-08T09:23:26.000Z</time>
      </trkpt>
      <trkpt lat="43.55746" lon="6.79782">
        <ele>162.29</ele>
        <time>2019-12-08T09:23:27.000Z</time>
      </trkpt>
      <trkpt lat="43.55751" lon="6.79786">
        <ele>162.4</ele>
        <time>2019-12-08T09:23:28.000Z</time>
      </trkpt>
      <trkpt lat="43.55756" lon="6.7979">
        <ele>162.43</ele>
        <time>2019-12-08T09:23:29.000Z</time>
      </trkpt>
      <trkpt lat="43.5576" lon="6.79795">
        <ele>162.51</ele>
        <time>2019-12-08T09:23:30.000Z</time>
      </trkpt>
      <trkpt lat="43.55765" lon="6.79799">
        <ele>162.64</ele>
        <time>2019-12-08T09:23:31.000Z</time>
      </trkpt>
      <trkpt lat="43.55771" lon="6.79804">
        <ele>162.71</ele>
        <time>2019-12-08T09:23:32.000Z</time>
      </trkpt>
      <trkpt lat="43.55776" lon="6.79808">
        <ele>162.67</ele>
        <time>2019-12-08T09:23:33.000Z</time>
      </trkpt>
      <trkpt lat="43.55781" lon="6.79813">
        <ele>162.72</ele>
        <time>2019-12-08T09:23:34.000Z</time>
      </trkpt>
      <trkpt lat="43.55787" lon="6.79817">
        <ele>162.73</ele>
        <time>2019-12-08T09:23:35.000Z</time>
      </trkpt>
      <trkpt lat="43.55792" lon="6.79821">
        <ele>162.74</ele>
        <time>2019-12-08T09:23:36.000Z</time>
      </trkpt>
      <trkpt lat="43.55798" lon="6.79825">
        <ele>162.81</ele>
        <time>2019-12-08T09:23:37.000Z</time>
      </trkpt>
      <trkpt lat="43.55804" lon="6.79829">
        <ele>162.84</ele>
        <time>2019-12-08T09:23:38.000Z</time>
      </trkpt>
      <trkpt lat="43.5581" lon="6.79832">
        <ele>162.89</ele>
        <time>2019-12-08T09:23:39.000Z</time>
      </trkpt>
      <trkpt lat="43.55816" lon="6.79835">
        <ele>162.9</ele>
        <time>2019-12-08T09:23:40.000Z</time>
      </trkpt>
      <trkpt lat="43.55823" lon="6.79838">
        <ele>162.9</ele>
        <time>2019-12-08T09:23:41.000Z</time>
      </trkpt>
      <trkpt lat="43.55829" lon="6.79841">
        <ele>162.91</ele>
        <time>2019-12-08T09:23:42.000Z</time>
      </trkpt>
      <trkpt lat="43.55836" lon="6.79843">
        <ele>162.91</ele>
        <time>2019-12-08T09:23:43.000Z</time>
      </trkpt>
      <trkpt lat="43.55842" lon="6.79845">
        <ele>162.95</ele>
        <time>2019-12-08T09:23:44.000Z</time>
      </trkpt>
      <trkpt lat="43.55849" lon="6.79846">
        <ele>162.9</ele>
        <time>2019-12-08T09:23:45.000Z</time>
      </trkpt>
      <trkpt lat="43.55856" lon="6.79848">
        <ele>162.91</ele>
        <time>2019-12-08T09:23:46.000Z</time>
      </trkpt>
      <trkpt lat="43.55863" lon="6.79848">
        <ele>162.93</ele>
        <time>2019-12-08T09:23:47.000Z</time>
      </trkpt>
      <trkpt lat="43.5587" lon="6.79849">
        <ele>162.99</ele>
        <time>2019-12-08T09:23:48.000Z</time>
      </trkpt>
      <trkpt lat="43.55876" lon="6.79849">
        <ele>163.06</ele>
        <time>2019-12-08T09:23:49.000Z</time>
      </trkpt>
      <trkpt lat="43.55883" lon="6.79849">
        <ele>163.07</ele>
        <time>2019-12-08T09:23:50.000Z</time>
      </trkpt>
      <trkpt lat="43.5589" lon="6.79848">
        <ele>163.09</ele>
        <time>2019-12-08T09:23:51.000Z</time>
      </trkpt>
      <trkpt lat="43.55897" lon="6.79848">
        <ele>163.15</ele>
        <time>2019-12-08T09:23:52.000Z</time>
      </trkpt>
      <trkpt lat="43.55904" lon="6.79849">
        <ele>163.09</ele>
        <time>2019-12-08T09:23:53.000Z</time>
      </trkpt>
      <trkpt lat="43.5591" lon="6.79849">
        <ele>163.09</ele>
        <time>2019-12-08T09:23:54.000Z</time>
      </trkpt>
      <trkpt lat="43.55917" lon="6.79849">
        <ele>163.1</ele>
        <time>2019-12-08T09:23:55.000Z</time>
      </trkpt>
      <trkpt lat="43.55924" lon="6.79849">
        <ele>163.03</ele>
        <time>2019-12-08T09:23:56.000Z</time>
      </trkpt>
      <trkpt lat="43.55931" lon="6.7985">
        <ele>163.11</ele>
        <time>2019-12-08T09:23:57.000Z</time>
      </trkpt>
      <trkpt lat="43.55937" lon="6.79851">
        <ele>163.14</ele>
        <time>2019-12-08T09:23:58.000Z</time>
      </trkpt>
      <trkpt lat="43.55944" lon="6.79853">
        <ele>163.23</ele>
        <time>2019-12-08T09:23:59.000Z</time>
      </trkpt>
      <trkpt lat="43.5595" lon="6.79855">
        <ele>163.42</ele>
        <time>2019-12-08T09:24:00.000Z</time>
      </trkpt>
      <trkpt lat="43.55957" lon="6.79857">
        <ele>163.67</ele>
        <time>2019-12-08T09:24:01.000Z</time>
      </trkpt>
      <trkpt lat="43.55963" lon="6.7986">
        <ele>163.72</ele>
        <time>2019-12-08T09:24:02.000Z</time>
      </trkpt>
      <trkpt lat="43.5597" lon="6.79863">
        <ele>163.82</ele>
        <time>2019-12-08T09:24:03.000Z</time>
      </trkpt>
      <trkpt lat="43.55976" lon="6.79866">
        <ele>163.91</ele>
        <time>2019-12-08T09:24:04.000Z</time>
      </trkpt>
      <trkpt lat="43.55982" lon="6.79869">
        <ele>163.89</ele>
        <time>2019-12-08T09:24:05.000Z</time>
      </trkpt>
      <trkpt lat="43.55988" lon="6.79873">
        <ele>163.88</ele>
        <time>2019-12-08T09:24:06.000Z</time>
      </trkpt>
      <trkpt lat="43.55994" lon="6.79878">
        <ele>163.82</ele>
        <time>2019-12-08T09:24:07.000Z</time>
      </trkpt>
      <trkpt lat="43.56" lon="6.79882">
        <ele>163.91</ele>
        <time>2019-12-08T09:24:08.000Z</time>
      </trkpt>
      <trkpt lat="43.56006" lon="6.79887">
        <ele>163.94</ele>
        <time>2019-12-08T09:24:09.000Z</time>
      </trkpt>
      <trkpt lat="43.56011" lon="6.79892">
        <ele>164.05</ele>
        <time>2019-12-08T09:24:10.000Z</time>
      </trkpt>
      <trkpt lat="43.56017" lon="6.79898">
        <ele>164.19</ele>
        <time>2019-12-08T09:24:11.000Z</time>
      </trkpt>
      <trkpt lat="43.56022" lon="6.79904">
        <ele>164.29</ele>
        <time>2019-12-08T09:24:12.000Z</time>
      </trkpt>
      <trkpt lat="43.56028" lon="6.7991">
        <ele>164.35</ele>
        <time>2019-12-08T09:24:13.000Z</time>
      </trkpt>
      <trkpt lat="43.56033" lon="6.79917">
        <ele>164.36</ele>
        <time>2019-12-08T09:24:14.000Z</time>
      </trkpt>
      <trkpt lat="43.56038" lon="6.79924">
        <ele>164.27</ele>
        <time>2019-12-08T09:24:15.000Z</time>
      </trkpt>
      <trkpt lat="43.56043" lon="6.79931">
        <ele>164.22</ele>
        <time>2019-12-08T09:24:16.000Z</time>
      </trkpt>
      <trkpt lat="43.56047" lon="6.79939">
        <ele>164.12</ele>
        <time>2019-12-08T09:24:17.000Z</time>
      </trkpt>
      <trkpt lat="43.56052" lon="6.79948">
        <ele>163.99</ele>
        <time>2019-12-08T09:24:18.000Z</time>
      </trkpt>
      <trkpt lat="43.56056" lon="6.79956">
        <ele>163.87</ele>
        <time>2019-12-08T09:24:19.000Z</time>
      </trkpt>
      <trkpt lat="43.56061" lon="6.79966">
        <ele>163.57</ele>
        <time>2019-12-08T09:24:20.000Z</time>
      </trkpt>
      <trkpt lat="43.56065" lon="6.79975">
        <ele>163.24</ele>
        <time>2019-12-08T09:24:21.000Z</time>
      </trkpt>
      <trkpt lat="43.56069" lon="6.79985">
        <ele>162.78</ele>
        <time>2019-12-08T09:24:22.000Z</time>
      </trkpt>
      <trkpt lat="43.56074" lon="6.79995">
        <ele>162.66</ele>
        <time>2019-12-08T09:24:23.000Z</time>
      </trkpt>
      <trkpt lat="43.56078" lon="6.80005">
        <ele>162.24</ele>
        <time>2019-12-08T09:24:24.000Z</time>
      </trkpt>
      <trkpt lat="43.56083" lon="6.80015">
        <ele>161.96</ele>
        <time>2019-12-08T09:24:25.000Z</time>
      </trkpt>
      <trkpt lat="43.56088" lon="6.80026">
        <ele>161.57</ele>
        <time>2019-12-08T09:24:26.000Z</time>
      </trkpt>
      <trkpt lat="43.56092" lon="6.80037">
        <ele>161.43</ele>
        <time>2019-12-08T09:24:27.000Z</time>
      </trkpt>
      <trkpt lat="43.56097" lon="6.80048">
        <ele>160.94</ele>
        <time>2019-12-08T09:24:28.000Z</time>
      </trkpt>
      <trkpt lat="43.56103" lon="6.80059">
        <ele>160.56</ele>
        <time>2019-12-08T09:24:29.000Z</time>
      </trkpt>
      <trkpt lat="43.56108" lon="6.8007">
        <ele>160.18</ele>
        <time>2019-12-08T09:24:30.000Z</time>
      </trkpt>
      <trkpt lat="43.56113" lon="6.80081">
        <ele>160.03</ele>
        <time>2019-12-08T09:24:31.000Z</time>
      </trkpt>
      <trkpt lat="43.56119" lon="6.80092">
        <ele>159.67</ele>
        <time>2019-12-08T09:24:32.000Z</time>
      </trkpt>
      <trkpt lat="43.56126" lon="6.80102">
        <ele>159.3</ele>
        <time>2019-12-08T09:24:33.000Z</time>
      </trkpt>
      <trkpt lat="43.56134" lon="6.80111">
        <ele>158.89</ele>
        <time>2019-12-08T09:24:34.000Z</time>
      </trkpt>
      <trkpt lat="43.56142" lon="6.80118">
        <ele>158.68</ele>
        <time>2019-12-08T09:24:35.000Z</time>
      </trkpt>
      <trkpt lat="43.56152" lon="6.80123">
        <ele>158.23</ele>
        <time>2019-12-08T09:24:36.000Z</time>
      </trkpt>
      <trkpt lat="43.56162" lon="6.80126">
        <ele>157.79</ele>
        <time>2019-12-08T09:24:37.000Z</time>
      </trkpt>
      <trkpt lat="43.56172" lon="6.80127">
        <ele>157.36</ele>
        <time>2019-12-08T09:24:38.000Z</time>
      </trkpt>
      <trkpt lat="43.56182" lon="6.80125">
        <ele>157.16</ele>
        <time>2019-12-08T09:24:39.000Z</time>
      </trkpt>
      <trkpt lat="43.56191" lon="6.80121">
        <ele>156.92</ele>
        <time>2019-12-08T09:24:40.000Z</time>
      </trkpt>
      <trkpt lat="43.562" lon="6.80115">
        <ele>156.73</ele>
        <time>2019-12-08T09:24:41.000Z</time>
      </trkpt>
      <trkpt lat="43.56208" lon="6.80107">
        <ele>156.64</ele>
        <time>2019-12-08T09:24:42.000Z</time>
      </trkpt>
      <trkpt lat="43.56215" lon="6.80098">
        <ele>156.64</ele>
        <time>2019-12-08T09:24:43.000Z</time>
      </trkpt>
      <trkpt lat="43.56223" lon="6.8009">
        <ele>156.51</ele>
        <time>2019-12-08T09:24:44.000Z</time>
      </trkpt>
      <trkpt lat="43.5623" lon="6.80082">
        <ele>156.31</ele>
        <time>2019-12-08T09:24:45.000Z</time>
      </trkpt>
      <trkpt lat="43.56237" lon="6.80073">
        <ele>156.17</ele>
        <time>2019-12-08T09:24:46.000Z</time>
      </trkpt>
      <trkpt lat="43.56244" lon="6.80065">
        <ele>156.07</ele>
        <time>2019-12-08T09:24:47.000Z</time>
      </trkpt>
      <trkpt lat="43.56251" lon="6.80057">
        <ele>156.04</ele>
        <time>2019-12-08T09:24:48.000Z</time>
      </trkpt>
      <trkpt lat="43.56258" lon="6.8005">
        <ele>155.96</ele>
        <time>2019-12-08T09:24:49.000Z</time>
      </trkpt>
      <trkpt lat="43.56265" lon="6.80042">
        <ele>155.93</ele>
        <time>2019-12-08T09:24:50.000Z</time>
      </trkpt>
      <trkpt lat="43.56272" lon="6.80034">
        <ele>155.86</ele>
        <time>2019-12-08T09:24:51.000Z</time>
      </trkpt>
      <trkpt lat="43.56279" lon="6.80027">
        <ele>155.82</ele>
        <time>2019-12-08T09:24:52.000Z</time>
      </trkpt>
      <trkpt lat="43.56286" lon="6.8002">
        <ele>155.81</ele>
        <time>2019-12-08T09:24:53.000Z</time>
      </trkpt>
      <trkpt lat="43.56293" lon="6.80012">
        <ele>155.8</ele>
        <time>2019-12-08T09:24:54.000Z</time>
      </trkpt>
      <trkpt lat="43.563" lon="6.80006">
        <ele>155.65</ele>
        <time>2019-12-08T09:24:55.000Z</time>
      </trkpt>
      <trkpt lat="43.56307" lon="6.79999">
        <ele>155.61</ele>
        <time>2019-12-08T09:24:56.000Z</time>
      </trkpt>
      <trkpt lat="43.56314" lon="6.79994">
        <ele>155.58</ele>
        <time>2019-12-08T09:24:57.000Z</time>
      </trkpt>
      <trkpt lat="43.56322" lon="6.79989">
        <ele>155.57</ele>
        <time>2019-12-08T09:24:58.000Z</time>
      </trkpt>
      <trkpt lat="43.5633" lon="6.79986">
        <ele>155.65</ele>
        <time>2019-12-08T09:24:59.000Z</time>
      </trkpt>
      <trkpt lat="43.56337" lon="6.79983">
        <ele>155.65</ele>
        <time>2019-12-08T09:25:00.000Z</time>
      </trkpt>
      <trkpt lat="43.56345" lon="6.79981">
        <ele>155.59</ele>
        <time>2019-12-08T09:25:01.000Z</time>
      </trkpt>
      <trkpt lat="43.56353" lon="6.79979">
        <ele>155.62</ele>
        <time>2019-12-08T09:25:02.000Z</time>
      </trkpt>
      <trkpt lat="43.5636" lon="6.79978">
        <ele>155.63</ele>
        <time>2019-12-08T09:25:03.000Z</time>
      </trkpt>
      <trkpt lat="43.56367" lon="6.79977">
        <ele>155.7</ele>
        <time>2019-12-08T09:25:04.000Z</time>
      </trkpt>
      <trkpt lat="43.56375" lon="6.79976">
        <ele>155.88</ele>
        <time>2019-12-08T09:25:05.000Z</time>
      </trkpt>
      <trkpt lat="43.56382" lon="6.79976">
        <ele>156.13</ele>
        <time>2019-12-08T09:25:06.000Z</time>
      </trkpt>
      <trkpt lat="43.56389" lon="6.79977">
        <ele>156.38</ele>
        <time>2019-12-08T09:25:07.000Z</time>
      </trkpt>
      <trkpt lat="43.56396" lon="6.79978">
        <ele>156.56</ele>
        <time>2019-12-08T09:25:08.000Z</time>
      </trkpt>
      <trkpt lat="43.56402" lon="6.7998">
        <ele>156.84</ele>
        <time>2019-12-08T09:25:09.000Z</time>
      </trkpt>
      <trkpt lat="43.56408" lon="6.79982">
        <ele>157.18</ele>
        <time>2019-12-08T09:25:10.000Z</time>
      </trkpt>
      <trkpt lat="43.56415" lon="6.79984">
        <ele>157.37</ele>
        <time>2019-12-08T09:25:11.000Z</time>
      </trkpt>
      <trkpt lat="43.5642" lon="6.79987">
        <ele>157.5</ele>
        <time>2019-12-08T09:25:12.000Z</time>
      </trkpt>
      <trkpt lat="43.56426" lon="6.79989">
        <ele>157.58</ele>
        <time>2019-12-08T09:25:13.000Z</time>
      </trkpt>
      <trkpt lat="43.56431" lon="6.79992">
        <ele>157.84</ele>
        <time>2019-12-08T09:25:14.000Z</time>
      </trkpt>
      <trkpt lat="43.56437" lon="6.79994">
        <ele>158.11</ele>
        <time>2019-12-08T09:25:15.000Z</time>
      </trkpt>
      <trkpt lat="43.56442" lon="6.79996">
        <ele>158.26</ele>
        <time>2019-12-08T09:25:16.000Z</time>
      </trkpt>
      <trkpt lat="43.56447" lon="6.79998">
        <ele>158.4</ele>
        <time>2019-12-08T09:25:17.000Z</time>
      </trkpt>
      <trkpt lat="43.56452" lon="6.8">
        <ele>158.75</ele>
        <time>2019-12-08T09:25:18.000Z</time>
      </trkpt>
      <trkpt lat="43.56457" lon="6.80002">
        <ele>159.06</ele>
        <time>2019-12-08T09:25:19.000Z</time>
      </trkpt>
      <trkpt lat="43.56462" lon="6.80004">
        <ele>159.34</ele>
        <time>2019-12-08T09:25:20.000Z</time>
      </trkpt>
      <trkpt lat="43.56467" lon="6.80006">
        <ele>159.49</ele>
        <time>2019-12-08T09:25:21.000Z</time>
      </trkpt>
      <trkpt lat="43.56472" lon="6.80009">
        <ele>159.76</ele>
        <time>2019-12-08T09:25:22.000Z</time>
      </trkpt>
      <trkpt lat="43.56477" lon="6.80011">
        <ele>160.02</ele>
        <time>2019-12-08T09:25:23.000Z</time>
      </trkpt>
      <trkpt lat="43.56482" lon="6.80013">
        <ele>160.17</ele>
        <time>2019-12-08T09:25:24.000Z</time>
      </trkpt>
      <trkpt lat="43.56487" lon="6.80015">
        <ele>160.23</ele>
        <time>2019-12-08T09:25:25.000Z</time>
      </trkpt>
      <trkpt lat="43.56493" lon="6.80018">
        <ele>160.37</ele>
        <time>2019-12-08T09:25:26.000Z</time>
      </trkpt>
      <trkpt lat="43.56498" lon="6.8002">
        <ele>160.43</ele>
        <time>2019-12-08T09:25:27.000Z</time>
      </trkpt>
      <trkpt lat="43.56503" lon="6.80022">
        <ele>160.57</ele>
        <time>2019-12-08T09:25:28.000Z</time>
      </trkpt>
      <trkpt lat="43.56508" lon="6.80024">
        <ele>160.66</ele>
        <time>2019-12-08T09:25:29.000Z</time>
      </trkpt>
      <trkpt lat="43.56514" lon="6.80026">
        <ele>160.81</ele>
        <time>2019-12-08T09:25:30.000Z</time>
      </trkpt>
      <trkpt lat="43.56519" lon="6.80029">
        <ele>160.93</ele>
        <time>2019-12-08T09:25:31.000Z</time>
      </trkpt>
      <trkpt lat="43.56524" lon="6.80031">
        <ele>160.98</ele>
        <time>2019-12-08T09:25:32.000Z</time>
      </trkpt>
      <trkpt lat="43.5653" lon="6.80033">
        <ele>160.99</ele>
        <time>2019-12-08T09:25:33.000Z</time>
      </trkpt>
      <trkpt lat="43.56535" lon="6.80035">
        <ele>161.07</ele>
        <time>2019-12-08T09:25:34.000Z</time>
      </trkpt>
      <trkpt lat="43.56541" lon="6.80038">
        <ele>161.06</ele>
        <time>2019-12-08T09:25:35.000Z</time>
      </trkpt>
      <trkpt lat="43.56547" lon="6.8004">
        <ele>161.02</ele>
        <time>2019-12-08T09:25:36.000Z</time>
      </trkpt>
      <trkpt lat="43.56552" lon="6.80043">
        <ele>161.04</ele>
        <time>2019-12-08T09:25:37.000Z</time>
      </trkpt>
      <trkpt lat="43.56558" lon="6.80045">
        <ele>161.04</ele>
        <time>2019-12-08T09:25:38.000Z</time>
      </trkpt>
      <trkpt lat="43.56564" lon="6.80047">
        <ele>160.97</ele>
        <time>2019-12-08T09:25:39.000Z</time>
      </trkpt>
      <trkpt lat="43.5657" lon="6.8005">
        <ele>161.02</ele>
        <time>2019-12-08T09:25:40.000Z</time>
      </trkpt>
      <trkpt lat="43.56576" lon="6.80052">
        <ele>161.06</ele>
        <time>2019-12-08T09:25:41.000Z</time>
      </trkpt>
      <trkpt lat="43.56582" lon="6.80055">
        <ele>161.02</ele>
        <time>2019-12-08T09:25:42.000Z</time>
      </trkpt>
      <trkpt lat="43.56588" lon="6.80057">
        <ele>161.05</ele>
        <time>2019-12-08T09:25:43.000Z</time>
      </trkpt>
      <trkpt lat="43.56594" lon="6.80059">
        <ele>161.06</ele>
        <time>2019-12-08T09:25:44.000Z</time>
      </trkpt>
      <trkpt lat="43.56599" lon="6.80062">
        <ele>161.01</ele>
        <time>2019-12-08T09:25:45.000Z</time>
      </trkpt>
      <trkpt lat="43.56605" lon="6.80064">
        <ele>161.09</ele>
        <time>2019-12-08T09:25:46.000Z</time>
      </trkpt>
      <trkpt lat="43.56611" lon="6.80067">
        <ele>161.12</ele>
        <time>2019-12-08T09:25:47.000Z</time>
      </trkpt>
      <trkpt lat="43.56617" lon="6.80069">
        <ele>161.16</ele>
        <time>2019-12-08T09:25:48.000Z</time>
      </trkpt>
      <trkpt lat="43.56623" lon="6.80072">
        <ele>161.33</ele>
        <time>2019-12-08T09:25:49.000Z</time>
      </trkpt>
      <trkpt lat="43.56629" lon="6.80074">
        <ele>161.29</ele>
        <time>2019-12-08T09:25:50.000Z</time>
      </trkpt>
      <trkpt lat="43.56634" lon="6.80077">
        <ele>161.35</ele>
        <time>2019-12-08T09:25:51.000Z</time>
      </trkpt>
      <trkpt lat="43.5664" lon="6.80079">
        <ele>161.43</ele>
        <time>2019-12-08T09:25:52.000Z</time>
      </trkpt>
      <trkpt lat="43.56646" lon="6.80081">
        <ele>161.58</ele>
        <time>2019-12-08T09:25:53.000Z</time>
      </trkpt>
      <trkpt lat="43.56651" lon="6.80084">
        <ele>161.67</ele>
        <time>2019-12-08T09:25:54.000Z</time>
      </trkpt>
      <trkpt lat="43.56657" lon="6.80086">
        <ele>161.9</ele>
        <time>2019-12-08T09:25:55.000Z</time>
      </trkpt>
      <trkpt lat="43.56662" lon="6.80089">
        <ele>162.2</ele>
        <time>2019-12-08T09:25:56.000Z</time>
      </trkpt>
      <trkpt lat="43.56667" lon="6.80091">
        <ele>162.46</ele>
        <time>2019-12-08T09:25:57.000Z</time>
      </trkpt>
      <trkpt lat="43.56672" lon="6.80094">
        <ele>162.54</ele>
        <time>2019-12-08T09:25:58.000Z</time>
      </trkpt>
      <trkpt lat="43.56677" lon="6.80097">
        <ele>162.81</ele>
        <time>2019-12-08T09:25:59.000Z</time>
      </trkpt>
      <trkpt lat="43.56681" lon="6.80099">
        <ele>163.03</ele>
        <time>2019-12-08T09:26:00.000Z</time>
      </trkpt>
      <trkpt lat="43.56686" lon="6.80102">
        <ele>163.21</ele>
        <time>2019-12-08T09:26:01.000Z</time>
      </trkpt>
      <trkpt lat="43.56691" lon="6.80105">
        <ele>163.33</ele>
        <time>2019-12-08T09:26:02.000Z</time>
      </trkpt>
      <trkpt lat="43.56695" lon="6.80107">
        <ele>163.57</ele>
        <time>2019-12-08T09:26:03.000Z</time>
      </trkpt>
      <trkpt lat="43.567" lon="6.8011">
        <ele>163.83</ele>
        <time>2019-12-08T09:26:04.000Z</time>
      </trkpt>
      <trkpt lat="43.56704" lon="6.80113">
        <ele>164.09</ele>
        <time>2019-12-08T09:26:05.000Z</time>
      </trkpt>
      <trkpt lat="43.56709" lon="6.80116">
        <ele>164.22</ele>
        <time>2019-12-08T09:26:06.000Z</time>
      </trkpt>
      <trkpt lat="43.56713" lon="6.80118">
        <ele>164.47</ele>
        <time>2019-12-08T09:26:07.000Z</time>
      </trkpt>
      <trkpt lat="43.56717" lon="6.80121">
        <ele>164.78</ele>
        <time>2019-12-08T09:26:08.000Z</time>
      </trkpt>
      <trkpt lat="43.56721" lon="6.80124">
        <ele>164.98</ele>
        <time>2019-12-08T09:26:09.000Z</time>
      </trkpt>
      <trkpt lat="43.56726" lon="6.80127">
        <ele>165.26</ele>
        <time>2019-12-08T09:26:10.000Z</time>
      </trkpt>
      <trkpt lat="43.5673" lon="6.8013">
        <ele>165.37</ele>
        <time>2019-12-08T09:26:11.000Z</time>
      </trkpt>
      <trkpt lat="43.56734" lon="6.80133">
        <ele>165.53</ele>
        <time>2019-12-08T09:26:12.000Z</time>
      </trkpt>
      <trkpt lat="43.56738" lon="6.80136">
        <ele>165.68</ele>
        <time>2019-12-08T09:26:13.000Z</time>
      </trkpt>
      <trkpt lat="43.56743" lon="6.8014">
        <ele>165.76</ele>
        <time>2019-12-08T09:26:14.000Z</time>
      </trkpt>
      <trkpt lat="43.56747" lon="6.80143">
        <ele>165.95</ele>
        <time>2019-12-08T09:26:15.000Z</time>
      </trkpt>
      <trkpt lat="43.56751" lon="6.80146">
        <ele>166.15</ele>
        <time>2019-12-08T09:26:16.000Z</time>
      </trkpt>
      <trkpt lat="43.56755" lon="6.8015">
        <ele>166.35</ele>
        <time>2019-12-08T09:26:17.000Z</time>
      </trkpt>
      <trkpt lat="43.5676" lon="6.80153">
        <ele>166.54</ele>
        <time>2019-12-08T09:26:18.000Z</time>
      </trkpt>
      <trkpt lat="43.56764" lon="6.80157">
        <ele>166.59</ele>
        <time>2019-12-08T09:26:19.000Z</time>
      </trkpt>
      <trkpt lat="43.56768" lon="6.8016">
        <ele>166.61</ele>
        <time>2019-12-08T09:26:20.000Z</time>
      </trkpt>
      <trkpt lat="43.56772" lon="6.80164">
        <ele>166.67</ele>
        <time>2019-12-08T09:26:21.000Z</time>
      </trkpt>
      <trkpt lat="43.56776" lon="6.80168">
        <ele>166.68</ele>
        <time>2019-12-08T09:26:22.000Z</time>
      </trkpt>
      <trkpt lat="43.56781" lon="6.80171">
        <ele>166.69</ele>
        <time>2019-12-08T09:26:23.000Z</time>
      </trkpt>
      <trkpt lat="43.56785" lon="6.80175">
        <ele>166.73</ele>
        <time>2019-12-08T09:26:24.000Z</time>
      </trkpt>
      <trkpt lat="43.56789" lon="6.80179">
        <ele>166.8</ele>
        <time>2019-12-08T09:26:25.000Z</time>
      </trkpt>
      <trkpt lat="43.56793" lon="6.80182">
        <ele>166.93</ele>
        <time>2019-12-08T09:26:26.000Z</time>
      </trkpt>
      <trkpt lat="43.56798" lon="6.80186">
        <ele>167</ele>
        <time>2019-12-08T09:26:27.000Z</time>
      </trkpt>
      <trkpt lat="43.56802" lon="6.8019">
        <ele>167.09</ele>
        <time>2019-12-08T09:26:28.000Z</time>
      </trkpt>
      <trkpt lat="43.56806" lon="6.80194">
        <ele>167.18</ele>
        <time>2019-12-08T09:26:29.000Z</time>
      </trkpt>
      <trkpt lat="43.56811" lon="6.80197">
        <ele>167.18</ele>
        <time>2019-12-08T09:26:30.000Z</time>
      </trkpt>
      <trkpt lat="43.56815" lon="6.80201">
        <ele>167.21</ele>
        <time>2019-12-08T09:26:31.000Z</time>
      </trkpt>
      <trkpt lat="43.56819" lon="6.80205">
        <ele>167.27</ele>
        <time>2019-12-08T09:26:32.000Z</time>
      </trkpt>
      <trkpt lat="43.56824" lon="6.80209">
        <ele>167.32</ele>
        <time>2019-12-08T09:26:33.000Z</time>
      </trkpt>
      <trkpt lat="43.56828" lon="6.80213">
        <ele>167.37</ele>
        <time>2019-12-08T09:26:34.000Z</time>
      </trkpt>
      <trkpt lat="43.56833" lon="6.80217">
        <ele>167.37</ele>
        <time>2019-12-08T09:26:35.000Z</time>
      </trkpt>
      <trkpt lat="43.56837" lon="6.80221">
        <ele>167.42</ele>
        <time>2019-12-08T09:26:36.000Z</time>
      </trkpt>
      <trkpt lat="43.56842" lon="6.80225">
        <ele>167.53</ele>
        <time>2019-12-08T09:26:37.000Z</time>
      </trkpt>
      <trkpt lat="43.56846" lon="6.80229">
        <ele>167.61</ele>
        <time>2019-12-08T09:26:38.000Z</time>
      </trkpt>
      <trkpt lat="43.56851" lon="6.80233">
        <ele>167.69</ele>
        <time>2019-12-08T09:26:39.000Z</time>
      </trkpt>
      <trkpt lat="43.56856" lon="6.80237">
        <ele>167.7</ele>
        <time>2019-12-08T09:26:40.000Z</time>
      </trkpt>
      <trkpt lat="43.56861" lon="6.80241">
        <ele>167.72</ele>
        <time>2019-12-08T09:26:41.000Z</time>
      </trkpt>
      <trkpt lat="43.56867" lon="6.80244">
        <ele>167.68</ele>
        <time>2019-12-08T09:26:42.000Z</time>
      </trkpt>
      <trkpt lat="43.56872" lon="6.80248">
        <ele>167.67</ele>
        <time>2019-12-08T09:26:43.000Z</time>
      </trkpt>
      <trkpt lat="43.56878" lon="6.80251">
        <ele>167.69</ele>
        <time>2019-12-08T09:26:44.000Z</time>
      </trkpt>
      <trkpt lat="43.56884" lon="6.80254">
        <ele>167.72</ele>
        <time>2019-12-08T09:26:45.000Z</time>
      </trkpt>
      <trkpt lat="43.5689" lon="6.80257">
        <ele>167.65</ele>
        <time>2019-12-08T09:26:46.000Z</time>
      </trkpt>
      <trkpt lat="43.56896" lon="6.8026">
        <ele>167.53</ele>
        <time>2019-12-08T09:26:47.000Z</time>
      </trkpt>
      <trkpt lat="43.56903" lon="6.80262">
        <ele>167.47</ele>
        <time>2019-12-08T09:26:48.000Z</time>
      </trkpt>
      <trkpt lat="43.5691" lon="6.80265">
        <ele>167.3</ele>
        <time>2019-12-08T09:26:49.000Z</time>
      </trkpt>
      <trkpt lat="43.56917" lon="6.80267">
        <ele>167.06</ele>
        <time>2019-12-08T09:26:50.000Z</time>
      </trkpt>
      <trkpt lat="43.56924" lon="6.80269">
        <ele>166.92</ele>
        <time>2019-12-08T09:26:51.000Z</time>
      </trkpt>
      <trkpt lat="43.56931" lon="6.80271">
        <ele>166.72</ele>
        <time>2019-12-08T09:26:52.000Z</time>
      </trkpt>
      <trkpt lat="43.56939" lon="6.80273">
        <ele>166.52</ele>
        <time>2019-12-08T09:26:53.000Z</time>
      </trkpt>
      <trkpt lat="43.56947" lon="6.80275">
        <ele>166.28</ele>
        <time>2019-12-08T09:26:54.000Z</time>
      </trkpt>
      <trkpt lat="43.56955" lon="6.80277">
        <ele>165.99</ele>
        <time>2019-12-08T09:26:55.000Z</time>
      </trkpt>
      <trkpt lat="43.56963" lon="6.80279">
        <ele>165.86</ele>
        <time>2019-12-08T09:26:56.000Z</time>
      </trkpt>
      <trkpt lat="43.56972" lon="6.80281">
        <ele>165.56</ele>
        <time>2019-12-08T09:26:57.000Z</time>
      </trkpt>
      <trkpt lat="43.5698" lon="6.80282">
        <ele>165.17</ele>
        <time>2019-12-08T09:26:58.000Z</time>
      </trkpt>
      <trkpt lat="43.56989" lon="6.80284">
        <ele>165.17</ele>
        <time>2019-12-08T09:26:59.000Z</time>
      </trkpt>
      <trkpt lat="43.56998" lon="6.80286">
        <ele>164.81</ele>
        <time>2019-12-08T09:27:00.000Z</time>
      </trkpt>
      <trkpt lat="43.57006" lon="6.80289">
        <ele>164.39</ele>
        <time>2019-12-08T09:27:01.000Z</time>
      </trkpt>
      <trkpt lat="43.57015" lon="6.80291">
        <ele>164.01</ele>
        <time>2019-12-08T09:27:02.000Z</time>
      </trkpt>
      <trkpt lat="43.57024" lon="6.80294">
        <ele>163.53</ele>
        <time>2019-12-08T09:27:03.000Z</time>
      </trkpt>
      <trkpt lat="43.57033" lon="6.80298">
        <ele>163.55</ele>
        <time>2019-12-08T09:27:04.000Z</time>
      </trkpt>
      <trkpt lat="43.57041" lon="6.80302">
        <ele>163.3</ele>
        <time>2019-12-08T09:27:05.000Z</time>
      </trkpt>
      <trkpt lat="43.5705" lon="6.80307">
        <ele>163.11</ele>
        <time>2019-12-08T09:27:06.000Z</time>
      </trkpt>
      <trkpt lat="43.57059" lon="6.80312">
        <ele>162.79</ele>
        <time>2019-12-08T09:27:07.000Z</time>
      </trkpt>
      <trkpt lat="43.57067" lon="6.80318">
        <ele>162.72</ele>
        <time>2019-12-08T09:27:08.000Z</time>
      </trkpt>
      <trkpt lat="43.57076" lon="6.80324">
        <ele>162.13</ele>
        <time>2019-12-08T09:27:09.000Z</time>
      </trkpt>
      <trkpt lat="43.57084" lon="6.80331">
        <ele>161.78</ele>
        <time>2019-12-08T09:27:10.000Z</time>
      </trkpt>
      <trkpt lat="43.57093" lon="6.80338">
        <ele>161.41</ele>
        <time>2019-12-08T09:27:11.000Z</time>
      </trkpt>
      <trkpt lat="43.57101" lon="6.80345">
        <ele>161.17</ele>
        <time>2019-12-08T09:27:12.000Z</time>
      </trkpt>
      <trkpt lat="43.5711" lon="6.80353">
        <ele>160.73</ele>
        <time>2019-12-08T09:27:13.000Z</time>
      </trkpt>
      <trkpt lat="43.57118" lon="6.8036">
        <ele>160.24</ele>
        <time>2019-12-08T09:27:14.000Z</time>
      </trkpt>
      <trkpt lat="43.57126" lon="6.80368">
        <ele>159.83</ele>
        <time>2019-12-08T09:27:15.000Z</time>
      </trkpt>
      <trkpt lat="43.57135" lon="6.80375">
        <ele>159.46</ele>
        <time>2019-12-08T09:27:16.000Z</time>
      </trkpt>
      <trkpt lat="43.57144" lon="6.80383">
        <ele>159.28</ele>
        <time>2019-12-08T09:27:17.000Z</time>
      </trkpt>
      <trkpt lat="43.57152" lon="6.8039">
        <ele>159.04</ele>
        <time>2019-12-08T09:27:18.000Z</time>
      </trkpt>
      <trkpt lat="43.5716" lon="6.80398">
        <ele>158.81</ele>
        <time>2019-12-08T09:27:19.000Z</time>
      </trkpt>
      <trkpt lat="43.57168" lon="6.80405">
        <ele>158.71</ele>
        <time>2019-12-08T09:27:20.000Z</time>
      </trkpt>
      <trkpt lat="43.57177" lon="6.80412">
        <ele>158.59</ele>
        <time>2019-12-08T09:27:21.000Z</time>
      </trkpt>
      <trkpt lat="43.57185" lon="6.8042">
        <ele>158.48</ele>
        <time>2019-12-08T09:27:22.000Z</time>
      </trkpt>
      <trkpt lat="43.57193" lon="6.80427">
        <ele>158.38</ele>
        <time>2019-12-08T09:27:23.000Z</time>
      </trkpt>
      <trkpt lat="43.572" lon="6.80434">
        <ele>158.29</ele>
        <time>2019-12-08T09:27:24.000Z</time>
      </trkpt>
      <trkpt lat="43.57208" lon="6.80442">
        <ele>158.25</ele>
        <time>2019-12-08T09:27:25.000Z</time>
      </trkpt>
      <trkpt lat="43.57215" lon="6.80449">
        <ele>158.31</ele>
        <time>2019-12-08T09:27:26.000Z</time>
      </trkpt>
      <trkpt lat="43.57222" lon="6.80456">
        <ele>158.4</ele>
        <time>2019-12-08T09:27:27.000Z</time>
      </trkpt>
      <trkpt lat="43.57229" lon="6.80463">
        <ele>158.57</ele>
        <time>2019-12-08T09:27:28.000Z</time>
      </trkpt>
      <trkpt lat="43.57235" lon="6.8047">
        <ele>158.68</ele>
        <time>2019-12-08T09:27:29.000Z</time>
      </trkpt>
      <trkpt lat="43.57242" lon="6.80476">
        <ele>158.91</ele>
        <time>2019-12-08T09:27:30.000Z</time>
      </trkpt>
      <trkpt lat="43.57248" lon="6.80482">
        <ele>159.1</ele>
        <time>2019-12-08T09:27:31.000Z</time>
      </trkpt>
      <trkpt lat="43.57254" lon="6.80489">
        <ele>159.3</ele>
        <time>2019-12-08T09:27:32.000Z</time>
      </trkpt>
      <trkpt lat="43.5726" lon="6.80494">
        <ele>159.37</ele>
        <time>2019-12-08T09:27:33.000Z</time>
      </trkpt>
      <trkpt lat="43.57267" lon="6.805">
        <ele>159.5</ele>
        <time>2019-12-08T09:27:34.000Z</time>
      </trkpt>
      <trkpt lat="43.57273" lon="6.80506">
        <ele>159.63</ele>
        <time>2019-12-08T09:27:35.000Z</time>
      </trkpt>
      <trkpt lat="43.57279" lon="6.80511">
        <ele>159.7</ele>
        <time>2019-12-08T09:27:36.000Z</time>
      </trkpt>
      <trkpt lat="43.57285" lon="6.80517">
        <ele>159.71</ele>
        <time>2019-12-08T09:27:37.000Z</time>
      </trkpt>
      <trkpt lat="43.57292" lon="6.80522">
        <ele>159.73</ele>
        <time>2019-12-08T09:27:38.000Z</time>
      </trkpt>
      <trkpt lat="43.57299" lon="6.80527">
        <ele>159.61</ele>
        <time>2019-12-08T09:27:39.000Z</time>
      </trkpt>
      <trkpt lat="43.57305" lon="6.80532">
        <ele>159.45</ele>
        <time>2019-12-08T09:27:40.000Z</time>
      </trkpt>
      <trkpt lat="43.57312" lon="6.80538">
        <ele>159.36</ele>
        <time>2019-12-08T09:27:41.000Z</time>
      </trkpt>
      <trkpt lat="43.57319" lon="6.80543">
        <ele>159.14</ele>
        <time>2019-12-08T09:27:42.000Z</time>
      </trkpt>
      <trkpt lat="43.57327" lon="6.80549">
        <ele>158.92</ele>
        <time>2019-12-08T09:27:43.000Z</time>
      </trkpt>
      <trkpt lat="43.57334" lon="6.80555">
        <ele>158.63</ele>
        <time>2019-12-08T09:27:44.000Z</time>
      </trkpt>
      <trkpt lat="43.57341" lon="6.80561">
        <ele>158.3</ele>
        <time>2019-12-08T09:27:45.000Z</time>
      </trkpt>
      <trkpt lat="43.57349" lon="6.80567">
        <ele>158.13</ele>
        <time>2019-12-08T09:27:46.000Z</time>
      </trkpt>
      <trkpt lat="43.57356" lon="6.80574">
        <ele>157.82</ele>
        <time>2019-12-08T09:27:47.000Z</time>
      </trkpt>
      <trkpt lat="43.57363" lon="6.8058">
        <ele>157.53</ele>
        <time>2019-12-08T09:27:48.000Z</time>
      </trkpt>
      <trkpt lat="43.57371" lon="6.80586">
        <ele>157.43</ele>
        <time>2019-12-08T09:27:49.000Z</time>
      </trkpt>
      <trkpt lat="43.57378" lon="6.80593">
        <ele>157.3</ele>
        <time>2019-12-08T09:27:50.000Z</time>
      </trkpt>
      <trkpt lat="43.57385" lon="6.80599">
        <ele>157.19</ele>
        <time>2019-12-08T09:27:51.000Z</time>
      </trkpt>
      <trkpt lat="43.57392" lon="6.80605">
        <ele>157.14</ele>
        <time>2019-12-08T09:27:52.000Z</time>
      </trkpt>
      <trkpt lat="43.57399" lon="6.80611">
        <ele>157.07</ele>
        <time>2019-12-08T09:27:53.000Z</time>
      </trkpt>
      <trkpt lat="43.57406" lon="6.80617">
        <ele>157.07</ele>
        <time>2019-12-08T09:27:54.000Z</time>
      </trkpt>
      <trkpt lat="43.57412" lon="6.80623">
        <ele>157.08</ele>
        <time>2019-12-08T09:27:55.000Z</time>
      </trkpt>
      <trkpt lat="43.57418" lon="6.80629">
        <ele>157.16</ele>
        <time>2019-12-08T09:27:56.000Z</time>
      </trkpt>
      <trkpt lat="43.57425" lon="6.80634">
        <ele>157.35</ele>
        <time>2019-12-08T09:27:57.000Z</time>
      </trkpt>
      <trkpt lat="43.57431" lon="6.8064">
        <ele>157.46</ele>
        <time>2019-12-08T09:27:58.000Z</time>
      </trkpt>
      <trkpt lat="43.57437" lon="6.80645">
        <ele>157.55</ele>
        <time>2019-12-08T09:27:59.000Z</time>
      </trkpt>
      <trkpt lat="43.57443" lon="6.8065">
        <ele>157.76</ele>
        <time>2019-12-08T09:28:00.000Z</time>
      </trkpt>
      <trkpt lat="43.57448" lon="6.80656">
        <ele>157.9</ele>
        <time>2019-12-08T09:28:01.000Z</time>
      </trkpt>
      <trkpt lat="43.57454" lon="6.80662">
        <ele>158.01</ele>
        <time>2019-12-08T09:28:02.000Z</time>
      </trkpt>
      <trkpt lat="43.57459" lon="6.80667">
        <ele>158.01</ele>
        <time>2019-12-08T09:28:03.000Z</time>
      </trkpt>
      <trkpt lat="43.57464" lon="6.80673">
        <ele>158.34</ele>
        <time>2019-12-08T09:28:04.000Z</time>
      </trkpt>
      <trkpt lat="43.57469" lon="6.80679">
        <ele>158.53</ele>
        <time>2019-12-08T09:28:05.000Z</time>
      </trkpt>
      <trkpt lat="43.57474" lon="6.80685">
        <ele>158.74</ele>
        <time>2019-12-08T09:28:06.000Z</time>
      </trkpt>
      <trkpt lat="43.57479" lon="6.80691">
        <ele>159.06</ele>
        <time>2019-12-08T09:28:07.000Z</time>
      </trkpt>
      <trkpt lat="43.57483" lon="6.80697">
        <ele>159.28</ele>
        <time>2019-12-08T09:28:08.000Z</time>
      </trkpt>
      <trkpt lat="43.57488" lon="6.80704">
        <ele>159.46</ele>
        <time>2019-12-08T09:28:09.000Z</time>
      </trkpt>
      <trkpt lat="43.57492" lon="6.8071">
        <ele>159.56</ele>
        <time>2019-12-08T09:28:10.000Z</time>
      </trkpt>
      <trkpt lat="43.57496" lon="6.80717">
        <ele>159.67</ele>
        <time>2019-12-08T09:28:11.000Z</time>
      </trkpt>
      <trkpt lat="43.575" lon="6.80724">
        <ele>159.72</ele>
        <time>2019-12-08T09:28:12.000Z</time>
      </trkpt>
      <trkpt lat="43.57504" lon="6.80731">
        <ele>159.84</ele>
        <time>2019-12-08T09:28:13.000Z</time>
      </trkpt>
      <trkpt lat="43.57507" lon="6.80738">
        <ele>159.83</ele>
        <time>2019-12-08T09:28:14.000Z</time>
      </trkpt>
      <trkpt lat="43.57511" lon="6.80746">
        <ele>159.87</ele>
        <time>2019-12-08T09:28:15.000Z</time>
      </trkpt>
      <trkpt lat="43.57515" lon="6.80753">
        <ele>159.85</ele>
        <time>2019-12-08T09:28:16.000Z</time>
      </trkpt>
      <trkpt lat="43.57519" lon="6.80761">
        <ele>159.85</ele>
        <time>2019-12-08T09:28:17.000Z</time>
      </trkpt>
      <trkpt lat="43.57523" lon="6.80768">
        <ele>159.83</ele>
        <time>2019-12-08T09:28:18.000Z</time>
      </trkpt>
      <trkpt lat="43.57526" lon="6.80776">
        <ele>159.86</ele>
        <time>2019-12-08T09:28:19.000Z</time>
      </trkpt>
      <trkpt lat="43.5753" lon="6.80784">
        <ele>159.89</ele>
        <time>2019-12-08T09:28:20.000Z</time>
      </trkpt>
      <trkpt lat="43.57534" lon="6.80791">
        <ele>159.9</ele>
        <time>2019-12-08T09:28:21.000Z</time>
      </trkpt>
      <trkpt lat="43.57539" lon="6.80799">
        <ele>159.83</ele>
        <time>2019-12-08T09:28:22.000Z</time>
      </trkpt>
      <trkpt lat="43.57543" lon="6.80806">
        <ele>159.81</ele>
        <time>2019-12-08T09:28:23.000Z</time>
      </trkpt>
      <trkpt lat="43.57547" lon="6.80814">
        <ele>159.75</ele>
        <time>2019-12-08T09:28:24.000Z</time>
      </trkpt>
      <trkpt lat="43.57552" lon="6.80821">
        <ele>159.7</ele>
        <time>2019-12-08T09:28:25.000Z</time>
      </trkpt>
      <trkpt lat="43.57557" lon="6.80829">
        <ele>159.64</ele>
        <time>2019-12-08T09:28:26.000Z</time>
      </trkpt>
      <trkpt lat="43.57562" lon="6.80836">
        <ele>159.59</ele>
        <time>2019-12-08T09:28:27.000Z</time>
      </trkpt>
      <trkpt lat="43.57568" lon="6.80842">
        <ele>159.52</ele>
        <time>2019-12-08T09:28:28.000Z</time>
      </trkpt>
      <trkpt lat="43.57574" lon="6.80848">
        <ele>159.42</ele>
        <time>2019-12-08T09:28:29.000Z</time>
      </trkpt>
      <trkpt lat="43.5758" lon="6.80854">
        <ele>159.26</ele>
        <time>2019-12-08T09:28:30.000Z</time>
      </trkpt>
      <trkpt lat="43.57586" lon="6.80859">
        <ele>159.3</ele>
        <time>2019-12-08T09:28:31.000Z</time>
      </trkpt>
      <trkpt lat="43.57592" lon="6.80864">
        <ele>159.25</ele>
        <time>2019-12-08T09:28:32.000Z</time>
      </trkpt>
      <trkpt lat="43.57598" lon="6.80869">
        <ele>159.18</ele>
        <time>2019-12-08T09:28:33.000Z</time>
      </trkpt>
      <trkpt lat="43.57604" lon="6.80874">
        <ele>159.32</ele>
        <time>2019-12-08T09:28:34.000Z</time>
      </trkpt>
      <trkpt lat="43.57611" lon="6.80879">
        <ele>159.36</ele>
        <time>2019-12-08T09:28:35.000Z</time>
      </trkpt>
      <trkpt lat="43.57617" lon="6.80883">
        <ele>159.36</ele>
        <time>2019-12-08T09:28:36.000Z</time>
      </trkpt>
      <trkpt lat="43.57623" lon="6.80888">
        <ele>159.53</ele>
        <time>2019-12-08T09:28:37.000Z</time>
      </trkpt>
      <trkpt lat="43.57629" lon="6.80892">
        <ele>159.59</ele>
        <time>2019-12-08T09:28:38.000Z</time>
      </trkpt>
      <trkpt lat="43.57635" lon="6.80897">
        <ele>159.57</ele>
        <time>2019-12-08T09:28:39.000Z</time>
      </trkpt>
      <trkpt lat="43.57641" lon="6.80902">
        <ele>159.67</ele>
        <time>2019-12-08T09:28:40.000Z</time>
      </trkpt>
      <trkpt lat="43.57647" lon="6.80906">
        <ele>159.78</ele>
        <time>2019-12-08T09:28:41.000Z</time>
      </trkpt>
      <trkpt lat="43.57653" lon="6.80911">
        <ele>159.88</ele>
        <time>2019-12-08T09:28:42.000Z</time>
      </trkpt>
      <trkpt lat="43.57659" lon="6.80915">
        <ele>159.98</ele>
        <time>2019-12-08T09:28:43.000Z</time>
      </trkpt>
      <trkpt lat="43.57665" lon="6.8092">
        <ele>160.01</ele>
        <time>2019-12-08T09:28:44.000Z</time>
      </trkpt>
      <trkpt lat="43.57671" lon="6.80924">
        <ele>160.1</ele>
        <time>2019-12-08T09:28:45.000Z</time>
      </trkpt>
      <trkpt lat="43.57677" lon="6.80928">
        <ele>160.13</ele>
        <time>2019-12-08T09:28:46.000Z</time>
      </trkpt>
      <trkpt lat="43.57683" lon="6.80933">
        <ele>160.14</ele>
        <time>2019-12-08T09:28:47.000Z</time>
      </trkpt>
      <trkpt lat="43.57689" lon="6.80937">
        <ele>160.29</ele>
        <time>2019-12-08T09:28:48.000Z</time>
      </trkpt>
      <trkpt lat="43.57695" lon="6.80941">
        <ele>160.39</ele>
        <time>2019-12-08T09:28:49.000Z</time>
      </trkpt>
      <trkpt lat="43.57701" lon="6.80946">
        <ele>160.49</ele>
        <time>2019-12-08T09:28:50.000Z</time>
      </trkpt>
      <trkpt lat="43.57707" lon="6.8095">
        <ele>160.58</ele>
        <time>2019-12-08T09:28:51.000Z</time>
      </trkpt>
      <trkpt lat="43.57713" lon="6.80955">
        <ele>160.51</ele>
        <time>2019-12-08T09:28:52.000Z</time>
      </trkpt>
      <trkpt lat="43.57719" lon="6.8096">
        <ele>160.53</ele>
        <time>2019-12-08T09:28:53.000Z</time>
      </trkpt>
      <trkpt lat="43.57725" lon="6.80964">
        <ele>160.47</ele>
        <time>2019-12-08T09:28:54.000Z</time>
      </trkpt>
      <trkpt lat="43.57731" lon="6.80969">
        <ele>160.34</ele>
        <time>2019-12-08T09:28:55.000Z</time>
      </trkpt>
      <trkpt lat="43.57738" lon="6.80974">
        <ele>160.28</ele>
        <time>2019-12-08T09:28:56.000Z</time>
      </trkpt>
      <trkpt lat="43.57744" lon="6.80979">
        <ele>160.23</ele>
        <time>2019-12-08T09:28:57.000Z</time>
      </trkpt>
      <trkpt lat="43.57751" lon="6.80984">
        <ele>160.16</ele>
        <time>2019-12-08T09:28:58.000Z</time>
      </trkpt>
      <trkpt lat="43.57757" lon="6.80989">
        <ele>160.2</ele>
        <time>2019-12-08T09:28:59.000Z</time>
      </trkpt>
      <trkpt lat="43.57764" lon="6.80994">
        <ele>160.2</ele>
        <time>2019-12-08T09:29:00.000Z</time>
      </trkpt>
      <trkpt lat="43.57771" lon="6.80999">
        <ele>160.21</ele>
        <time>2019-12-08T09:29:01.000Z</time>
      </trkpt>
      <trkpt lat="43.57778" lon="6.81004">
        <ele>160.14</ele>
        <time>2019-12-08T09:29:02.000Z</time>
      </trkpt>
      <trkpt lat="43.57784" lon="6.81008">
        <ele>159.95</ele>
        <time>2019-12-08T09:29:03.000Z</time>
      </trkpt>
      <trkpt lat="43.57791" lon="6.81013">
        <ele>159.84</ele>
        <time>2019-12-08T09:29:04.000Z</time>
      </trkpt>
      <trkpt lat="43.57798" lon="6.81018">
        <ele>159.75</ele>
        <time>2019-12-08T09:29:05.000Z</time>
      </trkpt>
      <trkpt lat="43.57805" lon="6.81023">
        <ele>159.63</ele>
        <time>2019-12-08T09:29:06.000Z</time>
      </trkpt>
      <trkpt lat="43.57813" lon="6.81027">
        <ele>159.49</ele>
        <time>2019-12-08T09:29:07.000Z</time>
      </trkpt>
      <trkpt lat="43.5782" lon="6.81031">
        <ele>159.45</ele>
        <time>2019-12-08T09:29:08.000Z</time>
      </trkpt>
      <trkpt lat="43.57828" lon="6.81035">
        <ele>159.38</ele>
        <time>2019-12-08T09:29:09.000Z</time>
      </trkpt>
      <trkpt lat="43.57836" lon="6.81039">
        <ele>159.21</ele>
        <time>2019-12-08T09:29:10.000Z</time>
      </trkpt>
      <trkpt lat="43.57844" lon="6.81042">
        <ele>159.11</ele>
        <time>2019-12-08T09:29:11.000Z</time>
      </trkpt>
      <trkpt lat="43.57852" lon="6.81045">
        <ele>158.98</ele>
        <time>2019-12-08T09:29:12.000Z</time>
      </trkpt>
      <trkpt lat="43.5786" lon="6.81048">
        <ele>158.89</ele>
        <time>2019-12-08T09:29:13.000Z</time>
      </trkpt>
      <trkpt lat="43.57868" lon="6.8105">
        <ele>158.77</ele>
        <time>2019-12-08T09:29:14.000Z</time>
      </trkpt>
      <trkpt lat="43.57877" lon="6.81053">
        <ele>158.56</ele>
        <time>2019-12-08T09:29:15.000Z</time>
      </trkpt>
      <trkpt lat="43.57885" lon="6.81055">
        <ele>158.41</ele>
        <time>2019-12-08T09:29:16.000Z</time>
      </trkpt>
      <trkpt lat="43.57894" lon="6.81058">
        <ele>158.11</ele>
        <time>2019-12-08T09:29:17.000Z</time>
      </trkpt>
      <trkpt lat="43.57902" lon="6.81061">
        <ele>157.79</ele>
        <time>2019-12-08T09:29:18.000Z</time>
      </trkpt>
      <trkpt lat="43.57911" lon="6.81065">
        <ele>157.4</ele>
        <time>2019-12-08T09:29:19.000Z</time>
      </trkpt>
      <trkpt lat="43.5792" lon="6.8107">
        <ele>157.09</ele>
        <time>2019-12-08T09:29:20.000Z</time>
      </trkpt>
      <trkpt lat="43.57929" lon="6.81075">
        <ele>156.93</ele>
        <time>2019-12-08T09:29:21.000Z</time>
      </trkpt>
      <trkpt lat="43.57937" lon="6.8108">
        <ele>156.61</ele>
        <time>2019-12-08T09:29:22.000Z</time>
      </trkpt>
      <trkpt lat="43.57946" lon="6.81085">
        <ele>156.31</ele>
        <time>2019-12-08T09:29:23.000Z</time>
      </trkpt>
      <trkpt lat="43.57954" lon="6.81091">
        <ele>156.06</ele>
        <time>2019-12-08T09:29:24.000Z</time>
      </trkpt>
      <trkpt lat="43.57963" lon="6.81096">
        <ele>155.83</ele>
        <time>2019-12-08T09:29:25.000Z</time>
      </trkpt>
      <trkpt lat="43.57972" lon="6.81101">
        <ele>155.54</ele>
        <time>2019-12-08T09:29:26.000Z</time>
      </trkpt>
      <trkpt lat="43.5798" lon="6.81107">
        <ele>155.32</ele>
        <time>2019-12-08T09:29:27.000Z</time>
      </trkpt>
      <trkpt lat="43.57989" lon="6.81112">
        <ele>155.11</ele>
        <time>2019-12-08T09:29:28.000Z</time>
      </trkpt>
      <trkpt lat="43.57997" lon="6.81117">
        <ele>155.03</ele>
        <time>2019-12-08T09:29:29.000Z</time>
      </trkpt>
      <trkpt lat="43.58005" lon="6.81122">
        <ele>155.01</ele>
        <time>2019-12-08T09:29:30.000Z</time>
      </trkpt>
      <trkpt lat="43.58014" lon="6.81127">
        <ele>154.9</ele>
        <time>2019-12-08T09:29:31.000Z</time>
      </trkpt>
      <trkpt lat="43.58022" lon="6.81133">
        <ele>154.71</ele>
        <time>2019-12-08T09:29:32.000Z</time>
      </trkpt>
      <trkpt lat="43.5803" lon="6.81138">
        <ele>154.65</ele>
        <time>2019-12-08T09:29:33.000Z</time>
      </trkpt>
      <trkpt lat="43.58037" lon="6.81143">
        <ele>154.68</ele>
        <time>2019-12-08T09:29:34.000Z</time>
      </trkpt>
      <trkpt lat="43.58045" lon="6.81148">
        <ele>154.7</ele>
        <time>2019-12-08T09:29:35.000Z</time>
      </trkpt>
      <trkpt lat="43.58053" lon="6.81153">
        <ele>154.7</ele>
        <time>2019-12-08T09:29:36.000Z</time>
      </trkpt>
      <trkpt lat="43.5806" lon="6.81158">
        <ele>154.72</ele>
        <time>2019-12-08T09:29:37.000Z</time>
      </trkpt>
      <trkpt lat="43.58067" lon="6.81163">
        <ele>154.81</ele>
        <time>2019-12-08T09:29:38.000Z</time>
      </trkpt>
      <trkpt lat="43.58074" lon="6.81168">
        <ele>154.81</ele>
        <time>2019-12-08T09:29:39.000Z</time>
      </trkpt>
      <trkpt lat="43.58081" lon="6.81173">
        <ele>154.82</ele>
        <time>2019-12-08T09:29:40.000Z</time>
      </trkpt>
      <trkpt lat="43.58088" lon="6.81178">
        <ele>154.84</ele>
        <time>2019-12-08T09:29:41.000Z</time>
      </trkpt>
      <trkpt lat="43.58095" lon="6.81183">
        <ele>154.94</ele>
        <time>2019-12-08T09:29:42.000Z</time>
      </trkpt>
      <trkpt lat="43.58101" lon="6.81187">
        <ele>155.01</ele>
        <time>2019-12-08T09:29:43.000Z</time>
      </trkpt>
      <trkpt lat="43.58108" lon="6.81192">
        <ele>155.12</ele>
        <time>2019-12-08T09:29:44.000Z</time>
      </trkpt>
      <trkpt lat="43.58115" lon="6.81196">
        <ele>155.17</ele>
        <time>2019-12-08T09:29:45.000Z</time>
      </trkpt>
      <trkpt lat="43.58121" lon="6.81201">
        <ele>155.3</ele>
        <time>2019-12-08T09:29:46.000Z</time>
      </trkpt>
      <trkpt lat="43.58128" lon="6.81205">
        <ele>155.45</ele>
        <time>2019-12-08T09:29:47.000Z</time>
      </trkpt>
      <trkpt lat="43.58135" lon="6.81208">
        <ele>155.49</ele>
        <time>2019-12-08T09:29:48.000Z</time>
      </trkpt>
      <trkpt lat="43.58142" lon="6.81211">
        <ele>155.55</ele>
        <time>2019-12-08T09:29:49.000Z</time>
      </trkpt>
      <trkpt lat="43.58149" lon="6.81214">
        <ele>155.57</ele>
        <time>2019-12-08T09:29:50.000Z</time>
      </trkpt>
      <trkpt lat="43.58156" lon="6.81215">
        <ele>155.57</ele>
        <time>2019-12-08T09:29:51.000Z</time>
      </trkpt>
      <trkpt lat="43.58164" lon="6.81216">
        <ele>155.53</ele>
        <time>2019-12-08T09:29:52.000Z</time>
      </trkpt>
      <trkpt lat="43.58171" lon="6.81217">
        <ele>155.4</ele>
        <time>2019-12-08T09:29:53.000Z</time>
      </trkpt>
      <trkpt lat="43.58179" lon="6.81216">
        <ele>155.29</ele>
        <time>2019-12-08T09:29:54.000Z</time>
      </trkpt>
      <trkpt lat="43.58187" lon="6.81213">
        <ele>155.22</ele>
        <time>2019-12-08T09:29:55.000Z</time>
      </trkpt>
      <trkpt lat="43.58194" lon="6.8121">
        <ele>155.15</ele>
        <time>2019-12-08T09:29:56.000Z</time>
      </trkpt>
      <trkpt lat="43.58201" lon="6.81205">
        <ele>155.04</ele>
        <time>2019-12-08T09:29:57.000Z</time>
      </trkpt>
      <trkpt lat="43.58207" lon="6.81198">
        <ele>155.01</ele>
        <time>2019-12-08T09:29:58.000Z</time>
      </trkpt>
      <trkpt lat="43.58213" lon="6.81191">
        <ele>154.86</ele>
        <time>2019-12-08T09:29:59.000Z</time>
      </trkpt>
      <trkpt lat="43.58218" lon="6.81182">
        <ele>154.5</ele>
        <time>2019-12-08T09:30:00.000Z</time>
      </trkpt>
      <trkpt lat="43.58223" lon="6.81173">
        <ele>154.38</ele>
        <time>2019-12-08T09:30:01.000Z</time>
      </trkpt>
      <trkpt lat="43.58227" lon="6.81164">
        <ele>154.25</ele>
        <time>2019-12-08T09:30:02.000Z</time>
      </trkpt>
      <trkpt lat="43.58231" lon="6.81154">
        <ele>153.94</ele>
        <time>2019-12-08T09:30:03.000Z</time>
      </trkpt>
      <trkpt lat="43.58235" lon="6.81144">
        <ele>153.78</ele>
        <time>2019-12-08T09:30:04.000Z</time>
      </trkpt>
      <trkpt lat="43.58239" lon="6.81134">
        <ele>153.57</ele>
        <time>2019-12-08T09:30:05.000Z</time>
      </trkpt>
      <trkpt lat="43.58242" lon="6.81124">
        <ele>153.44</ele>
        <time>2019-12-08T09:30:06.000Z</time>
      </trkpt>
      <trkpt lat="43.58244" lon="6.81113">
        <ele>153.51</ele>
        <time>2019-12-08T09:30:07.000Z</time>
      </trkpt>
      <trkpt lat="43.58246" lon="6.81103">
        <ele>153.64</ele>
        <time>2019-12-08T09:30:08.000Z</time>
      </trkpt>
      <trkpt lat="43.58248" lon="6.81093">
        <ele>153.79</ele>
        <time>2019-12-08T09:30:09.000Z</time>
      </trkpt>
      <trkpt lat="43.58249" lon="6.81083">
        <ele>153.87</ele>
        <time>2019-12-08T09:30:10.000Z</time>
      </trkpt>
      <trkpt lat="43.58249" lon="6.81073">
        <ele>154.06</ele>
        <time>2019-12-08T09:30:11.000Z</time>
      </trkpt>
      <trkpt lat="43.58248" lon="6.81063">
        <ele>154.23</ele>
        <time>2019-12-08T09:30:12.000Z</time>
      </trkpt>
      <trkpt lat="43.58246" lon="6.81053">
        <ele>154.47</ele>
        <time>2019-12-08T09:30:13.000Z</time>
      </trkpt>
      <trkpt lat="43.58243" lon="6.81043">
        <ele>154.6</ele>
        <time>2019-12-08T09:30:14.000Z</time>
      </trkpt>
      <trkpt lat="43.58241" lon="6.81034">
        <ele>154.9</ele>
        <time>2019-12-08T09:30:15.000Z</time>
      </trkpt>
      <trkpt lat="43.58238" lon="6.81025">
        <ele>155.19</ele>
        <time>2019-12-08T09:30:16.000Z</time>
      </trkpt>
      <trkpt lat="43.58236" lon="6.81016">
        <ele>155.43</ele>
        <time>2019-12-08T09:30:17.000Z</time>
      </trkpt>
      <trkpt lat="43.58233" lon="6.81007">
        <ele>155.56</ele>
        <time>2019-12-08T09:30:18.000Z</time>
      </trkpt>
      <trkpt lat="43.5823" lon="6.80998">
        <ele>155.63</ele>
        <time>2019-12-08T09:30:19.000Z</time>
      </trkpt>
      <trkpt lat="43.58228" lon="6.80989">
        <ele>155.73</ele>
        <time>2019-12-08T09:30:20.000Z</time>
      </trkpt>
      <trkpt lat="43.58225" lon="6.8098">
        <ele>155.74</ele>
        <time>2019-12-08T09:30:21.000Z</time>
      </trkpt>
      <trkpt lat="43.58223" lon="6.80971">
        <ele>155.88</ele>
        <time>2019-12-08T09:30:22.000Z</time>
      </trkpt>
      <trkpt lat="43.5822" lon="6.80962">
        <ele>155.96</ele>
        <time>2019-12-08T09:30:23.000Z</time>
      </trkpt>
      <trkpt lat="43.58217" lon="6.80953">
        <ele>155.97</ele>
        <time>2019-12-08T09:30:24.000Z</time>
      </trkpt>
      <trkpt lat="43.58215" lon="6.80944">
        <ele>156.1</ele>
        <time>2019-12-08T09:30:25.000Z</time>
      </trkpt>
      <trkpt lat="43.58212" lon="6.80935">
        <ele>156.23</ele>
        <time>2019-12-08T09:30:26.000Z</time>
      </trkpt>
      <trkpt lat="43.5821" lon="6.80926">
        <ele>156.2</ele>
        <time>2019-12-08T09:30:27.000Z</time>
      </trkpt>
      <trkpt lat="43.58207" lon="6.80917">
        <ele>156.26</ele>
        <time>2019-12-08T09:30:28.000Z</time>
      </trkpt>
      <trkpt lat="43.58205" lon="6.80907">
        <ele>156.36</ele>
        <time>2019-12-08T09:30:29.000Z</time>
      </trkpt>
      <trkpt lat="43.58204" lon="6.80898">
        <ele>156.53</ele>
        <time>2019-12-08T09:30:30.000Z</time>
      </trkpt>
      <trkpt lat="43.58203" lon="6.80888">
        <ele>156.65</ele>
        <time>2019-12-08T09:30:31.000Z</time>
      </trkpt>
      <trkpt lat="43.58202" lon="6.80879">
        <ele>156.85</ele>
        <time>2019-12-08T09:30:32.000Z</time>
      </trkpt>
      <trkpt lat="43.58202" lon="6.80869">
        <ele>157</ele>
        <time>2019-12-08T09:30:33.000Z</time>
      </trkpt>
      <trkpt lat="43.58202" lon="6.8086">
        <ele>157.1</ele>
        <time>2019-12-08T09:30:34.000Z</time>
      </trkpt>
      <trkpt lat="43.58202" lon="6.8085">
        <ele>157.13</ele>
        <time>2019-12-08T09:30:35.000Z</time>
      </trkpt>
      <trkpt lat="43.58202" lon="6.8084">
        <ele>157.14</ele>
        <time>2019-12-08T09:30:36.000Z</time>
      </trkpt>
      <trkpt lat="43.58203" lon="6.80831">
        <ele>157.2</ele>
        <time>2019-12-08T09:30:37.000Z</time>
      </trkpt>
      <trkpt lat="43.58204" lon="6.80821">
        <ele>157.33</ele>
        <time>2019-12-08T09:30:38.000Z</time>
      </trkpt>
      <trkpt lat="43.58205" lon="6.80811">
        <ele>157.35</ele>
        <time>2019-12-08T09:30:39.000Z</time>
      </trkpt>
      <trkpt lat="43.58206" lon="6.80802">
        <ele>157.34</ele>
        <time>2019-12-08T09:30:40.000Z</time>
      </trkpt>
      <trkpt lat="43.58207" lon="6.80792">
        <ele>157.35</ele>
        <time>2019-12-08T09:30:41.000Z</time>
      </trkpt>
      <trkpt lat="43.58208" lon="6.80782">
        <ele>157.27</ele>
        <time>2019-12-08T09:30:42.000Z</time>
      </trkpt>
      <trkpt lat="43.5821" lon="6.80772">
        <ele>157.23</ele>
        <time>2019-12-08T09:30:43.000Z</time>
      </trkpt>
      <trkpt lat="43.58211" lon="6.80762">
        <ele>157.18</ele>
        <time>2019-12-08T09:30:44.000Z</time>
      </trkpt>
      <trkpt lat="43.58212" lon="6.80752">
        <ele>157.04</ele>
        <time>2019-12-08T09:30:45.000Z</time>
      </trkpt>
      <trkpt lat="43.58214" lon="6.80742">
        <ele>156.94</ele>
        <time>2019-12-08T09:30:46.000Z</time>
      </trkpt>
      <trkpt lat="43.58215" lon="6.80731">
        <ele>156.76</ele>
        <time>2019-12-08T09:30:47.000Z</time>
      </trkpt>
      <trkpt lat="43.58216" lon="6.80721">
        <ele>156.72</ele>
        <time>2019-12-08T09:30:48.000Z</time>
      </trkpt>
      <trkpt lat="43.58216" lon="6.8071">
        <ele>156.57</ele>
        <time>2019-12-08T09:30:49.000Z</time>
      </trkpt>
      <trkpt lat="43.58216" lon="6.80699">
        <ele>156.44</ele>
        <time>2019-12-08T09:30:50.000Z</time>
      </trkpt>
      <trkpt lat="43.58215" lon="6.80689">
        <ele>156.36</ele>
        <time>2019-12-08T09:30:51.000Z</time>
      </trkpt>
      <trkpt lat="43.58213" lon="6.80678">
        <ele>156.36</ele>
        <time>2019-12-08T09:30:52.000Z</time>
      </trkpt>
      <trkpt lat="43.5821" lon="6.80667">
        <ele>156.29</ele>
        <time>2019-12-08T09:30:53.000Z</time>
      </trkpt>
      <trkpt lat="43.58207" lon="6.80658">
        <ele>156.32</ele>
        <time>2019-12-08T09:30:54.000Z</time>
      </trkpt>
      <trkpt lat="43.58204" lon="6.80648">
        <ele>156.32</ele>
        <time>2019-12-08T09:30:55.000Z</time>
      </trkpt>
      <trkpt lat="43.582" lon="6.80639">
        <ele>156.3</ele>
        <time>2019-12-08T09:30:56.000Z</time>
      </trkpt>
      <trkpt lat="43.58196" lon="6.8063">
        <ele>156.31</ele>
        <time>2019-12-08T09:30:57.000Z</time>
      </trkpt>
      <trkpt lat="43.58191" lon="6.80621">
        <ele>156.3</ele>
        <time>2019-12-08T09:30:58.000Z</time>
      </trkpt>
      <trkpt lat="43.58187" lon="6.80613">
        <ele>156.22</ele>
        <time>2019-12-08T09:30:59.000Z</time>
      </trkpt>
      <trkpt lat="43.58183" lon="6.80604">
        <ele>156.21</ele>
        <time>2019-12-08T09:31:00.000Z</time>
      </trkpt>
      <trkpt lat="43.5818" lon="6.80595">
        <ele>156.13</ele>
        <time>2019-12-08T09:31:01.000Z</time>
      </trkpt>
      <trkpt lat="43.58176" lon="6.80586">
        <ele>156.13</ele>
        <time>2019-12-08T09:31:02.000Z</time>
      </trkpt>
      <trkpt lat="43.58174" lon="6.80576">
        <ele>156.16</ele>
        <time>2019-12-08T09:31:03.000Z</time>
      </trkpt>
      <trkpt lat="43.58173" lon="6.80566">
        <ele>156.16</ele>
        <time>2019-12-08T09:31:04.000Z</time>
      </trkpt>
      <trkpt lat="43.58173" lon="6.80556">
        <ele>156.09</ele>
        <time>2019-12-08T09:31:05.000Z</time>
      </trkpt>
      <trkpt lat="43.58173" lon="6.80545">
        <ele>156.02</ele>
        <time>2019-12-08T09:31:06.000Z</time>
      </trkpt>
      <trkpt lat="43.58175" lon="6.80535">
        <ele>155.78</ele>
        <time>2019-12-08T09:31:07.000Z</time>
      </trkpt>
      <trkpt lat="43.58177" lon="6.80525">
        <ele>155.67</ele>
        <time>2019-12-08T09:31:08.000Z</time>
      </trkpt>
      <trkpt lat="43.5818" lon="6.80515">
        <ele>155.61</ele>
        <time>2019-12-08T09:31:09.000Z</time>
      </trkpt>
      <trkpt lat="43.58184" lon="6.80506">
        <ele>155.42</ele>
        <time>2019-12-08T09:31:10.000Z</time>
      </trkpt>
      <trkpt lat="43.58189" lon="6.80497">
        <ele>155.18</ele>
        <time>2019-12-08T09:31:11.000Z</time>
      </trkpt>
      <trkpt lat="43.58194" lon="6.80488">
        <ele>154.9</ele>
        <time>2019-12-08T09:31:12.000Z</time>
      </trkpt>
      <trkpt lat="43.58199" lon="6.80478">
        <ele>154.68</ele>
        <time>2019-12-08T09:31:13.000Z</time>
      </trkpt>
      <trkpt lat="43.58204" lon="6.80469">
        <ele>154.25</ele>
        <time>2019-12-08T09:31:14.000Z</time>
      </trkpt>
      <trkpt lat="43.58209" lon="6.80459">
        <ele>154.1</ele>
        <time>2019-12-08T09:31:15.000Z</time>
      </trkpt>
      <trkpt lat="43.58214" lon="6.80449">
        <ele>154.01</ele>
        <time>2019-12-08T09:31:16.000Z</time>
      </trkpt>
      <trkpt lat="43.58219" lon="6.8044">
        <ele>153.89</ele>
        <time>2019-12-08T09:31:17.000Z</time>
      </trkpt>
      <trkpt lat="43.58224" lon="6.8043">
        <ele>153.84</ele>
        <time>2019-12-08T09:31:18.000Z</time>
      </trkpt>
      <trkpt lat="43.58229" lon="6.80421">
        <ele>153.75</ele>
        <time>2019-12-08T09:31:19.000Z</time>
      </trkpt>
      <trkpt lat="43.58234" lon="6.80411">
        <ele>153.68</ele>
        <time>2019-12-08T09:31:20.000Z</time>
      </trkpt>
      <trkpt lat="43.58239" lon="6.80402">
        <ele>153.7</ele>
        <time>2019-12-08T09:31:21.000Z</time>
      </trkpt>
      <trkpt lat="43.58244" lon="6.80392">
        <ele>153.7</ele>
        <time>2019-12-08T09:31:22.000Z</time>
      </trkpt>
      <trkpt lat="43.58249" lon="6.80383">
        <ele>153.77</ele>
        <time>2019-12-08T09:31:23.000Z</time>
      </trkpt>
      <trkpt lat="43.58254" lon="6.80373">
        <ele>153.69</ele>
        <time>2019-12-08T09:31:24.000Z</time>
      </trkpt>
      <trkpt lat="43.58259" lon="6.80364">
        <ele>153.77</ele>
        <time>2019-12-08T09:31:25.000Z</time>
      </trkpt>
      <trkpt lat="43.58264" lon="6.80355">
        <ele>153.77</ele>
        <time>2019-12-08T09:31:26.000Z</time>
      </trkpt>
      <trkpt lat="43.58269" lon="6.80345">
        <ele>153.71</ele>
        <time>2019-12-08T09:31:27.000Z</time>
      </trkpt>
      <trkpt lat="43.58274" lon="6.80336">
        <ele>153.6</ele>
        <time>2019-12-08T09:31:28.000Z</time>
      </trkpt>
      <trkpt lat="43.58279" lon="6.80326">
        <ele>153.61</ele>
        <time>2019-12-08T09:31:29.000Z</time>
      </trkpt>
      <trkpt lat="43.58284" lon="6.80317">
        <ele>153.5</ele>
        <time>2019-12-08T09:31:30.000Z</time>
      </trkpt>
      <trkpt lat="43.58289" lon="6.80308">
        <ele>153.48</ele>
        <time>2019-12-08T09:31:31.000Z</time>
      </trkpt>
      <trkpt lat="43.58294" lon="6.80298">
        <ele>153.5</ele>
        <time>2019-12-08T09:31:32.000Z</time>
      </trkpt>
      <trkpt lat="43.58299" lon="6.80289">
        <ele>153.59</ele>
        <time>2019-12-08T09:31:33.000Z</time>
      </trkpt>
      <trkpt lat="43.58304" lon="6.80279">
        <ele>153.67</ele>
        <time>2019-12-08T09:31:34.000Z</time>
      </trkpt>
      <trkpt lat="43.58309" lon="6.8027">
        <ele>153.76</ele>
        <time>2019-12-08T09:31:35.000Z</time>
      </trkpt>
      <trkpt lat="43.58314" lon="6.8026">
        <ele>153.75</ele>
        <time>2019-12-08T09:31:36.000Z</time>
      </trkpt>
      <trkpt lat="43.58319" lon="6.80251">
        <ele>153.76</ele>
        <time>2019-12-08T09:31:37.000Z</time>
      </trkpt>
      <trkpt lat="43.58324" lon="6.80241">
        <ele>153.69</ele>
        <time>2019-12-08T09:31:38.000Z</time>
      </trkpt>
      <trkpt lat="43.5833" lon="6.80232">
        <ele>153.69</ele>
        <time>2019-12-08T09:31:39.000Z</time>
      </trkpt>
      <trkpt lat="43.58335" lon="6.80222">
        <ele>153.68</ele>
        <time>2019-12-08T09:31:40.000Z</time>
      </trkpt>
      <trkpt lat="43.5834" lon="6.80213">
        <ele>153.73</ele>
        <time>2019-12-08T09:31:41.000Z</time>
      </trkpt>
      <trkpt lat="43.58345" lon="6.80203">
        <ele>153.74</ele>
        <time>2019-12-08T09:31:42.000Z</time>
      </trkpt>
      <trkpt lat="43.5835" lon="6.80193">
        <ele>153.8</ele>
        <time>2019-12-08T09:31:43.000Z</time>
      </trkpt>
      <trkpt lat="43.58355" lon="6.80184">
        <ele>153.92</ele>
        <time>2019-12-08T09:31:44.000Z</time>
      </trkpt>
      <trkpt lat="43.58359" lon="6.80174">
        <ele>153.99</ele>
        <time>2019-12-08T09:31:45.000Z</time>
      </trkpt>
      <trkpt lat="43.58364" lon="6.80165">
        <ele>154.02</ele>
        <time>2019-12-08T09:31:46.000Z</time>
      </trkpt>
      <trkpt lat="43.58369" lon="6.80156">
        <ele>154.03</ele>
        <time>2019-12-08T09:31:47.000Z</time>
      </trkpt>
      <trkpt lat="43.58374" lon="6.80146">
        <ele>153.99</ele>
        <time>2019-12-08T09:31:48.000Z</time>
      </trkpt>
      <trkpt lat="43.58379" lon="6.80137">
        <ele>153.96</ele>
        <time>2019-12-08T09:31:49.000Z</time>
      </trkpt>
      <trkpt lat="43.58384" lon="6.80128">
        <ele>153.92</ele>
        <time>2019-12-08T09:31:50.000Z</time>
      </trkpt>
      <trkpt lat="43.58389" lon="6.80118">
        <ele>153.99</ele>
        <time>2019-12-08T09:31:51.000Z</time>
      </trkpt>
      <trkpt lat="43.58394" lon="6.80109">
        <ele>153.96</ele>
        <time>2019-12-08T09:31:52.000Z</time>
      </trkpt>
      <trkpt lat="43.58399" lon="6.801">
        <ele>153.88</ele>
        <time>2019-12-08T09:31:53.000Z</time>
      </trkpt>
      <trkpt lat="43.58404" lon="6.8009">
        <ele>153.86</ele>
        <time>2019-12-08T09:31:54.000Z</time>
      </trkpt>
      <trkpt lat="43.58409" lon="6.80081">
        <ele>153.93</ele>
        <time>2019-12-08T09:31:55.000Z</time>
      </trkpt>
      <trkpt lat="43.58414" lon="6.80072">
        <ele>153.97</ele>
        <time>2019-12-08T09:31:56.000Z</time>
      </trkpt>
      <trkpt lat="43.58419" lon="6.80062">
        <ele>154.02</ele>
        <time>2019-12-08T09:31:57.000Z</time>
      </trkpt>
      <trkpt lat="43.58424" lon="6.80053">
        <ele>154.02</ele>
        <time>2019-12-08T09:31:58.000Z</time>
      </trkpt>
      <trkpt lat="43.58429" lon="6.80043">
        <ele>153.98</ele>
        <time>2019-12-08T09:31:59.000Z</time>
      </trkpt>
      <trkpt lat="43.58434" lon="6.80034">
        <ele>153.94</ele>
        <time>2019-12-08T09:32:00.000Z</time>
      </trkpt>
      <trkpt lat="43.58439" lon="6.80025">
        <ele>153.94</ele>
        <time>2019-12-08T09:32:01.000Z</time>
      </trkpt>
      <trkpt lat="43.58444" lon="6.80016">
        <ele>153.95</ele>
        <time>2019-12-08T09:32:02.000Z</time>
      </trkpt>
      <trkpt lat="43.58448" lon="6.80007">
        <ele>154.03</ele>
        <time>2019-12-08T09:32:03.000Z</time>
      </trkpt>
      <trkpt lat="43.58453" lon="6.79999">
        <ele>154.25</ele>
        <time>2019-12-08T09:32:04.000Z</time>
      </trkpt>
      <trkpt lat="43.58457" lon="6.79991">
        <ele>154.49</ele>
        <time>2019-12-08T09:32:05.000Z</time>
      </trkpt>
      <trkpt lat="43.58461" lon="6.79983">
        <ele>154.62</ele>
        <time>2019-12-08T09:32:06.000Z</time>
      </trkpt>
      <trkpt lat="43.58465" lon="6.79976">
        <ele>154.9</ele>
        <time>2019-12-08T09:32:07.000Z</time>
      </trkpt>
      <trkpt lat="43.58469" lon="6.79969">
        <ele>155.22</ele>
        <time>2019-12-08T09:32:08.000Z</time>
      </trkpt>
      <trkpt lat="43.58472" lon="6.79962">
        <ele>155.52</ele>
        <time>2019-12-08T09:32:09.000Z</time>
      </trkpt>
      <trkpt lat="43.58476" lon="6.79956">
        <ele>155.84</ele>
        <time>2019-12-08T09:32:10.000Z</time>
      </trkpt>
      <trkpt lat="43.58479" lon="6.79949">
        <ele>156.01</ele>
        <time>2019-12-08T09:32:11.000Z</time>
      </trkpt>
      <trkpt lat="43.58482" lon="6.79943">
        <ele>156.39</ele>
        <time>2019-12-08T09:32:12.000Z</time>
      </trkpt>
      <trkpt lat="43.58486" lon="6.79937">
        <ele>156.79</ele>
        <time>2019-12-08T09:32:13.000Z</time>
      </trkpt>
      <trkpt lat="43.58489" lon="6.79932">
        <ele>156.95</ele>
        <time>2019-12-08T09:32:14.000Z</time>
      </trkpt>
      <trkpt lat="43.58492" lon="6.79926">
        <ele>157.26</ele>
        <time>2019-12-08T09:32:15.000Z</time>
      </trkpt>
      <trkpt lat="43.58494" lon="6.79921">
        <ele>157.62</ele>
        <time>2019-12-08T09:32:16.000Z</time>
      </trkpt>
      <trkpt lat="43.58497" lon="6.79916">
        <ele>157.93</ele>
        <time>2019-12-08T09:32:17.000Z</time>
      </trkpt>
      <trkpt lat="43.585" lon="6.79911">
        <ele>158.28</ele>
        <time>2019-12-08T09:32:18.000Z</time>
      </trkpt>
      <trkpt lat="43.58503" lon="6.79906">
        <ele>158.49</ele>
        <time>2019-12-08T09:32:19.000Z</time>
      </trkpt>
      <trkpt lat="43.58505" lon="6.79901">
        <ele>158.85</ele>
        <time>2019-12-08T09:32:20.000Z</time>
      </trkpt>
      <trkpt lat="43.58507" lon="6.79895">
        <ele>159.15</ele>
        <time>2019-12-08T09:32:21.000Z</time>
      </trkpt>
      <trkpt lat="43.58509" lon="6.7989">
        <ele>159.31</ele>
        <time>2019-12-08T09:32:22.000Z</time>
      </trkpt>
      <trkpt lat="43.58511" lon="6.79884">
        <ele>159.6</ele>
        <time>2019-12-08T09:32:23.000Z</time>
      </trkpt>
      <trkpt lat="43.58513" lon="6.79878">
        <ele>159.9</ele>
        <time>2019-12-08T09:32:24.000Z</time>
      </trkpt>
      <trkpt lat="43.58514" lon="6.79872">
        <ele>160.21</ele>
        <time>2019-12-08T09:32:25.000Z</time>
      </trkpt>
      <trkpt lat="43.58515" lon="6.79866">
        <ele>160.59</ele>
        <time>2019-12-08T09:32:26.000Z</time>
      </trkpt>
      <trkpt lat="43.58515" lon="6.7986">
        <ele>160.78</ele>
        <time>2019-12-08T09:32:27.000Z</time>
      </trkpt>
      <trkpt lat="43.58516" lon="6.79854">
        <ele>161.15</ele>
        <time>2019-12-08T09:32:28.000Z</time>
      </trkpt>
      <trkpt lat="43.58515" lon="6.79848">
        <ele>161.51</ele>
        <time>2019-12-08T09:32:29.000Z</time>
      </trkpt>
      <trkpt lat="43.58515" lon="6.79842">
        <ele>161.87</ele>
        <time>2019-12-08T09:32:30.000Z</time>
      </trkpt>
      <trkpt lat="43.58514" lon="6.79836">
        <ele>162.06</ele>
        <time>2019-12-08T09:32:31.000Z</time>
      </trkpt>
      <trkpt lat="43.58513" lon="6.7983">
        <ele>162.37</ele>
        <time>2019-12-08T09:32:32.000Z</time>
      </trkpt>
      <trkpt lat="43.58512" lon="6.79824">
        <ele>162.7</ele>
        <time>2019-12-08T09:32:33.000Z</time>
      </trkpt>
      <trkpt lat="43.58511" lon="6.79818">
        <ele>162.99</ele>
        <time>2019-12-08T09:32:34.000Z</time>
      </trkpt>
      <trkpt lat="43.5851" lon="6.79812">
        <ele>163.12</ele>
        <time>2019-12-08T09:32:35.000Z</time>
      </trkpt>
      <trkpt lat="43.58509" lon="6.79806">
        <ele>163.38</ele>
        <time>2019-12-08T09:32:36.000Z</time>
      </trkpt>
      <trkpt lat="43.58508" lon="6.79801">
        <ele>163.65</ele>
        <time>2019-12-08T09:32:37.000Z</time>
      </trkpt>
      <trkpt lat="43.58507" lon="6.79795">
        <ele>163.93</ele>
        <time>2019-12-08T09:32:38.000Z</time>
      </trkpt>
      <trkpt lat="43.58506" lon="6.79789">
        <ele>164.18</ele>
        <time>2019-12-08T09:32:39.000Z</time>
      </trkpt>
      <trkpt lat="43.58505" lon="6.79783">
        <ele>164.33</ele>
        <time>2019-12-08T09:32:40.000Z</time>
      </trkpt>
      <trkpt lat="43.58503" lon="6.79778">
        <ele>164.53</ele>
        <time>2019-12-08T09:32:41.000Z</time>
      </trkpt>
      <trkpt lat="43.58502" lon="6.79772">
        <ele>164.84</ele>
        <time>2019-12-08T09:32:42.000Z</time>
      </trkpt>
      <trkpt lat="43.58501" lon="6.79766">
        <ele>164.98</ele>
        <time>2019-12-08T09:32:43.000Z</time>
      </trkpt>
      <trkpt lat="43.585" lon="6.79761">
        <ele>165.32</ele>
        <time>2019-12-08T09:32:44.000Z</time>
      </trkpt>
      <trkpt lat="43.58499" lon="6.79755">
        <ele>165.64</ele>
        <time>2019-12-08T09:32:45.000Z</time>
      </trkpt>
      <trkpt lat="43.58498" lon="6.7975">
        <ele>165.94</ele>
        <time>2019-12-08T09:32:46.000Z</time>
      </trkpt>
      <trkpt lat="43.58498" lon="6.79745">
        <ele>166.19</ele>
        <time>2019-12-08T09:32:47.000Z</time>
      </trkpt>
      <trkpt lat="43.58497" lon="6.79739">
        <ele>166.31</ele>
        <time>2019-12-08T09:32:48.000Z</time>
      </trkpt>
      <trkpt lat="43.58497" lon="6.79734">
        <ele>166.62</ele>
        <time>2019-12-08T09:32:49.000Z</time>
      </trkpt>
      <trkpt lat="43.58496" lon="6.79728">
        <ele>166.86</ele>
        <time>2019-12-08T09:32:50.000Z</time>
      </trkpt>
      <trkpt lat="43.58496" lon="6.79723">
        <ele>167.03</ele>
        <time>2019-12-08T09:32:51.000Z</time>
      </trkpt>
      <trkpt lat="43.58496" lon="6.79717">
        <ele>167.37</ele>
        <time>2019-12-08T09:32:52.000Z</time>
      </trkpt>
      <trkpt lat="43.58496" lon="6.79712">
        <ele>167.71</ele>
        <time>2019-12-08T09:32:53.000Z</time>
      </trkpt>
      <trkpt lat="43.58496" lon="6.79706">
        <ele>168.05</ele>
        <time>2019-12-08T09:32:54.000Z</time>
      </trkpt>
      <trkpt lat="43.58496" lon="6.79701">
        <ele>168.41</ele>
        <time>2019-12-08T09:32:55.000Z</time>
      </trkpt>
      <trkpt lat="43.58496" lon="6.79695">
        <ele>168.56</ele>
        <time>2019-12-08T09:32:56.000Z</time>
      </trkpt>
      <trkpt lat="43.58496" lon="6.7969">
        <ele>168.75</ele>
        <time>2019-12-08T09:32:57.000Z</time>
      </trkpt>
      <trkpt lat="43.58496" lon="6.79684">
        <ele>168.9</ele>
        <time>2019-12-08T09:32:58.000Z</time>
      </trkpt>
      <trkpt lat="43.58496" lon="6.79679">
        <ele>169.05</ele>
        <time>2019-12-08T09:32:59.000Z</time>
      </trkpt>
      <trkpt lat="43.58497" lon="6.79674">
        <ele>169.16</ele>
        <time>2019-12-08T09:33:00.000Z</time>
      </trkpt>
      <trkpt lat="43.58498" lon="6.79668">
        <ele>169.4</ele>
        <time>2019-12-08T09:33:01.000Z</time>
      </trkpt>
      <trkpt lat="43.58498" lon="6.79663">
        <ele>169.68</ele>
        <time>2019-12-08T09:33:02.000Z</time>
      </trkpt>
      <trkpt lat="43.58499" lon="6.79658">
        <ele>170.02</ele>
        <time>2019-12-08T09:33:03.000Z</time>
      </trkpt>
      <trkpt lat="43.585" lon="6.79652">
        <ele>170.17</ele>
        <time>2019-12-08T09:33:04.000Z</time>
      </trkpt>
      <trkpt lat="43.58502" lon="6.79647">
        <ele>170.43</ele>
        <time>2019-12-08T09:33:05.000Z</time>
      </trkpt>
      <trkpt lat="43.58503" lon="6.79642">
        <ele>170.69</ele>
        <time>2019-12-08T09:33:06.000Z</time>
      </trkpt>
      <trkpt lat="43.58505" lon="6.79637">
        <ele>170.84</ele>
        <time>2019-12-08T09:33:07.000Z</time>
      </trkpt>
      <trkpt lat="43.58507" lon="6.79632">
        <ele>170.95</ele>
        <time>2019-12-08T09:33:08.000Z</time>
      </trkpt>
      <trkpt lat="43.58509" lon="6.79627">
        <ele>171.13</ele>
        <time>2019-12-08T09:33:09.000Z</time>
      </trkpt>
      <trkpt lat="43.58511" lon="6.79623">
        <ele>171.3</ele>
        <time>2019-12-08T09:33:10.000Z</time>
      </trkpt>
      <trkpt lat="43.58513" lon="6.79618">
        <ele>171.57</ele>
        <time>2019-12-08T09:33:11.000Z</time>
      </trkpt>
      <trkpt lat="43.58515" lon="6.79613">
        <ele>171.68</ele>
        <time>2019-12-08T09:33:12.000Z</time>
      </trkpt>
      <trkpt lat="43.58517" lon="6.79609">
        <ele>171.91</ele>
        <time>2019-12-08T09:33:13.000Z</time>
      </trkpt>
      <trkpt lat="43.5852" lon="6.79604">
        <ele>172.17</ele>
        <time>2019-12-08T09:33:14.000Z</time>
      </trkpt>
      <trkpt lat="43.58522" lon="6.79599">
        <ele>172.5</ele>
        <time>2019-12-08T09:33:15.000Z</time>
      </trkpt>
      <trkpt lat="43.58524" lon="6.79595">
        <ele>172.9</ele>
        <time>2019-12-08T09:33:16.000Z</time>
      </trkpt>
      <trkpt lat="43.58526" lon="6.7959">
        <ele>173.11</ele>
        <time>2019-12-08T09:33:17.000Z</time>
      </trkpt>
      <trkpt lat="43.58528" lon="6.79585">
        <ele>173.36</ele>
        <time>2019-12-08T09:33:18.000Z</time>
      </trkpt>
      <trkpt lat="43.5853" lon="6.7958">
        <ele>173.61</ele>
        <time>2019-12-08T09:33:19.000Z</time>
      </trkpt>
      <trkpt lat="43.58532" lon="6.79576">
        <ele>173.67</ele>
        <time>2019-12-08T09:33:20.000Z</time>
      </trkpt>
      <trkpt lat="43.58534" lon="6.79571">
        <ele>173.7</ele>
        <time>2019-12-08T09:33:21.000Z</time>
      </trkpt>
      <trkpt lat="43.58537" lon="6.79566">
        <ele>173.86</ele>
        <time>2019-12-08T09:33:22.000Z</time>
      </trkpt>
      <trkpt lat="43.58539" lon="6.79561">
        <ele>174.09</ele>
        <time>2019-12-08T09:33:23.000Z</time>
      </trkpt>
      <trkpt lat="43.58541" lon="6.79557">
        <ele>174.33</ele>
        <time>2019-12-08T09:33:24.000Z</time>
      </trkpt>
      <trkpt lat="43.58543" lon="6.79552">
        <ele>174.42</ele>
        <time>2019-12-08T09:33:25.000Z</time>
      </trkpt>
      <trkpt lat="43.58545" lon="6.79547">
        <ele>174.64</ele>
        <time>2019-12-08T09:33:26.000Z</time>
      </trkpt>
      <trkpt lat="43.58547" lon="6.79542">
        <ele>174.86</ele>
        <time>2019-12-08T09:33:27.000Z</time>
      </trkpt>
      <trkpt lat="43.5855" lon="6.79537">
        <ele>175.07</ele>
        <time>2019-12-08T09:33:28.000Z</time>
      </trkpt>
      <trkpt lat="43.58552" lon="6.79533">
        <ele>175.19</ele>
        <time>2019-12-08T09:33:29.000Z</time>
      </trkpt>
      <trkpt lat="43.58554" lon="6.79528">
        <ele>175.5</ele>
        <time>2019-12-08T09:33:30.000Z</time>
      </trkpt>
      <trkpt lat="43.58556" lon="6.79523">
        <ele>175.71</ele>
        <time>2019-12-08T09:33:31.000Z</time>
      </trkpt>
      <trkpt lat="43.58558" lon="6.79518">
        <ele>175.93</ele>
        <time>2019-12-08T09:33:32.000Z</time>
      </trkpt>
      <trkpt lat="43.5856" lon="6.79513">
        <ele>176.06</ele>
        <time>2019-12-08T09:33:33.000Z</time>
      </trkpt>
      <trkpt lat="43.58563" lon="6.79509">
        <ele>176.29</ele>
        <time>2019-12-08T09:33:34.000Z</time>
      </trkpt>
      <trkpt lat="43.58565" lon="6.79504">
        <ele>176.54</ele>
        <time>2019-12-08T09:33:35.000Z</time>
      </trkpt>
      <trkpt lat="43.58567" lon="6.79499">
        <ele>176.82</ele>
        <time>2019-12-08T09:33:36.000Z</time>
      </trkpt>
      <trkpt lat="43.5857" lon="6.79495">
        <ele>176.82</ele>
        <time>2019-12-08T09:33:37.000Z</time>
      </trkpt>
      <trkpt lat="43.58572" lon="6.79491">
        <ele>177.12</ele>
        <time>2019-12-08T09:33:38.000Z</time>
      </trkpt>
      <trkpt lat="43.58575" lon="6.79486">
        <ele>177.42</ele>
        <time>2019-12-08T09:33:39.000Z</time>
      </trkpt>
      <trkpt lat="43.58578" lon="6.79482">
        <ele>177.42</ele>
        <time>2019-12-08T09:33:40.000Z</time>
      </trkpt>
      <trkpt lat="43.5858" lon="6.79478">
        <ele>177.76</ele>
        <time>2019-12-08T09:33:41.000Z</time>
      </trkpt>
      <trkpt lat="43.58583" lon="6.79474">
        <ele>178.1</ele>
        <time>2019-12-08T09:33:42.000Z</time>
      </trkpt>
      <trkpt lat="43.58587" lon="6.7947">
        <ele>178.43</ele>
        <time>2019-12-08T09:33:43.000Z</time>
      </trkpt>
      <trkpt lat="43.5859" lon="6.79466">
        <ele>178.9</ele>
        <time>2019-12-08T09:33:44.000Z</time>
      </trkpt>
      <trkpt lat="43.58593" lon="6.79462">
        <ele>179.28</ele>
        <time>2019-12-08T09:33:45.000Z</time>
      </trkpt>
      <trkpt lat="43.58597" lon="6.79459">
        <ele>179.43</ele>
        <time>2019-12-08T09:33:46.000Z</time>
      </trkpt>
      <trkpt lat="43.586" lon="6.79456">
        <ele>179.77</ele>
        <time>2019-12-08T09:33:47.000Z</time>
      </trkpt>
      <trkpt lat="43.58604" lon="6.79453">
        <ele>180</ele>
        <time>2019-12-08T09:33:48.000Z</time>
      </trkpt>
      <trkpt lat="43.58608" lon="6.7945">
        <ele>180.08</ele>
        <time>2019-12-08T09:33:49.000Z</time>
      </trkpt>
      <trkpt lat="43.58612" lon="6.79447">
        <ele>180.25</ele>
        <time>2019-12-08T09:33:50.000Z</time>
      </trkpt>
      <trkpt lat="43.58616" lon="6.79445">
        <ele>180.41</ele>
        <time>2019-12-08T09:33:51.000Z</time>
      </trkpt>
      <trkpt lat="43.5862" lon="6.79442">
        <ele>180.58</ele>
        <time>2019-12-08T09:33:52.000Z</time>
      </trkpt>
      <trkpt lat="43.58625" lon="6.7944">
        <ele>180.73</ele>
        <time>2019-12-08T09:33:53.000Z</time>
      </trkpt>
      <trkpt lat="43.58629" lon="6.79437">
        <ele>180.81</ele>
        <time>2019-12-08T09:33:54.000Z</time>
      </trkpt>
      <trkpt lat="43.58633" lon="6.79435">
        <ele>180.99</ele>
        <time>2019-12-08T09:33:55.000Z</time>
      </trkpt>
      <trkpt lat="43.58637" lon="6.79432">
        <ele>181.2</ele>
        <time>2019-12-08T09:33:56.000Z</time>
      </trkpt>
      <trkpt lat="43.58641" lon="6.7943">
        <ele>181.38</ele>
        <time>2019-12-08T09:33:57.000Z</time>
      </trkpt>
      <trkpt lat="43.58645" lon="6.79426">
        <ele>181.45</ele>
        <time>2019-12-08T09:33:58.000Z</time>
      </trkpt>
      <trkpt lat="43.58649" lon="6.79422">
        <ele>181.55</ele>
        <time>2019-12-08T09:33:59.000Z</time>
      </trkpt>
      <trkpt lat="43.58652" lon="6.79418">
        <ele>181.52</ele>
        <time>2019-12-08T09:34:00.000Z</time>
      </trkpt>
      <trkpt lat="43.58655" lon="6.79413">
        <ele>181.33</ele>
        <time>2019-12-08T09:34:01.000Z</time>
      </trkpt>
      <trkpt lat="43.58658" lon="6.79407">
        <ele>181.25</ele>
        <time>2019-12-08T09:34:02.000Z</time>
      </trkpt>
      <trkpt lat="43.58661" lon="6.79401">
        <ele>181.09</ele>
        <time>2019-12-08T09:34:03.000Z</time>
      </trkpt>
      <trkpt lat="43.58664" lon="6.79394">
        <ele>181</ele>
        <time>2019-12-08T09:34:04.000Z</time>
      </trkpt>
      <trkpt lat="43.58666" lon="6.79386">
        <ele>181.11</ele>
        <time>2019-12-08T09:34:05.000Z</time>
      </trkpt>
      <trkpt lat="43.58667" lon="6.79379">
        <ele>181.11</ele>
        <time>2019-12-08T09:34:06.000Z</time>
      </trkpt>
      <trkpt lat="43.58668" lon="6.79371">
        <ele>181.17</ele>
        <time>2019-12-08T09:34:07.000Z</time>
      </trkpt>
      <trkpt lat="43.58669" lon="6.79362">
        <ele>181.34</ele>
        <time>2019-12-08T09:34:08.000Z</time>
      </trkpt>
      <trkpt lat="43.58669" lon="6.79354">
        <ele>181.2</ele>
        <time>2019-12-08T09:34:09.000Z</time>
      </trkpt>
      <trkpt lat="43.58669" lon="6.79345">
        <ele>181.2</ele>
        <time>2019-12-08T09:34:10.000Z</time>
      </trkpt>
      <trkpt lat="43.58668" lon="6.79337">
        <ele>181.19</ele>
        <time>2019-12-08T09:34:11.000Z</time>
      </trkpt>
      <trkpt lat="43.58667" lon="6.79328">
        <ele>181</ele>
        <time>2019-12-08T09:34:12.000Z</time>
      </trkpt>
      <trkpt lat="43.58666" lon="6.79319">
        <ele>180.84</ele>
        <time>2019-12-08T09:34:13.000Z</time>
      </trkpt>
      <trkpt lat="43.58666" lon="6.7931">
        <ele>180.69</ele>
        <time>2019-12-08T09:34:14.000Z</time>
      </trkpt>
      <trkpt lat="43.58665" lon="6.793">
        <ele>180.61</ele>
        <time>2019-12-08T09:34:15.000Z</time>
      </trkpt>
      <trkpt lat="43.58666" lon="6.79291">
        <ele>180.47</ele>
        <time>2019-12-08T09:34:16.000Z</time>
      </trkpt>
      <trkpt lat="43.58667" lon="6.79281">
        <ele>180.29</ele>
        <time>2019-12-08T09:34:17.000Z</time>
      </trkpt>
      <trkpt lat="43.58669" lon="6.79272">
        <ele>180.12</ele>
        <time>2019-12-08T09:34:18.000Z</time>
      </trkpt>
      <trkpt lat="43.58672" lon="6.79263">
        <ele>180.12</ele>
        <time>2019-12-08T09:34:19.000Z</time>
      </trkpt>
      <trkpt lat="43.58676" lon="6.79255">
        <ele>179.86</ele>
        <time>2019-12-08T09:34:20.000Z</time>
      </trkpt>
      <trkpt lat="43.58682" lon="6.79248">
        <ele>179.59</ele>
        <time>2019-12-08T09:34:21.000Z</time>
      </trkpt>
      <trkpt lat="43.58688" lon="6.79242">
        <ele>179.36</ele>
        <time>2019-12-08T09:34:22.000Z</time>
      </trkpt>
      <trkpt lat="43.58695" lon="6.79238">
        <ele>179.19</ele>
        <time>2019-12-08T09:34:23.000Z</time>
      </trkpt>
      <trkpt lat="43.58703" lon="6.79235">
        <ele>178.88</ele>
        <time>2019-12-08T09:34:24.000Z</time>
      </trkpt>
      <trkpt lat="43.58712" lon="6.79235">
        <ele>178.57</ele>
        <time>2019-12-08T09:34:25.000Z</time>
      </trkpt>
      <trkpt lat="43.5872" lon="6.79236">
        <ele>178.13</ele>
        <time>2019-12-08T09:34:26.000Z</time>
      </trkpt>
      <trkpt lat="43.58729" lon="6.79238">
        <ele>177.95</ele>
        <time>2019-12-08T09:34:27.000Z</time>
      </trkpt>
      <trkpt lat="43.58737" lon="6.7924">
        <ele>177.56</ele>
        <time>2019-12-08T09:34:28.000Z</time>
      </trkpt>
      <trkpt lat="43.58746" lon="6.79241">
        <ele>177.13</ele>
        <time>2019-12-08T09:34:29.000Z</time>
      </trkpt>
      <trkpt lat="43.58755" lon="6.79242">
        <ele>176.72</ele>
        <time>2019-12-08T09:34:30.000Z</time>
      </trkpt>
      <trkpt lat="43.58764" lon="6.7924">
        <ele>176.52</ele>
        <time>2019-12-08T09:34:31.000Z</time>
      </trkpt>
      <trkpt lat="43.58772" lon="6.79237">
        <ele>176.1</ele>
        <time>2019-12-08T09:34:32.000Z</time>
      </trkpt>
      <trkpt lat="43.5878" lon="6.79231">
        <ele>175.73</ele>
        <time>2019-12-08T09:34:33.000Z</time>
      </trkpt>
      <trkpt lat="43.58787" lon="6.79224">
        <ele>175.34</ele>
        <time>2019-12-08T09:34:34.000Z</time>
      </trkpt>
      <trkpt lat="43.58793" lon="6.79214">
        <ele>175.07</ele>
        <time>2019-12-08T09:34:35.000Z</time>
      </trkpt>
      <trkpt lat="43.58797" lon="6.79203">
        <ele>174.5</ele>
        <time>2019-12-08T09:34:36.000Z</time>
      </trkpt>
      <trkpt lat="43.588" lon="6.7919">
        <ele>173.99</ele>
        <time>2019-12-08T09:34:37.000Z</time>
      </trkpt>
      <trkpt lat="43.58801" lon="6.79177">
        <ele>173.33</ele>
        <time>2019-12-08T09:34:38.000Z</time>
      </trkpt>
      <trkpt lat="43.588" lon="6.79164">
        <ele>173.11</ele>
        <time>2019-12-08T09:34:39.000Z</time>
      </trkpt>
      <trkpt lat="43.58798" lon="6.79151">
        <ele>172.77</ele>
        <time>2019-12-08T09:34:40.000Z</time>
      </trkpt>
      <trkpt lat="43.58797" lon="6.79138">
        <ele>172.31</ele>
        <time>2019-12-08T09:34:41.000Z</time>
      </trkpt>
      <trkpt lat="43.58795" lon="6.79124">
        <ele>171.77</ele>
        <time>2019-12-08T09:34:42.000Z</time>
      </trkpt>
      <trkpt lat="43.58796" lon="6.7911">
        <ele>171.19</ele>
        <time>2019-12-08T09:34:43.000Z</time>
      </trkpt>
      <trkpt lat="43.58798" lon="6.79096">
        <ele>170.81</ele>
        <time>2019-12-08T09:34:44.000Z</time>
      </trkpt>
      <trkpt lat="43.58803" lon="6.79084">
        <ele>170.2</ele>
        <time>2019-12-08T09:34:45.000Z</time>
      </trkpt>
      <trkpt lat="43.5881" lon="6.79073">
        <ele>169.58</ele>
        <time>2019-12-08T09:34:46.000Z</time>
      </trkpt>
      <trkpt lat="43.58818" lon="6.79065">
        <ele>169.32</ele>
        <time>2019-12-08T09:34:47.000Z</time>
      </trkpt>
      <trkpt lat="43.58829" lon="6.79061">
        <ele>168.71</ele>
        <time>2019-12-08T09:34:48.000Z</time>
      </trkpt>
      <trkpt lat="43.58839" lon="6.79058">
        <ele>168.11</ele>
        <time>2019-12-08T09:34:49.000Z</time>
      </trkpt>
      <trkpt lat="43.5885" lon="6.79056">
        <ele>167.52</ele>
        <time>2019-12-08T09:34:50.000Z</time>
      </trkpt>
      <trkpt lat="43.5886" lon="6.79053">
        <ele>166.87</ele>
        <time>2019-12-08T09:34:51.000Z</time>
      </trkpt>
      <trkpt lat="43.5887" lon="6.79048">
        <ele>166.54</ele>
        <time>2019-12-08T09:34:52.000Z</time>
      </trkpt>
      <trkpt lat="43.5888" lon="6.79041">
        <ele>165.9</ele>
        <time>2019-12-08T09:34:53.000Z</time>
      </trkpt>
      <trkpt lat="43.5889" lon="6.79034">
        <ele>165.26</ele>
        <time>2019-12-08T09:34:54.000Z</time>
      </trkpt>
      <trkpt lat="43.58899" lon="6.79026">
        <ele>164.55</ele>
        <time>2019-12-08T09:34:55.000Z</time>
      </trkpt>
      <trkpt lat="43.58909" lon="6.79018">
        <ele>164.21</ele>
        <time>2019-12-08T09:34:56.000Z</time>
      </trkpt>
      <trkpt lat="43.58918" lon="6.7901">
        <ele>163.55</ele>
        <time>2019-12-08T09:34:57.000Z</time>
      </trkpt>
      <trkpt lat="43.58928" lon="6.79003">
        <ele>162.88</ele>
        <time>2019-12-08T09:34:58.000Z</time>
      </trkpt>
      <trkpt lat="43.58937" lon="6.78995">
        <ele>162.39</ele>
        <time>2019-12-08T09:34:59.000Z</time>
      </trkpt>
      <trkpt lat="43.58946" lon="6.78988">
        <ele>162.2</ele>
        <time>2019-12-08T09:35:00.000Z</time>
      </trkpt>
      <trkpt lat="43.58955" lon="6.78982">
        <ele>161.96</ele>
        <time>2019-12-08T09:35:01.000Z</time>
      </trkpt>
      <trkpt lat="43.58964" lon="6.78976">
        <ele>161.87</ele>
        <time>2019-12-08T09:35:02.000Z</time>
      </trkpt>
      <trkpt lat="43.58973" lon="6.78971">
        <ele>162</ele>
        <time>2019-12-08T09:35:03.000Z</time>
      </trkpt>
      <trkpt lat="43.58981" lon="6.78966">
        <ele>162.12</ele>
        <time>2019-12-08T09:35:04.000Z</time>
      </trkpt>
      <trkpt lat="43.58989" lon="6.78962">
        <ele>162.12</ele>
        <time>2019-12-08T09:35:05.000Z</time>
      </trkpt>
      <trkpt lat="43.58997" lon="6.78959">
        <ele>162.12</ele>
        <time>2019-12-08T09:35:06.000Z</time>
      </trkpt>
      <trkpt lat="43.59005" lon="6.78957">
        <ele>162.68</ele>
        <time>2019-12-08T09:35:07.000Z</time>
      </trkpt>
      <trkpt lat="43.59012" lon="6.78955">
        <ele>162.99</ele>
        <time>2019-12-08T09:35:08.000Z</time>
      </trkpt>
      <trkpt lat="43.59018" lon="6.78954">
        <ele>163.65</ele>
        <time>2019-12-08T09:35:09.000Z</time>
      </trkpt>
      <trkpt lat="43.59025" lon="6.78953">
        <ele>164.37</ele>
        <time>2019-12-08T09:35:10.000Z</time>
      </trkpt>
      <trkpt lat="43.5903" lon="6.78953">
        <ele>165.01</ele>
        <time>2019-12-08T09:35:11.000Z</time>
      </trkpt>
      <trkpt lat="43.59036" lon="6.78953">
        <ele>165.57</ele>
        <time>2019-12-08T09:35:12.000Z</time>
      </trkpt>
      <trkpt lat="43.59041" lon="6.78953">
        <ele>165.8</ele>
        <time>2019-12-08T09:35:13.000Z</time>
      </trkpt>
      <trkpt lat="43.59046" lon="6.78953">
        <ele>166.32</ele>
        <time>2019-12-08T09:35:14.000Z</time>
      </trkpt>
      <trkpt lat="43.59051" lon="6.78953">
        <ele>166.71</ele>
        <time>2019-12-08T09:35:15.000Z</time>
      </trkpt>
      <trkpt lat="43.59056" lon="6.78953">
        <ele>166.88</ele>
        <time>2019-12-08T09:35:16.000Z</time>
      </trkpt>
      <trkpt lat="43.5906" lon="6.78953">
        <ele>167.21</ele>
        <time>2019-12-08T09:35:17.000Z</time>
      </trkpt>
      <trkpt lat="43.59065" lon="6.78953">
        <ele>167.51</ele>
        <time>2019-12-08T09:35:18.000Z</time>
      </trkpt>
      <trkpt lat="43.59069" lon="6.78953">
        <ele>167.83</ele>
        <time>2019-12-08T09:35:19.000Z</time>
      </trkpt>
      <trkpt lat="43.59073" lon="6.78952">
        <ele>168.16</ele>
        <time>2019-12-08T09:35:20.000Z</time>
      </trkpt>
      <trkpt lat="43.59077" lon="6.78952">
        <ele>168.33</ele>
        <time>2019-12-08T09:35:21.000Z</time>
      </trkpt>
      <trkpt lat="43.59081" lon="6.78951">
        <ele>168.69</ele>
        <time>2019-12-08T09:35:22.000Z</time>
      </trkpt>
      <trkpt lat="43.59084" lon="6.7895">
        <ele>169.09</ele>
        <time>2019-12-08T09:35:23.000Z</time>
      </trkpt>
      <trkpt lat="43.59087" lon="6.7895">
        <ele>169.37</ele>
        <time>2019-12-08T09:35:24.000Z</time>
      </trkpt>
      <trkpt lat="43.59091" lon="6.78949">
        <ele>169.52</ele>
        <time>2019-12-08T09:35:25.000Z</time>
      </trkpt>
      <trkpt lat="43.59094" lon="6.78948">
        <ele>169.81</ele>
        <time>2019-12-08T09:35:26.000Z</time>
      </trkpt>
      <trkpt lat="43.59097" lon="6.78947">
        <ele>170.03</ele>
        <time>2019-12-08T09:35:27.000Z</time>
      </trkpt>
      <trkpt lat="43.59101" lon="6.78946">
        <ele>170.36</ele>
        <time>2019-12-08T09:35:28.000Z</time>
      </trkpt>
      <trkpt lat="43.59104" lon="6.78945">
        <ele>170.5</ele>
        <time>2019-12-08T09:35:29.000Z</time>
      </trkpt>
      <trkpt lat="43.59108" lon="6.78943">
        <ele>170.73</ele>
        <time>2019-12-08T09:35:30.000Z</time>
      </trkpt>
      <trkpt lat="43.59111" lon="6.78942">
        <ele>171.03</ele>
        <time>2019-12-08T09:35:31.000Z</time>
      </trkpt>
      <trkpt lat="43.59114" lon="6.7894">
        <ele>171.26</ele>
        <time>2019-12-08T09:35:32.000Z</time>
      </trkpt>
      <trkpt lat="43.59118" lon="6.78939">
        <ele>171.35</ele>
        <time>2019-12-08T09:35:33.000Z</time>
      </trkpt>
      <trkpt lat="43.59121" lon="6.78937">
        <ele>171.65</ele>
        <time>2019-12-08T09:35:34.000Z</time>
      </trkpt>
      <trkpt lat="43.59124" lon="6.78935">
        <ele>171.94</ele>
        <time>2019-12-08T09:35:35.000Z</time>
      </trkpt>
      <trkpt lat="43.59127" lon="6.78934">
        <ele>172.26</ele>
        <time>2019-12-08T09:35:36.000Z</time>
      </trkpt>
      <trkpt lat="43.59131" lon="6.78932">
        <ele>172.46</ele>
        <time>2019-12-08T09:35:37.000Z</time>
      </trkpt>
      <trkpt lat="43.59134" lon="6.7893">
        <ele>172.71</ele>
        <time>2019-12-08T09:35:38.000Z</time>
      </trkpt>
      <trkpt lat="43.59137" lon="6.78929">
        <ele>173.04</ele>
        <time>2019-12-08T09:35:39.000Z</time>
      </trkpt>
      <trkpt lat="43.59141" lon="6.78927">
        <ele>173.26</ele>
        <time>2019-12-08T09:35:40.000Z</time>
      </trkpt>
      <trkpt lat="43.59144" lon="6.78926">
        <ele>173.49</ele>
        <time>2019-12-08T09:35:41.000Z</time>
      </trkpt>
      <trkpt lat="43.59147" lon="6.78925">
        <ele>173.64</ele>
        <time>2019-12-08T09:35:42.000Z</time>
      </trkpt>
      <trkpt lat="43.59151" lon="6.78924">
        <ele>173.88</ele>
        <time>2019-12-08T09:35:43.000Z</time>
      </trkpt>
      <trkpt lat="43.59154" lon="6.78923">
        <ele>174.16</ele>
        <time>2019-12-08T09:35:44.000Z</time>
      </trkpt>
      <trkpt lat="43.59158" lon="6.78922">
        <ele>174.31</ele>
        <time>2019-12-08T09:35:45.000Z</time>
      </trkpt>
      <trkpt lat="43.59161" lon="6.78921">
        <ele>174.59</ele>
        <time>2019-12-08T09:35:46.000Z</time>
      </trkpt>
      <trkpt lat="43.59165" lon="6.78921">
        <ele>174.72</ele>
        <time>2019-12-08T09:35:47.000Z</time>
      </trkpt>
      <trkpt lat="43.59168" lon="6.78921">
        <ele>174.81</ele>
        <time>2019-12-08T09:35:48.000Z</time>
      </trkpt>
      <trkpt lat="43.59172" lon="6.78921">
        <ele>174.9</ele>
        <time>2019-12-08T09:35:49.000Z</time>
      </trkpt>
      <trkpt lat="43.59175" lon="6.78921">
        <ele>174.94</ele>
        <time>2019-12-08T09:35:50.000Z</time>
      </trkpt>
      <trkpt lat="43.59179" lon="6.78921">
        <ele>175.12</ele>
        <time>2019-12-08T09:35:51.000Z</time>
      </trkpt>
      <trkpt lat="43.59182" lon="6.78921">
        <ele>175.36</ele>
        <time>2019-12-08T09:35:52.000Z</time>
      </trkpt>
      <trkpt lat="43.59186" lon="6.78921">
        <ele>175.59</ele>
        <time>2019-12-08T09:35:53.000Z</time>
      </trkpt>
      <trkpt lat="43.59189" lon="6.78921">
        <ele>175.73</ele>
        <time>2019-12-08T09:35:54.000Z</time>
      </trkpt>
      <trkpt lat="43.59193" lon="6.78922">
        <ele>176</ele>
        <time>2019-12-08T09:35:55.000Z</time>
      </trkpt>
      <trkpt lat="43.59196" lon="6.78922">
        <ele>176.28</ele>
        <time>2019-12-08T09:35:56.000Z</time>
      </trkpt>
      <trkpt lat="43.592" lon="6.78923">
        <ele>176.58</ele>
        <time>2019-12-08T09:35:57.000Z</time>
      </trkpt>
      <trkpt lat="43.59203" lon="6.78924">
        <ele>176.73</ele>
        <time>2019-12-08T09:35:58.000Z</time>
      </trkpt>
      <trkpt lat="43.59207" lon="6.78925">
        <ele>176.94</ele>
        <time>2019-12-08T09:35:59.000Z</time>
      </trkpt>
      <trkpt lat="43.5921" lon="6.78926">
        <ele>177.16</ele>
        <time>2019-12-08T09:36:00.000Z</time>
      </trkpt>
      <trkpt lat="43.59214" lon="6.78927">
        <ele>177.45</ele>
        <time>2019-12-08T09:36:01.000Z</time>
      </trkpt>
      <trkpt lat="43.59217" lon="6.78929">
        <ele>177.61</ele>
        <time>2019-12-08T09:36:02.000Z</time>
      </trkpt>
      <trkpt lat="43.5922" lon="6.78931">
        <ele>178.13</ele>
        <time>2019-12-08T09:36:03.000Z</time>
      </trkpt>
      <trkpt lat="43.59224" lon="6.78933">
        <ele>178.6</ele>
        <time>2019-12-08T09:36:04.000Z</time>
      </trkpt>
      <trkpt lat="43.59227" lon="6.78935">
        <ele>178.96</ele>
        <time>2019-12-08T09:36:05.000Z</time>
      </trkpt>
      <trkpt lat="43.5923" lon="6.78937">
        <ele>179.12</ele>
        <time>2019-12-08T09:36:06.000Z</time>
      </trkpt>
      <trkpt lat="43.59233" lon="6.78939">
        <ele>179.36</ele>
        <time>2019-12-08T09:36:07.000Z</time>
      </trkpt>
      <trkpt lat="43.59236" lon="6.78941">
        <ele>179.54</ele>
        <time>2019-12-08T09:36:08.000Z</time>
      </trkpt>
      <trkpt lat="43.59239" lon="6.78944">
        <ele>179.85</ele>
        <time>2019-12-08T09:36:09.000Z</time>
      </trkpt>
      <trkpt lat="43.59242" lon="6.78946">
        <ele>179.94</ele>
        <time>2019-12-08T09:36:10.000Z</time>
      </trkpt>
      <trkpt lat="43.59245" lon="6.78949">
        <ele>180.18</ele>
        <time>2019-12-08T09:36:11.000Z</time>
      </trkpt>
      <trkpt lat="43.59248" lon="6.78951">
        <ele>180.4</ele>
        <time>2019-12-08T09:36:12.000Z</time>
      </trkpt>
      <trkpt lat="43.59252" lon="6.78953">
        <ele>180.71</ele>
        <time>2019-12-08T09:36:13.000Z</time>
      </trkpt>
      <trkpt lat="43.59255" lon="6.78955">
        <ele>180.86</ele>
        <time>2019-12-08T09:36:14.000Z</time>
      </trkpt>
      <trkpt lat="43.59258" lon="6.78957">
        <ele>181.17</ele>
        <time>2019-12-08T09:36:15.000Z</time>
      </trkpt>
      <trkpt lat="43.59261" lon="6.78958">
        <ele>181.4</ele>
        <time>2019-12-08T09:36:16.000Z</time>
      </trkpt>
      <trkpt lat="43.59265" lon="6.7896">
        <ele>181.59</ele>
        <time>2019-12-08T09:36:17.000Z</time>
      </trkpt>
      <trkpt lat="43.59268" lon="6.78961">
        <ele>181.73</ele>
        <time>2019-12-08T09:36:18.000Z</time>
      </trkpt>
      <trkpt lat="43.59272" lon="6.78962">
        <ele>181.87</ele>
        <time>2019-12-08T09:36:19.000Z</time>
      </trkpt>
      <trkpt lat="43.59275" lon="6.78963">
        <ele>182.2</ele>
        <time>2019-12-08T09:36:20.000Z</time>
      </trkpt>
      <trkpt lat="43.59279" lon="6.78963">
        <ele>182.61</ele>
        <time>2019-12-08T09:36:21.000Z</time>
      </trkpt>
      <trkpt lat="43.59282" lon="6.78964">
        <ele>182.98</ele>
        <time>2019-12-08T09:36:22.000Z</time>
      </trkpt>
      <trkpt lat="43.59286" lon="6.78964">
        <ele>183.15</ele>
        <time>2019-12-08T09:36:23.000Z</time>
      </trkpt>
      <trkpt lat="43.5929" lon="6.78964">
        <ele>183.36</ele>
        <time>2019-12-08T09:36:24.000Z</time>
      </trkpt>
      <trkpt lat="43.59293" lon="6.78964">
        <ele>183.61</ele>
        <time>2019-12-08T09:36:25.000Z</time>
      </trkpt>
      <trkpt lat="43.59297" lon="6.78964">
        <ele>183.94</ele>
        <time>2019-12-08T09:36:26.000Z</time>
      </trkpt>
      <trkpt lat="43.593" lon="6.78964">
        <ele>184.06</ele>
        <time>2019-12-08T09:36:27.000Z</time>
      </trkpt>
      <trkpt lat="43.59304" lon="6.78963">
        <ele>184.42</ele>
        <time>2019-12-08T09:36:28.000Z</time>
      </trkpt>
      <trkpt lat="43.59307" lon="6.78963">
        <ele>184.81</ele>
        <time>2019-12-08T09:36:29.000Z</time>
      </trkpt>
      <trkpt lat="43.59311" lon="6.78963">
        <ele>185.11</ele>
        <time>2019-12-08T09:36:30.000Z</time>
      </trkpt>
      <trkpt lat="43.59315" lon="6.78963">
        <ele>185.11</ele>
        <time>2019-12-08T09:36:31.000Z</time>
      </trkpt>
      <trkpt lat="43.59318" lon="6.78963">
        <ele>185.36</ele>
        <time>2019-12-08T09:36:32.000Z</time>
      </trkpt>
      <trkpt lat="43.59322" lon="6.78963">
        <ele>185.65</ele>
        <time>2019-12-08T09:36:33.000Z</time>
      </trkpt>
      <trkpt lat="43.59325" lon="6.78963">
        <ele>185.9</ele>
        <time>2019-12-08T09:36:34.000Z</time>
      </trkpt>
      <trkpt lat="43.59329" lon="6.78963">
        <ele>186.02</ele>
        <time>2019-12-08T09:36:35.000Z</time>
      </trkpt>
      <trkpt lat="43.59332" lon="6.78963">
        <ele>186.23</ele>
        <time>2019-12-08T09:36:36.000Z</time>
      </trkpt>
      <trkpt lat="43.59336" lon="6.78963">
        <ele>186.44</ele>
        <time>2019-12-08T09:36:37.000Z</time>
      </trkpt>
      <trkpt lat="43.59339" lon="6.78963">
        <ele>186.66</ele>
        <time>2019-12-08T09:36:38.000Z</time>
      </trkpt>
      <trkpt lat="43.59343" lon="6.78963">
        <ele>186.76</ele>
        <time>2019-12-08T09:36:39.000Z</time>
      </trkpt>
      <trkpt lat="43.59346" lon="6.78963">
        <ele>186.91</ele>
        <time>2019-12-08T09:36:40.000Z</time>
      </trkpt>
      <trkpt lat="43.5935" lon="6.78963">
        <ele>187.16</ele>
        <time>2019-12-08T09:36:41.000Z</time>
      </trkpt>
      <trkpt lat="43.59353" lon="6.78963">
        <ele>187.42</ele>
        <time>2019-12-08T09:36:42.000Z</time>
      </trkpt>
      <trkpt lat="43.59357" lon="6.78963">
        <ele>187.53</ele>
        <time>2019-12-08T09:36:43.000Z</time>
      </trkpt>
      <trkpt lat="43.5936" lon="6.78963">
        <ele>187.8</ele>
        <time>2019-12-08T09:36:44.000Z</time>
      </trkpt>
      <trkpt lat="43.59364" lon="6.78963">
        <ele>188.12</ele>
        <time>2019-12-08T09:36:45.000Z</time>
      </trkpt>
      <trkpt lat="43.59367" lon="6.78963">
        <ele>188.58</ele>
        <time>2019-12-08T09:36:46.000Z</time>
      </trkpt>
      <trkpt lat="43.5937" lon="6.78962">
        <ele>189.06</ele>
        <time>2019-12-08T09:36:47.000Z</time>
      </trkpt>
      <trkpt lat="43.59374" lon="6.78962">
        <ele>189.27</ele>
        <time>2019-12-08T09:36:48.000Z</time>
      </trkpt>
      <trkpt lat="43.59377" lon="6.78961">
        <ele>189.68</ele>
        <time>2019-12-08T09:36:49.000Z</time>
      </trkpt>
      <trkpt lat="43.59381" lon="6.7896">
        <ele>190.05</ele>
        <time>2019-12-08T09:36:50.000Z</time>
      </trkpt>
      <trkpt lat="43.59384" lon="6.7896">
        <ele>190.15</ele>
        <time>2019-12-08T09:36:51.000Z</time>
      </trkpt>
      <trkpt lat="43.59387" lon="6.78959">
        <ele>190.4</ele>
        <time>2019-12-08T09:36:52.000Z</time>
      </trkpt>
      <trkpt lat="43.59391" lon="6.78957">
        <ele>190.65</ele>
        <time>2019-12-08T09:36:53.000Z</time>
      </trkpt>
      <trkpt lat="43.59394" lon="6.78956">
        <ele>190.83</ele>
        <time>2019-12-08T09:36:54.000Z</time>
      </trkpt>
      <trkpt lat="43.59397" lon="6.78954">
        <ele>191.11</ele>
        <time>2019-12-08T09:36:55.000Z</time>
      </trkpt>
      <trkpt lat="43.59401" lon="6.78952">
        <ele>191.23</ele>
        <time>2019-12-08T09:36:56.000Z</time>
      </trkpt>
      <trkpt lat="43.59404" lon="6.7895">
        <ele>191.52</ele>
        <time>2019-12-08T09:36:57.000Z</time>
      </trkpt>
      <trkpt lat="43.59407" lon="6.78948">
        <ele>191.89</ele>
        <time>2019-12-08T09:36:58.000Z</time>
      </trkpt>
      <trkpt lat="43.5941" lon="6.78946">
        <ele>192.19</ele>
        <time>2019-12-08T09:36:59.000Z</time>
      </trkpt>
      <trkpt lat="43.59413" lon="6.78944">
        <ele>192.31</ele>
        <time>2019-12-08T09:37:00.000Z</time>
      </trkpt>
      <trkpt lat="43.59416" lon="6.78942">
        <ele>192.63</ele>
        <time>2019-12-08T09:37:01.000Z</time>
      </trkpt>
      <trkpt lat="43.59419" lon="6.7894">
        <ele>192.91</ele>
        <time>2019-12-08T09:37:02.000Z</time>
      </trkpt>
      <trkpt lat="43.59423" lon="6.78938">
        <ele>193.18</ele>
        <time>2019-12-08T09:37:03.000Z</time>
      </trkpt>
      <trkpt lat="43.59426" lon="6.78936">
        <ele>193.32</ele>
        <time>2019-12-08T09:37:04.000Z</time>
      </trkpt>
      <trkpt lat="43.59429" lon="6.78934">
        <ele>193.56</ele>
        <time>2019-12-08T09:37:05.000Z</time>
      </trkpt>
      <trkpt lat="43.59432" lon="6.78932">
        <ele>193.73</ele>
        <time>2019-12-08T09:37:06.000Z</time>
      </trkpt>
      <trkpt lat="43.59436" lon="6.7893">
        <ele>193.97</ele>
        <time>2019-12-08T09:37:07.000Z</time>
      </trkpt>
      <trkpt lat="43.59439" lon="6.78928">
        <ele>194.09</ele>
        <time>2019-12-08T09:37:08.000Z</time>
      </trkpt>
      <trkpt lat="43.59442" lon="6.78926">
        <ele>194.36</ele>
        <time>2019-12-08T09:37:09.000Z</time>
      </trkpt>
      <trkpt lat="43.59446" lon="6.78925">
        <ele>194.69</ele>
        <time>2019-12-08T09:37:10.000Z</time>
      </trkpt>
      <trkpt lat="43.59449" lon="6.78924">
        <ele>195</ele>
        <time>2019-12-08T09:37:11.000Z</time>
      </trkpt>
      <trkpt lat="43.59453" lon="6.78923">
        <ele>195.16</ele>
        <time>2019-12-08T09:37:12.000Z</time>
      </trkpt>
      <trkpt lat="43.59456" lon="6.78921">
        <ele>195.45</ele>
        <time>2019-12-08T09:37:13.000Z</time>
      </trkpt>
      <trkpt lat="43.59459" lon="6.7892">
        <ele>195.73</ele>
        <time>2019-12-08T09:37:14.000Z</time>
      </trkpt>
      <trkpt lat="43.59463" lon="6.78919">
        <ele>196</ele>
        <time>2019-12-08T09:37:15.000Z</time>
      </trkpt>
      <trkpt lat="43.59466" lon="6.78917">
        <ele>196.13</ele>
        <time>2019-12-08T09:37:16.000Z</time>
      </trkpt>
      <trkpt lat="43.5947" lon="6.78916">
        <ele>196.43</ele>
        <time>2019-12-08T09:37:17.000Z</time>
      </trkpt>
      <trkpt lat="43.59473" lon="6.78915">
        <ele>196.75</ele>
        <time>2019-12-08T09:37:18.000Z</time>
      </trkpt>
      <trkpt lat="43.59476" lon="6.78914">
        <ele>197.03</ele>
        <time>2019-12-08T09:37:19.000Z</time>
      </trkpt>
      <trkpt lat="43.59479" lon="6.78912">
        <ele>197.19</ele>
        <time>2019-12-08T09:37:20.000Z</time>
      </trkpt>
      <trkpt lat="43.59482" lon="6.78911">
        <ele>197.51</ele>
        <time>2019-12-08T09:37:21.000Z</time>
      </trkpt>
      <trkpt lat="43.59485" lon="6.7891">
        <ele>197.84</ele>
        <time>2019-12-08T09:37:22.000Z</time>
      </trkpt>
      <trkpt lat="43.59489" lon="6.78908">
        <ele>198.14</ele>
        <time>2019-12-08T09:37:23.000Z</time>
      </trkpt>
      <trkpt lat="43.59492" lon="6.78907">
        <ele>198.43</ele>
        <time>2019-12-08T09:37:24.000Z</time>
      </trkpt>
      <trkpt lat="43.59495" lon="6.78906">
        <ele>198.55</ele>
        <time>2019-12-08T09:37:25.000Z</time>
      </trkpt>
      <trkpt lat="43.59498" lon="6.78905">
        <ele>198.82</ele>
        <time>2019-12-08T09:37:26.000Z</time>
      </trkpt>
      <trkpt lat="43.59502" lon="6.78903">
        <ele>199.12</ele>
        <time>2019-12-08T09:37:27.000Z</time>
      </trkpt>
      <trkpt lat="43.59505" lon="6.78902">
        <ele>199.25</ele>
        <time>2019-12-08T09:37:28.000Z</time>
      </trkpt>
      <trkpt lat="43.59508" lon="6.78901">
        <ele>199.54</ele>
        <time>2019-12-08T09:37:29.000Z</time>
      </trkpt>
      <trkpt lat="43.59511" lon="6.789">
        <ele>199.88</ele>
        <time>2019-12-08T09:37:30.000Z</time>
      </trkpt>
      <trkpt lat="43.59514" lon="6.78899">
        <ele>200.18</ele>
        <time>2019-12-08T09:37:31.000Z</time>
      </trkpt>
      <trkpt lat="43.59517" lon="6.78898">
        <ele>200.43</ele>
        <time>2019-12-08T09:37:32.000Z</time>
      </trkpt>
      <trkpt lat="43.59521" lon="6.78897">
        <ele>200.55</ele>
        <time>2019-12-08T09:37:33.000Z</time>
      </trkpt>
      <trkpt lat="43.59524" lon="6.78896">
        <ele>200.82</ele>
        <time>2019-12-08T09:37:34.000Z</time>
      </trkpt>
      <trkpt lat="43.59527" lon="6.78894">
        <ele>201.12</ele>
        <time>2019-12-08T09:37:35.000Z</time>
      </trkpt>
      <trkpt lat="43.59531" lon="6.78894">
        <ele>201.41</ele>
        <time>2019-12-08T09:37:36.000Z</time>
      </trkpt>
      <trkpt lat="43.59534" lon="6.78893">
        <ele>201.55</ele>
        <time>2019-12-08T09:37:37.000Z</time>
      </trkpt>
      <trkpt lat="43.59537" lon="6.78892">
        <ele>201.82</ele>
        <time>2019-12-08T09:37:38.000Z</time>
      </trkpt>
      <trkpt lat="43.59541" lon="6.78891">
        <ele>201.99</ele>
        <time>2019-12-08T09:37:39.000Z</time>
      </trkpt>
      <trkpt lat="43.59544" lon="6.7889">
        <ele>202.23</ele>
        <time>2019-12-08T09:37:40.000Z</time>
      </trkpt>
      <trkpt lat="43.59547" lon="6.78889">
        <ele>202.41</ele>
        <time>2019-12-08T09:37:41.000Z</time>
      </trkpt>
      <trkpt lat="43.59551" lon="6.78888">
        <ele>202.74</ele>
        <time>2019-12-08T09:37:42.000Z</time>
      </trkpt>
      <trkpt lat="43.59554" lon="6.78888">
        <ele>203.02</ele>
        <time>2019-12-08T09:37:43.000Z</time>
      </trkpt>
      <trkpt lat="43.59558" lon="6.78887">
        <ele>203.35</ele>
        <time>2019-12-08T09:37:44.000Z</time>
      </trkpt>
      <trkpt lat="43.59561" lon="6.78886">
        <ele>203.5</ele>
        <time>2019-12-08T09:37:45.000Z</time>
      </trkpt>
      <trkpt lat="43.59565" lon="6.78885">
        <ele>203.78</ele>
        <time>2019-12-08T09:37:46.000Z</time>
      </trkpt>
      <trkpt lat="43.59568" lon="6.78883">
        <ele>204.11</ele>
        <time>2019-12-08T09:37:47.000Z</time>
      </trkpt>
      <trkpt lat="43.59571" lon="6.78881">
        <ele>204.49</ele>
        <time>2019-12-08T09:37:48.000Z</time>
      </trkpt>
      <trkpt lat="43.59574" lon="6.78878">
        <ele>204.65</ele>
        <time>2019-12-08T09:37:49.000Z</time>
      </trkpt>
      <trkpt lat="43.59577" lon="6.78874">
        <ele>204.86</ele>
        <time>2019-12-08T09:37:50.000Z</time>
      </trkpt>
      <trkpt lat="43.59579" lon="6.78871">
        <ele>204.97</ele>
        <time>2019-12-08T09:37:51.000Z</time>
      </trkpt>
      <trkpt lat="43.5958" lon="6.78866">
        <ele>205.07</ele>
        <time>2019-12-08T09:37:52.000Z</time>
      </trkpt>
      <trkpt lat="43.59582" lon="6.78862">
        <ele>205.28</ele>
        <time>2019-12-08T09:37:53.000Z</time>
      </trkpt>
      <trkpt lat="43.59583" lon="6.78857">
        <ele>205.41</ele>
        <time>2019-12-08T09:37:54.000Z</time>
      </trkpt>
      <trkpt lat="43.59584" lon="6.78852">
        <ele>205.67</ele>
        <time>2019-12-08T09:37:55.000Z</time>
      </trkpt>
      <trkpt lat="43.59585" lon="6.78847">
        <ele>205.96</ele>
        <time>2019-12-08T09:37:56.000Z</time>
      </trkpt>
      <trkpt lat="43.59586" lon="6.78841">
        <ele>206.01</ele>
        <time>2019-12-08T09:37:57.000Z</time>
      </trkpt>
      <trkpt lat="43.59588" lon="6.78836">
        <ele>206.12</ele>
        <time>2019-12-08T09:37:58.000Z</time>
      </trkpt>
      <trkpt lat="43.5959" lon="6.7883">
        <ele>206.15</ele>
        <time>2019-12-08T09:37:59.000Z</time>
      </trkpt>
      <trkpt lat="43.59593" lon="6.78824">
        <ele>206.19</ele>
        <time>2019-12-08T09:38:00.000Z</time>
      </trkpt>
      <trkpt lat="43.59596" lon="6.78819">
        <ele>206.23</ele>
        <time>2019-12-08T09:38:01.000Z</time>
      </trkpt>
      <trkpt lat="43.59601" lon="6.78815">
        <ele>206.26</ele>
        <time>2019-12-08T09:38:02.000Z</time>
      </trkpt>
      <trkpt lat="43.59605" lon="6.7881">
        <ele>206.29</ele>
        <time>2019-12-08T09:38:03.000Z</time>
      </trkpt>
      <trkpt lat="43.5961" lon="6.78806">
        <ele>206.28</ele>
        <time>2019-12-08T09:38:04.000Z</time>
      </trkpt>
      <trkpt lat="43.59615" lon="6.78802">
        <ele>206.33</ele>
        <time>2019-12-08T09:38:05.000Z</time>
      </trkpt>
      <trkpt lat="43.5962" lon="6.78798">
        <ele>206.34</ele>
        <time>2019-12-08T09:38:06.000Z</time>
      </trkpt>
      <trkpt lat="43.59625" lon="6.78794">
        <ele>206.33</ele>
        <time>2019-12-08T09:38:07.000Z</time>
      </trkpt>
      <trkpt lat="43.59629" lon="6.78789">
        <ele>206.28</ele>
        <time>2019-12-08T09:38:08.000Z</time>
      </trkpt>
      <trkpt lat="43.59634" lon="6.78785">
        <ele>206.25</ele>
        <time>2019-12-08T09:38:09.000Z</time>
      </trkpt>
      <trkpt lat="43.59639" lon="6.7878">
        <ele>206.26</ele>
        <time>2019-12-08T09:38:10.000Z</time>
      </trkpt>
      <trkpt lat="43.59644" lon="6.78775">
        <ele>206.23</ele>
        <time>2019-12-08T09:38:11.000Z</time>
      </trkpt>
      <trkpt lat="43.59649" lon="6.78769">
        <ele>206.21</ele>
        <time>2019-12-08T09:38:12.000Z</time>
      </trkpt>
      <trkpt lat="43.59654" lon="6.78764">
        <ele>206.13</ele>
        <time>2019-12-08T09:38:13.000Z</time>
      </trkpt>
      <trkpt lat="43.59659" lon="6.78758">
        <ele>206.1</ele>
        <time>2019-12-08T09:38:14.000Z</time>
      </trkpt>
      <trkpt lat="43.59664" lon="6.78752">
        <ele>205.96</ele>
        <time>2019-12-08T09:38:15.000Z</time>
      </trkpt>
      <trkpt lat="43.59669" lon="6.78745">
        <ele>205.73</ele>
        <time>2019-12-08T09:38:16.000Z</time>
      </trkpt>
      <trkpt lat="43.59675" lon="6.78739">
        <ele>205.61</ele>
        <time>2019-12-08T09:38:17.000Z</time>
      </trkpt>
      <trkpt lat="43.5968" lon="6.78732">
        <ele>205.53</ele>
        <time>2019-12-08T09:38:18.000Z</time>
      </trkpt>
      <trkpt lat="43.59686" lon="6.78726">
        <ele>205.33</ele>
        <time>2019-12-08T09:38:19.000Z</time>
      </trkpt>
      <trkpt lat="43.59692" lon="6.78719">
        <ele>205.09</ele>
        <time>2019-12-08T09:38:20.000Z</time>
      </trkpt>
      <trkpt lat="43.59698" lon="6.78712">
        <ele>204.73</ele>
        <time>2019-12-08T09:38:21.000Z</time>
      </trkpt>
      <trkpt lat="43.59704" lon="6.78705">
        <ele>204.41</ele>
        <time>2019-12-08T09:38:22.000Z</time>
      </trkpt>
      <trkpt lat="43.5971" lon="6.78697">
        <ele>204.32</ele>
        <time>2019-12-08T09:38:23.000Z</time>
      </trkpt>
      <trkpt lat="43.59716" lon="6.7869">
        <ele>204.12</ele>
        <time>2019-12-08T09:38:24.000Z</time>
      </trkpt>
      <trkpt lat="43.59723" lon="6.78683">
        <ele>203.99</ele>
        <time>2019-12-08T09:38:25.000Z</time>
      </trkpt>
      <trkpt lat="43.59729" lon="6.78676">
        <ele>203.94</ele>
        <time>2019-12-08T09:38:26.000Z</time>
      </trkpt>
      <trkpt lat="43.59735" lon="6.78669">
        <ele>203.76</ele>
        <time>2019-12-08T09:38:27.000Z</time>
      </trkpt>
      <trkpt lat="43.59742" lon="6.78662">
        <ele>203.47</ele>
        <time>2019-12-08T09:38:28.000Z</time>
      </trkpt>
      <trkpt lat="43.59748" lon="6.78655">
        <ele>203.17</ele>
        <time>2019-12-08T09:38:29.000Z</time>
      </trkpt>
      <trkpt lat="43.59755" lon="6.78647">
        <ele>202.82</ele>
        <time>2019-12-08T09:38:30.000Z</time>
      </trkpt>
      <trkpt lat="43.59762" lon="6.78641">
        <ele>202.62</ele>
        <time>2019-12-08T09:38:31.000Z</time>
      </trkpt>
      <trkpt lat="43.5977" lon="6.78634">
        <ele>202.27</ele>
        <time>2019-12-08T09:38:32.000Z</time>
      </trkpt>
      <trkpt lat="43.59777" lon="6.78628">
        <ele>201.93</ele>
        <time>2019-12-08T09:38:33.000Z</time>
      </trkpt>
      <trkpt lat="43.59785" lon="6.78623">
        <ele>201.57</ele>
        <time>2019-12-08T09:38:34.000Z</time>
      </trkpt>
      <trkpt lat="43.59793" lon="6.78618">
        <ele>201.47</ele>
        <time>2019-12-08T09:38:35.000Z</time>
      </trkpt>
      <trkpt lat="43.59801" lon="6.78614">
        <ele>201.32</ele>
        <time>2019-12-08T09:38:36.000Z</time>
      </trkpt>
      <trkpt lat="43.59809" lon="6.78611">
        <ele>201.25</ele>
        <time>2019-12-08T09:38:37.000Z</time>
      </trkpt>
      <trkpt lat="43.59817" lon="6.78609">
        <ele>201.22</ele>
        <time>2019-12-08T09:38:38.000Z</time>
      </trkpt>
      <trkpt lat="43.59824" lon="6.78607">
        <ele>201.2</ele>
        <time>2019-12-08T09:38:39.000Z</time>
      </trkpt>
      <trkpt lat="43.59832" lon="6.78606">
        <ele>201.13</ele>
        <time>2019-12-08T09:38:40.000Z</time>
      </trkpt>
      <trkpt lat="43.59838" lon="6.78605">
        <ele>201.15</ele>
        <time>2019-12-08T09:38:41.000Z</time>
      </trkpt>
      <trkpt lat="43.59845" lon="6.78605">
        <ele>201.23</ele>
        <time>2019-12-08T09:38:42.000Z</time>
      </trkpt>
      <trkpt lat="43.59852" lon="6.78605">
        <ele>201.31</ele>
        <time>2019-12-08T09:38:43.000Z</time>
      </trkpt>
      <trkpt lat="43.59858" lon="6.78606">
        <ele>201.59</ele>
        <time>2019-12-08T09:38:44.000Z</time>
      </trkpt>
      <trkpt lat="43.59864" lon="6.78606">
        <ele>201.88</ele>
        <time>2019-12-08T09:38:45.000Z</time>
      </trkpt>
      <trkpt lat="43.5987" lon="6.78607">
        <ele>202.11</ele>
        <time>2019-12-08T09:38:46.000Z</time>
      </trkpt>
      <trkpt lat="43.59875" lon="6.78609">
        <ele>202.21</ele>
        <time>2019-12-08T09:38:47.000Z</time>
      </trkpt>
      <trkpt lat="43.59881" lon="6.7861">
        <ele>202.4</ele>
        <time>2019-12-08T09:38:48.000Z</time>
      </trkpt>
      <trkpt lat="43.59887" lon="6.78613">
        <ele>202.47</ele>
        <time>2019-12-08T09:38:49.000Z</time>
      </trkpt>
      <trkpt lat="43.59892" lon="6.78616">
        <ele>202.54</ele>
        <time>2019-12-08T09:38:50.000Z</time>
      </trkpt>
      <trkpt lat="43.59897" lon="6.7862">
        <ele>202.55</ele>
        <time>2019-12-08T09:38:51.000Z</time>
      </trkpt>
      <trkpt lat="43.59902" lon="6.78624">
        <ele>202.63</ele>
        <time>2019-12-08T09:38:52.000Z</time>
      </trkpt>
      <trkpt lat="43.59907" lon="6.78628">
        <ele>202.75</ele>
        <time>2019-12-08T09:38:53.000Z</time>
      </trkpt>
      <trkpt lat="43.59913" lon="6.78631">
        <ele>202.85</ele>
        <time>2019-12-08T09:38:54.000Z</time>
      </trkpt>
      <trkpt lat="43.59919" lon="6.78632">
        <ele>202.93</ele>
        <time>2019-12-08T09:38:55.000Z</time>
      </trkpt>
      <trkpt lat="43.59925" lon="6.78631">
        <ele>203.02</ele>
        <time>2019-12-08T09:38:56.000Z</time>
      </trkpt>
      <trkpt lat="43.59931" lon="6.78628">
        <ele>203.08</ele>
        <time>2019-12-08T09:38:57.000Z</time>
      </trkpt>
      <trkpt lat="43.59936" lon="6.78622">
        <ele>203</ele>
        <time>2019-12-08T09:38:58.000Z</time>
      </trkpt>
      <trkpt lat="43.5994" lon="6.78614">
        <ele>202.66</ele>
        <time>2019-12-08T09:38:59.000Z</time>
      </trkpt>
      <trkpt lat="43.59942" lon="6.78604">
        <ele>202.5</ele>
        <time>2019-12-08T09:39:00.000Z</time>
      </trkpt>
      <trkpt lat="43.59942" lon="6.78593">
        <ele>202.07</ele>
        <time>2019-12-08T09:39:01.000Z</time>
      </trkpt>
      <trkpt lat="43.59941" lon="6.78581">
        <ele>201.7</ele>
        <time>2019-12-08T09:39:02.000Z</time>
      </trkpt>
      <trkpt lat="43.59941" lon="6.7857">
        <ele>201.59</ele>
        <time>2019-12-08T09:39:03.000Z</time>
      </trkpt>
      <trkpt lat="43.59941" lon="6.78559">
        <ele>201.35</ele>
        <time>2019-12-08T09:39:04.000Z</time>
      </trkpt>
      <trkpt lat="43.59944" lon="6.78548">
        <ele>201.03</ele>
        <time>2019-12-08T09:39:05.000Z</time>
      </trkpt>
      <trkpt lat="43.59947" lon="6.78536">
        <ele>200.61</ele>
        <time>2019-12-08T09:39:06.000Z</time>
      </trkpt>
      <trkpt lat="43.59951" lon="6.78525">
        <ele>200.09</ele>
        <time>2019-12-08T09:39:07.000Z</time>
      </trkpt>
      <trkpt lat="43.59955" lon="6.78513">
        <ele>199.82</ele>
        <time>2019-12-08T09:39:08.000Z</time>
      </trkpt>
      <trkpt lat="43.59959" lon="6.78501">
        <ele>199.2</ele>
        <time>2019-12-08T09:39:09.000Z</time>
      </trkpt>
      <trkpt lat="43.59963" lon="6.78488">
        <ele>198.62</ele>
        <time>2019-12-08T09:39:10.000Z</time>
      </trkpt>
      <trkpt lat="43.59968" lon="6.78475">
        <ele>197.96</ele>
        <time>2019-12-08T09:39:11.000Z</time>
      </trkpt>
      <trkpt lat="43.59972" lon="6.78461">
        <ele>197.62</ele>
        <time>2019-12-08T09:39:12.000Z</time>
      </trkpt>
      <trkpt lat="43.59977" lon="6.78448">
        <ele>196.91</ele>
        <time>2019-12-08T09:39:13.000Z</time>
      </trkpt>
      <trkpt lat="43.59982" lon="6.78434">
        <ele>196.28</ele>
        <time>2019-12-08T09:39:14.000Z</time>
      </trkpt>
      <trkpt lat="43.59987" lon="6.7842">
        <ele>196.28</ele>
        <time>2019-12-08T09:39:15.000Z</time>
      </trkpt>
      <trkpt lat="43.59992" lon="6.78406">
        <ele>195.38</ele>
        <time>2019-12-08T09:39:16.000Z</time>
      </trkpt>
      <trkpt lat="43.59998" lon="6.78391">
        <ele>194.61</ele>
        <time>2019-12-08T09:39:17.000Z</time>
      </trkpt>
      <trkpt lat="43.60003" lon="6.78377">
        <ele>194.18</ele>
        <time>2019-12-08T09:39:18.000Z</time>
      </trkpt>
      <trkpt lat="43.60008" lon="6.78362">
        <ele>193.34</ele>
        <time>2019-12-08T09:39:19.000Z</time>
      </trkpt>
      <trkpt lat="43.60014" lon="6.78348">
        <ele>192.9</ele>
        <time>2019-12-08T09:39:20.000Z</time>
      </trkpt>
      <trkpt lat="43.60019" lon="6.78333">
        <ele>192.05</ele>
        <time>2019-12-08T09:39:21.000Z</time>
      </trkpt>
      <trkpt lat="43.60025" lon="6.78318">
        <ele>191.25</ele>
        <time>2019-12-08T09:39:22.000Z</time>
      </trkpt>
      <trkpt lat="43.6003" lon="6.78303">
        <ele>190.7</ele>
        <time>2019-12-08T09:39:23.000Z</time>
      </trkpt>
      <trkpt lat="43.60036" lon="6.78288">
        <ele>190.2</ele>
        <time>2019-12-08T09:39:24.000Z</time>
      </trkpt>
      <trkpt lat="43.60041" lon="6.78274">
        <ele>190</ele>
        <time>2019-12-08T09:39:25.000Z</time>
      </trkpt>
      <trkpt lat="43.60047" lon="6.78259">
        <ele>189.56</ele>
        <time>2019-12-08T09:39:26.000Z</time>
      </trkpt>
      <trkpt lat="43.60053" lon="6.78244">
        <ele>189.04</ele>
        <time>2019-12-08T09:39:27.000Z</time>
      </trkpt>
      <trkpt lat="43.60058" lon="6.78229">
        <ele>188.66</ele>
        <time>2019-12-08T09:39:28.000Z</time>
      </trkpt>
      <trkpt lat="43.60064" lon="6.78214">
        <ele>188.01</ele>
        <time>2019-12-08T09:39:29.000Z</time>
      </trkpt>
      <trkpt lat="43.60069" lon="6.782">
        <ele>187.49</ele>
        <time>2019-12-08T09:39:30.000Z</time>
      </trkpt>
      <trkpt lat="43.60075" lon="6.78185">
        <ele>187.07</ele>
        <time>2019-12-08T09:39:31.000Z</time>
      </trkpt>
      <trkpt lat="43.6008" lon="6.78171">
        <ele>186.86</ele>
        <time>2019-12-08T09:39:32.000Z</time>
      </trkpt>
      <trkpt lat="43.60086" lon="6.78156">
        <ele>186.6</ele>
        <time>2019-12-08T09:39:33.000Z</time>
      </trkpt>
      <trkpt lat="43.60091" lon="6.78142">
        <ele>186.28</ele>
        <time>2019-12-08T09:39:34.000Z</time>
      </trkpt>
      <trkpt lat="43.60096" lon="6.78127">
        <ele>185.92</ele>
        <time>2019-12-08T09:39:35.000Z</time>
      </trkpt>
      <trkpt lat="43.60102" lon="6.78113">
        <ele>185.67</ele>
        <time>2019-12-08T09:39:36.000Z</time>
      </trkpt>
      <trkpt lat="43.60107" lon="6.78099">
        <ele>185.52</ele>
        <time>2019-12-08T09:39:37.000Z</time>
      </trkpt>
      <trkpt lat="43.60112" lon="6.78085">
        <ele>185.19</ele>
        <time>2019-12-08T09:39:38.000Z</time>
      </trkpt>
      <trkpt lat="43.60117" lon="6.78071">
        <ele>184.99</ele>
        <time>2019-12-08T09:39:39.000Z</time>
      </trkpt>
      <trkpt lat="43.60123" lon="6.78058">
        <ele>184.65</ele>
        <time>2019-12-08T09:39:40.000Z</time>
      </trkpt>
      <trkpt lat="43.60128" lon="6.78044">
        <ele>184.48</ele>
        <time>2019-12-08T09:39:41.000Z</time>
      </trkpt>
      <trkpt lat="43.60133" lon="6.7803">
        <ele>184.2</ele>
        <time>2019-12-08T09:39:42.000Z</time>
      </trkpt>
      <trkpt lat="43.60138" lon="6.78017">
        <ele>183.89</ele>
        <time>2019-12-08T09:39:43.000Z</time>
      </trkpt>
      <trkpt lat="43.60143" lon="6.78003">
        <ele>183.58</ele>
        <time>2019-12-08T09:39:44.000Z</time>
      </trkpt>
      <trkpt lat="43.60148" lon="6.7799">
        <ele>183.43</ele>
        <time>2019-12-08T09:39:45.000Z</time>
      </trkpt>
      <trkpt lat="43.60153" lon="6.77977">
        <ele>183.1</ele>
        <time>2019-12-08T09:39:46.000Z</time>
      </trkpt>
      <trkpt lat="43.60158" lon="6.77964">
        <ele>182.83</ele>
        <time>2019-12-08T09:39:47.000Z</time>
      </trkpt>
      <trkpt lat="43.60163" lon="6.77951">
        <ele>182.54</ele>
        <time>2019-12-08T09:39:48.000Z</time>
      </trkpt>
      <trkpt lat="43.60168" lon="6.77938">
        <ele>182.41</ele>
        <time>2019-12-08T09:39:49.000Z</time>
      </trkpt>
      <trkpt lat="43.60173" lon="6.77924">
        <ele>182.14</ele>
        <time>2019-12-08T09:39:50.000Z</time>
      </trkpt>
      <trkpt lat="43.60178" lon="6.77911">
        <ele>181.78</ele>
        <time>2019-12-08T09:39:51.000Z</time>
      </trkpt>
      <trkpt lat="43.60183" lon="6.77898">
        <ele>181.48</ele>
        <time>2019-12-08T09:39:52.000Z</time>
      </trkpt>
      <trkpt lat="43.60189" lon="6.77887">
        <ele>181.35</ele>
        <time>2019-12-08T09:39:53.000Z</time>
      </trkpt>
      <trkpt lat="43.60196" lon="6.77877">
        <ele>181.12</ele>
        <time>2019-12-08T09:39:54.000Z</time>
      </trkpt>
      <trkpt lat="43.60204" lon="6.77869">
        <ele>181.23</ele>
        <time>2019-12-08T09:39:55.000Z</time>
      </trkpt>
      <trkpt lat="43.60211" lon="6.77861">
        <ele>181.29</ele>
        <time>2019-12-08T09:39:56.000Z</time>
      </trkpt>
      <trkpt lat="43.60214" lon="6.77851">
        <ele>181.26</ele>
        <time>2019-12-08T09:39:57.000Z</time>
      </trkpt>
      <trkpt lat="43.60214" lon="6.77839">
        <ele>181.34</ele>
        <time>2019-12-08T09:39:58.000Z</time>
      </trkpt>
      <trkpt lat="43.60214" lon="6.77826">
        <ele>181.3</ele>
        <time>2019-12-08T09:39:59.000Z</time>
      </trkpt>
      <trkpt lat="43.60215" lon="6.77814">
        <ele>180.98</ele>
        <time>2019-12-08T09:40:00.000Z</time>
      </trkpt>
      <trkpt lat="43.60217" lon="6.77801">
        <ele>180.98</ele>
        <time>2019-12-08T09:40:01.000Z</time>
      </trkpt>
      <trkpt lat="43.60221" lon="6.77789">
        <ele>180.87</ele>
        <time>2019-12-08T09:40:02.000Z</time>
      </trkpt>
      <trkpt lat="43.60225" lon="6.77776">
        <ele>180.5</ele>
        <time>2019-12-08T09:40:03.000Z</time>
      </trkpt>
      <trkpt lat="43.60229" lon="6.77764">
        <ele>180.05</ele>
        <time>2019-12-08T09:40:04.000Z</time>
      </trkpt>
      <trkpt lat="43.60233" lon="6.77752">
        <ele>180.05</ele>
        <time>2019-12-08T09:40:05.000Z</time>
      </trkpt>
      <trkpt lat="43.60238" lon="6.7774">
        <ele>179.59</ele>
        <time>2019-12-08T09:40:06.000Z</time>
      </trkpt>
      <trkpt lat="43.60242" lon="6.77728">
        <ele>179.27</ele>
        <time>2019-12-08T09:40:07.000Z</time>
      </trkpt>
      <trkpt lat="43.60246" lon="6.77717">
        <ele>179.16</ele>
        <time>2019-12-08T09:40:08.000Z</time>
      </trkpt>
      <trkpt lat="43.6025" lon="6.77706">
        <ele>179.19</ele>
        <time>2019-12-08T09:40:09.000Z</time>
      </trkpt>
      <trkpt lat="43.60254" lon="6.77695">
        <ele>179.25</ele>
        <time>2019-12-08T09:40:10.000Z</time>
      </trkpt>
      <trkpt lat="43.60258" lon="6.77684">
        <ele>179.44</ele>
        <time>2019-12-08T09:40:11.000Z</time>
      </trkpt>
      <trkpt lat="43.60261" lon="6.77674">
        <ele>179.64</ele>
        <time>2019-12-08T09:40:12.000Z</time>
      </trkpt>
      <trkpt lat="43.60265" lon="6.77664">
        <ele>179.79</ele>
        <time>2019-12-08T09:40:13.000Z</time>
      </trkpt>
      <trkpt lat="43.60268" lon="6.77654">
        <ele>179.88</ele>
        <time>2019-12-08T09:40:14.000Z</time>
      </trkpt>
      <trkpt lat="43.60272" lon="6.77644">
        <ele>180.02</ele>
        <time>2019-12-08T09:40:15.000Z</time>
      </trkpt>
      <trkpt lat="43.60275" lon="6.77634">
        <ele>180.29</ele>
        <time>2019-12-08T09:40:16.000Z</time>
      </trkpt>
      <trkpt lat="43.60278" lon="6.77625">
        <ele>180.43</ele>
        <time>2019-12-08T09:40:17.000Z</time>
      </trkpt>
      <trkpt lat="43.60282" lon="6.77615">
        <ele>180.53</ele>
        <time>2019-12-08T09:40:18.000Z</time>
      </trkpt>
      <trkpt lat="43.60285" lon="6.77605">
        <ele>180.69</ele>
        <time>2019-12-08T09:40:19.000Z</time>
      </trkpt>
      <trkpt lat="43.60289" lon="6.77595">
        <ele>180.73</ele>
        <time>2019-12-08T09:40:20.000Z</time>
      </trkpt>
      <trkpt lat="43.60292" lon="6.77585">
        <ele>180.73</ele>
        <time>2019-12-08T09:40:21.000Z</time>
      </trkpt>
      <trkpt lat="43.60295" lon="6.77575">
        <ele>180.76</ele>
        <time>2019-12-08T09:40:22.000Z</time>
      </trkpt>
      <trkpt lat="43.60299" lon="6.77566">
        <ele>180.81</ele>
        <time>2019-12-08T09:40:23.000Z</time>
      </trkpt>
      <trkpt lat="43.60302" lon="6.77556">
        <ele>180.9</ele>
        <time>2019-12-08T09:40:24.000Z</time>
      </trkpt>
      <trkpt lat="43.60306" lon="6.77546">
        <ele>181.02</ele>
        <time>2019-12-08T09:40:25.000Z</time>
      </trkpt>
      <trkpt lat="43.60309" lon="6.77536">
        <ele>181.11</ele>
        <time>2019-12-08T09:40:26.000Z</time>
      </trkpt>
      <trkpt lat="43.60313" lon="6.77527">
        <ele>181.19</ele>
        <time>2019-12-08T09:40:27.000Z</time>
      </trkpt>
      <trkpt lat="43.60316" lon="6.77517">
        <ele>181.28</ele>
        <time>2019-12-08T09:40:28.000Z</time>
      </trkpt>
      <trkpt lat="43.6032" lon="6.77507">
        <ele>181.42</ele>
        <time>2019-12-08T09:40:29.000Z</time>
      </trkpt>
      <trkpt lat="43.60323" lon="6.77497">
        <ele>181.43</ele>
        <time>2019-12-08T09:40:30.000Z</time>
      </trkpt>
      <trkpt lat="43.60327" lon="6.77487">
        <ele>181.41</ele>
        <time>2019-12-08T09:40:31.000Z</time>
      </trkpt>
      <trkpt lat="43.6033" lon="6.77477">
        <ele>181.44</ele>
        <time>2019-12-08T09:40:32.000Z</time>
      </trkpt>
      <trkpt lat="43.60334" lon="6.77467">
        <ele>181.29</ele>
        <time>2019-12-08T09:40:33.000Z</time>
      </trkpt>
      <trkpt lat="43.60338" lon="6.77456">
        <ele>181.25</ele>
        <time>2019-12-08T09:40:34.000Z</time>
      </trkpt>
      <trkpt lat="43.60341" lon="6.77446">
        <ele>181.29</ele>
        <time>2019-12-08T09:40:35.000Z</time>
      </trkpt>
      <trkpt lat="43.60345" lon="6.77436">
        <ele>181.21</ele>
        <time>2019-12-08T09:40:36.000Z</time>
      </trkpt>
      <trkpt lat="43.60349" lon="6.77426">
        <ele>181.08</ele>
        <time>2019-12-08T09:40:37.000Z</time>
      </trkpt>
      <trkpt lat="43.60353" lon="6.77415">
        <ele>181.03</ele>
        <time>2019-12-08T09:40:38.000Z</time>
      </trkpt>
      <trkpt lat="43.60356" lon="6.77404">
        <ele>180.78</ele>
        <time>2019-12-08T09:40:39.000Z</time>
      </trkpt>
      <trkpt lat="43.6036" lon="6.77393">
        <ele>180.52</ele>
        <time>2019-12-08T09:40:40.000Z</time>
      </trkpt>
      <trkpt lat="43.60364" lon="6.77382">
        <ele>180.36</ele>
        <time>2019-12-08T09:40:41.000Z</time>
      </trkpt>
      <trkpt lat="43.60368" lon="6.77371">
        <ele>180.17</ele>
        <time>2019-12-08T09:40:42.000Z</time>
      </trkpt>
      <trkpt lat="43.60372" lon="6.7736">
        <ele>180.06</ele>
        <time>2019-12-08T09:40:43.000Z</time>
      </trkpt>
      <trkpt lat="43.60376" lon="6.77348">
        <ele>179.83</ele>
        <time>2019-12-08T09:40:44.000Z</time>
      </trkpt>
      <trkpt lat="43.6038" lon="6.77337">
        <ele>179.5</ele>
        <time>2019-12-08T09:40:45.000Z</time>
      </trkpt>
      <trkpt lat="43.60384" lon="6.77326">
        <ele>179.21</ele>
        <time>2019-12-08T09:40:46.000Z</time>
      </trkpt>
      <trkpt lat="43.60388" lon="6.77314">
        <ele>179.1</ele>
        <time>2019-12-08T09:40:47.000Z</time>
      </trkpt>
      <trkpt lat="43.60392" lon="6.77303">
        <ele>179.03</ele>
        <time>2019-12-08T09:40:48.000Z</time>
      </trkpt>
      <trkpt lat="43.60396" lon="6.77291">
        <ele>178.92</ele>
        <time>2019-12-08T09:40:49.000Z</time>
      </trkpt>
      <trkpt lat="43.604" lon="6.7728">
        <ele>178.82</ele>
        <time>2019-12-08T09:40:50.000Z</time>
      </trkpt>
      <trkpt lat="43.60404" lon="6.77269">
        <ele>178.8</ele>
        <time>2019-12-08T09:40:51.000Z</time>
      </trkpt>
      <trkpt lat="43.60408" lon="6.77257">
        <ele>178.64</ele>
        <time>2019-12-08T09:40:52.000Z</time>
      </trkpt>
      <trkpt lat="43.60412" lon="6.77246">
        <ele>178.44</ele>
        <time>2019-12-08T09:40:53.000Z</time>
      </trkpt>
      <trkpt lat="43.60416" lon="6.77235">
        <ele>178.33</ele>
        <time>2019-12-08T09:40:54.000Z</time>
      </trkpt>
      <trkpt lat="43.6042" lon="6.77223">
        <ele>178.24</ele>
        <time>2019-12-08T09:40:55.000Z</time>
      </trkpt>
      <trkpt lat="43.60424" lon="6.77212">
        <ele>177.97</ele>
        <time>2019-12-08T09:40:56.000Z</time>
      </trkpt>
      <trkpt lat="43.60428" lon="6.772">
        <ele>177.72</ele>
        <time>2019-12-08T09:40:57.000Z</time>
      </trkpt>
      <trkpt lat="43.60432" lon="6.77188">
        <ele>177.43</ele>
        <time>2019-12-08T09:40:58.000Z</time>
      </trkpt>
      <trkpt lat="43.60437" lon="6.77177">
        <ele>177.28</ele>
        <time>2019-12-08T09:40:59.000Z</time>
      </trkpt>
      <trkpt lat="43.60441" lon="6.77165">
        <ele>176.99</ele>
        <time>2019-12-08T09:41:00.000Z</time>
      </trkpt>
      <trkpt lat="43.60445" lon="6.77153">
        <ele>176.71</ele>
        <time>2019-12-08T09:41:01.000Z</time>
      </trkpt>
      <trkpt lat="43.60449" lon="6.77142">
        <ele>176.46</ele>
        <time>2019-12-08T09:41:02.000Z</time>
      </trkpt>
      <trkpt lat="43.60453" lon="6.7713">
        <ele>176.33</ele>
        <time>2019-12-08T09:41:03.000Z</time>
      </trkpt>
      <trkpt lat="43.60458" lon="6.77118">
        <ele>176.16</ele>
        <time>2019-12-08T09:41:04.000Z</time>
      </trkpt>
      <trkpt lat="43.60462" lon="6.77106">
        <ele>176.04</ele>
        <time>2019-12-08T09:41:05.000Z</time>
      </trkpt>
      <trkpt lat="43.60466" lon="6.77095">
        <ele>175.88</ele>
        <time>2019-12-08T09:41:06.000Z</time>
      </trkpt>
      <trkpt lat="43.6047" lon="6.77083">
        <ele>175.81</ele>
        <time>2019-12-08T09:41:07.000Z</time>
      </trkpt>
      <trkpt lat="43.60474" lon="6.77071">
        <ele>175.68</ele>
        <time>2019-12-08T09:41:08.000Z</time>
      </trkpt>
      <trkpt lat="43.60478" lon="6.7706">
        <ele>175.63</ele>
        <time>2019-12-08T09:41:09.000Z</time>
      </trkpt>
      <trkpt lat="43.60482" lon="6.77048">
        <ele>175.6</ele>
        <time>2019-12-08T09:41:10.000Z</time>
      </trkpt>
      <trkpt lat="43.60485" lon="6.77036">
        <ele>175.57</ele>
        <time>2019-12-08T09:41:11.000Z</time>
      </trkpt>
      <trkpt lat="43.60489" lon="6.77025">
        <ele>175.57</ele>
        <time>2019-12-08T09:41:12.000Z</time>
      </trkpt>
      <trkpt lat="43.60492" lon="6.77013">
        <ele>175.56</ele>
        <time>2019-12-08T09:41:13.000Z</time>
      </trkpt>
      <trkpt lat="43.60496" lon="6.77002">
        <ele>175.51</ele>
        <time>2019-12-08T09:41:14.000Z</time>
      </trkpt>
      <trkpt lat="43.605" lon="6.76991">
        <ele>175.48</ele>
        <time>2019-12-08T09:41:15.000Z</time>
      </trkpt>
      <trkpt lat="43.60503" lon="6.7698">
        <ele>175.52</ele>
        <time>2019-12-08T09:41:16.000Z</time>
      </trkpt>
      <trkpt lat="43.60507" lon="6.76969">
        <ele>175.58</ele>
        <time>2019-12-08T09:41:17.000Z</time>
      </trkpt>
      <trkpt lat="43.6051" lon="6.76958">
        <ele>175.57</ele>
        <time>2019-12-08T09:41:18.000Z</time>
      </trkpt>
      <trkpt lat="43.60513" lon="6.76947">
        <ele>175.53</ele>
        <time>2019-12-08T09:41:19.000Z</time>
      </trkpt>
      <trkpt lat="43.60517" lon="6.76936">
        <ele>175.53</ele>
        <time>2019-12-08T09:41:20.000Z</time>
      </trkpt>
      <trkpt lat="43.6052" lon="6.76925">
        <ele>175.39</ele>
        <time>2019-12-08T09:41:21.000Z</time>
      </trkpt>
      <trkpt lat="43.60524" lon="6.76914">
        <ele>175.26</ele>
        <time>2019-12-08T09:41:22.000Z</time>
      </trkpt>
      <trkpt lat="43.60527" lon="6.76904">
        <ele>175.18</ele>
        <time>2019-12-08T09:41:23.000Z</time>
      </trkpt>
      <trkpt lat="43.6053" lon="6.76893">
        <ele>175.18</ele>
        <time>2019-12-08T09:41:24.000Z</time>
      </trkpt>
      <trkpt lat="43.60534" lon="6.76883">
        <ele>175.15</ele>
        <time>2019-12-08T09:41:25.000Z</time>
      </trkpt>
      <trkpt lat="43.60537" lon="6.76873">
        <ele>175.18</ele>
        <time>2019-12-08T09:41:26.000Z</time>
      </trkpt>
      <trkpt lat="43.60541" lon="6.76862">
        <ele>175.3</ele>
        <time>2019-12-08T09:41:27.000Z</time>
      </trkpt>
      <trkpt lat="43.60544" lon="6.76852">
        <ele>175.35</ele>
        <time>2019-12-08T09:41:28.000Z</time>
      </trkpt>
      <trkpt lat="43.60547" lon="6.76842">
        <ele>175.42</ele>
        <time>2019-12-08T09:41:29.000Z</time>
      </trkpt>
      <trkpt lat="43.6055" lon="6.76832">
        <ele>175.55</ele>
        <time>2019-12-08T09:41:30.000Z</time>
      </trkpt>
      <trkpt lat="43.60553" lon="6.76822">
        <ele>175.67</ele>
        <time>2019-12-08T09:41:31.000Z</time>
      </trkpt>
      <trkpt lat="43.60557" lon="6.76812">
        <ele>175.7</ele>
        <time>2019-12-08T09:41:32.000Z</time>
      </trkpt>
      <trkpt lat="43.6056" lon="6.76802">
        <ele>175.76</ele>
        <time>2019-12-08T09:41:33.000Z</time>
      </trkpt>
      <trkpt lat="43.60563" lon="6.76793">
        <ele>175.88</ele>
        <time>2019-12-08T09:41:34.000Z</time>
      </trkpt>
      <trkpt lat="43.60565" lon="6.76783">
        <ele>175.94</ele>
        <time>2019-12-08T09:41:35.000Z</time>
      </trkpt>
      <trkpt lat="43.60568" lon="6.76773">
        <ele>176.05</ele>
        <time>2019-12-08T09:41:36.000Z</time>
      </trkpt>
      <trkpt lat="43.6057" lon="6.76763">
        <ele>176.1</ele>
        <time>2019-12-08T09:41:37.000Z</time>
      </trkpt>
      <trkpt lat="43.60572" lon="6.76753">
        <ele>176.21</ele>
        <time>2019-12-08T09:41:38.000Z</time>
      </trkpt>
      <trkpt lat="43.60574" lon="6.76743">
        <ele>176.28</ele>
        <time>2019-12-08T09:41:39.000Z</time>
      </trkpt>
      <trkpt lat="43.60576" lon="6.76733">
        <ele>176.37</ele>
        <time>2019-12-08T09:41:40.000Z</time>
      </trkpt>
      <trkpt lat="43.60577" lon="6.76723">
        <ele>176.43</ele>
        <time>2019-12-08T09:41:41.000Z</time>
      </trkpt>
      <trkpt lat="43.60578" lon="6.76713">
        <ele>176.58</ele>
        <time>2019-12-08T09:41:42.000Z</time>
      </trkpt>
      <trkpt lat="43.60579" lon="6.76703">
        <ele>176.66</ele>
        <time>2019-12-08T09:41:43.000Z</time>
      </trkpt>
      <trkpt lat="43.6058" lon="6.76693">
        <ele>176.8</ele>
        <time>2019-12-08T09:41:44.000Z</time>
      </trkpt>
      <trkpt lat="43.60581" lon="6.76683">
        <ele>176.85</ele>
        <time>2019-12-08T09:41:45.000Z</time>
      </trkpt>
      <trkpt lat="43.60582" lon="6.76673">
        <ele>176.9</ele>
        <time>2019-12-08T09:41:46.000Z</time>
      </trkpt>
      <trkpt lat="43.60582" lon="6.76662">
        <ele>176.94</ele>
        <time>2019-12-08T09:41:47.000Z</time>
      </trkpt>
      <trkpt lat="43.60583" lon="6.76653">
        <ele>177.06</ele>
        <time>2019-12-08T09:41:48.000Z</time>
      </trkpt>
      <trkpt lat="43.60583" lon="6.76643">
        <ele>177.11</ele>
        <time>2019-12-08T09:41:49.000Z</time>
      </trkpt>
      <trkpt lat="43.60584" lon="6.76633">
        <ele>177.26</ele>
        <time>2019-12-08T09:41:50.000Z</time>
      </trkpt>
      <trkpt lat="43.60584" lon="6.76623">
        <ele>177.45</ele>
        <time>2019-12-08T09:41:51.000Z</time>
      </trkpt>
      <trkpt lat="43.60584" lon="6.76613">
        <ele>177.56</ele>
        <time>2019-12-08T09:41:52.000Z</time>
      </trkpt>
      <trkpt lat="43.60583" lon="6.76603">
        <ele>177.61</ele>
        <time>2019-12-08T09:41:53.000Z</time>
      </trkpt>
      <trkpt lat="43.60583" lon="6.76593">
        <ele>177.67</ele>
        <time>2019-12-08T09:41:54.000Z</time>
      </trkpt>
      <trkpt lat="43.60583" lon="6.76583">
        <ele>177.81</ele>
        <time>2019-12-08T09:41:55.000Z</time>
      </trkpt>
      <trkpt lat="43.60583" lon="6.76573">
        <ele>177.95</ele>
        <time>2019-12-08T09:41:56.000Z</time>
      </trkpt>
      <trkpt lat="43.60582" lon="6.76563">
        <ele>178.01</ele>
        <time>2019-12-08T09:41:57.000Z</time>
      </trkpt>
      <trkpt lat="43.60582" lon="6.76554">
        <ele>178.11</ele>
        <time>2019-12-08T09:41:58.000Z</time>
      </trkpt>
      <trkpt lat="43.60582" lon="6.76544">
        <ele>178.27</ele>
        <time>2019-12-08T09:41:59.000Z</time>
      </trkpt>
      <trkpt lat="43.60582" lon="6.76534">
        <ele>178.45</ele>
        <time>2019-12-08T09:42:00.000Z</time>
      </trkpt>
      <trkpt lat="43.60582" lon="6.76525">
        <ele>178.52</ele>
        <time>2019-12-08T09:42:01.000Z</time>
      </trkpt>
      <trkpt lat="43.60582" lon="6.76515">
        <ele>178.66</ele>
        <time>2019-12-08T09:42:02.000Z</time>
      </trkpt>
      <trkpt lat="43.60582" lon="6.76505">
        <ele>178.9</ele>
        <time>2019-12-08T09:42:03.000Z</time>
      </trkpt>
      <trkpt lat="43.60581" lon="6.76496">
        <ele>179.14</ele>
        <time>2019-12-08T09:42:04.000Z</time>
      </trkpt>
      <trkpt lat="43.60581" lon="6.76486">
        <ele>179.16</ele>
        <time>2019-12-08T09:42:05.000Z</time>
      </trkpt>
      <trkpt lat="43.60581" lon="6.76476">
        <ele>179.31</ele>
        <time>2019-12-08T09:42:06.000Z</time>
      </trkpt>
      <trkpt lat="43.6058" lon="6.76466">
        <ele>179.34</ele>
        <time>2019-12-08T09:42:07.000Z</time>
      </trkpt>
      <trkpt lat="43.6058" lon="6.76456">
        <ele>179.19</ele>
        <time>2019-12-08T09:42:08.000Z</time>
      </trkpt>
      <trkpt lat="43.60579" lon="6.76446">
        <ele>179.21</ele>
        <time>2019-12-08T09:42:09.000Z</time>
      </trkpt>
      <trkpt lat="43.60578" lon="6.76436">
        <ele>179.16</ele>
        <time>2019-12-08T09:42:10.000Z</time>
      </trkpt>
      <trkpt lat="43.60577" lon="6.76425">
        <ele>179.05</ele>
        <time>2019-12-08T09:42:11.000Z</time>
      </trkpt>
      <trkpt lat="43.60577" lon="6.76415">
        <ele>179.11</ele>
        <time>2019-12-08T09:42:12.000Z</time>
      </trkpt>
      <trkpt lat="43.60576" lon="6.76405">
        <ele>179.05</ele>
        <time>2019-12-08T09:42:13.000Z</time>
      </trkpt>
      <trkpt lat="43.60576" lon="6.76395">
        <ele>179.08</ele>
        <time>2019-12-08T09:42:14.000Z</time>
      </trkpt>
      <trkpt lat="43.60575" lon="6.76384">
        <ele>179.18</ele>
        <time>2019-12-08T09:42:15.000Z</time>
      </trkpt>
      <trkpt lat="43.60575" lon="6.76374">
        <ele>179.3</ele>
        <time>2019-12-08T09:42:16.000Z</time>
      </trkpt>
      <trkpt lat="43.60575" lon="6.76364">
        <ele>179.37</ele>
        <time>2019-12-08T09:42:17.000Z</time>
      </trkpt>
      <trkpt lat="43.60575" lon="6.76354">
        <ele>179.35</ele>
        <time>2019-12-08T09:42:18.000Z</time>
      </trkpt>
      <trkpt lat="43.60575" lon="6.76344">
        <ele>179.33</ele>
        <time>2019-12-08T09:42:19.000Z</time>
      </trkpt>
      <trkpt lat="43.60576" lon="6.76334">
        <ele>179.37</ele>
        <time>2019-12-08T09:42:20.000Z</time>
      </trkpt>
      <trkpt lat="43.60576" lon="6.76324">
        <ele>179.32</ele>
        <time>2019-12-08T09:42:21.000Z</time>
      </trkpt>
      <trkpt lat="43.60576" lon="6.76314">
        <ele>179.32</ele>
        <time>2019-12-08T09:42:22.000Z</time>
      </trkpt>
      <trkpt lat="43.60577" lon="6.76304">
        <ele>179.38</ele>
        <time>2019-12-08T09:42:23.000Z</time>
      </trkpt>
      <trkpt lat="43.60577" lon="6.76293">
        <ele>179.33</ele>
        <time>2019-12-08T09:42:24.000Z</time>
      </trkpt>
      <trkpt lat="43.60577" lon="6.76283">
        <ele>179.24</ele>
        <time>2019-12-08T09:42:25.000Z</time>
      </trkpt>
      <trkpt lat="43.60577" lon="6.76273">
        <ele>179.2</ele>
        <time>2019-12-08T09:42:26.000Z</time>
      </trkpt>
      <trkpt lat="43.60578" lon="6.76263">
        <ele>179.17</ele>
        <time>2019-12-08T09:42:27.000Z</time>
      </trkpt>
      <trkpt lat="43.60578" lon="6.76253">
        <ele>179.16</ele>
        <time>2019-12-08T09:42:28.000Z</time>
      </trkpt>
      <trkpt lat="43.60578" lon="6.76243">
        <ele>179.19</ele>
        <time>2019-12-08T09:42:29.000Z</time>
      </trkpt>
      <trkpt lat="43.60578" lon="6.76236">
        <ele>179.17</ele>
        <time>2019-12-08T09:42:30.000Z</time>
      </trkpt>
      <trkpt lat="43.60578" lon="6.76232">
        <ele>179.02</ele>
        <time>2019-12-08T09:42:31.000Z</time>
      </trkpt>
      <trkpt lat="43.60579" lon="6.76228">
        <ele>178.75</ele>
        <time>2019-12-08T09:42:32.000Z</time>
      </trkpt>
      <trkpt lat="43.6058" lon="6.76224">
        <ele>178.55</ele>
        <time>2019-12-08T09:42:33.000Z</time>
      </trkpt>
      <trkpt lat="43.60582" lon="6.7622">
        <ele>178.46</ele>
        <time>2019-12-08T09:42:34.000Z</time>
      </trkpt>
      <trkpt lat="43.60583" lon="6.76214">
        <ele>178.38</ele>
        <time>2019-12-08T09:42:35.000Z</time>
      </trkpt>
      <trkpt lat="43.60584" lon="6.76208">
        <ele>178.38</ele>
        <time>2019-12-08T09:42:36.000Z</time>
      </trkpt>
      <trkpt lat="43.60583" lon="6.76201">
        <ele>178.44</ele>
        <time>2019-12-08T09:42:37.000Z</time>
      </trkpt>
      <trkpt lat="43.60582" lon="6.76194">
        <ele>178.47</ele>
        <time>2019-12-08T09:42:38.000Z</time>
      </trkpt>
      <trkpt lat="43.6058" lon="6.76187">
        <ele>178.51</ele>
        <time>2019-12-08T09:42:39.000Z</time>
      </trkpt>
      <trkpt lat="43.60579" lon="6.76179">
        <ele>178.46</ele>
        <time>2019-12-08T09:42:40.000Z</time>
      </trkpt>
      <trkpt lat="43.60577" lon="6.76171">
        <ele>178.42</ele>
        <time>2019-12-08T09:42:41.000Z</time>
      </trkpt>
      <trkpt lat="43.60576" lon="6.76162">
        <ele>178.38</ele>
        <time>2019-12-08T09:42:42.000Z</time>
      </trkpt>
      <trkpt lat="43.60576" lon="6.76154">
        <ele>178.35</ele>
        <time>2019-12-08T09:42:43.000Z</time>
      </trkpt>
      <trkpt lat="43.60575" lon="6.76145">
        <ele>178.28</ele>
        <time>2019-12-08T09:42:44.000Z</time>
      </trkpt>
      <trkpt lat="43.60574" lon="6.76135">
        <ele>178.21</ele>
        <time>2019-12-08T09:42:45.000Z</time>
      </trkpt>
      <trkpt lat="43.60573" lon="6.76126">
        <ele>178.16</ele>
        <time>2019-12-08T09:42:46.000Z</time>
      </trkpt>
      <trkpt lat="43.60572" lon="6.76116">
        <ele>178.03</ele>
        <time>2019-12-08T09:42:47.000Z</time>
      </trkpt>
      <trkpt lat="43.60571" lon="6.76107">
        <ele>177.94</ele>
        <time>2019-12-08T09:42:48.000Z</time>
      </trkpt>
      <trkpt lat="43.6057" lon="6.76097">
        <ele>177.9</ele>
        <time>2019-12-08T09:42:49.000Z</time>
      </trkpt>
      <trkpt lat="43.60569" lon="6.76088">
        <ele>177.89</ele>
        <time>2019-12-08T09:42:50.000Z</time>
      </trkpt>
      <trkpt lat="43.60568" lon="6.76078">
        <ele>177.92</ele>
        <time>2019-12-08T09:42:51.000Z</time>
      </trkpt>
      <trkpt lat="43.60567" lon="6.76069">
        <ele>177.97</ele>
        <time>2019-12-08T09:42:52.000Z</time>
      </trkpt>
      <trkpt lat="43.60566" lon="6.76059">
        <ele>178.05</ele>
        <time>2019-12-08T09:42:53.000Z</time>
      </trkpt>
      <trkpt lat="43.60565" lon="6.7605">
        <ele>178.24</ele>
        <time>2019-12-08T09:42:54.000Z</time>
      </trkpt>
      <trkpt lat="43.60565" lon="6.76041">
        <ele>178.39</ele>
        <time>2019-12-08T09:42:55.000Z</time>
      </trkpt>
      <trkpt lat="43.60564" lon="6.76032">
        <ele>178.66</ele>
        <time>2019-12-08T09:42:56.000Z</time>
      </trkpt>
      <trkpt lat="43.60563" lon="6.76023">
        <ele>178.9</ele>
        <time>2019-12-08T09:42:57.000Z</time>
      </trkpt>
      <trkpt lat="43.60562" lon="6.76014">
        <ele>179.08</ele>
        <time>2019-12-08T09:42:58.000Z</time>
      </trkpt>
      <trkpt lat="43.60562" lon="6.76005">
        <ele>179.14</ele>
        <time>2019-12-08T09:42:59.000Z</time>
      </trkpt>
      <trkpt lat="43.60561" lon="6.75996">
        <ele>179.18</ele>
        <time>2019-12-08T09:43:00.000Z</time>
      </trkpt>
      <trkpt lat="43.6056" lon="6.75987">
        <ele>179.25</ele>
        <time>2019-12-08T09:43:01.000Z</time>
      </trkpt>
      <trkpt lat="43.60559" lon="6.75978">
        <ele>179.29</ele>
        <time>2019-12-08T09:43:02.000Z</time>
      </trkpt>
      <trkpt lat="43.60558" lon="6.75969">
        <ele>179.3</ele>
        <time>2019-12-08T09:43:03.000Z</time>
      </trkpt>
      <trkpt lat="43.60558" lon="6.7596">
        <ele>179.31</ele>
        <time>2019-12-08T09:43:04.000Z</time>
      </trkpt>
      <trkpt lat="43.60557" lon="6.7595">
        <ele>179.31</ele>
        <time>2019-12-08T09:43:05.000Z</time>
      </trkpt>
      <trkpt lat="43.60556" lon="6.75941">
        <ele>179.31</ele>
        <time>2019-12-08T09:43:06.000Z</time>
      </trkpt>
      <trkpt lat="43.60556" lon="6.75932">
        <ele>179.29</ele>
        <time>2019-12-08T09:43:07.000Z</time>
      </trkpt>
      <trkpt lat="43.60555" lon="6.75922">
        <ele>179.26</ele>
        <time>2019-12-08T09:43:08.000Z</time>
      </trkpt>
      <trkpt lat="43.60555" lon="6.75912">
        <ele>179.18</ele>
        <time>2019-12-08T09:43:09.000Z</time>
      </trkpt>
      <trkpt lat="43.60555" lon="6.75902">
        <ele>179.19</ele>
        <time>2019-12-08T09:43:10.000Z</time>
      </trkpt>
      <trkpt lat="43.60555" lon="6.75892">
        <ele>179.23</ele>
        <time>2019-12-08T09:43:11.000Z</time>
      </trkpt>
      <trkpt lat="43.60554" lon="6.75882">
        <ele>179.17</ele>
        <time>2019-12-08T09:43:12.000Z</time>
      </trkpt>
      <trkpt lat="43.60554" lon="6.75871">
        <ele>179.11</ele>
        <time>2019-12-08T09:43:13.000Z</time>
      </trkpt>
      <trkpt lat="43.60554" lon="6.75861">
        <ele>179.27</ele>
        <time>2019-12-08T09:43:14.000Z</time>
      </trkpt>
      <trkpt lat="43.60554" lon="6.75851">
        <ele>179.17</ele>
        <time>2019-12-08T09:43:15.000Z</time>
      </trkpt>
      <trkpt lat="43.60554" lon="6.7584">
        <ele>179.11</ele>
        <time>2019-12-08T09:43:16.000Z</time>
      </trkpt>
      <trkpt lat="43.60554" lon="6.7583">
        <ele>179.12</ele>
        <time>2019-12-08T09:43:17.000Z</time>
      </trkpt>
      <trkpt lat="43.60554" lon="6.7582">
        <ele>179.1</ele>
        <time>2019-12-08T09:43:18.000Z</time>
      </trkpt>
      <trkpt lat="43.60554" lon="6.7581">
        <ele>179.09</ele>
        <time>2019-12-08T09:43:19.000Z</time>
      </trkpt>
      <trkpt lat="43.60554" lon="6.758">
        <ele>179.12</ele>
        <time>2019-12-08T09:43:20.000Z</time>
      </trkpt>
      <trkpt lat="43.60555" lon="6.7579">
        <ele>179.15</ele>
        <time>2019-12-08T09:43:21.000Z</time>
      </trkpt>
      <trkpt lat="43.60555" lon="6.7578">
        <ele>179.25</ele>
        <time>2019-12-08T09:43:22.000Z</time>
      </trkpt>
      <trkpt lat="43.60556" lon="6.7577">
        <ele>179.29</ele>
        <time>2019-12-08T09:43:23.000Z</time>
      </trkpt>
      <trkpt lat="43.60558" lon="6.7576">
        <ele>179.52</ele>
        <time>2019-12-08T09:43:24.000Z</time>
      </trkpt>
      <trkpt lat="43.60559" lon="6.75751">
        <ele>179.78</ele>
        <time>2019-12-08T09:43:25.000Z</time>
      </trkpt>
      <trkpt lat="43.6056" lon="6.75741">
        <ele>179.96</ele>
        <time>2019-12-08T09:43:26.000Z</time>
      </trkpt>
      <trkpt lat="43.60562" lon="6.75732">
        <ele>180.14</ele>
        <time>2019-12-08T09:43:27.000Z</time>
      </trkpt>
      <trkpt lat="43.60564" lon="6.75723">
        <ele>180.16</ele>
        <time>2019-12-08T09:43:28.000Z</time>
      </trkpt>
      <trkpt lat="43.60566" lon="6.75713">
        <ele>180.13</ele>
        <time>2019-12-08T09:43:29.000Z</time>
      </trkpt>
      <trkpt lat="43.60567" lon="6.75704">
        <ele>180.21</ele>
        <time>2019-12-08T09:43:30.000Z</time>
      </trkpt>
      <trkpt lat="43.60569" lon="6.75695">
        <ele>180.32</ele>
        <time>2019-12-08T09:43:31.000Z</time>
      </trkpt>
      <trkpt lat="43.6057" lon="6.75686">
        <ele>180.38</ele>
        <time>2019-12-08T09:43:32.000Z</time>
      </trkpt>
      <trkpt lat="43.60572" lon="6.75677">
        <ele>180.52</ele>
        <time>2019-12-08T09:43:33.000Z</time>
      </trkpt>
      <trkpt lat="43.60573" lon="6.75668">
        <ele>180.72</ele>
        <time>2019-12-08T09:43:34.000Z</time>
      </trkpt>
      <trkpt lat="43.60574" lon="6.7566">
        <ele>180.86</ele>
        <time>2019-12-08T09:43:35.000Z</time>
      </trkpt>
      <trkpt lat="43.60575" lon="6.75651">
        <ele>180.97</ele>
        <time>2019-12-08T09:43:36.000Z</time>
      </trkpt>
      <trkpt lat="43.60575" lon="6.75642">
        <ele>181.23</ele>
        <time>2019-12-08T09:43:37.000Z</time>
      </trkpt>
      <trkpt lat="43.60576" lon="6.75634">
        <ele>181.44</ele>
        <time>2019-12-08T09:43:38.000Z</time>
      </trkpt>
      <trkpt lat="43.60576" lon="6.75625">
        <ele>181.63</ele>
        <time>2019-12-08T09:43:39.000Z</time>
      </trkpt>
      <trkpt lat="43.60577" lon="6.75616">
        <ele>181.71</ele>
        <time>2019-12-08T09:43:40.000Z</time>
      </trkpt>
      <trkpt lat="43.60577" lon="6.75607">
        <ele>181.82</ele>
        <time>2019-12-08T09:43:41.000Z</time>
      </trkpt>
      <trkpt lat="43.60578" lon="6.75599">
        <ele>181.96</ele>
        <time>2019-12-08T09:43:42.000Z</time>
      </trkpt>
      <trkpt lat="43.60578" lon="6.7559">
        <ele>182.11</ele>
        <time>2019-12-08T09:43:43.000Z</time>
      </trkpt>
      <trkpt lat="43.60578" lon="6.75581">
        <ele>182.15</ele>
        <time>2019-12-08T09:43:44.000Z</time>
      </trkpt>
      <trkpt lat="43.60578" lon="6.75572">
        <ele>182.28</ele>
        <time>2019-12-08T09:43:45.000Z</time>
      </trkpt>
      <trkpt lat="43.60579" lon="6.75564">
        <ele>182.4</ele>
        <time>2019-12-08T09:43:46.000Z</time>
      </trkpt>
      <trkpt lat="43.6058" lon="6.75555">
        <ele>182.48</ele>
        <time>2019-12-08T09:43:47.000Z</time>
      </trkpt>
      <trkpt lat="43.60582" lon="6.75547">
        <ele>182.55</ele>
        <time>2019-12-08T09:43:48.000Z</time>
      </trkpt>
      <trkpt lat="43.60586" lon="6.7554">
        <ele>182.55</ele>
        <time>2019-12-08T09:43:49.000Z</time>
      </trkpt>
      <trkpt lat="43.60589" lon="6.75532">
        <ele>182.46</ele>
        <time>2019-12-08T09:43:50.000Z</time>
      </trkpt>
      <trkpt lat="43.60591" lon="6.75524">
        <ele>182.39</ele>
        <time>2019-12-08T09:43:51.000Z</time>
      </trkpt>
      <trkpt lat="43.60591" lon="6.75515">
        <ele>182.38</ele>
        <time>2019-12-08T09:43:52.000Z</time>
      </trkpt>
      <trkpt lat="43.60589" lon="6.75506">
        <ele>182.43</ele>
        <time>2019-12-08T09:43:53.000Z</time>
      </trkpt>
      <trkpt lat="43.60587" lon="6.75497">
        <ele>182.56</ele>
        <time>2019-12-08T09:43:54.000Z</time>
      </trkpt>
      <trkpt lat="43.60586" lon="6.75488">
        <ele>182.65</ele>
        <time>2019-12-08T09:43:55.000Z</time>
      </trkpt>
      <trkpt lat="43.60586" lon="6.75479">
        <ele>182.7</ele>
        <time>2019-12-08T09:43:56.000Z</time>
      </trkpt>
      <trkpt lat="43.60587" lon="6.7547">
        <ele>182.69</ele>
        <time>2019-12-08T09:43:57.000Z</time>
      </trkpt>
      <trkpt lat="43.60588" lon="6.75461">
        <ele>182.65</ele>
        <time>2019-12-08T09:43:58.000Z</time>
      </trkpt>
      <trkpt lat="43.6059" lon="6.75452">
        <ele>182.65</ele>
        <time>2019-12-08T09:43:59.000Z</time>
      </trkpt>
      <trkpt lat="43.60591" lon="6.75443">
        <ele>182.73</ele>
        <time>2019-12-08T09:44:00.000Z</time>
      </trkpt>
      <trkpt lat="43.60592" lon="6.75434">
        <ele>182.8</ele>
        <time>2019-12-08T09:44:01.000Z</time>
      </trkpt>
      <trkpt lat="43.60594" lon="6.75425">
        <ele>182.86</ele>
        <time>2019-12-08T09:44:02.000Z</time>
      </trkpt>
      <trkpt lat="43.60595" lon="6.75416">
        <ele>182.92</ele>
        <time>2019-12-08T09:44:03.000Z</time>
      </trkpt>
      <trkpt lat="43.60596" lon="6.75407">
        <ele>182.99</ele>
        <time>2019-12-08T09:44:04.000Z</time>
      </trkpt>
      <trkpt lat="43.60597" lon="6.75398">
        <ele>183.02</ele>
        <time>2019-12-08T09:44:05.000Z</time>
      </trkpt>
      <trkpt lat="43.60598" lon="6.75389">
        <ele>183.07</ele>
        <time>2019-12-08T09:44:06.000Z</time>
      </trkpt>
      <trkpt lat="43.60599" lon="6.7538">
        <ele>183.22</ele>
        <time>2019-12-08T09:44:07.000Z</time>
      </trkpt>
      <trkpt lat="43.606" lon="6.75371">
        <ele>183.38</ele>
        <time>2019-12-08T09:44:08.000Z</time>
      </trkpt>
      <trkpt lat="43.60601" lon="6.75362">
        <ele>183.45</ele>
        <time>2019-12-08T09:44:09.000Z</time>
      </trkpt>
      <trkpt lat="43.60601" lon="6.75353">
        <ele>183.58</ele>
        <time>2019-12-08T09:44:10.000Z</time>
      </trkpt>
      <trkpt lat="43.60602" lon="6.75344">
        <ele>183.68</ele>
        <time>2019-12-08T09:44:11.000Z</time>
      </trkpt>
      <trkpt lat="43.60603" lon="6.75336">
        <ele>183.77</ele>
        <time>2019-12-08T09:44:12.000Z</time>
      </trkpt>
      <trkpt lat="43.60605" lon="6.75327">
        <ele>183.79</ele>
        <time>2019-12-08T09:44:13.000Z</time>
      </trkpt>
      <trkpt lat="43.60606" lon="6.75319">
        <ele>183.85</ele>
        <time>2019-12-08T09:44:14.000Z</time>
      </trkpt>
      <trkpt lat="43.60607" lon="6.7531">
        <ele>183.95</ele>
        <time>2019-12-08T09:44:15.000Z</time>
      </trkpt>
      <trkpt lat="43.60608" lon="6.75302">
        <ele>184.07</ele>
        <time>2019-12-08T09:44:16.000Z</time>
      </trkpt>
      <trkpt lat="43.60609" lon="6.75294">
        <ele>184.19</ele>
        <time>2019-12-08T09:44:17.000Z</time>
      </trkpt>
      <trkpt lat="43.60611" lon="6.75285">
        <ele>184.26</ele>
        <time>2019-12-08T09:44:18.000Z</time>
      </trkpt>
      <trkpt lat="43.60613" lon="6.75277">
        <ele>184.38</ele>
        <time>2019-12-08T09:44:19.000Z</time>
      </trkpt>
      <trkpt lat="43.60614" lon="6.75269">
        <ele>184.47</ele>
        <time>2019-12-08T09:44:20.000Z</time>
      </trkpt>
      <trkpt lat="43.60616" lon="6.75261">
        <ele>184.51</ele>
        <time>2019-12-08T09:44:21.000Z</time>
      </trkpt>
      <trkpt lat="43.60618" lon="6.75253">
        <ele>184.63</ele>
        <time>2019-12-08T09:44:22.000Z</time>
      </trkpt>
      <trkpt lat="43.60619" lon="6.75245">
        <ele>184.75</ele>
        <time>2019-12-08T09:44:23.000Z</time>
      </trkpt>
      <trkpt lat="43.60621" lon="6.75237">
        <ele>184.87</ele>
        <time>2019-12-08T09:44:24.000Z</time>
      </trkpt>
      <trkpt lat="43.60623" lon="6.75229">
        <ele>185.11</ele>
        <time>2019-12-08T09:44:25.000Z</time>
      </trkpt>
      <trkpt lat="43.60624" lon="6.75221">
        <ele>185.2</ele>
        <time>2019-12-08T09:44:26.000Z</time>
      </trkpt>
      <trkpt lat="43.60626" lon="6.75212">
        <ele>185.3</ele>
        <time>2019-12-08T09:44:27.000Z</time>
      </trkpt>
      <trkpt lat="43.60628" lon="6.75204">
        <ele>185.42</ele>
        <time>2019-12-08T09:44:28.000Z</time>
      </trkpt>
      <trkpt lat="43.60629" lon="6.75196">
        <ele>185.46</ele>
        <time>2019-12-08T09:44:29.000Z</time>
      </trkpt>
      <trkpt lat="43.60631" lon="6.75188">
        <ele>185.39</ele>
        <time>2019-12-08T09:44:30.000Z</time>
      </trkpt>
      <trkpt lat="43.60633" lon="6.75179">
        <ele>185.41</ele>
        <time>2019-12-08T09:44:31.000Z</time>
      </trkpt>
      <trkpt lat="43.60634" lon="6.75171">
        <ele>185.45</ele>
        <time>2019-12-08T09:44:32.000Z</time>
      </trkpt>
      <trkpt lat="43.60636" lon="6.75163">
        <ele>185.55</ele>
        <time>2019-12-08T09:44:33.000Z</time>
      </trkpt>
      <trkpt lat="43.60637" lon="6.75154">
        <ele>185.62</ele>
        <time>2019-12-08T09:44:34.000Z</time>
      </trkpt>
      <trkpt lat="43.60639" lon="6.75146">
        <ele>185.77</ele>
        <time>2019-12-08T09:44:35.000Z</time>
      </trkpt>
      <trkpt lat="43.6064" lon="6.75137">
        <ele>185.89</ele>
        <time>2019-12-08T09:44:36.000Z</time>
      </trkpt>
      <trkpt lat="43.60642" lon="6.75128">
        <ele>185.98</ele>
        <time>2019-12-08T09:44:37.000Z</time>
      </trkpt>
      <trkpt lat="43.60644" lon="6.7512">
        <ele>186.05</ele>
        <time>2019-12-08T09:44:38.000Z</time>
      </trkpt>
      <trkpt lat="43.60645" lon="6.75111">
        <ele>186.19</ele>
        <time>2019-12-08T09:44:39.000Z</time>
      </trkpt>
      <trkpt lat="43.60647" lon="6.75102">
        <ele>186.25</ele>
        <time>2019-12-08T09:44:40.000Z</time>
      </trkpt>
      <trkpt lat="43.60648" lon="6.75093">
        <ele>186.39</ele>
        <time>2019-12-08T09:44:41.000Z</time>
      </trkpt>
      <trkpt lat="43.6065" lon="6.75084">
        <ele>186.46</ele>
        <time>2019-12-08T09:44:42.000Z</time>
      </trkpt>
      <trkpt lat="43.60652" lon="6.75076">
        <ele>186.53</ele>
        <time>2019-12-08T09:44:43.000Z</time>
      </trkpt>
      <trkpt lat="43.60653" lon="6.75067">
        <ele>186.56</ele>
        <time>2019-12-08T09:44:44.000Z</time>
      </trkpt>
      <trkpt lat="43.60655" lon="6.75058">
        <ele>186.67</ele>
        <time>2019-12-08T09:44:45.000Z</time>
      </trkpt>
      <trkpt lat="43.60657" lon="6.75049">
        <ele>186.62</ele>
        <time>2019-12-08T09:44:46.000Z</time>
      </trkpt>
      <trkpt lat="43.60659" lon="6.7504">
        <ele>186.61</ele>
        <time>2019-12-08T09:44:47.000Z</time>
      </trkpt>
      <trkpt lat="43.6066" lon="6.75031">
        <ele>186.61</ele>
        <time>2019-12-08T09:44:48.000Z</time>
      </trkpt>
      <trkpt lat="43.60662" lon="6.75022">
        <ele>186.66</ele>
        <time>2019-12-08T09:44:49.000Z</time>
      </trkpt>
      <trkpt lat="43.60664" lon="6.75013">
        <ele>186.74</ele>
        <time>2019-12-08T09:44:50.000Z</time>
      </trkpt>
      <trkpt lat="43.60666" lon="6.75004">
        <ele>186.84</ele>
        <time>2019-12-08T09:44:51.000Z</time>
      </trkpt>
      <trkpt lat="43.60668" lon="6.74995">
        <ele>186.88</ele>
        <time>2019-12-08T09:44:52.000Z</time>
      </trkpt>
      <trkpt lat="43.6067" lon="6.74987">
        <ele>186.88</ele>
        <time>2019-12-08T09:44:53.000Z</time>
      </trkpt>
      <trkpt lat="43.60673" lon="6.74978">
        <ele>186.88</ele>
        <time>2019-12-08T09:44:54.000Z</time>
      </trkpt>
      <trkpt lat="43.60675" lon="6.74969">
        <ele>187.05</ele>
        <time>2019-12-08T09:44:55.000Z</time>
      </trkpt>
      <trkpt lat="43.60678" lon="6.74961">
        <ele>187.19</ele>
        <time>2019-12-08T09:44:56.000Z</time>
      </trkpt>
      <trkpt lat="43.60681" lon="6.74952">
        <ele>187.19</ele>
        <time>2019-12-08T09:44:57.000Z</time>
      </trkpt>
      <trkpt lat="43.60683" lon="6.74944">
        <ele>187.27</ele>
        <time>2019-12-08T09:44:58.000Z</time>
      </trkpt>
      <trkpt lat="43.60686" lon="6.74936">
        <ele>187.39</ele>
        <time>2019-12-08T09:44:59.000Z</time>
      </trkpt>
      <trkpt lat="43.60689" lon="6.74927">
        <ele>187.53</ele>
        <time>2019-12-08T09:45:00.000Z</time>
      </trkpt>
      <trkpt lat="43.60691" lon="6.74919">
        <ele>187.65</ele>
        <time>2019-12-08T09:45:01.000Z</time>
      </trkpt>
      <trkpt lat="43.60693" lon="6.74911">
        <ele>187.74</ele>
        <time>2019-12-08T09:45:02.000Z</time>
      </trkpt>
      <trkpt lat="43.60696" lon="6.74903">
        <ele>187.84</ele>
        <time>2019-12-08T09:45:03.000Z</time>
      </trkpt>
      <trkpt lat="43.60699" lon="6.74895">
        <ele>187.95</ele>
        <time>2019-12-08T09:45:04.000Z</time>
      </trkpt>
      <trkpt lat="43.60701" lon="6.74886">
        <ele>187.98</ele>
        <time>2019-12-08T09:45:05.000Z</time>
      </trkpt>
      <trkpt lat="43.60703" lon="6.74878">
        <ele>188.13</ele>
        <time>2019-12-08T09:45:06.000Z</time>
      </trkpt>
      <trkpt lat="43.60706" lon="6.7487">
        <ele>188.24</ele>
        <time>2019-12-08T09:45:07.000Z</time>
      </trkpt>
      <trkpt lat="43.60708" lon="6.74861">
        <ele>188.3</ele>
        <time>2019-12-08T09:45:08.000Z</time>
      </trkpt>
      <trkpt lat="43.6071" lon="6.74853">
        <ele>188.41</ele>
        <time>2019-12-08T09:45:09.000Z</time>
      </trkpt>
      <trkpt lat="43.60712" lon="6.74844">
        <ele>188.51</ele>
        <time>2019-12-08T09:45:10.000Z</time>
      </trkpt>
      <trkpt lat="43.60715" lon="6.74836">
        <ele>188.57</ele>
        <time>2019-12-08T09:45:11.000Z</time>
      </trkpt>
      <trkpt lat="43.60717" lon="6.74827">
        <ele>188.69</ele>
        <time>2019-12-08T09:45:12.000Z</time>
      </trkpt>
      <trkpt lat="43.60719" lon="6.74818">
        <ele>188.82</ele>
        <time>2019-12-08T09:45:13.000Z</time>
      </trkpt>
      <trkpt lat="43.60721" lon="6.7481">
        <ele>189.02</ele>
        <time>2019-12-08T09:45:14.000Z</time>
      </trkpt>
      <trkpt lat="43.60723" lon="6.74801">
        <ele>189.09</ele>
        <time>2019-12-08T09:45:15.000Z</time>
      </trkpt>
      <trkpt lat="43.60726" lon="6.74793">
        <ele>189.23</ele>
        <time>2019-12-08T09:45:16.000Z</time>
      </trkpt>
      <trkpt lat="43.60728" lon="6.74784">
        <ele>189.32</ele>
        <time>2019-12-08T09:45:17.000Z</time>
      </trkpt>
      <trkpt lat="43.6073" lon="6.74776">
        <ele>189.41</ele>
        <time>2019-12-08T09:45:18.000Z</time>
      </trkpt>
      <trkpt lat="43.60733" lon="6.74767">
        <ele>189.45</ele>
        <time>2019-12-08T09:45:19.000Z</time>
      </trkpt>
      <trkpt lat="43.60735" lon="6.74759">
        <ele>189.48</ele>
        <time>2019-12-08T09:45:20.000Z</time>
      </trkpt>
      <trkpt lat="43.60737" lon="6.74751">
        <ele>189.55</ele>
        <time>2019-12-08T09:45:21.000Z</time>
      </trkpt>
      <trkpt lat="43.6074" lon="6.74742">
        <ele>189.69</ele>
        <time>2019-12-08T09:45:22.000Z</time>
      </trkpt>
      <trkpt lat="43.60742" lon="6.74734">
        <ele>189.75</ele>
        <time>2019-12-08T09:45:23.000Z</time>
      </trkpt>
      <trkpt lat="43.60744" lon="6.74726">
        <ele>189.83</ele>
        <time>2019-12-08T09:45:24.000Z</time>
      </trkpt>
      <trkpt lat="43.60746" lon="6.74718">
        <ele>189.98</ele>
        <time>2019-12-08T09:45:25.000Z</time>
      </trkpt>
      <trkpt lat="43.60748" lon="6.7471">
        <ele>190.08</ele>
        <time>2019-12-08T09:45:26.000Z</time>
      </trkpt>
      <trkpt lat="43.60751" lon="6.74702">
        <ele>190.12</ele>
        <time>2019-12-08T09:45:27.000Z</time>
      </trkpt>
      <trkpt lat="43.60753" lon="6.74694">
        <ele>190.28</ele>
        <time>2019-12-08T09:45:28.000Z</time>
      </trkpt>
      <trkpt lat="43.60755" lon="6.74685">
        <ele>190.4</ele>
        <time>2019-12-08T09:45:29.000Z</time>
      </trkpt>
      <trkpt lat="43.60757" lon="6.74677">
        <ele>190.51</ele>
        <time>2019-12-08T09:45:30.000Z</time>
      </trkpt>
      <trkpt lat="43.60759" lon="6.74669">
        <ele>190.7</ele>
        <time>2019-12-08T09:45:31.000Z</time>
      </trkpt>
      <trkpt lat="43.60761" lon="6.74661">
        <ele>190.78</ele>
        <time>2019-12-08T09:45:32.000Z</time>
      </trkpt>
      <trkpt lat="43.60763" lon="6.74653">
        <ele>190.86</ele>
        <time>2019-12-08T09:45:33.000Z</time>
      </trkpt>
      <trkpt lat="43.60765" lon="6.74645">
        <ele>191</ele>
        <time>2019-12-08T09:45:34.000Z</time>
      </trkpt>
      <trkpt lat="43.60767" lon="6.74636">
        <ele>191.17</ele>
        <time>2019-12-08T09:45:35.000Z</time>
      </trkpt>
      <trkpt lat="43.60768" lon="6.74628">
        <ele>191.22</ele>
        <time>2019-12-08T09:45:36.000Z</time>
      </trkpt>
      <trkpt lat="43.6077" lon="6.7462">
        <ele>191.37</ele>
        <time>2019-12-08T09:45:37.000Z</time>
      </trkpt>
      <trkpt lat="43.60771" lon="6.74611">
        <ele>191.51</ele>
        <time>2019-12-08T09:45:38.000Z</time>
      </trkpt>
      <trkpt lat="43.60772" lon="6.74603">
        <ele>191.61</ele>
        <time>2019-12-08T09:45:39.000Z</time>
      </trkpt>
      <trkpt lat="43.60773" lon="6.74594">
        <ele>191.66</ele>
        <time>2019-12-08T09:45:40.000Z</time>
      </trkpt>
      <trkpt lat="43.60774" lon="6.74586">
        <ele>191.71</ele>
        <time>2019-12-08T09:45:41.000Z</time>
      </trkpt>
      <trkpt lat="43.60775" lon="6.74577">
        <ele>191.78</ele>
        <time>2019-12-08T09:45:42.000Z</time>
      </trkpt>
      <trkpt lat="43.60776" lon="6.74568">
        <ele>191.91</ele>
        <time>2019-12-08T09:45:43.000Z</time>
      </trkpt>
      <trkpt lat="43.60777" lon="6.74559">
        <ele>191.91</ele>
        <time>2019-12-08T09:45:44.000Z</time>
      </trkpt>
      <trkpt lat="43.60778" lon="6.7455">
        <ele>191.92</ele>
        <time>2019-12-08T09:45:45.000Z</time>
      </trkpt>
      <trkpt lat="43.60779" lon="6.74541">
        <ele>192.02</ele>
        <time>2019-12-08T09:45:46.000Z</time>
      </trkpt>
      <trkpt lat="43.60779" lon="6.74532">
        <ele>192.1</ele>
        <time>2019-12-08T09:45:47.000Z</time>
      </trkpt>
      <trkpt lat="43.6078" lon="6.74524">
        <ele>192.1</ele>
        <time>2019-12-08T09:45:48.000Z</time>
      </trkpt>
      <trkpt lat="43.6078" lon="6.74515">
        <ele>192.23</ele>
        <time>2019-12-08T09:45:49.000Z</time>
      </trkpt>
      <trkpt lat="43.60781" lon="6.74506">
        <ele>192.4</ele>
        <time>2019-12-08T09:45:50.000Z</time>
      </trkpt>
      <trkpt lat="43.60782" lon="6.74497">
        <ele>192.4</ele>
        <time>2019-12-08T09:45:51.000Z</time>
      </trkpt>
      <trkpt lat="43.60782" lon="6.74488">
        <ele>192.45</ele>
        <time>2019-12-08T09:45:52.000Z</time>
      </trkpt>
      <trkpt lat="43.60783" lon="6.74479">
        <ele>192.5</ele>
        <time>2019-12-08T09:45:53.000Z</time>
      </trkpt>
      <trkpt lat="43.60783" lon="6.7447">
        <ele>192.48</ele>
        <time>2019-12-08T09:45:54.000Z</time>
      </trkpt>
      <trkpt lat="43.60783" lon="6.74461">
        <ele>192.6</ele>
        <time>2019-12-08T09:45:55.000Z</time>
      </trkpt>
      <trkpt lat="43.60784" lon="6.74452">
        <ele>192.72</ele>
        <time>2019-12-08T09:45:56.000Z</time>
      </trkpt>
      <trkpt lat="43.60784" lon="6.74443">
        <ele>192.88</ele>
        <time>2019-12-08T09:45:57.000Z</time>
      </trkpt>
      <trkpt lat="43.60784" lon="6.74434">
        <ele>192.95</ele>
        <time>2019-12-08T09:45:58.000Z</time>
      </trkpt>
      <trkpt lat="43.60785" lon="6.74425">
        <ele>193.01</ele>
        <time>2019-12-08T09:45:59.000Z</time>
      </trkpt>
      <trkpt lat="43.60786" lon="6.74416">
        <ele>193.06</ele>
        <time>2019-12-08T09:46:00.000Z</time>
      </trkpt>
      <trkpt lat="43.60787" lon="6.74407">
        <ele>193.01</ele>
        <time>2019-12-08T09:46:01.000Z</time>
      </trkpt>
      <trkpt lat="43.60788" lon="6.74398">
        <ele>193.25</ele>
        <time>2019-12-08T09:46:02.000Z</time>
      </trkpt>
      <trkpt lat="43.60789" lon="6.74389">
        <ele>193.31</ele>
        <time>2019-12-08T09:46:03.000Z</time>
      </trkpt>
      <trkpt lat="43.6079" lon="6.7438">
        <ele>193.21</ele>
        <time>2019-12-08T09:46:04.000Z</time>
      </trkpt>
      <trkpt lat="43.60791" lon="6.74371">
        <ele>193.23</ele>
        <time>2019-12-08T09:46:05.000Z</time>
      </trkpt>
      <trkpt lat="43.60793" lon="6.74363">
        <ele>193.14</ele>
        <time>2019-12-08T09:46:06.000Z</time>
      </trkpt>
      <trkpt lat="43.60794" lon="6.74354">
        <ele>193.06</ele>
        <time>2019-12-08T09:46:07.000Z</time>
      </trkpt>
      <trkpt lat="43.60796" lon="6.74345">
        <ele>193.11</ele>
        <time>2019-12-08T09:46:08.000Z</time>
      </trkpt>
      <trkpt lat="43.60797" lon="6.74336">
        <ele>193.1</ele>
        <time>2019-12-08T09:46:09.000Z</time>
      </trkpt>
      <trkpt lat="43.60799" lon="6.74327">
        <ele>193.06</ele>
        <time>2019-12-08T09:46:10.000Z</time>
      </trkpt>
      <trkpt lat="43.608" lon="6.74319">
        <ele>193.03</ele>
        <time>2019-12-08T09:46:11.000Z</time>
      </trkpt>
      <trkpt lat="43.60801" lon="6.74311">
        <ele>193.1</ele>
        <time>2019-12-08T09:46:12.000Z</time>
      </trkpt>
      <trkpt lat="43.60803" lon="6.74304">
        <ele>193.07</ele>
        <time>2019-12-08T09:46:13.000Z</time>
      </trkpt>
      <trkpt lat="43.60804" lon="6.74299">
        <ele>193.06</ele>
        <time>2019-12-08T09:46:14.000Z</time>
      </trkpt>
      <trkpt lat="43.60805" lon="6.74296">
        <ele>192.99</ele>
        <time>2019-12-08T09:46:15.000Z</time>
      </trkpt>
      <trkpt lat="43.60807" lon="6.74293">
        <ele>192.84</ele>
        <time>2019-12-08T09:46:16.000Z</time>
      </trkpt>
      <trkpt lat="43.60808" lon="6.7429">
        <ele>192.76</ele>
        <time>2019-12-08T09:46:17.000Z</time>
      </trkpt>
      <trkpt lat="43.6081" lon="6.74288">
        <ele>192.77</ele>
        <time>2019-12-08T09:46:18.000Z</time>
      </trkpt>
      <trkpt lat="43.60813" lon="6.74286">
        <ele>192.94</ele>
        <time>2019-12-08T09:46:19.000Z</time>
      </trkpt>
      <trkpt lat="43.60816" lon="6.74284">
        <ele>193.17</ele>
        <time>2019-12-08T09:46:20.000Z</time>
      </trkpt>
      <trkpt lat="43.60819" lon="6.7428">
        <ele>193.29</ele>
        <time>2019-12-08T09:46:21.000Z</time>
      </trkpt>
      <trkpt lat="43.60821" lon="6.74275">
        <ele>193.43</ele>
        <time>2019-12-08T09:46:22.000Z</time>
      </trkpt>
      <trkpt lat="43.60823" lon="6.74269">
        <ele>193.41</ele>
        <time>2019-12-08T09:46:23.000Z</time>
      </trkpt>
      <trkpt lat="43.60824" lon="6.74263">
        <ele>193.43</ele>
        <time>2019-12-08T09:46:24.000Z</time>
      </trkpt>
      <trkpt lat="43.60824" lon="6.74256">
        <ele>193.48</ele>
        <time>2019-12-08T09:46:25.000Z</time>
      </trkpt>
      <trkpt lat="43.60823" lon="6.7425">
        <ele>193.65</ele>
        <time>2019-12-08T09:46:26.000Z</time>
      </trkpt>
      <trkpt lat="43.60821" lon="6.74243">
        <ele>193.84</ele>
        <time>2019-12-08T09:46:27.000Z</time>
      </trkpt>
      <trkpt lat="43.60818" lon="6.74238">
        <ele>193.96</ele>
        <time>2019-12-08T09:46:28.000Z</time>
      </trkpt>
      <trkpt lat="43.60815" lon="6.74232">
        <ele>194.02</ele>
        <time>2019-12-08T09:46:29.000Z</time>
      </trkpt>
      <trkpt lat="43.60813" lon="6.74225">
        <ele>194.07</ele>
        <time>2019-12-08T09:46:30.000Z</time>
      </trkpt>
      <trkpt lat="43.60812" lon="6.74217">
        <ele>194.14</ele>
        <time>2019-12-08T09:46:31.000Z</time>
      </trkpt>
      <trkpt lat="43.60812" lon="6.74209">
        <ele>194.18</ele>
        <time>2019-12-08T09:46:32.000Z</time>
      </trkpt>
      <trkpt lat="43.60812" lon="6.74202">
        <ele>194.21</ele>
        <time>2019-12-08T09:46:33.000Z</time>
      </trkpt>
      <trkpt lat="43.60813" lon="6.74194">
        <ele>194.37</ele>
        <time>2019-12-08T09:46:34.000Z</time>
      </trkpt>
      <trkpt lat="43.60813" lon="6.74186">
        <ele>194.39</ele>
        <time>2019-12-08T09:46:35.000Z</time>
      </trkpt>
      <trkpt lat="43.60814" lon="6.74179">
        <ele>194.47</ele>
        <time>2019-12-08T09:46:36.000Z</time>
      </trkpt>
      <trkpt lat="43.60815" lon="6.74171">
        <ele>194.54</ele>
        <time>2019-12-08T09:46:37.000Z</time>
      </trkpt>
      <trkpt lat="43.60817" lon="6.74164">
        <ele>194.6</ele>
        <time>2019-12-08T09:46:38.000Z</time>
      </trkpt>
      <trkpt lat="43.60818" lon="6.74156">
        <ele>194.7</ele>
        <time>2019-12-08T09:46:39.000Z</time>
      </trkpt>
      <trkpt lat="43.60819" lon="6.74149">
        <ele>194.87</ele>
        <time>2019-12-08T09:46:40.000Z</time>
      </trkpt>
      <trkpt lat="43.60821" lon="6.74142">
        <ele>195.02</ele>
        <time>2019-12-08T09:46:41.000Z</time>
      </trkpt>
      <trkpt lat="43.60823" lon="6.74135">
        <ele>195.07</ele>
        <time>2019-12-08T09:46:42.000Z</time>
      </trkpt>
      <trkpt lat="43.60824" lon="6.74127">
        <ele>195.19</ele>
        <time>2019-12-08T09:46:43.000Z</time>
      </trkpt>
      <trkpt lat="43.60826" lon="6.7412">
        <ele>195.38</ele>
        <time>2019-12-08T09:46:44.000Z</time>
      </trkpt>
      <trkpt lat="43.60828" lon="6.74113">
        <ele>195.5</ele>
        <time>2019-12-08T09:46:45.000Z</time>
      </trkpt>
      <trkpt lat="43.6083" lon="6.74106">
        <ele>195.6</ele>
        <time>2019-12-08T09:46:46.000Z</time>
      </trkpt>
      <trkpt lat="43.60832" lon="6.74099">
        <ele>195.76</ele>
        <time>2019-12-08T09:46:47.000Z</time>
      </trkpt>
      <trkpt lat="43.60833" lon="6.74092">
        <ele>195.95</ele>
        <time>2019-12-08T09:46:48.000Z</time>
      </trkpt>
      <trkpt lat="43.60835" lon="6.74084">
        <ele>196.04</ele>
        <time>2019-12-08T09:46:49.000Z</time>
      </trkpt>
      <trkpt lat="43.60837" lon="6.74077">
        <ele>196.07</ele>
        <time>2019-12-08T09:46:50.000Z</time>
      </trkpt>
      <trkpt lat="43.60839" lon="6.7407">
        <ele>196.18</ele>
        <time>2019-12-08T09:46:51.000Z</time>
      </trkpt>
      <trkpt lat="43.60841" lon="6.74063">
        <ele>196.27</ele>
        <time>2019-12-08T09:46:52.000Z</time>
      </trkpt>
      <trkpt lat="43.60843" lon="6.74056">
        <ele>196.44</ele>
        <time>2019-12-08T09:46:53.000Z</time>
      </trkpt>
      <trkpt lat="43.60845" lon="6.74048">
        <ele>196.52</ele>
        <time>2019-12-08T09:46:54.000Z</time>
      </trkpt>
      <trkpt lat="43.60847" lon="6.74041">
        <ele>196.71</ele>
        <time>2019-12-08T09:46:55.000Z</time>
      </trkpt>
      <trkpt lat="43.60848" lon="6.74033">
        <ele>196.88</ele>
        <time>2019-12-08T09:46:56.000Z</time>
      </trkpt>
      <trkpt lat="43.6085" lon="6.74026">
        <ele>197.04</ele>
        <time>2019-12-08T09:46:57.000Z</time>
      </trkpt>
      <trkpt lat="43.60852" lon="6.74019">
        <ele>197.15</ele>
        <time>2019-12-08T09:46:58.000Z</time>
      </trkpt>
      <trkpt lat="43.60854" lon="6.74011">
        <ele>197.26</ele>
        <time>2019-12-08T09:46:59.000Z</time>
      </trkpt>
      <trkpt lat="43.60855" lon="6.74004">
        <ele>197.43</ele>
        <time>2019-12-08T09:47:00.000Z</time>
      </trkpt>
      <trkpt lat="43.60857" lon="6.73997">
        <ele>197.56</ele>
        <time>2019-12-08T09:47:01.000Z</time>
      </trkpt>
      <trkpt lat="43.60859" lon="6.73989">
        <ele>197.65</ele>
        <time>2019-12-08T09:47:02.000Z</time>
      </trkpt>
      <trkpt lat="43.60861" lon="6.73982">
        <ele>197.78</ele>
        <time>2019-12-08T09:47:03.000Z</time>
      </trkpt>
      <trkpt lat="43.60862" lon="6.73975">
        <ele>197.95</ele>
        <time>2019-12-08T09:47:04.000Z</time>
      </trkpt>
      <trkpt lat="43.60864" lon="6.73968">
        <ele>198.15</ele>
        <time>2019-12-08T09:47:05.000Z</time>
      </trkpt>
      <trkpt lat="43.60866" lon="6.7396">
        <ele>198.37</ele>
        <time>2019-12-08T09:47:06.000Z</time>
      </trkpt>
      <trkpt lat="43.60867" lon="6.73953">
        <ele>198.47</ele>
        <time>2019-12-08T09:47:07.000Z</time>
      </trkpt>
      <trkpt lat="43.60869" lon="6.73946">
        <ele>198.62</ele>
        <time>2019-12-08T09:47:08.000Z</time>
      </trkpt>
      <trkpt lat="43.60871" lon="6.73939">
        <ele>198.75</ele>
        <time>2019-12-08T09:47:09.000Z</time>
      </trkpt>
      <trkpt lat="43.60872" lon="6.73932">
        <ele>198.88</ele>
        <time>2019-12-08T09:47:10.000Z</time>
      </trkpt>
      <trkpt lat="43.60874" lon="6.73925">
        <ele>198.96</ele>
        <time>2019-12-08T09:47:11.000Z</time>
      </trkpt>
      <trkpt lat="43.60876" lon="6.73918">
        <ele>199.15</ele>
        <time>2019-12-08T09:47:12.000Z</time>
      </trkpt>
      <trkpt lat="43.60877" lon="6.73911">
        <ele>199.32</ele>
        <time>2019-12-08T09:47:13.000Z</time>
      </trkpt>
      <trkpt lat="43.60879" lon="6.73904">
        <ele>199.39</ele>
        <time>2019-12-08T09:47:14.000Z</time>
      </trkpt>
      <trkpt lat="43.60881" lon="6.73897">
        <ele>199.53</ele>
        <time>2019-12-08T09:47:15.000Z</time>
      </trkpt>
      <trkpt lat="43.60882" lon="6.73889">
        <ele>199.66</ele>
        <time>2019-12-08T09:47:16.000Z</time>
      </trkpt>
      <trkpt lat="43.60884" lon="6.73882">
        <ele>199.8</ele>
        <time>2019-12-08T09:47:17.000Z</time>
      </trkpt>
      <trkpt lat="43.60886" lon="6.73875">
        <ele>199.93</ele>
        <time>2019-12-08T09:47:18.000Z</time>
      </trkpt>
      <trkpt lat="43.60887" lon="6.73868">
        <ele>200.04</ele>
        <time>2019-12-08T09:47:19.000Z</time>
      </trkpt>
      <trkpt lat="43.60889" lon="6.73861">
        <ele>200.16</ele>
        <time>2019-12-08T09:47:20.000Z</time>
      </trkpt>
      <trkpt lat="43.60891" lon="6.73853">
        <ele>200.23</ele>
        <time>2019-12-08T09:47:21.000Z</time>
      </trkpt>
      <trkpt lat="43.60893" lon="6.73846">
        <ele>200.41</ele>
        <time>2019-12-08T09:47:22.000Z</time>
      </trkpt>
      <trkpt lat="43.60894" lon="6.73839">
        <ele>200.49</ele>
        <time>2019-12-08T09:47:23.000Z</time>
      </trkpt>
      <trkpt lat="43.60896" lon="6.73831">
        <ele>200.62</ele>
        <time>2019-12-08T09:47:24.000Z</time>
      </trkpt>
      <trkpt lat="43.60898" lon="6.73824">
        <ele>200.84</ele>
        <time>2019-12-08T09:47:25.000Z</time>
      </trkpt>
      <trkpt lat="43.609" lon="6.73817">
        <ele>201.06</ele>
        <time>2019-12-08T09:47:26.000Z</time>
      </trkpt>
      <trkpt lat="43.60901" lon="6.73809">
        <ele>201.13</ele>
        <time>2019-12-08T09:47:27.000Z</time>
      </trkpt>
      <trkpt lat="43.60903" lon="6.73802">
        <ele>201.33</ele>
        <time>2019-12-08T09:47:28.000Z</time>
      </trkpt>
      <trkpt lat="43.60905" lon="6.73795">
        <ele>201.42</ele>
        <time>2019-12-08T09:47:29.000Z</time>
      </trkpt>
      <trkpt lat="43.60906" lon="6.73787">
        <ele>201.51</ele>
        <time>2019-12-08T09:47:30.000Z</time>
      </trkpt>
      <trkpt lat="43.60908" lon="6.7378">
        <ele>201.58</ele>
        <time>2019-12-08T09:47:31.000Z</time>
      </trkpt>
      <trkpt lat="43.6091" lon="6.73773">
        <ele>201.68</ele>
        <time>2019-12-08T09:47:32.000Z</time>
      </trkpt>
      <trkpt lat="43.60911" lon="6.73765">
        <ele>201.69</ele>
        <time>2019-12-08T09:47:33.000Z</time>
      </trkpt>
      <trkpt lat="43.60913" lon="6.73758">
        <ele>201.86</ele>
        <time>2019-12-08T09:47:34.000Z</time>
      </trkpt>
      <trkpt lat="43.60915" lon="6.73751">
        <ele>201.95</ele>
        <time>2019-12-08T09:47:35.000Z</time>
      </trkpt>
      <trkpt lat="43.60916" lon="6.73743">
        <ele>202.05</ele>
        <time>2019-12-08T09:47:36.000Z</time>
      </trkpt>
      <trkpt lat="43.60918" lon="6.73736">
        <ele>202.2</ele>
        <time>2019-12-08T09:47:37.000Z</time>
      </trkpt>
      <trkpt lat="43.6092" lon="6.73729">
        <ele>202.35</ele>
        <time>2019-12-08T09:47:38.000Z</time>
      </trkpt>
      <trkpt lat="43.60922" lon="6.73722">
        <ele>202.46</ele>
        <time>2019-12-08T09:47:39.000Z</time>
      </trkpt>
      <trkpt lat="43.60924" lon="6.73714">
        <ele>202.46</ele>
        <time>2019-12-08T09:47:40.000Z</time>
      </trkpt>
      <trkpt lat="43.60925" lon="6.73707">
        <ele>202.63</ele>
        <time>2019-12-08T09:47:41.000Z</time>
      </trkpt>
      <trkpt lat="43.60927" lon="6.737">
        <ele>202.71</ele>
        <time>2019-12-08T09:47:42.000Z</time>
      </trkpt>
      <trkpt lat="43.60929" lon="6.73693">
        <ele>202.82</ele>
        <time>2019-12-08T09:47:43.000Z</time>
      </trkpt>
      <trkpt lat="43.6093" lon="6.73686">
        <ele>203.03</ele>
        <time>2019-12-08T09:47:44.000Z</time>
      </trkpt>
      <trkpt lat="43.60932" lon="6.73679">
        <ele>203.25</ele>
        <time>2019-12-08T09:47:45.000Z</time>
      </trkpt>
      <trkpt lat="43.60934" lon="6.73671">
        <ele>203.4</ele>
        <time>2019-12-08T09:47:46.000Z</time>
      </trkpt>
      <trkpt lat="43.60935" lon="6.73664">
        <ele>203.5</ele>
        <time>2019-12-08T09:47:47.000Z</time>
      </trkpt>
      <trkpt lat="43.60937" lon="6.73657">
        <ele>203.55</ele>
        <time>2019-12-08T09:47:48.000Z</time>
      </trkpt>
      <trkpt lat="43.60939" lon="6.7365">
        <ele>203.65</ele>
        <time>2019-12-08T09:47:49.000Z</time>
      </trkpt>
      <trkpt lat="43.6094" lon="6.73643">
        <ele>203.73</ele>
        <time>2019-12-08T09:47:50.000Z</time>
      </trkpt>
      <trkpt lat="43.60942" lon="6.73635">
        <ele>203.81</ele>
        <time>2019-12-08T09:47:51.000Z</time>
      </trkpt>
      <trkpt lat="43.60944" lon="6.73628">
        <ele>203.96</ele>
        <time>2019-12-08T09:47:52.000Z</time>
      </trkpt>
      <trkpt lat="43.60945" lon="6.73621">
        <ele>204.16</ele>
        <time>2019-12-08T09:47:53.000Z</time>
      </trkpt>
      <trkpt lat="43.60947" lon="6.73614">
        <ele>204.24</ele>
        <time>2019-12-08T09:47:54.000Z</time>
      </trkpt>
      <trkpt lat="43.60949" lon="6.73607">
        <ele>204.41</ele>
        <time>2019-12-08T09:47:55.000Z</time>
      </trkpt>
      <trkpt lat="43.60951" lon="6.73599">
        <ele>204.48</ele>
        <time>2019-12-08T09:47:56.000Z</time>
      </trkpt>
      <trkpt lat="43.60952" lon="6.73592">
        <ele>204.61</ele>
        <time>2019-12-08T09:47:57.000Z</time>
      </trkpt>
      <trkpt lat="43.60954" lon="6.73585">
        <ele>204.69</ele>
        <time>2019-12-08T09:47:58.000Z</time>
      </trkpt>
      <trkpt lat="43.60956" lon="6.73577">
        <ele>205.01</ele>
        <time>2019-12-08T09:47:59.000Z</time>
      </trkpt>
      <trkpt lat="43.60957" lon="6.7357">
        <ele>205.08</ele>
        <time>2019-12-08T09:48:00.000Z</time>
      </trkpt>
      <trkpt lat="43.60959" lon="6.73563">
        <ele>205.25</ele>
        <time>2019-12-08T09:48:01.000Z</time>
      </trkpt>
      <trkpt lat="43.60961" lon="6.73556">
        <ele>205.46</ele>
        <time>2019-12-08T09:48:02.000Z</time>
      </trkpt>
      <trkpt lat="43.60963" lon="6.73549">
        <ele>205.64</ele>
        <time>2019-12-08T09:48:03.000Z</time>
      </trkpt>
      <trkpt lat="43.60964" lon="6.73542">
        <ele>205.73</ele>
        <time>2019-12-08T09:48:04.000Z</time>
      </trkpt>
      <trkpt lat="43.60966" lon="6.73535">
        <ele>205.96</ele>
        <time>2019-12-08T09:48:05.000Z</time>
      </trkpt>
      <trkpt lat="43.60967" lon="6.73528">
        <ele>206.17</ele>
        <time>2019-12-08T09:48:06.000Z</time>
      </trkpt>
      <trkpt lat="43.60969" lon="6.73521">
        <ele>206.44</ele>
        <time>2019-12-08T09:48:07.000Z</time>
      </trkpt>
      <trkpt lat="43.60971" lon="6.73514">
        <ele>206.64</ele>
        <time>2019-12-08T09:48:08.000Z</time>
      </trkpt>
      <trkpt lat="43.60972" lon="6.73507">
        <ele>206.94</ele>
        <time>2019-12-08T09:48:09.000Z</time>
      </trkpt>
      <trkpt lat="43.60974" lon="6.73501">
        <ele>207.21</ele>
        <time>2019-12-08T09:48:10.000Z</time>
      </trkpt>
      <trkpt lat="43.60975" lon="6.73494">
        <ele>207.44</ele>
        <time>2019-12-08T09:48:11.000Z</time>
      </trkpt>
      <trkpt lat="43.60977" lon="6.73489">
        <ele>207.67</ele>
        <time>2019-12-08T09:48:12.000Z</time>
      </trkpt>
      <trkpt lat="43.60978" lon="6.73483">
        <ele>207.85</ele>
        <time>2019-12-08T09:48:13.000Z</time>
      </trkpt>
      <trkpt lat="43.60979" lon="6.73477">
        <ele>208.2</ele>
        <time>2019-12-08T09:48:14.000Z</time>
      </trkpt>
      <trkpt lat="43.60981" lon="6.73472">
        <ele>208.65</ele>
        <time>2019-12-08T09:48:15.000Z</time>
      </trkpt>
      <trkpt lat="43.60982" lon="6.73467">
        <ele>209.06</ele>
        <time>2019-12-08T09:48:16.000Z</time>
      </trkpt>
      <trkpt lat="43.60983" lon="6.73462">
        <ele>209.26</ele>
        <time>2019-12-08T09:48:17.000Z</time>
      </trkpt>
      <trkpt lat="43.60984" lon="6.73457">
        <ele>209.55</ele>
        <time>2019-12-08T09:48:18.000Z</time>
      </trkpt>
      <trkpt lat="43.60985" lon="6.73452">
        <ele>209.88</ele>
        <time>2019-12-08T09:48:19.000Z</time>
      </trkpt>
      <trkpt lat="43.60987" lon="6.73447">
        <ele>210.08</ele>
        <time>2019-12-08T09:48:20.000Z</time>
      </trkpt>
      <trkpt lat="43.60988" lon="6.73442">
        <ele>210.45</ele>
        <time>2019-12-08T09:48:21.000Z</time>
      </trkpt>
      <trkpt lat="43.60989" lon="6.73437">
        <ele>210.73</ele>
        <time>2019-12-08T09:48:22.000Z</time>
      </trkpt>
      <trkpt lat="43.6099" lon="6.73432">
        <ele>211.04</ele>
        <time>2019-12-08T09:48:23.000Z</time>
      </trkpt>
      <trkpt lat="43.60991" lon="6.73426">
        <ele>211.29</ele>
        <time>2019-12-08T09:48:24.000Z</time>
      </trkpt>
      <trkpt lat="43.60992" lon="6.73421">
        <ele>211.4</ele>
        <time>2019-12-08T09:48:25.000Z</time>
      </trkpt>
      <trkpt lat="43.60993" lon="6.73416">
        <ele>211.69</ele>
        <time>2019-12-08T09:48:26.000Z</time>
      </trkpt>
      <trkpt lat="43.60995" lon="6.73411">
        <ele>211.97</ele>
        <time>2019-12-08T09:48:27.000Z</time>
      </trkpt>
      <trkpt lat="43.60996" lon="6.73406">
        <ele>212.21</ele>
        <time>2019-12-08T09:48:28.000Z</time>
      </trkpt>
      <trkpt lat="43.60997" lon="6.73401">
        <ele>212.33</ele>
        <time>2019-12-08T09:48:29.000Z</time>
      </trkpt>
      <trkpt lat="43.60998" lon="6.73396">
        <ele>212.54</ele>
        <time>2019-12-08T09:48:30.000Z</time>
      </trkpt>
      <trkpt lat="43.61" lon="6.73391">
        <ele>212.77</ele>
        <time>2019-12-08T09:48:31.000Z</time>
      </trkpt>
      <trkpt lat="43.61001" lon="6.73386">
        <ele>213.01</ele>
        <time>2019-12-08T09:48:32.000Z</time>
      </trkpt>
      <trkpt lat="43.61002" lon="6.73381">
        <ele>213.13</ele>
        <time>2019-12-08T09:48:33.000Z</time>
      </trkpt>
      <trkpt lat="43.61003" lon="6.73375">
        <ele>213.31</ele>
        <time>2019-12-08T09:48:34.000Z</time>
      </trkpt>
      <trkpt lat="43.61004" lon="6.7337">
        <ele>213.48</ele>
        <time>2019-12-08T09:48:35.000Z</time>
      </trkpt>
      <trkpt lat="43.61005" lon="6.73365">
        <ele>213.65</ele>
        <time>2019-12-08T09:48:36.000Z</time>
      </trkpt>
      <trkpt lat="43.61006" lon="6.7336">
        <ele>213.71</ele>
        <time>2019-12-08T09:48:37.000Z</time>
      </trkpt>
      <trkpt lat="43.61007" lon="6.73354">
        <ele>213.88</ele>
        <time>2019-12-08T09:48:38.000Z</time>
      </trkpt>
      <trkpt lat="43.61009" lon="6.73348">
        <ele>213.98</ele>
        <time>2019-12-08T09:48:39.000Z</time>
      </trkpt>
      <trkpt lat="43.6101" lon="6.73342">
        <ele>214.06</ele>
        <time>2019-12-08T09:48:40.000Z</time>
      </trkpt>
      <trkpt lat="43.61011" lon="6.73336">
        <ele>214.06</ele>
        <time>2019-12-08T09:48:41.000Z</time>
      </trkpt>
      <trkpt lat="43.61013" lon="6.7333">
        <ele>214.09</ele>
        <time>2019-12-08T09:48:42.000Z</time>
      </trkpt>
      <trkpt lat="43.61014" lon="6.73324">
        <ele>214.15</ele>
        <time>2019-12-08T09:48:43.000Z</time>
      </trkpt>
      <trkpt lat="43.61015" lon="6.73318">
        <ele>214.18</ele>
        <time>2019-12-08T09:48:44.000Z</time>
      </trkpt>
      <trkpt lat="43.61016" lon="6.73312">
        <ele>214.27</ele>
        <time>2019-12-08T09:48:45.000Z</time>
      </trkpt>
      <trkpt lat="43.61018" lon="6.73306">
        <ele>214.32</ele>
        <time>2019-12-08T09:48:46.000Z</time>
      </trkpt>
      <trkpt lat="43.61019" lon="6.73299">
        <ele>214.38</ele>
        <time>2019-12-08T09:48:47.000Z</time>
      </trkpt>
      <trkpt lat="43.61021" lon="6.73293">
        <ele>214.52</ele>
        <time>2019-12-08T09:48:48.000Z</time>
      </trkpt>
      <trkpt lat="43.61022" lon="6.73286">
        <ele>214.58</ele>
        <time>2019-12-08T09:48:49.000Z</time>
      </trkpt>
      <trkpt lat="43.61023" lon="6.7328">
        <ele>214.62</ele>
        <time>2019-12-08T09:48:50.000Z</time>
      </trkpt>
      <trkpt lat="43.61024" lon="6.73273">
        <ele>214.74</ele>
        <time>2019-12-08T09:48:51.000Z</time>
      </trkpt>
      <trkpt lat="43.61026" lon="6.73266">
        <ele>214.83</ele>
        <time>2019-12-08T09:48:52.000Z</time>
      </trkpt>
      <trkpt lat="43.61027" lon="6.7326">
        <ele>214.93</ele>
        <time>2019-12-08T09:48:53.000Z</time>
      </trkpt>
      <trkpt lat="43.61028" lon="6.73253">
        <ele>215.05</ele>
        <time>2019-12-08T09:48:54.000Z</time>
      </trkpt>
      <trkpt lat="43.61028" lon="6.73247">
        <ele>215.16</ele>
        <time>2019-12-08T09:48:55.000Z</time>
      </trkpt>
      <trkpt lat="43.61029" lon="6.73241">
        <ele>215.23</ele>
        <time>2019-12-08T09:48:56.000Z</time>
      </trkpt>
      <trkpt lat="43.61031" lon="6.73235">
        <ele>215.36</ele>
        <time>2019-12-08T09:48:57.000Z</time>
      </trkpt>
      <trkpt lat="43.61034" lon="6.7323">
        <ele>215.41</ele>
        <time>2019-12-08T09:48:58.000Z</time>
      </trkpt>
      <trkpt lat="43.61037" lon="6.73225">
        <ele>215.52</ele>
        <time>2019-12-08T09:48:59.000Z</time>
      </trkpt>
      <trkpt lat="43.61041" lon="6.73221">
        <ele>215.82</ele>
        <time>2019-12-08T09:49:00.000Z</time>
      </trkpt>
      <trkpt lat="43.61045" lon="6.73217">
        <ele>216.08</ele>
        <time>2019-12-08T09:49:01.000Z</time>
      </trkpt>
      <trkpt lat="43.61048" lon="6.73212">
        <ele>216.17</ele>
        <time>2019-12-08T09:49:02.000Z</time>
      </trkpt>
      <trkpt lat="43.61051" lon="6.73206">
        <ele>216.31</ele>
        <time>2019-12-08T09:49:03.000Z</time>
      </trkpt>
      <trkpt lat="43.61052" lon="6.732">
        <ele>216.39</ele>
        <time>2019-12-08T09:49:04.000Z</time>
      </trkpt>
      <trkpt lat="43.61053" lon="6.73193">
        <ele>216.33</ele>
        <time>2019-12-08T09:49:05.000Z</time>
      </trkpt>
      <trkpt lat="43.61054" lon="6.73185">
        <ele>216.28</ele>
        <time>2019-12-08T09:49:06.000Z</time>
      </trkpt>
      <trkpt lat="43.61056" lon="6.73178">
        <ele>216.21</ele>
        <time>2019-12-08T09:49:07.000Z</time>
      </trkpt>
      <trkpt lat="43.61058" lon="6.73171">
        <ele>216.19</ele>
        <time>2019-12-08T09:49:08.000Z</time>
      </trkpt>
      <trkpt lat="43.61061" lon="6.73164">
        <ele>216.1</ele>
        <time>2019-12-08T09:49:09.000Z</time>
      </trkpt>
      <trkpt lat="43.61063" lon="6.73157">
        <ele>216.08</ele>
        <time>2019-12-08T09:49:10.000Z</time>
      </trkpt>
      <trkpt lat="43.61065" lon="6.73149">
        <ele>216.13</ele>
        <time>2019-12-08T09:49:11.000Z</time>
      </trkpt>
      <trkpt lat="43.61065" lon="6.73142">
        <ele>216.25</ele>
        <time>2019-12-08T09:49:12.000Z</time>
      </trkpt>
      <trkpt lat="43.61064" lon="6.73135">
        <ele>216.42</ele>
        <time>2019-12-08T09:49:13.000Z</time>
      </trkpt>
      <trkpt lat="43.61063" lon="6.73128">
        <ele>216.5</ele>
        <time>2019-12-08T09:49:14.000Z</time>
      </trkpt>
      <trkpt lat="43.61061" lon="6.73121">
        <ele>216.68</ele>
        <time>2019-12-08T09:49:15.000Z</time>
      </trkpt>
      <trkpt lat="43.6106" lon="6.73115">
        <ele>216.77</ele>
        <time>2019-12-08T09:49:16.000Z</time>
      </trkpt>
      <trkpt lat="43.6106" lon="6.73111">
        <ele>216.79</ele>
        <time>2019-12-08T09:49:17.000Z</time>
      </trkpt>
      <trkpt lat="43.61059" lon="6.73109">
        <ele>216.8</ele>
        <time>2019-12-08T09:49:18.000Z</time>
      </trkpt>
      <trkpt lat="43.61059" lon="6.73108">
        <ele>216.8</ele>
        <time>2019-12-08T09:49:19.000Z</time>
      </trkpt>
      <trkpt lat="43.61059" lon="6.73108">
        <ele>216.81</ele>
        <time>2019-12-08T09:49:20.000Z</time>
      </trkpt>
      <trkpt lat="43.61056" lon="6.73105">
        <ele>216.7</ele>
        <time>2019-12-08T09:51:00.000Z</time>
      </trkpt>
      <trkpt lat="43.61055" lon="6.73102">
        <ele>216.69</ele>
        <time>2019-12-08T09:51:01.000Z</time>
      </trkpt>
      <trkpt lat="43.61054" lon="6.73098">
        <ele>216.68</ele>
        <time>2019-12-08T09:51:02.000Z</time>
      </trkpt>
      <trkpt lat="43.61052" lon="6.73093">
        <ele>216.68</ele>
        <time>2019-12-08T09:51:03.000Z</time>
      </trkpt>
      <trkpt lat="43.6105" lon="6.73087">
        <ele>216.73</ele>
        <time>2019-12-08T09:51:04.000Z</time>
      </trkpt>
      <trkpt lat="43.61049" lon="6.7308">
        <ele>216.73</ele>
        <time>2019-12-08T09:51:05.000Z</time>
      </trkpt>
      <trkpt lat="43.61047" lon="6.73073">
        <ele>216.75</ele>
        <time>2019-12-08T09:51:06.000Z</time>
      </trkpt>
      <trkpt lat="43.61046" lon="6.73066">
        <ele>216.75</ele>
        <time>2019-12-08T09:51:07.000Z</time>
      </trkpt>
      <trkpt lat="43.61045" lon="6.73058">
        <ele>216.76</ele>
        <time>2019-12-08T09:51:08.000Z</time>
      </trkpt>
      <trkpt lat="43.61045" lon="6.73051">
        <ele>216.84</ele>
        <time>2019-12-08T09:51:09.000Z</time>
      </trkpt>
      <trkpt lat="43.61044" lon="6.73043">
        <ele>216.89</ele>
        <time>2019-12-08T09:51:10.000Z</time>
      </trkpt>
      <trkpt lat="43.61044" lon="6.73035">
        <ele>217.04</ele>
        <time>2019-12-08T09:51:11.000Z</time>
      </trkpt>
      <trkpt lat="43.61044" lon="6.73027">
        <ele>217.26</ele>
        <time>2019-12-08T09:51:12.000Z</time>
      </trkpt>
      <trkpt lat="43.61044" lon="6.7302">
        <ele>217.5</ele>
        <time>2019-12-08T09:51:13.000Z</time>
      </trkpt>
      <trkpt lat="43.61044" lon="6.73013">
        <ele>217.6</ele>
        <time>2019-12-08T09:51:14.000Z</time>
      </trkpt>
      <trkpt lat="43.61045" lon="6.73005">
        <ele>217.84</ele>
        <time>2019-12-08T09:51:15.000Z</time>
      </trkpt>
      <trkpt lat="43.61045" lon="6.72998">
        <ele>218.07</ele>
        <time>2019-12-08T09:51:16.000Z</time>
      </trkpt>
      <trkpt lat="43.61046" lon="6.72991">
        <ele>218.27</ele>
        <time>2019-12-08T09:51:17.000Z</time>
      </trkpt>
      <trkpt lat="43.61047" lon="6.72984">
        <ele>218.36</ele>
        <time>2019-12-08T09:51:18.000Z</time>
      </trkpt>
      <trkpt lat="43.61047" lon="6.72976">
        <ele>218.62</ele>
        <time>2019-12-08T09:51:19.000Z</time>
      </trkpt>
      <trkpt lat="43.61048" lon="6.72969">
        <ele>218.93</ele>
        <time>2019-12-08T09:51:20.000Z</time>
      </trkpt>
      <trkpt lat="43.61049" lon="6.72962">
        <ele>219.26</ele>
        <time>2019-12-08T09:51:21.000Z</time>
      </trkpt>
      <trkpt lat="43.6105" lon="6.72955">
        <ele>219.46</ele>
        <time>2019-12-08T09:51:22.000Z</time>
      </trkpt>
      <trkpt lat="43.6105" lon="6.72948">
        <ele>219.8</ele>
        <time>2019-12-08T09:51:23.000Z</time>
      </trkpt>
      <trkpt lat="43.61051" lon="6.72941">
        <ele>220.11</ele>
        <time>2019-12-08T09:51:24.000Z</time>
      </trkpt>
      <trkpt lat="43.61052" lon="6.72934">
        <ele>220.43</ele>
        <time>2019-12-08T09:51:25.000Z</time>
      </trkpt>
      <trkpt lat="43.61053" lon="6.72927">
        <ele>220.52</ele>
        <time>2019-12-08T09:51:26.000Z</time>
      </trkpt>
      <trkpt lat="43.61053" lon="6.7292">
        <ele>220.72</ele>
        <time>2019-12-08T09:51:27.000Z</time>
      </trkpt>
      <trkpt lat="43.61054" lon="6.72913">
        <ele>220.94</ele>
        <time>2019-12-08T09:51:28.000Z</time>
      </trkpt>
      <trkpt lat="43.61055" lon="6.72906">
        <ele>221.04</ele>
        <time>2019-12-08T09:51:29.000Z</time>
      </trkpt>
      <trkpt lat="43.61056" lon="6.72899">
        <ele>221.22</ele>
        <time>2019-12-08T09:51:30.000Z</time>
      </trkpt>
      <trkpt lat="43.61056" lon="6.72892">
        <ele>221.33</ele>
        <time>2019-12-08T09:51:31.000Z</time>
      </trkpt>
      <trkpt lat="43.61057" lon="6.72884">
        <ele>221.53</ele>
        <time>2019-12-08T09:51:32.000Z</time>
      </trkpt>
      <trkpt lat="43.61058" lon="6.72877">
        <ele>221.77</ele>
        <time>2019-12-08T09:51:33.000Z</time>
      </trkpt>
      <trkpt lat="43.61058" lon="6.7287">
        <ele>221.9</ele>
        <time>2019-12-08T09:51:34.000Z</time>
      </trkpt>
      <trkpt lat="43.61059" lon="6.72862">
        <ele>222.14</ele>
        <time>2019-12-08T09:51:35.000Z</time>
      </trkpt>
      <trkpt lat="43.6106" lon="6.72855">
        <ele>222.32</ele>
        <time>2019-12-08T09:51:36.000Z</time>
      </trkpt>
      <trkpt lat="43.61061" lon="6.72848">
        <ele>222.49</ele>
        <time>2019-12-08T09:51:37.000Z</time>
      </trkpt>
      <trkpt lat="43.61061" lon="6.7284">
        <ele>222.64</ele>
        <time>2019-12-08T09:51:38.000Z</time>
      </trkpt>
      <trkpt lat="43.61062" lon="6.72832">
        <ele>222.71</ele>
        <time>2019-12-08T09:51:39.000Z</time>
      </trkpt>
      <trkpt lat="43.61063" lon="6.72825">
        <ele>222.83</ele>
        <time>2019-12-08T09:51:40.000Z</time>
      </trkpt>
      <trkpt lat="43.61064" lon="6.72817">
        <ele>222.95</ele>
        <time>2019-12-08T09:51:41.000Z</time>
      </trkpt>
      <trkpt lat="43.61064" lon="6.7281">
        <ele>223.08</ele>
        <time>2019-12-08T09:51:42.000Z</time>
      </trkpt>
      <trkpt lat="43.61065" lon="6.72802">
        <ele>223.13</ele>
        <time>2019-12-08T09:51:43.000Z</time>
      </trkpt>
      <trkpt lat="43.61066" lon="6.72794">
        <ele>223.28</ele>
        <time>2019-12-08T09:51:44.000Z</time>
      </trkpt>
      <trkpt lat="43.61067" lon="6.72786">
        <ele>223.4</ele>
        <time>2019-12-08T09:51:45.000Z</time>
      </trkpt>
      <trkpt lat="43.61068" lon="6.72779">
        <ele>223.49</ele>
        <time>2019-12-08T09:51:46.000Z</time>
      </trkpt>
      <trkpt lat="43.61069" lon="6.72771">
        <ele>223.53</ele>
        <time>2019-12-08T09:51:47.000Z</time>
      </trkpt>
      <trkpt lat="43.6107" lon="6.72763">
        <ele>223.59</ele>
        <time>2019-12-08T09:51:48.000Z</time>
      </trkpt>
      <trkpt lat="43.61071" lon="6.72755">
        <ele>223.64</ele>
        <time>2019-12-08T09:51:49.000Z</time>
      </trkpt>
      <trkpt lat="43.61072" lon="6.72747">
        <ele>223.72</ele>
        <time>2019-12-08T09:51:50.000Z</time>
      </trkpt>
      <trkpt lat="43.61073" lon="6.72739">
        <ele>223.76</ele>
        <time>2019-12-08T09:51:51.000Z</time>
      </trkpt>
      <trkpt lat="43.61074" lon="6.7273">
        <ele>223.85</ele>
        <time>2019-12-08T09:51:52.000Z</time>
      </trkpt>
      <trkpt lat="43.61076" lon="6.72722">
        <ele>223.92</ele>
        <time>2019-12-08T09:51:53.000Z</time>
      </trkpt>
      <trkpt lat="43.61078" lon="6.72714">
        <ele>223.92</ele>
        <time>2019-12-08T09:51:54.000Z</time>
      </trkpt>
      <trkpt lat="43.6108" lon="6.72706">
        <ele>223.94</ele>
        <time>2019-12-08T09:51:55.000Z</time>
      </trkpt>
      <trkpt lat="43.61082" lon="6.72698">
        <ele>223.99</ele>
        <time>2019-12-08T09:51:56.000Z</time>
      </trkpt>
      <trkpt lat="43.61085" lon="6.7269">
        <ele>224.09</ele>
        <time>2019-12-08T09:51:57.000Z</time>
      </trkpt>
      <trkpt lat="43.61088" lon="6.72682">
        <ele>224.05</ele>
        <time>2019-12-08T09:51:58.000Z</time>
      </trkpt>
      <trkpt lat="43.61091" lon="6.72674">
        <ele>223.99</ele>
        <time>2019-12-08T09:51:59.000Z</time>
      </trkpt>
      <trkpt lat="43.61095" lon="6.72667">
        <ele>224</ele>
        <time>2019-12-08T09:52:00.000Z</time>
      </trkpt>
      <trkpt lat="43.61099" lon="6.72659">
        <ele>223.9</ele>
        <time>2019-12-08T09:52:01.000Z</time>
      </trkpt>
      <trkpt lat="43.61102" lon="6.72652">
        <ele>223.87</ele>
        <time>2019-12-08T09:52:02.000Z</time>
      </trkpt>
      <trkpt lat="43.61106" lon="6.72644">
        <ele>223.87</ele>
        <time>2019-12-08T09:52:03.000Z</time>
      </trkpt>
      <trkpt lat="43.6111" lon="6.72637">
        <ele>223.87</ele>
        <time>2019-12-08T09:52:04.000Z</time>
      </trkpt>
      <trkpt lat="43.61114" lon="6.7263">
        <ele>223.89</ele>
        <time>2019-12-08T09:52:05.000Z</time>
      </trkpt>
      <trkpt lat="43.61119" lon="6.72623">
        <ele>223.81</ele>
        <time>2019-12-08T09:52:06.000Z</time>
      </trkpt>
      <trkpt lat="43.61123" lon="6.72615">
        <ele>223.77</ele>
        <time>2019-12-08T09:52:07.000Z</time>
      </trkpt>
      <trkpt lat="43.61128" lon="6.72608">
        <ele>223.7</ele>
        <time>2019-12-08T09:52:08.000Z</time>
      </trkpt>
      <trkpt lat="43.61132" lon="6.726">
        <ele>223.67</ele>
        <time>2019-12-08T09:52:09.000Z</time>
      </trkpt>
      <trkpt lat="43.61136" lon="6.72593">
        <ele>223.59</ele>
        <time>2019-12-08T09:52:10.000Z</time>
      </trkpt>
      <trkpt lat="43.61141" lon="6.72585">
        <ele>223.6</ele>
        <time>2019-12-08T09:52:11.000Z</time>
      </trkpt>
      <trkpt lat="43.61145" lon="6.72578">
        <ele>223.6</ele>
        <time>2019-12-08T09:52:12.000Z</time>
      </trkpt>
      <trkpt lat="43.6115" lon="6.7257">
        <ele>223.7</ele>
        <time>2019-12-08T09:52:13.000Z</time>
      </trkpt>
      <trkpt lat="43.61154" lon="6.72562">
        <ele>223.76</ele>
        <time>2019-12-08T09:52:14.000Z</time>
      </trkpt>
      <trkpt lat="43.61159" lon="6.72554">
        <ele>223.79</ele>
        <time>2019-12-08T09:52:15.000Z</time>
      </trkpt>
      <trkpt lat="43.61163" lon="6.72545">
        <ele>223.75</ele>
        <time>2019-12-08T09:52:16.000Z</time>
      </trkpt>
      <trkpt lat="43.61167" lon="6.72537">
        <ele>223.81</ele>
        <time>2019-12-08T09:52:17.000Z</time>
      </trkpt>
      <trkpt lat="43.61171" lon="6.72528">
        <ele>223.77</ele>
        <time>2019-12-08T09:52:18.000Z</time>
      </trkpt>
      <trkpt lat="43.61175" lon="6.7252">
        <ele>223.87</ele>
        <time>2019-12-08T09:52:19.000Z</time>
      </trkpt>
      <trkpt lat="43.61179" lon="6.72512">
        <ele>223.88</ele>
        <time>2019-12-08T09:52:20.000Z</time>
      </trkpt>
      <trkpt lat="43.61182" lon="6.72503">
        <ele>224</ele>
        <time>2019-12-08T09:52:21.000Z</time>
      </trkpt>
      <trkpt lat="43.61186" lon="6.72495">
        <ele>224.1</ele>
        <time>2019-12-08T09:52:22.000Z</time>
      </trkpt>
      <trkpt lat="43.6119" lon="6.72487">
        <ele>224.24</ele>
        <time>2019-12-08T09:52:23.000Z</time>
      </trkpt>
      <trkpt lat="43.61194" lon="6.72479">
        <ele>224.32</ele>
        <time>2019-12-08T09:52:24.000Z</time>
      </trkpt>
      <trkpt lat="43.61198" lon="6.72472">
        <ele>224.55</ele>
        <time>2019-12-08T09:52:25.000Z</time>
      </trkpt>
      <trkpt lat="43.61202" lon="6.72464">
        <ele>224.66</ele>
        <time>2019-12-08T09:52:26.000Z</time>
      </trkpt>
      <trkpt lat="43.61205" lon="6.72457">
        <ele>224.94</ele>
        <time>2019-12-08T09:52:27.000Z</time>
      </trkpt>
      <trkpt lat="43.61209" lon="6.7245">
        <ele>225.06</ele>
        <time>2019-12-08T09:52:28.000Z</time>
      </trkpt>
      <trkpt lat="43.61213" lon="6.72444">
        <ele>225.35</ele>
        <time>2019-12-08T09:52:29.000Z</time>
      </trkpt>
      <trkpt lat="43.61217" lon="6.72437">
        <ele>225.66</ele>
        <time>2019-12-08T09:52:30.000Z</time>
      </trkpt>
      <trkpt lat="43.61221" lon="6.72432">
        <ele>225.98</ele>
        <time>2019-12-08T09:52:31.000Z</time>
      </trkpt>
      <trkpt lat="43.61225" lon="6.72426">
        <ele>226.1</ele>
        <time>2019-12-08T09:52:32.000Z</time>
      </trkpt>
      <trkpt lat="43.61228" lon="6.72421">
        <ele>226.5</ele>
        <time>2019-12-08T09:52:33.000Z</time>
      </trkpt>
      <trkpt lat="43.61232" lon="6.72416">
        <ele>226.89</ele>
        <time>2019-12-08T09:52:34.000Z</time>
      </trkpt>
      <trkpt lat="43.61236" lon="6.72411">
        <ele>227.26</ele>
        <time>2019-12-08T09:52:35.000Z</time>
      </trkpt>
      <trkpt lat="43.61239" lon="6.72406">
        <ele>227.48</ele>
        <time>2019-12-08T09:52:36.000Z</time>
      </trkpt>
      <trkpt lat="43.61243" lon="6.72402">
        <ele>227.92</ele>
        <time>2019-12-08T09:52:37.000Z</time>
      </trkpt>
      <trkpt lat="43.61247" lon="6.72397">
        <ele>228.2</ele>
        <time>2019-12-08T09:52:38.000Z</time>
      </trkpt>
      <trkpt lat="43.61251" lon="6.72392">
        <ele>228.51</ele>
        <time>2019-12-08T09:52:39.000Z</time>
      </trkpt>
      <trkpt lat="43.61255" lon="6.72388">
        <ele>228.81</ele>
        <time>2019-12-08T09:52:40.000Z</time>
      </trkpt>
      <trkpt lat="43.61258" lon="6.72383">
        <ele>228.97</ele>
        <time>2019-12-08T09:52:41.000Z</time>
      </trkpt>
      <trkpt lat="43.61262" lon="6.72378">
        <ele>229.37</ele>
        <time>2019-12-08T09:52:42.000Z</time>
      </trkpt>
      <trkpt lat="43.61266" lon="6.72374">
        <ele>229.68</ele>
        <time>2019-12-08T09:52:43.000Z</time>
      </trkpt>
      <trkpt lat="43.61269" lon="6.72369">
        <ele>229.84</ele>
        <time>2019-12-08T09:52:44.000Z</time>
      </trkpt>
      <trkpt lat="43.61273" lon="6.72364">
        <ele>230.15</ele>
        <time>2019-12-08T09:52:45.000Z</time>
      </trkpt>
      <trkpt lat="43.61277" lon="6.7236">
        <ele>230.35</ele>
        <time>2019-12-08T09:52:46.000Z</time>
      </trkpt>
      <trkpt lat="43.6128" lon="6.72355">
        <ele>230.67</ele>
        <time>2019-12-08T09:52:47.000Z</time>
      </trkpt>
      <trkpt lat="43.61284" lon="6.7235">
        <ele>230.93</ele>
        <time>2019-12-08T09:52:48.000Z</time>
      </trkpt>
      <trkpt lat="43.61288" lon="6.72346">
        <ele>231.09</ele>
        <time>2019-12-08T09:52:49.000Z</time>
      </trkpt>
      <trkpt lat="43.61291" lon="6.72341">
        <ele>231.42</ele>
        <time>2019-12-08T09:52:50.000Z</time>
      </trkpt>
      <trkpt lat="43.61295" lon="6.72337">
        <ele>231.7</ele>
        <time>2019-12-08T09:52:51.000Z</time>
      </trkpt>
      <trkpt lat="43.61298" lon="6.72332">
        <ele>232.04</ele>
        <time>2019-12-08T09:52:52.000Z</time>
      </trkpt>
      <trkpt lat="43.61302" lon="6.72327">
        <ele>232.23</ele>
        <time>2019-12-08T09:52:53.000Z</time>
      </trkpt>
      <trkpt lat="43.61305" lon="6.72322">
        <ele>232.5</ele>
        <time>2019-12-08T09:52:54.000Z</time>
      </trkpt>
      <trkpt lat="43.61309" lon="6.72317">
        <ele>232.8</ele>
        <time>2019-12-08T09:52:55.000Z</time>
      </trkpt>
      <trkpt lat="43.61312" lon="6.72312">
        <ele>233.05</ele>
        <time>2019-12-08T09:52:56.000Z</time>
      </trkpt>
      <trkpt lat="43.61315" lon="6.72306">
        <ele>233.15</ele>
        <time>2019-12-08T09:52:57.000Z</time>
      </trkpt>
      <trkpt lat="43.61318" lon="6.723">
        <ele>233.41</ele>
        <time>2019-12-08T09:52:58.000Z</time>
      </trkpt>
      <trkpt lat="43.61321" lon="6.72294">
        <ele>233.56</ele>
        <time>2019-12-08T09:52:59.000Z</time>
      </trkpt>
      <trkpt lat="43.61324" lon="6.72288">
        <ele>233.66</ele>
        <time>2019-12-08T09:53:00.000Z</time>
      </trkpt>
      <trkpt lat="43.61327" lon="6.72282">
        <ele>233.71</ele>
        <time>2019-12-08T09:53:01.000Z</time>
      </trkpt>
      <trkpt lat="43.61329" lon="6.72276">
        <ele>233.72</ele>
        <time>2019-12-08T09:53:02.000Z</time>
      </trkpt>
      <trkpt lat="43.61332" lon="6.7227">
        <ele>233.85</ele>
        <time>2019-12-08T09:53:03.000Z</time>
      </trkpt>
      <trkpt lat="43.61334" lon="6.72264">
        <ele>234.06</ele>
        <time>2019-12-08T09:53:04.000Z</time>
      </trkpt>
      <trkpt lat="43.61336" lon="6.72258">
        <ele>234.19</ele>
        <time>2019-12-08T09:53:05.000Z</time>
      </trkpt>
      <trkpt lat="43.61338" lon="6.72251">
        <ele>234.47</ele>
        <time>2019-12-08T09:53:06.000Z</time>
      </trkpt>
      <trkpt lat="43.61341" lon="6.72245">
        <ele>234.76</ele>
        <time>2019-12-08T09:53:07.000Z</time>
      </trkpt>
      <trkpt lat="43.61343" lon="6.72239">
        <ele>235.12</ele>
        <time>2019-12-08T09:53:08.000Z</time>
      </trkpt>
      <trkpt lat="43.61345" lon="6.72233">
        <ele>235.24</ele>
        <time>2019-12-08T09:53:09.000Z</time>
      </trkpt>
      <trkpt lat="43.61347" lon="6.72227">
        <ele>235.49</ele>
        <time>2019-12-08T09:53:10.000Z</time>
      </trkpt>
      <trkpt lat="43.61349" lon="6.7222">
        <ele>235.77</ele>
        <time>2019-12-08T09:53:11.000Z</time>
      </trkpt>
      <trkpt lat="43.61351" lon="6.72214">
        <ele>236.02</ele>
        <time>2019-12-08T09:53:12.000Z</time>
      </trkpt>
      <trkpt lat="43.61353" lon="6.72208">
        <ele>236.16</ele>
        <time>2019-12-08T09:53:13.000Z</time>
      </trkpt>
      <trkpt lat="43.61355" lon="6.72202">
        <ele>236.53</ele>
        <time>2019-12-08T09:53:14.000Z</time>
      </trkpt>
      <trkpt lat="43.61357" lon="6.72195">
        <ele>236.8</ele>
        <time>2019-12-08T09:53:15.000Z</time>
      </trkpt>
      <trkpt lat="43.61359" lon="6.72189">
        <ele>237.05</ele>
        <time>2019-12-08T09:53:16.000Z</time>
      </trkpt>
      <trkpt lat="43.61361" lon="6.72182">
        <ele>237.25</ele>
        <time>2019-12-08T09:53:17.000Z</time>
      </trkpt>
      <trkpt lat="43.61364" lon="6.72176">
        <ele>237.27</ele>
        <time>2019-12-08T09:53:18.000Z</time>
      </trkpt>
      <trkpt lat="43.61366" lon="6.7217">
        <ele>237.27</ele>
        <time>2019-12-08T09:53:19.000Z</time>
      </trkpt>
      <trkpt lat="43.61369" lon="6.72163">
        <ele>237.33</ele>
        <time>2019-12-08T09:53:20.000Z</time>
      </trkpt>
      <trkpt lat="43.61371" lon="6.72157">
        <ele>237.3</ele>
        <time>2019-12-08T09:53:21.000Z</time>
      </trkpt>
      <trkpt lat="43.61374" lon="6.7215">
        <ele>237.36</ele>
        <time>2019-12-08T09:53:22.000Z</time>
      </trkpt>
      <trkpt lat="43.61377" lon="6.72143">
        <ele>237.43</ele>
        <time>2019-12-08T09:53:23.000Z</time>
      </trkpt>
      <trkpt lat="43.6138" lon="6.72136">
        <ele>237.51</ele>
        <time>2019-12-08T09:53:24.000Z</time>
      </trkpt>
      <trkpt lat="43.61382" lon="6.7213">
        <ele>237.54</ele>
        <time>2019-12-08T09:53:25.000Z</time>
      </trkpt>
      <trkpt lat="43.61385" lon="6.72123">
        <ele>237.58</ele>
        <time>2019-12-08T09:53:26.000Z</time>
      </trkpt>
      <trkpt lat="43.61388" lon="6.72116">
        <ele>237.53</ele>
        <time>2019-12-08T09:53:27.000Z</time>
      </trkpt>
      <trkpt lat="43.6139" lon="6.72108">
        <ele>237.5</ele>
        <time>2019-12-08T09:53:28.000Z</time>
      </trkpt>
      <trkpt lat="43.61393" lon="6.72101">
        <ele>237.55</ele>
        <time>2019-12-08T09:53:29.000Z</time>
      </trkpt>
      <trkpt lat="43.61396" lon="6.72094">
        <ele>237.56</ele>
        <time>2019-12-08T09:53:30.000Z</time>
      </trkpt>
      <trkpt lat="43.61399" lon="6.72086">
        <ele>237.6</ele>
        <time>2019-12-08T09:53:31.000Z</time>
      </trkpt>
      <trkpt lat="43.61402" lon="6.72079">
        <ele>237.58</ele>
        <time>2019-12-08T09:53:32.000Z</time>
      </trkpt>
      <trkpt lat="43.61406" lon="6.72071">
        <ele>237.62</ele>
        <time>2019-12-08T09:53:33.000Z</time>
      </trkpt>
      <trkpt lat="43.61409" lon="6.72063">
        <ele>237.54</ele>
        <time>2019-12-08T09:53:34.000Z</time>
      </trkpt>
      <trkpt lat="43.61413" lon="6.72055">
        <ele>237.35</ele>
        <time>2019-12-08T09:53:35.000Z</time>
      </trkpt>
      <trkpt lat="43.61418" lon="6.72047">
        <ele>237.02</ele>
        <time>2019-12-08T09:53:36.000Z</time>
      </trkpt>
      <trkpt lat="43.61422" lon="6.72039">
        <ele>236.64</ele>
        <time>2019-12-08T09:53:37.000Z</time>
      </trkpt>
      <trkpt lat="43.61427" lon="6.7203">
        <ele>236.47</ele>
        <time>2019-12-08T09:53:38.000Z</time>
      </trkpt>
      <trkpt lat="43.61431" lon="6.72022">
        <ele>236.24</ele>
        <time>2019-12-08T09:53:39.000Z</time>
      </trkpt>
      <trkpt lat="43.61436" lon="6.72013">
        <ele>236.18</ele>
        <time>2019-12-08T09:53:40.000Z</time>
      </trkpt>
      <trkpt lat="43.6144" lon="6.72005">
        <ele>236.13</ele>
        <time>2019-12-08T09:53:41.000Z</time>
      </trkpt>
      <trkpt lat="43.61445" lon="6.71997">
        <ele>236.14</ele>
        <time>2019-12-08T09:53:42.000Z</time>
      </trkpt>
      <trkpt lat="43.61449" lon="6.71989">
        <ele>236.17</ele>
        <time>2019-12-08T09:53:43.000Z</time>
      </trkpt>
      <trkpt lat="43.61454" lon="6.71981">
        <ele>236.39</ele>
        <time>2019-12-08T09:53:44.000Z</time>
      </trkpt>
      <trkpt lat="43.61458" lon="6.71973">
        <ele>236.53</ele>
        <time>2019-12-08T09:53:45.000Z</time>
      </trkpt>
      <trkpt lat="43.61463" lon="6.71966">
        <ele>236.66</ele>
        <time>2019-12-08T09:53:46.000Z</time>
      </trkpt>
      <trkpt lat="43.61467" lon="6.71958">
        <ele>236.81</ele>
        <time>2019-12-08T09:53:47.000Z</time>
      </trkpt>
      <trkpt lat="43.61472" lon="6.7195">
        <ele>236.91</ele>
        <time>2019-12-08T09:53:48.000Z</time>
      </trkpt>
      <trkpt lat="43.61477" lon="6.71943">
        <ele>236.96</ele>
        <time>2019-12-08T09:53:49.000Z</time>
      </trkpt>
      <trkpt lat="43.61481" lon="6.71935">
        <ele>236.97</ele>
        <time>2019-12-08T09:53:50.000Z</time>
      </trkpt>
      <trkpt lat="43.61486" lon="6.71928">
        <ele>236.98</ele>
        <time>2019-12-08T09:53:51.000Z</time>
      </trkpt>
      <trkpt lat="43.6149" lon="6.7192">
        <ele>236.95</ele>
        <time>2019-12-08T09:53:52.000Z</time>
      </trkpt>
      <trkpt lat="43.61495" lon="6.71913">
        <ele>236.9</ele>
        <time>2019-12-08T09:53:53.000Z</time>
      </trkpt>
      <trkpt lat="43.615" lon="6.71906">
        <ele>236.95</ele>
        <time>2019-12-08T09:53:54.000Z</time>
      </trkpt>
      <trkpt lat="43.61505" lon="6.71898">
        <ele>236.99</ele>
        <time>2019-12-08T09:53:55.000Z</time>
      </trkpt>
      <trkpt lat="43.61511" lon="6.71891">
        <ele>236.84</ele>
        <time>2019-12-08T09:53:56.000Z</time>
      </trkpt>
      <trkpt lat="43.61516" lon="6.71884">
        <ele>236.89</ele>
        <time>2019-12-08T09:53:57.000Z</time>
      </trkpt>
      <trkpt lat="43.61521" lon="6.71877">
        <ele>236.83</ele>
        <time>2019-12-08T09:53:58.000Z</time>
      </trkpt>
      <trkpt lat="43.61527" lon="6.7187">
        <ele>236.77</ele>
        <time>2019-12-08T09:53:59.000Z</time>
      </trkpt>
      <trkpt lat="43.61532" lon="6.71863">
        <ele>236.71</ele>
        <time>2019-12-08T09:54:00.000Z</time>
      </trkpt>
      <trkpt lat="43.61538" lon="6.71856">
        <ele>236.67</ele>
        <time>2019-12-08T09:54:01.000Z</time>
      </trkpt>
      <trkpt lat="43.61543" lon="6.71848">
        <ele>236.52</ele>
        <time>2019-12-08T09:54:02.000Z</time>
      </trkpt>
      <trkpt lat="43.61549" lon="6.71841">
        <ele>236.42</ele>
        <time>2019-12-08T09:54:03.000Z</time>
      </trkpt>
      <trkpt lat="43.61555" lon="6.71834">
        <ele>236.23</ele>
        <time>2019-12-08T09:54:04.000Z</time>
      </trkpt>
      <trkpt lat="43.61561" lon="6.71827">
        <ele>235.95</ele>
        <time>2019-12-08T09:54:05.000Z</time>
      </trkpt>
      <trkpt lat="43.61567" lon="6.71819">
        <ele>235.66</ele>
        <time>2019-12-08T09:54:06.000Z</time>
      </trkpt>
      <trkpt lat="43.61572" lon="6.71811">
        <ele>235.49</ele>
        <time>2019-12-08T09:54:07.000Z</time>
      </trkpt>
      <trkpt lat="43.61577" lon="6.71802">
        <ele>235.14</ele>
        <time>2019-12-08T09:54:08.000Z</time>
      </trkpt>
      <trkpt lat="43.61582" lon="6.71793">
        <ele>234.7</ele>
        <time>2019-12-08T09:54:09.000Z</time>
      </trkpt>
      <trkpt lat="43.61587" lon="6.71783">
        <ele>234.22</ele>
        <time>2019-12-08T09:54:10.000Z</time>
      </trkpt>
      <trkpt lat="43.61591" lon="6.71773">
        <ele>234</ele>
        <time>2019-12-08T09:54:11.000Z</time>
      </trkpt>
      <trkpt lat="43.61595" lon="6.71762">
        <ele>233.6</ele>
        <time>2019-12-08T09:54:12.000Z</time>
      </trkpt>
      <trkpt lat="43.61599" lon="6.71751">
        <ele>233.29</ele>
        <time>2019-12-08T09:54:13.000Z</time>
      </trkpt>
      <trkpt lat="43.61602" lon="6.71739">
        <ele>233.05</ele>
        <time>2019-12-08T09:54:14.000Z</time>
      </trkpt>
      <trkpt lat="43.61605" lon="6.71727">
        <ele>232.9</ele>
        <time>2019-12-08T09:54:15.000Z</time>
      </trkpt>
      <trkpt lat="43.61608" lon="6.71715">
        <ele>232.7</ele>
        <time>2019-12-08T09:54:16.000Z</time>
      </trkpt>
      <trkpt lat="43.6161" lon="6.71703">
        <ele>232.44</ele>
        <time>2019-12-08T09:54:17.000Z</time>
      </trkpt>
      <trkpt lat="43.61613" lon="6.71691">
        <ele>232.18</ele>
        <time>2019-12-08T09:54:18.000Z</time>
      </trkpt>
      <trkpt lat="43.61616" lon="6.71679">
        <ele>232.09</ele>
        <time>2019-12-08T09:54:19.000Z</time>
      </trkpt>
      <trkpt lat="43.61618" lon="6.71667">
        <ele>232</ele>
        <time>2019-12-08T09:54:20.000Z</time>
      </trkpt>
      <trkpt lat="43.61622" lon="6.71655">
        <ele>231.82</ele>
        <time>2019-12-08T09:54:21.000Z</time>
      </trkpt>
      <trkpt lat="43.61625" lon="6.71642">
        <ele>231.68</ele>
        <time>2019-12-08T09:54:22.000Z</time>
      </trkpt>
      <trkpt lat="43.61628" lon="6.7163">
        <ele>231.64</ele>
        <time>2019-12-08T09:54:23.000Z</time>
      </trkpt>
      <trkpt lat="43.61632" lon="6.71619">
        <ele>231.53</ele>
        <time>2019-12-08T09:54:24.000Z</time>
      </trkpt>
      <trkpt lat="43.61635" lon="6.71607">
        <ele>231.37</ele>
        <time>2019-12-08T09:54:25.000Z</time>
      </trkpt>
      <trkpt lat="43.61638" lon="6.71595">
        <ele>231.36</ele>
        <time>2019-12-08T09:54:26.000Z</time>
      </trkpt>
      <trkpt lat="43.61641" lon="6.71584">
        <ele>231.46</ele>
        <time>2019-12-08T09:54:27.000Z</time>
      </trkpt>
      <trkpt lat="43.61644" lon="6.71572">
        <ele>231.42</ele>
        <time>2019-12-08T09:54:28.000Z</time>
      </trkpt>
      <trkpt lat="43.61648" lon="6.71561">
        <ele>231.41</ele>
        <time>2019-12-08T09:54:29.000Z</time>
      </trkpt>
      <trkpt lat="43.61651" lon="6.7155">
        <ele>231.43</ele>
        <time>2019-12-08T09:54:30.000Z</time>
      </trkpt>
      <trkpt lat="43.61654" lon="6.71539">
        <ele>231.41</ele>
        <time>2019-12-08T09:54:31.000Z</time>
      </trkpt>
      <trkpt lat="43.61657" lon="6.71529">
        <ele>231.35</ele>
        <time>2019-12-08T09:54:32.000Z</time>
      </trkpt>
      <trkpt lat="43.6166" lon="6.71519">
        <ele>231.44</ele>
        <time>2019-12-08T09:54:33.000Z</time>
      </trkpt>
      <trkpt lat="43.61664" lon="6.71509">
        <ele>231.56</ele>
        <time>2019-12-08T09:54:34.000Z</time>
      </trkpt>
      <trkpt lat="43.61667" lon="6.71499">
        <ele>231.75</ele>
        <time>2019-12-08T09:54:35.000Z</time>
      </trkpt>
      <trkpt lat="43.6167" lon="6.71489">
        <ele>231.91</ele>
        <time>2019-12-08T09:54:36.000Z</time>
      </trkpt>
      <trkpt lat="43.61672" lon="6.7148">
        <ele>232.19</ele>
        <time>2019-12-08T09:54:37.000Z</time>
      </trkpt>
      <trkpt lat="43.61675" lon="6.71471">
        <ele>232.42</ele>
        <time>2019-12-08T09:54:38.000Z</time>
      </trkpt>
      <trkpt lat="43.61678" lon="6.71462">
        <ele>232.68</ele>
        <time>2019-12-08T09:54:39.000Z</time>
      </trkpt>
      <trkpt lat="43.61681" lon="6.71453">
        <ele>232.74</ele>
        <time>2019-12-08T09:54:40.000Z</time>
      </trkpt>
      <trkpt lat="43.61684" lon="6.71444">
        <ele>232.8</ele>
        <time>2019-12-08T09:54:41.000Z</time>
      </trkpt>
      <trkpt lat="43.61687" lon="6.71435">
        <ele>232.92</ele>
        <time>2019-12-08T09:54:42.000Z</time>
      </trkpt>
      <trkpt lat="43.6169" lon="6.71427">
        <ele>233.02</ele>
        <time>2019-12-08T09:54:43.000Z</time>
      </trkpt>
      <trkpt lat="43.61693" lon="6.71418">
        <ele>233.18</ele>
        <time>2019-12-08T09:54:44.000Z</time>
      </trkpt>
      <trkpt lat="43.61696" lon="6.71409">
        <ele>233.4</ele>
        <time>2019-12-08T09:54:45.000Z</time>
      </trkpt>
      <trkpt lat="43.61699" lon="6.71401">
        <ele>233.65</ele>
        <time>2019-12-08T09:54:46.000Z</time>
      </trkpt>
      <trkpt lat="43.61703" lon="6.71392">
        <ele>233.87</ele>
        <time>2019-12-08T09:54:47.000Z</time>
      </trkpt>
      <trkpt lat="43.61706" lon="6.71384">
        <ele>233.98</ele>
        <time>2019-12-08T09:54:48.000Z</time>
      </trkpt>
      <trkpt lat="43.61709" lon="6.71375">
        <ele>234.02</ele>
        <time>2019-12-08T09:54:49.000Z</time>
      </trkpt>
      <trkpt lat="43.61712" lon="6.71366">
        <ele>234.16</ele>
        <time>2019-12-08T09:54:50.000Z</time>
      </trkpt>
      <trkpt lat="43.61715" lon="6.71358">
        <ele>234.29</ele>
        <time>2019-12-08T09:54:51.000Z</time>
      </trkpt>
      <trkpt lat="43.61718" lon="6.71349">
        <ele>234.34</ele>
        <time>2019-12-08T09:54:52.000Z</time>
      </trkpt>
      <trkpt lat="43.61722" lon="6.71341">
        <ele>234.66</ele>
        <time>2019-12-08T09:54:53.000Z</time>
      </trkpt>
      <trkpt lat="43.61725" lon="6.71332">
        <ele>234.91</ele>
        <time>2019-12-08T09:54:54.000Z</time>
      </trkpt>
      <trkpt lat="43.61728" lon="6.71324">
        <ele>234.91</ele>
        <time>2019-12-08T09:54:55.000Z</time>
      </trkpt>
      <trkpt lat="43.61731" lon="6.71315">
        <ele>235.37</ele>
        <time>2019-12-08T09:54:56.000Z</time>
      </trkpt>
      <trkpt lat="43.61734" lon="6.71307">
        <ele>235.55</ele>
        <time>2019-12-08T09:54:57.000Z</time>
      </trkpt>
      <trkpt lat="43.61736" lon="6.71299">
        <ele>235.84</ele>
        <time>2019-12-08T09:54:58.000Z</time>
      </trkpt>
      <trkpt lat="43.61739" lon="6.7129">
        <ele>236.06</ele>
        <time>2019-12-08T09:54:59.000Z</time>
      </trkpt>
      <trkpt lat="43.61741" lon="6.71281">
        <ele>236.13</ele>
        <time>2019-12-08T09:55:00.000Z</time>
      </trkpt>
      <trkpt lat="43.61742" lon="6.71272">
        <ele>236.41</ele>
        <time>2019-12-08T09:55:01.000Z</time>
      </trkpt>
      <trkpt lat="43.61744" lon="6.71262">
        <ele>236.47</ele>
        <time>2019-12-08T09:55:02.000Z</time>
      </trkpt>
      <trkpt lat="43.61745" lon="6.71252">
        <ele>236.47</ele>
        <time>2019-12-08T09:55:03.000Z</time>
      </trkpt>
      <trkpt lat="43.61746" lon="6.71242">
        <ele>236.54</ele>
        <time>2019-12-08T09:55:04.000Z</time>
      </trkpt>
      <trkpt lat="43.61747" lon="6.71233">
        <ele>236.47</ele>
        <time>2019-12-08T09:55:05.000Z</time>
      </trkpt>
      <trkpt lat="43.61749" lon="6.71223">
        <ele>236.44</ele>
        <time>2019-12-08T09:55:06.000Z</time>
      </trkpt>
      <trkpt lat="43.6175" lon="6.71213">
        <ele>236.46</ele>
        <time>2019-12-08T09:55:07.000Z</time>
      </trkpt>
      <trkpt lat="43.61751" lon="6.71203">
        <ele>236.49</ele>
        <time>2019-12-08T09:55:08.000Z</time>
      </trkpt>
      <trkpt lat="43.61752" lon="6.71194">
        <ele>236.58</ele>
        <time>2019-12-08T09:55:09.000Z</time>
      </trkpt>
      <trkpt lat="43.61753" lon="6.71184">
        <ele>236.72</ele>
        <time>2019-12-08T09:55:10.000Z</time>
      </trkpt>
      <trkpt lat="43.61754" lon="6.71174">
        <ele>236.83</ele>
        <time>2019-12-08T09:55:11.000Z</time>
      </trkpt>
      <trkpt lat="43.61755" lon="6.71165">
        <ele>236.99</ele>
        <time>2019-12-08T09:55:12.000Z</time>
      </trkpt>
      <trkpt lat="43.61756" lon="6.71156">
        <ele>237.07</ele>
        <time>2019-12-08T09:55:13.000Z</time>
      </trkpt>
      <trkpt lat="43.61756" lon="6.71147">
        <ele>237.32</ele>
        <time>2019-12-08T09:55:14.000Z</time>
      </trkpt>
      <trkpt lat="43.61757" lon="6.71138">
        <ele>237.55</ele>
        <time>2019-12-08T09:55:15.000Z</time>
      </trkpt>
      <trkpt lat="43.61758" lon="6.71129">
        <ele>237.79</ele>
        <time>2019-12-08T09:55:16.000Z</time>
      </trkpt>
      <trkpt lat="43.61758" lon="6.7112">
        <ele>237.94</ele>
        <time>2019-12-08T09:55:17.000Z</time>
      </trkpt>
      <trkpt lat="43.61759" lon="6.71111">
        <ele>238.15</ele>
        <time>2019-12-08T09:55:18.000Z</time>
      </trkpt>
      <trkpt lat="43.6176" lon="6.71103">
        <ele>238.36</ele>
        <time>2019-12-08T09:55:19.000Z</time>
      </trkpt>
      <trkpt lat="43.6176" lon="6.71094">
        <ele>238.57</ele>
        <time>2019-12-08T09:55:20.000Z</time>
      </trkpt>
      <trkpt lat="43.61761" lon="6.71086">
        <ele>238.66</ele>
        <time>2019-12-08T09:55:21.000Z</time>
      </trkpt>
      <trkpt lat="43.61761" lon="6.71077">
        <ele>238.92</ele>
        <time>2019-12-08T09:55:22.000Z</time>
      </trkpt>
      <trkpt lat="43.61761" lon="6.71069">
        <ele>239.08</ele>
        <time>2019-12-08T09:55:23.000Z</time>
      </trkpt>
      <trkpt lat="43.61761" lon="6.7106">
        <ele>239.26</ele>
        <time>2019-12-08T09:55:24.000Z</time>
      </trkpt>
      <trkpt lat="43.61762" lon="6.71052">
        <ele>239.49</ele>
        <time>2019-12-08T09:55:25.000Z</time>
      </trkpt>
      <trkpt lat="43.61762" lon="6.71044">
        <ele>239.57</ele>
        <time>2019-12-08T09:55:26.000Z</time>
      </trkpt>
      <trkpt lat="43.61762" lon="6.71035">
        <ele>239.75</ele>
        <time>2019-12-08T09:55:27.000Z</time>
      </trkpt>
      <trkpt lat="43.61763" lon="6.71027">
        <ele>239.94</ele>
        <time>2019-12-08T09:55:28.000Z</time>
      </trkpt>
      <trkpt lat="43.61763" lon="6.71019">
        <ele>240.05</ele>
        <time>2019-12-08T09:55:29.000Z</time>
      </trkpt>
      <trkpt lat="43.61764" lon="6.71011">
        <ele>240.26</ele>
        <time>2019-12-08T09:55:30.000Z</time>
      </trkpt>
      <trkpt lat="43.61765" lon="6.71003">
        <ele>240.37</ele>
        <time>2019-12-08T09:55:31.000Z</time>
      </trkpt>
      <trkpt lat="43.61766" lon="6.70994">
        <ele>240.53</ele>
        <time>2019-12-08T09:55:32.000Z</time>
      </trkpt>
      <trkpt lat="43.61767" lon="6.70986">
        <ele>240.73</ele>
        <time>2019-12-08T09:55:33.000Z</time>
      </trkpt>
      <trkpt lat="43.61768" lon="6.70978">
        <ele>240.81</ele>
        <time>2019-12-08T09:55:34.000Z</time>
      </trkpt>
      <trkpt lat="43.61769" lon="6.7097">
        <ele>240.97</ele>
        <time>2019-12-08T09:55:35.000Z</time>
      </trkpt>
      <trkpt lat="43.6177" lon="6.70963">
        <ele>241.24</ele>
        <time>2019-12-08T09:55:36.000Z</time>
      </trkpt>
      <trkpt lat="43.61771" lon="6.70955">
        <ele>241.36</ele>
        <time>2019-12-08T09:55:37.000Z</time>
      </trkpt>
      <trkpt lat="43.61772" lon="6.70946">
        <ele>241.5</ele>
        <time>2019-12-08T09:55:38.000Z</time>
      </trkpt>
      <trkpt lat="43.61773" lon="6.70938">
        <ele>241.61</ele>
        <time>2019-12-08T09:55:39.000Z</time>
      </trkpt>
      <trkpt lat="43.61774" lon="6.7093">
        <ele>241.67</ele>
        <time>2019-12-08T09:55:40.000Z</time>
      </trkpt>
      <trkpt lat="43.61776" lon="6.70922">
        <ele>241.7</ele>
        <time>2019-12-08T09:55:41.000Z</time>
      </trkpt>
      <trkpt lat="43.61777" lon="6.70914">
        <ele>241.7</ele>
        <time>2019-12-08T09:55:42.000Z</time>
      </trkpt>
      <trkpt lat="43.61778" lon="6.70905">
        <ele>241.7</ele>
        <time>2019-12-08T09:55:43.000Z</time>
      </trkpt>
      <trkpt lat="43.6178" lon="6.70897">
        <ele>241.67</ele>
        <time>2019-12-08T09:55:44.000Z</time>
      </trkpt>
      <trkpt lat="43.61781" lon="6.70888">
        <ele>241.65</ele>
        <time>2019-12-08T09:55:45.000Z</time>
      </trkpt>
      <trkpt lat="43.61783" lon="6.7088">
        <ele>241.61</ele>
        <time>2019-12-08T09:55:46.000Z</time>
      </trkpt>
      <trkpt lat="43.61784" lon="6.70871">
        <ele>241.51</ele>
        <time>2019-12-08T09:55:47.000Z</time>
      </trkpt>
      <trkpt lat="43.61786" lon="6.70862">
        <ele>241.35</ele>
        <time>2019-12-08T09:55:48.000Z</time>
      </trkpt>
      <trkpt lat="43.61787" lon="6.70853">
        <ele>241.24</ele>
        <time>2019-12-08T09:55:49.000Z</time>
      </trkpt>
      <trkpt lat="43.61789" lon="6.70844">
        <ele>241.19</ele>
        <time>2019-12-08T09:55:50.000Z</time>
      </trkpt>
      <trkpt lat="43.6179" lon="6.70835">
        <ele>241.08</ele>
        <time>2019-12-08T09:55:51.000Z</time>
      </trkpt>
      <trkpt lat="43.61792" lon="6.70826">
        <ele>241.06</ele>
        <time>2019-12-08T09:55:52.000Z</time>
      </trkpt>
      <trkpt lat="43.61793" lon="6.70817">
        <ele>241.16</ele>
        <time>2019-12-08T09:55:53.000Z</time>
      </trkpt>
      <trkpt lat="43.61795" lon="6.70808">
        <ele>241.13</ele>
        <time>2019-12-08T09:55:54.000Z</time>
      </trkpt>
      <trkpt lat="43.61796" lon="6.70799">
        <ele>241.15</ele>
        <time>2019-12-08T09:55:55.000Z</time>
      </trkpt>
      <trkpt lat="43.61797" lon="6.70789">
        <ele>241.12</ele>
        <time>2019-12-08T09:55:56.000Z</time>
      </trkpt>
      <trkpt lat="43.61798" lon="6.7078">
        <ele>241.09</ele>
        <time>2019-12-08T09:55:57.000Z</time>
      </trkpt>
      <trkpt lat="43.61799" lon="6.7077">
        <ele>241.08</ele>
        <time>2019-12-08T09:55:58.000Z</time>
      </trkpt>
      <trkpt lat="43.618" lon="6.70761">
        <ele>241.07</ele>
        <time>2019-12-08T09:55:59.000Z</time>
      </trkpt>
      <trkpt lat="43.61802" lon="6.70752">
        <ele>241.02</ele>
        <time>2019-12-08T09:56:00.000Z</time>
      </trkpt>
      <trkpt lat="43.61803" lon="6.70742">
        <ele>241.08</ele>
        <time>2019-12-08T09:56:01.000Z</time>
      </trkpt>
      <trkpt lat="43.61804" lon="6.70733">
        <ele>241.13</ele>
        <time>2019-12-08T09:56:02.000Z</time>
      </trkpt>
      <trkpt lat="43.61807" lon="6.70724">
        <ele>241.14</ele>
        <time>2019-12-08T09:56:03.000Z</time>
      </trkpt>
      <trkpt lat="43.61809" lon="6.70716">
        <ele>241.19</ele>
        <time>2019-12-08T09:56:04.000Z</time>
      </trkpt>
      <trkpt lat="43.61811" lon="6.70706">
        <ele>241.26</ele>
        <time>2019-12-08T09:56:05.000Z</time>
      </trkpt>
      <trkpt lat="43.6181" lon="6.70697">
        <ele>241.35</ele>
        <time>2019-12-08T09:56:06.000Z</time>
      </trkpt>
      <trkpt lat="43.61808" lon="6.70687">
        <ele>241.39</ele>
        <time>2019-12-08T09:56:07.000Z</time>
      </trkpt>
      <trkpt lat="43.61805" lon="6.70678">
        <ele>241.5</ele>
        <time>2019-12-08T09:56:08.000Z</time>
      </trkpt>
      <trkpt lat="43.61802" lon="6.70669">
        <ele>241.61</ele>
        <time>2019-12-08T09:56:09.000Z</time>
      </trkpt>
      <trkpt lat="43.61799" lon="6.70659">
        <ele>241.61</ele>
        <time>2019-12-08T09:56:10.000Z</time>
      </trkpt>
      <trkpt lat="43.61796" lon="6.70649">
        <ele>241.61</ele>
        <time>2019-12-08T09:56:11.000Z</time>
      </trkpt>
      <trkpt lat="43.61794" lon="6.70639">
        <ele>241.61</ele>
        <time>2019-12-08T09:56:12.000Z</time>
      </trkpt>
      <trkpt lat="43.61792" lon="6.70628">
        <ele>241.49</ele>
        <time>2019-12-08T09:56:13.000Z</time>
      </trkpt>
      <trkpt lat="43.61791" lon="6.70618">
        <ele>241.27</ele>
        <time>2019-12-08T09:56:14.000Z</time>
      </trkpt>
      <trkpt lat="43.6179" lon="6.70607">
        <ele>241.25</ele>
        <time>2019-12-08T09:56:15.000Z</time>
      </trkpt>
      <trkpt lat="43.6179" lon="6.70596">
        <ele>241.05</ele>
        <time>2019-12-08T09:56:16.000Z</time>
      </trkpt>
      <trkpt lat="43.61789" lon="6.70585">
        <ele>240.86</ele>
        <time>2019-12-08T09:56:17.000Z</time>
      </trkpt>
      <trkpt lat="43.61789" lon="6.70574">
        <ele>240.81</ele>
        <time>2019-12-08T09:56:18.000Z</time>
      </trkpt>
      <trkpt lat="43.61788" lon="6.70563">
        <ele>240.79</ele>
        <time>2019-12-08T09:56:19.000Z</time>
      </trkpt>
      <trkpt lat="43.61788" lon="6.70552">
        <ele>240.65</ele>
        <time>2019-12-08T09:56:20.000Z</time>
      </trkpt>
      <trkpt lat="43.61787" lon="6.70541">
        <ele>240.61</ele>
        <time>2019-12-08T09:56:21.000Z</time>
      </trkpt>
      <trkpt lat="43.61787" lon="6.7053">
        <ele>240.52</ele>
        <time>2019-12-08T09:56:22.000Z</time>
      </trkpt>
      <trkpt lat="43.61786" lon="6.70519">
        <ele>240.47</ele>
        <time>2019-12-08T09:56:23.000Z</time>
      </trkpt>
      <trkpt lat="43.61785" lon="6.70508">
        <ele>240.45</ele>
        <time>2019-12-08T09:56:24.000Z</time>
      </trkpt>
      <trkpt lat="43.61784" lon="6.70497">
        <ele>240.38</ele>
        <time>2019-12-08T09:56:25.000Z</time>
      </trkpt>
      <trkpt lat="43.61783" lon="6.70486">
        <ele>240.32</ele>
        <time>2019-12-08T09:56:26.000Z</time>
      </trkpt>
      <trkpt lat="43.61783" lon="6.70475">
        <ele>240.29</ele>
        <time>2019-12-08T09:56:27.000Z</time>
      </trkpt>
      <trkpt lat="43.61782" lon="6.70464">
        <ele>240.21</ele>
        <time>2019-12-08T09:56:28.000Z</time>
      </trkpt>
      <trkpt lat="43.61781" lon="6.70453">
        <ele>240.21</ele>
        <time>2019-12-08T09:56:29.000Z</time>
      </trkpt>
      <trkpt lat="43.61781" lon="6.70442">
        <ele>240.12</ele>
        <time>2019-12-08T09:56:30.000Z</time>
      </trkpt>
      <trkpt lat="43.6178" lon="6.70431">
        <ele>240.12</ele>
        <time>2019-12-08T09:56:31.000Z</time>
      </trkpt>
      <trkpt lat="43.6178" lon="6.7042">
        <ele>240.12</ele>
        <time>2019-12-08T09:56:32.000Z</time>
      </trkpt>
      <trkpt lat="43.61779" lon="6.70409">
        <ele>240.11</ele>
        <time>2019-12-08T09:56:33.000Z</time>
      </trkpt>
      <trkpt lat="43.61779" lon="6.70399">
        <ele>240.16</ele>
        <time>2019-12-08T09:56:34.000Z</time>
      </trkpt>
      <trkpt lat="43.61778" lon="6.70388">
        <ele>240.18</ele>
        <time>2019-12-08T09:56:35.000Z</time>
      </trkpt>
      <trkpt lat="43.61777" lon="6.70377">
        <ele>240.23</ele>
        <time>2019-12-08T09:56:36.000Z</time>
      </trkpt>
      <trkpt lat="43.61776" lon="6.70366">
        <ele>240.4</ele>
        <time>2019-12-08T09:56:37.000Z</time>
      </trkpt>
      <trkpt lat="43.61775" lon="6.70356">
        <ele>240.55</ele>
        <time>2019-12-08T09:56:38.000Z</time>
      </trkpt>
      <trkpt lat="43.61774" lon="6.70346">
        <ele>240.72</ele>
        <time>2019-12-08T09:56:39.000Z</time>
      </trkpt>
      <trkpt lat="43.61772" lon="6.70335">
        <ele>240.81</ele>
        <time>2019-12-08T09:56:40.000Z</time>
      </trkpt>
      <trkpt lat="43.6177" lon="6.70325">
        <ele>240.93</ele>
        <time>2019-12-08T09:56:41.000Z</time>
      </trkpt>
      <trkpt lat="43.61768" lon="6.70314">
        <ele>241.08</ele>
        <time>2019-12-08T09:56:42.000Z</time>
      </trkpt>
      <trkpt lat="43.61766" lon="6.70304">
        <ele>241.13</ele>
        <time>2019-12-08T09:56:43.000Z</time>
      </trkpt>
      <trkpt lat="43.61764" lon="6.70293">
        <ele>241.18</ele>
        <time>2019-12-08T09:56:44.000Z</time>
      </trkpt>
      <trkpt lat="43.61762" lon="6.70282">
        <ele>241.11</ele>
        <time>2019-12-08T09:56:45.000Z</time>
      </trkpt>
      <trkpt lat="43.6176" lon="6.7027">
        <ele>240.78</ele>
        <time>2019-12-08T09:56:46.000Z</time>
      </trkpt>
      <trkpt lat="43.61759" lon="6.70258">
        <ele>240.28</ele>
        <time>2019-12-08T09:56:47.000Z</time>
      </trkpt>
      <trkpt lat="43.61758" lon="6.70245">
        <ele>239.98</ele>
        <time>2019-12-08T09:56:48.000Z</time>
      </trkpt>
      <trkpt lat="43.61757" lon="6.70232">
        <ele>239.35</ele>
        <time>2019-12-08T09:56:49.000Z</time>
      </trkpt>
      <trkpt lat="43.61755" lon="6.70219">
        <ele>238.75</ele>
        <time>2019-12-08T09:56:50.000Z</time>
      </trkpt>
      <trkpt lat="43.61754" lon="6.70205">
        <ele>238.17</ele>
        <time>2019-12-08T09:56:51.000Z</time>
      </trkpt>
      <trkpt lat="43.61753" lon="6.70191">
        <ele>237.92</ele>
        <time>2019-12-08T09:56:52.000Z</time>
      </trkpt>
      <trkpt lat="43.61752" lon="6.70178">
        <ele>237.42</ele>
        <time>2019-12-08T09:56:53.000Z</time>
      </trkpt>
      <trkpt lat="43.61751" lon="6.70164">
        <ele>236.94</ele>
        <time>2019-12-08T09:56:54.000Z</time>
      </trkpt>
      <trkpt lat="43.6175" lon="6.70151">
        <ele>236.58</ele>
        <time>2019-12-08T09:56:55.000Z</time>
      </trkpt>
      <trkpt lat="43.61749" lon="6.70137">
        <ele>236.48</ele>
        <time>2019-12-08T09:56:56.000Z</time>
      </trkpt>
      <trkpt lat="43.61748" lon="6.70124">
        <ele>236.31</ele>
        <time>2019-12-08T09:56:57.000Z</time>
      </trkpt>
      <trkpt lat="43.61747" lon="6.70111">
        <ele>236.3</ele>
        <time>2019-12-08T09:56:58.000Z</time>
      </trkpt>
      <trkpt lat="43.61745" lon="6.70098">
        <ele>236.32</ele>
        <time>2019-12-08T09:56:59.000Z</time>
      </trkpt>
      <trkpt lat="43.61744" lon="6.70086">
        <ele>236.32</ele>
        <time>2019-12-08T09:57:00.000Z</time>
      </trkpt>
      <trkpt lat="43.61744" lon="6.70074">
        <ele>236.32</ele>
        <time>2019-12-08T09:57:01.000Z</time>
      </trkpt>
      <trkpt lat="43.61744" lon="6.70062">
        <ele>236.41</ele>
        <time>2019-12-08T09:57:02.000Z</time>
      </trkpt>
      <trkpt lat="43.61744" lon="6.70051">
        <ele>236.54</ele>
        <time>2019-12-08T09:57:03.000Z</time>
      </trkpt>
      <trkpt lat="43.61745" lon="6.70041">
        <ele>236.65</ele>
        <time>2019-12-08T09:57:04.000Z</time>
      </trkpt>
      <trkpt lat="43.61746" lon="6.70031">
        <ele>236.93</ele>
        <time>2019-12-08T09:57:05.000Z</time>
      </trkpt>
      <trkpt lat="43.61747" lon="6.70021">
        <ele>237.27</ele>
        <time>2019-12-08T09:57:06.000Z</time>
      </trkpt>
      <trkpt lat="43.61749" lon="6.70012">
        <ele>237.56</ele>
        <time>2019-12-08T09:57:07.000Z</time>
      </trkpt>
      <trkpt lat="43.61751" lon="6.70003">
        <ele>237.68</ele>
        <time>2019-12-08T09:57:08.000Z</time>
      </trkpt>
      <trkpt lat="43.61753" lon="6.69994">
        <ele>238.02</ele>
        <time>2019-12-08T09:57:09.000Z</time>
      </trkpt>
      <trkpt lat="43.61755" lon="6.69986">
        <ele>238.25</ele>
        <time>2019-12-08T09:57:10.000Z</time>
      </trkpt>
      <trkpt lat="43.61757" lon="6.69978">
        <ele>238.52</ele>
        <time>2019-12-08T09:57:11.000Z</time>
      </trkpt>
      <trkpt lat="43.61759" lon="6.6997">
        <ele>238.52</ele>
        <time>2019-12-08T09:57:12.000Z</time>
      </trkpt>
      <trkpt lat="43.61761" lon="6.69962">
        <ele>238.79</ele>
        <time>2019-12-08T09:57:13.000Z</time>
      </trkpt>
      <trkpt lat="43.61763" lon="6.69954">
        <ele>238.97</ele>
        <time>2019-12-08T09:57:14.000Z</time>
      </trkpt>
      <trkpt lat="43.61765" lon="6.69946">
        <ele>239.2</ele>
        <time>2019-12-08T09:57:15.000Z</time>
      </trkpt>
      <trkpt lat="43.61767" lon="6.69938">
        <ele>239.37</ele>
        <time>2019-12-08T09:57:16.000Z</time>
      </trkpt>
      <trkpt lat="43.61769" lon="6.6993">
        <ele>239.45</ele>
        <time>2019-12-08T09:57:17.000Z</time>
      </trkpt>
      <trkpt lat="43.61771" lon="6.69922">
        <ele>239.75</ele>
        <time>2019-12-08T09:57:18.000Z</time>
      </trkpt>
      <trkpt lat="43.61773" lon="6.69914">
        <ele>240.01</ele>
        <time>2019-12-08T09:57:19.000Z</time>
      </trkpt>
      <trkpt lat="43.61775" lon="6.69906">
        <ele>240.25</ele>
        <time>2019-12-08T09:57:20.000Z</time>
      </trkpt>
      <trkpt lat="43.61776" lon="6.69898">
        <ele>240.4</ele>
        <time>2019-12-08T09:57:21.000Z</time>
      </trkpt>
      <trkpt lat="43.61778" lon="6.69891">
        <ele>240.64</ele>
        <time>2019-12-08T09:57:22.000Z</time>
      </trkpt>
      <trkpt lat="43.6178" lon="6.69883">
        <ele>240.79</ele>
        <time>2019-12-08T09:57:23.000Z</time>
      </trkpt>
      <trkpt lat="43.61781" lon="6.69876">
        <ele>241.02</ele>
        <time>2019-12-08T09:57:24.000Z</time>
      </trkpt>
      <trkpt lat="43.61783" lon="6.69868">
        <ele>241.1</ele>
        <time>2019-12-08T09:57:25.000Z</time>
      </trkpt>
      <trkpt lat="43.61784" lon="6.69861">
        <ele>241.26</ele>
        <time>2019-12-08T09:57:26.000Z</time>
      </trkpt>
      <trkpt lat="43.61785" lon="6.69853">
        <ele>241.48</ele>
        <time>2019-12-08T09:57:27.000Z</time>
      </trkpt>
      <trkpt lat="43.61786" lon="6.69845">
        <ele>241.79</ele>
        <time>2019-12-08T09:57:28.000Z</time>
      </trkpt>
      <trkpt lat="43.61786" lon="6.69838">
        <ele>241.94</ele>
        <time>2019-12-08T09:57:29.000Z</time>
      </trkpt>
      <trkpt lat="43.61787" lon="6.6983">
        <ele>242.26</ele>
        <time>2019-12-08T09:57:30.000Z</time>
      </trkpt>
      <trkpt lat="43.61787" lon="6.69822">
        <ele>242.55</ele>
        <time>2019-12-08T09:57:31.000Z</time>
      </trkpt>
      <trkpt lat="43.61788" lon="6.69814">
        <ele>242.73</ele>
        <time>2019-12-08T09:57:32.000Z</time>
      </trkpt>
      <trkpt lat="43.61788" lon="6.69806">
        <ele>242.78</ele>
        <time>2019-12-08T09:57:33.000Z</time>
      </trkpt>
      <trkpt lat="43.61788" lon="6.69798">
        <ele>242.9</ele>
        <time>2019-12-08T09:57:34.000Z</time>
      </trkpt>
      <trkpt lat="43.61788" lon="6.6979">
        <ele>242.98</ele>
        <time>2019-12-08T09:57:35.000Z</time>
      </trkpt>
      <trkpt lat="43.61788" lon="6.69782">
        <ele>243.06</ele>
        <time>2019-12-08T09:57:36.000Z</time>
      </trkpt>
      <trkpt lat="43.61788" lon="6.69774">
        <ele>243.11</ele>
        <time>2019-12-08T09:57:37.000Z</time>
      </trkpt>
      <trkpt lat="43.61788" lon="6.69766">
        <ele>243.21</ele>
        <time>2019-12-08T09:57:38.000Z</time>
      </trkpt>
      <trkpt lat="43.61788" lon="6.69757">
        <ele>243.21</ele>
        <time>2019-12-08T09:57:39.000Z</time>
      </trkpt>
      <trkpt lat="43.61788" lon="6.69749">
        <ele>243.4</ele>
        <time>2019-12-08T09:57:40.000Z</time>
      </trkpt>
      <trkpt lat="43.61787" lon="6.69741">
        <ele>243.5</ele>
        <time>2019-12-08T09:57:41.000Z</time>
      </trkpt>
      <trkpt lat="43.61787" lon="6.69733">
        <ele>243.5</ele>
        <time>2019-12-08T09:57:42.000Z</time>
      </trkpt>
      <trkpt lat="43.61788" lon="6.69725">
        <ele>243.67</ele>
        <time>2019-12-08T09:57:43.000Z</time>
      </trkpt>
      <trkpt lat="43.61788" lon="6.69716">
        <ele>243.83</ele>
        <time>2019-12-08T09:57:44.000Z</time>
      </trkpt>
      <trkpt lat="43.61789" lon="6.69708">
        <ele>243.89</ele>
        <time>2019-12-08T09:57:45.000Z</time>
      </trkpt>
      <trkpt lat="43.61789" lon="6.69699">
        <ele>243.96</ele>
        <time>2019-12-08T09:57:46.000Z</time>
      </trkpt>
      <trkpt lat="43.6179" lon="6.69691">
        <ele>243.96</ele>
        <time>2019-12-08T09:57:47.000Z</time>
      </trkpt>
      <trkpt lat="43.61791" lon="6.69682">
        <ele>244.03</ele>
        <time>2019-12-08T09:57:48.000Z</time>
      </trkpt>
      <trkpt lat="43.61793" lon="6.69674">
        <ele>244.08</ele>
        <time>2019-12-08T09:57:49.000Z</time>
      </trkpt>
      <trkpt lat="43.61795" lon="6.69666">
        <ele>244.14</ele>
        <time>2019-12-08T09:57:50.000Z</time>
      </trkpt>
      <trkpt lat="43.61797" lon="6.69658">
        <ele>244.25</ele>
        <time>2019-12-08T09:57:51.000Z</time>
      </trkpt>
      <trkpt lat="43.618" lon="6.69651">
        <ele>244.38</ele>
        <time>2019-12-08T09:57:52.000Z</time>
      </trkpt>
      <trkpt lat="43.61802" lon="6.69643">
        <ele>244.43</ele>
        <time>2019-12-08T09:57:53.000Z</time>
      </trkpt>
      <trkpt lat="43.61805" lon="6.69636">
        <ele>244.64</ele>
        <time>2019-12-08T09:57:54.000Z</time>
      </trkpt>
      <trkpt lat="43.61808" lon="6.69629">
        <ele>244.86</ele>
        <time>2019-12-08T09:57:55.000Z</time>
      </trkpt>
      <trkpt lat="43.61811" lon="6.69622">
        <ele>245.18</ele>
        <time>2019-12-08T09:57:56.000Z</time>
      </trkpt>
      <trkpt lat="43.61814" lon="6.69616">
        <ele>245.51</ele>
        <time>2019-12-08T09:57:57.000Z</time>
      </trkpt>
      <trkpt lat="43.61817" lon="6.6961">
        <ele>245.66</ele>
        <time>2019-12-08T09:57:58.000Z</time>
      </trkpt>
      <trkpt lat="43.61821" lon="6.69603">
        <ele>245.97</ele>
        <time>2019-12-08T09:57:59.000Z</time>
      </trkpt>
      <trkpt lat="43.61824" lon="6.69597">
        <ele>246.19</ele>
        <time>2019-12-08T09:58:00.000Z</time>
      </trkpt>
      <trkpt lat="43.61827" lon="6.69591">
        <ele>246.5</ele>
        <time>2019-12-08T09:58:01.000Z</time>
      </trkpt>
      <trkpt lat="43.6183" lon="6.69585">
        <ele>246.68</ele>
        <time>2019-12-08T09:58:02.000Z</time>
      </trkpt>
      <trkpt lat="43.61833" lon="6.69579">
        <ele>247.08</ele>
        <time>2019-12-08T09:58:03.000Z</time>
      </trkpt>
      <trkpt lat="43.61836" lon="6.69573">
        <ele>247.43</ele>
        <time>2019-12-08T09:58:04.000Z</time>
      </trkpt>
      <trkpt lat="43.61839" lon="6.69567">
        <ele>247.74</ele>
        <time>2019-12-08T09:58:05.000Z</time>
      </trkpt>
      <trkpt lat="43.61842" lon="6.69561">
        <ele>247.87</ele>
        <time>2019-12-08T09:58:06.000Z</time>
      </trkpt>
      <trkpt lat="43.61845" lon="6.69555">
        <ele>248.03</ele>
        <time>2019-12-08T09:58:07.000Z</time>
      </trkpt>
      <trkpt lat="43.61848" lon="6.69549">
        <ele>248.25</ele>
        <time>2019-12-08T09:58:08.000Z</time>
      </trkpt>
      <trkpt lat="43.61851" lon="6.69544">
        <ele>248.44</ele>
        <time>2019-12-08T09:58:09.000Z</time>
      </trkpt>
      <trkpt lat="43.61854" lon="6.69538">
        <ele>248.54</ele>
        <time>2019-12-08T09:58:10.000Z</time>
      </trkpt>
      <trkpt lat="43.61856" lon="6.69532">
        <ele>248.81</ele>
        <time>2019-12-08T09:58:11.000Z</time>
      </trkpt>
      <trkpt lat="43.61859" lon="6.69526">
        <ele>249</ele>
        <time>2019-12-08T09:58:12.000Z</time>
      </trkpt>
      <trkpt lat="43.61862" lon="6.6952">
        <ele>249.19</ele>
        <time>2019-12-08T09:58:13.000Z</time>
      </trkpt>
      <trkpt lat="43.61864" lon="6.69513">
        <ele>249.28</ele>
        <time>2019-12-08T09:58:14.000Z</time>
      </trkpt>
      <trkpt lat="43.61867" lon="6.69507">
        <ele>249.43</ele>
        <time>2019-12-08T09:58:15.000Z</time>
      </trkpt>
      <trkpt lat="43.61869" lon="6.695">
        <ele>249.63</ele>
        <time>2019-12-08T09:58:16.000Z</time>
      </trkpt>
      <trkpt lat="43.61872" lon="6.69494">
        <ele>249.84</ele>
        <time>2019-12-08T09:58:17.000Z</time>
      </trkpt>
      <trkpt lat="43.61875" lon="6.69487">
        <ele>250.01</ele>
        <time>2019-12-08T09:58:18.000Z</time>
      </trkpt>
      <trkpt lat="43.61877" lon="6.69481">
        <ele>250.16</ele>
        <time>2019-12-08T09:58:19.000Z</time>
      </trkpt>
      <trkpt lat="43.6188" lon="6.69475">
        <ele>250.38</ele>
        <time>2019-12-08T09:58:20.000Z</time>
      </trkpt>
      <trkpt lat="43.61883" lon="6.69468">
        <ele>250.61</ele>
        <time>2019-12-08T09:58:21.000Z</time>
      </trkpt>
      <trkpt lat="43.61885" lon="6.69462">
        <ele>250.75</ele>
        <time>2019-12-08T09:58:22.000Z</time>
      </trkpt>
      <trkpt lat="43.61888" lon="6.69455">
        <ele>251.1</ele>
        <time>2019-12-08T09:58:23.000Z</time>
      </trkpt>
      <trkpt lat="43.61891" lon="6.69449">
        <ele>251.34</ele>
        <time>2019-12-08T09:58:24.000Z</time>
      </trkpt>
      <trkpt lat="43.61893" lon="6.69443">
        <ele>251.63</ele>
        <time>2019-12-08T09:58:25.000Z</time>
      </trkpt>
      <trkpt lat="43.61896" lon="6.69436">
        <ele>251.79</ele>
        <time>2019-12-08T09:58:26.000Z</time>
      </trkpt>
      <trkpt lat="43.61899" lon="6.6943">
        <ele>251.85</ele>
        <time>2019-12-08T09:58:27.000Z</time>
      </trkpt>
      <trkpt lat="43.61901" lon="6.69423">
        <ele>252.01</ele>
        <time>2019-12-08T09:58:28.000Z</time>
      </trkpt>
      <trkpt lat="43.61904" lon="6.69417">
        <ele>252.22</ele>
        <time>2019-12-08T09:58:29.000Z</time>
      </trkpt>
      <trkpt lat="43.61906" lon="6.6941">
        <ele>252.47</ele>
        <time>2019-12-08T09:58:30.000Z</time>
      </trkpt>
      <trkpt lat="43.61909" lon="6.69404">
        <ele>252.6</ele>
        <time>2019-12-08T09:58:31.000Z</time>
      </trkpt>
      <trkpt lat="43.61912" lon="6.69397">
        <ele>252.79</ele>
        <time>2019-12-08T09:58:32.000Z</time>
      </trkpt>
      <trkpt lat="43.61914" lon="6.69391">
        <ele>253.09</ele>
        <time>2019-12-08T09:58:33.000Z</time>
      </trkpt>
      <trkpt lat="43.61917" lon="6.69384">
        <ele>253.3</ele>
        <time>2019-12-08T09:58:34.000Z</time>
      </trkpt>
      <trkpt lat="43.61919" lon="6.69378">
        <ele>253.41</ele>
        <time>2019-12-08T09:58:35.000Z</time>
      </trkpt>
      <trkpt lat="43.61922" lon="6.69371">
        <ele>253.69</ele>
        <time>2019-12-08T09:58:36.000Z</time>
      </trkpt>
      <trkpt lat="43.61925" lon="6.69365">
        <ele>253.91</ele>
        <time>2019-12-08T09:58:37.000Z</time>
      </trkpt>
      <trkpt lat="43.61928" lon="6.69358">
        <ele>254.08</ele>
        <time>2019-12-08T09:58:38.000Z</time>
      </trkpt>
      <trkpt lat="43.61931" lon="6.69352">
        <ele>254.23</ele>
        <time>2019-12-08T09:58:39.000Z</time>
      </trkpt>
      <trkpt lat="43.61934" lon="6.69345">
        <ele>254.44</ele>
        <time>2019-12-08T09:58:40.000Z</time>
      </trkpt>
      <trkpt lat="43.61937" lon="6.69339">
        <ele>254.64</ele>
        <time>2019-12-08T09:58:41.000Z</time>
      </trkpt>
      <trkpt lat="43.61941" lon="6.69332">
        <ele>254.81</ele>
        <time>2019-12-08T09:58:42.000Z</time>
      </trkpt>
      <trkpt lat="43.61945" lon="6.69326">
        <ele>254.84</ele>
        <time>2019-12-08T09:58:43.000Z</time>
      </trkpt>
      <trkpt lat="43.61948" lon="6.69319">
        <ele>254.72</ele>
        <time>2019-12-08T09:58:44.000Z</time>
      </trkpt>
      <trkpt lat="43.61952" lon="6.69312">
        <ele>254.63</ele>
        <time>2019-12-08T09:58:45.000Z</time>
      </trkpt>
      <trkpt lat="43.61955" lon="6.69305">
        <ele>254.49</ele>
        <time>2019-12-08T09:58:46.000Z</time>
      </trkpt>
      <trkpt lat="43.61958" lon="6.69297">
        <ele>254.48</ele>
        <time>2019-12-08T09:58:47.000Z</time>
      </trkpt>
      <trkpt lat="43.61961" lon="6.69289">
        <ele>254.67</ele>
        <time>2019-12-08T09:58:48.000Z</time>
      </trkpt>
      <trkpt lat="43.61964" lon="6.69281">
        <ele>254.81</ele>
        <time>2019-12-08T09:58:49.000Z</time>
      </trkpt>
      <trkpt lat="43.61968" lon="6.69273">
        <ele>254.75</ele>
        <time>2019-12-08T09:58:50.000Z</time>
      </trkpt>
      <trkpt lat="43.61972" lon="6.69266">
        <ele>254.74</ele>
        <time>2019-12-08T09:58:51.000Z</time>
      </trkpt>
      <trkpt lat="43.61976" lon="6.69259">
        <ele>254.68</ele>
        <time>2019-12-08T09:58:52.000Z</time>
      </trkpt>
      <trkpt lat="43.6198" lon="6.69252">
        <ele>254.53</ele>
        <time>2019-12-08T09:58:53.000Z</time>
      </trkpt>
      <trkpt lat="43.61984" lon="6.69245">
        <ele>254.53</ele>
        <time>2019-12-08T09:58:54.000Z</time>
      </trkpt>
      <trkpt lat="43.61989" lon="6.69239">
        <ele>254.69</ele>
        <time>2019-12-08T09:58:55.000Z</time>
      </trkpt>
      <trkpt lat="43.61994" lon="6.69234">
        <ele>254.82</ele>
        <time>2019-12-08T09:58:56.000Z</time>
      </trkpt>
      <trkpt lat="43.61999" lon="6.69229">
        <ele>255.11</ele>
        <time>2019-12-08T09:58:57.000Z</time>
      </trkpt>
      <trkpt lat="43.62004" lon="6.69225">
        <ele>255.47</ele>
        <time>2019-12-08T09:58:58.000Z</time>
      </trkpt>
      <trkpt lat="43.62009" lon="6.69221">
        <ele>255.64</ele>
        <time>2019-12-08T09:58:59.000Z</time>
      </trkpt>
      <trkpt lat="43.62015" lon="6.69218">
        <ele>256.02</ele>
        <time>2019-12-08T09:59:00.000Z</time>
      </trkpt>
      <trkpt lat="43.6202" lon="6.69215">
        <ele>256.32</ele>
        <time>2019-12-08T09:59:01.000Z</time>
      </trkpt>
      <trkpt lat="43.62025" lon="6.69213">
        <ele>256.68</ele>
        <time>2019-12-08T09:59:02.000Z</time>
      </trkpt>
      <trkpt lat="43.62029" lon="6.69211">
        <ele>257.12</ele>
        <time>2019-12-08T09:59:03.000Z</time>
      </trkpt>
      <trkpt lat="43.62034" lon="6.69209">
        <ele>257.3</ele>
        <time>2019-12-08T09:59:04.000Z</time>
      </trkpt>
      <trkpt lat="43.62039" lon="6.69207">
        <ele>257.67</ele>
        <time>2019-12-08T09:59:05.000Z</time>
      </trkpt>
      <trkpt lat="43.62044" lon="6.69205">
        <ele>258.03</ele>
        <time>2019-12-08T09:59:06.000Z</time>
      </trkpt>
      <trkpt lat="43.62048" lon="6.69203">
        <ele>258.32</ele>
        <time>2019-12-08T09:59:07.000Z</time>
      </trkpt>
      <trkpt lat="43.62053" lon="6.69201">
        <ele>258.45</ele>
        <time>2019-12-08T09:59:08.000Z</time>
      </trkpt>
      <trkpt lat="43.62057" lon="6.692">
        <ele>258.74</ele>
        <time>2019-12-08T09:59:09.000Z</time>
      </trkpt>
      <trkpt lat="43.62061" lon="6.69198">
        <ele>259.04</ele>
        <time>2019-12-08T09:59:10.000Z</time>
      </trkpt>
      <trkpt lat="43.62066" lon="6.69196">
        <ele>259.43</ele>
        <time>2019-12-08T09:59:11.000Z</time>
      </trkpt>
      <trkpt lat="43.6207" lon="6.69194">
        <ele>259.62</ele>
        <time>2019-12-08T09:59:12.000Z</time>
      </trkpt>
      <trkpt lat="43.62075" lon="6.69192">
        <ele>259.78</ele>
        <time>2019-12-08T09:59:13.000Z</time>
      </trkpt>
      <trkpt lat="43.62079" lon="6.6919">
        <ele>260.13</ele>
        <time>2019-12-08T09:59:14.000Z</time>
      </trkpt>
      <trkpt lat="43.62083" lon="6.69189">
        <ele>260.51</ele>
        <time>2019-12-08T09:59:15.000Z</time>
      </trkpt>
      <trkpt lat="43.62088" lon="6.69187">
        <ele>260.67</ele>
        <time>2019-12-08T09:59:16.000Z</time>
      </trkpt>
      <trkpt lat="43.62092" lon="6.69185">
        <ele>260.99</ele>
        <time>2019-12-08T09:59:17.000Z</time>
      </trkpt>
      <trkpt lat="43.62097" lon="6.69183">
        <ele>261.28</ele>
        <time>2019-12-08T09:59:18.000Z</time>
      </trkpt>
      <trkpt lat="43.62101" lon="6.69182">
        <ele>261.51</ele>
        <time>2019-12-08T09:59:19.000Z</time>
      </trkpt>
      <trkpt lat="43.62106" lon="6.6918">
        <ele>261.59</ele>
        <time>2019-12-08T09:59:20.000Z</time>
      </trkpt>
      <trkpt lat="43.6211" lon="6.69178">
        <ele>261.71</ele>
        <time>2019-12-08T09:59:21.000Z</time>
      </trkpt>
      <trkpt lat="43.62115" lon="6.69176">
        <ele>261.83</ele>
        <time>2019-12-08T09:59:22.000Z</time>
      </trkpt>
      <trkpt lat="43.62119" lon="6.69174">
        <ele>261.95</ele>
        <time>2019-12-08T09:59:23.000Z</time>
      </trkpt>
      <trkpt lat="43.62124" lon="6.69171">
        <ele>262.03</ele>
        <time>2019-12-08T09:59:24.000Z</time>
      </trkpt>
      <trkpt lat="43.62129" lon="6.69169">
        <ele>262.06</ele>
        <time>2019-12-08T09:59:25.000Z</time>
      </trkpt>
      <trkpt lat="43.62133" lon="6.69167">
        <ele>262.21</ele>
        <time>2019-12-08T09:59:26.000Z</time>
      </trkpt>
      <trkpt lat="43.62138" lon="6.69164">
        <ele>262.25</ele>
        <time>2019-12-08T09:59:27.000Z</time>
      </trkpt>
      <trkpt lat="43.62142" lon="6.69161">
        <ele>262.29</ele>
        <time>2019-12-08T09:59:28.000Z</time>
      </trkpt>
      <trkpt lat="43.62147" lon="6.69158">
        <ele>262.41</ele>
        <time>2019-12-08T09:59:29.000Z</time>
      </trkpt>
      <trkpt lat="43.62151" lon="6.69154">
        <ele>262.5</ele>
        <time>2019-12-08T09:59:30.000Z</time>
      </trkpt>
      <trkpt lat="43.62155" lon="6.6915">
        <ele>262.56</ele>
        <time>2019-12-08T09:59:31.000Z</time>
      </trkpt>
      <trkpt lat="43.62159" lon="6.69146">
        <ele>262.64</ele>
        <time>2019-12-08T09:59:32.000Z</time>
      </trkpt>
      <trkpt lat="43.62164" lon="6.69141">
        <ele>262.64</ele>
        <time>2019-12-08T09:59:33.000Z</time>
      </trkpt>
      <trkpt lat="43.62168" lon="6.69136">
        <ele>262.58</ele>
        <time>2019-12-08T09:59:34.000Z</time>
      </trkpt>
      <trkpt lat="43.62172" lon="6.69131">
        <ele>262.49</ele>
        <time>2019-12-08T09:59:35.000Z</time>
      </trkpt>
      <trkpt lat="43.62175" lon="6.69126">
        <ele>262.41</ele>
        <time>2019-12-08T09:59:36.000Z</time>
      </trkpt>
      <trkpt lat="43.62179" lon="6.6912">
        <ele>262.39</ele>
        <time>2019-12-08T09:59:37.000Z</time>
      </trkpt>
      <trkpt lat="43.62183" lon="6.69115">
        <ele>262.35</ele>
        <time>2019-12-08T09:59:38.000Z</time>
      </trkpt>
      <trkpt lat="43.62186" lon="6.69109">
        <ele>262.39</ele>
        <time>2019-12-08T09:59:39.000Z</time>
      </trkpt>
      <trkpt lat="43.6219" lon="6.69104">
        <ele>262.47</ele>
        <time>2019-12-08T09:59:40.000Z</time>
      </trkpt>
      <trkpt lat="43.62194" lon="6.69099">
        <ele>262.62</ele>
        <time>2019-12-08T09:59:41.000Z</time>
      </trkpt>
      <trkpt lat="43.62197" lon="6.69094">
        <ele>262.84</ele>
        <time>2019-12-08T09:59:42.000Z</time>
      </trkpt>
      <trkpt lat="43.622" lon="6.69087">
        <ele>263.09</ele>
        <time>2019-12-08T09:59:43.000Z</time>
      </trkpt>
      <trkpt lat="43.622" lon="6.69079">
        <ele>263.26</ele>
        <time>2019-12-08T09:59:44.000Z</time>
      </trkpt>
      <trkpt lat="43.62199" lon="6.6907">
        <ele>263.26</ele>
        <time>2019-12-08T09:59:45.000Z</time>
      </trkpt>
      <trkpt lat="43.62198" lon="6.69061">
        <ele>263.26</ele>
        <time>2019-12-08T09:59:46.000Z</time>
      </trkpt>
      <trkpt lat="43.62198" lon="6.69051">
        <ele>262.94</ele>
        <time>2019-12-08T09:59:47.000Z</time>
      </trkpt>
      <trkpt lat="43.62199" lon="6.69041">
        <ele>262.56</ele>
        <time>2019-12-08T09:59:48.000Z</time>
      </trkpt>
      <trkpt lat="43.62199" lon="6.6903">
        <ele>262.3</ele>
        <time>2019-12-08T09:59:49.000Z</time>
      </trkpt>
      <trkpt lat="43.622" lon="6.69019">
        <ele>261.84</ele>
        <time>2019-12-08T09:59:50.000Z</time>
      </trkpt>
      <trkpt lat="43.62202" lon="6.69008">
        <ele>261.41</ele>
        <time>2019-12-08T09:59:51.000Z</time>
      </trkpt>
      <trkpt lat="43.62205" lon="6.68997">
        <ele>261.07</ele>
        <time>2019-12-08T09:59:52.000Z</time>
      </trkpt>
      <trkpt lat="43.62208" lon="6.68986">
        <ele>261</ele>
        <time>2019-12-08T09:59:53.000Z</time>
      </trkpt>
      <trkpt lat="43.62211" lon="6.68976">
        <ele>261.02</ele>
        <time>2019-12-08T09:59:54.000Z</time>
      </trkpt>
      <trkpt lat="43.62216" lon="6.68967">
        <ele>261.19</ele>
        <time>2019-12-08T09:59:55.000Z</time>
      </trkpt>
      <trkpt lat="43.6222" lon="6.68959">
        <ele>261.45</ele>
        <time>2019-12-08T09:59:56.000Z</time>
      </trkpt>
      <trkpt lat="43.62224" lon="6.68951">
        <ele>261.5</ele>
        <time>2019-12-08T09:59:57.000Z</time>
      </trkpt>
      <trkpt lat="43.62229" lon="6.68944">
        <ele>261.61</ele>
        <time>2019-12-08T09:59:58.000Z</time>
      </trkpt>
      <trkpt lat="43.62234" lon="6.68937">
        <ele>261.61</ele>
        <time>2019-12-08T09:59:59.000Z</time>
      </trkpt>
      <trkpt lat="43.62238" lon="6.6893">
        <ele>261.74</ele>
        <time>2019-12-08T10:00:00.000Z</time>
      </trkpt>
      <trkpt lat="43.62243" lon="6.68923">
        <ele>261.79</ele>
        <time>2019-12-08T10:00:01.000Z</time>
      </trkpt>
      <trkpt lat="43.62247" lon="6.68917">
        <ele>261.87</ele>
        <time>2019-12-08T10:00:02.000Z</time>
      </trkpt>
      <trkpt lat="43.62251" lon="6.6891">
        <ele>262.06</ele>
        <time>2019-12-08T10:00:03.000Z</time>
      </trkpt>
      <trkpt lat="43.62256" lon="6.68903">
        <ele>262.2</ele>
        <time>2019-12-08T10:00:04.000Z</time>
      </trkpt>
      <trkpt lat="43.6226" lon="6.68896">
        <ele>262.29</ele>
        <time>2019-12-08T10:00:05.000Z</time>
      </trkpt>
      <trkpt lat="43.62265" lon="6.68889">
        <ele>262.41</ele>
        <time>2019-12-08T10:00:06.000Z</time>
      </trkpt>
      <trkpt lat="43.62269" lon="6.68883">
        <ele>262.56</ele>
        <time>2019-12-08T10:00:07.000Z</time>
      </trkpt>
      <trkpt lat="43.62273" lon="6.68876">
        <ele>262.61</ele>
        <time>2019-12-08T10:00:08.000Z</time>
      </trkpt>
      <trkpt lat="43.62278" lon="6.68869">
        <ele>262.58</ele>
        <time>2019-12-08T10:00:09.000Z</time>
      </trkpt>
      <trkpt lat="43.62282" lon="6.68862">
        <ele>262.58</ele>
        <time>2019-12-08T10:00:10.000Z</time>
      </trkpt>
      <trkpt lat="43.62287" lon="6.68856">
        <ele>262.52</ele>
        <time>2019-12-08T10:00:11.000Z</time>
      </trkpt>
      <trkpt lat="43.62292" lon="6.68849">
        <ele>262.5</ele>
        <time>2019-12-08T10:00:12.000Z</time>
      </trkpt>
      <trkpt lat="43.62296" lon="6.68842">
        <ele>262.48</ele>
        <time>2019-12-08T10:00:13.000Z</time>
      </trkpt>
      <trkpt lat="43.62301" lon="6.68835">
        <ele>262.43</ele>
        <time>2019-12-08T10:00:14.000Z</time>
      </trkpt>
      <trkpt lat="43.62306" lon="6.68828">
        <ele>262.36</ele>
        <time>2019-12-08T10:00:15.000Z</time>
      </trkpt>
      <trkpt lat="43.62311" lon="6.68821">
        <ele>262.32</ele>
        <time>2019-12-08T10:00:16.000Z</time>
      </trkpt>
      <trkpt lat="43.62316" lon="6.68814">
        <ele>262.27</ele>
        <time>2019-12-08T10:00:17.000Z</time>
      </trkpt>
      <trkpt lat="43.62321" lon="6.68806">
        <ele>262.29</ele>
        <time>2019-12-08T10:00:18.000Z</time>
      </trkpt>
      <trkpt lat="43.62326" lon="6.68799">
        <ele>262.36</ele>
        <time>2019-12-08T10:00:19.000Z</time>
      </trkpt>
      <trkpt lat="43.62331" lon="6.68792">
        <ele>262.42</ele>
        <time>2019-12-08T10:00:20.000Z</time>
      </trkpt>
      <trkpt lat="43.62336" lon="6.68785">
        <ele>262.4</ele>
        <time>2019-12-08T10:00:21.000Z</time>
      </trkpt>
      <trkpt lat="43.6234" lon="6.68778">
        <ele>262.38</ele>
        <time>2019-12-08T10:00:22.000Z</time>
      </trkpt>
      <trkpt lat="43.62345" lon="6.6877">
        <ele>262.28</ele>
        <time>2019-12-08T10:00:23.000Z</time>
      </trkpt>
      <trkpt lat="43.6235" lon="6.68762">
        <ele>262.18</ele>
        <time>2019-12-08T10:00:24.000Z</time>
      </trkpt>
      <trkpt lat="43.62354" lon="6.68754">
        <ele>262.23</ele>
        <time>2019-12-08T10:00:25.000Z</time>
      </trkpt>
      <trkpt lat="43.62357" lon="6.68744">
        <ele>262.26</ele>
        <time>2019-12-08T10:00:26.000Z</time>
      </trkpt>
      <trkpt lat="43.62359" lon="6.68735">
        <ele>262.3</ele>
        <time>2019-12-08T10:00:27.000Z</time>
      </trkpt>
      <trkpt lat="43.62361" lon="6.68725">
        <ele>262.33</ele>
        <time>2019-12-08T10:00:28.000Z</time>
      </trkpt>
      <trkpt lat="43.62363" lon="6.68715">
        <ele>262.42</ele>
        <time>2019-12-08T10:00:29.000Z</time>
      </trkpt>
      <trkpt lat="43.62365" lon="6.68704">
        <ele>262.41</ele>
        <time>2019-12-08T10:00:30.000Z</time>
      </trkpt>
      <trkpt lat="43.62368" lon="6.68694">
        <ele>262.45</ele>
        <time>2019-12-08T10:00:31.000Z</time>
      </trkpt>
      <trkpt lat="43.62371" lon="6.68685">
        <ele>262.53</ele>
        <time>2019-12-08T10:00:32.000Z</time>
      </trkpt>
      <trkpt lat="43.62374" lon="6.68675">
        <ele>262.61</ele>
        <time>2019-12-08T10:00:33.000Z</time>
      </trkpt>
      <trkpt lat="43.62377" lon="6.68665">
        <ele>262.58</ele>
        <time>2019-12-08T10:00:34.000Z</time>
      </trkpt>
      <trkpt lat="43.62381" lon="6.68655">
        <ele>262.53</ele>
        <time>2019-12-08T10:00:35.000Z</time>
      </trkpt>
      <trkpt lat="43.62384" lon="6.68645">
        <ele>262.42</ele>
        <time>2019-12-08T10:00:36.000Z</time>
      </trkpt>
      <trkpt lat="43.62387" lon="6.68636">
        <ele>262.31</ele>
        <time>2019-12-08T10:00:37.000Z</time>
      </trkpt>
      <trkpt lat="43.6239" lon="6.68626">
        <ele>262.31</ele>
        <time>2019-12-08T10:00:38.000Z</time>
      </trkpt>
      <trkpt lat="43.62393" lon="6.68616">
        <ele>262.33</ele>
        <time>2019-12-08T10:00:39.000Z</time>
      </trkpt>
      <trkpt lat="43.62396" lon="6.68606">
        <ele>262.49</ele>
        <time>2019-12-08T10:00:40.000Z</time>
      </trkpt>
      <trkpt lat="43.62399" lon="6.68596">
        <ele>262.62</ele>
        <time>2019-12-08T10:00:41.000Z</time>
      </trkpt>
      <trkpt lat="43.62401" lon="6.68586">
        <ele>262.77</ele>
        <time>2019-12-08T10:00:42.000Z</time>
      </trkpt>
      <trkpt lat="43.62403" lon="6.68576">
        <ele>262.76</ele>
        <time>2019-12-08T10:00:43.000Z</time>
      </trkpt>
      <trkpt lat="43.62405" lon="6.68566">
        <ele>262.82</ele>
        <time>2019-12-08T10:00:44.000Z</time>
      </trkpt>
      <trkpt lat="43.62406" lon="6.68556">
        <ele>262.82</ele>
        <time>2019-12-08T10:00:45.000Z</time>
      </trkpt>
      <trkpt lat="43.62406" lon="6.68545">
        <ele>262.76</ele>
        <time>2019-12-08T10:00:46.000Z</time>
      </trkpt>
      <trkpt lat="43.62406" lon="6.68535">
        <ele>262.73</ele>
        <time>2019-12-08T10:00:47.000Z</time>
      </trkpt>
      <trkpt lat="43.62406" lon="6.68523">
        <ele>262.65</ele>
        <time>2019-12-08T10:00:48.000Z</time>
      </trkpt>
      <trkpt lat="43.62405" lon="6.68512">
        <ele>262.54</ele>
        <time>2019-12-08T10:00:49.000Z</time>
      </trkpt>
      <trkpt lat="43.62406" lon="6.685">
        <ele>262.41</ele>
        <time>2019-12-08T10:00:50.000Z</time>
      </trkpt>
      <trkpt lat="43.62407" lon="6.68488">
        <ele>262.27</ele>
        <time>2019-12-08T10:00:51.000Z</time>
      </trkpt>
      <trkpt lat="43.62409" lon="6.68476">
        <ele>262</ele>
        <time>2019-12-08T10:00:52.000Z</time>
      </trkpt>
      <trkpt lat="43.62411" lon="6.68465">
        <ele>261.7</ele>
        <time>2019-12-08T10:00:53.000Z</time>
      </trkpt>
      <trkpt lat="43.62414" lon="6.68453">
        <ele>261.38</ele>
        <time>2019-12-08T10:00:54.000Z</time>
      </trkpt>
      <trkpt lat="43.62417" lon="6.68442">
        <ele>261.28</ele>
        <time>2019-12-08T10:00:55.000Z</time>
      </trkpt>
      <trkpt lat="43.6242" lon="6.68431">
        <ele>261.15</ele>
        <time>2019-12-08T10:00:56.000Z</time>
      </trkpt>
      <trkpt lat="43.62424" lon="6.68421">
        <ele>260.84</ele>
        <time>2019-12-08T10:00:57.000Z</time>
      </trkpt>
      <trkpt lat="43.62428" lon="6.6841">
        <ele>260.84</ele>
        <time>2019-12-08T10:00:58.000Z</time>
      </trkpt>
      <trkpt lat="43.62432" lon="6.684">
        <ele>260.68</ele>
        <time>2019-12-08T10:00:59.000Z</time>
      </trkpt>
      <trkpt lat="43.62436" lon="6.6839">
        <ele>260.68</ele>
        <time>2019-12-08T10:01:00.000Z</time>
      </trkpt>
      <trkpt lat="43.6244" lon="6.68381">
        <ele>260.4</ele>
        <time>2019-12-08T10:01:01.000Z</time>
      </trkpt>
      <trkpt lat="43.62445" lon="6.68373">
        <ele>260.15</ele>
        <time>2019-12-08T10:01:02.000Z</time>
      </trkpt>
      <trkpt lat="43.62451" lon="6.68365">
        <ele>260.09</ele>
        <time>2019-12-08T10:01:03.000Z</time>
      </trkpt>
      <trkpt lat="43.62457" lon="6.68358">
        <ele>260.01</ele>
        <time>2019-12-08T10:01:04.000Z</time>
      </trkpt>
      <trkpt lat="43.62464" lon="6.68351">
        <ele>260.06</ele>
        <time>2019-12-08T10:01:05.000Z</time>
      </trkpt>
      <trkpt lat="43.62471" lon="6.68345">
        <ele>260.14</ele>
        <time>2019-12-08T10:01:06.000Z</time>
      </trkpt>
      <trkpt lat="43.62477" lon="6.68339">
        <ele>260.19</ele>
        <time>2019-12-08T10:01:07.000Z</time>
      </trkpt>
      <trkpt lat="43.62484" lon="6.68332">
        <ele>260.21</ele>
        <time>2019-12-08T10:01:08.000Z</time>
      </trkpt>
      <trkpt lat="43.6249" lon="6.68325">
        <ele>260.22</ele>
        <time>2019-12-08T10:01:09.000Z</time>
      </trkpt>
      <trkpt lat="43.62496" lon="6.68318">
        <ele>260.08</ele>
        <time>2019-12-08T10:01:10.000Z</time>
      </trkpt>
      <trkpt lat="43.62503" lon="6.6831">
        <ele>259.76</ele>
        <time>2019-12-08T10:01:11.000Z</time>
      </trkpt>
      <trkpt lat="43.62509" lon="6.68301">
        <ele>259.53</ele>
        <time>2019-12-08T10:01:12.000Z</time>
      </trkpt>
      <trkpt lat="43.62514" lon="6.68292">
        <ele>259.21</ele>
        <time>2019-12-08T10:01:13.000Z</time>
      </trkpt>
      <trkpt lat="43.62518" lon="6.68281">
        <ele>258.91</ele>
        <time>2019-12-08T10:01:14.000Z</time>
      </trkpt>
      <trkpt lat="43.62522" lon="6.68269">
        <ele>258.67</ele>
        <time>2019-12-08T10:01:15.000Z</time>
      </trkpt>
      <trkpt lat="43.62525" lon="6.68257">
        <ele>258.62</ele>
        <time>2019-12-08T10:01:16.000Z</time>
      </trkpt>
      <trkpt lat="43.62528" lon="6.68245">
        <ele>258.54</ele>
        <time>2019-12-08T10:01:17.000Z</time>
      </trkpt>
      <trkpt lat="43.62531" lon="6.68233">
        <ele>258.24</ele>
        <time>2019-12-08T10:01:18.000Z</time>
      </trkpt>
      <trkpt lat="43.62534" lon="6.6822">
        <ele>257.93</ele>
        <time>2019-12-08T10:01:19.000Z</time>
      </trkpt>
      <trkpt lat="43.62537" lon="6.68208">
        <ele>257.81</ele>
        <time>2019-12-08T10:01:20.000Z</time>
      </trkpt>
      <trkpt lat="43.6254" lon="6.68196">
        <ele>257.51</ele>
        <time>2019-12-08T10:01:21.000Z</time>
      </trkpt>
      <trkpt lat="43.62544" lon="6.68184">
        <ele>257.31</ele>
        <time>2019-12-08T10:01:22.000Z</time>
      </trkpt>
      <trkpt lat="43.62548" lon="6.68173">
        <ele>257.31</ele>
        <time>2019-12-08T10:01:23.000Z</time>
      </trkpt>
      <trkpt lat="43.62554" lon="6.68164">
        <ele>257.2</ele>
        <time>2019-12-08T10:01:24.000Z</time>
      </trkpt>
      <trkpt lat="43.6256" lon="6.68155">
        <ele>257.06</ele>
        <time>2019-12-08T10:01:25.000Z</time>
      </trkpt>
      <trkpt lat="43.62567" lon="6.68147">
        <ele>256.89</ele>
        <time>2019-12-08T10:01:26.000Z</time>
      </trkpt>
      <trkpt lat="43.62572" lon="6.68138">
        <ele>256.78</ele>
        <time>2019-12-08T10:01:27.000Z</time>
      </trkpt>
      <trkpt lat="43.62577" lon="6.68129">
        <ele>256.73</ele>
        <time>2019-12-08T10:01:28.000Z</time>
      </trkpt>
      <trkpt lat="43.62582" lon="6.68119">
        <ele>256.73</ele>
        <time>2019-12-08T10:01:29.000Z</time>
      </trkpt>
      <trkpt lat="43.62586" lon="6.68109">
        <ele>256.77</ele>
        <time>2019-12-08T10:01:30.000Z</time>
      </trkpt>
      <trkpt lat="43.6259" lon="6.68099">
        <ele>256.83</ele>
        <time>2019-12-08T10:01:31.000Z</time>
      </trkpt>
      <trkpt lat="43.62594" lon="6.68089">
        <ele>256.9</ele>
        <time>2019-12-08T10:01:32.000Z</time>
      </trkpt>
      <trkpt lat="43.62597" lon="6.68079">
        <ele>256.96</ele>
        <time>2019-12-08T10:01:33.000Z</time>
      </trkpt>
      <trkpt lat="43.62601" lon="6.68069">
        <ele>257.1</ele>
        <time>2019-12-08T10:01:34.000Z</time>
      </trkpt>
      <trkpt lat="43.62605" lon="6.68059">
        <ele>257.22</ele>
        <time>2019-12-08T10:01:35.000Z</time>
      </trkpt>
      <trkpt lat="43.62608" lon="6.6805">
        <ele>257.31</ele>
        <time>2019-12-08T10:01:36.000Z</time>
      </trkpt>
      <trkpt lat="43.62611" lon="6.6804">
        <ele>257.43</ele>
        <time>2019-12-08T10:01:37.000Z</time>
      </trkpt>
      <trkpt lat="43.62615" lon="6.68031">
        <ele>257.61</ele>
        <time>2019-12-08T10:01:38.000Z</time>
      </trkpt>
      <trkpt lat="43.62618" lon="6.68022">
        <ele>257.83</ele>
        <time>2019-12-08T10:01:39.000Z</time>
      </trkpt>
      <trkpt lat="43.62621" lon="6.68013">
        <ele>257.99</ele>
        <time>2019-12-08T10:01:40.000Z</time>
      </trkpt>
      <trkpt lat="43.62624" lon="6.68005">
        <ele>258.05</ele>
        <time>2019-12-08T10:01:41.000Z</time>
      </trkpt>
      <trkpt lat="43.62628" lon="6.67996">
        <ele>258.27</ele>
        <time>2019-12-08T10:01:42.000Z</time>
      </trkpt>
      <trkpt lat="43.62631" lon="6.67988">
        <ele>258.46</ele>
        <time>2019-12-08T10:01:43.000Z</time>
      </trkpt>
      <trkpt lat="43.62634" lon="6.6798">
        <ele>258.51</ele>
        <time>2019-12-08T10:01:44.000Z</time>
      </trkpt>
      <trkpt lat="43.62637" lon="6.67972">
        <ele>258.76</ele>
        <time>2019-12-08T10:01:45.000Z</time>
      </trkpt>
      <trkpt lat="43.6264" lon="6.67964">
        <ele>258.97</ele>
        <time>2019-12-08T10:01:46.000Z</time>
      </trkpt>
      <trkpt lat="43.62643" lon="6.67957">
        <ele>259.09</ele>
        <time>2019-12-08T10:01:47.000Z</time>
      </trkpt>
      <trkpt lat="43.62646" lon="6.67949">
        <ele>259.35</ele>
        <time>2019-12-08T10:01:48.000Z</time>
      </trkpt>
      <trkpt lat="43.62648" lon="6.67941">
        <ele>259.45</ele>
        <time>2019-12-08T10:01:49.000Z</time>
      </trkpt>
      <trkpt lat="43.62651" lon="6.67934">
        <ele>259.76</ele>
        <time>2019-12-08T10:01:50.000Z</time>
      </trkpt>
      <trkpt lat="43.62654" lon="6.67927">
        <ele>260.16</ele>
        <time>2019-12-08T10:01:51.000Z</time>
      </trkpt>
      <trkpt lat="43.62656" lon="6.6792">
        <ele>260.59</ele>
        <time>2019-12-08T10:01:52.000Z</time>
      </trkpt>
      <trkpt lat="43.62659" lon="6.67912">
        <ele>260.77</ele>
        <time>2019-12-08T10:01:53.000Z</time>
      </trkpt>
      <trkpt lat="43.62662" lon="6.67905">
        <ele>261.03</ele>
        <time>2019-12-08T10:01:54.000Z</time>
      </trkpt>
      <trkpt lat="43.62665" lon="6.67898">
        <ele>261.19</ele>
        <time>2019-12-08T10:01:55.000Z</time>
      </trkpt>
      <trkpt lat="43.62667" lon="6.67891">
        <ele>261.24</ele>
        <time>2019-12-08T10:01:56.000Z</time>
      </trkpt>
      <trkpt lat="43.6267" lon="6.67883">
        <ele>261.16</ele>
        <time>2019-12-08T10:01:57.000Z</time>
      </trkpt>
      <trkpt lat="43.62673" lon="6.67876">
        <ele>261.14</ele>
        <time>2019-12-08T10:01:58.000Z</time>
      </trkpt>
      <trkpt lat="43.62676" lon="6.67868">
        <ele>261.16</ele>
        <time>2019-12-08T10:01:59.000Z</time>
      </trkpt>
      <trkpt lat="43.62679" lon="6.6786">
        <ele>261.18</ele>
        <time>2019-12-08T10:02:00.000Z</time>
      </trkpt>
      <trkpt lat="43.62682" lon="6.67852">
        <ele>261.2</ele>
        <time>2019-12-08T10:02:01.000Z</time>
      </trkpt>
      <trkpt lat="43.62684" lon="6.67845">
        <ele>261.32</ele>
        <time>2019-12-08T10:02:02.000Z</time>
      </trkpt>
      <trkpt lat="43.62687" lon="6.67836">
        <ele>261.39</ele>
        <time>2019-12-08T10:02:03.000Z</time>
      </trkpt>
      <trkpt lat="43.62689" lon="6.67828">
        <ele>261.53</ele>
        <time>2019-12-08T10:02:04.000Z</time>
      </trkpt>
      <trkpt lat="43.6269" lon="6.6782">
        <ele>261.56</ele>
        <time>2019-12-08T10:02:05.000Z</time>
      </trkpt>
      <trkpt lat="43.62692" lon="6.67811">
        <ele>261.6</ele>
        <time>2019-12-08T10:02:06.000Z</time>
      </trkpt>
      <trkpt lat="43.62694" lon="6.67803">
        <ele>261.7</ele>
        <time>2019-12-08T10:02:07.000Z</time>
      </trkpt>
      <trkpt lat="43.62696" lon="6.67794">
        <ele>261.68</ele>
        <time>2019-12-08T10:02:08.000Z</time>
      </trkpt>
      <trkpt lat="43.62698" lon="6.67785">
        <ele>261.78</ele>
        <time>2019-12-08T10:02:09.000Z</time>
      </trkpt>
      <trkpt lat="43.627" lon="6.67777">
        <ele>261.85</ele>
        <time>2019-12-08T10:02:10.000Z</time>
      </trkpt>
      <trkpt lat="43.62701" lon="6.67768">
        <ele>261.96</ele>
        <time>2019-12-08T10:02:11.000Z</time>
      </trkpt>
      <trkpt lat="43.62703" lon="6.6776">
        <ele>262.05</ele>
        <time>2019-12-08T10:02:12.000Z</time>
      </trkpt>
      <trkpt lat="43.62705" lon="6.67752">
        <ele>262.16</ele>
        <time>2019-12-08T10:02:13.000Z</time>
      </trkpt>
      <trkpt lat="43.62707" lon="6.67743">
        <ele>262.37</ele>
        <time>2019-12-08T10:02:14.000Z</time>
      </trkpt>
      <trkpt lat="43.62709" lon="6.67735">
        <ele>262.55</ele>
        <time>2019-12-08T10:02:15.000Z</time>
      </trkpt>
      <trkpt lat="43.6271" lon="6.67727">
        <ele>262.73</ele>
        <time>2019-12-08T10:02:16.000Z</time>
      </trkpt>
      <trkpt lat="43.62712" lon="6.6772">
        <ele>262.98</ele>
        <time>2019-12-08T10:02:17.000Z</time>
      </trkpt>
      <trkpt lat="43.62713" lon="6.67713">
        <ele>263.08</ele>
        <time>2019-12-08T10:02:18.000Z</time>
      </trkpt>
      <trkpt lat="43.62715" lon="6.67706">
        <ele>263.33</ele>
        <time>2019-12-08T10:02:19.000Z</time>
      </trkpt>
      <trkpt lat="43.62716" lon="6.67699">
        <ele>263.63</ele>
        <time>2019-12-08T10:02:20.000Z</time>
      </trkpt>
      <trkpt lat="43.62717" lon="6.67692">
        <ele>263.76</ele>
        <time>2019-12-08T10:02:21.000Z</time>
      </trkpt>
      <trkpt lat="43.62719" lon="6.67686">
        <ele>264.04</ele>
        <time>2019-12-08T10:02:22.000Z</time>
      </trkpt>
      <trkpt lat="43.6272" lon="6.6768">
        <ele>264.33</ele>
        <time>2019-12-08T10:02:23.000Z</time>
      </trkpt>
      <trkpt lat="43.62721" lon="6.67673">
        <ele>264.7</ele>
        <time>2019-12-08T10:02:24.000Z</time>
      </trkpt>
      <trkpt lat="43.62722" lon="6.67667">
        <ele>265.02</ele>
        <time>2019-12-08T10:02:25.000Z</time>
      </trkpt>
      <trkpt lat="43.62722" lon="6.67662">
        <ele>265.2</ele>
        <time>2019-12-08T10:02:26.000Z</time>
      </trkpt>
      <trkpt lat="43.62722" lon="6.67656">
        <ele>265.53</ele>
        <time>2019-12-08T10:02:27.000Z</time>
      </trkpt>
      <trkpt lat="43.62722" lon="6.6765">
        <ele>265.86</ele>
        <time>2019-12-08T10:02:28.000Z</time>
      </trkpt>
      <trkpt lat="43.62721" lon="6.67644">
        <ele>266.21</ele>
        <time>2019-12-08T10:02:29.000Z</time>
      </trkpt>
      <trkpt lat="43.6272" lon="6.67638">
        <ele>266.38</ele>
        <time>2019-12-08T10:02:30.000Z</time>
      </trkpt>
      <trkpt lat="43.62719" lon="6.67632">
        <ele>266.7</ele>
        <time>2019-12-08T10:02:31.000Z</time>
      </trkpt>
      <trkpt lat="43.62718" lon="6.67626">
        <ele>267.01</ele>
        <time>2019-12-08T10:02:32.000Z</time>
      </trkpt>
      <trkpt lat="43.62716" lon="6.67621">
        <ele>267.27</ele>
        <time>2019-12-08T10:02:33.000Z</time>
      </trkpt>
      <trkpt lat="43.62713" lon="6.67616">
        <ele>267.41</ele>
        <time>2019-12-08T10:02:34.000Z</time>
      </trkpt>
      <trkpt lat="43.62711" lon="6.67611">
        <ele>267.71</ele>
        <time>2019-12-08T10:02:35.000Z</time>
      </trkpt>
      <trkpt lat="43.62709" lon="6.67607">
        <ele>267.92</ele>
        <time>2019-12-08T10:02:36.000Z</time>
      </trkpt>
      <trkpt lat="43.62706" lon="6.67603">
        <ele>268.2</ele>
        <time>2019-12-08T10:02:37.000Z</time>
      </trkpt>
      <trkpt lat="43.62704" lon="6.67598">
        <ele>268.35</ele>
        <time>2019-12-08T10:02:38.000Z</time>
      </trkpt>
      <trkpt lat="43.62701" lon="6.67594">
        <ele>268.6</ele>
        <time>2019-12-08T10:02:39.000Z</time>
      </trkpt>
      <trkpt lat="43.62698" lon="6.6759">
        <ele>268.83</ele>
        <time>2019-12-08T10:02:40.000Z</time>
      </trkpt>
      <trkpt lat="43.62694" lon="6.67586">
        <ele>269.13</ele>
        <time>2019-12-08T10:02:41.000Z</time>
      </trkpt>
      <trkpt lat="43.62691" lon="6.67582">
        <ele>269.24</ele>
        <time>2019-12-08T10:02:42.000Z</time>
      </trkpt>
      <trkpt lat="43.62688" lon="6.67578">
        <ele>269.61</ele>
        <time>2019-12-08T10:02:43.000Z</time>
      </trkpt>
      <trkpt lat="43.62685" lon="6.67574">
        <ele>269.96</ele>
        <time>2019-12-08T10:02:44.000Z</time>
      </trkpt>
      <trkpt lat="43.62682" lon="6.67571">
        <ele>270.22</ele>
        <time>2019-12-08T10:02:45.000Z</time>
      </trkpt>
      <trkpt lat="43.62679" lon="6.67567">
        <ele>270.57</ele>
        <time>2019-12-08T10:02:46.000Z</time>
      </trkpt>
      <trkpt lat="43.62676" lon="6.67563">
        <ele>270.68</ele>
        <time>2019-12-08T10:02:47.000Z</time>
      </trkpt>
      <trkpt lat="43.62674" lon="6.67559">
        <ele>270.89</ele>
        <time>2019-12-08T10:02:48.000Z</time>
      </trkpt>
      <trkpt lat="43.62671" lon="6.67556">
        <ele>271.15</ele>
        <time>2019-12-08T10:02:49.000Z</time>
      </trkpt>
      <trkpt lat="43.62668" lon="6.67552">
        <ele>271.3</ele>
        <time>2019-12-08T10:02:50.000Z</time>
      </trkpt>
      <trkpt lat="43.62665" lon="6.67548">
        <ele>271.5</ele>
        <time>2019-12-08T10:02:51.000Z</time>
      </trkpt>
      <trkpt lat="43.62662" lon="6.67544">
        <ele>271.74</ele>
        <time>2019-12-08T10:02:52.000Z</time>
      </trkpt>
      <trkpt lat="43.62659" lon="6.6754">
        <ele>271.96</ele>
        <time>2019-12-08T10:02:53.000Z</time>
      </trkpt>
      <trkpt lat="43.62656" lon="6.67536">
        <ele>272.26</ele>
        <time>2019-12-08T10:02:54.000Z</time>
      </trkpt>
      <trkpt lat="43.62654" lon="6.67532">
        <ele>272.37</ele>
        <time>2019-12-08T10:02:55.000Z</time>
      </trkpt>
      <trkpt lat="43.62651" lon="6.67527">
        <ele>272.66</ele>
        <time>2019-12-08T10:02:56.000Z</time>
      </trkpt>
      <trkpt lat="43.62648" lon="6.67523">
        <ele>272.98</ele>
        <time>2019-12-08T10:02:57.000Z</time>
      </trkpt>
      <trkpt lat="43.62645" lon="6.67519">
        <ele>273.25</ele>
        <time>2019-12-08T10:02:58.000Z</time>
      </trkpt>
      <trkpt lat="43.62642" lon="6.67515">
        <ele>273.36</ele>
        <time>2019-12-08T10:02:59.000Z</time>
      </trkpt>
      <trkpt lat="43.62639" lon="6.67511">
        <ele>273.66</ele>
        <time>2019-12-08T10:03:00.000Z</time>
      </trkpt>
      <trkpt lat="43.62636" lon="6.67507">
        <ele>273.88</ele>
        <time>2019-12-08T10:03:01.000Z</time>
      </trkpt>
      <trkpt lat="43.62633" lon="6.67503">
        <ele>274.08</ele>
        <time>2019-12-08T10:03:02.000Z</time>
      </trkpt>
      <trkpt lat="43.6263" lon="6.67499">
        <ele>274.24</ele>
        <time>2019-12-08T10:03:03.000Z</time>
      </trkpt>
      <trkpt lat="43.62627" lon="6.67495">
        <ele>274.52</ele>
        <time>2019-12-08T10:03:04.000Z</time>
      </trkpt>
      <trkpt lat="43.62624" lon="6.6749">
        <ele>274.73</ele>
        <time>2019-12-08T10:03:05.000Z</time>
      </trkpt>
      <trkpt lat="43.62621" lon="6.67486">
        <ele>275.02</ele>
        <time>2019-12-08T10:03:06.000Z</time>
      </trkpt>
      <trkpt lat="43.62618" lon="6.67482">
        <ele>275.18</ele>
        <time>2019-12-08T10:03:07.000Z</time>
      </trkpt>
      <trkpt lat="43.62615" lon="6.67478">
        <ele>275.47</ele>
        <time>2019-12-08T10:03:08.000Z</time>
      </trkpt>
      <trkpt lat="43.62612" lon="6.67475">
        <ele>275.81</ele>
        <time>2019-12-08T10:03:09.000Z</time>
      </trkpt>
      <trkpt lat="43.62609" lon="6.67471">
        <ele>276.12</ele>
        <time>2019-12-08T10:03:10.000Z</time>
      </trkpt>
      <trkpt lat="43.62606" lon="6.67467">
        <ele>276.29</ele>
        <time>2019-12-08T10:03:11.000Z</time>
      </trkpt>
      <trkpt lat="43.62603" lon="6.67463">
        <ele>276.61</ele>
        <time>2019-12-08T10:03:12.000Z</time>
      </trkpt>
      <trkpt lat="43.626" lon="6.67459">
        <ele>276.95</ele>
        <time>2019-12-08T10:03:13.000Z</time>
      </trkpt>
      <trkpt lat="43.62597" lon="6.67456">
        <ele>277.3</ele>
        <time>2019-12-08T10:03:14.000Z</time>
      </trkpt>
      <trkpt lat="43.62593" lon="6.67452">
        <ele>277.58</ele>
        <time>2019-12-08T10:03:15.000Z</time>
      </trkpt>
      <trkpt lat="43.6259" lon="6.67449">
        <ele>277.75</ele>
        <time>2019-12-08T10:03:16.000Z</time>
      </trkpt>
      <trkpt lat="43.62586" lon="6.67445">
        <ele>278.02</ele>
        <time>2019-12-08T10:03:17.000Z</time>
      </trkpt>
      <trkpt lat="43.62583" lon="6.67442">
        <ele>278.34</ele>
        <time>2019-12-08T10:03:18.000Z</time>
      </trkpt>
      <trkpt lat="43.62579" lon="6.67439">
        <ele>278.49</ele>
        <time>2019-12-08T10:03:19.000Z</time>
      </trkpt>
      <trkpt lat="43.62575" lon="6.67436">
        <ele>278.65</ele>
        <time>2019-12-08T10:03:20.000Z</time>
      </trkpt>
      <trkpt lat="43.62572" lon="6.67433">
        <ele>278.86</ele>
        <time>2019-12-08T10:03:21.000Z</time>
      </trkpt>
      <trkpt lat="43.62568" lon="6.6743">
        <ele>279.08</ele>
        <time>2019-12-08T10:03:22.000Z</time>
      </trkpt>
      <trkpt lat="43.62564" lon="6.67427">
        <ele>279.28</ele>
        <time>2019-12-08T10:03:23.000Z</time>
      </trkpt>
      <trkpt lat="43.6256" lon="6.67424">
        <ele>279.43</ele>
        <time>2019-12-08T10:03:24.000Z</time>
      </trkpt>
      <trkpt lat="43.62557" lon="6.67421">
        <ele>279.71</ele>
        <time>2019-12-08T10:03:25.000Z</time>
      </trkpt>
      <trkpt lat="43.62553" lon="6.67418">
        <ele>280.06</ele>
        <time>2019-12-08T10:03:26.000Z</time>
      </trkpt>
      <trkpt lat="43.62549" lon="6.67415">
        <ele>280.32</ele>
        <time>2019-12-08T10:03:27.000Z</time>
      </trkpt>
      <trkpt lat="43.62546" lon="6.67412">
        <ele>280.43</ele>
        <time>2019-12-08T10:03:28.000Z</time>
      </trkpt>
      <trkpt lat="43.62542" lon="6.6741">
        <ele>280.43</ele>
        <time>2019-12-08T10:03:29.000Z</time>
      </trkpt>
      <trkpt lat="43.62538" lon="6.67407">
        <ele>280.73</ele>
        <time>2019-12-08T10:03:30.000Z</time>
      </trkpt>
      <trkpt lat="43.62534" lon="6.67405">
        <ele>281.01</ele>
        <time>2019-12-08T10:03:31.000Z</time>
      </trkpt>
      <trkpt lat="43.6253" lon="6.67402">
        <ele>281.12</ele>
        <time>2019-12-08T10:03:32.000Z</time>
      </trkpt>
      <trkpt lat="43.62527" lon="6.67398">
        <ele>281.46</ele>
        <time>2019-12-08T10:03:33.000Z</time>
      </trkpt>
      <trkpt lat="43.62524" lon="6.67394">
        <ele>281.83</ele>
        <time>2019-12-08T10:03:34.000Z</time>
      </trkpt>
      <trkpt lat="43.62521" lon="6.6739">
        <ele>282.03</ele>
        <time>2019-12-08T10:03:35.000Z</time>
      </trkpt>
      <trkpt lat="43.62519" lon="6.67386">
        <ele>282.16</ele>
        <time>2019-12-08T10:03:36.000Z</time>
      </trkpt>
      <trkpt lat="43.62516" lon="6.67381">
        <ele>282.45</ele>
        <time>2019-12-08T10:03:37.000Z</time>
      </trkpt>
      <trkpt lat="43.62514" lon="6.67376">
        <ele>282.64</ele>
        <time>2019-12-08T10:03:38.000Z</time>
      </trkpt>
      <trkpt lat="43.62513" lon="6.67371">
        <ele>282.96</ele>
        <time>2019-12-08T10:03:39.000Z</time>
      </trkpt>
      <trkpt lat="43.62512" lon="6.67367">
        <ele>283.14</ele>
        <time>2019-12-08T10:03:40.000Z</time>
      </trkpt>
      <trkpt lat="43.62511" lon="6.67362">
        <ele>283.47</ele>
        <time>2019-12-08T10:03:41.000Z</time>
      </trkpt>
      <trkpt lat="43.6251" lon="6.67357">
        <ele>283.79</ele>
        <time>2019-12-08T10:03:42.000Z</time>
      </trkpt>
      <trkpt lat="43.62509" lon="6.67352">
        <ele>284.14</ele>
        <time>2019-12-08T10:03:43.000Z</time>
      </trkpt>
      <trkpt lat="43.62508" lon="6.67348">
        <ele>284.25</ele>
        <time>2019-12-08T10:03:44.000Z</time>
      </trkpt>
      <trkpt lat="43.62507" lon="6.67342">
        <ele>284.48</ele>
        <time>2019-12-08T10:03:45.000Z</time>
      </trkpt>
      <trkpt lat="43.62506" lon="6.67337">
        <ele>284.61</ele>
        <time>2019-12-08T10:03:46.000Z</time>
      </trkpt>
      <trkpt lat="43.62505" lon="6.67331">
        <ele>284.61</ele>
        <time>2019-12-08T10:03:47.000Z</time>
      </trkpt>
      <trkpt lat="43.62504" lon="6.67325">
        <ele>284.75</ele>
        <time>2019-12-08T10:03:48.000Z</time>
      </trkpt>
      <trkpt lat="43.62503" lon="6.67319">
        <ele>284.75</ele>
        <time>2019-12-08T10:03:49.000Z</time>
      </trkpt>
      <trkpt lat="43.62501" lon="6.67314">
        <ele>285.18</ele>
        <time>2019-12-08T10:03:50.000Z</time>
      </trkpt>
      <trkpt lat="43.625" lon="6.67308">
        <ele>285.56</ele>
        <time>2019-12-08T10:03:51.000Z</time>
      </trkpt>
      <trkpt lat="43.62499" lon="6.67302">
        <ele>286</ele>
        <time>2019-12-08T10:03:52.000Z</time>
      </trkpt>
      <trkpt lat="43.62497" lon="6.67296">
        <ele>286.2</ele>
        <time>2019-12-08T10:03:53.000Z</time>
      </trkpt>
      <trkpt lat="43.62496" lon="6.6729">
        <ele>286.47</ele>
        <time>2019-12-08T10:03:54.000Z</time>
      </trkpt>
      <trkpt lat="43.62495" lon="6.67285">
        <ele>286.73</ele>
        <time>2019-12-08T10:03:55.000Z</time>
      </trkpt>
      <trkpt lat="43.62493" lon="6.67279">
        <ele>286.84</ele>
        <time>2019-12-08T10:03:56.000Z</time>
      </trkpt>
      <trkpt lat="43.62492" lon="6.67273">
        <ele>287.06</ele>
        <time>2019-12-08T10:03:57.000Z</time>
      </trkpt>
      <trkpt lat="43.62491" lon="6.67267">
        <ele>287.29</ele>
        <time>2019-12-08T10:03:58.000Z</time>
      </trkpt>
      <trkpt lat="43.62489" lon="6.67261">
        <ele>287.57</ele>
        <time>2019-12-08T10:03:59.000Z</time>
      </trkpt>
      <trkpt lat="43.62488" lon="6.67255">
        <ele>287.83</ele>
        <time>2019-12-08T10:04:00.000Z</time>
      </trkpt>
      <trkpt lat="43.62487" lon="6.67249">
        <ele>287.99</ele>
        <time>2019-12-08T10:04:01.000Z</time>
      </trkpt>
      <trkpt lat="43.62485" lon="6.67244">
        <ele>288.25</ele>
        <time>2019-12-08T10:04:02.000Z</time>
      </trkpt>
      <trkpt lat="43.62484" lon="6.67238">
        <ele>288.49</ele>
        <time>2019-12-08T10:04:03.000Z</time>
      </trkpt>
      <trkpt lat="43.62482" lon="6.67233">
        <ele>288.77</ele>
        <time>2019-12-08T10:04:04.000Z</time>
      </trkpt>
      <trkpt lat="43.6248" lon="6.67227">
        <ele>288.89</ele>
        <time>2019-12-08T10:04:05.000Z</time>
      </trkpt>
      <trkpt lat="43.62479" lon="6.67222">
        <ele>289.15</ele>
        <time>2019-12-08T10:04:06.000Z</time>
      </trkpt>
      <trkpt lat="43.62477" lon="6.67217">
        <ele>289.41</ele>
        <time>2019-12-08T10:04:07.000Z</time>
      </trkpt>
      <trkpt lat="43.62475" lon="6.67212">
        <ele>289.68</ele>
        <time>2019-12-08T10:04:08.000Z</time>
      </trkpt>
      <trkpt lat="43.62473" lon="6.67208">
        <ele>289.79</ele>
        <time>2019-12-08T10:04:09.000Z</time>
      </trkpt>
      <trkpt lat="43.6247" lon="6.67204">
        <ele>289.99</ele>
        <time>2019-12-08T10:04:10.000Z</time>
      </trkpt>
      <trkpt lat="43.62468" lon="6.672">
        <ele>290.28</ele>
        <time>2019-12-08T10:04:11.000Z</time>
      </trkpt>
      <trkpt lat="43.62465" lon="6.67196">
        <ele>290.6</ele>
        <time>2019-12-08T10:04:12.000Z</time>
      </trkpt>
      <trkpt lat="43.62462" lon="6.67192">
        <ele>290.75</ele>
        <time>2019-12-08T10:04:13.000Z</time>
      </trkpt>
      <trkpt lat="43.62459" lon="6.67188">
        <ele>291.04</ele>
        <time>2019-12-08T10:04:14.000Z</time>
      </trkpt>
      <trkpt lat="43.62455" lon="6.67185">
        <ele>291.37</ele>
        <time>2019-12-08T10:04:15.000Z</time>
      </trkpt>
      <trkpt lat="43.62452" lon="6.67181">
        <ele>291.69</ele>
        <time>2019-12-08T10:04:16.000Z</time>
      </trkpt>
      <trkpt lat="43.62449" lon="6.67178">
        <ele>291.81</ele>
        <time>2019-12-08T10:04:17.000Z</time>
      </trkpt>
      <trkpt lat="43.62446" lon="6.67175">
        <ele>292.11</ele>
        <time>2019-12-08T10:04:18.000Z</time>
      </trkpt>
      <trkpt lat="43.62442" lon="6.67172">
        <ele>292.27</ele>
        <time>2019-12-08T10:04:19.000Z</time>
      </trkpt>
      <trkpt lat="43.62439" lon="6.67169">
        <ele>292.56</ele>
        <time>2019-12-08T10:04:20.000Z</time>
      </trkpt>
      <trkpt lat="43.62435" lon="6.67165">
        <ele>292.71</ele>
        <time>2019-12-08T10:04:21.000Z</time>
      </trkpt>
      <trkpt lat="43.62432" lon="6.67162">
        <ele>292.99</ele>
        <time>2019-12-08T10:04:22.000Z</time>
      </trkpt>
      <trkpt lat="43.62429" lon="6.67159">
        <ele>293.31</ele>
        <time>2019-12-08T10:04:23.000Z</time>
      </trkpt>
      <trkpt lat="43.62425" lon="6.67156">
        <ele>293.59</ele>
        <time>2019-12-08T10:04:24.000Z</time>
      </trkpt>
      <trkpt lat="43.62422" lon="6.67153">
        <ele>293.73</ele>
        <time>2019-12-08T10:04:25.000Z</time>
      </trkpt>
      <trkpt lat="43.62418" lon="6.6715">
        <ele>293.97</ele>
        <time>2019-12-08T10:04:26.000Z</time>
      </trkpt>
      <trkpt lat="43.62415" lon="6.67147">
        <ele>294.16</ele>
        <time>2019-12-08T10:04:27.000Z</time>
      </trkpt>
      <trkpt lat="43.62412" lon="6.67144">
        <ele>294.4</ele>
        <time>2019-12-08T10:04:28.000Z</time>
      </trkpt>
      <trkpt lat="43.62408" lon="6.6714">
        <ele>294.55</ele>
        <time>2019-12-08T10:04:29.000Z</time>
      </trkpt>
      <trkpt lat="43.62405" lon="6.67137">
        <ele>294.81</ele>
        <time>2019-12-08T10:04:30.000Z</time>
      </trkpt>
      <trkpt lat="43.62402" lon="6.67134">
        <ele>295.12</ele>
        <time>2019-12-08T10:04:31.000Z</time>
      </trkpt>
      <trkpt lat="43.62398" lon="6.67131">
        <ele>295.43</ele>
        <time>2019-12-08T10:04:32.000Z</time>
      </trkpt>
      <trkpt lat="43.62395" lon="6.67128">
        <ele>295.61</ele>
        <time>2019-12-08T10:04:33.000Z</time>
      </trkpt>
      <trkpt lat="43.62392" lon="6.67125">
        <ele>295.73</ele>
        <time>2019-12-08T10:04:34.000Z</time>
      </trkpt>
      <trkpt lat="43.62389" lon="6.67122">
        <ele>295.97</ele>
        <time>2019-12-08T10:04:35.000Z</time>
      </trkpt>
      <trkpt lat="43.62386" lon="6.67119">
        <ele>296.25</ele>
        <time>2019-12-08T10:04:36.000Z</time>
      </trkpt>
      <trkpt lat="43.62383" lon="6.67116">
        <ele>296.54</ele>
        <time>2019-12-08T10:04:37.000Z</time>
      </trkpt>
      <trkpt lat="43.62379" lon="6.67113">
        <ele>296.71</ele>
        <time>2019-12-08T10:04:38.000Z</time>
      </trkpt>
      <trkpt lat="43.62376" lon="6.67111">
        <ele>297.03</ele>
        <time>2019-12-08T10:04:39.000Z</time>
      </trkpt>
      <trkpt lat="43.62373" lon="6.67108">
        <ele>297.37</ele>
        <time>2019-12-08T10:04:40.000Z</time>
      </trkpt>
      <trkpt lat="43.6237" lon="6.67105">
        <ele>297.68</ele>
        <time>2019-12-08T10:04:41.000Z</time>
      </trkpt>
      <trkpt lat="43.62367" lon="6.67103">
        <ele>297.83</ele>
        <time>2019-12-08T10:04:42.000Z</time>
      </trkpt>
      <trkpt lat="43.62364" lon="6.67101">
        <ele>298.17</ele>
        <time>2019-12-08T10:04:43.000Z</time>
      </trkpt>
      <trkpt lat="43.6236" lon="6.67098">
        <ele>298.36</ele>
        <time>2019-12-08T10:04:44.000Z</time>
      </trkpt>
      <trkpt lat="43.62356" lon="6.67096">
        <ele>298.62</ele>
        <time>2019-12-08T10:04:45.000Z</time>
      </trkpt>
      <trkpt lat="43.62352" lon="6.67094">
        <ele>298.76</ele>
        <time>2019-12-08T10:04:46.000Z</time>
      </trkpt>
      <trkpt lat="43.62348" lon="6.67093">
        <ele>298.85</ele>
        <time>2019-12-08T10:04:47.000Z</time>
      </trkpt>
      <trkpt lat="43.62344" lon="6.67091">
        <ele>298.85</ele>
        <time>2019-12-08T10:04:48.000Z</time>
      </trkpt>
      <trkpt lat="43.62339" lon="6.6709">
        <ele>298.9</ele>
        <time>2019-12-08T10:04:49.000Z</time>
      </trkpt>
      <trkpt lat="43.62335" lon="6.6709">
        <ele>299.01</ele>
        <time>2019-12-08T10:04:50.000Z</time>
      </trkpt>
      <trkpt lat="43.6233" lon="6.67089">
        <ele>299.24</ele>
        <time>2019-12-08T10:04:51.000Z</time>
      </trkpt>
      <trkpt lat="43.62325" lon="6.67088">
        <ele>299.42</ele>
        <time>2019-12-08T10:04:52.000Z</time>
      </trkpt>
      <trkpt lat="43.62321" lon="6.67088">
        <ele>299.56</ele>
        <time>2019-12-08T10:04:53.000Z</time>
      </trkpt>
      <trkpt lat="43.62316" lon="6.67087">
        <ele>299.63</ele>
        <time>2019-12-08T10:04:54.000Z</time>
      </trkpt>
      <trkpt lat="43.62312" lon="6.67087">
        <ele>299.88</ele>
        <time>2019-12-08T10:04:55.000Z</time>
      </trkpt>
      <trkpt lat="43.62307" lon="6.67086">
        <ele>300.1</ele>
        <time>2019-12-08T10:04:56.000Z</time>
      </trkpt>
      <trkpt lat="43.62303" lon="6.67086">
        <ele>300.29</ele>
        <time>2019-12-08T10:04:57.000Z</time>
      </trkpt>
      <trkpt lat="43.62298" lon="6.67086">
        <ele>300.43</ele>
        <time>2019-12-08T10:04:58.000Z</time>
      </trkpt>
      <trkpt lat="43.62294" lon="6.67085">
        <ele>300.67</ele>
        <time>2019-12-08T10:04:59.000Z</time>
      </trkpt>
      <trkpt lat="43.62289" lon="6.67085">
        <ele>300.82</ele>
        <time>2019-12-08T10:05:00.000Z</time>
      </trkpt>
      <trkpt lat="43.62284" lon="6.67084">
        <ele>301.03</ele>
        <time>2019-12-08T10:05:01.000Z</time>
      </trkpt>
      <trkpt lat="43.6228" lon="6.67084">
        <ele>301.22</ele>
        <time>2019-12-08T10:05:02.000Z</time>
      </trkpt>
      <trkpt lat="43.62275" lon="6.67084">
        <ele>301.33</ele>
        <time>2019-12-08T10:05:03.000Z</time>
      </trkpt>
      <trkpt lat="43.6227" lon="6.67083">
        <ele>301.53</ele>
        <time>2019-12-08T10:05:04.000Z</time>
      </trkpt>
      <trkpt lat="43.62266" lon="6.67082">
        <ele>301.71</ele>
        <time>2019-12-08T10:05:05.000Z</time>
      </trkpt>
      <trkpt lat="43.62261" lon="6.67079">
        <ele>301.77</ele>
        <time>2019-12-08T10:05:06.000Z</time>
      </trkpt>
      <trkpt lat="43.62258" lon="6.67075">
        <ele>301.96</ele>
        <time>2019-12-08T10:05:07.000Z</time>
      </trkpt>
      <trkpt lat="43.62255" lon="6.6707">
        <ele>302.14</ele>
        <time>2019-12-08T10:05:08.000Z</time>
      </trkpt>
      <trkpt lat="43.62253" lon="6.67064">
        <ele>302.44</ele>
        <time>2019-12-08T10:05:09.000Z</time>
      </trkpt>
      <trkpt lat="43.62253" lon="6.67058">
        <ele>302.83</ele>
        <time>2019-12-08T10:05:10.000Z</time>
      </trkpt>
      <trkpt lat="43.62254" lon="6.67052">
        <ele>302.98</ele>
        <time>2019-12-08T10:05:11.000Z</time>
      </trkpt>
      <trkpt lat="43.62256" lon="6.67047">
        <ele>302.98</ele>
        <time>2019-12-08T10:05:12.000Z</time>
      </trkpt>
      <trkpt lat="43.62259" lon="6.67043">
        <ele>303.18</ele>
        <time>2019-12-08T10:05:13.000Z</time>
      </trkpt>
      <trkpt lat="43.62263" lon="6.67041">
        <ele>303.6</ele>
        <time>2019-12-08T10:05:14.000Z</time>
      </trkpt>
      <trkpt lat="43.62267" lon="6.67039">
        <ele>303.8</ele>
        <time>2019-12-08T10:05:15.000Z</time>
      </trkpt>
      <trkpt lat="43.62271" lon="6.67039">
        <ele>303.95</ele>
        <time>2019-12-08T10:05:16.000Z</time>
      </trkpt>
      <trkpt lat="43.62275" lon="6.6704">
        <ele>304.29</ele>
        <time>2019-12-08T10:05:17.000Z</time>
      </trkpt>
      <trkpt lat="43.6228" lon="6.6704">
        <ele>304.61</ele>
        <time>2019-12-08T10:05:18.000Z</time>
      </trkpt>
      <trkpt lat="43.62284" lon="6.6704">
        <ele>304.72</ele>
        <time>2019-12-08T10:05:19.000Z</time>
      </trkpt>
      <trkpt lat="43.62288" lon="6.67041">
        <ele>304.86</ele>
        <time>2019-12-08T10:05:20.000Z</time>
      </trkpt>
      <trkpt lat="43.62293" lon="6.67041">
        <ele>305.15</ele>
        <time>2019-12-08T10:05:21.000Z</time>
      </trkpt>
      <trkpt lat="43.62297" lon="6.67041">
        <ele>305.45</ele>
        <time>2019-12-08T10:05:22.000Z</time>
      </trkpt>
      <trkpt lat="43.62301" lon="6.67042">
        <ele>305.61</ele>
        <time>2019-12-08T10:05:23.000Z</time>
      </trkpt>
      <trkpt lat="43.62306" lon="6.67042">
        <ele>305.78</ele>
        <time>2019-12-08T10:05:24.000Z</time>
      </trkpt>
      <trkpt lat="43.6231" lon="6.67043">
        <ele>306.08</ele>
        <time>2019-12-08T10:05:25.000Z</time>
      </trkpt>
      <trkpt lat="43.62314" lon="6.67043">
        <ele>306.26</ele>
        <time>2019-12-08T10:05:26.000Z</time>
      </trkpt>
      <trkpt lat="43.62318" lon="6.67044">
        <ele>306.33</ele>
        <time>2019-12-08T10:05:27.000Z</time>
      </trkpt>
      <trkpt lat="43.62323" lon="6.67045">
        <ele>306.49</ele>
        <time>2019-12-08T10:05:28.000Z</time>
      </trkpt>
      <trkpt lat="43.62327" lon="6.67046">
        <ele>306.6</ele>
        <time>2019-12-08T10:05:29.000Z</time>
      </trkpt>
      <trkpt lat="43.62331" lon="6.67047">
        <ele>306.81</ele>
        <time>2019-12-08T10:05:30.000Z</time>
      </trkpt>
      <trkpt lat="43.62335" lon="6.67048">
        <ele>307.14</ele>
        <time>2019-12-08T10:05:31.000Z</time>
      </trkpt>
      <trkpt lat="43.62339" lon="6.6705">
        <ele>307.3</ele>
        <time>2019-12-08T10:05:32.000Z</time>
      </trkpt>
      <trkpt lat="43.62343" lon="6.67051">
        <ele>307.47</ele>
        <time>2019-12-08T10:05:33.000Z</time>
      </trkpt>
      <trkpt lat="43.62346" lon="6.67053">
        <ele>307.69</ele>
        <time>2019-12-08T10:05:34.000Z</time>
      </trkpt>
      <trkpt lat="43.6235" lon="6.67055">
        <ele>307.8</ele>
        <time>2019-12-08T10:05:35.000Z</time>
      </trkpt>
      <trkpt lat="43.62354" lon="6.67057">
        <ele>307.95</ele>
        <time>2019-12-08T10:05:36.000Z</time>
      </trkpt>
      <trkpt lat="43.62358" lon="6.67059">
        <ele>308.17</ele>
        <time>2019-12-08T10:05:37.000Z</time>
      </trkpt>
      <trkpt lat="43.62362" lon="6.67061">
        <ele>308.42</ele>
        <time>2019-12-08T10:05:38.000Z</time>
      </trkpt>
      <trkpt lat="43.62366" lon="6.67063">
        <ele>308.64</ele>
        <time>2019-12-08T10:05:39.000Z</time>
      </trkpt>
      <trkpt lat="43.6237" lon="6.67065">
        <ele>308.76</ele>
        <time>2019-12-08T10:05:40.000Z</time>
      </trkpt>
      <trkpt lat="43.62374" lon="6.67067">
        <ele>309</ele>
        <time>2019-12-08T10:05:41.000Z</time>
      </trkpt>
      <trkpt lat="43.62377" lon="6.67069">
        <ele>309.21</ele>
        <time>2019-12-08T10:05:42.000Z</time>
      </trkpt>
      <trkpt lat="43.62382" lon="6.67071">
        <ele>309.3</ele>
        <time>2019-12-08T10:05:43.000Z</time>
      </trkpt>
      <trkpt lat="43.62385" lon="6.67073">
        <ele>309.46</ele>
        <time>2019-12-08T10:05:44.000Z</time>
      </trkpt>
      <trkpt lat="43.62389" lon="6.67075">
        <ele>309.7</ele>
        <time>2019-12-08T10:05:45.000Z</time>
      </trkpt>
      <trkpt lat="43.62392" lon="6.67077">
        <ele>309.95</ele>
        <time>2019-12-08T10:05:46.000Z</time>
      </trkpt>
      <trkpt lat="43.62396" lon="6.67079">
        <ele>310.27</ele>
        <time>2019-12-08T10:05:47.000Z</time>
      </trkpt>
      <trkpt lat="43.624" lon="6.67081">
        <ele>310.44</ele>
        <time>2019-12-08T10:05:48.000Z</time>
      </trkpt>
      <trkpt lat="43.62404" lon="6.67084">
        <ele>310.74</ele>
        <time>2019-12-08T10:05:49.000Z</time>
      </trkpt>
      <trkpt lat="43.62407" lon="6.67086">
        <ele>311.09</ele>
        <time>2019-12-08T10:05:50.000Z</time>
      </trkpt>
      <trkpt lat="43.62411" lon="6.67087">
        <ele>311.09</ele>
        <time>2019-12-08T10:05:51.000Z</time>
      </trkpt>
      <trkpt lat="43.62414" lon="6.67089">
        <ele>311.29</ele>
        <time>2019-12-08T10:05:52.000Z</time>
      </trkpt>
      <trkpt lat="43.62418" lon="6.6709">
        <ele>311.7</ele>
        <time>2019-12-08T10:05:53.000Z</time>
      </trkpt>
      <trkpt lat="43.62422" lon="6.6709">
        <ele>312.15</ele>
        <time>2019-12-08T10:05:54.000Z</time>
      </trkpt>
      <trkpt lat="43.62426" lon="6.67091">
        <ele>312.6</ele>
        <time>2019-12-08T10:05:55.000Z</time>
      </trkpt>
      <trkpt lat="43.6243" lon="6.67091">
        <ele>312.76</ele>
        <time>2019-12-08T10:05:56.000Z</time>
      </trkpt>
      <trkpt lat="43.62434" lon="6.67091">
        <ele>312.96</ele>
        <time>2019-12-08T10:05:57.000Z</time>
      </trkpt>
      <trkpt lat="43.62438" lon="6.67091">
        <ele>313.12</ele>
        <time>2019-12-08T10:05:58.000Z</time>
      </trkpt>
      <trkpt lat="43.62442" lon="6.6709">
        <ele>313.26</ele>
        <time>2019-12-08T10:05:59.000Z</time>
      </trkpt>
      <trkpt lat="43.62446" lon="6.67089">
        <ele>313.52</ele>
        <time>2019-12-08T10:06:00.000Z</time>
      </trkpt>
      <trkpt lat="43.6245" lon="6.67088">
        <ele>313.62</ele>
        <time>2019-12-08T10:06:01.000Z</time>
      </trkpt>
      <trkpt lat="43.62454" lon="6.67086">
        <ele>313.85</ele>
        <time>2019-12-08T10:06:02.000Z</time>
      </trkpt>
      <trkpt lat="43.62458" lon="6.67085">
        <ele>314.05</ele>
        <time>2019-12-08T10:06:03.000Z</time>
      </trkpt>
      <trkpt lat="43.62462" lon="6.67083">
        <ele>314.13</ele>
        <time>2019-12-08T10:06:04.000Z</time>
      </trkpt>
      <trkpt lat="43.62467" lon="6.67082">
        <ele>314.22</ele>
        <time>2019-12-08T10:06:05.000Z</time>
      </trkpt>
      <trkpt lat="43.62471" lon="6.6708">
        <ele>314.44</ele>
        <time>2019-12-08T10:06:06.000Z</time>
      </trkpt>
      <trkpt lat="43.62475" lon="6.67079">
        <ele>314.71</ele>
        <time>2019-12-08T10:06:07.000Z</time>
      </trkpt>
      <trkpt lat="43.62479" lon="6.67077">
        <ele>314.92</ele>
        <time>2019-12-08T10:06:08.000Z</time>
      </trkpt>
      <trkpt lat="43.62483" lon="6.67076">
        <ele>315.05</ele>
        <time>2019-12-08T10:06:09.000Z</time>
      </trkpt>
      <trkpt lat="43.62487" lon="6.67074">
        <ele>315.27</ele>
        <time>2019-12-08T10:06:10.000Z</time>
      </trkpt>
      <trkpt lat="43.62491" lon="6.67072">
        <ele>315.46</ele>
        <time>2019-12-08T10:06:11.000Z</time>
      </trkpt>
      <trkpt lat="43.62495" lon="6.67071">
        <ele>315.55</ele>
        <time>2019-12-08T10:06:12.000Z</time>
      </trkpt>
      <trkpt lat="43.62499" lon="6.67069">
        <ele>315.72</ele>
        <time>2019-12-08T10:06:13.000Z</time>
      </trkpt>
      <trkpt lat="43.62503" lon="6.67067">
        <ele>316</ele>
        <time>2019-12-08T10:06:14.000Z</time>
      </trkpt>
      <trkpt lat="43.62507" lon="6.67066">
        <ele>316.29</ele>
        <time>2019-12-08T10:06:15.000Z</time>
      </trkpt>
      <trkpt lat="43.62511" lon="6.67064">
        <ele>316.57</ele>
        <time>2019-12-08T10:06:16.000Z</time>
      </trkpt>
      <trkpt lat="43.62515" lon="6.67063">
        <ele>316.72</ele>
        <time>2019-12-08T10:06:17.000Z</time>
      </trkpt>
      <trkpt lat="43.62519" lon="6.67061">
        <ele>316.96</ele>
        <time>2019-12-08T10:06:18.000Z</time>
      </trkpt>
      <trkpt lat="43.62523" lon="6.67059">
        <ele>317.24</ele>
        <time>2019-12-08T10:06:19.000Z</time>
      </trkpt>
      <trkpt lat="43.62527" lon="6.67058">
        <ele>317.49</ele>
        <time>2019-12-08T10:06:20.000Z</time>
      </trkpt>
      <trkpt lat="43.62531" lon="6.67056">
        <ele>317.61</ele>
        <time>2019-12-08T10:06:21.000Z</time>
      </trkpt>
      <trkpt lat="43.62535" lon="6.67054">
        <ele>317.81</ele>
        <time>2019-12-08T10:06:22.000Z</time>
      </trkpt>
      <trkpt lat="43.62539" lon="6.67052">
        <ele>317.98</ele>
        <time>2019-12-08T10:06:23.000Z</time>
      </trkpt>
      <trkpt lat="43.62543" lon="6.67051">
        <ele>318.2</ele>
        <time>2019-12-08T10:06:24.000Z</time>
      </trkpt>
      <trkpt lat="43.62547" lon="6.67049">
        <ele>318.32</ele>
        <time>2019-12-08T10:06:25.000Z</time>
      </trkpt>
      <trkpt lat="43.62551" lon="6.67047">
        <ele>318.57</ele>
        <time>2019-12-08T10:06:26.000Z</time>
      </trkpt>
      <trkpt lat="43.62555" lon="6.67046">
        <ele>318.85</ele>
        <time>2019-12-08T10:06:27.000Z</time>
      </trkpt>
      <trkpt lat="43.62559" lon="6.67043">
        <ele>319.15</ele>
        <time>2019-12-08T10:06:28.000Z</time>
      </trkpt>
      <trkpt lat="43.62563" lon="6.6704">
        <ele>319.15</ele>
        <time>2019-12-08T10:06:29.000Z</time>
      </trkpt>
      <trkpt lat="43.62567" lon="6.67038">
        <ele>319.33</ele>
        <time>2019-12-08T10:06:30.000Z</time>
      </trkpt>
      <trkpt lat="43.62571" lon="6.67036">
        <ele>319.56</ele>
        <time>2019-12-08T10:06:31.000Z</time>
      </trkpt>
      <trkpt lat="43.62575" lon="6.67034">
        <ele>319.77</ele>
        <time>2019-12-08T10:06:32.000Z</time>
      </trkpt>
      <trkpt lat="43.62579" lon="6.67031">
        <ele>319.89</ele>
        <time>2019-12-08T10:06:33.000Z</time>
      </trkpt>
      <trkpt lat="43.62584" lon="6.67028">
        <ele>320.13</ele>
        <time>2019-12-08T10:06:34.000Z</time>
      </trkpt>
      <trkpt lat="43.62587" lon="6.67025">
        <ele>320.33</ele>
        <time>2019-12-08T10:06:35.000Z</time>
      </trkpt>
      <trkpt lat="43.62591" lon="6.67022">
        <ele>320.42</ele>
        <time>2019-12-08T10:06:36.000Z</time>
      </trkpt>
      <trkpt lat="43.62595" lon="6.67019">
        <ele>320.73</ele>
        <time>2019-12-08T10:06:37.000Z</time>
      </trkpt>
      <trkpt lat="43.62598" lon="6.67015">
        <ele>320.79</ele>
        <time>2019-12-08T10:06:38.000Z</time>
      </trkpt>
      <trkpt lat="43.62602" lon="6.67012">
        <ele>320.79</ele>
        <time>2019-12-08T10:06:39.000Z</time>
      </trkpt>
      <trkpt lat="43.62606" lon="6.67009">
        <ele>321.23</ele>
        <time>2019-12-08T10:06:40.000Z</time>
      </trkpt>
      <trkpt lat="43.62609" lon="6.67005">
        <ele>321.35</ele>
        <time>2019-12-08T10:06:41.000Z</time>
      </trkpt>
      <trkpt lat="43.62612" lon="6.67001">
        <ele>321.68</ele>
        <time>2019-12-08T10:06:42.000Z</time>
      </trkpt>
      <trkpt lat="43.62615" lon="6.66998">
        <ele>322.06</ele>
        <time>2019-12-08T10:06:43.000Z</time>
      </trkpt>
      <trkpt lat="43.62618" lon="6.66994">
        <ele>322.36</ele>
        <time>2019-12-08T10:06:44.000Z</time>
      </trkpt>
      <trkpt lat="43.62621" lon="6.6699">
        <ele>322.68</ele>
        <time>2019-12-08T10:06:45.000Z</time>
      </trkpt>
      <trkpt lat="43.62624" lon="6.66986">
        <ele>322.78</ele>
        <time>2019-12-08T10:06:46.000Z</time>
      </trkpt>
      <trkpt lat="43.62627" lon="6.66982">
        <ele>322.84</ele>
        <time>2019-12-08T10:06:47.000Z</time>
      </trkpt>
      <trkpt lat="43.6263" lon="6.66977">
        <ele>322.86</ele>
        <time>2019-12-08T10:06:48.000Z</time>
      </trkpt>
      <trkpt lat="43.62633" lon="6.66973">
        <ele>322.92</ele>
        <time>2019-12-08T10:06:49.000Z</time>
      </trkpt>
      <trkpt lat="43.62636" lon="6.66968">
        <ele>322.98</ele>
        <time>2019-12-08T10:06:50.000Z</time>
      </trkpt>
      <trkpt lat="43.62638" lon="6.66963">
        <ele>323.22</ele>
        <time>2019-12-08T10:06:51.000Z</time>
      </trkpt>
      <trkpt lat="43.6264" lon="6.66957">
        <ele>323.22</ele>
        <time>2019-12-08T10:06:52.000Z</time>
      </trkpt>
      <trkpt lat="43.62642" lon="6.66952">
        <ele>323.73</ele>
        <time>2019-12-08T10:06:53.000Z</time>
      </trkpt>
      <trkpt lat="43.62644" lon="6.66946">
        <ele>323.85</ele>
        <time>2019-12-08T10:06:54.000Z</time>
      </trkpt>
      <trkpt lat="43.62646" lon="6.6694">
        <ele>323.98</ele>
        <time>2019-12-08T10:06:55.000Z</time>
      </trkpt>
      <trkpt lat="43.62648" lon="6.66934">
        <ele>324.05</ele>
        <time>2019-12-08T10:06:56.000Z</time>
      </trkpt>
      <trkpt lat="43.6265" lon="6.66927">
        <ele>323.94</ele>
        <time>2019-12-08T10:06:57.000Z</time>
      </trkpt>
      <trkpt lat="43.62651" lon="6.66921">
        <ele>323.83</ele>
        <time>2019-12-08T10:06:58.000Z</time>
      </trkpt>
      <trkpt lat="43.62653" lon="6.66914">
        <ele>323.69</ele>
        <time>2019-12-08T10:06:59.000Z</time>
      </trkpt>
      <trkpt lat="43.62655" lon="6.66907">
        <ele>323.52</ele>
        <time>2019-12-08T10:07:00.000Z</time>
      </trkpt>
      <trkpt lat="43.62657" lon="6.66901">
        <ele>323.42</ele>
        <time>2019-12-08T10:07:01.000Z</time>
      </trkpt>
      <trkpt lat="43.62659" lon="6.66894">
        <ele>323.4</ele>
        <time>2019-12-08T10:07:02.000Z</time>
      </trkpt>
      <trkpt lat="43.62661" lon="6.66887">
        <ele>323.48</ele>
        <time>2019-12-08T10:07:03.000Z</time>
      </trkpt>
      <trkpt lat="43.62663" lon="6.66879">
        <ele>323.54</ele>
        <time>2019-12-08T10:07:04.000Z</time>
      </trkpt>
      <trkpt lat="43.62665" lon="6.66872">
        <ele>323.65</ele>
        <time>2019-12-08T10:07:05.000Z</time>
      </trkpt>
      <trkpt lat="43.62667" lon="6.66865">
        <ele>323.71</ele>
        <time>2019-12-08T10:07:06.000Z</time>
      </trkpt>
      <trkpt lat="43.62669" lon="6.66858">
        <ele>323.81</ele>
        <time>2019-12-08T10:07:07.000Z</time>
      </trkpt>
      <trkpt lat="43.62672" lon="6.66851">
        <ele>323.87</ele>
        <time>2019-12-08T10:07:08.000Z</time>
      </trkpt>
      <trkpt lat="43.62675" lon="6.66843">
        <ele>323.86</ele>
        <time>2019-12-08T10:07:09.000Z</time>
      </trkpt>
      <trkpt lat="43.62678" lon="6.66836">
        <ele>323.86</ele>
        <time>2019-12-08T10:07:10.000Z</time>
      </trkpt>
      <trkpt lat="43.62681" lon="6.66829">
        <ele>323.87</ele>
        <time>2019-12-08T10:07:11.000Z</time>
      </trkpt>
      <trkpt lat="43.62684" lon="6.66821">
        <ele>323.83</ele>
        <time>2019-12-08T10:07:12.000Z</time>
      </trkpt>
      <trkpt lat="43.62687" lon="6.66814">
        <ele>323.76</ele>
        <time>2019-12-08T10:07:13.000Z</time>
      </trkpt>
      <trkpt lat="43.6269" lon="6.66807">
        <ele>323.73</ele>
        <time>2019-12-08T10:07:14.000Z</time>
      </trkpt>
      <trkpt lat="43.62693" lon="6.66799">
        <ele>323.69</ele>
        <time>2019-12-08T10:07:15.000Z</time>
      </trkpt>
      <trkpt lat="43.62697" lon="6.66791">
        <ele>323.65</ele>
        <time>2019-12-08T10:07:16.000Z</time>
      </trkpt>
      <trkpt lat="43.627" lon="6.66783">
        <ele>323.66</ele>
        <time>2019-12-08T10:07:17.000Z</time>
      </trkpt>
      <trkpt lat="43.62703" lon="6.66776">
        <ele>323.67</ele>
        <time>2019-12-08T10:07:18.000Z</time>
      </trkpt>
      <trkpt lat="43.62706" lon="6.66768">
        <ele>323.64</ele>
        <time>2019-12-08T10:07:19.000Z</time>
      </trkpt>
      <trkpt lat="43.6271" lon="6.6676">
        <ele>323.66</ele>
        <time>2019-12-08T10:07:20.000Z</time>
      </trkpt>
      <trkpt lat="43.62713" lon="6.66752">
        <ele>323.67</ele>
        <time>2019-12-08T10:07:21.000Z</time>
      </trkpt>
      <trkpt lat="43.62716" lon="6.66744">
        <ele>323.75</ele>
        <time>2019-12-08T10:07:22.000Z</time>
      </trkpt>
      <trkpt lat="43.6272" lon="6.66736">
        <ele>323.79</ele>
        <time>2019-12-08T10:07:23.000Z</time>
      </trkpt>
      <trkpt lat="43.62723" lon="6.66728">
        <ele>323.87</ele>
        <time>2019-12-08T10:07:24.000Z</time>
      </trkpt>
      <trkpt lat="43.62726" lon="6.6672">
        <ele>323.92</ele>
        <time>2019-12-08T10:07:25.000Z</time>
      </trkpt>
      <trkpt lat="43.62729" lon="6.66711">
        <ele>323.94</ele>
        <time>2019-12-08T10:07:26.000Z</time>
      </trkpt>
      <trkpt lat="43.62731" lon="6.66702">
        <ele>323.89</ele>
        <time>2019-12-08T10:07:27.000Z</time>
      </trkpt>
      <trkpt lat="43.62734" lon="6.66692">
        <ele>323.73</ele>
        <time>2019-12-08T10:07:28.000Z</time>
      </trkpt>
      <trkpt lat="43.62737" lon="6.66682">
        <ele>323.42</ele>
        <time>2019-12-08T10:07:29.000Z</time>
      </trkpt>
      <trkpt lat="43.62741" lon="6.66672">
        <ele>323.07</ele>
        <time>2019-12-08T10:07:30.000Z</time>
      </trkpt>
      <trkpt lat="43.62745" lon="6.66662">
        <ele>323.07</ele>
        <time>2019-12-08T10:07:31.000Z</time>
      </trkpt>
      <trkpt lat="43.62749" lon="6.66652">
        <ele>322.59</ele>
        <time>2019-12-08T10:07:32.000Z</time>
      </trkpt>
      <trkpt lat="43.62754" lon="6.66642">
        <ele>322.2</ele>
        <time>2019-12-08T10:07:33.000Z</time>
      </trkpt>
      <trkpt lat="43.62759" lon="6.66632">
        <ele>321.77</ele>
        <time>2019-12-08T10:07:34.000Z</time>
      </trkpt>
      <trkpt lat="43.62764" lon="6.66622">
        <ele>321.52</ele>
        <time>2019-12-08T10:07:35.000Z</time>
      </trkpt>
      <trkpt lat="43.62769" lon="6.66611">
        <ele>321.07</ele>
        <time>2019-12-08T10:07:36.000Z</time>
      </trkpt>
      <trkpt lat="43.62774" lon="6.666">
        <ele>320.61</ele>
        <time>2019-12-08T10:07:37.000Z</time>
      </trkpt>
      <trkpt lat="43.62779" lon="6.66589">
        <ele>320.12</ele>
        <time>2019-12-08T10:07:38.000Z</time>
      </trkpt>
      <trkpt lat="43.62784" lon="6.66578">
        <ele>319.88</ele>
        <time>2019-12-08T10:07:39.000Z</time>
      </trkpt>
      <trkpt lat="43.6279" lon="6.66566">
        <ele>319.44</ele>
        <time>2019-12-08T10:07:40.000Z</time>
      </trkpt>
      <trkpt lat="43.62795" lon="6.66555">
        <ele>318.92</ele>
        <time>2019-12-08T10:07:41.000Z</time>
      </trkpt>
      <trkpt lat="43.62801" lon="6.66543">
        <ele>318.47</ele>
        <time>2019-12-08T10:07:42.000Z</time>
      </trkpt>
      <trkpt lat="43.62807" lon="6.66532">
        <ele>318.25</ele>
        <time>2019-12-08T10:07:43.000Z</time>
      </trkpt>
      <trkpt lat="43.62813" lon="6.6652">
        <ele>317.88</ele>
        <time>2019-12-08T10:07:44.000Z</time>
      </trkpt>
      <trkpt lat="43.62819" lon="6.66509">
        <ele>317.48</ele>
        <time>2019-12-08T10:07:45.000Z</time>
      </trkpt>
      <trkpt lat="43.62826" lon="6.66497">
        <ele>317.2</ele>
        <time>2019-12-08T10:07:46.000Z</time>
      </trkpt>
      <trkpt lat="43.62832" lon="6.66485">
        <ele>316.82</ele>
        <time>2019-12-08T10:07:47.000Z</time>
      </trkpt>
      <trkpt lat="43.62838" lon="6.66474">
        <ele>316.58</ele>
        <time>2019-12-08T10:07:48.000Z</time>
      </trkpt>
      <trkpt lat="43.62845" lon="6.66462">
        <ele>316.08</ele>
        <time>2019-12-08T10:07:49.000Z</time>
      </trkpt>
      <trkpt lat="43.62851" lon="6.6645">
        <ele>315.38</ele>
        <time>2019-12-08T10:07:50.000Z</time>
      </trkpt>
      <trkpt lat="43.62858" lon="6.66437">
        <ele>314.93</ele>
        <time>2019-12-08T10:07:51.000Z</time>
      </trkpt>
      <trkpt lat="43.62865" lon="6.66425">
        <ele>314.21</ele>
        <time>2019-12-08T10:07:52.000Z</time>
      </trkpt>
      <trkpt lat="43.62871" lon="6.66412">
        <ele>313.49</ele>
        <time>2019-12-08T10:07:53.000Z</time>
      </trkpt>
      <trkpt lat="43.62878" lon="6.66399">
        <ele>312.71</ele>
        <time>2019-12-08T10:07:54.000Z</time>
      </trkpt>
      <trkpt lat="43.62886" lon="6.66387">
        <ele>312.71</ele>
        <time>2019-12-08T10:07:55.000Z</time>
      </trkpt>
      <trkpt lat="43.62893" lon="6.66374">
        <ele>312.43</ele>
        <time>2019-12-08T10:07:56.000Z</time>
      </trkpt>
      <trkpt lat="43.62901" lon="6.66363">
        <ele>312.15</ele>
        <time>2019-12-08T10:07:57.000Z</time>
      </trkpt>
      <trkpt lat="43.62909" lon="6.66351">
        <ele>311.5</ele>
        <time>2019-12-08T10:07:58.000Z</time>
      </trkpt>
      <trkpt lat="43.62916" lon="6.66338">
        <ele>310.89</ele>
        <time>2019-12-08T10:07:59.000Z</time>
      </trkpt>
      <trkpt lat="43.62922" lon="6.66326">
        <ele>310.69</ele>
        <time>2019-12-08T10:08:00.000Z</time>
      </trkpt>
      <trkpt lat="43.62926" lon="6.66312">
        <ele>310.62</ele>
        <time>2019-12-08T10:08:01.000Z</time>
      </trkpt>
      <trkpt lat="43.62929" lon="6.66298">
        <ele>310.42</ele>
        <time>2019-12-08T10:08:02.000Z</time>
      </trkpt>
      <trkpt lat="43.62929" lon="6.66284">
        <ele>310.42</ele>
        <time>2019-12-08T10:08:03.000Z</time>
      </trkpt>
      <trkpt lat="43.62926" lon="6.6627">
        <ele>310.39</ele>
        <time>2019-12-08T10:08:04.000Z</time>
      </trkpt>
      <trkpt lat="43.62923" lon="6.66258">
        <ele>310.4</ele>
        <time>2019-12-08T10:08:05.000Z</time>
      </trkpt>
      <trkpt lat="43.6292" lon="6.66245">
        <ele>310.57</ele>
        <time>2019-12-08T10:08:06.000Z</time>
      </trkpt>
      <trkpt lat="43.62919" lon="6.66232">
        <ele>310.62</ele>
        <time>2019-12-08T10:08:07.000Z</time>
      </trkpt>
      <trkpt lat="43.62919" lon="6.6622">
        <ele>310.62</ele>
        <time>2019-12-08T10:08:08.000Z</time>
      </trkpt>
      <trkpt lat="43.62921" lon="6.66209">
        <ele>310.72</ele>
        <time>2019-12-08T10:08:09.000Z</time>
      </trkpt>
      <trkpt lat="43.62923" lon="6.66198">
        <ele>310.89</ele>
        <time>2019-12-08T10:08:10.000Z</time>
      </trkpt>
      <trkpt lat="43.62926" lon="6.66188">
        <ele>311.17</ele>
        <time>2019-12-08T10:08:11.000Z</time>
      </trkpt>
      <trkpt lat="43.62928" lon="6.66178">
        <ele>311.28</ele>
        <time>2019-12-08T10:08:12.000Z</time>
      </trkpt>
      <trkpt lat="43.62931" lon="6.66169">
        <ele>311.59</ele>
        <time>2019-12-08T10:08:13.000Z</time>
      </trkpt>
      <trkpt lat="43.62933" lon="6.6616">
        <ele>311.8</ele>
        <time>2019-12-08T10:08:14.000Z</time>
      </trkpt>
      <trkpt lat="43.62935" lon="6.66152">
        <ele>312.05</ele>
        <time>2019-12-08T10:08:15.000Z</time>
      </trkpt>
      <trkpt lat="43.62937" lon="6.66143">
        <ele>312.19</ele>
        <time>2019-12-08T10:08:16.000Z</time>
      </trkpt>
      <trkpt lat="43.62939" lon="6.66135">
        <ele>312.5</ele>
        <time>2019-12-08T10:08:17.000Z</time>
      </trkpt>
      <trkpt lat="43.6294" lon="6.66127">
        <ele>312.84</ele>
        <time>2019-12-08T10:08:18.000Z</time>
      </trkpt>
      <trkpt lat="43.62942" lon="6.66119">
        <ele>313.09</ele>
        <time>2019-12-08T10:08:19.000Z</time>
      </trkpt>
      <trkpt lat="43.62944" lon="6.66111">
        <ele>313.21</ele>
        <time>2019-12-08T10:08:20.000Z</time>
      </trkpt>
      <trkpt lat="43.62946" lon="6.66104">
        <ele>313.39</ele>
        <time>2019-12-08T10:08:21.000Z</time>
      </trkpt>
      <trkpt lat="43.62948" lon="6.66097">
        <ele>313.67</ele>
        <time>2019-12-08T10:08:22.000Z</time>
      </trkpt>
      <trkpt lat="43.62951" lon="6.6609">
        <ele>313.86</ele>
        <time>2019-12-08T10:08:23.000Z</time>
      </trkpt>
      <trkpt lat="43.62953" lon="6.66083">
        <ele>314.15</ele>
        <time>2019-12-08T10:08:24.000Z</time>
      </trkpt>
      <trkpt lat="43.62956" lon="6.66076">
        <ele>314.29</ele>
        <time>2019-12-08T10:08:25.000Z</time>
      </trkpt>
      <trkpt lat="43.6296" lon="6.6607">
        <ele>314.5</ele>
        <time>2019-12-08T10:08:26.000Z</time>
      </trkpt>
      <trkpt lat="43.62963" lon="6.66064">
        <ele>314.73</ele>
        <time>2019-12-08T10:08:27.000Z</time>
      </trkpt>
      <trkpt lat="43.62966" lon="6.66058">
        <ele>314.91</ele>
        <time>2019-12-08T10:08:28.000Z</time>
      </trkpt>
      <trkpt lat="43.6297" lon="6.66053">
        <ele>314.96</ele>
        <time>2019-12-08T10:08:29.000Z</time>
      </trkpt>
      <trkpt lat="43.62973" lon="6.66047">
        <ele>315.15</ele>
        <time>2019-12-08T10:08:30.000Z</time>
      </trkpt>
      <trkpt lat="43.62976" lon="6.66042">
        <ele>315.45</ele>
        <time>2019-12-08T10:08:31.000Z</time>
      </trkpt>
      <trkpt lat="43.62978" lon="6.66036">
        <ele>315.73</ele>
        <time>2019-12-08T10:08:32.000Z</time>
      </trkpt>
      <trkpt lat="43.62981" lon="6.66029">
        <ele>315.89</ele>
        <time>2019-12-08T10:08:33.000Z</time>
      </trkpt>
      <trkpt lat="43.62983" lon="6.66023">
        <ele>316.18</ele>
        <time>2019-12-08T10:08:34.000Z</time>
      </trkpt>
      <trkpt lat="43.62984" lon="6.66017">
        <ele>316.36</ele>
        <time>2019-12-08T10:08:35.000Z</time>
      </trkpt>
      <trkpt lat="43.62986" lon="6.6601">
        <ele>316.5</ele>
        <time>2019-12-08T10:08:36.000Z</time>
      </trkpt>
      <trkpt lat="43.62987" lon="6.66003">
        <ele>316.6</ele>
        <time>2019-12-08T10:08:37.000Z</time>
      </trkpt>
      <trkpt lat="43.62988" lon="6.65996">
        <ele>316.86</ele>
        <time>2019-12-08T10:08:38.000Z</time>
      </trkpt>
      <trkpt lat="43.6299" lon="6.65989">
        <ele>317.18</ele>
        <time>2019-12-08T10:08:39.000Z</time>
      </trkpt>
      <trkpt lat="43.62991" lon="6.65982">
        <ele>317.47</ele>
        <time>2019-12-08T10:08:40.000Z</time>
      </trkpt>
      <trkpt lat="43.62992" lon="6.65975">
        <ele>317.59</ele>
        <time>2019-12-08T10:08:41.000Z</time>
      </trkpt>
      <trkpt lat="43.62994" lon="6.65969">
        <ele>317.77</ele>
        <time>2019-12-08T10:08:42.000Z</time>
      </trkpt>
      <trkpt lat="43.62995" lon="6.65962">
        <ele>317.97</ele>
        <time>2019-12-08T10:08:43.000Z</time>
      </trkpt>
      <trkpt lat="43.62996" lon="6.65955">
        <ele>318.21</ele>
        <time>2019-12-08T10:08:44.000Z</time>
      </trkpt>
      <trkpt lat="43.62997" lon="6.65949">
        <ele>318.35</ele>
        <time>2019-12-08T10:08:45.000Z</time>
      </trkpt>
      <trkpt lat="43.62998" lon="6.65942">
        <ele>318.65</ele>
        <time>2019-12-08T10:08:46.000Z</time>
      </trkpt>
      <trkpt lat="43.63" lon="6.65936">
        <ele>318.9</ele>
        <time>2019-12-08T10:08:47.000Z</time>
      </trkpt>
      <trkpt lat="43.63001" lon="6.65929">
        <ele>319.13</ele>
        <time>2019-12-08T10:08:48.000Z</time>
      </trkpt>
      <trkpt lat="43.63002" lon="6.65923">
        <ele>319.23</ele>
        <time>2019-12-08T10:08:49.000Z</time>
      </trkpt>
      <trkpt lat="43.63003" lon="6.65916">
        <ele>319.42</ele>
        <time>2019-12-08T10:08:50.000Z</time>
      </trkpt>
      <trkpt lat="43.63004" lon="6.6591">
        <ele>319.65</ele>
        <time>2019-12-08T10:08:51.000Z</time>
      </trkpt>
      <trkpt lat="43.63005" lon="6.65903">
        <ele>320</ele>
        <time>2019-12-08T10:08:52.000Z</time>
      </trkpt>
      <trkpt lat="43.63006" lon="6.65897">
        <ele>320.17</ele>
        <time>2019-12-08T10:08:53.000Z</time>
      </trkpt>
      <trkpt lat="43.63008" lon="6.65891">
        <ele>320.55</ele>
        <time>2019-12-08T10:08:54.000Z</time>
      </trkpt>
      <trkpt lat="43.63009" lon="6.65885">
        <ele>320.85</ele>
        <time>2019-12-08T10:08:55.000Z</time>
      </trkpt>
      <trkpt lat="43.6301" lon="6.65879">
        <ele>321.15</ele>
        <time>2019-12-08T10:08:56.000Z</time>
      </trkpt>
      <trkpt lat="43.63011" lon="6.65873">
        <ele>321.22</ele>
        <time>2019-12-08T10:08:57.000Z</time>
      </trkpt>
      <trkpt lat="43.63013" lon="6.65867">
        <ele>321.47</ele>
        <time>2019-12-08T10:08:58.000Z</time>
      </trkpt>
      <trkpt lat="43.63014" lon="6.65861">
        <ele>321.71</ele>
        <time>2019-12-08T10:08:59.000Z</time>
      </trkpt>
      <trkpt lat="43.63015" lon="6.65855">
        <ele>321.93</ele>
        <time>2019-12-08T10:09:00.000Z</time>
      </trkpt>
      <trkpt lat="43.63016" lon="6.65849">
        <ele>322.16</ele>
        <time>2019-12-08T10:09:01.000Z</time>
      </trkpt>
      <trkpt lat="43.63018" lon="6.65843">
        <ele>322.23</ele>
        <time>2019-12-08T10:09:02.000Z</time>
      </trkpt>
      <trkpt lat="43.63019" lon="6.65837">
        <ele>322.46</ele>
        <time>2019-12-08T10:09:03.000Z</time>
      </trkpt>
      <trkpt lat="43.6302" lon="6.65831">
        <ele>322.71</ele>
        <time>2019-12-08T10:09:04.000Z</time>
      </trkpt>
      <trkpt lat="43.63022" lon="6.65825">
        <ele>322.86</ele>
        <time>2019-12-08T10:09:05.000Z</time>
      </trkpt>
      <trkpt lat="43.63023" lon="6.65819">
        <ele>322.99</ele>
        <time>2019-12-08T10:09:06.000Z</time>
      </trkpt>
      <trkpt lat="43.63024" lon="6.65813">
        <ele>323.23</ele>
        <time>2019-12-08T10:09:07.000Z</time>
      </trkpt>
      <trkpt lat="43.63026" lon="6.65807">
        <ele>323.32</ele>
        <time>2019-12-08T10:09:08.000Z</time>
      </trkpt>
      <trkpt lat="43.63027" lon="6.658">
        <ele>323.56</ele>
        <time>2019-12-08T10:09:09.000Z</time>
      </trkpt>
      <trkpt lat="43.63028" lon="6.65794">
        <ele>323.64</ele>
        <time>2019-12-08T10:09:10.000Z</time>
      </trkpt>
      <trkpt lat="43.63029" lon="6.65788">
        <ele>323.75</ele>
        <time>2019-12-08T10:09:11.000Z</time>
      </trkpt>
      <trkpt lat="43.6303" lon="6.65782">
        <ele>323.97</ele>
        <time>2019-12-08T10:09:12.000Z</time>
      </trkpt>
      <trkpt lat="43.63032" lon="6.65776">
        <ele>324.21</ele>
        <time>2019-12-08T10:09:13.000Z</time>
      </trkpt>
      <trkpt lat="43.63033" lon="6.6577">
        <ele>324.34</ele>
        <time>2019-12-08T10:09:14.000Z</time>
      </trkpt>
      <trkpt lat="43.63034" lon="6.65763">
        <ele>324.64</ele>
        <time>2019-12-08T10:09:15.000Z</time>
      </trkpt>
      <trkpt lat="43.63036" lon="6.65757">
        <ele>324.91</ele>
        <time>2019-12-08T10:09:16.000Z</time>
      </trkpt>
      <trkpt lat="43.63037" lon="6.65751">
        <ele>325.12</ele>
        <time>2019-12-08T10:09:17.000Z</time>
      </trkpt>
      <trkpt lat="43.63038" lon="6.65745">
        <ele>325.26</ele>
        <time>2019-12-08T10:09:18.000Z</time>
      </trkpt>
      <trkpt lat="43.63039" lon="6.65739">
        <ele>325.44</ele>
        <time>2019-12-08T10:09:19.000Z</time>
      </trkpt>
      <trkpt lat="43.6304" lon="6.65733">
        <ele>325.63</ele>
        <time>2019-12-08T10:09:20.000Z</time>
      </trkpt>
      <trkpt lat="43.63041" lon="6.65726">
        <ele>325.75</ele>
        <time>2019-12-08T10:09:21.000Z</time>
      </trkpt>
      <trkpt lat="43.63043" lon="6.6572">
        <ele>325.82</ele>
        <time>2019-12-08T10:09:22.000Z</time>
      </trkpt>
      <trkpt lat="43.63044" lon="6.65714">
        <ele>325.95</ele>
        <time>2019-12-08T10:09:23.000Z</time>
      </trkpt>
      <trkpt lat="43.63045" lon="6.65708">
        <ele>326.15</ele>
        <time>2019-12-08T10:09:24.000Z</time>
      </trkpt>
      <trkpt lat="43.63047" lon="6.65702">
        <ele>326.25</ele>
        <time>2019-12-08T10:09:25.000Z</time>
      </trkpt>
      <trkpt lat="43.63049" lon="6.65696">
        <ele>326.45</ele>
        <time>2019-12-08T10:09:26.000Z</time>
      </trkpt>
      <trkpt lat="43.6305" lon="6.6569">
        <ele>326.6</ele>
        <time>2019-12-08T10:09:27.000Z</time>
      </trkpt>
      <trkpt lat="43.63052" lon="6.65684">
        <ele>326.73</ele>
        <time>2019-12-08T10:09:28.000Z</time>
      </trkpt>
      <trkpt lat="43.63054" lon="6.65678">
        <ele>327.06</ele>
        <time>2019-12-08T10:09:29.000Z</time>
      </trkpt>
      <trkpt lat="43.63056" lon="6.65672">
        <ele>327.18</ele>
        <time>2019-12-08T10:09:30.000Z</time>
      </trkpt>
      <trkpt lat="43.63059" lon="6.65667">
        <ele>327.3</ele>
        <time>2019-12-08T10:09:31.000Z</time>
      </trkpt>
      <trkpt lat="43.63062" lon="6.65662">
        <ele>327.48</ele>
        <time>2019-12-08T10:09:32.000Z</time>
      </trkpt>
      <trkpt lat="43.63065" lon="6.65657">
        <ele>327.47</ele>
        <time>2019-12-08T10:09:33.000Z</time>
      </trkpt>
      <trkpt lat="43.63068" lon="6.65652">
        <ele>327.51</ele>
        <time>2019-12-08T10:09:34.000Z</time>
      </trkpt>
      <trkpt lat="43.63072" lon="6.65648">
        <ele>327.74</ele>
        <time>2019-12-08T10:09:35.000Z</time>
      </trkpt>
      <trkpt lat="43.63075" lon="6.65643">
        <ele>327.92</ele>
        <time>2019-12-08T10:09:36.000Z</time>
      </trkpt>
      <trkpt lat="43.63079" lon="6.65639">
        <ele>328.14</ele>
        <time>2019-12-08T10:09:37.000Z</time>
      </trkpt>
      <trkpt lat="43.63082" lon="6.65635">
        <ele>328.4</ele>
        <time>2019-12-08T10:09:38.000Z</time>
      </trkpt>
      <trkpt lat="43.63085" lon="6.65631">
        <ele>328.51</ele>
        <time>2019-12-08T10:09:39.000Z</time>
      </trkpt>
      <trkpt lat="43.63089" lon="6.65627">
        <ele>328.81</ele>
        <time>2019-12-08T10:09:40.000Z</time>
      </trkpt>
      <trkpt lat="43.63092" lon="6.65623">
        <ele>329.09</ele>
        <time>2019-12-08T10:09:41.000Z</time>
      </trkpt>
      <trkpt lat="43.63095" lon="6.65619">
        <ele>329.35</ele>
        <time>2019-12-08T10:09:42.000Z</time>
      </trkpt>
      <trkpt lat="43.63098" lon="6.65615">
        <ele>329.46</ele>
        <time>2019-12-08T10:09:43.000Z</time>
      </trkpt>
      <trkpt lat="43.63102" lon="6.65611">
        <ele>329.7</ele>
        <time>2019-12-08T10:09:44.000Z</time>
      </trkpt>
      <trkpt lat="43.63105" lon="6.65607">
        <ele>329.93</ele>
        <time>2019-12-08T10:09:45.000Z</time>
      </trkpt>
      <trkpt lat="43.63108" lon="6.65603">
        <ele>330.17</ele>
        <time>2019-12-08T10:09:46.000Z</time>
      </trkpt>
      <trkpt lat="43.63112" lon="6.65599">
        <ele>330.28</ele>
        <time>2019-12-08T10:09:47.000Z</time>
      </trkpt>
      <trkpt lat="43.63115" lon="6.65595">
        <ele>330.54</ele>
        <time>2019-12-08T10:09:48.000Z</time>
      </trkpt>
      <trkpt lat="43.63118" lon="6.65591">
        <ele>330.75</ele>
        <time>2019-12-08T10:09:49.000Z</time>
      </trkpt>
      <trkpt lat="43.63121" lon="6.65588">
        <ele>331.07</ele>
        <time>2019-12-08T10:09:50.000Z</time>
      </trkpt>
      <trkpt lat="43.63124" lon="6.65584">
        <ele>331.22</ele>
        <time>2019-12-08T10:09:51.000Z</time>
      </trkpt>
      <trkpt lat="43.63127" lon="6.6558">
        <ele>331.52</ele>
        <time>2019-12-08T10:09:52.000Z</time>
      </trkpt>
      <trkpt lat="43.63131" lon="6.65577">
        <ele>331.83</ele>
        <time>2019-12-08T10:09:53.000Z</time>
      </trkpt>
      <trkpt lat="43.63134" lon="6.65573">
        <ele>332.23</ele>
        <time>2019-12-08T10:09:54.000Z</time>
      </trkpt>
      <trkpt lat="43.63138" lon="6.6557">
        <ele>332.41</ele>
        <time>2019-12-08T10:09:55.000Z</time>
      </trkpt>
      <trkpt lat="43.63141" lon="6.65568">
        <ele>332.85</ele>
        <time>2019-12-08T10:09:56.000Z</time>
      </trkpt>
      <trkpt lat="43.63145" lon="6.65565">
        <ele>333.21</ele>
        <time>2019-12-08T10:09:57.000Z</time>
      </trkpt>
      <trkpt lat="43.63149" lon="6.65563">
        <ele>333.41</ele>
        <time>2019-12-08T10:09:58.000Z</time>
      </trkpt>
      <trkpt lat="43.63153" lon="6.65562">
        <ele>333.61</ele>
        <time>2019-12-08T10:09:59.000Z</time>
      </trkpt>
      <trkpt lat="43.63157" lon="6.6556">
        <ele>333.68</ele>
        <time>2019-12-08T10:10:00.000Z</time>
      </trkpt>
      <trkpt lat="43.63161" lon="6.65559">
        <ele>333.79</ele>
        <time>2019-12-08T10:10:01.000Z</time>
      </trkpt>
      <trkpt lat="43.63165" lon="6.65558">
        <ele>334.07</ele>
        <time>2019-12-08T10:10:02.000Z</time>
      </trkpt>
      <trkpt lat="43.63169" lon="6.65557">
        <ele>334.21</ele>
        <time>2019-12-08T10:10:03.000Z</time>
      </trkpt>
      <trkpt lat="43.63173" lon="6.65556">
        <ele>334.21</ele>
        <time>2019-12-08T10:10:04.000Z</time>
      </trkpt>
      <trkpt lat="43.63177" lon="6.65555">
        <ele>334.48</ele>
        <time>2019-12-08T10:10:05.000Z</time>
      </trkpt>
      <trkpt lat="43.63181" lon="6.65554">
        <ele>334.79</ele>
        <time>2019-12-08T10:10:06.000Z</time>
      </trkpt>
      <trkpt lat="43.63186" lon="6.65553">
        <ele>335.08</ele>
        <time>2019-12-08T10:10:07.000Z</time>
      </trkpt>
      <trkpt lat="43.6319" lon="6.65552">
        <ele>335.18</ele>
        <time>2019-12-08T10:10:08.000Z</time>
      </trkpt>
      <trkpt lat="43.63194" lon="6.65549">
        <ele>335.35</ele>
        <time>2019-12-08T10:10:09.000Z</time>
      </trkpt>
      <trkpt lat="43.63197" lon="6.65546">
        <ele>335.49</ele>
        <time>2019-12-08T10:10:10.000Z</time>
      </trkpt>
      <trkpt lat="43.632" lon="6.65543">
        <ele>335.53</ele>
        <time>2019-12-08T10:10:11.000Z</time>
      </trkpt>
      <trkpt lat="43.63203" lon="6.65538">
        <ele>335.55</ele>
        <time>2019-12-08T10:10:12.000Z</time>
      </trkpt>
      <trkpt lat="43.63206" lon="6.65534">
        <ele>335.6</ele>
        <time>2019-12-08T10:10:13.000Z</time>
      </trkpt>
      <trkpt lat="43.63208" lon="6.65528">
        <ele>335.69</ele>
        <time>2019-12-08T10:10:14.000Z</time>
      </trkpt>
      <trkpt lat="43.63209" lon="6.65523">
        <ele>335.87</ele>
        <time>2019-12-08T10:10:15.000Z</time>
      </trkpt>
      <trkpt lat="43.63211" lon="6.65517">
        <ele>335.99</ele>
        <time>2019-12-08T10:10:16.000Z</time>
      </trkpt>
      <trkpt lat="43.63211" lon="6.65511">
        <ele>336.23</ele>
        <time>2019-12-08T10:10:17.000Z</time>
      </trkpt>
      <trkpt lat="43.63211" lon="6.65504">
        <ele>336.45</ele>
        <time>2019-12-08T10:10:18.000Z</time>
      </trkpt>
      <trkpt lat="43.63211" lon="6.65498">
        <ele>336.62</ele>
        <time>2019-12-08T10:10:19.000Z</time>
      </trkpt>
      <trkpt lat="43.6321" lon="6.65491">
        <ele>336.69</ele>
        <time>2019-12-08T10:10:20.000Z</time>
      </trkpt>
      <trkpt lat="43.63209" lon="6.65484">
        <ele>336.83</ele>
        <time>2019-12-08T10:10:21.000Z</time>
      </trkpt>
      <trkpt lat="43.63209" lon="6.65477">
        <ele>336.96</ele>
        <time>2019-12-08T10:10:22.000Z</time>
      </trkpt>
      <trkpt lat="43.63208" lon="6.6547">
        <ele>337.11</ele>
        <time>2019-12-08T10:10:23.000Z</time>
      </trkpt>
      <trkpt lat="43.63209" lon="6.65463">
        <ele>337.19</ele>
        <time>2019-12-08T10:10:24.000Z</time>
      </trkpt>
      <trkpt lat="43.6321" lon="6.65456">
        <ele>337.29</ele>
        <time>2019-12-08T10:10:25.000Z</time>
      </trkpt>
      <trkpt lat="43.63212" lon="6.6545">
        <ele>337.37</ele>
        <time>2019-12-08T10:10:26.000Z</time>
      </trkpt>
      <trkpt lat="43.63215" lon="6.65443">
        <ele>337.45</ele>
        <time>2019-12-08T10:10:27.000Z</time>
      </trkpt>
      <trkpt lat="43.63218" lon="6.65437">
        <ele>337.41</ele>
        <time>2019-12-08T10:10:28.000Z</time>
      </trkpt>
      <trkpt lat="43.63221" lon="6.65431">
        <ele>337.38</ele>
        <time>2019-12-08T10:10:29.000Z</time>
      </trkpt>
      <trkpt lat="43.63224" lon="6.65425">
        <ele>337.4</ele>
        <time>2019-12-08T10:10:30.000Z</time>
      </trkpt>
      <trkpt lat="43.63228" lon="6.6542">
        <ele>337.34</ele>
        <time>2019-12-08T10:10:31.000Z</time>
      </trkpt>
      <trkpt lat="43.63232" lon="6.65415">
        <ele>337.34</ele>
        <time>2019-12-08T10:10:32.000Z</time>
      </trkpt>
      <trkpt lat="43.63236" lon="6.6541">
        <ele>337.34</ele>
        <time>2019-12-08T10:10:33.000Z</time>
      </trkpt>
      <trkpt lat="43.6324" lon="6.65405">
        <ele>337.34</ele>
        <time>2019-12-08T10:10:34.000Z</time>
      </trkpt>
      <trkpt lat="43.63244" lon="6.65401">
        <ele>337.34</ele>
        <time>2019-12-08T10:10:35.000Z</time>
      </trkpt>
      <trkpt lat="43.63247" lon="6.65396">
        <ele>337.34</ele>
        <time>2019-12-08T10:10:36.000Z</time>
      </trkpt>
      <trkpt lat="43.63251" lon="6.65391">
        <ele>337.34</ele>
        <time>2019-12-08T10:10:37.000Z</time>
      </trkpt>
      <trkpt lat="43.63254" lon="6.65387">
        <ele>337.34</ele>
        <time>2019-12-08T10:10:38.000Z</time>
      </trkpt>
      <trkpt lat="43.63258" lon="6.65382">
        <ele>337.34</ele>
        <time>2019-12-08T10:10:39.000Z</time>
      </trkpt>
      <trkpt lat="43.63261" lon="6.65377">
        <ele>337.34</ele>
        <time>2019-12-08T10:10:40.000Z</time>
      </trkpt>
      <trkpt lat="43.63265" lon="6.65373">
        <ele>337.34</ele>
        <time>2019-12-08T10:10:41.000Z</time>
      </trkpt>
      <trkpt lat="43.63268" lon="6.65369">
        <ele>337.34</ele>
        <time>2019-12-08T10:10:42.000Z</time>
      </trkpt>
      <trkpt lat="43.63271" lon="6.65364">
        <ele>337.34</ele>
        <time>2019-12-08T10:10:43.000Z</time>
      </trkpt>
      <trkpt lat="43.63275" lon="6.65359">
        <ele>337.34</ele>
        <time>2019-12-08T10:10:44.000Z</time>
      </trkpt>
      <trkpt lat="43.63278" lon="6.65355">
        <ele>337.34</ele>
        <time>2019-12-08T10:10:45.000Z</time>
      </trkpt>
      <trkpt lat="43.63282" lon="6.65351">
        <ele>337.34</ele>
        <time>2019-12-08T10:10:46.000Z</time>
      </trkpt>
      <trkpt lat="43.63285" lon="6.65346">
        <ele>337.34</ele>
        <time>2019-12-08T10:10:47.000Z</time>
      </trkpt>
      <trkpt lat="43.63288" lon="6.65342">
        <ele>337.34</ele>
        <time>2019-12-08T10:10:48.000Z</time>
      </trkpt>
      <trkpt lat="43.63292" lon="6.65338">
        <ele>337.34</ele>
        <time>2019-12-08T10:10:49.000Z</time>
      </trkpt>
      <trkpt lat="43.63295" lon="6.65333">
        <ele>337.34</ele>
        <time>2019-12-08T10:10:50.000Z</time>
      </trkpt>
      <trkpt lat="43.63298" lon="6.65329">
        <ele>337.34</ele>
        <time>2019-12-08T10:10:51.000Z</time>
      </trkpt>
      <trkpt lat="43.63302" lon="6.65324">
        <ele>337.34</ele>
        <time>2019-12-08T10:10:52.000Z</time>
      </trkpt>
      <trkpt lat="43.63305" lon="6.6532">
        <ele>337.34</ele>
        <time>2019-12-08T10:10:53.000Z</time>
      </trkpt>
      <trkpt lat="43.63308" lon="6.65316">
        <ele>337.34</ele>
        <time>2019-12-08T10:10:54.000Z</time>
      </trkpt>
      <trkpt lat="43.63312" lon="6.65311">
        <ele>337.34</ele>
        <time>2019-12-08T10:10:55.000Z</time>
      </trkpt>
      <trkpt lat="43.63315" lon="6.65307">
        <ele>337.34</ele>
        <time>2019-12-08T10:10:56.000Z</time>
      </trkpt>
      <trkpt lat="43.63318" lon="6.65303">
        <ele>337.34</ele>
        <time>2019-12-08T10:10:57.000Z</time>
      </trkpt>
      <trkpt lat="43.63321" lon="6.65298">
        <ele>337.34</ele>
        <time>2019-12-08T10:10:58.000Z</time>
      </trkpt>
      <trkpt lat="43.63324" lon="6.65293">
        <ele>337.34</ele>
        <time>2019-12-08T10:10:59.000Z</time>
      </trkpt>
      <trkpt lat="43.63327" lon="6.65288">
        <ele>337.34</ele>
        <time>2019-12-08T10:11:00.000Z</time>
      </trkpt>
      <trkpt lat="43.6333" lon="6.65283">
        <ele>337.34</ele>
        <time>2019-12-08T10:11:01.000Z</time>
      </trkpt>
      <trkpt lat="43.63333" lon="6.65278">
        <ele>337.34</ele>
        <time>2019-12-08T10:11:02.000Z</time>
      </trkpt>
      <trkpt lat="43.63336" lon="6.65273">
        <ele>337.34</ele>
        <time>2019-12-08T10:11:03.000Z</time>
      </trkpt>
      <trkpt lat="43.63338" lon="6.65267">
        <ele>337.34</ele>
        <time>2019-12-08T10:11:04.000Z</time>
      </trkpt>
      <trkpt lat="43.6334" lon="6.65261">
        <ele>337.34</ele>
        <time>2019-12-08T10:11:05.000Z</time>
      </trkpt>
      <trkpt lat="43.63342" lon="6.65255">
        <ele>337.34</ele>
        <time>2019-12-08T10:11:06.000Z</time>
      </trkpt>
      <trkpt lat="43.63343" lon="6.65249">
        <ele>337.34</ele>
        <time>2019-12-08T10:11:07.000Z</time>
      </trkpt>
      <trkpt lat="43.63345" lon="6.65242">
        <ele>337.34</ele>
        <time>2019-12-08T10:11:08.000Z</time>
      </trkpt>
      <trkpt lat="43.63346" lon="6.65236">
        <ele>337.34</ele>
        <time>2019-12-08T10:11:09.000Z</time>
      </trkpt>
      <trkpt lat="43.63347" lon="6.6523">
        <ele>337.34</ele>
        <time>2019-12-08T10:11:10.000Z</time>
      </trkpt>
      <trkpt lat="43.63348" lon="6.65224">
        <ele>337.34</ele>
        <time>2019-12-08T10:11:11.000Z</time>
      </trkpt>
      <trkpt lat="43.63349" lon="6.65218">
        <ele>337.34</ele>
        <time>2019-12-08T10:11:12.000Z</time>
      </trkpt>
      <trkpt lat="43.6335" lon="6.65212">
        <ele>337.34</ele>
        <time>2019-12-08T10:11:13.000Z</time>
      </trkpt>
      <trkpt lat="43.63351" lon="6.65206">
        <ele>337.34</ele>
        <time>2019-12-08T10:11:14.000Z</time>
      </trkpt>
      <trkpt lat="43.63352" lon="6.652">
        <ele>337.34</ele>
        <time>2019-12-08T10:11:15.000Z</time>
      </trkpt>
      <trkpt lat="43.63354" lon="6.65194">
        <ele>337.34</ele>
        <time>2019-12-08T10:11:16.000Z</time>
      </trkpt>
      <trkpt lat="43.63355" lon="6.65189">
        <ele>337.34</ele>
        <time>2019-12-08T10:11:17.000Z</time>
      </trkpt>
      <trkpt lat="43.63357" lon="6.65183">
        <ele>337.34</ele>
        <time>2019-12-08T10:11:18.000Z</time>
      </trkpt>
      <trkpt lat="43.6336" lon="6.65179">
        <ele>337.34</ele>
        <time>2019-12-08T10:11:19.000Z</time>
      </trkpt>
      <trkpt lat="43.63362" lon="6.65174">
        <ele>337.34</ele>
        <time>2019-12-08T10:11:20.000Z</time>
      </trkpt>
      <trkpt lat="43.63365" lon="6.65169">
        <ele>337.34</ele>
        <time>2019-12-08T10:11:21.000Z</time>
      </trkpt>
      <trkpt lat="43.63367" lon="6.65165">
        <ele>337.34</ele>
        <time>2019-12-08T10:11:22.000Z</time>
      </trkpt>
      <trkpt lat="43.6337" lon="6.65161">
        <ele>337.34</ele>
        <time>2019-12-08T10:11:23.000Z</time>
      </trkpt>
      <trkpt lat="43.63373" lon="6.65156">
        <ele>337.34</ele>
        <time>2019-12-08T10:11:24.000Z</time>
      </trkpt>
      <trkpt lat="43.63375" lon="6.65152">
        <ele>337.34</ele>
        <time>2019-12-08T10:11:25.000Z</time>
      </trkpt>
      <trkpt lat="43.63378" lon="6.65148">
        <ele>338.72</ele>
        <time>2019-12-08T10:11:26.000Z</time>
      </trkpt>
      <trkpt lat="43.6338" lon="6.65143">
        <ele>340.18</ele>
        <time>2019-12-08T10:11:27.000Z</time>
      </trkpt>
      <trkpt lat="43.63383" lon="6.65139">
        <ele>343.19</ele>
        <time>2019-12-08T10:11:28.000Z</time>
      </trkpt>
      <trkpt lat="43.63386" lon="6.65135">
        <ele>346.2</ele>
        <time>2019-12-08T10:11:29.000Z</time>
      </trkpt>
      <trkpt lat="43.63388" lon="6.6513">
        <ele>347.76</ele>
        <time>2019-12-08T10:11:30.000Z</time>
      </trkpt>
      <trkpt lat="43.63391" lon="6.65126">
        <ele>349.4</ele>
        <time>2019-12-08T10:11:31.000Z</time>
      </trkpt>
      <trkpt lat="43.63394" lon="6.65122">
        <ele>349.54</ele>
        <time>2019-12-08T10:11:32.000Z</time>
      </trkpt>
      <trkpt lat="43.63397" lon="6.65118">
        <ele>349.68</ele>
        <time>2019-12-08T10:11:33.000Z</time>
      </trkpt>
      <trkpt lat="43.63399" lon="6.65113">
        <ele>349.77</ele>
        <time>2019-12-08T10:11:34.000Z</time>
      </trkpt>
      <trkpt lat="43.63402" lon="6.65109">
        <ele>349.98</ele>
        <time>2019-12-08T10:11:35.000Z</time>
      </trkpt>
      <trkpt lat="43.63404" lon="6.65105">
        <ele>350.29</ele>
        <time>2019-12-08T10:11:36.000Z</time>
      </trkpt>
      <trkpt lat="43.63407" lon="6.651">
        <ele>350.59</ele>
        <time>2019-12-08T10:11:37.000Z</time>
      </trkpt>
      <trkpt lat="43.63409" lon="6.65095">
        <ele>350.74</ele>
        <time>2019-12-08T10:11:38.000Z</time>
      </trkpt>
      <trkpt lat="43.63411" lon="6.6509">
        <ele>351</ele>
        <time>2019-12-08T10:11:39.000Z</time>
      </trkpt>
      <trkpt lat="43.63413" lon="6.65085">
        <ele>351.23</ele>
        <time>2019-12-08T10:11:40.000Z</time>
      </trkpt>
      <trkpt lat="43.63415" lon="6.6508">
        <ele>351.41</ele>
        <time>2019-12-08T10:11:41.000Z</time>
      </trkpt>
      <trkpt lat="43.63417" lon="6.65075">
        <ele>351.51</ele>
        <time>2019-12-08T10:11:42.000Z</time>
      </trkpt>
      <trkpt lat="43.63419" lon="6.6507">
        <ele>351.75</ele>
        <time>2019-12-08T10:11:43.000Z</time>
      </trkpt>
      <trkpt lat="43.63421" lon="6.65065">
        <ele>351.96</ele>
        <time>2019-12-08T10:11:44.000Z</time>
      </trkpt>
      <trkpt lat="43.63423" lon="6.6506">
        <ele>351.96</ele>
        <time>2019-12-08T10:11:45.000Z</time>
      </trkpt>
      <trkpt lat="43.63425" lon="6.65055">
        <ele>351.96</ele>
        <time>2019-12-08T10:11:46.000Z</time>
      </trkpt>
      <trkpt lat="43.63427" lon="6.65049">
        <ele>352.13</ele>
        <time>2019-12-08T10:11:47.000Z</time>
      </trkpt>
      <trkpt lat="43.63429" lon="6.65044">
        <ele>352.31</ele>
        <time>2019-12-08T10:11:48.000Z</time>
      </trkpt>
      <trkpt lat="43.63431" lon="6.65039">
        <ele>352.31</ele>
        <time>2019-12-08T10:11:49.000Z</time>
      </trkpt>
      <trkpt lat="43.63432" lon="6.65033">
        <ele>352.89</ele>
        <time>2019-12-08T10:11:50.000Z</time>
      </trkpt>
      <trkpt lat="43.63434" lon="6.65028">
        <ele>353.09</ele>
        <time>2019-12-08T10:11:51.000Z</time>
      </trkpt>
      <trkpt lat="43.63436" lon="6.65023">
        <ele>353.53</ele>
        <time>2019-12-08T10:11:52.000Z</time>
      </trkpt>
      <trkpt lat="43.63438" lon="6.65018">
        <ele>353.85</ele>
        <time>2019-12-08T10:11:53.000Z</time>
      </trkpt>
      <trkpt lat="43.63439" lon="6.65013">
        <ele>354.03</ele>
        <time>2019-12-08T10:11:54.000Z</time>
      </trkpt>
      <trkpt lat="43.63441" lon="6.65007">
        <ele>354.11</ele>
        <time>2019-12-08T10:11:55.000Z</time>
      </trkpt>
      <trkpt lat="43.63444" lon="6.65002">
        <ele>354.31</ele>
        <time>2019-12-08T10:11:56.000Z</time>
      </trkpt>
      <trkpt lat="43.63446" lon="6.64997">
        <ele>354.47</ele>
        <time>2019-12-08T10:11:57.000Z</time>
      </trkpt>
      <trkpt lat="43.63448" lon="6.64993">
        <ele>354.73</ele>
        <time>2019-12-08T10:11:58.000Z</time>
      </trkpt>
      <trkpt lat="43.63451" lon="6.64988">
        <ele>354.87</ele>
        <time>2019-12-08T10:11:59.000Z</time>
      </trkpt>
      <trkpt lat="43.63453" lon="6.64984">
        <ele>355.1</ele>
        <time>2019-12-08T10:12:00.000Z</time>
      </trkpt>
      <trkpt lat="43.63456" lon="6.6498">
        <ele>355.33</ele>
        <time>2019-12-08T10:12:01.000Z</time>
      </trkpt>
      <trkpt lat="43.63458" lon="6.64975">
        <ele>355.57</ele>
        <time>2019-12-08T10:12:02.000Z</time>
      </trkpt>
      <trkpt lat="43.63461" lon="6.64971">
        <ele>355.72</ele>
        <time>2019-12-08T10:12:03.000Z</time>
      </trkpt>
      <trkpt lat="43.63464" lon="6.64967">
        <ele>355.98</ele>
        <time>2019-12-08T10:12:04.000Z</time>
      </trkpt>
      <trkpt lat="43.63467" lon="6.64963">
        <ele>356.22</ele>
        <time>2019-12-08T10:12:05.000Z</time>
      </trkpt>
      <trkpt lat="43.63469" lon="6.64958">
        <ele>356.47</ele>
        <time>2019-12-08T10:12:06.000Z</time>
      </trkpt>
      <trkpt lat="43.63472" lon="6.64954">
        <ele>356.58</ele>
        <time>2019-12-08T10:12:07.000Z</time>
      </trkpt>
      <trkpt lat="43.63475" lon="6.6495">
        <ele>356.82</ele>
        <time>2019-12-08T10:12:08.000Z</time>
      </trkpt>
      <trkpt lat="43.63477" lon="6.64946">
        <ele>356.99</ele>
        <time>2019-12-08T10:12:09.000Z</time>
      </trkpt>
      <trkpt lat="43.6348" lon="6.64941">
        <ele>357.24</ele>
        <time>2019-12-08T10:12:10.000Z</time>
      </trkpt>
      <trkpt lat="43.63483" lon="6.64937">
        <ele>357.38</ele>
        <time>2019-12-08T10:12:11.000Z</time>
      </trkpt>
      <trkpt lat="43.63486" lon="6.64933">
        <ele>357.6</ele>
        <time>2019-12-08T10:12:12.000Z</time>
      </trkpt>
      <trkpt lat="43.63488" lon="6.64928">
        <ele>357.83</ele>
        <time>2019-12-08T10:12:13.000Z</time>
      </trkpt>
      <trkpt lat="43.63491" lon="6.64924">
        <ele>358.06</ele>
        <time>2019-12-08T10:12:14.000Z</time>
      </trkpt>
      <trkpt lat="43.63494" lon="6.6492">
        <ele>358.12</ele>
        <time>2019-12-08T10:12:15.000Z</time>
      </trkpt>
      <trkpt lat="43.63497" lon="6.64916">
        <ele>358.22</ele>
        <time>2019-12-08T10:12:16.000Z</time>
      </trkpt>
      <trkpt lat="43.63503" lon="6.64908">
        <ele>358.43</ele>
        <time>2019-12-08T10:12:18.000Z</time>
      </trkpt>
      <trkpt lat="43.63506" lon="6.64905">
        <ele>358.68</ele>
        <time>2019-12-08T10:12:19.000Z</time>
      </trkpt>
      <trkpt lat="43.63509" lon="6.64901">
        <ele>358.83</ele>
        <time>2019-12-08T10:12:20.000Z</time>
      </trkpt>
      <trkpt lat="43.63512" lon="6.64898">
        <ele>358.83</ele>
        <time>2019-12-08T10:12:21.000Z</time>
      </trkpt>
      <trkpt lat="43.63516" lon="6.64895">
        <ele>358.83</ele>
        <time>2019-12-08T10:12:22.000Z</time>
      </trkpt>
      <trkpt lat="43.63519" lon="6.64892">
        <ele>359.47</ele>
        <time>2019-12-08T10:12:23.000Z</time>
      </trkpt>
      <trkpt lat="43.63522" lon="6.64889">
        <ele>359.78</ele>
        <time>2019-12-08T10:12:24.000Z</time>
      </trkpt>
      <trkpt lat="43.63526" lon="6.64887">
        <ele>360.39</ele>
        <time>2019-12-08T10:12:25.000Z</time>
      </trkpt>
      <trkpt lat="43.63529" lon="6.64884">
        <ele>360.94</ele>
        <time>2019-12-08T10:12:26.000Z</time>
      </trkpt>
      <trkpt lat="43.63533" lon="6.64881">
        <ele>361.34</ele>
        <time>2019-12-08T10:12:27.000Z</time>
      </trkpt>
      <trkpt lat="43.63536" lon="6.64879">
        <ele>361.48</ele>
        <time>2019-12-08T10:12:28.000Z</time>
      </trkpt>
      <trkpt lat="43.6354" lon="6.64876">
        <ele>361.68</ele>
        <time>2019-12-08T10:12:29.000Z</time>
      </trkpt>
      <trkpt lat="43.63543" lon="6.64873">
        <ele>361.93</ele>
        <time>2019-12-08T10:12:30.000Z</time>
      </trkpt>
      <trkpt lat="43.63547" lon="6.6487">
        <ele>362.14</ele>
        <time>2019-12-08T10:12:31.000Z</time>
      </trkpt>
      <trkpt lat="43.6355" lon="6.64867">
        <ele>362.25</ele>
        <time>2019-12-08T10:12:32.000Z</time>
      </trkpt>
      <trkpt lat="43.63554" lon="6.64865">
        <ele>362.54</ele>
        <time>2019-12-08T10:12:33.000Z</time>
      </trkpt>
      <trkpt lat="43.63557" lon="6.64862">
        <ele>362.77</ele>
        <time>2019-12-08T10:12:34.000Z</time>
      </trkpt>
      <trkpt lat="43.63561" lon="6.6486">
        <ele>363.01</ele>
        <time>2019-12-08T10:12:35.000Z</time>
      </trkpt>
      <trkpt lat="43.63564" lon="6.64857">
        <ele>363.19</ele>
        <time>2019-12-08T10:12:36.000Z</time>
      </trkpt>
      <trkpt lat="43.63567" lon="6.64854">
        <ele>363.43</ele>
        <time>2019-12-08T10:12:37.000Z</time>
      </trkpt>
      <trkpt lat="43.63571" lon="6.64851">
        <ele>363.68</ele>
        <time>2019-12-08T10:12:38.000Z</time>
      </trkpt>
      <trkpt lat="43.63574" lon="6.64849">
        <ele>363.95</ele>
        <time>2019-12-08T10:12:39.000Z</time>
      </trkpt>
      <trkpt lat="43.63578" lon="6.64846">
        <ele>364.07</ele>
        <time>2019-12-08T10:12:40.000Z</time>
      </trkpt>
      <trkpt lat="43.63581" lon="6.64843">
        <ele>364.29</ele>
        <time>2019-12-08T10:12:41.000Z</time>
      </trkpt>
      <trkpt lat="43.63584" lon="6.6484">
        <ele>364.53</ele>
        <time>2019-12-08T10:12:42.000Z</time>
      </trkpt>
      <trkpt lat="43.63587" lon="6.64837">
        <ele>364.73</ele>
        <time>2019-12-08T10:12:43.000Z</time>
      </trkpt>
      <trkpt lat="43.63589" lon="6.64833">
        <ele>364.8</ele>
        <time>2019-12-08T10:12:44.000Z</time>
      </trkpt>
      <trkpt lat="43.63592" lon="6.64829">
        <ele>364.89</ele>
        <time>2019-12-08T10:12:45.000Z</time>
      </trkpt>
      <trkpt lat="43.63594" lon="6.64824">
        <ele>365.09</ele>
        <time>2019-12-08T10:12:46.000Z</time>
      </trkpt>
      <trkpt lat="43.63596" lon="6.6482">
        <ele>365.35</ele>
        <time>2019-12-08T10:12:47.000Z</time>
      </trkpt>
      <trkpt lat="43.63597" lon="6.64815">
        <ele>365.48</ele>
        <time>2019-12-08T10:12:48.000Z</time>
      </trkpt>
      <trkpt lat="43.63599" lon="6.64809">
        <ele>365.82</ele>
        <time>2019-12-08T10:12:49.000Z</time>
      </trkpt>
      <trkpt lat="43.636" lon="6.64804">
        <ele>366.17</ele>
        <time>2019-12-08T10:12:50.000Z</time>
      </trkpt>
      <trkpt lat="43.63602" lon="6.648">
        <ele>366.41</ele>
        <time>2019-12-08T10:12:51.000Z</time>
      </trkpt>
      <trkpt lat="43.63603" lon="6.64795">
        <ele>366.69</ele>
        <time>2019-12-08T10:12:52.000Z</time>
      </trkpt>
      <trkpt lat="43.63605" lon="6.6479">
        <ele>366.86</ele>
        <time>2019-12-08T10:12:53.000Z</time>
      </trkpt>
      <trkpt lat="43.63606" lon="6.64786">
        <ele>367.07</ele>
        <time>2019-12-08T10:12:54.000Z</time>
      </trkpt>
      <trkpt lat="43.63607" lon="6.64781">
        <ele>367.38</ele>
        <time>2019-12-08T10:12:55.000Z</time>
      </trkpt>
      <trkpt lat="43.63608" lon="6.64777">
        <ele>367.53</ele>
        <time>2019-12-08T10:12:56.000Z</time>
      </trkpt>
      <trkpt lat="43.6361" lon="6.64773">
        <ele>367.85</ele>
        <time>2019-12-08T10:12:57.000Z</time>
      </trkpt>
      <trkpt lat="43.63612" lon="6.64769">
        <ele>368.18</ele>
        <time>2019-12-08T10:12:58.000Z</time>
      </trkpt>
      <trkpt lat="43.63615" lon="6.64765">
        <ele>368.44</ele>
        <time>2019-12-08T10:12:59.000Z</time>
      </trkpt>
      <trkpt lat="43.63618" lon="6.64763">
        <ele>368.75</ele>
        <time>2019-12-08T10:13:00.000Z</time>
      </trkpt>
      <trkpt lat="43.63622" lon="6.64761">
        <ele>368.83</ele>
        <time>2019-12-08T10:13:01.000Z</time>
      </trkpt>
      <trkpt lat="43.63625" lon="6.64759">
        <ele>369.04</ele>
        <time>2019-12-08T10:13:02.000Z</time>
      </trkpt>
      <trkpt lat="43.63628" lon="6.64758">
        <ele>369.24</ele>
        <time>2019-12-08T10:13:03.000Z</time>
      </trkpt>
      <trkpt lat="43.63632" lon="6.64758">
        <ele>369.55</ele>
        <time>2019-12-08T10:13:04.000Z</time>
      </trkpt>
      <trkpt lat="43.63635" lon="6.64758">
        <ele>369.67</ele>
        <time>2019-12-08T10:13:05.000Z</time>
      </trkpt>
      <trkpt lat="43.63639" lon="6.64758">
        <ele>369.95</ele>
        <time>2019-12-08T10:13:06.000Z</time>
      </trkpt>
      <trkpt lat="43.63642" lon="6.64758">
        <ele>370.12</ele>
        <time>2019-12-08T10:13:07.000Z</time>
      </trkpt>
      <trkpt lat="43.63646" lon="6.64758">
        <ele>370.29</ele>
        <time>2019-12-08T10:13:08.000Z</time>
      </trkpt>
      <trkpt lat="43.63649" lon="6.64758">
        <ele>370.36</ele>
        <time>2019-12-08T10:13:09.000Z</time>
      </trkpt>
      <trkpt lat="43.63653" lon="6.64758">
        <ele>370.53</ele>
        <time>2019-12-08T10:13:10.000Z</time>
      </trkpt>
      <trkpt lat="43.63656" lon="6.64758">
        <ele>370.69</ele>
        <time>2019-12-08T10:13:11.000Z</time>
      </trkpt>
      <trkpt lat="43.6366" lon="6.64758">
        <ele>370.98</ele>
        <time>2019-12-08T10:13:12.000Z</time>
      </trkpt>
      <trkpt lat="43.63664" lon="6.64758">
        <ele>371.1</ele>
        <time>2019-12-08T10:13:13.000Z</time>
      </trkpt>
      <trkpt lat="43.63667" lon="6.64758">
        <ele>371.25</ele>
        <time>2019-12-08T10:13:14.000Z</time>
      </trkpt>
      <trkpt lat="43.63671" lon="6.64758">
        <ele>371.54</ele>
        <time>2019-12-08T10:13:15.000Z</time>
      </trkpt>
      <trkpt lat="43.63675" lon="6.64759">
        <ele>371.77</ele>
        <time>2019-12-08T10:13:16.000Z</time>
      </trkpt>
      <trkpt lat="43.63678" lon="6.64759">
        <ele>371.86</ele>
        <time>2019-12-08T10:13:17.000Z</time>
      </trkpt>
      <trkpt lat="43.63682" lon="6.64759">
        <ele>372.05</ele>
        <time>2019-12-08T10:13:18.000Z</time>
      </trkpt>
      <trkpt lat="43.63685" lon="6.64759">
        <ele>372.17</ele>
        <time>2019-12-08T10:13:19.000Z</time>
      </trkpt>
      <trkpt lat="43.63689" lon="6.64759">
        <ele>372.37</ele>
        <time>2019-12-08T10:13:20.000Z</time>
      </trkpt>
      <trkpt lat="43.63693" lon="6.6476">
        <ele>372.67</ele>
        <time>2019-12-08T10:13:21.000Z</time>
      </trkpt>
      <trkpt lat="43.63696" lon="6.6476">
        <ele>372.75</ele>
        <time>2019-12-08T10:13:22.000Z</time>
      </trkpt>
      <trkpt lat="43.63699" lon="6.6476">
        <ele>373.09</ele>
        <time>2019-12-08T10:13:23.000Z</time>
      </trkpt>
      <trkpt lat="43.63703" lon="6.6476">
        <ele>373.32</ele>
        <time>2019-12-08T10:13:24.000Z</time>
      </trkpt>
      <trkpt lat="43.63706" lon="6.64761">
        <ele>373.43</ele>
        <time>2019-12-08T10:13:25.000Z</time>
      </trkpt>
      <trkpt lat="43.63709" lon="6.64761">
        <ele>373.66</ele>
        <time>2019-12-08T10:13:26.000Z</time>
      </trkpt>
      <trkpt lat="43.63713" lon="6.64761">
        <ele>373.92</ele>
        <time>2019-12-08T10:13:27.000Z</time>
      </trkpt>
      <trkpt lat="43.63716" lon="6.64761">
        <ele>374.18</ele>
        <time>2019-12-08T10:13:28.000Z</time>
      </trkpt>
      <trkpt lat="43.63719" lon="6.64762">
        <ele>374.53</ele>
        <time>2019-12-08T10:13:29.000Z</time>
      </trkpt>
      <trkpt lat="43.63721" lon="6.64762">
        <ele>374.72</ele>
        <time>2019-12-08T10:13:30.000Z</time>
      </trkpt>
      <trkpt lat="43.63724" lon="6.64762">
        <ele>375.08</ele>
        <time>2019-12-08T10:13:31.000Z</time>
      </trkpt>
      <trkpt lat="43.63727" lon="6.64762">
        <ele>375.49</ele>
        <time>2019-12-08T10:13:32.000Z</time>
      </trkpt>
      <trkpt lat="43.6373" lon="6.64762">
        <ele>375.7</ele>
        <time>2019-12-08T10:13:33.000Z</time>
      </trkpt>
      <trkpt lat="43.63732" lon="6.64762">
        <ele>375.91</ele>
        <time>2019-12-08T10:13:34.000Z</time>
      </trkpt>
      <trkpt lat="43.63735" lon="6.64762">
        <ele>376.36</ele>
        <time>2019-12-08T10:13:35.000Z</time>
      </trkpt>
      <trkpt lat="43.63738" lon="6.64761">
        <ele>376.78</ele>
        <time>2019-12-08T10:13:36.000Z</time>
      </trkpt>
      <trkpt lat="43.6374" lon="6.64761">
        <ele>377.21</ele>
        <time>2019-12-08T10:13:37.000Z</time>
      </trkpt>
      <trkpt lat="43.63743" lon="6.64761">
        <ele>377.39</ele>
        <time>2019-12-08T10:13:38.000Z</time>
      </trkpt>
      <trkpt lat="43.63745" lon="6.6476">
        <ele>377.72</ele>
        <time>2019-12-08T10:13:39.000Z</time>
      </trkpt>
      <trkpt lat="43.63747" lon="6.64759">
        <ele>378.06</ele>
        <time>2019-12-08T10:13:40.000Z</time>
      </trkpt>
      <trkpt lat="43.6375" lon="6.64759">
        <ele>378.34</ele>
        <time>2019-12-08T10:13:41.000Z</time>
      </trkpt>
      <trkpt lat="43.63752" lon="6.64758">
        <ele>378.49</ele>
        <time>2019-12-08T10:13:42.000Z</time>
      </trkpt>
      <trkpt lat="43.63755" lon="6.64758">
        <ele>378.82</ele>
        <time>2019-12-08T10:13:43.000Z</time>
      </trkpt>
      <trkpt lat="43.63757" lon="6.64758">
        <ele>379.18</ele>
        <time>2019-12-08T10:13:44.000Z</time>
      </trkpt>
      <trkpt lat="43.63759" lon="6.64757">
        <ele>379.5</ele>
        <time>2019-12-08T10:13:45.000Z</time>
      </trkpt>
      <trkpt lat="43.63762" lon="6.64757">
        <ele>379.71</ele>
        <time>2019-12-08T10:13:46.000Z</time>
      </trkpt>
      <trkpt lat="43.63764" lon="6.64756">
        <ele>380.1</ele>
        <time>2019-12-08T10:13:47.000Z</time>
      </trkpt>
      <trkpt lat="43.63766" lon="6.64756">
        <ele>380.42</ele>
        <time>2019-12-08T10:13:48.000Z</time>
      </trkpt>
      <trkpt lat="43.63768" lon="6.64755">
        <ele>380.76</ele>
        <time>2019-12-08T10:13:49.000Z</time>
      </trkpt>
      <trkpt lat="43.6377" lon="6.64755">
        <ele>380.92</ele>
        <time>2019-12-08T10:13:50.000Z</time>
      </trkpt>
      <trkpt lat="43.63773" lon="6.64754">
        <ele>381.23</ele>
        <time>2019-12-08T10:13:51.000Z</time>
      </trkpt>
      <trkpt lat="43.63775" lon="6.64754">
        <ele>381.57</ele>
        <time>2019-12-08T10:13:52.000Z</time>
      </trkpt>
      <trkpt lat="43.63777" lon="6.64753">
        <ele>381.91</ele>
        <time>2019-12-08T10:13:53.000Z</time>
      </trkpt>
      <trkpt lat="43.63779" lon="6.64752">
        <ele>382.08</ele>
        <time>2019-12-08T10:13:54.000Z</time>
      </trkpt>
      <trkpt lat="43.63781" lon="6.64752">
        <ele>382.42</ele>
        <time>2019-12-08T10:13:55.000Z</time>
      </trkpt>
      <trkpt lat="43.63784" lon="6.6475">
        <ele>382.79</ele>
        <time>2019-12-08T10:13:56.000Z</time>
      </trkpt>
      <trkpt lat="43.63786" lon="6.64749">
        <ele>383.12</ele>
        <time>2019-12-08T10:13:57.000Z</time>
      </trkpt>
      <trkpt lat="43.63788" lon="6.64748">
        <ele>383.3</ele>
        <time>2019-12-08T10:13:58.000Z</time>
      </trkpt>
      <trkpt lat="43.6379" lon="6.64746">
        <ele>383.69</ele>
        <time>2019-12-08T10:13:59.000Z</time>
      </trkpt>
      <trkpt lat="43.63793" lon="6.64745">
        <ele>384.07</ele>
        <time>2019-12-08T10:14:00.000Z</time>
      </trkpt>
      <trkpt lat="43.63795" lon="6.64743">
        <ele>384.44</ele>
        <time>2019-12-08T10:14:01.000Z</time>
      </trkpt>
      <trkpt lat="43.63797" lon="6.64741">
        <ele>384.61</ele>
        <time>2019-12-08T10:14:02.000Z</time>
      </trkpt>
      <trkpt lat="43.63799" lon="6.6474">
        <ele>385</ele>
        <time>2019-12-08T10:14:03.000Z</time>
      </trkpt>
      <trkpt lat="43.63801" lon="6.64738">
        <ele>385.34</ele>
        <time>2019-12-08T10:14:04.000Z</time>
      </trkpt>
      <trkpt lat="43.63803" lon="6.64737">
        <ele>385.67</ele>
        <time>2019-12-08T10:14:05.000Z</time>
      </trkpt>
      <trkpt lat="43.63805" lon="6.64735">
        <ele>385.99</ele>
        <time>2019-12-08T10:14:06.000Z</time>
      </trkpt>
      <trkpt lat="43.63808" lon="6.64733">
        <ele>385.99</ele>
        <time>2019-12-08T10:14:07.000Z</time>
      </trkpt>
      <trkpt lat="43.6381" lon="6.64732">
        <ele>385.99</ele>
        <time>2019-12-08T10:14:08.000Z</time>
      </trkpt>
      <trkpt lat="43.63812" lon="6.64733">
        <ele>386.41</ele>
        <time>2019-12-08T10:14:09.000Z</time>
      </trkpt>
      <trkpt lat="43.63815" lon="6.64734">
        <ele>386.86</ele>
        <time>2019-12-08T10:14:10.000Z</time>
      </trkpt>
      <trkpt lat="43.63817" lon="6.64737">
        <ele>387.05</ele>
        <time>2019-12-08T10:14:11.000Z</time>
      </trkpt>
      <trkpt lat="43.63819" lon="6.6474">
        <ele>387.48</ele>
        <time>2019-12-08T10:14:12.000Z</time>
      </trkpt>
      <trkpt lat="43.6382" lon="6.64743">
        <ele>387.71</ele>
        <time>2019-12-08T10:14:13.000Z</time>
      </trkpt>
      <trkpt lat="43.63822" lon="6.64747">
        <ele>387.95</ele>
        <time>2019-12-08T10:14:14.000Z</time>
      </trkpt>
      <trkpt lat="43.63824" lon="6.6475">
        <ele>388.01</ele>
        <time>2019-12-08T10:14:15.000Z</time>
      </trkpt>
      <trkpt lat="43.63826" lon="6.64753">
        <ele>388.24</ele>
        <time>2019-12-08T10:14:16.000Z</time>
      </trkpt>
      <trkpt lat="43.63827" lon="6.64757">
        <ele>388.51</ele>
        <time>2019-12-08T10:14:17.000Z</time>
      </trkpt>
      <trkpt lat="43.63829" lon="6.6476">
        <ele>388.78</ele>
        <time>2019-12-08T10:14:18.000Z</time>
      </trkpt>
      <trkpt lat="43.63831" lon="6.64763">
        <ele>388.92</ele>
        <time>2019-12-08T10:14:19.000Z</time>
      </trkpt>
      <trkpt lat="43.63832" lon="6.64766">
        <ele>389.2</ele>
        <time>2019-12-08T10:14:20.000Z</time>
      </trkpt>
      <trkpt lat="43.63834" lon="6.64769">
        <ele>389.45</ele>
        <time>2019-12-08T10:14:21.000Z</time>
      </trkpt>
      <trkpt lat="43.63836" lon="6.64772">
        <ele>389.72</ele>
        <time>2019-12-08T10:14:22.000Z</time>
      </trkpt>
      <trkpt lat="43.63837" lon="6.64775">
        <ele>389.86</ele>
        <time>2019-12-08T10:14:23.000Z</time>
      </trkpt>
      <trkpt lat="43.63838" lon="6.64779">
        <ele>390.17</ele>
        <time>2019-12-08T10:14:24.000Z</time>
      </trkpt>
      <trkpt lat="43.6384" lon="6.64782">
        <ele>390.49</ele>
        <time>2019-12-08T10:14:25.000Z</time>
      </trkpt>
      <trkpt lat="43.63841" lon="6.64786">
        <ele>390.82</ele>
        <time>2019-12-08T10:14:26.000Z</time>
      </trkpt>
      <trkpt lat="43.63843" lon="6.64789">
        <ele>390.99</ele>
        <time>2019-12-08T10:14:27.000Z</time>
      </trkpt>
      <trkpt lat="43.63844" lon="6.64793">
        <ele>391.28</ele>
        <time>2019-12-08T10:14:28.000Z</time>
      </trkpt>
      <trkpt lat="43.63846" lon="6.64796">
        <ele>391.51</ele>
        <time>2019-12-08T10:14:29.000Z</time>
      </trkpt>
      <trkpt lat="43.63847" lon="6.648">
        <ele>391.74</ele>
        <time>2019-12-08T10:14:30.000Z</time>
      </trkpt>
      <trkpt lat="43.63849" lon="6.64803">
        <ele>391.83</ele>
        <time>2019-12-08T10:14:31.000Z</time>
      </trkpt>
      <trkpt lat="43.6385" lon="6.64806">
        <ele>391.98</ele>
        <time>2019-12-08T10:14:32.000Z</time>
      </trkpt>
      <trkpt lat="43.63852" lon="6.6481">
        <ele>392.2</ele>
        <time>2019-12-08T10:14:33.000Z</time>
      </trkpt>
      <trkpt lat="43.63854" lon="6.64813">
        <ele>392.46</ele>
        <time>2019-12-08T10:14:34.000Z</time>
      </trkpt>
      <trkpt lat="43.63855" lon="6.64816">
        <ele>392.57</ele>
        <time>2019-12-08T10:14:35.000Z</time>
      </trkpt>
      <trkpt lat="43.63857" lon="6.6482">
        <ele>392.81</ele>
        <time>2019-12-08T10:14:36.000Z</time>
      </trkpt>
      <trkpt lat="43.63859" lon="6.64823">
        <ele>393.03</ele>
        <time>2019-12-08T10:14:37.000Z</time>
      </trkpt>
      <trkpt lat="43.63861" lon="6.64826">
        <ele>393.18</ele>
        <time>2019-12-08T10:14:38.000Z</time>
      </trkpt>
      <trkpt lat="43.63862" lon="6.64829">
        <ele>393.37</ele>
        <time>2019-12-08T10:14:39.000Z</time>
      </trkpt>
      <trkpt lat="43.63864" lon="6.64832">
        <ele>393.52</ele>
        <time>2019-12-08T10:14:40.000Z</time>
      </trkpt>
      <trkpt lat="43.63866" lon="6.64835">
        <ele>393.76</ele>
        <time>2019-12-08T10:14:41.000Z</time>
      </trkpt>
      <trkpt lat="43.63868" lon="6.64839">
        <ele>394.04</ele>
        <time>2019-12-08T10:14:42.000Z</time>
      </trkpt>
      <trkpt lat="43.6387" lon="6.64842">
        <ele>394.26</ele>
        <time>2019-12-08T10:14:43.000Z</time>
      </trkpt>
      <trkpt lat="43.63871" lon="6.64845">
        <ele>394.39</ele>
        <time>2019-12-08T10:14:44.000Z</time>
      </trkpt>
      <trkpt lat="43.63873" lon="6.64849">
        <ele>394.59</ele>
        <time>2019-12-08T10:14:45.000Z</time>
      </trkpt>
      <trkpt lat="43.63875" lon="6.64852">
        <ele>394.8</ele>
        <time>2019-12-08T10:14:46.000Z</time>
      </trkpt>
      <trkpt lat="43.63877" lon="6.64856">
        <ele>394.95</ele>
        <time>2019-12-08T10:14:47.000Z</time>
      </trkpt>
      <trkpt lat="43.63879" lon="6.64859">
        <ele>395.03</ele>
        <time>2019-12-08T10:14:48.000Z</time>
      </trkpt>
      <trkpt lat="43.63881" lon="6.64863">
        <ele>395.15</ele>
        <time>2019-12-08T10:14:49.000Z</time>
      </trkpt>
      <trkpt lat="43.63884" lon="6.64866">
        <ele>395.25</ele>
        <time>2019-12-08T10:14:50.000Z</time>
      </trkpt>
      <trkpt lat="43.63886" lon="6.6487">
        <ele>395.31</ele>
        <time>2019-12-08T10:14:51.000Z</time>
      </trkpt>
      <trkpt lat="43.63889" lon="6.64873">
        <ele>395.39</ele>
        <time>2019-12-08T10:14:52.000Z</time>
      </trkpt>
      <trkpt lat="43.63892" lon="6.64875">
        <ele>395.54</ele>
        <time>2019-12-08T10:14:53.000Z</time>
      </trkpt>
      <trkpt lat="43.63895" lon="6.64877">
        <ele>395.72</ele>
        <time>2019-12-08T10:14:54.000Z</time>
      </trkpt>
      <trkpt lat="43.63899" lon="6.64879">
        <ele>395.9</ele>
        <time>2019-12-08T10:14:55.000Z</time>
      </trkpt>
      <trkpt lat="43.63903" lon="6.64881">
        <ele>396.03</ele>
        <time>2019-12-08T10:14:56.000Z</time>
      </trkpt>
      <trkpt lat="43.63907" lon="6.64883">
        <ele>396.23</ele>
        <time>2019-12-08T10:14:57.000Z</time>
      </trkpt>
      <trkpt lat="43.63911" lon="6.64884">
        <ele>396.38</ele>
        <time>2019-12-08T10:14:58.000Z</time>
      </trkpt>
      <trkpt lat="43.63914" lon="6.64886">
        <ele>396.53</ele>
        <time>2019-12-08T10:14:59.000Z</time>
      </trkpt>
      <trkpt lat="43.63917" lon="6.6489">
        <ele>396.62</ele>
        <time>2019-12-08T10:15:00.000Z</time>
      </trkpt>
      <trkpt lat="43.6392" lon="6.64893">
        <ele>396.71</ele>
        <time>2019-12-08T10:15:01.000Z</time>
      </trkpt>
      <trkpt lat="43.63923" lon="6.64897">
        <ele>396.76</ele>
        <time>2019-12-08T10:15:02.000Z</time>
      </trkpt>
      <trkpt lat="43.63926" lon="6.64901">
        <ele>396.9</ele>
        <time>2019-12-08T10:15:03.000Z</time>
      </trkpt>
      <trkpt lat="43.63929" lon="6.64906">
        <ele>396.96</ele>
        <time>2019-12-08T10:15:04.000Z</time>
      </trkpt>
      <trkpt lat="43.63931" lon="6.6491">
        <ele>397.1</ele>
        <time>2019-12-08T10:15:05.000Z</time>
      </trkpt>
      <trkpt lat="43.63934" lon="6.64914">
        <ele>397.28</ele>
        <time>2019-12-08T10:15:06.000Z</time>
      </trkpt>
      <trkpt lat="43.63937" lon="6.64918">
        <ele>397.4</ele>
        <time>2019-12-08T10:15:07.000Z</time>
      </trkpt>
      <trkpt lat="43.63939" lon="6.64923">
        <ele>397.4</ele>
        <time>2019-12-08T10:15:08.000Z</time>
      </trkpt>
      <trkpt lat="43.63941" lon="6.64927">
        <ele>397.56</ele>
        <time>2019-12-08T10:15:09.000Z</time>
      </trkpt>
      <trkpt lat="43.63943" lon="6.64932">
        <ele>397.73</ele>
        <time>2019-12-08T10:15:10.000Z</time>
      </trkpt>
      <trkpt lat="43.63944" lon="6.64936">
        <ele>397.73</ele>
        <time>2019-12-08T10:15:11.000Z</time>
      </trkpt>
      <trkpt lat="43.63944" lon="6.64941">
        <ele>397.73</ele>
        <time>2019-12-08T10:15:12.000Z</time>
      </trkpt>
      <trkpt lat="43.63943" lon="6.64945">
        <ele>398.06</ele>
        <time>2019-12-08T10:15:13.000Z</time>
      </trkpt>
      <trkpt lat="43.63943" lon="6.64949">
        <ele>398.41</ele>
        <time>2019-12-08T10:15:14.000Z</time>
      </trkpt>
      <trkpt lat="43.63942" lon="6.64954">
        <ele>398.79</ele>
        <time>2019-12-08T10:15:15.000Z</time>
      </trkpt>
      <trkpt lat="43.63941" lon="6.64958">
        <ele>399.2</ele>
        <time>2019-12-08T10:15:16.000Z</time>
      </trkpt>
      <trkpt lat="43.6394" lon="6.64962">
        <ele>399.32</ele>
        <time>2019-12-08T10:15:17.000Z</time>
      </trkpt>
      <trkpt lat="43.63939" lon="6.64966">
        <ele>399.56</ele>
        <time>2019-12-08T10:15:18.000Z</time>
      </trkpt>
      <trkpt lat="43.63938" lon="6.6497">
        <ele>399.81</ele>
        <time>2019-12-08T10:15:19.000Z</time>
      </trkpt>
      <trkpt lat="43.63937" lon="6.64974">
        <ele>400.06</ele>
        <time>2019-12-08T10:15:20.000Z</time>
      </trkpt>
      <trkpt lat="43.63936" lon="6.64978">
        <ele>400.18</ele>
        <time>2019-12-08T10:15:21.000Z</time>
      </trkpt>
      <trkpt lat="43.63936" lon="6.64982">
        <ele>400.41</ele>
        <time>2019-12-08T10:15:22.000Z</time>
      </trkpt>
      <trkpt lat="43.63935" lon="6.64986">
        <ele>400.65</ele>
        <time>2019-12-08T10:15:23.000Z</time>
      </trkpt>
      <trkpt lat="43.63934" lon="6.6499">
        <ele>400.92</ele>
        <time>2019-12-08T10:15:24.000Z</time>
      </trkpt>
      <trkpt lat="43.63934" lon="6.64994">
        <ele>401.08</ele>
        <time>2019-12-08T10:15:25.000Z</time>
      </trkpt>
      <trkpt lat="43.63933" lon="6.64998">
        <ele>401.41</ele>
        <time>2019-12-08T10:15:26.000Z</time>
      </trkpt>
      <trkpt lat="43.63933" lon="6.65003">
        <ele>401.72</ele>
        <time>2019-12-08T10:15:27.000Z</time>
      </trkpt>
      <trkpt lat="43.63932" lon="6.65007">
        <ele>402</ele>
        <time>2019-12-08T10:15:28.000Z</time>
      </trkpt>
      <trkpt lat="43.63931" lon="6.65011">
        <ele>402.11</ele>
        <time>2019-12-08T10:15:29.000Z</time>
      </trkpt>
      <trkpt lat="43.63931" lon="6.65015">
        <ele>402.31</ele>
        <time>2019-12-08T10:15:30.000Z</time>
      </trkpt>
      <trkpt lat="43.6393" lon="6.65019">
        <ele>402.5</ele>
        <time>2019-12-08T10:15:31.000Z</time>
      </trkpt>
      <trkpt lat="43.6393" lon="6.65023">
        <ele>402.66</ele>
        <time>2019-12-08T10:15:32.000Z</time>
      </trkpt>
      <trkpt lat="43.63929" lon="6.65027">
        <ele>402.76</ele>
        <time>2019-12-08T10:15:33.000Z</time>
      </trkpt>
      <trkpt lat="43.63929" lon="6.65032">
        <ele>402.94</ele>
        <time>2019-12-08T10:15:34.000Z</time>
      </trkpt>
      <trkpt lat="43.63929" lon="6.65036">
        <ele>403.15</ele>
        <time>2019-12-08T10:15:35.000Z</time>
      </trkpt>
      <trkpt lat="43.63929" lon="6.6504">
        <ele>403.44</ele>
        <time>2019-12-08T10:15:36.000Z</time>
      </trkpt>
      <trkpt lat="43.63929" lon="6.65044">
        <ele>403.58</ele>
        <time>2019-12-08T10:15:37.000Z</time>
      </trkpt>
      <trkpt lat="43.63929" lon="6.65048">
        <ele>403.84</ele>
        <time>2019-12-08T10:15:38.000Z</time>
      </trkpt>
      <trkpt lat="43.63929" lon="6.65053">
        <ele>404.11</ele>
        <time>2019-12-08T10:15:39.000Z</time>
      </trkpt>
      <trkpt lat="43.63928" lon="6.65057">
        <ele>404.33</ele>
        <time>2019-12-08T10:15:40.000Z</time>
      </trkpt>
      <trkpt lat="43.63928" lon="6.65061">
        <ele>404.48</ele>
        <time>2019-12-08T10:15:41.000Z</time>
      </trkpt>
      <trkpt lat="43.63928" lon="6.65065">
        <ele>404.8</ele>
        <time>2019-12-08T10:15:42.000Z</time>
      </trkpt>
      <trkpt lat="43.63929" lon="6.65069">
        <ele>405.07</ele>
        <time>2019-12-08T10:15:43.000Z</time>
      </trkpt>
      <trkpt lat="43.63929" lon="6.65073">
        <ele>405.07</ele>
        <time>2019-12-08T10:15:44.000Z</time>
      </trkpt>
      <trkpt lat="43.63929" lon="6.65077">
        <ele>405.47</ele>
        <time>2019-12-08T10:15:45.000Z</time>
      </trkpt>
      <trkpt lat="43.6393" lon="6.65081">
        <ele>405.59</ele>
        <time>2019-12-08T10:15:46.000Z</time>
      </trkpt>
      <trkpt lat="43.6393" lon="6.65085">
        <ele>405.78</ele>
        <time>2019-12-08T10:15:47.000Z</time>
      </trkpt>
      <trkpt lat="43.63931" lon="6.65089">
        <ele>406.02</ele>
        <time>2019-12-08T10:15:48.000Z</time>
      </trkpt>
      <trkpt lat="43.63931" lon="6.65093">
        <ele>406.3</ele>
        <time>2019-12-08T10:15:49.000Z</time>
      </trkpt>
      <trkpt lat="43.63931" lon="6.65097">
        <ele>406.41</ele>
        <time>2019-12-08T10:15:50.000Z</time>
      </trkpt>
      <trkpt lat="43.63932" lon="6.65101">
        <ele>406.71</ele>
        <time>2019-12-08T10:15:51.000Z</time>
      </trkpt>
      <trkpt lat="43.63932" lon="6.65106">
        <ele>406.96</ele>
        <time>2019-12-08T10:15:52.000Z</time>
      </trkpt>
      <trkpt lat="43.63933" lon="6.6511">
        <ele>407.22</ele>
        <time>2019-12-08T10:15:53.000Z</time>
      </trkpt>
      <trkpt lat="43.63933" lon="6.65114">
        <ele>407.31</ele>
        <time>2019-12-08T10:15:54.000Z</time>
      </trkpt>
      <trkpt lat="43.63934" lon="6.65118">
        <ele>407.49</ele>
        <time>2019-12-08T10:15:55.000Z</time>
      </trkpt>
      <trkpt lat="43.63934" lon="6.65122">
        <ele>407.62</ele>
        <time>2019-12-08T10:15:56.000Z</time>
      </trkpt>
      <trkpt lat="43.63934" lon="6.65127">
        <ele>407.81</ele>
        <time>2019-12-08T10:15:57.000Z</time>
      </trkpt>
      <trkpt lat="43.63935" lon="6.65131">
        <ele>407.9</ele>
        <time>2019-12-08T10:15:58.000Z</time>
      </trkpt>
      <trkpt lat="43.63935" lon="6.65135">
        <ele>408.17</ele>
        <time>2019-12-08T10:15:59.000Z</time>
      </trkpt>
      <trkpt lat="43.63936" lon="6.65139">
        <ele>408.48</ele>
        <time>2019-12-08T10:16:00.000Z</time>
      </trkpt>
      <trkpt lat="43.63936" lon="6.65143">
        <ele>408.71</ele>
        <time>2019-12-08T10:16:01.000Z</time>
      </trkpt>
      <trkpt lat="43.63937" lon="6.65148">
        <ele>408.79</ele>
        <time>2019-12-08T10:16:02.000Z</time>
      </trkpt>
      <trkpt lat="43.63937" lon="6.65152">
        <ele>409</ele>
        <time>2019-12-08T10:16:03.000Z</time>
      </trkpt>
      <trkpt lat="43.63937" lon="6.65156">
        <ele>409.21</ele>
        <time>2019-12-08T10:16:04.000Z</time>
      </trkpt>
      <trkpt lat="43.63938" lon="6.6516">
        <ele>409.4</ele>
        <time>2019-12-08T10:16:05.000Z</time>
      </trkpt>
      <trkpt lat="43.63938" lon="6.65164">
        <ele>409.52</ele>
        <time>2019-12-08T10:16:06.000Z</time>
      </trkpt>
      <trkpt lat="43.63938" lon="6.65168">
        <ele>409.78</ele>
        <time>2019-12-08T10:16:07.000Z</time>
      </trkpt>
      <trkpt lat="43.63939" lon="6.65172">
        <ele>410.05</ele>
        <time>2019-12-08T10:16:08.000Z</time>
      </trkpt>
      <trkpt lat="43.63939" lon="6.65177">
        <ele>410.36</ele>
        <time>2019-12-08T10:16:09.000Z</time>
      </trkpt>
      <trkpt lat="43.63939" lon="6.65181">
        <ele>410.49</ele>
        <time>2019-12-08T10:16:10.000Z</time>
      </trkpt>
      <trkpt lat="43.63939" lon="6.65185">
        <ele>410.77</ele>
        <time>2019-12-08T10:16:11.000Z</time>
      </trkpt>
      <trkpt lat="43.63938" lon="6.65189">
        <ele>411.03</ele>
        <time>2019-12-08T10:16:12.000Z</time>
      </trkpt>
      <trkpt lat="43.63937" lon="6.65192">
        <ele>411.25</ele>
        <time>2019-12-08T10:16:13.000Z</time>
      </trkpt>
      <trkpt lat="43.63936" lon="6.65196">
        <ele>411.39</ele>
        <time>2019-12-08T10:16:14.000Z</time>
      </trkpt>
      <trkpt lat="43.63935" lon="6.652">
        <ele>411.65</ele>
        <time>2019-12-08T10:16:15.000Z</time>
      </trkpt>
      <trkpt lat="43.63934" lon="6.65203">
        <ele>411.92</ele>
        <time>2019-12-08T10:16:16.000Z</time>
      </trkpt>
      <trkpt lat="43.63933" lon="6.65207">
        <ele>412.18</ele>
        <time>2019-12-08T10:16:17.000Z</time>
      </trkpt>
      <trkpt lat="43.63931" lon="6.6521">
        <ele>412.47</ele>
        <time>2019-12-08T10:16:18.000Z</time>
      </trkpt>
      <trkpt lat="43.63929" lon="6.65213">
        <ele>412.63</ele>
        <time>2019-12-08T10:16:19.000Z</time>
      </trkpt>
      <trkpt lat="43.63927" lon="6.65216">
        <ele>412.93</ele>
        <time>2019-12-08T10:16:20.000Z</time>
      </trkpt>
      <trkpt lat="43.63925" lon="6.65219">
        <ele>413.17</ele>
        <time>2019-12-08T10:16:21.000Z</time>
      </trkpt>
      <trkpt lat="43.63923" lon="6.65222">
        <ele>413.32</ele>
        <time>2019-12-08T10:16:22.000Z</time>
      </trkpt>
      <trkpt lat="43.63921" lon="6.65224">
        <ele>413.57</ele>
        <time>2019-12-08T10:16:23.000Z</time>
      </trkpt>
      <trkpt lat="43.63919" lon="6.65227">
        <ele>413.81</ele>
        <time>2019-12-08T10:16:24.000Z</time>
      </trkpt>
      <trkpt lat="43.63917" lon="6.65229">
        <ele>414.04</ele>
        <time>2019-12-08T10:16:25.000Z</time>
      </trkpt>
      <trkpt lat="43.63914" lon="6.65232">
        <ele>414.22</ele>
        <time>2019-12-08T10:16:26.000Z</time>
      </trkpt>
      <trkpt lat="43.63912" lon="6.65234">
        <ele>414.3</ele>
        <time>2019-12-08T10:16:27.000Z</time>
      </trkpt>
      <trkpt lat="43.6391" lon="6.65237">
        <ele>414.53</ele>
        <time>2019-12-08T10:16:28.000Z</time>
      </trkpt>
      <trkpt lat="43.63908" lon="6.65239">
        <ele>414.78</ele>
        <time>2019-12-08T10:16:29.000Z</time>
      </trkpt>
      <trkpt lat="43.63906" lon="6.65241">
        <ele>415.1</ele>
        <time>2019-12-08T10:16:30.000Z</time>
      </trkpt>
      <trkpt lat="43.63903" lon="6.65244">
        <ele>415.26</ele>
        <time>2019-12-08T10:16:31.000Z</time>
      </trkpt>
      <trkpt lat="43.63901" lon="6.65246">
        <ele>415.58</ele>
        <time>2019-12-08T10:16:32.000Z</time>
      </trkpt>
      <trkpt lat="43.63899" lon="6.65248">
        <ele>415.86</ele>
        <time>2019-12-08T10:16:33.000Z</time>
      </trkpt>
      <trkpt lat="43.63897" lon="6.6525">
        <ele>416.16</ele>
        <time>2019-12-08T10:16:34.000Z</time>
      </trkpt>
      <trkpt lat="43.63894" lon="6.65253">
        <ele>416.28</ele>
        <time>2019-12-08T10:16:35.000Z</time>
      </trkpt>
      <trkpt lat="43.63892" lon="6.65255">
        <ele>416.54</ele>
        <time>2019-12-08T10:16:36.000Z</time>
      </trkpt>
      <trkpt lat="43.6389" lon="6.65257">
        <ele>416.78</ele>
        <time>2019-12-08T10:16:37.000Z</time>
      </trkpt>
      <trkpt lat="43.63887" lon="6.6526">
        <ele>416.99</ele>
        <time>2019-12-08T10:16:38.000Z</time>
      </trkpt>
      <trkpt lat="43.63885" lon="6.65262">
        <ele>417.13</ele>
        <time>2019-12-08T10:16:39.000Z</time>
      </trkpt>
      <trkpt lat="43.63883" lon="6.65264">
        <ele>417.39</ele>
        <time>2019-12-08T10:16:40.000Z</time>
      </trkpt>
      <trkpt lat="43.6388" lon="6.65267">
        <ele>417.66</ele>
        <time>2019-12-08T10:16:41.000Z</time>
      </trkpt>
      <trkpt lat="43.63878" lon="6.65269">
        <ele>417.92</ele>
        <time>2019-12-08T10:16:42.000Z</time>
      </trkpt>
      <trkpt lat="43.63876" lon="6.65272">
        <ele>418.04</ele>
        <time>2019-12-08T10:16:43.000Z</time>
      </trkpt>
      <trkpt lat="43.63874" lon="6.65274">
        <ele>418.29</ele>
        <time>2019-12-08T10:16:44.000Z</time>
      </trkpt>
      <trkpt lat="43.63873" lon="6.65278">
        <ele>418.48</ele>
        <time>2019-12-08T10:16:45.000Z</time>
      </trkpt>
      <trkpt lat="43.63871" lon="6.65281">
        <ele>418.72</ele>
        <time>2019-12-08T10:16:46.000Z</time>
      </trkpt>
      <trkpt lat="43.6387" lon="6.65285">
        <ele>418.84</ele>
        <time>2019-12-08T10:16:47.000Z</time>
      </trkpt>
      <trkpt lat="43.63869" lon="6.65288">
        <ele>419.06</ele>
        <time>2019-12-08T10:16:48.000Z</time>
      </trkpt>
      <trkpt lat="43.63869" lon="6.65292">
        <ele>419.28</ele>
        <time>2019-12-08T10:16:49.000Z</time>
      </trkpt>
      <trkpt lat="43.63869" lon="6.65296">
        <ele>419.49</ele>
        <time>2019-12-08T10:16:50.000Z</time>
      </trkpt>
      <trkpt lat="43.6387" lon="6.653">
        <ele>419.61</ele>
        <time>2019-12-08T10:16:51.000Z</time>
      </trkpt>
      <trkpt lat="43.6387" lon="6.65303">
        <ele>419.83</ele>
        <time>2019-12-08T10:16:52.000Z</time>
      </trkpt>
      <trkpt lat="43.63872" lon="6.65307">
        <ele>420.09</ele>
        <time>2019-12-08T10:16:53.000Z</time>
      </trkpt>
      <trkpt lat="43.63873" lon="6.6531">
        <ele>420.37</ele>
        <time>2019-12-08T10:16:54.000Z</time>
      </trkpt>
      <trkpt lat="43.63874" lon="6.65314">
        <ele>420.66</ele>
        <time>2019-12-08T10:16:55.000Z</time>
      </trkpt>
      <trkpt lat="43.63875" lon="6.65317">
        <ele>420.79</ele>
        <time>2019-12-08T10:16:56.000Z</time>
      </trkpt>
      <trkpt lat="43.63877" lon="6.6532">
        <ele>420.99</ele>
        <time>2019-12-08T10:16:57.000Z</time>
      </trkpt>
      <trkpt lat="43.63878" lon="6.65324">
        <ele>421.2</ele>
        <time>2019-12-08T10:16:58.000Z</time>
      </trkpt>
      <trkpt lat="43.63879" lon="6.65327">
        <ele>421.42</ele>
        <time>2019-12-08T10:16:59.000Z</time>
      </trkpt>
      <trkpt lat="43.63881" lon="6.65331">
        <ele>421.54</ele>
        <time>2019-12-08T10:17:00.000Z</time>
      </trkpt>
      <trkpt lat="43.63882" lon="6.65334">
        <ele>421.82</ele>
        <time>2019-12-08T10:17:01.000Z</time>
      </trkpt>
      <trkpt lat="43.63883" lon="6.65338">
        <ele>422.08</ele>
        <time>2019-12-08T10:17:02.000Z</time>
      </trkpt>
      <trkpt lat="43.63884" lon="6.65342">
        <ele>422.41</ele>
        <time>2019-12-08T10:17:03.000Z</time>
      </trkpt>
      <trkpt lat="43.63886" lon="6.65345">
        <ele>422.55</ele>
        <time>2019-12-08T10:17:04.000Z</time>
      </trkpt>
      <trkpt lat="43.63887" lon="6.65348">
        <ele>422.81</ele>
        <time>2019-12-08T10:17:05.000Z</time>
      </trkpt>
      <trkpt lat="43.63889" lon="6.65352">
        <ele>423.11</ele>
        <time>2019-12-08T10:17:06.000Z</time>
      </trkpt>
      <trkpt lat="43.6389" lon="6.65355">
        <ele>423.39</ele>
        <time>2019-12-08T10:17:07.000Z</time>
      </trkpt>
      <trkpt lat="43.63892" lon="6.65358">
        <ele>423.47</ele>
        <time>2019-12-08T10:17:08.000Z</time>
      </trkpt>
      <trkpt lat="43.63894" lon="6.65361">
        <ele>423.67</ele>
        <time>2019-12-08T10:17:09.000Z</time>
      </trkpt>
      <trkpt lat="43.63896" lon="6.65364">
        <ele>423.87</ele>
        <time>2019-12-08T10:17:10.000Z</time>
      </trkpt>
      <trkpt lat="43.63898" lon="6.65367">
        <ele>424.1</ele>
        <time>2019-12-08T10:17:11.000Z</time>
      </trkpt>
      <trkpt lat="43.63899" lon="6.65369">
        <ele>424.19</ele>
        <time>2019-12-08T10:17:12.000Z</time>
      </trkpt>
      <trkpt lat="43.63901" lon="6.65372">
        <ele>424.5</ele>
        <time>2019-12-08T10:17:13.000Z</time>
      </trkpt>
      <trkpt lat="43.63902" lon="6.65375">
        <ele>424.75</ele>
        <time>2019-12-08T10:17:14.000Z</time>
      </trkpt>
      <trkpt lat="43.63904" lon="6.65378">
        <ele>425.02</ele>
        <time>2019-12-08T10:17:15.000Z</time>
      </trkpt>
      <trkpt lat="43.63906" lon="6.65381">
        <ele>425.13</ele>
        <time>2019-12-08T10:17:16.000Z</time>
      </trkpt>
      <trkpt lat="43.63908" lon="6.65385">
        <ele>425.34</ele>
        <time>2019-12-08T10:17:17.000Z</time>
      </trkpt>
      <trkpt lat="43.63909" lon="6.65388">
        <ele>425.49</ele>
        <time>2019-12-08T10:17:18.000Z</time>
      </trkpt>
      <trkpt lat="43.63911" lon="6.65391">
        <ele>425.7</ele>
        <time>2019-12-08T10:17:19.000Z</time>
      </trkpt>
      <trkpt lat="43.63913" lon="6.65394">
        <ele>425.82</ele>
        <time>2019-12-08T10:17:20.000Z</time>
      </trkpt>
      <trkpt lat="43.63915" lon="6.65397">
        <ele>426.05</ele>
        <time>2019-12-08T10:17:21.000Z</time>
      </trkpt>
      <trkpt lat="43.63916" lon="6.654">
        <ele>426.33</ele>
        <time>2019-12-08T10:17:22.000Z</time>
      </trkpt>
      <trkpt lat="43.63918" lon="6.65403">
        <ele>426.59</ele>
        <time>2019-12-08T10:17:23.000Z</time>
      </trkpt>
      <trkpt lat="43.6392" lon="6.65405">
        <ele>426.8</ele>
        <time>2019-12-08T10:17:24.000Z</time>
      </trkpt>
      <trkpt lat="43.63922" lon="6.65408">
        <ele>426.91</ele>
        <time>2019-12-08T10:17:25.000Z</time>
      </trkpt>
      <trkpt lat="43.63924" lon="6.65411">
        <ele>427.1</ele>
        <time>2019-12-08T10:17:26.000Z</time>
      </trkpt>
      <trkpt lat="43.63925" lon="6.65414">
        <ele>427.34</ele>
        <time>2019-12-08T10:17:27.000Z</time>
      </trkpt>
      <trkpt lat="43.63927" lon="6.65417">
        <ele>427.5</ele>
        <time>2019-12-08T10:17:28.000Z</time>
      </trkpt>
      <trkpt lat="43.63929" lon="6.6542">
        <ele>427.83</ele>
        <time>2019-12-08T10:17:29.000Z</time>
      </trkpt>
      <trkpt lat="43.63931" lon="6.65423">
        <ele>428.14</ele>
        <time>2019-12-08T10:17:30.000Z</time>
      </trkpt>
      <trkpt lat="43.63934" lon="6.65425">
        <ele>428.3</ele>
        <time>2019-12-08T10:17:31.000Z</time>
      </trkpt>
      <trkpt lat="43.63937" lon="6.65426">
        <ele>428.34</ele>
        <time>2019-12-08T10:17:32.000Z</time>
      </trkpt>
      <trkpt lat="43.63939" lon="6.65426">
        <ele>428.35</ele>
        <time>2019-12-08T10:17:33.000Z</time>
      </trkpt>
      <trkpt lat="43.63942" lon="6.65426">
        <ele>428.35</ele>
        <time>2019-12-08T10:17:34.000Z</time>
      </trkpt>
      <trkpt lat="43.63945" lon="6.65424">
        <ele>428.35</ele>
        <time>2019-12-08T10:17:35.000Z</time>
      </trkpt>
      <trkpt lat="43.63947" lon="6.65422">
        <ele>428.65</ele>
        <time>2019-12-08T10:17:36.000Z</time>
      </trkpt>
      <trkpt lat="43.63949" lon="6.6542">
        <ele>428.76</ele>
        <time>2019-12-08T10:17:37.000Z</time>
      </trkpt>
      <trkpt lat="43.6395" lon="6.65417">
        <ele>429.08</ele>
        <time>2019-12-08T10:17:38.000Z</time>
      </trkpt>
      <trkpt lat="43.63952" lon="6.65413">
        <ele>429.48</ele>
        <time>2019-12-08T10:17:39.000Z</time>
      </trkpt>
      <trkpt lat="43.63952" lon="6.6541">
        <ele>429.81</ele>
        <time>2019-12-08T10:17:40.000Z</time>
      </trkpt>
      <trkpt lat="43.63952" lon="6.65406">
        <ele>429.81</ele>
        <time>2019-12-08T10:17:41.000Z</time>
      </trkpt>
      <trkpt lat="43.63952" lon="6.65402">
        <ele>429.81</ele>
        <time>2019-12-08T10:17:42.000Z</time>
      </trkpt>
      <trkpt lat="43.63951" lon="6.65398">
        <ele>430.29</ele>
        <time>2019-12-08T10:17:43.000Z</time>
      </trkpt>
      <trkpt lat="43.63949" lon="6.65394">
        <ele>430.78</ele>
        <time>2019-12-08T10:17:44.000Z</time>
      </trkpt>
      <trkpt lat="43.63947" lon="6.65391">
        <ele>431</ele>
        <time>2019-12-08T10:17:45.000Z</time>
      </trkpt>
      <trkpt lat="43.63945" lon="6.65388">
        <ele>431.36</ele>
        <time>2019-12-08T10:17:46.000Z</time>
      </trkpt>
      <trkpt lat="43.63943" lon="6.65384">
        <ele>431.66</ele>
        <time>2019-12-08T10:17:47.000Z</time>
      </trkpt>
      <trkpt lat="43.63941" lon="6.65381">
        <ele>431.9</ele>
        <time>2019-12-08T10:17:48.000Z</time>
      </trkpt>
      <trkpt lat="43.6394" lon="6.65378">
        <ele>432.01</ele>
        <time>2019-12-08T10:17:49.000Z</time>
      </trkpt>
      <trkpt lat="43.63938" lon="6.65374">
        <ele>432.24</ele>
        <time>2019-12-08T10:17:50.000Z</time>
      </trkpt>
      <trkpt lat="43.63936" lon="6.65371">
        <ele>432.51</ele>
        <time>2019-12-08T10:17:51.000Z</time>
      </trkpt>
      <trkpt lat="43.63934" lon="6.65367">
        <ele>432.77</ele>
        <time>2019-12-08T10:17:52.000Z</time>
      </trkpt>
      <trkpt lat="43.63933" lon="6.65363">
        <ele>432.94</ele>
        <time>2019-12-08T10:17:53.000Z</time>
      </trkpt>
      <trkpt lat="43.63932" lon="6.65359">
        <ele>433.16</ele>
        <time>2019-12-08T10:17:54.000Z</time>
      </trkpt>
      <trkpt lat="43.63932" lon="6.65355">
        <ele>433.35</ele>
        <time>2019-12-08T10:17:55.000Z</time>
      </trkpt>
      <trkpt lat="43.63931" lon="6.6535">
        <ele>433.55</ele>
        <time>2019-12-08T10:17:56.000Z</time>
      </trkpt>
      <trkpt lat="43.63932" lon="6.65346">
        <ele>433.55</ele>
        <time>2019-12-08T10:17:57.000Z</time>
      </trkpt>
      <trkpt lat="43.63933" lon="6.65342">
        <ele>433.65</ele>
        <time>2019-12-08T10:17:58.000Z</time>
      </trkpt>
      <trkpt lat="43.63934" lon="6.65338">
        <ele>433.91</ele>
        <time>2019-12-08T10:17:59.000Z</time>
      </trkpt>
      <trkpt lat="43.63936" lon="6.65335">
        <ele>434.14</ele>
        <time>2019-12-08T10:18:00.000Z</time>
      </trkpt>
      <trkpt lat="43.63937" lon="6.65331">
        <ele>434.22</ele>
        <time>2019-12-08T10:18:01.000Z</time>
      </trkpt>
      <trkpt lat="43.63939" lon="6.65328">
        <ele>434.43</ele>
        <time>2019-12-08T10:18:02.000Z</time>
      </trkpt>
      <trkpt lat="43.63941" lon="6.65325">
        <ele>434.72</ele>
        <time>2019-12-08T10:18:03.000Z</time>
      </trkpt>
      <trkpt lat="43.63943" lon="6.65322">
        <ele>434.95</ele>
        <time>2019-12-08T10:18:04.000Z</time>
      </trkpt>
      <trkpt lat="43.63945" lon="6.65319">
        <ele>435.28</ele>
        <time>2019-12-08T10:18:05.000Z</time>
      </trkpt>
      <trkpt lat="43.63947" lon="6.65316">
        <ele>435.46</ele>
        <time>2019-12-08T10:18:06.000Z</time>
      </trkpt>
      <trkpt lat="43.63949" lon="6.65314">
        <ele>435.74</ele>
        <time>2019-12-08T10:18:07.000Z</time>
      </trkpt>
      <trkpt lat="43.63951" lon="6.65311">
        <ele>435.98</ele>
        <time>2019-12-08T10:18:08.000Z</time>
      </trkpt>
      <trkpt lat="43.63953" lon="6.65308">
        <ele>436.17</ele>
        <time>2019-12-08T10:18:09.000Z</time>
      </trkpt>
      <trkpt lat="43.63955" lon="6.65305">
        <ele>436.21</ele>
        <time>2019-12-08T10:18:10.000Z</time>
      </trkpt>
      <trkpt lat="43.63957" lon="6.65303">
        <ele>436.32</ele>
        <time>2019-12-08T10:18:11.000Z</time>
      </trkpt>
      <trkpt lat="43.6396" lon="6.65301">
        <ele>436.51</ele>
        <time>2019-12-08T10:18:12.000Z</time>
      </trkpt>
      <trkpt lat="43.63962" lon="6.65298">
        <ele>436.78</ele>
        <time>2019-12-08T10:18:13.000Z</time>
      </trkpt>
      <trkpt lat="43.63965" lon="6.65296">
        <ele>436.93</ele>
        <time>2019-12-08T10:18:14.000Z</time>
      </trkpt>
      <trkpt lat="43.63967" lon="6.65294">
        <ele>437.28</ele>
        <time>2019-12-08T10:18:15.000Z</time>
      </trkpt>
      <trkpt lat="43.6397" lon="6.65292">
        <ele>437.57</ele>
        <time>2019-12-08T10:18:16.000Z</time>
      </trkpt>
      <trkpt lat="43.63972" lon="6.6529">
        <ele>437.82</ele>
        <time>2019-12-08T10:18:17.000Z</time>
      </trkpt>
      <trkpt lat="43.63975" lon="6.65288">
        <ele>437.97</ele>
        <time>2019-12-08T10:18:18.000Z</time>
      </trkpt>
      <trkpt lat="43.63978" lon="6.65286">
        <ele>438.24</ele>
        <time>2019-12-08T10:18:19.000Z</time>
      </trkpt>
      <trkpt lat="43.6398" lon="6.65285">
        <ele>438.53</ele>
        <time>2019-12-08T10:18:20.000Z</time>
      </trkpt>
      <trkpt lat="43.63983" lon="6.65283">
        <ele>438.79</ele>
        <time>2019-12-08T10:18:21.000Z</time>
      </trkpt>
      <trkpt lat="43.63986" lon="6.65282">
        <ele>438.92</ele>
        <time>2019-12-08T10:18:22.000Z</time>
      </trkpt>
      <trkpt lat="43.63988" lon="6.6528">
        <ele>439.17</ele>
        <time>2019-12-08T10:18:23.000Z</time>
      </trkpt>
      <trkpt lat="43.63991" lon="6.65279">
        <ele>439.43</ele>
        <time>2019-12-08T10:18:24.000Z</time>
      </trkpt>
      <trkpt lat="43.63994" lon="6.65277">
        <ele>439.69</ele>
        <time>2019-12-08T10:18:25.000Z</time>
      </trkpt>
      <trkpt lat="43.63997" lon="6.65276">
        <ele>439.82</ele>
        <time>2019-12-08T10:18:26.000Z</time>
      </trkpt>
      <trkpt lat="43.64" lon="6.65274">
        <ele>440.06</ele>
        <time>2019-12-08T10:18:27.000Z</time>
      </trkpt>
      <trkpt lat="43.64003" lon="6.65273">
        <ele>440.28</ele>
        <time>2019-12-08T10:18:28.000Z</time>
      </trkpt>
      <trkpt lat="43.64005" lon="6.65272">
        <ele>440.48</ele>
        <time>2019-12-08T10:18:29.000Z</time>
      </trkpt>
      <trkpt lat="43.64008" lon="6.6527">
        <ele>440.58</ele>
        <time>2019-12-08T10:18:30.000Z</time>
      </trkpt>
      <trkpt lat="43.64011" lon="6.65268">
        <ele>440.78</ele>
        <time>2019-12-08T10:18:31.000Z</time>
      </trkpt>
      <trkpt lat="43.64014" lon="6.65266">
        <ele>441</ele>
        <time>2019-12-08T10:18:32.000Z</time>
      </trkpt>
      <trkpt lat="43.64017" lon="6.65265">
        <ele>441.2</ele>
        <time>2019-12-08T10:18:33.000Z</time>
      </trkpt>
      <trkpt lat="43.64019" lon="6.65264">
        <ele>441.42</ele>
        <time>2019-12-08T10:18:34.000Z</time>
      </trkpt>
      <trkpt lat="43.64022" lon="6.65263">
        <ele>441.55</ele>
        <time>2019-12-08T10:18:35.000Z</time>
      </trkpt>
      <trkpt lat="43.64025" lon="6.65262">
        <ele>441.77</ele>
        <time>2019-12-08T10:18:36.000Z</time>
      </trkpt>
      <trkpt lat="43.64028" lon="6.6526">
        <ele>442.05</ele>
        <time>2019-12-08T10:18:37.000Z</time>
      </trkpt>
      <trkpt lat="43.64031" lon="6.65259">
        <ele>442.17</ele>
        <time>2019-12-08T10:18:38.000Z</time>
      </trkpt>
      <trkpt lat="43.64034" lon="6.65258">
        <ele>442.43</ele>
        <time>2019-12-08T10:18:39.000Z</time>
      </trkpt>
      <trkpt lat="43.64036" lon="6.65256">
        <ele>442.68</ele>
        <time>2019-12-08T10:18:40.000Z</time>
      </trkpt>
      <trkpt lat="43.64039" lon="6.65255">
        <ele>442.89</ele>
        <time>2019-12-08T10:18:41.000Z</time>
      </trkpt>
      <trkpt lat="43.64042" lon="6.65254">
        <ele>443.14</ele>
        <time>2019-12-08T10:18:42.000Z</time>
      </trkpt>
      <trkpt lat="43.64044" lon="6.65253">
        <ele>443.27</ele>
        <time>2019-12-08T10:18:43.000Z</time>
      </trkpt>
      <trkpt lat="43.64047" lon="6.65253">
        <ele>443.49</ele>
        <time>2019-12-08T10:18:44.000Z</time>
      </trkpt>
      <trkpt lat="43.6405" lon="6.65252">
        <ele>443.77</ele>
        <time>2019-12-08T10:18:45.000Z</time>
      </trkpt>
      <trkpt lat="43.64053" lon="6.65251">
        <ele>444.02</ele>
        <time>2019-12-08T10:18:46.000Z</time>
      </trkpt>
      <trkpt lat="43.64056" lon="6.6525">
        <ele>444.11</ele>
        <time>2019-12-08T10:18:47.000Z</time>
      </trkpt>
      <trkpt lat="43.64059" lon="6.65249">
        <ele>444.31</ele>
        <time>2019-12-08T10:18:48.000Z</time>
      </trkpt>
      <trkpt lat="43.64062" lon="6.65247">
        <ele>444.53</ele>
        <time>2019-12-08T10:18:49.000Z</time>
      </trkpt>
      <trkpt lat="43.64065" lon="6.65246">
        <ele>444.77</ele>
        <time>2019-12-08T10:18:50.000Z</time>
      </trkpt>
      <trkpt lat="43.64068" lon="6.65245">
        <ele>444.91</ele>
        <time>2019-12-08T10:18:51.000Z</time>
      </trkpt>
      <trkpt lat="43.64071" lon="6.65244">
        <ele>445.2</ele>
        <time>2019-12-08T10:18:52.000Z</time>
      </trkpt>
      <trkpt lat="43.64073" lon="6.65242">
        <ele>445.49</ele>
        <time>2019-12-08T10:18:53.000Z</time>
      </trkpt>
      <trkpt lat="43.64076" lon="6.65239">
        <ele>445.59</ele>
        <time>2019-12-08T10:18:54.000Z</time>
      </trkpt>
      <trkpt lat="43.64078" lon="6.65237">
        <ele>445.62</ele>
        <time>2019-12-08T10:18:55.000Z</time>
      </trkpt>
      <trkpt lat="43.6408" lon="6.65234">
        <ele>445.74</ele>
        <time>2019-12-08T10:18:56.000Z</time>
      </trkpt>
      <trkpt lat="43.64082" lon="6.6523">
        <ele>445.86</ele>
        <time>2019-12-08T10:18:57.000Z</time>
      </trkpt>
      <trkpt lat="43.64084" lon="6.65227">
        <ele>446.09</ele>
        <time>2019-12-08T10:18:58.000Z</time>
      </trkpt>
      <trkpt lat="43.64085" lon="6.65223">
        <ele>446.26</ele>
        <time>2019-12-08T10:18:59.000Z</time>
      </trkpt>
      <trkpt lat="43.64086" lon="6.6522">
        <ele>446.57</ele>
        <time>2019-12-08T10:19:00.000Z</time>
      </trkpt>
      <trkpt lat="43.64087" lon="6.65216">
        <ele>446.87</ele>
        <time>2019-12-08T10:19:01.000Z</time>
      </trkpt>
      <trkpt lat="43.64088" lon="6.65212">
        <ele>447.11</ele>
        <time>2019-12-08T10:19:02.000Z</time>
      </trkpt>
      <trkpt lat="43.64089" lon="6.65208">
        <ele>447.18</ele>
        <time>2019-12-08T10:19:03.000Z</time>
      </trkpt>
      <trkpt lat="43.6409" lon="6.65204">
        <ele>447.41</ele>
        <time>2019-12-08T10:19:04.000Z</time>
      </trkpt>
      <trkpt lat="43.64091" lon="6.652">
        <ele>447.6</ele>
        <time>2019-12-08T10:19:05.000Z</time>
      </trkpt>
      <trkpt lat="43.64092" lon="6.65196">
        <ele>447.87</ele>
        <time>2019-12-08T10:19:06.000Z</time>
      </trkpt>
      <trkpt lat="43.64093" lon="6.65192">
        <ele>447.98</ele>
        <time>2019-12-08T10:19:07.000Z</time>
      </trkpt>
      <trkpt lat="43.64094" lon="6.65188">
        <ele>448.29</ele>
        <time>2019-12-08T10:19:08.000Z</time>
      </trkpt>
      <trkpt lat="43.64094" lon="6.65184">
        <ele>448.58</ele>
        <time>2019-12-08T10:19:09.000Z</time>
      </trkpt>
      <trkpt lat="43.64095" lon="6.6518">
        <ele>448.84</ele>
        <time>2019-12-08T10:19:10.000Z</time>
      </trkpt>
      <trkpt lat="43.64096" lon="6.65176">
        <ele>449.1</ele>
        <time>2019-12-08T10:19:11.000Z</time>
      </trkpt>
      <trkpt lat="43.64097" lon="6.65172">
        <ele>449.24</ele>
        <time>2019-12-08T10:19:12.000Z</time>
      </trkpt>
      <trkpt lat="43.64098" lon="6.65168">
        <ele>449.5</ele>
        <time>2019-12-08T10:19:13.000Z</time>
      </trkpt>
      <trkpt lat="43.64099" lon="6.65164">
        <ele>449.75</ele>
        <time>2019-12-08T10:19:14.000Z</time>
      </trkpt>
      <trkpt lat="43.64099" lon="6.6516">
        <ele>449.99</ele>
        <time>2019-12-08T10:19:15.000Z</time>
      </trkpt>
      <trkpt lat="43.641" lon="6.65156">
        <ele>450.06</ele>
        <time>2019-12-08T10:19:16.000Z</time>
      </trkpt>
      <trkpt lat="43.641" lon="6.65152">
        <ele>450.23</ele>
        <time>2019-12-08T10:19:17.000Z</time>
      </trkpt>
      <trkpt lat="43.641" lon="6.65147">
        <ele>450.43</ele>
        <time>2019-12-08T10:19:18.000Z</time>
      </trkpt>
      <trkpt lat="43.641" lon="6.65143">
        <ele>450.67</ele>
        <time>2019-12-08T10:19:19.000Z</time>
      </trkpt>
      <trkpt lat="43.64101" lon="6.65139">
        <ele>450.79</ele>
        <time>2019-12-08T10:19:20.000Z</time>
      </trkpt>
      <trkpt lat="43.64101" lon="6.65135">
        <ele>451.1</ele>
        <time>2019-12-08T10:19:21.000Z</time>
      </trkpt>
      <trkpt lat="43.64101" lon="6.65131">
        <ele>451.39</ele>
        <time>2019-12-08T10:19:22.000Z</time>
      </trkpt>
      <trkpt lat="43.64101" lon="6.65127">
        <ele>451.66</ele>
        <time>2019-12-08T10:19:23.000Z</time>
      </trkpt>
      <trkpt lat="43.64101" lon="6.65122">
        <ele>451.78</ele>
        <time>2019-12-08T10:19:24.000Z</time>
      </trkpt>
      <trkpt lat="43.64101" lon="6.65118">
        <ele>452.11</ele>
        <time>2019-12-08T10:19:25.000Z</time>
      </trkpt>
      <trkpt lat="43.64101" lon="6.65114">
        <ele>452.44</ele>
        <time>2019-12-08T10:19:26.000Z</time>
      </trkpt>
      <trkpt lat="43.641" lon="6.6511">
        <ele>452.77</ele>
        <time>2019-12-08T10:19:27.000Z</time>
      </trkpt>
      <trkpt lat="43.641" lon="6.65105">
        <ele>452.94</ele>
        <time>2019-12-08T10:19:28.000Z</time>
      </trkpt>
      <trkpt lat="43.641" lon="6.65101">
        <ele>453.19</ele>
        <time>2019-12-08T10:19:29.000Z</time>
      </trkpt>
      <trkpt lat="43.641" lon="6.65097">
        <ele>453.39</ele>
        <time>2019-12-08T10:19:30.000Z</time>
      </trkpt>
      <trkpt lat="43.641" lon="6.65093">
        <ele>453.59</ele>
        <time>2019-12-08T10:19:31.000Z</time>
      </trkpt>
      <trkpt lat="43.64101" lon="6.65089">
        <ele>453.68</ele>
        <time>2019-12-08T10:19:32.000Z</time>
      </trkpt>
      <trkpt lat="43.64101" lon="6.65085">
        <ele>453.94</ele>
        <time>2019-12-08T10:19:33.000Z</time>
      </trkpt>
      <trkpt lat="43.64102" lon="6.65081">
        <ele>454.18</ele>
        <time>2019-12-08T10:19:34.000Z</time>
      </trkpt>
      <trkpt lat="43.64103" lon="6.65078">
        <ele>454.38</ele>
        <time>2019-12-08T10:19:35.000Z</time>
      </trkpt>
      <trkpt lat="43.64105" lon="6.65075">
        <ele>454.5</ele>
        <time>2019-12-08T10:19:36.000Z</time>
      </trkpt>
      <trkpt lat="43.64107" lon="6.65072">
        <ele>454.7</ele>
        <time>2019-12-08T10:19:37.000Z</time>
      </trkpt>
      <trkpt lat="43.64109" lon="6.65069">
        <ele>454.9</ele>
        <time>2019-12-08T10:19:38.000Z</time>
      </trkpt>
      <trkpt lat="43.64112" lon="6.65067">
        <ele>455.16</ele>
        <time>2019-12-08T10:19:39.000Z</time>
      </trkpt>
      <trkpt lat="43.64114" lon="6.65065">
        <ele>455.31</ele>
        <time>2019-12-08T10:19:40.000Z</time>
      </trkpt>
      <trkpt lat="43.64117" lon="6.65064">
        <ele>455.59</ele>
        <time>2019-12-08T10:19:41.000Z</time>
      </trkpt>
      <trkpt lat="43.6412" lon="6.65064">
        <ele>455.85</ele>
        <time>2019-12-08T10:19:42.000Z</time>
      </trkpt>
      <trkpt lat="43.64123" lon="6.65064">
        <ele>456.09</ele>
        <time>2019-12-08T10:19:43.000Z</time>
      </trkpt>
      <trkpt lat="43.64126" lon="6.65065">
        <ele>456.22</ele>
        <time>2019-12-08T10:19:44.000Z</time>
      </trkpt>
      <trkpt lat="43.64128" lon="6.65066">
        <ele>456.36</ele>
        <time>2019-12-08T10:19:45.000Z</time>
      </trkpt>
      <trkpt lat="43.64131" lon="6.65067">
        <ele>456.56</ele>
        <time>2019-12-08T10:19:46.000Z</time>
      </trkpt>
      <trkpt lat="43.64134" lon="6.65067">
        <ele>456.74</ele>
        <time>2019-12-08T10:19:47.000Z</time>
      </trkpt>
      <trkpt lat="43.64137" lon="6.65068">
        <ele>456.86</ele>
        <time>2019-12-08T10:19:48.000Z</time>
      </trkpt>
      <trkpt lat="43.6414" lon="6.65068">
        <ele>457.09</ele>
        <time>2019-12-08T10:19:49.000Z</time>
      </trkpt>
      <trkpt lat="43.64143" lon="6.65068">
        <ele>457.28</ele>
        <time>2019-12-08T10:19:50.000Z</time>
      </trkpt>
      <trkpt lat="43.64146" lon="6.65068">
        <ele>457.61</ele>
        <time>2019-12-08T10:19:51.000Z</time>
      </trkpt>
      <trkpt lat="43.64149" lon="6.65068">
        <ele>457.89</ele>
        <time>2019-12-08T10:19:52.000Z</time>
      </trkpt>
      <trkpt lat="43.64152" lon="6.65068">
        <ele>458.07</ele>
        <time>2019-12-08T10:19:53.000Z</time>
      </trkpt>
      <trkpt lat="43.64155" lon="6.65068">
        <ele>458.4</ele>
        <time>2019-12-08T10:19:54.000Z</time>
      </trkpt>
      <trkpt lat="43.64157" lon="6.65067">
        <ele>458.66</ele>
        <time>2019-12-08T10:19:55.000Z</time>
      </trkpt>
      <trkpt lat="43.6416" lon="6.65066">
        <ele>458.92</ele>
        <time>2019-12-08T10:19:56.000Z</time>
      </trkpt>
      <trkpt lat="43.64163" lon="6.65066">
        <ele>459.07</ele>
        <time>2019-12-08T10:19:57.000Z</time>
      </trkpt>
      <trkpt lat="43.64166" lon="6.65065">
        <ele>459.39</ele>
        <time>2019-12-08T10:19:58.000Z</time>
      </trkpt>
      <trkpt lat="43.64168" lon="6.65064">
        <ele>459.67</ele>
        <time>2019-12-08T10:19:59.000Z</time>
      </trkpt>
      <trkpt lat="43.64171" lon="6.65063">
        <ele>459.88</ele>
        <time>2019-12-08T10:20:00.000Z</time>
      </trkpt>
      <trkpt lat="43.64174" lon="6.65062">
        <ele>460.02</ele>
        <time>2019-12-08T10:20:01.000Z</time>
      </trkpt>
      <trkpt lat="43.64177" lon="6.65061">
        <ele>460.32</ele>
        <time>2019-12-08T10:20:02.000Z</time>
      </trkpt>
      <trkpt lat="43.6418" lon="6.6506">
        <ele>460.62</ele>
        <time>2019-12-08T10:20:03.000Z</time>
      </trkpt>
      <trkpt lat="43.64183" lon="6.65059">
        <ele>460.91</ele>
        <time>2019-12-08T10:20:04.000Z</time>
      </trkpt>
      <trkpt lat="43.64186" lon="6.65058">
        <ele>461.06</ele>
        <time>2019-12-08T10:20:05.000Z</time>
      </trkpt>
      <trkpt lat="43.64188" lon="6.65057">
        <ele>461.27</ele>
        <time>2019-12-08T10:20:06.000Z</time>
      </trkpt>
      <trkpt lat="43.64191" lon="6.65056">
        <ele>461.46</ele>
        <time>2019-12-08T10:20:07.000Z</time>
      </trkpt>
      <trkpt lat="43.64194" lon="6.65055">
        <ele>461.75</ele>
        <time>2019-12-08T10:20:08.000Z</time>
      </trkpt>
      <trkpt lat="43.64197" lon="6.65055">
        <ele>461.9</ele>
        <time>2019-12-08T10:20:09.000Z</time>
      </trkpt>
      <trkpt lat="43.642" lon="6.65053">
        <ele>462.18</ele>
        <time>2019-12-08T10:20:10.000Z</time>
      </trkpt>
      <trkpt lat="43.64203" lon="6.65052">
        <ele>462.47</ele>
        <time>2019-12-08T10:20:11.000Z</time>
      </trkpt>
      <trkpt lat="43.64206" lon="6.65052">
        <ele>462.73</ele>
        <time>2019-12-08T10:20:12.000Z</time>
      </trkpt>
      <trkpt lat="43.64209" lon="6.65051">
        <ele>462.97</ele>
        <time>2019-12-08T10:20:13.000Z</time>
      </trkpt>
      <trkpt lat="43.64212" lon="6.6505">
        <ele>463.08</ele>
        <time>2019-12-08T10:20:14.000Z</time>
      </trkpt>
      <trkpt lat="43.64214" lon="6.65048">
        <ele>463.32</ele>
        <time>2019-12-08T10:20:15.000Z</time>
      </trkpt>
      <trkpt lat="43.64217" lon="6.65047">
        <ele>463.49</ele>
        <time>2019-12-08T10:20:16.000Z</time>
      </trkpt>
      <trkpt lat="43.6422" lon="6.65047">
        <ele>463.58</ele>
        <time>2019-12-08T10:20:17.000Z</time>
      </trkpt>
      <trkpt lat="43.64223" lon="6.65046">
        <ele>463.76</ele>
        <time>2019-12-08T10:20:18.000Z</time>
      </trkpt>
      <trkpt lat="43.64226" lon="6.65046">
        <ele>463.97</ele>
        <time>2019-12-08T10:20:19.000Z</time>
      </trkpt>
      <trkpt lat="43.64229" lon="6.65046">
        <ele>464.26</ele>
        <time>2019-12-08T10:20:20.000Z</time>
      </trkpt>
      <trkpt lat="43.64232" lon="6.65045">
        <ele>464.59</ele>
        <time>2019-12-08T10:20:21.000Z</time>
      </trkpt>
      <trkpt lat="43.64234" lon="6.65045">
        <ele>464.73</ele>
        <time>2019-12-08T10:20:22.000Z</time>
      </trkpt>
      <trkpt lat="43.64237" lon="6.65045">
        <ele>464.98</ele>
        <time>2019-12-08T10:20:23.000Z</time>
      </trkpt>
      <trkpt lat="43.64239" lon="6.65044">
        <ele>465.12</ele>
        <time>2019-12-08T10:20:24.000Z</time>
      </trkpt>
      <trkpt lat="43.64242" lon="6.65045">
        <ele>465.34</ele>
        <time>2019-12-08T10:20:25.000Z</time>
      </trkpt>
      <trkpt lat="43.64244" lon="6.65045">
        <ele>465.44</ele>
        <time>2019-12-08T10:20:26.000Z</time>
      </trkpt>
      <trkpt lat="43.64247" lon="6.65045">
        <ele>465.67</ele>
        <time>2019-12-08T10:20:27.000Z</time>
      </trkpt>
      <trkpt lat="43.64251" lon="6.65044">
        <ele>465.92</ele>
        <time>2019-12-08T10:20:28.000Z</time>
      </trkpt>
      <trkpt lat="43.64254" lon="6.65044">
        <ele>466.16</ele>
        <time>2019-12-08T10:20:29.000Z</time>
      </trkpt>
      <trkpt lat="43.64257" lon="6.65044">
        <ele>466.24</ele>
        <time>2019-12-08T10:20:30.000Z</time>
      </trkpt>
      <trkpt lat="43.6426" lon="6.65043">
        <ele>466.42</ele>
        <time>2019-12-08T10:20:31.000Z</time>
      </trkpt>
      <trkpt lat="43.64262" lon="6.65043">
        <ele>466.68</ele>
        <time>2019-12-08T10:20:32.000Z</time>
      </trkpt>
      <trkpt lat="43.64265" lon="6.65043">
        <ele>466.96</ele>
        <time>2019-12-08T10:20:33.000Z</time>
      </trkpt>
      <trkpt lat="43.64268" lon="6.65043">
        <ele>467.07</ele>
        <time>2019-12-08T10:20:34.000Z</time>
      </trkpt>
      <trkpt lat="43.6427" lon="6.65042">
        <ele>467.33</ele>
        <time>2019-12-08T10:20:35.000Z</time>
      </trkpt>
      <trkpt lat="43.64273" lon="6.65041">
        <ele>467.55</ele>
        <time>2019-12-08T10:20:36.000Z</time>
      </trkpt>
      <trkpt lat="43.64276" lon="6.65041">
        <ele>467.76</ele>
        <time>2019-12-08T10:20:37.000Z</time>
      </trkpt>
      <trkpt lat="43.64279" lon="6.6504">
        <ele>467.86</ele>
        <time>2019-12-08T10:20:38.000Z</time>
      </trkpt>
      <trkpt lat="43.64282" lon="6.65039">
        <ele>468.12</ele>
        <time>2019-12-08T10:20:39.000Z</time>
      </trkpt>
      <trkpt lat="43.64285" lon="6.65038">
        <ele>468.39</ele>
        <time>2019-12-08T10:20:40.000Z</time>
      </trkpt>
      <trkpt lat="43.64288" lon="6.65036">
        <ele>468.69</ele>
        <time>2019-12-08T10:20:41.000Z</time>
      </trkpt>
      <trkpt lat="43.6429" lon="6.65034">
        <ele>468.83</ele>
        <time>2019-12-08T10:20:42.000Z</time>
      </trkpt>
      <trkpt lat="43.64293" lon="6.65032">
        <ele>469.07</ele>
        <time>2019-12-08T10:20:43.000Z</time>
      </trkpt>
      <trkpt lat="43.64296" lon="6.6503">
        <ele>469.21</ele>
        <time>2019-12-08T10:20:44.000Z</time>
      </trkpt>
      <trkpt lat="43.64298" lon="6.65028">
        <ele>469.45</ele>
        <time>2019-12-08T10:20:45.000Z</time>
      </trkpt>
      <trkpt lat="43.64301" lon="6.65026">
        <ele>469.58</ele>
        <time>2019-12-08T10:20:46.000Z</time>
      </trkpt>
      <trkpt lat="43.64304" lon="6.65024">
        <ele>469.82</ele>
        <time>2019-12-08T10:20:47.000Z</time>
      </trkpt>
      <trkpt lat="43.64306" lon="6.65021">
        <ele>470.07</ele>
        <time>2019-12-08T10:20:48.000Z</time>
      </trkpt>
      <trkpt lat="43.64309" lon="6.65019">
        <ele>470.26</ele>
        <time>2019-12-08T10:20:49.000Z</time>
      </trkpt>
      <trkpt lat="43.64312" lon="6.65017">
        <ele>470.53</ele>
        <time>2019-12-08T10:20:50.000Z</time>
      </trkpt>
      <trkpt lat="43.64314" lon="6.65015">
        <ele>470.67</ele>
        <time>2019-12-08T10:20:51.000Z</time>
      </trkpt>
      <trkpt lat="43.64317" lon="6.65013">
        <ele>470.9</ele>
        <time>2019-12-08T10:20:52.000Z</time>
      </trkpt>
      <trkpt lat="43.6432" lon="6.65012">
        <ele>471.14</ele>
        <time>2019-12-08T10:20:53.000Z</time>
      </trkpt>
      <trkpt lat="43.64323" lon="6.65011">
        <ele>471.32</ele>
        <time>2019-12-08T10:20:54.000Z</time>
      </trkpt>
      <trkpt lat="43.64326" lon="6.6501">
        <ele>471.41</ele>
        <time>2019-12-08T10:20:55.000Z</time>
      </trkpt>
      <trkpt lat="43.64328" lon="6.6501">
        <ele>471.58</ele>
        <time>2019-12-08T10:20:56.000Z</time>
      </trkpt>
      <trkpt lat="43.64331" lon="6.6501">
        <ele>471.77</ele>
        <time>2019-12-08T10:20:57.000Z</time>
      </trkpt>
      <trkpt lat="43.64334" lon="6.6501">
        <ele>472</ele>
        <time>2019-12-08T10:20:58.000Z</time>
      </trkpt>
      <trkpt lat="43.64337" lon="6.6501">
        <ele>472.09</ele>
        <time>2019-12-08T10:20:59.000Z</time>
      </trkpt>
      <trkpt lat="43.64341" lon="6.65009">
        <ele>472.3</ele>
        <time>2019-12-08T10:21:00.000Z</time>
      </trkpt>
      <trkpt lat="43.64344" lon="6.65009">
        <ele>472.47</ele>
        <time>2019-12-08T10:21:01.000Z</time>
      </trkpt>
      <trkpt lat="43.64347" lon="6.65007">
        <ele>472.66</ele>
        <time>2019-12-08T10:21:02.000Z</time>
      </trkpt>
      <trkpt lat="43.6435" lon="6.65006">
        <ele>472.74</ele>
        <time>2019-12-08T10:21:03.000Z</time>
      </trkpt>
      <trkpt lat="43.64353" lon="6.65004">
        <ele>472.86</ele>
        <time>2019-12-08T10:21:04.000Z</time>
      </trkpt>
      <trkpt lat="43.64357" lon="6.65002">
        <ele>472.97</ele>
        <time>2019-12-08T10:21:05.000Z</time>
      </trkpt>
      <trkpt lat="43.6436" lon="6.64999">
        <ele>473.04</ele>
        <time>2019-12-08T10:21:06.000Z</time>
      </trkpt>
      <trkpt lat="43.64363" lon="6.64996">
        <ele>473.09</ele>
        <time>2019-12-08T10:21:07.000Z</time>
      </trkpt>
      <trkpt lat="43.64365" lon="6.64992">
        <ele>473.14</ele>
        <time>2019-12-08T10:21:08.000Z</time>
      </trkpt>
      <trkpt lat="43.64368" lon="6.64989">
        <ele>473.14</ele>
        <time>2019-12-08T10:21:09.000Z</time>
      </trkpt>
      <trkpt lat="43.64371" lon="6.64987">
        <ele>473.14</ele>
        <time>2019-12-08T10:21:10.000Z</time>
      </trkpt>
      <trkpt lat="43.64374" lon="6.64984">
        <ele>473.14</ele>
        <time>2019-12-08T10:21:11.000Z</time>
      </trkpt>
      <trkpt lat="43.64376" lon="6.64982">
        <ele>473.14</ele>
        <time>2019-12-08T10:21:12.000Z</time>
      </trkpt>
      <trkpt lat="43.64379" lon="6.64981">
        <ele>473.44</ele>
        <time>2019-12-08T10:21:13.000Z</time>
      </trkpt>
      <trkpt lat="43.64381" lon="6.64979">
        <ele>473.77</ele>
        <time>2019-12-08T10:21:14.000Z</time>
      </trkpt>
      <trkpt lat="43.64384" lon="6.64978">
        <ele>473.99</ele>
        <time>2019-12-08T10:21:15.000Z</time>
      </trkpt>
      <trkpt lat="43.64386" lon="6.64977">
        <ele>474.53</ele>
        <time>2019-12-08T10:21:16.000Z</time>
      </trkpt>
      <trkpt lat="43.64389" lon="6.64976">
        <ele>475.12</ele>
        <time>2019-12-08T10:21:17.000Z</time>
      </trkpt>
      <trkpt lat="43.64391" lon="6.64975">
        <ele>475.54</ele>
        <time>2019-12-08T10:21:18.000Z</time>
      </trkpt>
      <trkpt lat="43.64394" lon="6.64974">
        <ele>475.78</ele>
        <time>2019-12-08T10:21:19.000Z</time>
      </trkpt>
      <trkpt lat="43.64397" lon="6.64973">
        <ele>476.23</ele>
        <time>2019-12-08T10:21:20.000Z</time>
      </trkpt>
      <trkpt lat="43.64399" lon="6.64972">
        <ele>476.63</ele>
        <time>2019-12-08T10:21:21.000Z</time>
      </trkpt>
      <trkpt lat="43.64402" lon="6.64971">
        <ele>477</ele>
        <time>2019-12-08T10:21:22.000Z</time>
      </trkpt>
      <trkpt lat="43.64405" lon="6.6497">
        <ele>477.39</ele>
        <time>2019-12-08T10:21:23.000Z</time>
      </trkpt>
      <trkpt lat="43.64408" lon="6.64969">
        <ele>477.58</ele>
        <time>2019-12-08T10:21:24.000Z</time>
      </trkpt>
      <trkpt lat="43.64411" lon="6.64968">
        <ele>477.92</ele>
        <time>2019-12-08T10:21:25.000Z</time>
      </trkpt>
      <trkpt lat="43.64413" lon="6.64967">
        <ele>478.25</ele>
        <time>2019-12-08T10:21:26.000Z</time>
      </trkpt>
      <trkpt lat="43.64416" lon="6.64966">
        <ele>478.38</ele>
        <time>2019-12-08T10:21:27.000Z</time>
      </trkpt>
      <trkpt lat="43.6442" lon="6.64965">
        <ele>478.57</ele>
        <time>2019-12-08T10:21:28.000Z</time>
      </trkpt>
      <trkpt lat="43.64423" lon="6.64964">
        <ele>478.69</ele>
        <time>2019-12-08T10:21:29.000Z</time>
      </trkpt>
      <trkpt lat="43.64426" lon="6.64963">
        <ele>478.82</ele>
        <time>2019-12-08T10:21:30.000Z</time>
      </trkpt>
      <trkpt lat="43.64428" lon="6.64961">
        <ele>478.97</ele>
        <time>2019-12-08T10:21:31.000Z</time>
      </trkpt>
      <trkpt lat="43.64431" lon="6.6496">
        <ele>479.06</ele>
        <time>2019-12-08T10:21:32.000Z</time>
      </trkpt>
      <trkpt lat="43.64434" lon="6.64958">
        <ele>479.25</ele>
        <time>2019-12-08T10:21:33.000Z</time>
      </trkpt>
      <trkpt lat="43.64437" lon="6.64956">
        <ele>479.53</ele>
        <time>2019-12-08T10:21:34.000Z</time>
      </trkpt>
      <trkpt lat="43.64439" lon="6.64955">
        <ele>479.72</ele>
        <time>2019-12-08T10:21:35.000Z</time>
      </trkpt>
      <trkpt lat="43.64442" lon="6.64953">
        <ele>479.89</ele>
        <time>2019-12-08T10:21:36.000Z</time>
      </trkpt>
      <trkpt lat="43.64444" lon="6.64954">
        <ele>480.23</ele>
        <time>2019-12-08T10:21:37.000Z</time>
      </trkpt>
      <trkpt lat="43.64447" lon="6.64955">
        <ele>480.59</ele>
        <time>2019-12-08T10:21:38.000Z</time>
      </trkpt>
      <trkpt lat="43.64448" lon="6.64957">
        <ele>480.59</ele>
        <time>2019-12-08T10:21:39.000Z</time>
      </trkpt>
      <trkpt lat="43.64448" lon="6.6496">
        <ele>480.59</ele>
        <time>2019-12-08T10:21:40.000Z</time>
      </trkpt>
      <trkpt lat="43.64447" lon="6.64964">
        <ele>480.59</ele>
        <time>2019-12-08T10:21:41.000Z</time>
      </trkpt>
      <trkpt lat="43.64445" lon="6.64967">
        <ele>480.97</ele>
        <time>2019-12-08T10:21:42.000Z</time>
      </trkpt>
      <trkpt lat="43.64443" lon="6.64969">
        <ele>481.79</ele>
        <time>2019-12-08T10:21:43.000Z</time>
      </trkpt>
      <trkpt lat="43.64441" lon="6.64971">
        <ele>482.17</ele>
        <time>2019-12-08T10:21:44.000Z</time>
      </trkpt>
      <trkpt lat="43.64438" lon="6.64972">
        <ele>482.94</ele>
        <time>2019-12-08T10:21:45.000Z</time>
      </trkpt>
      <trkpt lat="43.64435" lon="6.64973">
        <ele>483.61</ele>
        <time>2019-12-08T10:21:46.000Z</time>
      </trkpt>
      <trkpt lat="43.64432" lon="6.64975">
        <ele>483.89</ele>
        <time>2019-12-08T10:21:47.000Z</time>
      </trkpt>
      <trkpt lat="43.64429" lon="6.64976">
        <ele>483.94</ele>
        <time>2019-12-08T10:21:48.000Z</time>
      </trkpt>
      <trkpt lat="43.64426" lon="6.64977">
        <ele>484.09</ele>
        <time>2019-12-08T10:21:49.000Z</time>
      </trkpt>
      <trkpt lat="43.64423" lon="6.64978">
        <ele>484.34</ele>
        <time>2019-12-08T10:21:50.000Z</time>
      </trkpt>
      <trkpt lat="43.6442" lon="6.64979">
        <ele>484.6</ele>
        <time>2019-12-08T10:21:51.000Z</time>
      </trkpt>
      <trkpt lat="43.64417" lon="6.6498">
        <ele>484.71</ele>
        <time>2019-12-08T10:21:52.000Z</time>
      </trkpt>
      <trkpt lat="43.64414" lon="6.64981">
        <ele>485</ele>
        <time>2019-12-08T10:21:53.000Z</time>
      </trkpt>
      <trkpt lat="43.64411" lon="6.64982">
        <ele>485.23</ele>
        <time>2019-12-08T10:21:54.000Z</time>
      </trkpt>
      <trkpt lat="43.64409" lon="6.64984">
        <ele>485.41</ele>
        <time>2019-12-08T10:21:55.000Z</time>
      </trkpt>
      <trkpt lat="43.64406" lon="6.64986">
        <ele>485.52</ele>
        <time>2019-12-08T10:21:56.000Z</time>
      </trkpt>
      <trkpt lat="43.64404" lon="6.64988">
        <ele>485.8</ele>
        <time>2019-12-08T10:21:57.000Z</time>
      </trkpt>
      <trkpt lat="43.64401" lon="6.64991">
        <ele>485.8</ele>
        <time>2019-12-08T10:21:58.000Z</time>
      </trkpt>
      <trkpt lat="43.64399" lon="6.64994">
        <ele>485.8</ele>
        <time>2019-12-08T10:21:59.000Z</time>
      </trkpt>
      <trkpt lat="43.64397" lon="6.64997">
        <ele>485.8</ele>
        <time>2019-12-08T10:22:00.000Z</time>
      </trkpt>
      <trkpt lat="43.64395" lon="6.65">
        <ele>486.16</ele>
        <time>2019-12-08T10:22:01.000Z</time>
      </trkpt>
      <trkpt lat="43.64393" lon="6.65004">
        <ele>486.56</ele>
        <time>2019-12-08T10:22:02.000Z</time>
      </trkpt>
      <trkpt lat="43.64391" lon="6.65007">
        <ele>486.9</ele>
        <time>2019-12-08T10:22:03.000Z</time>
      </trkpt>
      <trkpt lat="43.6439" lon="6.6501">
        <ele>487.08</ele>
        <time>2019-12-08T10:22:04.000Z</time>
      </trkpt>
      <trkpt lat="43.64388" lon="6.65013">
        <ele>487.34</ele>
        <time>2019-12-08T10:22:05.000Z</time>
      </trkpt>
      <trkpt lat="43.64386" lon="6.65016">
        <ele>487.59</ele>
        <time>2019-12-08T10:22:06.000Z</time>
      </trkpt>
      <trkpt lat="43.64385" lon="6.6502">
        <ele>487.85</ele>
        <time>2019-12-08T10:22:07.000Z</time>
      </trkpt>
      <trkpt lat="43.64383" lon="6.65023">
        <ele>488.12</ele>
        <time>2019-12-08T10:22:08.000Z</time>
      </trkpt>
      <trkpt lat="43.64381" lon="6.65026">
        <ele>488.27</ele>
        <time>2019-12-08T10:22:09.000Z</time>
      </trkpt>
      <trkpt lat="43.64378" lon="6.65029">
        <ele>488.54</ele>
        <time>2019-12-08T10:22:10.000Z</time>
      </trkpt>
      <trkpt lat="43.64375" lon="6.65031">
        <ele>488.7</ele>
        <time>2019-12-08T10:22:11.000Z</time>
      </trkpt>
      <trkpt lat="43.64373" lon="6.65033">
        <ele>488.91</ele>
        <time>2019-12-08T10:22:12.000Z</time>
      </trkpt>
      <trkpt lat="43.6437" lon="6.65034">
        <ele>489.02</ele>
        <time>2019-12-08T10:22:13.000Z</time>
      </trkpt>
      <trkpt lat="43.64367" lon="6.65035">
        <ele>489.02</ele>
        <time>2019-12-08T10:22:14.000Z</time>
      </trkpt>
      <trkpt lat="43.64364" lon="6.65036">
        <ele>489.02</ele>
        <time>2019-12-08T10:22:15.000Z</time>
      </trkpt>
      <trkpt lat="43.64361" lon="6.65037">
        <ele>489.02</ele>
        <time>2019-12-08T10:22:16.000Z</time>
      </trkpt>
      <trkpt lat="43.64358" lon="6.65038">
        <ele>489.4</ele>
        <time>2019-12-08T10:22:17.000Z</time>
      </trkpt>
      <trkpt lat="43.64355" lon="6.65039">
        <ele>489.84</ele>
        <time>2019-12-08T10:22:18.000Z</time>
      </trkpt>
      <trkpt lat="43.64352" lon="6.65041">
        <ele>490.3</ele>
        <time>2019-12-08T10:22:19.000Z</time>
      </trkpt>
      <trkpt lat="43.6435" lon="6.65042">
        <ele>490.72</ele>
        <time>2019-12-08T10:22:20.000Z</time>
      </trkpt>
      <trkpt lat="43.64348" lon="6.65044">
        <ele>490.89</ele>
        <time>2019-12-08T10:22:21.000Z</time>
      </trkpt>
      <trkpt lat="43.64346" lon="6.65047">
        <ele>491.11</ele>
        <time>2019-12-08T10:22:22.000Z</time>
      </trkpt>
      <trkpt lat="43.64344" lon="6.6505">
        <ele>491.36</ele>
        <time>2019-12-08T10:22:23.000Z</time>
      </trkpt>
      <trkpt lat="43.64342" lon="6.65054">
        <ele>491.6</ele>
        <time>2019-12-08T10:22:24.000Z</time>
      </trkpt>
      <trkpt lat="43.64341" lon="6.65057">
        <ele>491.71</ele>
        <time>2019-12-08T10:22:25.000Z</time>
      </trkpt>
      <trkpt lat="43.6434" lon="6.65061">
        <ele>491.97</ele>
        <time>2019-12-08T10:22:26.000Z</time>
      </trkpt>
      <trkpt lat="43.64338" lon="6.65065">
        <ele>492.23</ele>
        <time>2019-12-08T10:22:27.000Z</time>
      </trkpt>
      <trkpt lat="43.64336" lon="6.65068">
        <ele>492.42</ele>
        <time>2019-12-08T10:22:28.000Z</time>
      </trkpt>
      <trkpt lat="43.64335" lon="6.65071">
        <ele>492.58</ele>
        <time>2019-12-08T10:22:29.000Z</time>
      </trkpt>
      <trkpt lat="43.64333" lon="6.65075">
        <ele>492.67</ele>
        <time>2019-12-08T10:22:30.000Z</time>
      </trkpt>
      <trkpt lat="43.64331" lon="6.65079">
        <ele>492.81</ele>
        <time>2019-12-08T10:22:31.000Z</time>
      </trkpt>
      <trkpt lat="43.64329" lon="6.65082">
        <ele>493.04</ele>
        <time>2019-12-08T10:22:32.000Z</time>
      </trkpt>
      <trkpt lat="43.64327" lon="6.65086">
        <ele>493.18</ele>
        <time>2019-12-08T10:22:33.000Z</time>
      </trkpt>
      <trkpt lat="43.64325" lon="6.65089">
        <ele>493.47</ele>
        <time>2019-12-08T10:22:34.000Z</time>
      </trkpt>
      <trkpt lat="43.64323" lon="6.65092">
        <ele>493.75</ele>
        <time>2019-12-08T10:22:35.000Z</time>
      </trkpt>
      <trkpt lat="43.64321" lon="6.65095">
        <ele>493.92</ele>
        <time>2019-12-08T10:22:36.000Z</time>
      </trkpt>
      <trkpt lat="43.64318" lon="6.65098">
        <ele>494.12</ele>
        <time>2019-12-08T10:22:37.000Z</time>
      </trkpt>
      <trkpt lat="43.64316" lon="6.65101">
        <ele>494.23</ele>
        <time>2019-12-08T10:22:38.000Z</time>
      </trkpt>
      <trkpt lat="43.64313" lon="6.65104">
        <ele>494.45</ele>
        <time>2019-12-08T10:22:39.000Z</time>
      </trkpt>
      <trkpt lat="43.64311" lon="6.65107">
        <ele>494.68</ele>
        <time>2019-12-08T10:22:40.000Z</time>
      </trkpt>
      <trkpt lat="43.64308" lon="6.6511">
        <ele>494.92</ele>
        <time>2019-12-08T10:22:41.000Z</time>
      </trkpt>
      <trkpt lat="43.64306" lon="6.65113">
        <ele>495.03</ele>
        <time>2019-12-08T10:22:42.000Z</time>
      </trkpt>
      <trkpt lat="43.64304" lon="6.65115">
        <ele>495.24</ele>
        <time>2019-12-08T10:22:43.000Z</time>
      </trkpt>
      <trkpt lat="43.64301" lon="6.65118">
        <ele>495.41</ele>
        <time>2019-12-08T10:22:44.000Z</time>
      </trkpt>
      <trkpt lat="43.64298" lon="6.65121">
        <ele>495.63</ele>
        <time>2019-12-08T10:22:45.000Z</time>
      </trkpt>
      <trkpt lat="43.64295" lon="6.65123">
        <ele>495.71</ele>
        <time>2019-12-08T10:22:46.000Z</time>
      </trkpt>
      <trkpt lat="43.64293" lon="6.65126">
        <ele>495.88</ele>
        <time>2019-12-08T10:22:47.000Z</time>
      </trkpt>
      <trkpt lat="43.6429" lon="6.65128">
        <ele>496.12</ele>
        <time>2019-12-08T10:22:48.000Z</time>
      </trkpt>
      <trkpt lat="43.64288" lon="6.6513">
        <ele>496.41</ele>
        <time>2019-12-08T10:22:49.000Z</time>
      </trkpt>
      <trkpt lat="43.64285" lon="6.65132">
        <ele>496.56</ele>
        <time>2019-12-08T10:22:50.000Z</time>
      </trkpt>
      <trkpt lat="43.64283" lon="6.65135">
        <ele>496.82</ele>
        <time>2019-12-08T10:22:51.000Z</time>
      </trkpt>
      <trkpt lat="43.64281" lon="6.65137">
        <ele>497.03</ele>
        <time>2019-12-08T10:22:52.000Z</time>
      </trkpt>
      <trkpt lat="43.64279" lon="6.65139">
        <ele>497.22</ele>
        <time>2019-12-08T10:22:53.000Z</time>
      </trkpt>
      <trkpt lat="43.64277" lon="6.65142">
        <ele>497.33</ele>
        <time>2019-12-08T10:22:54.000Z</time>
      </trkpt>
      <trkpt lat="43.64275" lon="6.65145">
        <ele>497.48</ele>
        <time>2019-12-08T10:22:55.000Z</time>
      </trkpt>
      <trkpt lat="43.64273" lon="6.65148">
        <ele>497.73</ele>
        <time>2019-12-08T10:22:56.000Z</time>
      </trkpt>
      <trkpt lat="43.64271" lon="6.65151">
        <ele>497.73</ele>
        <time>2019-12-08T10:22:57.000Z</time>
      </trkpt>
      <trkpt lat="43.6427" lon="6.65155">
        <ele>497.73</ele>
        <time>2019-12-08T10:22:58.000Z</time>
      </trkpt>
      <trkpt lat="43.64268" lon="6.65158">
        <ele>497.73</ele>
        <time>2019-12-08T10:22:59.000Z</time>
      </trkpt>
      <trkpt lat="43.64267" lon="6.65162">
        <ele>498.12</ele>
        <time>2019-12-08T10:23:00.000Z</time>
      </trkpt>
      <trkpt lat="43.64265" lon="6.65166">
        <ele>498.52</ele>
        <time>2019-12-08T10:23:01.000Z</time>
      </trkpt>
      <trkpt lat="43.64264" lon="6.6517">
        <ele>498.7</ele>
        <time>2019-12-08T10:23:02.000Z</time>
      </trkpt>
      <trkpt lat="43.64262" lon="6.65173">
        <ele>499.11</ele>
        <time>2019-12-08T10:23:03.000Z</time>
      </trkpt>
      <trkpt lat="43.64261" lon="6.65177">
        <ele>499.34</ele>
        <time>2019-12-08T10:23:04.000Z</time>
      </trkpt>
      <trkpt lat="43.64259" lon="6.65181">
        <ele>499.48</ele>
        <time>2019-12-08T10:23:05.000Z</time>
      </trkpt>
      <trkpt lat="43.64258" lon="6.65184">
        <ele>499.69</ele>
        <time>2019-12-08T10:23:06.000Z</time>
      </trkpt>
      <trkpt lat="43.64257" lon="6.65188">
        <ele>499.79</ele>
        <time>2019-12-08T10:23:07.000Z</time>
      </trkpt>
      <trkpt lat="43.64256" lon="6.65192">
        <ele>500.06</ele>
        <time>2019-12-08T10:23:08.000Z</time>
      </trkpt>
      <trkpt lat="43.64255" lon="6.65196">
        <ele>500.41</ele>
        <time>2019-12-08T10:23:09.000Z</time>
      </trkpt>
      <trkpt lat="43.64254" lon="6.652">
        <ele>500.71</ele>
        <time>2019-12-08T10:23:10.000Z</time>
      </trkpt>
      <trkpt lat="43.64253" lon="6.65204">
        <ele>500.82</ele>
        <time>2019-12-08T10:23:11.000Z</time>
      </trkpt>
      <trkpt lat="43.64252" lon="6.65208">
        <ele>501.09</ele>
        <time>2019-12-08T10:23:12.000Z</time>
      </trkpt>
      <trkpt lat="43.64252" lon="6.65212">
        <ele>501.3</ele>
        <time>2019-12-08T10:23:13.000Z</time>
      </trkpt>
      <trkpt lat="43.64251" lon="6.65216">
        <ele>501.5</ele>
        <time>2019-12-08T10:23:14.000Z</time>
      </trkpt>
      <trkpt lat="43.6425" lon="6.65221">
        <ele>501.65</ele>
        <time>2019-12-08T10:23:15.000Z</time>
      </trkpt>
      <trkpt lat="43.6425" lon="6.65225">
        <ele>501.89</ele>
        <time>2019-12-08T10:23:16.000Z</time>
      </trkpt>
      <trkpt lat="43.6425" lon="6.65229">
        <ele>502.18</ele>
        <time>2019-12-08T10:23:17.000Z</time>
      </trkpt>
      <trkpt lat="43.64249" lon="6.65233">
        <ele>502.43</ele>
        <time>2019-12-08T10:23:18.000Z</time>
      </trkpt>
      <trkpt lat="43.64249" lon="6.65237">
        <ele>502.53</ele>
        <time>2019-12-08T10:23:19.000Z</time>
      </trkpt>
      <trkpt lat="43.64248" lon="6.65242">
        <ele>502.76</ele>
        <time>2019-12-08T10:23:20.000Z</time>
      </trkpt>
      <trkpt lat="43.64248" lon="6.65246">
        <ele>503.01</ele>
        <time>2019-12-08T10:23:21.000Z</time>
      </trkpt>
      <trkpt lat="43.64247" lon="6.6525">
        <ele>503.18</ele>
        <time>2019-12-08T10:23:22.000Z</time>
      </trkpt>
      <trkpt lat="43.64247" lon="6.65254">
        <ele>503.33</ele>
        <time>2019-12-08T10:23:23.000Z</time>
      </trkpt>
      <trkpt lat="43.64246" lon="6.65258">
        <ele>503.53</ele>
        <time>2019-12-08T10:23:24.000Z</time>
      </trkpt>
      <trkpt lat="43.64245" lon="6.65262">
        <ele>503.73</ele>
        <time>2019-12-08T10:23:25.000Z</time>
      </trkpt>
      <trkpt lat="43.64244" lon="6.65266">
        <ele>503.93</ele>
        <time>2019-12-08T10:23:26.000Z</time>
      </trkpt>
      <trkpt lat="43.64243" lon="6.6527">
        <ele>504.07</ele>
        <time>2019-12-08T10:23:27.000Z</time>
      </trkpt>
      <trkpt lat="43.64242" lon="6.65273">
        <ele>504.4</ele>
        <time>2019-12-08T10:23:28.000Z</time>
      </trkpt>
      <trkpt lat="43.64241" lon="6.65277">
        <ele>504.71</ele>
        <time>2019-12-08T10:23:29.000Z</time>
      </trkpt>
      <trkpt lat="43.6424" lon="6.65281">
        <ele>505</ele>
        <time>2019-12-08T10:23:30.000Z</time>
      </trkpt>
      <trkpt lat="43.64239" lon="6.65285">
        <ele>505.17</ele>
        <time>2019-12-08T10:23:31.000Z</time>
      </trkpt>
      <trkpt lat="43.64238" lon="6.65289">
        <ele>505.39</ele>
        <time>2019-12-08T10:23:32.000Z</time>
      </trkpt>
      <trkpt lat="43.64237" lon="6.65292">
        <ele>505.59</ele>
        <time>2019-12-08T10:23:33.000Z</time>
      </trkpt>
      <trkpt lat="43.64236" lon="6.65296">
        <ele>505.83</ele>
        <time>2019-12-08T10:23:34.000Z</time>
      </trkpt>
      <trkpt lat="43.64236" lon="6.653">
        <ele>505.94</ele>
        <time>2019-12-08T10:23:35.000Z</time>
      </trkpt>
      <trkpt lat="43.64235" lon="6.65304">
        <ele>506.04</ele>
        <time>2019-12-08T10:23:36.000Z</time>
      </trkpt>
      <trkpt lat="43.64234" lon="6.65308">
        <ele>506.26</ele>
        <time>2019-12-08T10:23:37.000Z</time>
      </trkpt>
      <trkpt lat="43.64233" lon="6.65312">
        <ele>506.49</ele>
        <time>2019-12-08T10:23:38.000Z</time>
      </trkpt>
      <trkpt lat="43.64233" lon="6.65316">
        <ele>506.73</ele>
        <time>2019-12-08T10:23:39.000Z</time>
      </trkpt>
      <trkpt lat="43.64232" lon="6.6532">
        <ele>506.84</ele>
        <time>2019-12-08T10:23:40.000Z</time>
      </trkpt>
      <trkpt lat="43.64232" lon="6.65324">
        <ele>507.07</ele>
        <time>2019-12-08T10:23:41.000Z</time>
      </trkpt>
      <trkpt lat="43.64231" lon="6.65329">
        <ele>507.26</ele>
        <time>2019-12-08T10:23:42.000Z</time>
      </trkpt>
      <trkpt lat="43.64231" lon="6.65333">
        <ele>507.36</ele>
        <time>2019-12-08T10:23:43.000Z</time>
      </trkpt>
      <trkpt lat="43.6423" lon="6.65337">
        <ele>507.61</ele>
        <time>2019-12-08T10:23:44.000Z</time>
      </trkpt>
      <trkpt lat="43.6423" lon="6.65341">
        <ele>507.83</ele>
        <time>2019-12-08T10:23:45.000Z</time>
      </trkpt>
      <trkpt lat="43.64229" lon="6.65346">
        <ele>508.07</ele>
        <time>2019-12-08T10:23:46.000Z</time>
      </trkpt>
      <trkpt lat="43.64229" lon="6.6535">
        <ele>508.32</ele>
        <time>2019-12-08T10:23:47.000Z</time>
      </trkpt>
      <trkpt lat="43.64228" lon="6.65354">
        <ele>508.45</ele>
        <time>2019-12-08T10:23:48.000Z</time>
      </trkpt>
      <trkpt lat="43.64228" lon="6.65358">
        <ele>508.64</ele>
        <time>2019-12-08T10:23:49.000Z</time>
      </trkpt>
      <trkpt lat="43.64228" lon="6.65363">
        <ele>508.85</ele>
        <time>2019-12-08T10:23:50.000Z</time>
      </trkpt>
      <trkpt lat="43.64228" lon="6.65367">
        <ele>509.08</ele>
        <time>2019-12-08T10:23:51.000Z</time>
      </trkpt>
      <trkpt lat="43.64228" lon="6.65371">
        <ele>509.19</ele>
        <time>2019-12-08T10:23:52.000Z</time>
      </trkpt>
      <trkpt lat="43.64228" lon="6.65375">
        <ele>509.31</ele>
        <time>2019-12-08T10:23:53.000Z</time>
      </trkpt>
      <trkpt lat="43.64228" lon="6.6538">
        <ele>509.6</ele>
        <time>2019-12-08T10:23:54.000Z</time>
      </trkpt>
      <trkpt lat="43.64228" lon="6.65384">
        <ele>509.98</ele>
        <time>2019-12-08T10:23:55.000Z</time>
      </trkpt>
      <trkpt lat="43.64228" lon="6.65388">
        <ele>510.19</ele>
        <time>2019-12-08T10:23:56.000Z</time>
      </trkpt>
      <trkpt lat="43.64229" lon="6.65392">
        <ele>510.49</ele>
        <time>2019-12-08T10:23:57.000Z</time>
      </trkpt>
      <trkpt lat="43.64229" lon="6.65397">
        <ele>510.8</ele>
        <time>2019-12-08T10:23:58.000Z</time>
      </trkpt>
      <trkpt lat="43.64229" lon="6.65401">
        <ele>511.01</ele>
        <time>2019-12-08T10:23:59.000Z</time>
      </trkpt>
      <trkpt lat="43.64229" lon="6.65405">
        <ele>511.26</ele>
        <time>2019-12-08T10:24:00.000Z</time>
      </trkpt>
      <trkpt lat="43.64229" lon="6.65409">
        <ele>511.4</ele>
        <time>2019-12-08T10:24:01.000Z</time>
      </trkpt>
      <trkpt lat="43.64229" lon="6.65414">
        <ele>511.64</ele>
        <time>2019-12-08T10:24:02.000Z</time>
      </trkpt>
      <trkpt lat="43.64229" lon="6.65418">
        <ele>511.88</ele>
        <time>2019-12-08T10:24:03.000Z</time>
      </trkpt>
      <trkpt lat="43.64229" lon="6.65422">
        <ele>512.02</ele>
        <time>2019-12-08T10:24:04.000Z</time>
      </trkpt>
      <trkpt lat="43.64229" lon="6.65426">
        <ele>512.23</ele>
        <time>2019-12-08T10:24:05.000Z</time>
      </trkpt>
      <trkpt lat="43.64229" lon="6.6543">
        <ele>512.48</ele>
        <time>2019-12-08T10:24:06.000Z</time>
      </trkpt>
      <trkpt lat="43.64229" lon="6.65435">
        <ele>512.76</ele>
        <time>2019-12-08T10:24:07.000Z</time>
      </trkpt>
      <trkpt lat="43.64229" lon="6.65439">
        <ele>513.01</ele>
        <time>2019-12-08T10:24:08.000Z</time>
      </trkpt>
      <trkpt lat="43.64229" lon="6.65443">
        <ele>513.14</ele>
        <time>2019-12-08T10:24:09.000Z</time>
      </trkpt>
      <trkpt lat="43.64229" lon="6.65447">
        <ele>513.39</ele>
        <time>2019-12-08T10:24:10.000Z</time>
      </trkpt>
      <trkpt lat="43.64229" lon="6.65451">
        <ele>513.59</ele>
        <time>2019-12-08T10:24:11.000Z</time>
      </trkpt>
      <trkpt lat="43.64229" lon="6.65455">
        <ele>513.84</ele>
        <time>2019-12-08T10:24:12.000Z</time>
      </trkpt>
      <trkpt lat="43.6423" lon="6.6546">
        <ele>513.98</ele>
        <time>2019-12-08T10:24:13.000Z</time>
      </trkpt>
      <trkpt lat="43.6423" lon="6.65464">
        <ele>514.24</ele>
        <time>2019-12-08T10:24:14.000Z</time>
      </trkpt>
      <trkpt lat="43.6423" lon="6.65468">
        <ele>514.51</ele>
        <time>2019-12-08T10:24:15.000Z</time>
      </trkpt>
      <trkpt lat="43.6423" lon="6.65472">
        <ele>514.71</ele>
        <time>2019-12-08T10:24:16.000Z</time>
      </trkpt>
      <trkpt lat="43.6423" lon="6.65477">
        <ele>514.8</ele>
        <time>2019-12-08T10:24:17.000Z</time>
      </trkpt>
      <trkpt lat="43.6423" lon="6.65481">
        <ele>514.96</ele>
        <time>2019-12-08T10:24:18.000Z</time>
      </trkpt>
      <trkpt lat="43.6423" lon="6.65485">
        <ele>515.14</ele>
        <time>2019-12-08T10:24:19.000Z</time>
      </trkpt>
      <trkpt lat="43.6423" lon="6.65489">
        <ele>515.33</ele>
        <time>2019-12-08T10:24:20.000Z</time>
      </trkpt>
      <trkpt lat="43.6423" lon="6.65494">
        <ele>515.43</ele>
        <time>2019-12-08T10:24:21.000Z</time>
      </trkpt>
      <trkpt lat="43.64231" lon="6.65498">
        <ele>515.64</ele>
        <time>2019-12-08T10:24:22.000Z</time>
      </trkpt>
      <trkpt lat="43.64231" lon="6.65502">
        <ele>515.83</ele>
        <time>2019-12-08T10:24:23.000Z</time>
      </trkpt>
      <trkpt lat="43.64231" lon="6.65506">
        <ele>516.06</ele>
        <time>2019-12-08T10:24:24.000Z</time>
      </trkpt>
      <trkpt lat="43.64231" lon="6.65511">
        <ele>516.16</ele>
        <time>2019-12-08T10:24:25.000Z</time>
      </trkpt>
      <trkpt lat="43.64232" lon="6.65515">
        <ele>516.43</ele>
        <time>2019-12-08T10:24:26.000Z</time>
      </trkpt>
      <trkpt lat="43.64232" lon="6.65519">
        <ele>516.65</ele>
        <time>2019-12-08T10:24:27.000Z</time>
      </trkpt>
      <trkpt lat="43.64233" lon="6.65523">
        <ele>516.96</ele>
        <time>2019-12-08T10:24:28.000Z</time>
      </trkpt>
      <trkpt lat="43.64234" lon="6.65527">
        <ele>517.12</ele>
        <time>2019-12-08T10:24:29.000Z</time>
      </trkpt>
      <trkpt lat="43.64235" lon="6.65531">
        <ele>517.12</ele>
        <time>2019-12-08T10:24:30.000Z</time>
      </trkpt>
      <trkpt lat="43.64236" lon="6.65534">
        <ele>517.12</ele>
        <time>2019-12-08T10:24:31.000Z</time>
      </trkpt>
      <trkpt lat="43.64238" lon="6.65538">
        <ele>517.12</ele>
        <time>2019-12-08T10:24:32.000Z</time>
      </trkpt>
      <trkpt lat="43.64239" lon="6.65541">
        <ele>517.53</ele>
        <time>2019-12-08T10:24:33.000Z</time>
      </trkpt>
      <trkpt lat="43.64241" lon="6.65545">
        <ele>517.96</ele>
        <time>2019-12-08T10:24:34.000Z</time>
      </trkpt>
      <trkpt lat="43.64243" lon="6.65548">
        <ele>518.38</ele>
        <time>2019-12-08T10:24:35.000Z</time>
      </trkpt>
      <trkpt lat="43.64245" lon="6.65551">
        <ele>518.71</ele>
        <time>2019-12-08T10:24:36.000Z</time>
      </trkpt>
      <trkpt lat="43.64247" lon="6.65553">
        <ele>518.8</ele>
        <time>2019-12-08T10:24:37.000Z</time>
      </trkpt>
      <trkpt lat="43.6425" lon="6.65556">
        <ele>519.06</ele>
        <time>2019-12-08T10:24:38.000Z</time>
      </trkpt>
      <trkpt lat="43.64252" lon="6.65559">
        <ele>519.23</ele>
        <time>2019-12-08T10:24:39.000Z</time>
      </trkpt>
      <trkpt lat="43.64255" lon="6.65562">
        <ele>519.42</ele>
        <time>2019-12-08T10:24:40.000Z</time>
      </trkpt>
      <trkpt lat="43.64257" lon="6.65565">
        <ele>519.5</ele>
        <time>2019-12-08T10:24:41.000Z</time>
      </trkpt>
      <trkpt lat="43.64259" lon="6.65567">
        <ele>519.62</ele>
        <time>2019-12-08T10:24:42.000Z</time>
      </trkpt>
      <trkpt lat="43.64262" lon="6.6557">
        <ele>519.76</ele>
        <time>2019-12-08T10:24:43.000Z</time>
      </trkpt>
      <trkpt lat="43.64264" lon="6.65573">
        <ele>519.98</ele>
        <time>2019-12-08T10:24:44.000Z</time>
      </trkpt>
      <trkpt lat="43.64266" lon="6.65577">
        <ele>520.26</ele>
        <time>2019-12-08T10:24:45.000Z</time>
      </trkpt>
      <trkpt lat="43.64268" lon="6.6558">
        <ele>520.37</ele>
        <time>2019-12-08T10:24:46.000Z</time>
      </trkpt>
      <trkpt lat="43.6427" lon="6.65584">
        <ele>520.6</ele>
        <time>2019-12-08T10:24:47.000Z</time>
      </trkpt>
      <trkpt lat="43.64271" lon="6.65587">
        <ele>520.83</ele>
        <time>2019-12-08T10:24:48.000Z</time>
      </trkpt>
      <trkpt lat="43.64272" lon="6.65591">
        <ele>520.92</ele>
        <time>2019-12-08T10:24:49.000Z</time>
      </trkpt>
      <trkpt lat="43.64273" lon="6.65595">
        <ele>521.16</ele>
        <time>2019-12-08T10:24:50.000Z</time>
      </trkpt>
      <trkpt lat="43.64274" lon="6.65599">
        <ele>521.42</ele>
        <time>2019-12-08T10:24:51.000Z</time>
      </trkpt>
      <trkpt lat="43.64275" lon="6.65602">
        <ele>521.77</ele>
        <time>2019-12-08T10:24:52.000Z</time>
      </trkpt>
      <trkpt lat="43.64276" lon="6.65606">
        <ele>522.01</ele>
        <time>2019-12-08T10:24:53.000Z</time>
      </trkpt>
      <trkpt lat="43.64276" lon="6.6561">
        <ele>522.14</ele>
        <time>2019-12-08T10:24:54.000Z</time>
      </trkpt>
      <trkpt lat="43.64277" lon="6.65614">
        <ele>522.39</ele>
        <time>2019-12-08T10:24:55.000Z</time>
      </trkpt>
      <trkpt lat="43.64278" lon="6.65618">
        <ele>522.67</ele>
        <time>2019-12-08T10:24:56.000Z</time>
      </trkpt>
      <trkpt lat="43.64279" lon="6.65622">
        <ele>522.92</ele>
        <time>2019-12-08T10:24:57.000Z</time>
      </trkpt>
      <trkpt lat="43.6428" lon="6.65626">
        <ele>523.04</ele>
        <time>2019-12-08T10:24:58.000Z</time>
      </trkpt>
      <trkpt lat="43.64281" lon="6.6563">
        <ele>523.29</ele>
        <time>2019-12-08T10:24:59.000Z</time>
      </trkpt>
      <trkpt lat="43.64282" lon="6.65634">
        <ele>523.43</ele>
        <time>2019-12-08T10:25:00.000Z</time>
      </trkpt>
      <trkpt lat="43.64284" lon="6.65637">
        <ele>523.68</ele>
        <time>2019-12-08T10:25:01.000Z</time>
      </trkpt>
      <trkpt lat="43.64285" lon="6.65641">
        <ele>523.78</ele>
        <time>2019-12-08T10:25:02.000Z</time>
      </trkpt>
      <trkpt lat="43.64287" lon="6.65645">
        <ele>524.01</ele>
        <time>2019-12-08T10:25:03.000Z</time>
      </trkpt>
      <trkpt lat="43.64289" lon="6.65648">
        <ele>524.23</ele>
        <time>2019-12-08T10:25:04.000Z</time>
      </trkpt>
      <trkpt lat="43.6429" lon="6.65652">
        <ele>524.47</ele>
        <time>2019-12-08T10:25:05.000Z</time>
      </trkpt>
      <trkpt lat="43.64292" lon="6.65655">
        <ele>524.6</ele>
        <time>2019-12-08T10:25:06.000Z</time>
      </trkpt>
      <trkpt lat="43.64293" lon="6.65659">
        <ele>524.85</ele>
        <time>2019-12-08T10:25:07.000Z</time>
      </trkpt>
      <trkpt lat="43.64295" lon="6.65663">
        <ele>525.03</ele>
        <time>2019-12-08T10:25:08.000Z</time>
      </trkpt>
      <trkpt lat="43.64296" lon="6.65667">
        <ele>525.28</ele>
        <time>2019-12-08T10:25:09.000Z</time>
      </trkpt>
      <trkpt lat="43.64298" lon="6.6567">
        <ele>525.38</ele>
        <time>2019-12-08T10:25:10.000Z</time>
      </trkpt>
      <trkpt lat="43.64299" lon="6.65674">
        <ele>525.57</ele>
        <time>2019-12-08T10:25:11.000Z</time>
      </trkpt>
      <trkpt lat="43.643" lon="6.65678">
        <ele>525.84</ele>
        <time>2019-12-08T10:25:12.000Z</time>
      </trkpt>
      <trkpt lat="43.64302" lon="6.65682">
        <ele>526.1</ele>
        <time>2019-12-08T10:25:13.000Z</time>
      </trkpt>
      <trkpt lat="43.64303" lon="6.65685">
        <ele>526.38</ele>
        <time>2019-12-08T10:25:14.000Z</time>
      </trkpt>
      <trkpt lat="43.64304" lon="6.65689">
        <ele>526.51</ele>
        <time>2019-12-08T10:25:15.000Z</time>
      </trkpt>
      <trkpt lat="43.64305" lon="6.65693">
        <ele>526.82</ele>
        <time>2019-12-08T10:25:16.000Z</time>
      </trkpt>
      <trkpt lat="43.64305" lon="6.65697">
        <ele>527.09</ele>
        <time>2019-12-08T10:25:17.000Z</time>
      </trkpt>
      <trkpt lat="43.64306" lon="6.65701">
        <ele>527.36</ele>
        <time>2019-12-08T10:25:18.000Z</time>
      </trkpt>
      <trkpt lat="43.64306" lon="6.65705">
        <ele>527.46</ele>
        <time>2019-12-08T10:25:19.000Z</time>
      </trkpt>
      <trkpt lat="43.64306" lon="6.65709">
        <ele>527.75</ele>
        <time>2019-12-08T10:25:20.000Z</time>
      </trkpt>
      <trkpt lat="43.64306" lon="6.65714">
        <ele>528.07</ele>
        <time>2019-12-08T10:25:21.000Z</time>
      </trkpt>
      <trkpt lat="43.64307" lon="6.65718">
        <ele>528.4</ele>
        <time>2019-12-08T10:25:22.000Z</time>
      </trkpt>
      <trkpt lat="43.64307" lon="6.65722">
        <ele>528.56</ele>
        <time>2019-12-08T10:25:23.000Z</time>
      </trkpt>
      <trkpt lat="43.64308" lon="6.65726">
        <ele>528.88</ele>
        <time>2019-12-08T10:25:24.000Z</time>
      </trkpt>
      <trkpt lat="43.64309" lon="6.6573">
        <ele>529.19</ele>
        <time>2019-12-08T10:25:25.000Z</time>
      </trkpt>
      <trkpt lat="43.6431" lon="6.65734">
        <ele>529.37</ele>
        <time>2019-12-08T10:25:26.000Z</time>
      </trkpt>
      <trkpt lat="43.64311" lon="6.65738">
        <ele>529.37</ele>
        <time>2019-12-08T10:25:27.000Z</time>
      </trkpt>
      <trkpt lat="43.64313" lon="6.65741">
        <ele>529.37</ele>
        <time>2019-12-08T10:25:28.000Z</time>
      </trkpt>
      <trkpt lat="43.64315" lon="6.65744">
        <ele>529.37</ele>
        <time>2019-12-08T10:25:29.000Z</time>
      </trkpt>
      <trkpt lat="43.64317" lon="6.65747">
        <ele>529.98</ele>
        <time>2019-12-08T10:25:30.000Z</time>
      </trkpt>
      <trkpt lat="43.64319" lon="6.6575">
        <ele>530.12</ele>
        <time>2019-12-08T10:25:31.000Z</time>
      </trkpt>
      <trkpt lat="43.64322" lon="6.65753">
        <ele>530.43</ele>
        <time>2019-12-08T10:25:32.000Z</time>
      </trkpt>
      <trkpt lat="43.64324" lon="6.65755">
        <ele>530.76</ele>
        <time>2019-12-08T10:25:33.000Z</time>
      </trkpt>
      <trkpt lat="43.64327" lon="6.65757">
        <ele>530.89</ele>
        <time>2019-12-08T10:25:34.000Z</time>
      </trkpt>
      <trkpt lat="43.6433" lon="6.65759">
        <ele>530.97</ele>
        <time>2019-12-08T10:25:35.000Z</time>
      </trkpt>
      <trkpt lat="43.64333" lon="6.65761">
        <ele>531.17</ele>
        <time>2019-12-08T10:25:36.000Z</time>
      </trkpt>
      <trkpt lat="43.64336" lon="6.65763">
        <ele>531.39</ele>
        <time>2019-12-08T10:25:37.000Z</time>
      </trkpt>
      <trkpt lat="43.64338" lon="6.65765">
        <ele>531.74</ele>
        <time>2019-12-08T10:25:38.000Z</time>
      </trkpt>
      <trkpt lat="43.64341" lon="6.65767">
        <ele>531.81</ele>
        <time>2019-12-08T10:25:39.000Z</time>
      </trkpt>
      <trkpt lat="43.64343" lon="6.65769">
        <ele>532.1</ele>
        <time>2019-12-08T10:25:40.000Z</time>
      </trkpt>
      <trkpt lat="43.64346" lon="6.65772">
        <ele>532.42</ele>
        <time>2019-12-08T10:25:41.000Z</time>
      </trkpt>
      <trkpt lat="43.64348" lon="6.65775">
        <ele>532.61</ele>
        <time>2019-12-08T10:25:42.000Z</time>
      </trkpt>
      <trkpt lat="43.6435" lon="6.65778">
        <ele>532.69</ele>
        <time>2019-12-08T10:25:43.000Z</time>
      </trkpt>
      <trkpt lat="43.64352" lon="6.65782">
        <ele>533.04</ele>
        <time>2019-12-08T10:25:44.000Z</time>
      </trkpt>
      <trkpt lat="43.64354" lon="6.65785">
        <ele>533.31</ele>
        <time>2019-12-08T10:25:45.000Z</time>
      </trkpt>
      <trkpt lat="43.64356" lon="6.65788">
        <ele>533.56</ele>
        <time>2019-12-08T10:25:46.000Z</time>
      </trkpt>
      <trkpt lat="43.64357" lon="6.65791">
        <ele>533.72</ele>
        <time>2019-12-08T10:25:47.000Z</time>
      </trkpt>
      <trkpt lat="43.64359" lon="6.65795">
        <ele>533.93</ele>
        <time>2019-12-08T10:25:48.000Z</time>
      </trkpt>
      <trkpt lat="43.64361" lon="6.65798">
        <ele>534.17</ele>
        <time>2019-12-08T10:25:49.000Z</time>
      </trkpt>
      <trkpt lat="43.64362" lon="6.65801">
        <ele>534.5</ele>
        <time>2019-12-08T10:25:50.000Z</time>
      </trkpt>
      <trkpt lat="43.64364" lon="6.65804">
        <ele>534.7</ele>
        <time>2019-12-08T10:25:51.000Z</time>
      </trkpt>
      <trkpt lat="43.64366" lon="6.65808">
        <ele>535.09</ele>
        <time>2019-12-08T10:25:52.000Z</time>
      </trkpt>
      <trkpt lat="43.64367" lon="6.65811">
        <ele>535.45</ele>
        <time>2019-12-08T10:25:53.000Z</time>
      </trkpt>
      <trkpt lat="43.64369" lon="6.65814">
        <ele>535.76</ele>
        <time>2019-12-08T10:25:54.000Z</time>
      </trkpt>
      <trkpt lat="43.6437" lon="6.65817">
        <ele>535.91</ele>
        <time>2019-12-08T10:25:55.000Z</time>
      </trkpt>
      <trkpt lat="43.64372" lon="6.6582">
        <ele>536.15</ele>
        <time>2019-12-08T10:25:56.000Z</time>
      </trkpt>
      <trkpt lat="43.64374" lon="6.65823">
        <ele>536.47</ele>
        <time>2019-12-08T10:25:57.000Z</time>
      </trkpt>
      <trkpt lat="43.64376" lon="6.65826">
        <ele>536.77</ele>
        <time>2019-12-08T10:25:58.000Z</time>
      </trkpt>
      <trkpt lat="43.64378" lon="6.65828">
        <ele>537.02</ele>
        <time>2019-12-08T10:25:59.000Z</time>
      </trkpt>
      <trkpt lat="43.64381" lon="6.65831">
        <ele>537.07</ele>
        <time>2019-12-08T10:26:00.000Z</time>
      </trkpt>
      <trkpt lat="43.64383" lon="6.65834">
        <ele>537.26</ele>
        <time>2019-12-08T10:26:01.000Z</time>
      </trkpt>
      <trkpt lat="43.64385" lon="6.65836">
        <ele>537.4</ele>
        <time>2019-12-08T10:26:02.000Z</time>
      </trkpt>
      <trkpt lat="43.64388" lon="6.65838">
        <ele>537.57</ele>
        <time>2019-12-08T10:26:03.000Z</time>
      </trkpt>
      <trkpt lat="43.64391" lon="6.6584">
        <ele>537.71</ele>
        <time>2019-12-08T10:26:04.000Z</time>
      </trkpt>
      <trkpt lat="43.64393" lon="6.65843">
        <ele>538.05</ele>
        <time>2019-12-08T10:26:05.000Z</time>
      </trkpt>
      <trkpt lat="43.64396" lon="6.65845">
        <ele>538.3</ele>
        <time>2019-12-08T10:26:06.000Z</time>
      </trkpt>
      <trkpt lat="43.64399" lon="6.65846">
        <ele>538.47</ele>
        <time>2019-12-08T10:26:07.000Z</time>
      </trkpt>
      <trkpt lat="43.64401" lon="6.65848">
        <ele>538.56</ele>
        <time>2019-12-08T10:26:08.000Z</time>
      </trkpt>
      <trkpt lat="43.64404" lon="6.65849">
        <ele>538.7</ele>
        <time>2019-12-08T10:26:09.000Z</time>
      </trkpt>
      <trkpt lat="43.64407" lon="6.6585">
        <ele>538.7</ele>
        <time>2019-12-08T10:26:10.000Z</time>
      </trkpt>
      <trkpt lat="43.6441" lon="6.6585">
        <ele>538.7</ele>
        <time>2019-12-08T10:26:11.000Z</time>
      </trkpt>
      <trkpt lat="43.64413" lon="6.65848">
        <ele>538.7</ele>
        <time>2019-12-08T10:26:12.000Z</time>
      </trkpt>
      <trkpt lat="43.64415" lon="6.65846">
        <ele>538.99</ele>
        <time>2019-12-08T10:26:13.000Z</time>
      </trkpt>
      <trkpt lat="43.64417" lon="6.65843">
        <ele>539.34</ele>
        <time>2019-12-08T10:26:14.000Z</time>
      </trkpt>
      <trkpt lat="43.64418" lon="6.65839">
        <ele>539.76</ele>
        <time>2019-12-08T10:26:15.000Z</time>
      </trkpt>
      <trkpt lat="43.64417" lon="6.65835">
        <ele>539.95</ele>
        <time>2019-12-08T10:26:16.000Z</time>
      </trkpt>
      <trkpt lat="43.64416" lon="6.65831">
        <ele>540.3</ele>
        <time>2019-12-08T10:26:17.000Z</time>
      </trkpt>
      <trkpt lat="43.64415" lon="6.65827">
        <ele>540.3</ele>
        <time>2019-12-08T10:26:18.000Z</time>
      </trkpt>
      <trkpt lat="43.64413" lon="6.65824">
        <ele>540.3</ele>
        <time>2019-12-08T10:26:19.000Z</time>
      </trkpt>
      <trkpt lat="43.6441" lon="6.65822">
        <ele>540.3</ele>
        <time>2019-12-08T10:26:20.000Z</time>
      </trkpt>
      <trkpt lat="43.64407" lon="6.6582">
        <ele>540.86</ele>
        <time>2019-12-08T10:26:21.000Z</time>
      </trkpt>
      <trkpt lat="43.64405" lon="6.65817">
        <ele>541.31</ele>
        <time>2019-12-08T10:26:22.000Z</time>
      </trkpt>
      <trkpt lat="43.64402" lon="6.65815">
        <ele>541.74</ele>
        <time>2019-12-08T10:26:23.000Z</time>
      </trkpt>
      <trkpt lat="43.644" lon="6.65812">
        <ele>542.15</ele>
        <time>2019-12-08T10:26:24.000Z</time>
      </trkpt>
      <trkpt lat="43.64397" lon="6.6581">
        <ele>542.2</ele>
        <time>2019-12-08T10:26:25.000Z</time>
      </trkpt>
      <trkpt lat="43.64395" lon="6.65807">
        <ele>542.34</ele>
        <time>2019-12-08T10:26:26.000Z</time>
      </trkpt>
      <trkpt lat="43.64393" lon="6.65803">
        <ele>542.55</ele>
        <time>2019-12-08T10:26:27.000Z</time>
      </trkpt>
      <trkpt lat="43.64391" lon="6.658">
        <ele>542.65</ele>
        <time>2019-12-08T10:26:28.000Z</time>
      </trkpt>
      <trkpt lat="43.64389" lon="6.65796">
        <ele>542.85</ele>
        <time>2019-12-08T10:26:29.000Z</time>
      </trkpt>
      <trkpt lat="43.64387" lon="6.65793">
        <ele>543.09</ele>
        <time>2019-12-08T10:26:30.000Z</time>
      </trkpt>
      <trkpt lat="43.64386" lon="6.65788">
        <ele>543.35</ele>
        <time>2019-12-08T10:26:31.000Z</time>
      </trkpt>
      <trkpt lat="43.64385" lon="6.65784">
        <ele>543.61</ele>
        <time>2019-12-08T10:26:32.000Z</time>
      </trkpt>
      <trkpt lat="43.64384" lon="6.6578">
        <ele>543.61</ele>
        <time>2019-12-08T10:26:33.000Z</time>
      </trkpt>
      <trkpt lat="43.64383" lon="6.65776">
        <ele>543.83</ele>
        <time>2019-12-08T10:26:34.000Z</time>
      </trkpt>
      <trkpt lat="43.64383" lon="6.65771">
        <ele>544</ele>
        <time>2019-12-08T10:26:35.000Z</time>
      </trkpt>
      <trkpt lat="43.64382" lon="6.65767">
        <ele>544.29</ele>
        <time>2019-12-08T10:26:36.000Z</time>
      </trkpt>
      <trkpt lat="43.64382" lon="6.65763">
        <ele>544.41</ele>
        <time>2019-12-08T10:26:37.000Z</time>
      </trkpt>
      <trkpt lat="43.64382" lon="6.65759">
        <ele>544.68</ele>
        <time>2019-12-08T10:26:38.000Z</time>
      </trkpt>
      <trkpt lat="43.64382" lon="6.65755">
        <ele>544.98</ele>
        <time>2019-12-08T10:26:39.000Z</time>
      </trkpt>
      <trkpt lat="43.64381" lon="6.65751">
        <ele>545.17</ele>
        <time>2019-12-08T10:26:40.000Z</time>
      </trkpt>
      <trkpt lat="43.64381" lon="6.65746">
        <ele>545.29</ele>
        <time>2019-12-08T10:26:41.000Z</time>
      </trkpt>
      <trkpt lat="43.64381" lon="6.65742">
        <ele>545.56</ele>
        <time>2019-12-08T10:26:42.000Z</time>
      </trkpt>
      <trkpt lat="43.6438" lon="6.65738">
        <ele>545.79</ele>
        <time>2019-12-08T10:26:43.000Z</time>
      </trkpt>
      <trkpt lat="43.6438" lon="6.65734">
        <ele>546.03</ele>
        <time>2019-12-08T10:26:44.000Z</time>
      </trkpt>
      <trkpt lat="43.6438" lon="6.6573">
        <ele>546.15</ele>
        <time>2019-12-08T10:26:45.000Z</time>
      </trkpt>
      <trkpt lat="43.6438" lon="6.65726">
        <ele>546.38</ele>
        <time>2019-12-08T10:26:46.000Z</time>
      </trkpt>
      <trkpt lat="43.6438" lon="6.65722">
        <ele>546.54</ele>
        <time>2019-12-08T10:26:47.000Z</time>
      </trkpt>
      <trkpt lat="43.6438" lon="6.65718">
        <ele>546.77</ele>
        <time>2019-12-08T10:26:48.000Z</time>
      </trkpt>
      <trkpt lat="43.64379" lon="6.65714">
        <ele>546.87</ele>
        <time>2019-12-08T10:26:49.000Z</time>
      </trkpt>
      <trkpt lat="43.64378" lon="6.6571">
        <ele>547.09</ele>
        <time>2019-12-08T10:26:50.000Z</time>
      </trkpt>
      <trkpt lat="43.64377" lon="6.65706">
        <ele>547.34</ele>
        <time>2019-12-08T10:26:51.000Z</time>
      </trkpt>
      <trkpt lat="43.64375" lon="6.65703">
        <ele>547.56</ele>
        <time>2019-12-08T10:26:52.000Z</time>
      </trkpt>
      <trkpt lat="43.64373" lon="6.65699">
        <ele>547.68</ele>
        <time>2019-12-08T10:26:53.000Z</time>
      </trkpt>
      <trkpt lat="43.64371" lon="6.65696">
        <ele>547.92</ele>
        <time>2019-12-08T10:26:54.000Z</time>
      </trkpt>
      <trkpt lat="43.64369" lon="6.65693">
        <ele>548.21</ele>
        <time>2019-12-08T10:26:55.000Z</time>
      </trkpt>
      <trkpt lat="43.64367" lon="6.6569">
        <ele>548.52</ele>
        <time>2019-12-08T10:26:56.000Z</time>
      </trkpt>
      <trkpt lat="43.64365" lon="6.65687">
        <ele>548.79</ele>
        <time>2019-12-08T10:26:57.000Z</time>
      </trkpt>
      <trkpt lat="43.64363" lon="6.65684">
        <ele>548.93</ele>
        <time>2019-12-08T10:26:58.000Z</time>
      </trkpt>
      <trkpt lat="43.64362" lon="6.65681">
        <ele>549.15</ele>
        <time>2019-12-08T10:26:59.000Z</time>
      </trkpt>
      <trkpt lat="43.6436" lon="6.65677">
        <ele>549.4</ele>
        <time>2019-12-08T10:27:00.000Z</time>
      </trkpt>
      <trkpt lat="43.64359" lon="6.65673">
        <ele>549.55</ele>
        <time>2019-12-08T10:27:01.000Z</time>
      </trkpt>
      <trkpt lat="43.64358" lon="6.65669">
        <ele>549.74</ele>
        <time>2019-12-08T10:27:02.000Z</time>
      </trkpt>
      <trkpt lat="43.64357" lon="6.65665">
        <ele>549.92</ele>
        <time>2019-12-08T10:27:03.000Z</time>
      </trkpt>
      <trkpt lat="43.64357" lon="6.65661">
        <ele>549.92</ele>
        <time>2019-12-08T10:27:04.000Z</time>
      </trkpt>
      <trkpt lat="43.64357" lon="6.65656">
        <ele>549.92</ele>
        <time>2019-12-08T10:27:05.000Z</time>
      </trkpt>
      <trkpt lat="43.64357" lon="6.65652">
        <ele>549.92</ele>
        <time>2019-12-08T10:27:06.000Z</time>
      </trkpt>
      <trkpt lat="43.64357" lon="6.65648">
        <ele>550.25</ele>
        <time>2019-12-08T10:27:07.000Z</time>
      </trkpt>
      <trkpt lat="43.64358" lon="6.65644">
        <ele>550.43</ele>
        <time>2019-12-08T10:27:08.000Z</time>
      </trkpt>
      <trkpt lat="43.64358" lon="6.6564">
        <ele>550.59</ele>
        <time>2019-12-08T10:27:09.000Z</time>
      </trkpt>
      <trkpt lat="43.64359" lon="6.65637">
        <ele>551.02</ele>
        <time>2019-12-08T10:27:10.000Z</time>
      </trkpt>
      <trkpt lat="43.6436" lon="6.65633">
        <ele>551.46</ele>
        <time>2019-12-08T10:27:11.000Z</time>
      </trkpt>
      <trkpt lat="43.64361" lon="6.65629">
        <ele>551.72</ele>
        <time>2019-12-08T10:27:12.000Z</time>
      </trkpt>
      <trkpt lat="43.64362" lon="6.65625">
        <ele>551.87</ele>
        <time>2019-12-08T10:27:13.000Z</time>
      </trkpt>
      <trkpt lat="43.64363" lon="6.65622">
        <ele>551.96</ele>
        <time>2019-12-08T10:27:14.000Z</time>
      </trkpt>
      <trkpt lat="43.64363" lon="6.65618">
        <ele>552.09</ele>
        <time>2019-12-08T10:27:15.000Z</time>
      </trkpt>
      <trkpt lat="43.64365" lon="6.65614">
        <ele>552.27</ele>
        <time>2019-12-08T10:27:16.000Z</time>
      </trkpt>
      <trkpt lat="43.64366" lon="6.65611">
        <ele>552.41</ele>
        <time>2019-12-08T10:27:17.000Z</time>
      </trkpt>
      <trkpt lat="43.64367" lon="6.65607">
        <ele>552.51</ele>
        <time>2019-12-08T10:27:18.000Z</time>
      </trkpt>
      <trkpt lat="43.64368" lon="6.65603">
        <ele>552.61</ele>
        <time>2019-12-08T10:27:19.000Z</time>
      </trkpt>
      <trkpt lat="43.6437" lon="6.656">
        <ele>552.8</ele>
        <time>2019-12-08T10:27:20.000Z</time>
      </trkpt>
      <trkpt lat="43.64371" lon="6.65596">
        <ele>553.01</ele>
        <time>2019-12-08T10:27:21.000Z</time>
      </trkpt>
      <trkpt lat="43.64372" lon="6.65592">
        <ele>553.05</ele>
        <time>2019-12-08T10:27:22.000Z</time>
      </trkpt>
      <trkpt lat="43.64374" lon="6.65588">
        <ele>553.23</ele>
        <time>2019-12-08T10:27:23.000Z</time>
      </trkpt>
      <trkpt lat="43.64375" lon="6.65584">
        <ele>553.42</ele>
        <time>2019-12-08T10:27:24.000Z</time>
      </trkpt>
      <trkpt lat="43.64376" lon="6.6558">
        <ele>553.7</ele>
        <time>2019-12-08T10:27:25.000Z</time>
      </trkpt>
      <trkpt lat="43.64377" lon="6.65577">
        <ele>553.78</ele>
        <time>2019-12-08T10:27:26.000Z</time>
      </trkpt>
      <trkpt lat="43.64379" lon="6.65573">
        <ele>554.02</ele>
        <time>2019-12-08T10:27:27.000Z</time>
      </trkpt>
      <trkpt lat="43.64379" lon="6.6557">
        <ele>554.34</ele>
        <time>2019-12-08T10:27:28.000Z</time>
      </trkpt>
      <trkpt lat="43.64379" lon="6.65566">
        <ele>554.34</ele>
        <time>2019-12-08T10:27:29.000Z</time>
      </trkpt>
      <trkpt lat="43.64379" lon="6.65562">
        <ele>554.34</ele>
        <time>2019-12-08T10:27:30.000Z</time>
      </trkpt>
      <trkpt lat="43.64379" lon="6.65558">
        <ele>554.34</ele>
        <time>2019-12-08T10:27:31.000Z</time>
      </trkpt>
      <trkpt lat="43.64379" lon="6.65554">
        <ele>554.74</ele>
        <time>2019-12-08T10:27:32.000Z</time>
      </trkpt>
      <trkpt lat="43.64378" lon="6.6555">
        <ele>554.91</ele>
        <time>2019-12-08T10:27:33.000Z</time>
      </trkpt>
      <trkpt lat="43.64377" lon="6.65546">
        <ele>555.47</ele>
        <time>2019-12-08T10:27:34.000Z</time>
      </trkpt>
      <trkpt lat="43.64376" lon="6.65542">
        <ele>555.72</ele>
        <time>2019-12-08T10:27:35.000Z</time>
      </trkpt>
      <trkpt lat="43.64375" lon="6.65538">
        <ele>556.08</ele>
        <time>2019-12-08T10:27:36.000Z</time>
      </trkpt>
      <trkpt lat="43.64374" lon="6.65534">
        <ele>556.35</ele>
        <time>2019-12-08T10:27:37.000Z</time>
      </trkpt>
      <trkpt lat="43.64373" lon="6.65529">
        <ele>556.42</ele>
        <time>2019-12-08T10:27:38.000Z</time>
      </trkpt>
      <trkpt lat="43.64372" lon="6.65525">
        <ele>556.54</ele>
        <time>2019-12-08T10:27:39.000Z</time>
      </trkpt>
      <trkpt lat="43.64371" lon="6.65521">
        <ele>556.67</ele>
        <time>2019-12-08T10:27:40.000Z</time>
      </trkpt>
      <trkpt lat="43.64371" lon="6.65516">
        <ele>556.85</ele>
        <time>2019-12-08T10:27:41.000Z</time>
      </trkpt>
      <trkpt lat="43.64371" lon="6.65512">
        <ele>557.13</ele>
        <time>2019-12-08T10:27:42.000Z</time>
      </trkpt>
      <trkpt lat="43.6437" lon="6.65508">
        <ele>557.29</ele>
        <time>2019-12-08T10:27:43.000Z</time>
      </trkpt>
      <trkpt lat="43.6437" lon="6.65504">
        <ele>557.62</ele>
        <time>2019-12-08T10:27:44.000Z</time>
      </trkpt>
      <trkpt lat="43.6437" lon="6.655">
        <ele>557.91</ele>
        <time>2019-12-08T10:27:45.000Z</time>
      </trkpt>
      <trkpt lat="43.6437" lon="6.65495">
        <ele>558.18</ele>
        <time>2019-12-08T10:27:46.000Z</time>
      </trkpt>
      <trkpt lat="43.6437" lon="6.65491">
        <ele>558.32</ele>
        <time>2019-12-08T10:27:47.000Z</time>
      </trkpt>
      <trkpt lat="43.64371" lon="6.65487">
        <ele>558.58</ele>
        <time>2019-12-08T10:27:48.000Z</time>
      </trkpt>
      <trkpt lat="43.64371" lon="6.65483">
        <ele>558.58</ele>
        <time>2019-12-08T10:27:49.000Z</time>
      </trkpt>
      <trkpt lat="43.64372" lon="6.65479">
        <ele>559</ele>
        <time>2019-12-08T10:27:50.000Z</time>
      </trkpt>
      <trkpt lat="43.64373" lon="6.65475">
        <ele>559.13</ele>
        <time>2019-12-08T10:27:51.000Z</time>
      </trkpt>
      <trkpt lat="43.64373" lon="6.65471">
        <ele>559.34</ele>
        <time>2019-12-08T10:27:52.000Z</time>
      </trkpt>
      <trkpt lat="43.64374" lon="6.65466">
        <ele>559.54</ele>
        <time>2019-12-08T10:27:53.000Z</time>
      </trkpt>
      <trkpt lat="43.64375" lon="6.65463">
        <ele>559.78</ele>
        <time>2019-12-08T10:27:54.000Z</time>
      </trkpt>
      <trkpt lat="43.64376" lon="6.65459">
        <ele>559.92</ele>
        <time>2019-12-08T10:27:55.000Z</time>
      </trkpt>
      <trkpt lat="43.64377" lon="6.65455">
        <ele>560.19</ele>
        <time>2019-12-08T10:27:56.000Z</time>
      </trkpt>
      <trkpt lat="43.64377" lon="6.65451">
        <ele>560.48</ele>
        <time>2019-12-08T10:27:57.000Z</time>
      </trkpt>
      <trkpt lat="43.64378" lon="6.65447">
        <ele>560.73</ele>
        <time>2019-12-08T10:27:58.000Z</time>
      </trkpt>
      <trkpt lat="43.64378" lon="6.65443">
        <ele>560.85</ele>
        <time>2019-12-08T10:27:59.000Z</time>
      </trkpt>
      <trkpt lat="43.64379" lon="6.65439">
        <ele>561.04</ele>
        <time>2019-12-08T10:28:00.000Z</time>
      </trkpt>
      <trkpt lat="43.6438" lon="6.65435">
        <ele>561.24</ele>
        <time>2019-12-08T10:28:01.000Z</time>
      </trkpt>
      <trkpt lat="43.64381" lon="6.65431">
        <ele>561.43</ele>
        <time>2019-12-08T10:28:02.000Z</time>
      </trkpt>
      <trkpt lat="43.64382" lon="6.65427">
        <ele>561.62</ele>
        <time>2019-12-08T10:28:03.000Z</time>
      </trkpt>
      <trkpt lat="43.64383" lon="6.65423">
        <ele>561.72</ele>
        <time>2019-12-08T10:28:04.000Z</time>
      </trkpt>
      <trkpt lat="43.64384" lon="6.65419">
        <ele>561.86</ele>
        <time>2019-12-08T10:28:05.000Z</time>
      </trkpt>
      <trkpt lat="43.64385" lon="6.65415">
        <ele>562.04</ele>
        <time>2019-12-08T10:28:06.000Z</time>
      </trkpt>
      <trkpt lat="43.64386" lon="6.65411">
        <ele>562.13</ele>
        <time>2019-12-08T10:28:07.000Z</time>
      </trkpt>
      <trkpt lat="43.64386" lon="6.65406">
        <ele>562.37</ele>
        <time>2019-12-08T10:28:08.000Z</time>
      </trkpt>
      <trkpt lat="43.64387" lon="6.65402">
        <ele>562.64</ele>
        <time>2019-12-08T10:28:09.000Z</time>
      </trkpt>
      <trkpt lat="43.64388" lon="6.65398">
        <ele>562.93</ele>
        <time>2019-12-08T10:28:10.000Z</time>
      </trkpt>
      <trkpt lat="43.64389" lon="6.65394">
        <ele>563.17</ele>
        <time>2019-12-08T10:28:11.000Z</time>
      </trkpt>
      <trkpt lat="43.6439" lon="6.6539">
        <ele>563.26</ele>
        <time>2019-12-08T10:28:12.000Z</time>
      </trkpt>
      <trkpt lat="43.64391" lon="6.65386">
        <ele>563.47</ele>
        <time>2019-12-08T10:28:13.000Z</time>
      </trkpt>
      <trkpt lat="43.64392" lon="6.65382">
        <ele>563.63</ele>
        <time>2019-12-08T10:28:14.000Z</time>
      </trkpt>
      <trkpt lat="43.64394" lon="6.65378">
        <ele>563.82</ele>
        <time>2019-12-08T10:28:15.000Z</time>
      </trkpt>
      <trkpt lat="43.64395" lon="6.65375">
        <ele>563.93</ele>
        <time>2019-12-08T10:28:16.000Z</time>
      </trkpt>
      <trkpt lat="43.64396" lon="6.65371">
        <ele>564.15</ele>
        <time>2019-12-08T10:28:17.000Z</time>
      </trkpt>
      <trkpt lat="43.64398" lon="6.65367">
        <ele>564.43</ele>
        <time>2019-12-08T10:28:18.000Z</time>
      </trkpt>
      <trkpt lat="43.64399" lon="6.65363">
        <ele>564.72</ele>
        <time>2019-12-08T10:28:19.000Z</time>
      </trkpt>
      <trkpt lat="43.64401" lon="6.6536">
        <ele>564.83</ele>
        <time>2019-12-08T10:28:20.000Z</time>
      </trkpt>
      <trkpt lat="43.64402" lon="6.65356">
        <ele>565.01</ele>
        <time>2019-12-08T10:28:21.000Z</time>
      </trkpt>
      <trkpt lat="43.64403" lon="6.65353">
        <ele>565.29</ele>
        <time>2019-12-08T10:28:22.000Z</time>
      </trkpt>
      <trkpt lat="43.64405" lon="6.65349">
        <ele>565.48</ele>
        <time>2019-12-08T10:28:23.000Z</time>
      </trkpt>
      <trkpt lat="43.64406" lon="6.65345">
        <ele>565.57</ele>
        <time>2019-12-08T10:28:24.000Z</time>
      </trkpt>
      <trkpt lat="43.64407" lon="6.65342">
        <ele>565.91</ele>
        <time>2019-12-08T10:28:25.000Z</time>
      </trkpt>
      <trkpt lat="43.64409" lon="6.65338">
        <ele>566.22</ele>
        <time>2019-12-08T10:28:26.000Z</time>
      </trkpt>
      <trkpt lat="43.6441" lon="6.65334">
        <ele>566.46</ele>
        <time>2019-12-08T10:28:27.000Z</time>
      </trkpt>
      <trkpt lat="43.64411" lon="6.65331">
        <ele>566.57</ele>
        <time>2019-12-08T10:28:28.000Z</time>
      </trkpt>
      <trkpt lat="43.64413" lon="6.65327">
        <ele>566.83</ele>
        <time>2019-12-08T10:28:29.000Z</time>
      </trkpt>
      <trkpt lat="43.64414" lon="6.65324">
        <ele>567</ele>
        <time>2019-12-08T10:28:30.000Z</time>
      </trkpt>
      <trkpt lat="43.64416" lon="6.6532">
        <ele>567.18</ele>
        <time>2019-12-08T10:28:31.000Z</time>
      </trkpt>
      <trkpt lat="43.64417" lon="6.65317">
        <ele>567.26</ele>
        <time>2019-12-08T10:28:32.000Z</time>
      </trkpt>
      <trkpt lat="43.64419" lon="6.65314">
        <ele>567.47</ele>
        <time>2019-12-08T10:28:33.000Z</time>
      </trkpt>
      <trkpt lat="43.64421" lon="6.65311">
        <ele>567.66</ele>
        <time>2019-12-08T10:28:34.000Z</time>
      </trkpt>
      <trkpt lat="43.64423" lon="6.65307">
        <ele>567.86</ele>
        <time>2019-12-08T10:28:35.000Z</time>
      </trkpt>
      <trkpt lat="43.64425" lon="6.65304">
        <ele>567.99</ele>
        <time>2019-12-08T10:28:36.000Z</time>
      </trkpt>
      <trkpt lat="43.64427" lon="6.65301">
        <ele>568.33</ele>
        <time>2019-12-08T10:28:37.000Z</time>
      </trkpt>
      <trkpt lat="43.64429" lon="6.65298">
        <ele>568.59</ele>
        <time>2019-12-08T10:28:38.000Z</time>
      </trkpt>
      <trkpt lat="43.64432" lon="6.65296">
        <ele>568.82</ele>
        <time>2019-12-08T10:28:39.000Z</time>
      </trkpt>
      <trkpt lat="43.64434" lon="6.65293">
        <ele>568.89</ele>
        <time>2019-12-08T10:28:40.000Z</time>
      </trkpt>
      <trkpt lat="43.64436" lon="6.65291">
        <ele>569.07</ele>
        <time>2019-12-08T10:28:41.000Z</time>
      </trkpt>
      <trkpt lat="43.64439" lon="6.65288">
        <ele>569.16</ele>
        <time>2019-12-08T10:28:42.000Z</time>
      </trkpt>
      <trkpt lat="43.64441" lon="6.65285">
        <ele>569.36</ele>
        <time>2019-12-08T10:28:43.000Z</time>
      </trkpt>
      <trkpt lat="43.64443" lon="6.65282">
        <ele>569.63</ele>
        <time>2019-12-08T10:28:44.000Z</time>
      </trkpt>
      <trkpt lat="43.64445" lon="6.6528">
        <ele>569.73</ele>
        <time>2019-12-08T10:28:45.000Z</time>
      </trkpt>
      <trkpt lat="43.64448" lon="6.65277">
        <ele>570</ele>
        <time>2019-12-08T10:28:46.000Z</time>
      </trkpt>
      <trkpt lat="43.6445" lon="6.65275">
        <ele>570.29</ele>
        <time>2019-12-08T10:28:47.000Z</time>
      </trkpt>
      <trkpt lat="43.64453" lon="6.65272">
        <ele>570.51</ele>
        <time>2019-12-08T10:28:48.000Z</time>
      </trkpt>
      <trkpt lat="43.64455" lon="6.6527">
        <ele>570.6</ele>
        <time>2019-12-08T10:28:49.000Z</time>
      </trkpt>
      <trkpt lat="43.64458" lon="6.65268">
        <ele>570.9</ele>
        <time>2019-12-08T10:28:50.000Z</time>
      </trkpt>
      <trkpt lat="43.64461" lon="6.65266">
        <ele>571.13</ele>
        <time>2019-12-08T10:28:51.000Z</time>
      </trkpt>
      <trkpt lat="43.64463" lon="6.65264">
        <ele>571.39</ele>
        <time>2019-12-08T10:28:52.000Z</time>
      </trkpt>
      <trkpt lat="43.64466" lon="6.65263">
        <ele>571.54</ele>
        <time>2019-12-08T10:28:53.000Z</time>
      </trkpt>
      <trkpt lat="43.64469" lon="6.65261">
        <ele>571.88</ele>
        <time>2019-12-08T10:28:54.000Z</time>
      </trkpt>
      <trkpt lat="43.64471" lon="6.6526">
        <ele>572.15</ele>
        <time>2019-12-08T10:28:55.000Z</time>
      </trkpt>
      <trkpt lat="43.64474" lon="6.65258">
        <ele>572.52</ele>
        <time>2019-12-08T10:28:56.000Z</time>
      </trkpt>
      <trkpt lat="43.64477" lon="6.65257">
        <ele>572.68</ele>
        <time>2019-12-08T10:28:57.000Z</time>
      </trkpt>
      <trkpt lat="43.6448" lon="6.65255">
        <ele>573.01</ele>
        <time>2019-12-08T10:28:58.000Z</time>
      </trkpt>
      <trkpt lat="43.64482" lon="6.65254">
        <ele>573.28</ele>
        <time>2019-12-08T10:28:59.000Z</time>
      </trkpt>
      <trkpt lat="43.64485" lon="6.65252">
        <ele>573.55</ele>
        <time>2019-12-08T10:29:00.000Z</time>
      </trkpt>
      <trkpt lat="43.64488" lon="6.6525">
        <ele>573.67</ele>
        <time>2019-12-08T10:29:01.000Z</time>
      </trkpt>
      <trkpt lat="43.64491" lon="6.65249">
        <ele>573.87</ele>
        <time>2019-12-08T10:29:02.000Z</time>
      </trkpt>
      <trkpt lat="43.64493" lon="6.65247">
        <ele>574.12</ele>
        <time>2019-12-08T10:29:03.000Z</time>
      </trkpt>
      <trkpt lat="43.64496" lon="6.65246">
        <ele>574.39</ele>
        <time>2019-12-08T10:29:04.000Z</time>
      </trkpt>
      <trkpt lat="43.64499" lon="6.65244">
        <ele>574.52</ele>
        <time>2019-12-08T10:29:05.000Z</time>
      </trkpt>
      <trkpt lat="43.64502" lon="6.65242">
        <ele>574.76</ele>
        <time>2019-12-08T10:29:06.000Z</time>
      </trkpt>
      <trkpt lat="43.64504" lon="6.6524">
        <ele>574.92</ele>
        <time>2019-12-08T10:29:07.000Z</time>
      </trkpt>
      <trkpt lat="43.64507" lon="6.65237">
        <ele>574.98</ele>
        <time>2019-12-08T10:29:08.000Z</time>
      </trkpt>
      <trkpt lat="43.6451" lon="6.65235">
        <ele>574.98</ele>
        <time>2019-12-08T10:29:09.000Z</time>
      </trkpt>
      <trkpt lat="43.64512" lon="6.65233">
        <ele>575.11</ele>
        <time>2019-12-08T10:29:10.000Z</time>
      </trkpt>
      <trkpt lat="43.64515" lon="6.65231">
        <ele>575.39</ele>
        <time>2019-12-08T10:29:11.000Z</time>
      </trkpt>
      <trkpt lat="43.64517" lon="6.65228">
        <ele>575.64</ele>
        <time>2019-12-08T10:29:12.000Z</time>
      </trkpt>
      <trkpt lat="43.6452" lon="6.65226">
        <ele>575.78</ele>
        <time>2019-12-08T10:29:13.000Z</time>
      </trkpt>
      <trkpt lat="43.64522" lon="6.65224">
        <ele>576.09</ele>
        <time>2019-12-08T10:29:14.000Z</time>
      </trkpt>
      <trkpt lat="43.64525" lon="6.65222">
        <ele>576.29</ele>
        <time>2019-12-08T10:29:15.000Z</time>
      </trkpt>
      <trkpt lat="43.64528" lon="6.65221">
        <ele>576.55</ele>
        <time>2019-12-08T10:29:16.000Z</time>
      </trkpt>
      <trkpt lat="43.64531" lon="6.65219">
        <ele>576.7</ele>
        <time>2019-12-08T10:29:17.000Z</time>
      </trkpt>
      <trkpt lat="43.64534" lon="6.65219">
        <ele>577.08</ele>
        <time>2019-12-08T10:29:18.000Z</time>
      </trkpt>
      <trkpt lat="43.64536" lon="6.6522">
        <ele>577.32</ele>
        <time>2019-12-08T10:29:19.000Z</time>
      </trkpt>
      <trkpt lat="43.64538" lon="6.65223">
        <ele>577.44</ele>
        <time>2019-12-08T10:29:20.000Z</time>
      </trkpt>
      <trkpt lat="43.64539" lon="6.65226">
        <ele>577.99</ele>
        <time>2019-12-08T10:29:21.000Z</time>
      </trkpt>
      <trkpt lat="43.64539" lon="6.6523">
        <ele>578.22</ele>
        <time>2019-12-08T10:29:22.000Z</time>
      </trkpt>
      <trkpt lat="43.64538" lon="6.65233">
        <ele>578.22</ele>
        <time>2019-12-08T10:29:23.000Z</time>
      </trkpt>
      <trkpt lat="43.64536" lon="6.65237">
        <ele>579.03</ele>
        <time>2019-12-08T10:29:24.000Z</time>
      </trkpt>
      <trkpt lat="43.64534" lon="6.65239">
        <ele>579.57</ele>
        <time>2019-12-08T10:29:25.000Z</time>
      </trkpt>
      <trkpt lat="43.64531" lon="6.65242">
        <ele>579.75</ele>
        <time>2019-12-08T10:29:26.000Z</time>
      </trkpt>
      <trkpt lat="43.64529" lon="6.65244">
        <ele>580.07</ele>
        <time>2019-12-08T10:29:27.000Z</time>
      </trkpt>
      <trkpt lat="43.64526" lon="6.65247">
        <ele>580.29</ele>
        <time>2019-12-08T10:29:28.000Z</time>
      </trkpt>
      <trkpt lat="43.64524" lon="6.65249">
        <ele>580.44</ele>
        <time>2019-12-08T10:29:29.000Z</time>
      </trkpt>
      <trkpt lat="43.64522" lon="6.65252">
        <ele>580.52</ele>
        <time>2019-12-08T10:29:30.000Z</time>
      </trkpt>
      <trkpt lat="43.64519" lon="6.65255">
        <ele>580.7</ele>
        <time>2019-12-08T10:29:31.000Z</time>
      </trkpt>
      <trkpt lat="43.64517" lon="6.65258">
        <ele>580.87</ele>
        <time>2019-12-08T10:29:32.000Z</time>
      </trkpt>
      <trkpt lat="43.64515" lon="6.65261">
        <ele>581.04</ele>
        <time>2019-12-08T10:29:33.000Z</time>
      </trkpt>
      <trkpt lat="43.64512" lon="6.65264">
        <ele>581.13</ele>
        <time>2019-12-08T10:29:34.000Z</time>
      </trkpt>
      <trkpt lat="43.6451" lon="6.65267">
        <ele>581.35</ele>
        <time>2019-12-08T10:29:35.000Z</time>
      </trkpt>
      <trkpt lat="43.64508" lon="6.6527">
        <ele>581.56</ele>
        <time>2019-12-08T10:29:36.000Z</time>
      </trkpt>
      <trkpt lat="43.64505" lon="6.65273">
        <ele>581.75</ele>
        <time>2019-12-08T10:29:37.000Z</time>
      </trkpt>
      <trkpt lat="43.64503" lon="6.65277">
        <ele>581.85</ele>
        <time>2019-12-08T10:29:38.000Z</time>
      </trkpt>
      <trkpt lat="43.64501" lon="6.6528">
        <ele>581.99</ele>
        <time>2019-12-08T10:29:39.000Z</time>
      </trkpt>
      <trkpt lat="43.64499" lon="6.65283">
        <ele>582.15</ele>
        <time>2019-12-08T10:29:40.000Z</time>
      </trkpt>
      <trkpt lat="43.64497" lon="6.65285">
        <ele>582.34</ele>
        <time>2019-12-08T10:29:41.000Z</time>
      </trkpt>
      <trkpt lat="43.64494" lon="6.65288">
        <ele>582.66</ele>
        <time>2019-12-08T10:29:42.000Z</time>
      </trkpt>
      <trkpt lat="43.64492" lon="6.65291">
        <ele>582.8</ele>
        <time>2019-12-08T10:29:43.000Z</time>
      </trkpt>
      <trkpt lat="43.6449" lon="6.65294">
        <ele>583.07</ele>
        <time>2019-12-08T10:29:44.000Z</time>
      </trkpt>
      <trkpt lat="43.64488" lon="6.65296">
        <ele>583.43</ele>
        <time>2019-12-08T10:29:45.000Z</time>
      </trkpt>
      <trkpt lat="43.64486" lon="6.65299">
        <ele>583.61</ele>
        <time>2019-12-08T10:29:46.000Z</time>
      </trkpt>
      <trkpt lat="43.64484" lon="6.65302">
        <ele>583.85</ele>
        <time>2019-12-08T10:29:47.000Z</time>
      </trkpt>
      <trkpt lat="43.64482" lon="6.65305">
        <ele>584.17</ele>
        <time>2019-12-08T10:29:48.000Z</time>
      </trkpt>
      <trkpt lat="43.6448" lon="6.65308">
        <ele>584.53</ele>
        <time>2019-12-08T10:29:49.000Z</time>
      </trkpt>
      <trkpt lat="43.64478" lon="6.65311">
        <ele>584.77</ele>
        <time>2019-12-08T10:29:50.000Z</time>
      </trkpt>
      <trkpt lat="43.64476" lon="6.65314">
        <ele>584.88</ele>
        <time>2019-12-08T10:29:51.000Z</time>
      </trkpt>
      <trkpt lat="43.64474" lon="6.65317">
        <ele>585.1</ele>
        <time>2019-12-08T10:29:52.000Z</time>
      </trkpt>
      <trkpt lat="43.64472" lon="6.65319">
        <ele>585.31</ele>
        <time>2019-12-08T10:29:53.000Z</time>
      </trkpt>
      <trkpt lat="43.6447" lon="6.65322">
        <ele>585.5</ele>
        <time>2019-12-08T10:29:54.000Z</time>
      </trkpt>
      <trkpt lat="43.64468" lon="6.65325">
        <ele>585.61</ele>
        <time>2019-12-08T10:29:55.000Z</time>
      </trkpt>
      <trkpt lat="43.64466" lon="6.65328">
        <ele>585.75</ele>
        <time>2019-12-08T10:29:56.000Z</time>
      </trkpt>
      <trkpt lat="43.64464" lon="6.65332">
        <ele>585.91</ele>
        <time>2019-12-08T10:29:57.000Z</time>
      </trkpt>
      <trkpt lat="43.64462" lon="6.65335">
        <ele>586.04</ele>
        <time>2019-12-08T10:29:58.000Z</time>
      </trkpt>
      <trkpt lat="43.6446" lon="6.65339">
        <ele>586.11</ele>
        <time>2019-12-08T10:29:59.000Z</time>
      </trkpt>
      <trkpt lat="43.64458" lon="6.65342">
        <ele>586.24</ele>
        <time>2019-12-08T10:30:00.000Z</time>
      </trkpt>
      <trkpt lat="43.64457" lon="6.65346">
        <ele>586.49</ele>
        <time>2019-12-08T10:30:01.000Z</time>
      </trkpt>
      <trkpt lat="43.64455" lon="6.6535">
        <ele>586.75</ele>
        <time>2019-12-08T10:30:02.000Z</time>
      </trkpt>
      <trkpt lat="43.64455" lon="6.65354">
        <ele>586.88</ele>
        <time>2019-12-08T10:30:03.000Z</time>
      </trkpt>
      <trkpt lat="43.64454" lon="6.65358">
        <ele>587.18</ele>
        <time>2019-12-08T10:30:04.000Z</time>
      </trkpt>
      <trkpt lat="43.64453" lon="6.65362">
        <ele>587.42</ele>
        <time>2019-12-08T10:30:05.000Z</time>
      </trkpt>
      <trkpt lat="43.64453" lon="6.65366">
        <ele>587.67</ele>
        <time>2019-12-08T10:30:06.000Z</time>
      </trkpt>
      <trkpt lat="43.64453" lon="6.6537">
        <ele>587.76</ele>
        <time>2019-12-08T10:30:07.000Z</time>
      </trkpt>
      <trkpt lat="43.64453" lon="6.65374">
        <ele>587.99</ele>
        <time>2019-12-08T10:30:08.000Z</time>
      </trkpt>
      <trkpt lat="43.64454" lon="6.65378">
        <ele>588.29</ele>
        <time>2019-12-08T10:30:09.000Z</time>
      </trkpt>
      <trkpt lat="43.64455" lon="6.65382">
        <ele>588.59</ele>
        <time>2019-12-08T10:30:10.000Z</time>
      </trkpt>
      <trkpt lat="43.64455" lon="6.65386">
        <ele>588.75</ele>
        <time>2019-12-08T10:30:11.000Z</time>
      </trkpt>
      <trkpt lat="43.64456" lon="6.65389">
        <ele>589.05</ele>
        <time>2019-12-08T10:30:12.000Z</time>
      </trkpt>
      <trkpt lat="43.64458" lon="6.65393">
        <ele>589.26</ele>
        <time>2019-12-08T10:30:13.000Z</time>
      </trkpt>
      <trkpt lat="43.64459" lon="6.65397">
        <ele>589.45</ele>
        <time>2019-12-08T10:30:14.000Z</time>
      </trkpt>
      <trkpt lat="43.6446" lon="6.65401">
        <ele>589.55</ele>
        <time>2019-12-08T10:30:15.000Z</time>
      </trkpt>
      <trkpt lat="43.64461" lon="6.65405">
        <ele>589.75</ele>
        <time>2019-12-08T10:30:16.000Z</time>
      </trkpt>
      <trkpt lat="43.64462" lon="6.65409">
        <ele>589.91</ele>
        <time>2019-12-08T10:30:17.000Z</time>
      </trkpt>
      <trkpt lat="43.64463" lon="6.65413">
        <ele>590.05</ele>
        <time>2019-12-08T10:30:18.000Z</time>
      </trkpt>
      <trkpt lat="43.64464" lon="6.65417">
        <ele>590.08</ele>
        <time>2019-12-08T10:30:19.000Z</time>
      </trkpt>
      <trkpt lat="43.64465" lon="6.6542">
        <ele>590.09</ele>
        <time>2019-12-08T10:30:20.000Z</time>
      </trkpt>
      <trkpt lat="43.64466" lon="6.65424">
        <ele>590.09</ele>
        <time>2019-12-08T10:30:21.000Z</time>
      </trkpt>
      <trkpt lat="43.64467" lon="6.65428">
        <ele>590.09</ele>
        <time>2019-12-08T10:30:22.000Z</time>
      </trkpt>
      <trkpt lat="43.64468" lon="6.65432">
        <ele>590.09</ele>
        <time>2019-12-08T10:30:23.000Z</time>
      </trkpt>
      <trkpt lat="43.64469" lon="6.65435">
        <ele>590.09</ele>
        <time>2019-12-08T10:30:24.000Z</time>
      </trkpt>
      <trkpt lat="43.64471" lon="6.65439">
        <ele>590.08</ele>
        <time>2019-12-08T10:30:25.000Z</time>
      </trkpt>
      <trkpt lat="43.64472" lon="6.65443">
        <ele>590.08</ele>
        <time>2019-12-08T10:30:26.000Z</time>
      </trkpt>
      <trkpt lat="43.64473" lon="6.65447">
        <ele>590.08</ele>
        <time>2019-12-08T10:30:27.000Z</time>
      </trkpt>
      <trkpt lat="43.64474" lon="6.65452">
        <ele>590.08</ele>
        <time>2019-12-08T10:30:28.000Z</time>
      </trkpt>
      <trkpt lat="43.64475" lon="6.65456">
        <ele>590.27</ele>
        <time>2019-12-08T10:30:29.000Z</time>
      </trkpt>
      <trkpt lat="43.64477" lon="6.6546">
        <ele>590.82</ele>
        <time>2019-12-08T10:30:30.000Z</time>
      </trkpt>
      <trkpt lat="43.64478" lon="6.65464">
        <ele>591.16</ele>
        <time>2019-12-08T10:30:31.000Z</time>
      </trkpt>
      <trkpt lat="43.6448" lon="6.65467">
        <ele>591.82</ele>
        <time>2019-12-08T10:30:32.000Z</time>
      </trkpt>
      <trkpt lat="43.64481" lon="6.65471">
        <ele>592.51</ele>
        <time>2019-12-08T10:30:33.000Z</time>
      </trkpt>
      <trkpt lat="43.64482" lon="6.65475">
        <ele>592.77</ele>
        <time>2019-12-08T10:30:34.000Z</time>
      </trkpt>
      <trkpt lat="43.64484" lon="6.65478">
        <ele>592.92</ele>
        <time>2019-12-08T10:30:35.000Z</time>
      </trkpt>
      <trkpt lat="43.64485" lon="6.65482">
        <ele>592.99</ele>
        <time>2019-12-08T10:30:36.000Z</time>
      </trkpt>
      <trkpt lat="43.64487" lon="6.65485">
        <ele>593.21</ele>
        <time>2019-12-08T10:30:37.000Z</time>
      </trkpt>
      <trkpt lat="43.64488" lon="6.65489">
        <ele>593.43</ele>
        <time>2019-12-08T10:30:38.000Z</time>
      </trkpt>
      <trkpt lat="43.6449" lon="6.65493">
        <ele>593.64</ele>
        <time>2019-12-08T10:30:39.000Z</time>
      </trkpt>
      <trkpt lat="43.64492" lon="6.65496">
        <ele>593.78</ele>
        <time>2019-12-08T10:30:40.000Z</time>
      </trkpt>
      <trkpt lat="43.64493" lon="6.655">
        <ele>594.02</ele>
        <time>2019-12-08T10:30:41.000Z</time>
      </trkpt>
      <trkpt lat="43.64495" lon="6.65503">
        <ele>594.22</ele>
        <time>2019-12-08T10:30:42.000Z</time>
      </trkpt>
      <trkpt lat="43.64497" lon="6.65507">
        <ele>594.35</ele>
        <time>2019-12-08T10:30:43.000Z</time>
      </trkpt>
      <trkpt lat="43.64498" lon="6.6551">
        <ele>594.46</ele>
        <time>2019-12-08T10:30:44.000Z</time>
      </trkpt>
      <trkpt lat="43.645" lon="6.65514">
        <ele>594.65</ele>
        <time>2019-12-08T10:30:45.000Z</time>
      </trkpt>
      <trkpt lat="43.64502" lon="6.65517">
        <ele>594.92</ele>
        <time>2019-12-08T10:30:46.000Z</time>
      </trkpt>
      <trkpt lat="43.64504" lon="6.6552">
        <ele>595.26</ele>
        <time>2019-12-08T10:30:47.000Z</time>
      </trkpt>
      <trkpt lat="43.64505" lon="6.65524">
        <ele>595.39</ele>
        <time>2019-12-08T10:30:48.000Z</time>
      </trkpt>
      <trkpt lat="43.64507" lon="6.65527">
        <ele>595.63</ele>
        <time>2019-12-08T10:30:49.000Z</time>
      </trkpt>
      <trkpt lat="43.64509" lon="6.6553">
        <ele>595.84</ele>
        <time>2019-12-08T10:30:50.000Z</time>
      </trkpt>
      <trkpt lat="43.64511" lon="6.65534">
        <ele>596.09</ele>
        <time>2019-12-08T10:30:51.000Z</time>
      </trkpt>
      <trkpt lat="43.64512" lon="6.65537">
        <ele>596.23</ele>
        <time>2019-12-08T10:30:52.000Z</time>
      </trkpt>
      <trkpt lat="43.64514" lon="6.6554">
        <ele>596.54</ele>
        <time>2019-12-08T10:30:53.000Z</time>
      </trkpt>
      <trkpt lat="43.64516" lon="6.65544">
        <ele>596.84</ele>
        <time>2019-12-08T10:30:54.000Z</time>
      </trkpt>
      <trkpt lat="43.64518" lon="6.65547">
        <ele>597.14</ele>
        <time>2019-12-08T10:30:55.000Z</time>
      </trkpt>
      <trkpt lat="43.64519" lon="6.6555">
        <ele>597.39</ele>
        <time>2019-12-08T10:30:56.000Z</time>
      </trkpt>
      <trkpt lat="43.64521" lon="6.65553">
        <ele>597.52</ele>
        <time>2019-12-08T10:30:57.000Z</time>
      </trkpt>
      <trkpt lat="43.64523" lon="6.65556">
        <ele>597.85</ele>
        <time>2019-12-08T10:30:58.000Z</time>
      </trkpt>
      <trkpt lat="43.64525" lon="6.65559">
        <ele>598.16</ele>
        <time>2019-12-08T10:30:59.000Z</time>
      </trkpt>
      <trkpt lat="43.64527" lon="6.65562">
        <ele>598.41</ele>
        <time>2019-12-08T10:31:00.000Z</time>
      </trkpt>
      <trkpt lat="43.64529" lon="6.65565">
        <ele>598.53</ele>
        <time>2019-12-08T10:31:01.000Z</time>
      </trkpt>
      <trkpt lat="43.64531" lon="6.65567">
        <ele>598.78</ele>
        <time>2019-12-08T10:31:02.000Z</time>
      </trkpt>
      <trkpt lat="43.64533" lon="6.6557">
        <ele>599</ele>
        <time>2019-12-08T10:31:03.000Z</time>
      </trkpt>
      <trkpt lat="43.64536" lon="6.65572">
        <ele>599.2</ele>
        <time>2019-12-08T10:31:04.000Z</time>
      </trkpt>
      <trkpt lat="43.64538" lon="6.65574">
        <ele>599.29</ele>
        <time>2019-12-08T10:31:05.000Z</time>
      </trkpt>
      <trkpt lat="43.64541" lon="6.65577">
        <ele>599.5</ele>
        <time>2019-12-08T10:31:06.000Z</time>
      </trkpt>
      <trkpt lat="43.64543" lon="6.65579">
        <ele>599.65</ele>
        <time>2019-12-08T10:31:07.000Z</time>
      </trkpt>
      <trkpt lat="43.64546" lon="6.65581">
        <ele>599.78</ele>
        <time>2019-12-08T10:31:08.000Z</time>
      </trkpt>
      <trkpt lat="43.64549" lon="6.65583">
        <ele>599.85</ele>
        <time>2019-12-08T10:31:09.000Z</time>
      </trkpt>
      <trkpt lat="43.64551" lon="6.65585">
        <ele>600.06</ele>
        <time>2019-12-08T10:31:10.000Z</time>
      </trkpt>
      <trkpt lat="43.64554" lon="6.65587">
        <ele>600.26</ele>
        <time>2019-12-08T10:31:11.000Z</time>
      </trkpt>
      <trkpt lat="43.64557" lon="6.6559">
        <ele>600.45</ele>
        <time>2019-12-08T10:31:12.000Z</time>
      </trkpt>
      <trkpt lat="43.64559" lon="6.65592">
        <ele>600.49</ele>
        <time>2019-12-08T10:31:13.000Z</time>
      </trkpt>
      <trkpt lat="43.64562" lon="6.65595">
        <ele>600.61</ele>
        <time>2019-12-08T10:31:14.000Z</time>
      </trkpt>
      <trkpt lat="43.64564" lon="6.65597">
        <ele>600.71</ele>
        <time>2019-12-08T10:31:15.000Z</time>
      </trkpt>
      <trkpt lat="43.64567" lon="6.656">
        <ele>600.97</ele>
        <time>2019-12-08T10:31:16.000Z</time>
      </trkpt>
      <trkpt lat="43.64569" lon="6.65603">
        <ele>601.1</ele>
        <time>2019-12-08T10:31:17.000Z</time>
      </trkpt>
      <trkpt lat="43.64571" lon="6.65606">
        <ele>601.38</ele>
        <time>2019-12-08T10:31:18.000Z</time>
      </trkpt>
      <trkpt lat="43.64573" lon="6.65609">
        <ele>601.71</ele>
        <time>2019-12-08T10:31:19.000Z</time>
      </trkpt>
      <trkpt lat="43.64575" lon="6.65612">
        <ele>601.89</ele>
        <time>2019-12-08T10:31:20.000Z</time>
      </trkpt>
      <trkpt lat="43.64575" lon="6.65616">
        <ele>601.98</ele>
        <time>2019-12-08T10:31:21.000Z</time>
      </trkpt>
      <trkpt lat="43.64576" lon="6.6562">
        <ele>602.22</ele>
        <time>2019-12-08T10:31:22.000Z</time>
      </trkpt>
      <trkpt lat="43.64577" lon="6.65624">
        <ele>602.55</ele>
        <time>2019-12-08T10:31:23.000Z</time>
      </trkpt>
      <trkpt lat="43.64579" lon="6.65627">
        <ele>602.89</ele>
        <time>2019-12-08T10:31:24.000Z</time>
      </trkpt>
      <trkpt lat="43.6458" lon="6.65631">
        <ele>603.08</ele>
        <time>2019-12-08T10:31:25.000Z</time>
      </trkpt>
      <trkpt lat="43.64582" lon="6.65634">
        <ele>603.42</ele>
        <time>2019-12-08T10:31:26.000Z</time>
      </trkpt>
      <trkpt lat="43.64583" lon="6.65637">
        <ele>603.73</ele>
        <time>2019-12-08T10:31:27.000Z</time>
      </trkpt>
      <trkpt lat="43.64585" lon="6.65641">
        <ele>604</ele>
        <time>2019-12-08T10:31:28.000Z</time>
      </trkpt>
      <trkpt lat="43.64585" lon="6.65644">
        <ele>604.15</ele>
        <time>2019-12-08T10:31:29.000Z</time>
      </trkpt>
      <trkpt lat="43.64586" lon="6.65648">
        <ele>604.37</ele>
        <time>2019-12-08T10:31:30.000Z</time>
      </trkpt>
      <trkpt lat="43.64587" lon="6.65652">
        <ele>604.65</ele>
        <time>2019-12-08T10:31:31.000Z</time>
      </trkpt>
      <trkpt lat="43.64587" lon="6.65656">
        <ele>604.91</ele>
        <time>2019-12-08T10:31:32.000Z</time>
      </trkpt>
      <trkpt lat="43.64588" lon="6.65659">
        <ele>605.01</ele>
        <time>2019-12-08T10:31:33.000Z</time>
      </trkpt>
      <trkpt lat="43.64588" lon="6.65663">
        <ele>605.25</ele>
        <time>2019-12-08T10:31:34.000Z</time>
      </trkpt>
      <trkpt lat="43.64588" lon="6.65667">
        <ele>605.44</ele>
        <time>2019-12-08T10:31:35.000Z</time>
      </trkpt>
      <trkpt lat="43.64588" lon="6.65671">
        <ele>605.6</ele>
        <time>2019-12-08T10:31:36.000Z</time>
      </trkpt>
      <trkpt lat="43.64588" lon="6.65675">
        <ele>605.78</ele>
        <time>2019-12-08T10:31:37.000Z</time>
      </trkpt>
      <trkpt lat="43.64588" lon="6.65679">
        <ele>605.85</ele>
        <time>2019-12-08T10:31:38.000Z</time>
      </trkpt>
      <trkpt lat="43.64587" lon="6.65683">
        <ele>606.12</ele>
        <time>2019-12-08T10:31:39.000Z</time>
      </trkpt>
      <trkpt lat="43.64587" lon="6.65688">
        <ele>606.36</ele>
        <time>2019-12-08T10:31:40.000Z</time>
      </trkpt>
      <trkpt lat="43.64587" lon="6.65692">
        <ele>606.59</ele>
        <time>2019-12-08T10:31:41.000Z</time>
      </trkpt>
      <trkpt lat="43.64587" lon="6.65696">
        <ele>606.69</ele>
        <time>2019-12-08T10:31:42.000Z</time>
      </trkpt>
      <trkpt lat="43.64586" lon="6.657">
        <ele>606.95</ele>
        <time>2019-12-08T10:31:43.000Z</time>
      </trkpt>
      <trkpt lat="43.64586" lon="6.65704">
        <ele>607.15</ele>
        <time>2019-12-08T10:31:44.000Z</time>
      </trkpt>
      <trkpt lat="43.64586" lon="6.65708">
        <ele>607.36</ele>
        <time>2019-12-08T10:31:45.000Z</time>
      </trkpt>
      <trkpt lat="43.64586" lon="6.65712">
        <ele>607.46</ele>
        <time>2019-12-08T10:31:46.000Z</time>
      </trkpt>
      <trkpt lat="43.64587" lon="6.65716">
        <ele>607.68</ele>
        <time>2019-12-08T10:31:47.000Z</time>
      </trkpt>
      <trkpt lat="43.64587" lon="6.6572">
        <ele>607.83</ele>
        <time>2019-12-08T10:31:48.000Z</time>
      </trkpt>
      <trkpt lat="43.64587" lon="6.65723">
        <ele>608.06</ele>
        <time>2019-12-08T10:31:49.000Z</time>
      </trkpt>
      <trkpt lat="43.64588" lon="6.65727">
        <ele>608.18</ele>
        <time>2019-12-08T10:31:50.000Z</time>
      </trkpt>
      <trkpt lat="43.64589" lon="6.65731">
        <ele>608.42</ele>
        <time>2019-12-08T10:31:51.000Z</time>
      </trkpt>
      <trkpt lat="43.6459" lon="6.65734">
        <ele>608.65</ele>
        <time>2019-12-08T10:31:52.000Z</time>
      </trkpt>
      <trkpt lat="43.64591" lon="6.65738">
        <ele>608.93</ele>
        <time>2019-12-08T10:31:53.000Z</time>
      </trkpt>
      <trkpt lat="43.64593" lon="6.65741">
        <ele>609.08</ele>
        <time>2019-12-08T10:31:54.000Z</time>
      </trkpt>
      <trkpt lat="43.64595" lon="6.65744">
        <ele>609.35</ele>
        <time>2019-12-08T10:31:55.000Z</time>
      </trkpt>
      <trkpt lat="43.64597" lon="6.65747">
        <ele>609.63</ele>
        <time>2019-12-08T10:31:56.000Z</time>
      </trkpt>
      <trkpt lat="43.64599" lon="6.65749">
        <ele>609.82</ele>
        <time>2019-12-08T10:31:57.000Z</time>
      </trkpt>
      <trkpt lat="43.64601" lon="6.65752">
        <ele>609.88</ele>
        <time>2019-12-08T10:31:58.000Z</time>
      </trkpt>
      <trkpt lat="43.64604" lon="6.65754">
        <ele>610</ele>
        <time>2019-12-08T10:31:59.000Z</time>
      </trkpt>
      <trkpt lat="43.64606" lon="6.65756">
        <ele>610.17</ele>
        <time>2019-12-08T10:32:00.000Z</time>
      </trkpt>
      <trkpt lat="43.64609" lon="6.65758">
        <ele>610.33</ele>
        <time>2019-12-08T10:32:01.000Z</time>
      </trkpt>
      <trkpt lat="43.64612" lon="6.65759">
        <ele>610.69</ele>
        <time>2019-12-08T10:32:02.000Z</time>
      </trkpt>
      <trkpt lat="43.64615" lon="6.6576">
        <ele>611</ele>
        <time>2019-12-08T10:32:03.000Z</time>
      </trkpt>
      <trkpt lat="43.64618" lon="6.65761">
        <ele>611.18</ele>
        <time>2019-12-08T10:32:04.000Z</time>
      </trkpt>
      <trkpt lat="43.64621" lon="6.65763">
        <ele>611.43</ele>
        <time>2019-12-08T10:32:05.000Z</time>
      </trkpt>
      <trkpt lat="43.64623" lon="6.65764">
        <ele>611.59</ele>
        <time>2019-12-08T10:32:06.000Z</time>
      </trkpt>
      <trkpt lat="43.64626" lon="6.65766">
        <ele>611.56</ele>
        <time>2019-12-08T10:32:07.000Z</time>
      </trkpt>
      <trkpt lat="43.64629" lon="6.65767">
        <ele>611.85</ele>
        <time>2019-12-08T10:32:08.000Z</time>
      </trkpt>
      <trkpt lat="43.64632" lon="6.65768">
        <ele>611.85</ele>
        <time>2019-12-08T10:32:09.000Z</time>
      </trkpt>
      <trkpt lat="43.64635" lon="6.6577">
        <ele>612.1</ele>
        <time>2019-12-08T10:32:10.000Z</time>
      </trkpt>
      <trkpt lat="43.64637" lon="6.65771">
        <ele>612.3</ele>
        <time>2019-12-08T10:32:11.000Z</time>
      </trkpt>
      <trkpt lat="43.6464" lon="6.65772">
        <ele>612.5</ele>
        <time>2019-12-08T10:32:12.000Z</time>
      </trkpt>
      <trkpt lat="43.64643" lon="6.65773">
        <ele>612.72</ele>
        <time>2019-12-08T10:32:13.000Z</time>
      </trkpt>
      <trkpt lat="43.64645" lon="6.65775">
        <ele>613</ele>
        <time>2019-12-08T10:32:14.000Z</time>
      </trkpt>
      <trkpt lat="43.64648" lon="6.65776">
        <ele>613.15</ele>
        <time>2019-12-08T10:32:15.000Z</time>
      </trkpt>
      <trkpt lat="43.6465" lon="6.65777">
        <ele>613.43</ele>
        <time>2019-12-08T10:32:16.000Z</time>
      </trkpt>
      <trkpt lat="43.64653" lon="6.65778">
        <ele>613.79</ele>
        <time>2019-12-08T10:32:17.000Z</time>
      </trkpt>
      <trkpt lat="43.64656" lon="6.65779">
        <ele>614.12</ele>
        <time>2019-12-08T10:32:18.000Z</time>
      </trkpt>
      <trkpt lat="43.64658" lon="6.65781">
        <ele>614.31</ele>
        <time>2019-12-08T10:32:19.000Z</time>
      </trkpt>
      <trkpt lat="43.64661" lon="6.65782">
        <ele>614.54</ele>
        <time>2019-12-08T10:32:20.000Z</time>
      </trkpt>
      <trkpt lat="43.64664" lon="6.65784">
        <ele>614.75</ele>
        <time>2019-12-08T10:32:21.000Z</time>
      </trkpt>
      <trkpt lat="43.64666" lon="6.65785">
        <ele>614.96</ele>
        <time>2019-12-08T10:32:22.000Z</time>
      </trkpt>
      <trkpt lat="43.64669" lon="6.65787">
        <ele>615.03</ele>
        <time>2019-12-08T10:32:23.000Z</time>
      </trkpt>
      <trkpt lat="43.64672" lon="6.65789">
        <ele>615.23</ele>
        <time>2019-12-08T10:32:24.000Z</time>
      </trkpt>
      <trkpt lat="43.64675" lon="6.65791">
        <ele>615.56</ele>
        <time>2019-12-08T10:32:25.000Z</time>
      </trkpt>
      <trkpt lat="43.64677" lon="6.65793">
        <ele>615.89</ele>
        <time>2019-12-08T10:32:26.000Z</time>
      </trkpt>
      <trkpt lat="43.64679" lon="6.65796">
        <ele>616.05</ele>
        <time>2019-12-08T10:32:27.000Z</time>
      </trkpt>
      <trkpt lat="43.64681" lon="6.65799">
        <ele>616.33</ele>
        <time>2019-12-08T10:32:28.000Z</time>
      </trkpt>
      <trkpt lat="43.64683" lon="6.65802">
        <ele>616.63</ele>
        <time>2019-12-08T10:32:29.000Z</time>
      </trkpt>
      <trkpt lat="43.64684" lon="6.65805">
        <ele>616.79</ele>
        <time>2019-12-08T10:32:30.000Z</time>
      </trkpt>
      <trkpt lat="43.64685" lon="6.65809">
        <ele>616.88</ele>
        <time>2019-12-08T10:32:31.000Z</time>
      </trkpt>
      <trkpt lat="43.64685" lon="6.65812">
        <ele>617.1</ele>
        <time>2019-12-08T10:32:32.000Z</time>
      </trkpt>
      <trkpt lat="43.64685" lon="6.65816">
        <ele>617.36</ele>
        <time>2019-12-08T10:32:33.000Z</time>
      </trkpt>
      <trkpt lat="43.64684" lon="6.6582">
        <ele>617.64</ele>
        <time>2019-12-08T10:32:34.000Z</time>
      </trkpt>
      <trkpt lat="43.64683" lon="6.65824">
        <ele>617.92</ele>
        <time>2019-12-08T10:32:35.000Z</time>
      </trkpt>
      <trkpt lat="43.64682" lon="6.65827">
        <ele>618.04</ele>
        <time>2019-12-08T10:32:36.000Z</time>
      </trkpt>
      <trkpt lat="43.6468" lon="6.65831">
        <ele>618.3</ele>
        <time>2019-12-08T10:32:37.000Z</time>
      </trkpt>
      <trkpt lat="43.64679" lon="6.65835">
        <ele>618.5</ele>
        <time>2019-12-08T10:32:38.000Z</time>
      </trkpt>
      <trkpt lat="43.64677" lon="6.65838">
        <ele>618.6</ele>
        <time>2019-12-08T10:32:39.000Z</time>
      </trkpt>
      <trkpt lat="43.64676" lon="6.65842">
        <ele>618.84</ele>
        <time>2019-12-08T10:32:40.000Z</time>
      </trkpt>
      <trkpt lat="43.64674" lon="6.65845">
        <ele>619.08</ele>
        <time>2019-12-08T10:32:41.000Z</time>
      </trkpt>
      <trkpt lat="43.64673" lon="6.65849">
        <ele>619.28</ele>
        <time>2019-12-08T10:32:42.000Z</time>
      </trkpt>
      <trkpt lat="43.64671" lon="6.65852">
        <ele>619.53</ele>
        <time>2019-12-08T10:32:43.000Z</time>
      </trkpt>
      <trkpt lat="43.6467" lon="6.65855">
        <ele>619.67</ele>
        <time>2019-12-08T10:32:44.000Z</time>
      </trkpt>
      <trkpt lat="43.64668" lon="6.65859">
        <ele>619.88</ele>
        <time>2019-12-08T10:32:45.000Z</time>
      </trkpt>
      <trkpt lat="43.64667" lon="6.65862">
        <ele>620.1</ele>
        <time>2019-12-08T10:32:46.000Z</time>
      </trkpt>
      <trkpt lat="43.64665" lon="6.65865">
        <ele>620.26</ele>
        <time>2019-12-08T10:32:47.000Z</time>
      </trkpt>
      <trkpt lat="43.64664" lon="6.65869">
        <ele>620.57</ele>
        <time>2019-12-08T10:32:48.000Z</time>
      </trkpt>
      <trkpt lat="43.64662" lon="6.65872">
        <ele>620.83</ele>
        <time>2019-12-08T10:32:49.000Z</time>
      </trkpt>
      <trkpt lat="43.64661" lon="6.65876">
        <ele>621.14</ele>
        <time>2019-12-08T10:32:50.000Z</time>
      </trkpt>
      <trkpt lat="43.6466" lon="6.6588">
        <ele>621.42</ele>
        <time>2019-12-08T10:32:51.000Z</time>
      </trkpt>
      <trkpt lat="43.64658" lon="6.65883">
        <ele>621.56</ele>
        <time>2019-12-08T10:32:52.000Z</time>
      </trkpt>
      <trkpt lat="43.64657" lon="6.65887">
        <ele>621.83</ele>
        <time>2019-12-08T10:32:53.000Z</time>
      </trkpt>
      <trkpt lat="43.64655" lon="6.6589">
        <ele>622.02</ele>
        <time>2019-12-08T10:32:54.000Z</time>
      </trkpt>
      <trkpt lat="43.64654" lon="6.65894">
        <ele>622.33</ele>
        <time>2019-12-08T10:32:55.000Z</time>
      </trkpt>
      <trkpt lat="43.64653" lon="6.65898">
        <ele>622.43</ele>
        <time>2019-12-08T10:32:56.000Z</time>
      </trkpt>
      <trkpt lat="43.64652" lon="6.65902">
        <ele>622.6</ele>
        <time>2019-12-08T10:32:57.000Z</time>
      </trkpt>
      <trkpt lat="43.64651" lon="6.65906">
        <ele>622.79</ele>
        <time>2019-12-08T10:32:58.000Z</time>
      </trkpt>
      <trkpt lat="43.64651" lon="6.6591">
        <ele>622.96</ele>
        <time>2019-12-08T10:32:59.000Z</time>
      </trkpt>
      <trkpt lat="43.6465" lon="6.65914">
        <ele>623.02</ele>
        <time>2019-12-08T10:33:00.000Z</time>
      </trkpt>
      <trkpt lat="43.6465" lon="6.65918">
        <ele>623.2</ele>
        <time>2019-12-08T10:33:01.000Z</time>
      </trkpt>
      <trkpt lat="43.64649" lon="6.65922">
        <ele>623.48</ele>
        <time>2019-12-08T10:33:02.000Z</time>
      </trkpt>
      <trkpt lat="43.64649" lon="6.65926">
        <ele>623.76</ele>
        <time>2019-12-08T10:33:03.000Z</time>
      </trkpt>
      <trkpt lat="43.64648" lon="6.6593">
        <ele>623.89</ele>
        <time>2019-12-08T10:33:04.000Z</time>
      </trkpt>
      <trkpt lat="43.64648" lon="6.65934">
        <ele>624.17</ele>
        <time>2019-12-08T10:33:05.000Z</time>
      </trkpt>
      <trkpt lat="43.64648" lon="6.65938">
        <ele>624.41</ele>
        <time>2019-12-08T10:33:06.000Z</time>
      </trkpt>
      <trkpt lat="43.64648" lon="6.65942">
        <ele>624.58</ele>
        <time>2019-12-08T10:33:07.000Z</time>
      </trkpt>
      <trkpt lat="43.64647" lon="6.65946">
        <ele>624.71</ele>
        <time>2019-12-08T10:33:08.000Z</time>
      </trkpt>
      <trkpt lat="43.64647" lon="6.65949">
        <ele>624.93</ele>
        <time>2019-12-08T10:33:09.000Z</time>
      </trkpt>
      <trkpt lat="43.64647" lon="6.65953">
        <ele>625.13</ele>
        <time>2019-12-08T10:33:10.000Z</time>
      </trkpt>
      <trkpt lat="43.64647" lon="6.65956">
        <ele>625.41</ele>
        <time>2019-12-08T10:33:11.000Z</time>
      </trkpt>
      <trkpt lat="43.64647" lon="6.6596">
        <ele>625.64</ele>
        <time>2019-12-08T10:33:12.000Z</time>
      </trkpt>
      <trkpt lat="43.64647" lon="6.65964">
        <ele>625.75</ele>
        <time>2019-12-08T10:33:13.000Z</time>
      </trkpt>
      <trkpt lat="43.64648" lon="6.65967">
        <ele>626.05</ele>
        <time>2019-12-08T10:33:14.000Z</time>
      </trkpt>
      <trkpt lat="43.64648" lon="6.65971">
        <ele>626.34</ele>
        <time>2019-12-08T10:33:15.000Z</time>
      </trkpt>
      <trkpt lat="43.64648" lon="6.65975">
        <ele>626.49</ele>
        <time>2019-12-08T10:33:16.000Z</time>
      </trkpt>
      <trkpt lat="43.64648" lon="6.65979">
        <ele>626.77</ele>
        <time>2019-12-08T10:33:17.000Z</time>
      </trkpt>
      <trkpt lat="43.64648" lon="6.65982">
        <ele>627.12</ele>
        <time>2019-12-08T10:33:18.000Z</time>
      </trkpt>
      <trkpt lat="43.64649" lon="6.65986">
        <ele>627.46</ele>
        <time>2019-12-08T10:33:19.000Z</time>
      </trkpt>
      <trkpt lat="43.6465" lon="6.65989">
        <ele>627.73</ele>
        <time>2019-12-08T10:33:20.000Z</time>
      </trkpt>
      <trkpt lat="43.64652" lon="6.65992">
        <ele>627.88</ele>
        <time>2019-12-08T10:33:21.000Z</time>
      </trkpt>
      <trkpt lat="43.64654" lon="6.65995">
        <ele>628.12</ele>
        <time>2019-12-08T10:33:22.000Z</time>
      </trkpt>
      <trkpt lat="43.64656" lon="6.65996">
        <ele>628.12</ele>
        <time>2019-12-08T10:33:23.000Z</time>
      </trkpt>
      <trkpt lat="43.64659" lon="6.65997">
        <ele>628.12</ele>
        <time>2019-12-08T10:33:24.000Z</time>
      </trkpt>
      <trkpt lat="43.64662" lon="6.65997">
        <ele>628.25</ele>
        <time>2019-12-08T10:33:25.000Z</time>
      </trkpt>
      <trkpt lat="43.64665" lon="6.65998">
        <ele>628.57</ele>
        <time>2019-12-08T10:33:26.000Z</time>
      </trkpt>
      <trkpt lat="43.64668" lon="6.65998">
        <ele>628.9</ele>
        <time>2019-12-08T10:33:27.000Z</time>
      </trkpt>
      <trkpt lat="43.64671" lon="6.65998">
        <ele>629.23</ele>
        <time>2019-12-08T10:33:28.000Z</time>
      </trkpt>
      <trkpt lat="43.64674" lon="6.65998">
        <ele>629.37</ele>
        <time>2019-12-08T10:33:29.000Z</time>
      </trkpt>
      <trkpt lat="43.64677" lon="6.65998">
        <ele>629.58</ele>
        <time>2019-12-08T10:33:30.000Z</time>
      </trkpt>
      <trkpt lat="43.6468" lon="6.65998">
        <ele>629.78</ele>
        <time>2019-12-08T10:33:31.000Z</time>
      </trkpt>
      <trkpt lat="43.64683" lon="6.65998">
        <ele>630.01</ele>
        <time>2019-12-08T10:33:32.000Z</time>
      </trkpt>
      <trkpt lat="43.64686" lon="6.65998">
        <ele>630.09</ele>
        <time>2019-12-08T10:33:33.000Z</time>
      </trkpt>
      <trkpt lat="43.64689" lon="6.65998">
        <ele>630.29</ele>
        <time>2019-12-08T10:33:34.000Z</time>
      </trkpt>
      <trkpt lat="43.64692" lon="6.65998">
        <ele>630.58</ele>
        <time>2019-12-08T10:33:35.000Z</time>
      </trkpt>
      <trkpt lat="43.64695" lon="6.65998">
        <ele>630.72</ele>
        <time>2019-12-08T10:33:36.000Z</time>
      </trkpt>
      <trkpt lat="43.64698" lon="6.65998">
        <ele>630.83</ele>
        <time>2019-12-08T10:33:37.000Z</time>
      </trkpt>
      <trkpt lat="43.64701" lon="6.65999">
        <ele>631.07</ele>
        <time>2019-12-08T10:33:38.000Z</time>
      </trkpt>
      <trkpt lat="43.64704" lon="6.65999">
        <ele>631.2</ele>
        <time>2019-12-08T10:33:39.000Z</time>
      </trkpt>
      <trkpt lat="43.64707" lon="6.65999">
        <ele>631.29</ele>
        <time>2019-12-08T10:33:40.000Z</time>
      </trkpt>
      <trkpt lat="43.64709" lon="6.66">
        <ele>631.43</ele>
        <time>2019-12-08T10:33:41.000Z</time>
      </trkpt>
      <trkpt lat="43.64712" lon="6.66001">
        <ele>631.49</ele>
        <time>2019-12-08T10:33:42.000Z</time>
      </trkpt>
      <trkpt lat="43.64715" lon="6.66002">
        <ele>631.77</ele>
        <time>2019-12-08T10:33:43.000Z</time>
      </trkpt>
      <trkpt lat="43.64718" lon="6.66002">
        <ele>632.04</ele>
        <time>2019-12-08T10:33:44.000Z</time>
      </trkpt>
      <trkpt lat="43.64721" lon="6.66003">
        <ele>632.26</ele>
        <time>2019-12-08T10:33:45.000Z</time>
      </trkpt>
      <trkpt lat="43.64724" lon="6.66003">
        <ele>632.56</ele>
        <time>2019-12-08T10:33:46.000Z</time>
      </trkpt>
      <trkpt lat="43.64727" lon="6.66005">
        <ele>632.78</ele>
        <time>2019-12-08T10:33:47.000Z</time>
      </trkpt>
      <trkpt lat="43.6473" lon="6.66006">
        <ele>632.93</ele>
        <time>2019-12-08T10:33:48.000Z</time>
      </trkpt>
      <trkpt lat="43.64732" lon="6.66007">
        <ele>632.98</ele>
        <time>2019-12-08T10:33:49.000Z</time>
      </trkpt>
      <trkpt lat="43.64735" lon="6.66007">
        <ele>633.04</ele>
        <time>2019-12-08T10:33:50.000Z</time>
      </trkpt>
      <trkpt lat="43.64738" lon="6.66008">
        <ele>633.27</ele>
        <time>2019-12-08T10:33:51.000Z</time>
      </trkpt>
      <trkpt lat="43.64741" lon="6.66009">
        <ele>633.55</ele>
        <time>2019-12-08T10:33:52.000Z</time>
      </trkpt>
      <trkpt lat="43.64744" lon="6.66009">
        <ele>633.69</ele>
        <time>2019-12-08T10:33:53.000Z</time>
      </trkpt>
      <trkpt lat="43.64747" lon="6.6601">
        <ele>634.01</ele>
        <time>2019-12-08T10:33:54.000Z</time>
      </trkpt>
      <trkpt lat="43.6475" lon="6.6601">
        <ele>634.33</ele>
        <time>2019-12-08T10:33:55.000Z</time>
      </trkpt>
      <trkpt lat="43.64752" lon="6.66011">
        <ele>634.71</ele>
        <time>2019-12-08T10:33:56.000Z</time>
      </trkpt>
      <trkpt lat="43.64755" lon="6.66011">
        <ele>635.03</ele>
        <time>2019-12-08T10:33:57.000Z</time>
      </trkpt>
      <trkpt lat="43.64758" lon="6.66011">
        <ele>635.23</ele>
        <time>2019-12-08T10:33:58.000Z</time>
      </trkpt>
      <trkpt lat="43.64761" lon="6.66011">
        <ele>635.48</ele>
        <time>2019-12-08T10:33:59.000Z</time>
      </trkpt>
      <trkpt lat="43.64764" lon="6.66011">
        <ele>635.78</ele>
        <time>2019-12-08T10:34:00.000Z</time>
      </trkpt>
      <trkpt lat="43.64767" lon="6.66011">
        <ele>636.02</ele>
        <time>2019-12-08T10:34:01.000Z</time>
      </trkpt>
      <trkpt lat="43.6477" lon="6.66011">
        <ele>636.13</ele>
        <time>2019-12-08T10:34:02.000Z</time>
      </trkpt>
      <trkpt lat="43.64772" lon="6.66011">
        <ele>636.4</ele>
        <time>2019-12-08T10:34:03.000Z</time>
      </trkpt>
      <trkpt lat="43.64775" lon="6.66011">
        <ele>636.62</ele>
        <time>2019-12-08T10:34:04.000Z</time>
      </trkpt>
      <trkpt lat="43.64779" lon="6.66011">
        <ele>636.86</ele>
        <time>2019-12-08T10:34:05.000Z</time>
      </trkpt>
      <trkpt lat="43.64782" lon="6.6601">
        <ele>636.99</ele>
        <time>2019-12-08T10:34:06.000Z</time>
      </trkpt>
      <trkpt lat="43.64785" lon="6.6601">
        <ele>637.22</ele>
        <time>2019-12-08T10:34:07.000Z</time>
      </trkpt>
      <trkpt lat="43.64788" lon="6.66009">
        <ele>637.44</ele>
        <time>2019-12-08T10:34:08.000Z</time>
      </trkpt>
      <trkpt lat="43.64791" lon="6.66009">
        <ele>637.63</ele>
        <time>2019-12-08T10:34:09.000Z</time>
      </trkpt>
      <trkpt lat="43.64794" lon="6.66009">
        <ele>637.75</ele>
        <time>2019-12-08T10:34:10.000Z</time>
      </trkpt>
      <trkpt lat="43.64797" lon="6.66008">
        <ele>638.04</ele>
        <time>2019-12-08T10:34:11.000Z</time>
      </trkpt>
      <trkpt lat="43.648" lon="6.66008">
        <ele>638.36</ele>
        <time>2019-12-08T10:34:12.000Z</time>
      </trkpt>
      <trkpt lat="43.64802" lon="6.66008">
        <ele>638.67</ele>
        <time>2019-12-08T10:34:13.000Z</time>
      </trkpt>
      <trkpt lat="43.64806" lon="6.66007">
        <ele>638.83</ele>
        <time>2019-12-08T10:34:14.000Z</time>
      </trkpt>
      <trkpt lat="43.64808" lon="6.66007">
        <ele>639.06</ele>
        <time>2019-12-08T10:34:15.000Z</time>
      </trkpt>
      <trkpt lat="43.64811" lon="6.66007">
        <ele>639.3</ele>
        <time>2019-12-08T10:34:16.000Z</time>
      </trkpt>
      <trkpt lat="43.64814" lon="6.66007">
        <ele>639.5</ele>
        <time>2019-12-08T10:34:17.000Z</time>
      </trkpt>
      <trkpt lat="43.64817" lon="6.66006">
        <ele>639.61</ele>
        <time>2019-12-08T10:34:18.000Z</time>
      </trkpt>
      <trkpt lat="43.6482" lon="6.66006">
        <ele>639.85</ele>
        <time>2019-12-08T10:34:19.000Z</time>
      </trkpt>
      <trkpt lat="43.64823" lon="6.66006">
        <ele>640.13</ele>
        <time>2019-12-08T10:34:20.000Z</time>
      </trkpt>
      <trkpt lat="43.64826" lon="6.66006">
        <ele>640.22</ele>
        <time>2019-12-08T10:34:21.000Z</time>
      </trkpt>
      <trkpt lat="43.64829" lon="6.66005">
        <ele>640.36</ele>
        <time>2019-12-08T10:34:22.000Z</time>
      </trkpt>
      <trkpt lat="43.64832" lon="6.66004">
        <ele>640.72</ele>
        <time>2019-12-08T10:34:23.000Z</time>
      </trkpt>
      <trkpt lat="43.64835" lon="6.66004">
        <ele>641.08</ele>
        <time>2019-12-08T10:34:24.000Z</time>
      </trkpt>
      <trkpt lat="43.64838" lon="6.66004">
        <ele>641.37</ele>
        <time>2019-12-08T10:34:25.000Z</time>
      </trkpt>
      <trkpt lat="43.6484" lon="6.66003">
        <ele>641.68</ele>
        <time>2019-12-08T10:34:26.000Z</time>
      </trkpt>
      <trkpt lat="43.64843" lon="6.66003">
        <ele>641.81</ele>
        <time>2019-12-08T10:34:27.000Z</time>
      </trkpt>
      <trkpt lat="43.64846" lon="6.66002">
        <ele>642</ele>
        <time>2019-12-08T10:34:28.000Z</time>
      </trkpt>
      <trkpt lat="43.64849" lon="6.66002">
        <ele>642.23</ele>
        <time>2019-12-08T10:34:29.000Z</time>
      </trkpt>
      <trkpt lat="43.64852" lon="6.66001">
        <ele>642.45</ele>
        <time>2019-12-08T10:34:30.000Z</time>
      </trkpt>
      <trkpt lat="43.64855" lon="6.66">
        <ele>642.57</ele>
        <time>2019-12-08T10:34:31.000Z</time>
      </trkpt>
      <trkpt lat="43.64858" lon="6.66">
        <ele>642.77</ele>
        <time>2019-12-08T10:34:32.000Z</time>
      </trkpt>
      <trkpt lat="43.64861" lon="6.65999">
        <ele>642.97</ele>
        <time>2019-12-08T10:34:33.000Z</time>
      </trkpt>
      <trkpt lat="43.64864" lon="6.65999">
        <ele>643.18</ele>
        <time>2019-12-08T10:34:34.000Z</time>
      </trkpt>
      <trkpt lat="43.64867" lon="6.65999">
        <ele>643.3</ele>
        <time>2019-12-08T10:34:35.000Z</time>
      </trkpt>
      <trkpt lat="43.6487" lon="6.65998">
        <ele>643.45</ele>
        <time>2019-12-08T10:34:36.000Z</time>
      </trkpt>
      <trkpt lat="43.64873" lon="6.65998">
        <ele>643.63</ele>
        <time>2019-12-08T10:34:37.000Z</time>
      </trkpt>
      <trkpt lat="43.64876" lon="6.65997">
        <ele>643.79</ele>
        <time>2019-12-08T10:34:38.000Z</time>
      </trkpt>
      <trkpt lat="43.6488" lon="6.65997">
        <ele>643.88</ele>
        <time>2019-12-08T10:34:39.000Z</time>
      </trkpt>
      <trkpt lat="43.64883" lon="6.65997">
        <ele>643.98</ele>
        <time>2019-12-08T10:34:40.000Z</time>
      </trkpt>
      <trkpt lat="43.64886" lon="6.65997">
        <ele>644.2</ele>
        <time>2019-12-08T10:34:41.000Z</time>
      </trkpt>
      <trkpt lat="43.6489" lon="6.65998">
        <ele>644.34</ele>
        <time>2019-12-08T10:34:42.000Z</time>
      </trkpt>
      <trkpt lat="43.64894" lon="6.65998">
        <ele>644.37</ele>
        <time>2019-12-08T10:34:43.000Z</time>
      </trkpt>
      <trkpt lat="43.64897" lon="6.65998">
        <ele>644.53</ele>
        <time>2019-12-08T10:34:44.000Z</time>
      </trkpt>
      <trkpt lat="43.649" lon="6.65999">
        <ele>644.62</ele>
        <time>2019-12-08T10:34:45.000Z</time>
      </trkpt>
      <trkpt lat="43.64904" lon="6.65999">
        <ele>644.66</ele>
        <time>2019-12-08T10:34:46.000Z</time>
      </trkpt>
      <trkpt lat="43.64907" lon="6.66">
        <ele>644.74</ele>
        <time>2019-12-08T10:34:47.000Z</time>
      </trkpt>
      <trkpt lat="43.64911" lon="6.66001">
        <ele>644.88</ele>
        <time>2019-12-08T10:34:48.000Z</time>
      </trkpt>
      <trkpt lat="43.64914" lon="6.66002">
        <ele>645.02</ele>
        <time>2019-12-08T10:34:49.000Z</time>
      </trkpt>
      <trkpt lat="43.64917" lon="6.66002">
        <ele>645.31</ele>
        <time>2019-12-08T10:34:50.000Z</time>
      </trkpt>
      <trkpt lat="43.6492" lon="6.66003">
        <ele>645.44</ele>
        <time>2019-12-08T10:34:51.000Z</time>
      </trkpt>
      <trkpt lat="43.64923" lon="6.66004">
        <ele>645.64</ele>
        <time>2019-12-08T10:34:52.000Z</time>
      </trkpt>
      <trkpt lat="43.64926" lon="6.66005">
        <ele>645.94</ele>
        <time>2019-12-08T10:34:53.000Z</time>
      </trkpt>
      <trkpt lat="43.64929" lon="6.66006">
        <ele>646.21</ele>
        <time>2019-12-08T10:34:54.000Z</time>
      </trkpt>
      <trkpt lat="43.64932" lon="6.66008">
        <ele>646.26</ele>
        <time>2019-12-08T10:34:55.000Z</time>
      </trkpt>
      <trkpt lat="43.64934" lon="6.66009">
        <ele>646.48</ele>
        <time>2019-12-08T10:34:56.000Z</time>
      </trkpt>
      <trkpt lat="43.64937" lon="6.66011">
        <ele>646.7</ele>
        <time>2019-12-08T10:34:57.000Z</time>
      </trkpt>
      <trkpt lat="43.6494" lon="6.66012">
        <ele>646.83</ele>
        <time>2019-12-08T10:34:58.000Z</time>
      </trkpt>
      <trkpt lat="43.64943" lon="6.66013">
        <ele>647.02</ele>
        <time>2019-12-08T10:34:59.000Z</time>
      </trkpt>
      <trkpt lat="43.64947" lon="6.66014">
        <ele>647.11</ele>
        <time>2019-12-08T10:35:00.000Z</time>
      </trkpt>
      <trkpt lat="43.6495" lon="6.66015">
        <ele>647.39</ele>
        <time>2019-12-08T10:35:01.000Z</time>
      </trkpt>
      <trkpt lat="43.64953" lon="6.66016">
        <ele>647.68</ele>
        <time>2019-12-08T10:35:02.000Z</time>
      </trkpt>
      <trkpt lat="43.64956" lon="6.66017">
        <ele>648</ele>
        <time>2019-12-08T10:35:03.000Z</time>
      </trkpt>
      <trkpt lat="43.64959" lon="6.66018">
        <ele>648.13</ele>
        <time>2019-12-08T10:35:04.000Z</time>
      </trkpt>
      <trkpt lat="43.64962" lon="6.66019">
        <ele>648.42</ele>
        <time>2019-12-08T10:35:05.000Z</time>
      </trkpt>
      <trkpt lat="43.64965" lon="6.6602">
        <ele>648.62</ele>
        <time>2019-12-08T10:35:06.000Z</time>
      </trkpt>
      <trkpt lat="43.64968" lon="6.66021">
        <ele>648.72</ele>
        <time>2019-12-08T10:35:07.000Z</time>
      </trkpt>
      <trkpt lat="43.64972" lon="6.66021">
        <ele>648.73</ele>
        <time>2019-12-08T10:35:08.000Z</time>
      </trkpt>
      <trkpt lat="43.64975" lon="6.66022">
        <ele>648.92</ele>
        <time>2019-12-08T10:35:09.000Z</time>
      </trkpt>
      <trkpt lat="43.64978" lon="6.66023">
        <ele>649.16</ele>
        <time>2019-12-08T10:35:10.000Z</time>
      </trkpt>
      <trkpt lat="43.64981" lon="6.66024">
        <ele>649.45</ele>
        <time>2019-12-08T10:35:11.000Z</time>
      </trkpt>
      <trkpt lat="43.64984" lon="6.66024">
        <ele>649.64</ele>
        <time>2019-12-08T10:35:12.000Z</time>
      </trkpt>
      <trkpt lat="43.64987" lon="6.66025">
        <ele>649.95</ele>
        <time>2019-12-08T10:35:13.000Z</time>
      </trkpt>
      <trkpt lat="43.64991" lon="6.66026">
        <ele>650</ele>
        <time>2019-12-08T10:35:14.000Z</time>
      </trkpt>
      <trkpt lat="43.64994" lon="6.66027">
        <ele>650.12</ele>
        <time>2019-12-08T10:35:15.000Z</time>
      </trkpt>
      <trkpt lat="43.64997" lon="6.66027">
        <ele>650.17</ele>
        <time>2019-12-08T10:35:16.000Z</time>
      </trkpt>
      <trkpt lat="43.65" lon="6.66028">
        <ele>650.39</ele>
        <time>2019-12-08T10:35:17.000Z</time>
      </trkpt>
      <trkpt lat="43.65003" lon="6.66029">
        <ele>650.71</ele>
        <time>2019-12-08T10:35:18.000Z</time>
      </trkpt>
      <trkpt lat="43.65006" lon="6.66029">
        <ele>650.92</ele>
        <time>2019-12-08T10:35:19.000Z</time>
      </trkpt>
      <trkpt lat="43.6501" lon="6.6603">
        <ele>651.06</ele>
        <time>2019-12-08T10:35:20.000Z</time>
      </trkpt>
      <trkpt lat="43.65013" lon="6.66031">
        <ele>651.19</ele>
        <time>2019-12-08T10:35:21.000Z</time>
      </trkpt>
      <trkpt lat="43.65016" lon="6.66032">
        <ele>651.3</ele>
        <time>2019-12-08T10:35:22.000Z</time>
      </trkpt>
      <trkpt lat="43.65019" lon="6.66034">
        <ele>651.54</ele>
        <time>2019-12-08T10:35:23.000Z</time>
      </trkpt>
      <trkpt lat="43.65022" lon="6.66034">
        <ele>651.67</ele>
        <time>2019-12-08T10:35:24.000Z</time>
      </trkpt>
      <trkpt lat="43.65026" lon="6.66035">
        <ele>651.95</ele>
        <time>2019-12-08T10:35:25.000Z</time>
      </trkpt>
      <trkpt lat="43.65029" lon="6.66036">
        <ele>652.3</ele>
        <time>2019-12-08T10:35:26.000Z</time>
      </trkpt>
      <trkpt lat="43.65032" lon="6.66037">
        <ele>652.58</ele>
        <time>2019-12-08T10:35:27.000Z</time>
      </trkpt>
      <trkpt lat="43.65036" lon="6.66038">
        <ele>652.85</ele>
        <time>2019-12-08T10:35:28.000Z</time>
      </trkpt>
      <trkpt lat="43.6504" lon="6.66038">
        <ele>653.04</ele>
        <time>2019-12-08T10:35:29.000Z</time>
      </trkpt>
      <trkpt lat="43.65043" lon="6.66038">
        <ele>653.32</ele>
        <time>2019-12-08T10:35:30.000Z</time>
      </trkpt>
      <trkpt lat="43.65046" lon="6.66039">
        <ele>653.59</ele>
        <time>2019-12-08T10:35:31.000Z</time>
      </trkpt>
      <trkpt lat="43.65049" lon="6.66039">
        <ele>653.7</ele>
        <time>2019-12-08T10:35:32.000Z</time>
      </trkpt>
      <trkpt lat="43.65053" lon="6.66039">
        <ele>653.98</ele>
        <time>2019-12-08T10:35:33.000Z</time>
      </trkpt>
      <trkpt lat="43.65057" lon="6.66039">
        <ele>654.17</ele>
        <time>2019-12-08T10:35:34.000Z</time>
      </trkpt>
      <trkpt lat="43.6506" lon="6.66038">
        <ele>654.36</ele>
        <time>2019-12-08T10:35:35.000Z</time>
      </trkpt>
      <trkpt lat="43.65064" lon="6.66038">
        <ele>654.61</ele>
        <time>2019-12-08T10:35:36.000Z</time>
      </trkpt>
      <trkpt lat="43.65067" lon="6.66037">
        <ele>654.72</ele>
        <time>2019-12-08T10:35:37.000Z</time>
      </trkpt>
      <trkpt lat="43.6507" lon="6.66036">
        <ele>654.96</ele>
        <time>2019-12-08T10:35:38.000Z</time>
      </trkpt>
      <trkpt lat="43.65074" lon="6.66036">
        <ele>655.2</ele>
        <time>2019-12-08T10:35:39.000Z</time>
      </trkpt>
      <trkpt lat="43.65077" lon="6.66036">
        <ele>655.48</ele>
        <time>2019-12-08T10:35:40.000Z</time>
      </trkpt>
      <trkpt lat="43.65081" lon="6.66036">
        <ele>655.61</ele>
        <time>2019-12-08T10:35:41.000Z</time>
      </trkpt>
      <trkpt lat="43.65084" lon="6.66037">
        <ele>655.72</ele>
        <time>2019-12-08T10:35:42.000Z</time>
      </trkpt>
      <trkpt lat="43.65087" lon="6.66038">
        <ele>655.94</ele>
        <time>2019-12-08T10:35:43.000Z</time>
      </trkpt>
      <trkpt lat="43.6509" lon="6.66039">
        <ele>655.94</ele>
        <time>2019-12-08T10:35:44.000Z</time>
      </trkpt>
      <trkpt lat="43.65094" lon="6.6604">
        <ele>655.94</ele>
        <time>2019-12-08T10:35:45.000Z</time>
      </trkpt>
      <trkpt lat="43.65097" lon="6.66041">
        <ele>656.22</ele>
        <time>2019-12-08T10:35:46.000Z</time>
      </trkpt>
      <trkpt lat="43.65101" lon="6.66042">
        <ele>656.54</ele>
        <time>2019-12-08T10:35:47.000Z</time>
      </trkpt>
      <trkpt lat="43.65105" lon="6.66043">
        <ele>656.99</ele>
        <time>2019-12-08T10:35:48.000Z</time>
      </trkpt>
      <trkpt lat="43.65108" lon="6.66044">
        <ele>657.18</ele>
        <time>2019-12-08T10:35:49.000Z</time>
      </trkpt>
      <trkpt lat="43.65111" lon="6.66045">
        <ele>657.52</ele>
        <time>2019-12-08T10:35:50.000Z</time>
      </trkpt>
      <trkpt lat="43.65114" lon="6.66046">
        <ele>657.68</ele>
        <time>2019-12-08T10:35:51.000Z</time>
      </trkpt>
      <trkpt lat="43.65117" lon="6.66048">
        <ele>657.83</ele>
        <time>2019-12-08T10:35:52.000Z</time>
      </trkpt>
      <trkpt lat="43.65121" lon="6.6605">
        <ele>657.87</ele>
        <time>2019-12-08T10:35:53.000Z</time>
      </trkpt>
      <trkpt lat="43.65124" lon="6.66053">
        <ele>657.97</ele>
        <time>2019-12-08T10:35:54.000Z</time>
      </trkpt>
      <trkpt lat="43.65127" lon="6.66056">
        <ele>658.08</ele>
        <time>2019-12-08T10:35:55.000Z</time>
      </trkpt>
      <trkpt lat="43.65129" lon="6.66059">
        <ele>658.35</ele>
        <time>2019-12-08T10:35:56.000Z</time>
      </trkpt>
      <trkpt lat="43.65132" lon="6.66063">
        <ele>658.65</ele>
        <time>2019-12-08T10:35:57.000Z</time>
      </trkpt>
      <trkpt lat="43.65134" lon="6.66066">
        <ele>658.79</ele>
        <time>2019-12-08T10:35:58.000Z</time>
      </trkpt>
      <trkpt lat="43.65136" lon="6.6607">
        <ele>659.12</ele>
        <time>2019-12-08T10:35:59.000Z</time>
      </trkpt>
      <trkpt lat="43.65138" lon="6.66074">
        <ele>659.34</ele>
        <time>2019-12-08T10:36:00.000Z</time>
      </trkpt>
      <trkpt lat="43.65141" lon="6.66078">
        <ele>659.42</ele>
        <time>2019-12-08T10:36:01.000Z</time>
      </trkpt>
      <trkpt lat="43.65143" lon="6.66082">
        <ele>659.65</ele>
        <time>2019-12-08T10:36:02.000Z</time>
      </trkpt>
      <trkpt lat="43.65145" lon="6.66086">
        <ele>659.82</ele>
        <time>2019-12-08T10:36:03.000Z</time>
      </trkpt>
      <trkpt lat="43.65147" lon="6.66089">
        <ele>659.95</ele>
        <time>2019-12-08T10:36:04.000Z</time>
      </trkpt>
      <trkpt lat="43.6515" lon="6.66093">
        <ele>660.17</ele>
        <time>2019-12-08T10:36:05.000Z</time>
      </trkpt>
      <trkpt lat="43.65152" lon="6.66097">
        <ele>660.28</ele>
        <time>2019-12-08T10:36:06.000Z</time>
      </trkpt>
      <trkpt lat="43.65154" lon="6.661">
        <ele>660.53</ele>
        <time>2019-12-08T10:36:07.000Z</time>
      </trkpt>
      <trkpt lat="43.65156" lon="6.66104">
        <ele>660.79</ele>
        <time>2019-12-08T10:36:08.000Z</time>
      </trkpt>
      <trkpt lat="43.65159" lon="6.66108">
        <ele>660.95</ele>
        <time>2019-12-08T10:36:09.000Z</time>
      </trkpt>
      <trkpt lat="43.65161" lon="6.66111">
        <ele>661.18</ele>
        <time>2019-12-08T10:36:10.000Z</time>
      </trkpt>
      <trkpt lat="43.65164" lon="6.66115">
        <ele>661.34</ele>
        <time>2019-12-08T10:36:11.000Z</time>
      </trkpt>
      <trkpt lat="43.65167" lon="6.66117">
        <ele>661.57</ele>
        <time>2019-12-08T10:36:12.000Z</time>
      </trkpt>
      <trkpt lat="43.65171" lon="6.66119">
        <ele>661.74</ele>
        <time>2019-12-08T10:36:13.000Z</time>
      </trkpt>
      <trkpt lat="43.65174" lon="6.6612">
        <ele>661.74</ele>
        <time>2019-12-08T10:36:14.000Z</time>
      </trkpt>
      <trkpt lat="43.65178" lon="6.6612">
        <ele>661.74</ele>
        <time>2019-12-08T10:36:15.000Z</time>
      </trkpt>
      <trkpt lat="43.65182" lon="6.66119">
        <ele>662</ele>
        <time>2019-12-08T10:36:16.000Z</time>
      </trkpt>
      <trkpt lat="43.65185" lon="6.66118">
        <ele>662.35</ele>
        <time>2019-12-08T10:36:17.000Z</time>
      </trkpt>
      <trkpt lat="43.65188" lon="6.66116">
        <ele>662.47</ele>
        <time>2019-12-08T10:36:18.000Z</time>
      </trkpt>
      <trkpt lat="43.65191" lon="6.66113">
        <ele>662.54</ele>
        <time>2019-12-08T10:36:19.000Z</time>
      </trkpt>
      <trkpt lat="43.65194" lon="6.6611">
        <ele>662.68</ele>
        <time>2019-12-08T10:36:20.000Z</time>
      </trkpt>
      <trkpt lat="43.65197" lon="6.66106">
        <ele>662.76</ele>
        <time>2019-12-08T10:36:21.000Z</time>
      </trkpt>
      <trkpt lat="43.652" lon="6.66103">
        <ele>662.83</ele>
        <time>2019-12-08T10:36:22.000Z</time>
      </trkpt>
      <trkpt lat="43.65203" lon="6.66099">
        <ele>663.03</ele>
        <time>2019-12-08T10:36:23.000Z</time>
      </trkpt>
      <trkpt lat="43.65205" lon="6.66096">
        <ele>663.4</ele>
        <time>2019-12-08T10:36:24.000Z</time>
      </trkpt>
      <trkpt lat="43.65208" lon="6.66092">
        <ele>663.8</ele>
        <time>2019-12-08T10:36:25.000Z</time>
      </trkpt>
      <trkpt lat="43.6521" lon="6.66089">
        <ele>663.98</ele>
        <time>2019-12-08T10:36:26.000Z</time>
      </trkpt>
      <trkpt lat="43.65213" lon="6.66086">
        <ele>664.28</ele>
        <time>2019-12-08T10:36:27.000Z</time>
      </trkpt>
      <trkpt lat="43.65216" lon="6.66082">
        <ele>664.52</ele>
        <time>2019-12-08T10:36:28.000Z</time>
      </trkpt>
      <trkpt lat="43.65218" lon="6.66079">
        <ele>664.71</ele>
        <time>2019-12-08T10:36:29.000Z</time>
      </trkpt>
      <trkpt lat="43.65221" lon="6.66076">
        <ele>664.79</ele>
        <time>2019-12-08T10:36:30.000Z</time>
      </trkpt>
      <trkpt lat="43.65223" lon="6.66073">
        <ele>664.99</ele>
        <time>2019-12-08T10:36:31.000Z</time>
      </trkpt>
      <trkpt lat="43.65226" lon="6.6607">
        <ele>665.16</ele>
        <time>2019-12-08T10:36:32.000Z</time>
      </trkpt>
      <trkpt lat="43.65229" lon="6.66067">
        <ele>665.38</ele>
        <time>2019-12-08T10:36:33.000Z</time>
      </trkpt>
      <trkpt lat="43.65232" lon="6.66064">
        <ele>665.59</ele>
        <time>2019-12-08T10:36:34.000Z</time>
      </trkpt>
      <trkpt lat="43.65234" lon="6.6606">
        <ele>665.67</ele>
        <time>2019-12-08T10:36:35.000Z</time>
      </trkpt>
      <trkpt lat="43.65237" lon="6.66057">
        <ele>665.67</ele>
        <time>2019-12-08T10:36:36.000Z</time>
      </trkpt>
      <trkpt lat="43.65239" lon="6.66053">
        <ele>665.67</ele>
        <time>2019-12-08T10:36:37.000Z</time>
      </trkpt>
      <trkpt lat="43.65242" lon="6.6605">
        <ele>665.82</ele>
        <time>2019-12-08T10:36:38.000Z</time>
      </trkpt>
      <trkpt lat="43.65244" lon="6.66046">
        <ele>666.13</ele>
        <time>2019-12-08T10:36:39.000Z</time>
      </trkpt>
      <trkpt lat="43.65247" lon="6.66043">
        <ele>666.41</ele>
        <time>2019-12-08T10:36:40.000Z</time>
      </trkpt>
      <trkpt lat="43.65249" lon="6.66039">
        <ele>666.72</ele>
        <time>2019-12-08T10:36:41.000Z</time>
      </trkpt>
      <trkpt lat="43.65252" lon="6.66036">
        <ele>666.95</ele>
        <time>2019-12-08T10:36:42.000Z</time>
      </trkpt>
      <trkpt lat="43.65255" lon="6.66032">
        <ele>667.01</ele>
        <time>2019-12-08T10:36:43.000Z</time>
      </trkpt>
      <trkpt lat="43.65257" lon="6.66029">
        <ele>667.22</ele>
        <time>2019-12-08T10:36:44.000Z</time>
      </trkpt>
      <trkpt lat="43.65259" lon="6.66025">
        <ele>667.44</ele>
        <time>2019-12-08T10:36:45.000Z</time>
      </trkpt>
      <trkpt lat="43.65262" lon="6.66022">
        <ele>667.6</ele>
        <time>2019-12-08T10:36:46.000Z</time>
      </trkpt>
      <trkpt lat="43.65264" lon="6.66019">
        <ele>667.72</ele>
        <time>2019-12-08T10:36:47.000Z</time>
      </trkpt>
      <trkpt lat="43.65267" lon="6.66015">
        <ele>667.97</ele>
        <time>2019-12-08T10:36:48.000Z</time>
      </trkpt>
      <trkpt lat="43.65269" lon="6.66012">
        <ele>668.22</ele>
        <time>2019-12-08T10:36:49.000Z</time>
      </trkpt>
      <trkpt lat="43.65272" lon="6.66009">
        <ele>668.45</ele>
        <time>2019-12-08T10:36:50.000Z</time>
      </trkpt>
      <trkpt lat="43.65274" lon="6.66005">
        <ele>668.6</ele>
        <time>2019-12-08T10:36:51.000Z</time>
      </trkpt>
      <trkpt lat="43.65277" lon="6.66002">
        <ele>668.84</ele>
        <time>2019-12-08T10:36:52.000Z</time>
      </trkpt>
      <trkpt lat="43.6528" lon="6.65998">
        <ele>669.08</ele>
        <time>2019-12-08T10:36:53.000Z</time>
      </trkpt>
      <trkpt lat="43.65282" lon="6.65994">
        <ele>669.33</ele>
        <time>2019-12-08T10:36:54.000Z</time>
      </trkpt>
      <trkpt lat="43.65285" lon="6.65991">
        <ele>669.45</ele>
        <time>2019-12-08T10:36:55.000Z</time>
      </trkpt>
      <trkpt lat="43.65288" lon="6.65987">
        <ele>669.64</ele>
        <time>2019-12-08T10:36:56.000Z</time>
      </trkpt>
      <trkpt lat="43.6529" lon="6.65984">
        <ele>669.83</ele>
        <time>2019-12-08T10:36:57.000Z</time>
      </trkpt>
      <trkpt lat="43.65293" lon="6.65981">
        <ele>669.97</ele>
        <time>2019-12-08T10:36:58.000Z</time>
      </trkpt>
      <trkpt lat="43.65296" lon="6.65978">
        <ele>670.07</ele>
        <time>2019-12-08T10:36:59.000Z</time>
      </trkpt>
      <trkpt lat="43.65299" lon="6.65975">
        <ele>670.29</ele>
        <time>2019-12-08T10:37:00.000Z</time>
      </trkpt>
      <trkpt lat="43.65303" lon="6.65973">
        <ele>670.47</ele>
        <time>2019-12-08T10:37:01.000Z</time>
      </trkpt>
      <trkpt lat="43.65306" lon="6.65972">
        <ele>670.7</ele>
        <time>2019-12-08T10:37:02.000Z</time>
      </trkpt>
      <trkpt lat="43.6531" lon="6.65971">
        <ele>670.77</ele>
        <time>2019-12-08T10:37:03.000Z</time>
      </trkpt>
      <trkpt lat="43.65313" lon="6.65972">
        <ele>670.91</ele>
        <time>2019-12-08T10:37:04.000Z</time>
      </trkpt>
      <trkpt lat="43.65317" lon="6.65973">
        <ele>671.02</ele>
        <time>2019-12-08T10:37:05.000Z</time>
      </trkpt>
      <trkpt lat="43.65321" lon="6.65973">
        <ele>671.16</ele>
        <time>2019-12-08T10:37:06.000Z</time>
      </trkpt>
      <trkpt lat="43.65324" lon="6.65974">
        <ele>671.21</ele>
        <time>2019-12-08T10:37:07.000Z</time>
      </trkpt>
      <trkpt lat="43.65327" lon="6.65975">
        <ele>671.35</ele>
        <time>2019-12-08T10:37:08.000Z</time>
      </trkpt>
      <trkpt lat="43.65331" lon="6.65975">
        <ele>671.58</ele>
        <time>2019-12-08T10:37:09.000Z</time>
      </trkpt>
      <trkpt lat="43.65334" lon="6.65976">
        <ele>671.83</ele>
        <time>2019-12-08T10:37:10.000Z</time>
      </trkpt>
      <trkpt lat="43.65337" lon="6.65977">
        <ele>672.08</ele>
        <time>2019-12-08T10:37:11.000Z</time>
      </trkpt>
      <trkpt lat="43.65341" lon="6.65978">
        <ele>672.22</ele>
        <time>2019-12-08T10:37:12.000Z</time>
      </trkpt>
      <trkpt lat="43.65345" lon="6.65978">
        <ele>672.46</ele>
        <time>2019-12-08T10:37:13.000Z</time>
      </trkpt>
      <trkpt lat="43.65348" lon="6.65979">
        <ele>672.67</ele>
        <time>2019-12-08T10:37:14.000Z</time>
      </trkpt>
      <trkpt lat="43.65351" lon="6.6598">
        <ele>672.78</ele>
        <time>2019-12-08T10:37:15.000Z</time>
      </trkpt>
      <trkpt lat="43.65355" lon="6.6598">
        <ele>672.99</ele>
        <time>2019-12-08T10:37:16.000Z</time>
      </trkpt>
      <trkpt lat="43.65358" lon="6.65981">
        <ele>673.24</ele>
        <time>2019-12-08T10:37:17.000Z</time>
      </trkpt>
      <trkpt lat="43.65362" lon="6.65981">
        <ele>673.51</ele>
        <time>2019-12-08T10:37:18.000Z</time>
      </trkpt>
      <trkpt lat="43.65365" lon="6.65981">
        <ele>673.8</ele>
        <time>2019-12-08T10:37:19.000Z</time>
      </trkpt>
      <trkpt lat="43.65369" lon="6.65981">
        <ele>673.97</ele>
        <time>2019-12-08T10:37:20.000Z</time>
      </trkpt>
      <trkpt lat="43.65373" lon="6.6598">
        <ele>673.97</ele>
        <time>2019-12-08T10:37:21.000Z</time>
      </trkpt>
      <trkpt lat="43.65377" lon="6.65979">
        <ele>673.97</ele>
        <time>2019-12-08T10:37:22.000Z</time>
      </trkpt>
      <trkpt lat="43.65381" lon="6.65977">
        <ele>674.33</ele>
        <time>2019-12-08T10:37:23.000Z</time>
      </trkpt>
      <trkpt lat="43.65384" lon="6.65975">
        <ele>674.49</ele>
        <time>2019-12-08T10:37:24.000Z</time>
      </trkpt>
      <trkpt lat="43.65387" lon="6.65973">
        <ele>674.79</ele>
        <time>2019-12-08T10:37:25.000Z</time>
      </trkpt>
      <trkpt lat="43.6539" lon="6.6597">
        <ele>674.99</ele>
        <time>2019-12-08T10:37:26.000Z</time>
      </trkpt>
      <trkpt lat="43.65393" lon="6.65967">
        <ele>675.15</ele>
        <time>2019-12-08T10:37:27.000Z</time>
      </trkpt>
      <trkpt lat="43.65396" lon="6.65964">
        <ele>675.3</ele>
        <time>2019-12-08T10:37:28.000Z</time>
      </trkpt>
      <trkpt lat="43.65398" lon="6.65961">
        <ele>675.52</ele>
        <time>2019-12-08T10:37:29.000Z</time>
      </trkpt>
      <trkpt lat="43.65401" lon="6.65958">
        <ele>675.77</ele>
        <time>2019-12-08T10:37:30.000Z</time>
      </trkpt>
      <trkpt lat="43.65404" lon="6.65955">
        <ele>676.04</ele>
        <time>2019-12-08T10:37:31.000Z</time>
      </trkpt>
      <trkpt lat="43.65406" lon="6.65952">
        <ele>676.18</ele>
        <time>2019-12-08T10:37:32.000Z</time>
      </trkpt>
      <trkpt lat="43.65409" lon="6.65949">
        <ele>676.41</ele>
        <time>2019-12-08T10:37:33.000Z</time>
      </trkpt>
      <trkpt lat="43.65411" lon="6.65946">
        <ele>676.63</ele>
        <time>2019-12-08T10:37:34.000Z</time>
      </trkpt>
      <trkpt lat="43.65414" lon="6.65943">
        <ele>676.91</ele>
        <time>2019-12-08T10:37:35.000Z</time>
      </trkpt>
      <trkpt lat="43.65416" lon="6.65939">
        <ele>677.04</ele>
        <time>2019-12-08T10:37:36.000Z</time>
      </trkpt>
      <trkpt lat="43.65419" lon="6.65936">
        <ele>677.29</ele>
        <time>2019-12-08T10:37:37.000Z</time>
      </trkpt>
      <trkpt lat="43.65421" lon="6.65933">
        <ele>677.57</ele>
        <time>2019-12-08T10:37:38.000Z</time>
      </trkpt>
      <trkpt lat="43.65424" lon="6.6593">
        <ele>677.84</ele>
        <time>2019-12-08T10:37:39.000Z</time>
      </trkpt>
      <trkpt lat="43.65427" lon="6.65928">
        <ele>677.92</ele>
        <time>2019-12-08T10:37:40.000Z</time>
      </trkpt>
      <trkpt lat="43.6543" lon="6.65926">
        <ele>678.09</ele>
        <time>2019-12-08T10:37:41.000Z</time>
      </trkpt>
      <trkpt lat="43.65433" lon="6.65926">
        <ele>678.24</ele>
        <time>2019-12-08T10:37:42.000Z</time>
      </trkpt>
      <trkpt lat="43.65437" lon="6.65927">
        <ele>678.25</ele>
        <time>2019-12-08T10:37:43.000Z</time>
      </trkpt>
      <trkpt lat="43.6544" lon="6.6593">
        <ele>678.25</ele>
        <time>2019-12-08T10:37:44.000Z</time>
      </trkpt>
      <trkpt lat="43.65441" lon="6.65935">
        <ele>678.25</ele>
        <time>2019-12-08T10:37:45.000Z</time>
      </trkpt>
      <trkpt lat="43.65442" lon="6.6594">
        <ele>678.56</ele>
        <time>2019-12-08T10:37:46.000Z</time>
      </trkpt>
      <trkpt lat="43.65441" lon="6.65944">
        <ele>678.84</ele>
        <time>2019-12-08T10:37:47.000Z</time>
      </trkpt>
      <trkpt lat="43.65439" lon="6.65948">
        <ele>679.16</ele>
        <time>2019-12-08T10:37:48.000Z</time>
      </trkpt>
      <trkpt lat="43.65438" lon="6.65953">
        <ele>679.35</ele>
        <time>2019-12-08T10:37:49.000Z</time>
      </trkpt>
      <trkpt lat="43.65436" lon="6.65957">
        <ele>679.68</ele>
        <time>2019-12-08T10:37:50.000Z</time>
      </trkpt>
      <trkpt lat="43.65434" lon="6.65961">
        <ele>679.9</ele>
        <time>2019-12-08T10:37:51.000Z</time>
      </trkpt>
      <trkpt lat="43.65433" lon="6.65965">
        <ele>680.12</ele>
        <time>2019-12-08T10:37:52.000Z</time>
      </trkpt>
      <trkpt lat="43.65431" lon="6.65969">
        <ele>680.24</ele>
        <time>2019-12-08T10:37:53.000Z</time>
      </trkpt>
      <trkpt lat="43.65429" lon="6.65974">
        <ele>680.43</ele>
        <time>2019-12-08T10:37:54.000Z</time>
      </trkpt>
      <trkpt lat="43.65428" lon="6.65978">
        <ele>680.69</ele>
        <time>2019-12-08T10:37:55.000Z</time>
      </trkpt>
      <trkpt lat="43.65426" lon="6.65982">
        <ele>680.85</ele>
        <time>2019-12-08T10:37:56.000Z</time>
      </trkpt>
      <trkpt lat="43.65424" lon="6.65986">
        <ele>680.92</ele>
        <time>2019-12-08T10:37:57.000Z</time>
      </trkpt>
      <trkpt lat="43.65422" lon="6.65991">
        <ele>681.13</ele>
        <time>2019-12-08T10:37:58.000Z</time>
      </trkpt>
      <trkpt lat="43.65421" lon="6.65995">
        <ele>681.3</ele>
        <time>2019-12-08T10:37:59.000Z</time>
      </trkpt>
      <trkpt lat="43.65419" lon="6.66">
        <ele>681.54</ele>
        <time>2019-12-08T10:38:00.000Z</time>
      </trkpt>
      <trkpt lat="43.65418" lon="6.66004">
        <ele>681.68</ele>
        <time>2019-12-08T10:38:01.000Z</time>
      </trkpt>
      <trkpt lat="43.65416" lon="6.66008">
        <ele>681.95</ele>
        <time>2019-12-08T10:38:02.000Z</time>
      </trkpt>
      <trkpt lat="43.65414" lon="6.66012">
        <ele>682.22</ele>
        <time>2019-12-08T10:38:03.000Z</time>
      </trkpt>
      <trkpt lat="43.65412" lon="6.66016">
        <ele>682.47</ele>
        <time>2019-12-08T10:38:04.000Z</time>
      </trkpt>
      <trkpt lat="43.6541" lon="6.6602">
        <ele>682.6</ele>
        <time>2019-12-08T10:38:05.000Z</time>
      </trkpt>
      <trkpt lat="43.65409" lon="6.66024">
        <ele>682.89</ele>
        <time>2019-12-08T10:38:06.000Z</time>
      </trkpt>
      <trkpt lat="43.65407" lon="6.66029">
        <ele>683.22</ele>
        <time>2019-12-08T10:38:07.000Z</time>
      </trkpt>
      <trkpt lat="43.65405" lon="6.66033">
        <ele>683.55</ele>
        <time>2019-12-08T10:38:08.000Z</time>
      </trkpt>
      <trkpt lat="43.65403" lon="6.66037">
        <ele>683.73</ele>
        <time>2019-12-08T10:38:09.000Z</time>
      </trkpt>
      <trkpt lat="43.65402" lon="6.66042">
        <ele>684.05</ele>
        <time>2019-12-08T10:38:10.000Z</time>
      </trkpt>
      <trkpt lat="43.654" lon="6.66046">
        <ele>684.31</ele>
        <time>2019-12-08T10:38:11.000Z</time>
      </trkpt>
      <trkpt lat="43.65398" lon="6.66051">
        <ele>684.53</ele>
        <time>2019-12-08T10:38:12.000Z</time>
      </trkpt>
      <trkpt lat="43.65397" lon="6.66055">
        <ele>684.62</ele>
        <time>2019-12-08T10:38:13.000Z</time>
      </trkpt>
      <trkpt lat="43.65395" lon="6.66059">
        <ele>684.77</ele>
        <time>2019-12-08T10:38:14.000Z</time>
      </trkpt>
      <trkpt lat="43.65393" lon="6.66063">
        <ele>684.96</ele>
        <time>2019-12-08T10:38:15.000Z</time>
      </trkpt>
      <trkpt lat="43.65391" lon="6.66068">
        <ele>685.2</ele>
        <time>2019-12-08T10:38:16.000Z</time>
      </trkpt>
      <trkpt lat="43.65389" lon="6.66072">
        <ele>685.34</ele>
        <time>2019-12-08T10:38:17.000Z</time>
      </trkpt>
      <trkpt lat="43.65387" lon="6.66076">
        <ele>685.62</ele>
        <time>2019-12-08T10:38:18.000Z</time>
      </trkpt>
      <trkpt lat="43.65386" lon="6.6608">
        <ele>685.87</ele>
        <time>2019-12-08T10:38:19.000Z</time>
      </trkpt>
      <trkpt lat="43.65384" lon="6.66085">
        <ele>686.1</ele>
        <time>2019-12-08T10:38:20.000Z</time>
      </trkpt>
      <trkpt lat="43.65382" lon="6.66089">
        <ele>686.31</ele>
        <time>2019-12-08T10:38:21.000Z</time>
      </trkpt>
      <trkpt lat="43.6538" lon="6.66093">
        <ele>686.37</ele>
        <time>2019-12-08T10:38:22.000Z</time>
      </trkpt>
      <trkpt lat="43.65379" lon="6.66098">
        <ele>686.51</ele>
        <time>2019-12-08T10:38:23.000Z</time>
      </trkpt>
      <trkpt lat="43.65378" lon="6.66102">
        <ele>686.71</ele>
        <time>2019-12-08T10:38:24.000Z</time>
      </trkpt>
      <trkpt lat="43.65377" lon="6.66107">
        <ele>686.96</ele>
        <time>2019-12-08T10:38:25.000Z</time>
      </trkpt>
      <trkpt lat="43.65376" lon="6.66112">
        <ele>687.05</ele>
        <time>2019-12-08T10:38:26.000Z</time>
      </trkpt>
      <trkpt lat="43.65375" lon="6.66117">
        <ele>687.27</ele>
        <time>2019-12-08T10:38:27.000Z</time>
      </trkpt>
      <trkpt lat="43.65375" lon="6.66123">
        <ele>687.47</ele>
        <time>2019-12-08T10:38:28.000Z</time>
      </trkpt>
      <trkpt lat="43.65375" lon="6.66128">
        <ele>687.63</ele>
        <time>2019-12-08T10:38:29.000Z</time>
      </trkpt>
      <trkpt lat="43.65376" lon="6.66133">
        <ele>687.67</ele>
        <time>2019-12-08T10:38:30.000Z</time>
      </trkpt>
      <trkpt lat="43.65377" lon="6.66138">
        <ele>687.82</ele>
        <time>2019-12-08T10:38:31.000Z</time>
      </trkpt>
      <trkpt lat="43.65377" lon="6.66143">
        <ele>688</ele>
        <time>2019-12-08T10:38:32.000Z</time>
      </trkpt>
      <trkpt lat="43.65378" lon="6.66148">
        <ele>688.18</ele>
        <time>2019-12-08T10:38:33.000Z</time>
      </trkpt>
      <trkpt lat="43.65379" lon="6.66152">
        <ele>688.28</ele>
        <time>2019-12-08T10:38:34.000Z</time>
      </trkpt>
      <trkpt lat="43.6538" lon="6.66157">
        <ele>688.54</ele>
        <time>2019-12-08T10:38:35.000Z</time>
      </trkpt>
      <trkpt lat="43.65382" lon="6.66162">
        <ele>688.76</ele>
        <time>2019-12-08T10:38:36.000Z</time>
      </trkpt>
      <trkpt lat="43.65383" lon="6.66166">
        <ele>689.01</ele>
        <time>2019-12-08T10:38:37.000Z</time>
      </trkpt>
      <trkpt lat="43.65384" lon="6.66171">
        <ele>689.16</ele>
        <time>2019-12-08T10:38:38.000Z</time>
      </trkpt>
      <trkpt lat="43.65385" lon="6.66176">
        <ele>689.42</ele>
        <time>2019-12-08T10:38:39.000Z</time>
      </trkpt>
      <trkpt lat="43.65386" lon="6.6618">
        <ele>689.66</ele>
        <time>2019-12-08T10:38:40.000Z</time>
      </trkpt>
      <trkpt lat="43.65387" lon="6.66185">
        <ele>689.93</ele>
        <time>2019-12-08T10:38:41.000Z</time>
      </trkpt>
      <trkpt lat="43.65389" lon="6.66189">
        <ele>690.09</ele>
        <time>2019-12-08T10:38:42.000Z</time>
      </trkpt>
      <trkpt lat="43.6539" lon="6.66194">
        <ele>690.36</ele>
        <time>2019-12-08T10:38:43.000Z</time>
      </trkpt>
      <trkpt lat="43.65391" lon="6.66198">
        <ele>690.58</ele>
        <time>2019-12-08T10:38:44.000Z</time>
      </trkpt>
      <trkpt lat="43.65392" lon="6.66203">
        <ele>690.84</ele>
        <time>2019-12-08T10:38:45.000Z</time>
      </trkpt>
      <trkpt lat="43.65394" lon="6.66207">
        <ele>690.94</ele>
        <time>2019-12-08T10:38:46.000Z</time>
      </trkpt>
      <trkpt lat="43.65395" lon="6.66212">
        <ele>691.11</ele>
        <time>2019-12-08T10:38:47.000Z</time>
      </trkpt>
      <trkpt lat="43.65396" lon="6.66216">
        <ele>691.35</ele>
        <time>2019-12-08T10:38:48.000Z</time>
      </trkpt>
      <trkpt lat="43.65398" lon="6.66221">
        <ele>691.63</ele>
        <time>2019-12-08T10:38:49.000Z</time>
      </trkpt>
      <trkpt lat="43.65399" lon="6.66225">
        <ele>691.83</ele>
        <time>2019-12-08T10:38:50.000Z</time>
      </trkpt>
      <trkpt lat="43.65401" lon="6.66229">
        <ele>691.96</ele>
        <time>2019-12-08T10:38:51.000Z</time>
      </trkpt>
      <trkpt lat="43.65402" lon="6.66234">
        <ele>692.28</ele>
        <time>2019-12-08T10:38:52.000Z</time>
      </trkpt>
      <trkpt lat="43.65403" lon="6.66238">
        <ele>692.46</ele>
        <time>2019-12-08T10:38:53.000Z</time>
      </trkpt>
      <trkpt lat="43.65405" lon="6.66243">
        <ele>692.58</ele>
        <time>2019-12-08T10:38:54.000Z</time>
      </trkpt>
      <trkpt lat="43.65406" lon="6.66247">
        <ele>692.79</ele>
        <time>2019-12-08T10:38:55.000Z</time>
      </trkpt>
      <trkpt lat="43.65407" lon="6.66252">
        <ele>692.91</ele>
        <time>2019-12-08T10:38:56.000Z</time>
      </trkpt>
      <trkpt lat="43.65409" lon="6.66257">
        <ele>693.01</ele>
        <time>2019-12-08T10:38:57.000Z</time>
      </trkpt>
      <trkpt lat="43.6541" lon="6.66261">
        <ele>693.24</ele>
        <time>2019-12-08T10:38:58.000Z</time>
      </trkpt>
      <trkpt lat="43.65411" lon="6.66266">
        <ele>693.36</ele>
        <time>2019-12-08T10:38:59.000Z</time>
      </trkpt>
      <trkpt lat="43.65412" lon="6.66271">
        <ele>693.6</ele>
        <time>2019-12-08T10:39:00.000Z</time>
      </trkpt>
      <trkpt lat="43.65412" lon="6.66276">
        <ele>693.8</ele>
        <time>2019-12-08T10:39:01.000Z</time>
      </trkpt>
      <trkpt lat="43.65412" lon="6.66281">
        <ele>693.98</ele>
        <time>2019-12-08T10:39:02.000Z</time>
      </trkpt>
      <trkpt lat="43.65413" lon="6.66285">
        <ele>694.08</ele>
        <time>2019-12-08T10:39:03.000Z</time>
      </trkpt>
      <trkpt lat="43.65413" lon="6.66289">
        <ele>694.26</ele>
        <time>2019-12-08T10:39:04.000Z</time>
      </trkpt>
      <trkpt lat="43.65413" lon="6.66294">
        <ele>694.5</ele>
        <time>2019-12-08T10:39:05.000Z</time>
      </trkpt>
      <trkpt lat="43.65413" lon="6.66298">
        <ele>694.8</ele>
        <time>2019-12-08T10:39:06.000Z</time>
      </trkpt>
      <trkpt lat="43.65412" lon="6.66303">
        <ele>694.96</ele>
        <time>2019-12-08T10:39:07.000Z</time>
      </trkpt>
      <trkpt lat="43.65412" lon="6.66308">
        <ele>695.25</ele>
        <time>2019-12-08T10:39:08.000Z</time>
      </trkpt>
      <trkpt lat="43.65411" lon="6.66312">
        <ele>695.54</ele>
        <time>2019-12-08T10:39:09.000Z</time>
      </trkpt>
      <trkpt lat="43.6541" lon="6.66317">
        <ele>695.83</ele>
        <time>2019-12-08T10:39:10.000Z</time>
      </trkpt>
      <trkpt lat="43.6541" lon="6.66322">
        <ele>695.97</ele>
        <time>2019-12-08T10:39:11.000Z</time>
      </trkpt>
      <trkpt lat="43.65409" lon="6.66327">
        <ele>696.24</ele>
        <time>2019-12-08T10:39:12.000Z</time>
      </trkpt>
      <trkpt lat="43.65408" lon="6.66331">
        <ele>696.59</ele>
        <time>2019-12-08T10:39:13.000Z</time>
      </trkpt>
      <trkpt lat="43.65407" lon="6.66336">
        <ele>696.9</ele>
        <time>2019-12-08T10:39:14.000Z</time>
      </trkpt>
      <trkpt lat="43.65407" lon="6.66341">
        <ele>697.05</ele>
        <time>2019-12-08T10:39:15.000Z</time>
      </trkpt>
      <trkpt lat="43.65406" lon="6.66345">
        <ele>697.31</ele>
        <time>2019-12-08T10:39:16.000Z</time>
      </trkpt>
      <trkpt lat="43.65405" lon="6.6635">
        <ele>697.55</ele>
        <time>2019-12-08T10:39:17.000Z</time>
      </trkpt>
      <trkpt lat="43.65405" lon="6.66355">
        <ele>697.74</ele>
        <time>2019-12-08T10:39:18.000Z</time>
      </trkpt>
      <trkpt lat="43.65404" lon="6.66359">
        <ele>697.86</ele>
        <time>2019-12-08T10:39:19.000Z</time>
      </trkpt>
      <trkpt lat="43.65403" lon="6.66364">
        <ele>698.07</ele>
        <time>2019-12-08T10:39:20.000Z</time>
      </trkpt>
      <trkpt lat="43.65402" lon="6.66368">
        <ele>698.25</ele>
        <time>2019-12-08T10:39:21.000Z</time>
      </trkpt>
      <trkpt lat="43.65401" lon="6.66373">
        <ele>698.47</ele>
        <time>2019-12-08T10:39:22.000Z</time>
      </trkpt>
      <trkpt lat="43.65401" lon="6.66378">
        <ele>698.59</ele>
        <time>2019-12-08T10:39:23.000Z</time>
      </trkpt>
      <trkpt lat="43.654" lon="6.66382">
        <ele>698.83</ele>
        <time>2019-12-08T10:39:24.000Z</time>
      </trkpt>
      <trkpt lat="43.65399" lon="6.66387">
        <ele>699.03</ele>
        <time>2019-12-08T10:39:25.000Z</time>
      </trkpt>
      <trkpt lat="43.65399" lon="6.66392">
        <ele>699.24</ele>
        <time>2019-12-08T10:39:26.000Z</time>
      </trkpt>
      <trkpt lat="43.65398" lon="6.66396">
        <ele>699.39</ele>
        <time>2019-12-08T10:39:27.000Z</time>
      </trkpt>
      <trkpt lat="43.65397" lon="6.66401">
        <ele>699.5</ele>
        <time>2019-12-08T10:39:28.000Z</time>
      </trkpt>
      <trkpt lat="43.65397" lon="6.66406">
        <ele>699.69</ele>
        <time>2019-12-08T10:39:29.000Z</time>
      </trkpt>
      <trkpt lat="43.65396" lon="6.66411">
        <ele>699.82</ele>
        <time>2019-12-08T10:39:30.000Z</time>
      </trkpt>
      <trkpt lat="43.65396" lon="6.66416">
        <ele>699.89</ele>
        <time>2019-12-08T10:39:31.000Z</time>
      </trkpt>
      <trkpt lat="43.65396" lon="6.66421">
        <ele>700.07</ele>
        <time>2019-12-08T10:39:32.000Z</time>
      </trkpt>
      <trkpt lat="43.65396" lon="6.66426">
        <ele>700.2</ele>
        <time>2019-12-08T10:39:33.000Z</time>
      </trkpt>
      <trkpt lat="43.65396" lon="6.66431">
        <ele>700.42</ele>
        <time>2019-12-08T10:39:34.000Z</time>
      </trkpt>
      <trkpt lat="43.65396" lon="6.66436">
        <ele>700.6</ele>
        <time>2019-12-08T10:39:35.000Z</time>
      </trkpt>
      <trkpt lat="43.65396" lon="6.66441">
        <ele>700.69</ele>
        <time>2019-12-08T10:39:36.000Z</time>
      </trkpt>
      <trkpt lat="43.65396" lon="6.66446">
        <ele>700.87</ele>
        <time>2019-12-08T10:39:37.000Z</time>
      </trkpt>
      <trkpt lat="43.65396" lon="6.66451">
        <ele>701.01</ele>
        <time>2019-12-08T10:39:38.000Z</time>
      </trkpt>
      <trkpt lat="43.65397" lon="6.66456">
        <ele>701.21</ele>
        <time>2019-12-08T10:39:39.000Z</time>
      </trkpt>
      <trkpt lat="43.65397" lon="6.66461">
        <ele>701.29</ele>
        <time>2019-12-08T10:39:40.000Z</time>
      </trkpt>
      <trkpt lat="43.65398" lon="6.66466">
        <ele>701.49</ele>
        <time>2019-12-08T10:39:41.000Z</time>
      </trkpt>
      <trkpt lat="43.65399" lon="6.6647">
        <ele>701.74</ele>
        <time>2019-12-08T10:39:42.000Z</time>
      </trkpt>
      <trkpt lat="43.654" lon="6.66475">
        <ele>701.99</ele>
        <time>2019-12-08T10:39:43.000Z</time>
      </trkpt>
      <trkpt lat="43.65402" lon="6.66479">
        <ele>702.12</ele>
        <time>2019-12-08T10:39:44.000Z</time>
      </trkpt>
      <trkpt lat="43.65403" lon="6.66484">
        <ele>702.43</ele>
        <time>2019-12-08T10:39:45.000Z</time>
      </trkpt>
      <trkpt lat="43.65405" lon="6.66488">
        <ele>702.69</ele>
        <time>2019-12-08T10:39:46.000Z</time>
      </trkpt>
      <trkpt lat="43.65406" lon="6.66492">
        <ele>702.94</ele>
        <time>2019-12-08T10:39:47.000Z</time>
      </trkpt>
      <trkpt lat="43.65408" lon="6.66496">
        <ele>703.06</ele>
        <time>2019-12-08T10:39:48.000Z</time>
      </trkpt>
      <trkpt lat="43.6541" lon="6.665">
        <ele>703.26</ele>
        <time>2019-12-08T10:39:49.000Z</time>
      </trkpt>
      <trkpt lat="43.65413" lon="6.66504">
        <ele>703.47</ele>
        <time>2019-12-08T10:39:50.000Z</time>
      </trkpt>
      <trkpt lat="43.65415" lon="6.66507">
        <ele>703.68</ele>
        <time>2019-12-08T10:39:51.000Z</time>
      </trkpt>
      <trkpt lat="43.65418" lon="6.6651">
        <ele>703.79</ele>
        <time>2019-12-08T10:39:52.000Z</time>
      </trkpt>
      <trkpt lat="43.6542" lon="6.66513">
        <ele>704.01</ele>
        <time>2019-12-08T10:39:53.000Z</time>
      </trkpt>
      <trkpt lat="43.65423" lon="6.66517">
        <ele>704.34</ele>
        <time>2019-12-08T10:39:54.000Z</time>
      </trkpt>
      <trkpt lat="43.65425" lon="6.6652">
        <ele>704.34</ele>
        <time>2019-12-08T10:39:55.000Z</time>
      </trkpt>
      <trkpt lat="43.65428" lon="6.66522">
        <ele>704.82</ele>
        <time>2019-12-08T10:39:56.000Z</time>
      </trkpt>
      <trkpt lat="43.65431" lon="6.66525">
        <ele>704.97</ele>
        <time>2019-12-08T10:39:57.000Z</time>
      </trkpt>
      <trkpt lat="43.65434" lon="6.66528">
        <ele>705.27</ele>
        <time>2019-12-08T10:39:58.000Z</time>
      </trkpt>
      <trkpt lat="43.65437" lon="6.6653">
        <ele>705.49</ele>
        <time>2019-12-08T10:39:59.000Z</time>
      </trkpt>
      <trkpt lat="43.6544" lon="6.66533">
        <ele>705.59</ele>
        <time>2019-12-08T10:40:00.000Z</time>
      </trkpt>
      <trkpt lat="43.65443" lon="6.66536">
        <ele>705.82</ele>
        <time>2019-12-08T10:40:01.000Z</time>
      </trkpt>
      <trkpt lat="43.65445" lon="6.66539">
        <ele>706.12</ele>
        <time>2019-12-08T10:40:02.000Z</time>
      </trkpt>
      <trkpt lat="43.65448" lon="6.66542">
        <ele>706.39</ele>
        <time>2019-12-08T10:40:03.000Z</time>
      </trkpt>
      <trkpt lat="43.65451" lon="6.66544">
        <ele>706.58</ele>
        <time>2019-12-08T10:40:04.000Z</time>
      </trkpt>
      <trkpt lat="43.65454" lon="6.66547">
        <ele>706.69</ele>
        <time>2019-12-08T10:40:05.000Z</time>
      </trkpt>
      <trkpt lat="43.65457" lon="6.66549">
        <ele>706.87</ele>
        <time>2019-12-08T10:40:06.000Z</time>
      </trkpt>
      <trkpt lat="43.6546" lon="6.66552">
        <ele>707.07</ele>
        <time>2019-12-08T10:40:07.000Z</time>
      </trkpt>
      <trkpt lat="43.65463" lon="6.66555">
        <ele>707.15</ele>
        <time>2019-12-08T10:40:08.000Z</time>
      </trkpt>
      <trkpt lat="43.65466" lon="6.66557">
        <ele>707.42</ele>
        <time>2019-12-08T10:40:09.000Z</time>
      </trkpt>
      <trkpt lat="43.65469" lon="6.6656">
        <ele>707.69</ele>
        <time>2019-12-08T10:40:10.000Z</time>
      </trkpt>
      <trkpt lat="43.65472" lon="6.66563">
        <ele>707.84</ele>
        <time>2019-12-08T10:40:11.000Z</time>
      </trkpt>
      <trkpt lat="43.65475" lon="6.66565">
        <ele>708.1</ele>
        <time>2019-12-08T10:40:12.000Z</time>
      </trkpt>
      <trkpt lat="43.65478" lon="6.66568">
        <ele>708.26</ele>
        <time>2019-12-08T10:40:13.000Z</time>
      </trkpt>
      <trkpt lat="43.65481" lon="6.66571">
        <ele>708.51</ele>
        <time>2019-12-08T10:40:14.000Z</time>
      </trkpt>
      <trkpt lat="43.65484" lon="6.66573">
        <ele>708.71</ele>
        <time>2019-12-08T10:40:15.000Z</time>
      </trkpt>
      <trkpt lat="43.65487" lon="6.66576">
        <ele>708.97</ele>
        <time>2019-12-08T10:40:16.000Z</time>
      </trkpt>
      <trkpt lat="43.6549" lon="6.66579">
        <ele>709.05</ele>
        <time>2019-12-08T10:40:17.000Z</time>
      </trkpt>
      <trkpt lat="43.65493" lon="6.66581">
        <ele>709.25</ele>
        <time>2019-12-08T10:40:18.000Z</time>
      </trkpt>
      <trkpt lat="43.65496" lon="6.66584">
        <ele>709.47</ele>
        <time>2019-12-08T10:40:19.000Z</time>
      </trkpt>
      <trkpt lat="43.65499" lon="6.66586">
        <ele>709.7</ele>
        <time>2019-12-08T10:40:20.000Z</time>
      </trkpt>
      <trkpt lat="43.65502" lon="6.66589">
        <ele>709.77</ele>
        <time>2019-12-08T10:40:21.000Z</time>
      </trkpt>
      <trkpt lat="43.65505" lon="6.66591">
        <ele>709.95</ele>
        <time>2019-12-08T10:40:22.000Z</time>
      </trkpt>
      <trkpt lat="43.65508" lon="6.66594">
        <ele>710.15</ele>
        <time>2019-12-08T10:40:23.000Z</time>
      </trkpt>
      <trkpt lat="43.65511" lon="6.66597">
        <ele>710.39</ele>
        <time>2019-12-08T10:40:24.000Z</time>
      </trkpt>
      <trkpt lat="43.65514" lon="6.666">
        <ele>710.48</ele>
        <time>2019-12-08T10:40:25.000Z</time>
      </trkpt>
      <trkpt lat="43.65517" lon="6.66603">
        <ele>710.61</ele>
        <time>2019-12-08T10:40:26.000Z</time>
      </trkpt>
      <trkpt lat="43.6552" lon="6.66606">
        <ele>710.69</ele>
        <time>2019-12-08T10:40:27.000Z</time>
      </trkpt>
      <trkpt lat="43.65523" lon="6.66609">
        <ele>710.73</ele>
        <time>2019-12-08T10:40:28.000Z</time>
      </trkpt>
      <trkpt lat="43.65527" lon="6.66612">
        <ele>710.69</ele>
        <time>2019-12-08T10:40:29.000Z</time>
      </trkpt>
      <trkpt lat="43.65529" lon="6.66616">
        <ele>710.74</ele>
        <time>2019-12-08T10:40:30.000Z</time>
      </trkpt>
      <trkpt lat="43.65532" lon="6.66619">
        <ele>710.94</ele>
        <time>2019-12-08T10:40:31.000Z</time>
      </trkpt>
      <trkpt lat="43.65536" lon="6.66623">
        <ele>711.02</ele>
        <time>2019-12-08T10:40:32.000Z</time>
      </trkpt>
      <trkpt lat="43.65539" lon="6.66627">
        <ele>711.22</ele>
        <time>2019-12-08T10:40:33.000Z</time>
      </trkpt>
      <trkpt lat="43.65542" lon="6.66631">
        <ele>711.25</ele>
        <time>2019-12-08T10:40:34.000Z</time>
      </trkpt>
      <trkpt lat="43.65545" lon="6.66634">
        <ele>711.23</ele>
        <time>2019-12-08T10:40:35.000Z</time>
      </trkpt>
      <trkpt lat="43.65549" lon="6.66638">
        <ele>711.17</ele>
        <time>2019-12-08T10:40:36.000Z</time>
      </trkpt>
      <trkpt lat="43.65552" lon="6.66642">
        <ele>711.18</ele>
        <time>2019-12-08T10:40:37.000Z</time>
      </trkpt>
      <trkpt lat="43.65556" lon="6.66647">
        <ele>711.16</ele>
        <time>2019-12-08T10:40:38.000Z</time>
      </trkpt>
      <trkpt lat="43.6556" lon="6.66651">
        <ele>711.12</ele>
        <time>2019-12-08T10:40:39.000Z</time>
      </trkpt>
      <trkpt lat="43.65564" lon="6.66656">
        <ele>711.08</ele>
        <time>2019-12-08T10:40:40.000Z</time>
      </trkpt>
      <trkpt lat="43.65569" lon="6.6666">
        <ele>711.04</ele>
        <time>2019-12-08T10:40:41.000Z</time>
      </trkpt>
      <trkpt lat="43.65574" lon="6.66665">
        <ele>710.93</ele>
        <time>2019-12-08T10:40:42.000Z</time>
      </trkpt>
      <trkpt lat="43.65579" lon="6.6667">
        <ele>710.85</ele>
        <time>2019-12-08T10:40:43.000Z</time>
      </trkpt>
      <trkpt lat="43.65583" lon="6.66675">
        <ele>710.87</ele>
        <time>2019-12-08T10:40:44.000Z</time>
      </trkpt>
      <trkpt lat="43.65586" lon="6.6668">
        <ele>710.9</ele>
        <time>2019-12-08T10:40:45.000Z</time>
      </trkpt>
      <trkpt lat="43.65591" lon="6.66685">
        <ele>710.94</ele>
        <time>2019-12-08T10:40:46.000Z</time>
      </trkpt>
      <trkpt lat="43.65595" lon="6.6669">
        <ele>711.09</ele>
        <time>2019-12-08T10:40:47.000Z</time>
      </trkpt>
      <trkpt lat="43.65599" lon="6.66694">
        <ele>711.21</ele>
        <time>2019-12-08T10:40:48.000Z</time>
      </trkpt>
      <trkpt lat="43.65603" lon="6.66699">
        <ele>711.3</ele>
        <time>2019-12-08T10:40:49.000Z</time>
      </trkpt>
      <trkpt lat="43.65607" lon="6.66703">
        <ele>711.37</ele>
        <time>2019-12-08T10:40:50.000Z</time>
      </trkpt>
      <trkpt lat="43.65611" lon="6.66707">
        <ele>711.52</ele>
        <time>2019-12-08T10:40:51.000Z</time>
      </trkpt>
      <trkpt lat="43.65615" lon="6.66711">
        <ele>711.63</ele>
        <time>2019-12-08T10:40:52.000Z</time>
      </trkpt>
      <trkpt lat="43.6562" lon="6.66715">
        <ele>711.77</ele>
        <time>2019-12-08T10:40:53.000Z</time>
      </trkpt>
      <trkpt lat="43.65623" lon="6.6672">
        <ele>711.81</ele>
        <time>2019-12-08T10:40:54.000Z</time>
      </trkpt>
      <trkpt lat="43.65627" lon="6.66724">
        <ele>711.99</ele>
        <time>2019-12-08T10:40:55.000Z</time>
      </trkpt>
      <trkpt lat="43.65631" lon="6.66728">
        <ele>712.14</ele>
        <time>2019-12-08T10:40:56.000Z</time>
      </trkpt>
      <trkpt lat="43.65635" lon="6.66732">
        <ele>712.38</ele>
        <time>2019-12-08T10:40:57.000Z</time>
      </trkpt>
      <trkpt lat="43.65639" lon="6.66736">
        <ele>712.45</ele>
        <time>2019-12-08T10:40:58.000Z</time>
      </trkpt>
      <trkpt lat="43.65643" lon="6.6674">
        <ele>712.62</ele>
        <time>2019-12-08T10:40:59.000Z</time>
      </trkpt>
      <trkpt lat="43.65647" lon="6.66744">
        <ele>712.79</ele>
        <time>2019-12-08T10:41:00.000Z</time>
      </trkpt>
      <trkpt lat="43.65651" lon="6.66749">
        <ele>712.91</ele>
        <time>2019-12-08T10:41:01.000Z</time>
      </trkpt>
      <trkpt lat="43.65654" lon="6.66753">
        <ele>712.95</ele>
        <time>2019-12-08T10:41:02.000Z</time>
      </trkpt>
      <trkpt lat="43.65658" lon="6.66758">
        <ele>713.08</ele>
        <time>2019-12-08T10:41:03.000Z</time>
      </trkpt>
      <trkpt lat="43.65661" lon="6.66763">
        <ele>713.26</ele>
        <time>2019-12-08T10:41:04.000Z</time>
      </trkpt>
      <trkpt lat="43.65665" lon="6.66767">
        <ele>713.42</ele>
        <time>2019-12-08T10:41:05.000Z</time>
      </trkpt>
      <trkpt lat="43.65669" lon="6.66772">
        <ele>713.56</ele>
        <time>2019-12-08T10:41:06.000Z</time>
      </trkpt>
      <trkpt lat="43.65672" lon="6.66777">
        <ele>713.67</ele>
        <time>2019-12-08T10:41:07.000Z</time>
      </trkpt>
      <trkpt lat="43.65675" lon="6.66782">
        <ele>713.82</ele>
        <time>2019-12-08T10:41:08.000Z</time>
      </trkpt>
      <trkpt lat="43.65679" lon="6.66788">
        <ele>714.01</ele>
        <time>2019-12-08T10:41:09.000Z</time>
      </trkpt>
      <trkpt lat="43.65682" lon="6.66793">
        <ele>714.12</ele>
        <time>2019-12-08T10:41:10.000Z</time>
      </trkpt>
      <trkpt lat="43.65685" lon="6.66798">
        <ele>714.27</ele>
        <time>2019-12-08T10:41:11.000Z</time>
      </trkpt>
      <trkpt lat="43.65688" lon="6.66803">
        <ele>714.43</ele>
        <time>2019-12-08T10:41:12.000Z</time>
      </trkpt>
      <trkpt lat="43.65691" lon="6.66808">
        <ele>714.55</ele>
        <time>2019-12-08T10:41:13.000Z</time>
      </trkpt>
      <trkpt lat="43.65694" lon="6.66814">
        <ele>714.69</ele>
        <time>2019-12-08T10:41:14.000Z</time>
      </trkpt>
      <trkpt lat="43.65697" lon="6.66819">
        <ele>714.77</ele>
        <time>2019-12-08T10:41:15.000Z</time>
      </trkpt>
      <trkpt lat="43.657" lon="6.66824">
        <ele>714.92</ele>
        <time>2019-12-08T10:41:16.000Z</time>
      </trkpt>
      <trkpt lat="43.65703" lon="6.66829">
        <ele>715.06</ele>
        <time>2019-12-08T10:41:17.000Z</time>
      </trkpt>
      <trkpt lat="43.65706" lon="6.66835">
        <ele>715.22</ele>
        <time>2019-12-08T10:41:18.000Z</time>
      </trkpt>
      <trkpt lat="43.6571" lon="6.6684">
        <ele>715.3</ele>
        <time>2019-12-08T10:41:19.000Z</time>
      </trkpt>
      <trkpt lat="43.65713" lon="6.66845">
        <ele>715.5</ele>
        <time>2019-12-08T10:41:20.000Z</time>
      </trkpt>
      <trkpt lat="43.65716" lon="6.6685">
        <ele>715.64</ele>
        <time>2019-12-08T10:41:21.000Z</time>
      </trkpt>
      <trkpt lat="43.65718" lon="6.66855">
        <ele>715.71</ele>
        <time>2019-12-08T10:41:22.000Z</time>
      </trkpt>
      <trkpt lat="43.65721" lon="6.66861">
        <ele>715.76</ele>
        <time>2019-12-08T10:41:23.000Z</time>
      </trkpt>
      <trkpt lat="43.65725" lon="6.66866">
        <ele>715.86</ele>
        <time>2019-12-08T10:41:24.000Z</time>
      </trkpt>
      <trkpt lat="43.65727" lon="6.66871">
        <ele>715.92</ele>
        <time>2019-12-08T10:41:25.000Z</time>
      </trkpt>
      <trkpt lat="43.6573" lon="6.66875">
        <ele>716.06</ele>
        <time>2019-12-08T10:41:26.000Z</time>
      </trkpt>
      <trkpt lat="43.65732" lon="6.66881">
        <ele>716.15</ele>
        <time>2019-12-08T10:41:27.000Z</time>
      </trkpt>
      <trkpt lat="43.65735" lon="6.66886">
        <ele>716.2</ele>
        <time>2019-12-08T10:41:28.000Z</time>
      </trkpt>
      <trkpt lat="43.65738" lon="6.66891">
        <ele>716.26</ele>
        <time>2019-12-08T10:41:29.000Z</time>
      </trkpt>
      <trkpt lat="43.65742" lon="6.66896">
        <ele>716.31</ele>
        <time>2019-12-08T10:41:30.000Z</time>
      </trkpt>
      <trkpt lat="43.65745" lon="6.66901">
        <ele>716.34</ele>
        <time>2019-12-08T10:41:31.000Z</time>
      </trkpt>
      <trkpt lat="43.65748" lon="6.66907">
        <ele>716.36</ele>
        <time>2019-12-08T10:41:32.000Z</time>
      </trkpt>
      <trkpt lat="43.65751" lon="6.66913">
        <ele>716.42</ele>
        <time>2019-12-08T10:41:33.000Z</time>
      </trkpt>
      <trkpt lat="43.65755" lon="6.66919">
        <ele>716.39</ele>
        <time>2019-12-08T10:41:34.000Z</time>
      </trkpt>
      <trkpt lat="43.65758" lon="6.66925">
        <ele>716.35</ele>
        <time>2019-12-08T10:41:35.000Z</time>
      </trkpt>
      <trkpt lat="43.65761" lon="6.66931">
        <ele>716.3</ele>
        <time>2019-12-08T10:41:36.000Z</time>
      </trkpt>
      <trkpt lat="43.65764" lon="6.66937">
        <ele>716.13</ele>
        <time>2019-12-08T10:41:37.000Z</time>
      </trkpt>
      <trkpt lat="43.65767" lon="6.66943">
        <ele>715.95</ele>
        <time>2019-12-08T10:41:38.000Z</time>
      </trkpt>
      <trkpt lat="43.65771" lon="6.66949">
        <ele>715.87</ele>
        <time>2019-12-08T10:41:39.000Z</time>
      </trkpt>
      <trkpt lat="43.65775" lon="6.66954">
        <ele>715.71</ele>
        <time>2019-12-08T10:41:40.000Z</time>
      </trkpt>
      <trkpt lat="43.65778" lon="6.6696">
        <ele>715.59</ele>
        <time>2019-12-08T10:41:41.000Z</time>
      </trkpt>
      <trkpt lat="43.65782" lon="6.66966">
        <ele>715.5</ele>
        <time>2019-12-08T10:41:42.000Z</time>
      </trkpt>
      <trkpt lat="43.65785" lon="6.66973">
        <ele>715.47</ele>
        <time>2019-12-08T10:41:43.000Z</time>
      </trkpt>
      <trkpt lat="43.65789" lon="6.6698">
        <ele>715.43</ele>
        <time>2019-12-08T10:41:44.000Z</time>
      </trkpt>
      <trkpt lat="43.65793" lon="6.66987">
        <ele>715.37</ele>
        <time>2019-12-08T10:41:45.000Z</time>
      </trkpt>
      <trkpt lat="43.65796" lon="6.66994">
        <ele>715.33</ele>
        <time>2019-12-08T10:41:46.000Z</time>
      </trkpt>
      <trkpt lat="43.65801" lon="6.67002">
        <ele>715.29</ele>
        <time>2019-12-08T10:41:47.000Z</time>
      </trkpt>
      <trkpt lat="43.65805" lon="6.6701">
        <ele>715.17</ele>
        <time>2019-12-08T10:41:48.000Z</time>
      </trkpt>
      <trkpt lat="43.65809" lon="6.67017">
        <ele>715.12</ele>
        <time>2019-12-08T10:41:49.000Z</time>
      </trkpt>
      <trkpt lat="43.65813" lon="6.67025">
        <ele>715.05</ele>
        <time>2019-12-08T10:41:50.000Z</time>
      </trkpt>
      <trkpt lat="43.65818" lon="6.67032">
        <ele>715.03</ele>
        <time>2019-12-08T10:41:51.000Z</time>
      </trkpt>
      <trkpt lat="43.65822" lon="6.6704">
        <ele>715.02</ele>
        <time>2019-12-08T10:41:52.000Z</time>
      </trkpt>
      <trkpt lat="43.65826" lon="6.67047">
        <ele>714.97</ele>
        <time>2019-12-08T10:41:53.000Z</time>
      </trkpt>
      <trkpt lat="43.6583" lon="6.67054">
        <ele>714.95</ele>
        <time>2019-12-08T10:41:54.000Z</time>
      </trkpt>
      <trkpt lat="43.65833" lon="6.67061">
        <ele>714.98</ele>
        <time>2019-12-08T10:41:55.000Z</time>
      </trkpt>
      <trkpt lat="43.65837" lon="6.67068">
        <ele>715.02</ele>
        <time>2019-12-08T10:41:56.000Z</time>
      </trkpt>
      <trkpt lat="43.65841" lon="6.67075">
        <ele>715.08</ele>
        <time>2019-12-08T10:41:57.000Z</time>
      </trkpt>
      <trkpt lat="43.65845" lon="6.67082">
        <ele>715.14</ele>
        <time>2019-12-08T10:41:58.000Z</time>
      </trkpt>
      <trkpt lat="43.65849" lon="6.6709">
        <ele>715.19</ele>
        <time>2019-12-08T10:41:59.000Z</time>
      </trkpt>
      <trkpt lat="43.65852" lon="6.67097">
        <ele>715.2</ele>
        <time>2019-12-08T10:42:00.000Z</time>
      </trkpt>
      <trkpt lat="43.65856" lon="6.67104">
        <ele>715.19</ele>
        <time>2019-12-08T10:42:01.000Z</time>
      </trkpt>
      <trkpt lat="43.6586" lon="6.67111">
        <ele>715.28</ele>
        <time>2019-12-08T10:42:02.000Z</time>
      </trkpt>
      <trkpt lat="43.65863" lon="6.67119">
        <ele>715.29</ele>
        <time>2019-12-08T10:42:03.000Z</time>
      </trkpt>
      <trkpt lat="43.65867" lon="6.67126">
        <ele>715.24</ele>
        <time>2019-12-08T10:42:04.000Z</time>
      </trkpt>
      <trkpt lat="43.65871" lon="6.67133">
        <ele>715.2</ele>
        <time>2019-12-08T10:42:05.000Z</time>
      </trkpt>
      <trkpt lat="43.65876" lon="6.6714">
        <ele>715.12</ele>
        <time>2019-12-08T10:42:06.000Z</time>
      </trkpt>
      <trkpt lat="43.65881" lon="6.67146">
        <ele>715.05</ele>
        <time>2019-12-08T10:42:07.000Z</time>
      </trkpt>
      <trkpt lat="43.65887" lon="6.67152">
        <ele>715.06</ele>
        <time>2019-12-08T10:42:08.000Z</time>
      </trkpt>
      <trkpt lat="43.65893" lon="6.67157">
        <ele>715.09</ele>
        <time>2019-12-08T10:42:09.000Z</time>
      </trkpt>
      <trkpt lat="43.65899" lon="6.67162">
        <ele>715.1</ele>
        <time>2019-12-08T10:42:10.000Z</time>
      </trkpt>
      <trkpt lat="43.65905" lon="6.67167">
        <ele>715.11</ele>
        <time>2019-12-08T10:42:11.000Z</time>
      </trkpt>
      <trkpt lat="43.65911" lon="6.67171">
        <ele>715.1</ele>
        <time>2019-12-08T10:42:12.000Z</time>
      </trkpt>
      <trkpt lat="43.65916" lon="6.67174">
        <ele>715.12</ele>
        <time>2019-12-08T10:42:13.000Z</time>
      </trkpt>
      <trkpt lat="43.65923" lon="6.67177">
        <ele>715.18</ele>
        <time>2019-12-08T10:42:14.000Z</time>
      </trkpt>
      <trkpt lat="43.65929" lon="6.67179">
        <ele>715.23</ele>
        <time>2019-12-08T10:42:15.000Z</time>
      </trkpt>
      <trkpt lat="43.65938" lon="6.67179">
        <ele>715.25</ele>
        <time>2019-12-08T10:42:16.000Z</time>
      </trkpt>
      <trkpt lat="43.65945" lon="6.67183">
        <ele>715.34</ele>
        <time>2019-12-08T10:42:17.000Z</time>
      </trkpt>
      <trkpt lat="43.65952" lon="6.67183">
        <ele>715.48</ele>
        <time>2019-12-08T10:42:18.000Z</time>
      </trkpt>
      <trkpt lat="43.65958" lon="6.67184">
        <ele>715.67</ele>
        <time>2019-12-08T10:42:19.000Z</time>
      </trkpt>
      <trkpt lat="43.65964" lon="6.67184">
        <ele>715.91</ele>
        <time>2019-12-08T10:42:20.000Z</time>
      </trkpt>
      <trkpt lat="43.6597" lon="6.67184">
        <ele>716.02</ele>
        <time>2019-12-08T10:42:21.000Z</time>
      </trkpt>
      <trkpt lat="43.65975" lon="6.67185">
        <ele>716.29</ele>
        <time>2019-12-08T10:42:22.000Z</time>
      </trkpt>
      <trkpt lat="43.65981" lon="6.67186">
        <ele>716.45</ele>
        <time>2019-12-08T10:42:23.000Z</time>
      </trkpt>
      <trkpt lat="43.65987" lon="6.67187">
        <ele>716.6</ele>
        <time>2019-12-08T10:42:24.000Z</time>
      </trkpt>
      <trkpt lat="43.65992" lon="6.67188">
        <ele>716.68</ele>
        <time>2019-12-08T10:42:25.000Z</time>
      </trkpt>
      <trkpt lat="43.65998" lon="6.67188">
        <ele>716.84</ele>
        <time>2019-12-08T10:42:26.000Z</time>
      </trkpt>
      <trkpt lat="43.66003" lon="6.67189">
        <ele>717</ele>
        <time>2019-12-08T10:42:27.000Z</time>
      </trkpt>
      <trkpt lat="43.66008" lon="6.6719">
        <ele>717.2</ele>
        <time>2019-12-08T10:42:28.000Z</time>
      </trkpt>
      <trkpt lat="43.66013" lon="6.67191">
        <ele>717.29</ele>
        <time>2019-12-08T10:42:29.000Z</time>
      </trkpt>
      <trkpt lat="43.66018" lon="6.67191">
        <ele>717.47</ele>
        <time>2019-12-08T10:42:30.000Z</time>
      </trkpt>
      <trkpt lat="43.66023" lon="6.67192">
        <ele>717.66</ele>
        <time>2019-12-08T10:42:31.000Z</time>
      </trkpt>
      <trkpt lat="43.66028" lon="6.67192">
        <ele>717.88</ele>
        <time>2019-12-08T10:42:32.000Z</time>
      </trkpt>
      <trkpt lat="43.66032" lon="6.67191">
        <ele>717.96</ele>
        <time>2019-12-08T10:42:33.000Z</time>
      </trkpt>
      <trkpt lat="43.66037" lon="6.67191">
        <ele>718.18</ele>
        <time>2019-12-08T10:42:34.000Z</time>
      </trkpt>
      <trkpt lat="43.66042" lon="6.6719">
        <ele>718.36</ele>
        <time>2019-12-08T10:42:35.000Z</time>
      </trkpt>
      <trkpt lat="43.66046" lon="6.67188">
        <ele>718.55</ele>
        <time>2019-12-08T10:42:36.000Z</time>
      </trkpt>
      <trkpt lat="43.66051" lon="6.67187">
        <ele>718.63</ele>
        <time>2019-12-08T10:42:37.000Z</time>
      </trkpt>
      <trkpt lat="43.66056" lon="6.67185">
        <ele>718.81</ele>
        <time>2019-12-08T10:42:38.000Z</time>
      </trkpt>
      <trkpt lat="43.6606" lon="6.67183">
        <ele>718.97</ele>
        <time>2019-12-08T10:42:39.000Z</time>
      </trkpt>
      <trkpt lat="43.66065" lon="6.67181">
        <ele>719.07</ele>
        <time>2019-12-08T10:42:40.000Z</time>
      </trkpt>
      <trkpt lat="43.66069" lon="6.67179">
        <ele>719.15</ele>
        <time>2019-12-08T10:42:41.000Z</time>
      </trkpt>
      <trkpt lat="43.66074" lon="6.67178">
        <ele>719.32</ele>
        <time>2019-12-08T10:42:42.000Z</time>
      </trkpt>
      <trkpt lat="43.66078" lon="6.67176">
        <ele>719.56</ele>
        <time>2019-12-08T10:42:43.000Z</time>
      </trkpt>
      <trkpt lat="43.66082" lon="6.67174">
        <ele>719.79</ele>
        <time>2019-12-08T10:42:44.000Z</time>
      </trkpt>
      <trkpt lat="43.66086" lon="6.67172">
        <ele>719.91</ele>
        <time>2019-12-08T10:42:45.000Z</time>
      </trkpt>
      <trkpt lat="43.6609" lon="6.6717">
        <ele>720.14</ele>
        <time>2019-12-08T10:42:46.000Z</time>
      </trkpt>
      <trkpt lat="43.66094" lon="6.67168">
        <ele>720.35</ele>
        <time>2019-12-08T10:42:47.000Z</time>
      </trkpt>
      <trkpt lat="43.66098" lon="6.67167">
        <ele>720.57</ele>
        <time>2019-12-08T10:42:48.000Z</time>
      </trkpt>
      <trkpt lat="43.66102" lon="6.67165">
        <ele>720.83</ele>
        <time>2019-12-08T10:42:49.000Z</time>
      </trkpt>
      <trkpt lat="43.66105" lon="6.67163">
        <ele>720.99</ele>
        <time>2019-12-08T10:42:50.000Z</time>
      </trkpt>
      <trkpt lat="43.66109" lon="6.67162">
        <ele>721.3</ele>
        <time>2019-12-08T10:42:51.000Z</time>
      </trkpt>
      <trkpt lat="43.66113" lon="6.6716">
        <ele>721.6</ele>
        <time>2019-12-08T10:42:52.000Z</time>
      </trkpt>
      <trkpt lat="43.66117" lon="6.67159">
        <ele>721.89</ele>
        <time>2019-12-08T10:42:53.000Z</time>
      </trkpt>
      <trkpt lat="43.6612" lon="6.67157">
        <ele>722.02</ele>
        <time>2019-12-08T10:42:54.000Z</time>
      </trkpt>
      <trkpt lat="43.66124" lon="6.67156">
        <ele>722.3</ele>
        <time>2019-12-08T10:42:55.000Z</time>
      </trkpt>
      <trkpt lat="43.66127" lon="6.67154">
        <ele>722.58</ele>
        <time>2019-12-08T10:42:56.000Z</time>
      </trkpt>
      <trkpt lat="43.6613" lon="6.67152">
        <ele>722.91</ele>
        <time>2019-12-08T10:42:57.000Z</time>
      </trkpt>
      <trkpt lat="43.66134" lon="6.6715">
        <ele>723.05</ele>
        <time>2019-12-08T10:42:58.000Z</time>
      </trkpt>
      <trkpt lat="43.66137" lon="6.67149">
        <ele>723.28</ele>
        <time>2019-12-08T10:42:59.000Z</time>
      </trkpt>
      <trkpt lat="43.6614" lon="6.67147">
        <ele>723.51</ele>
        <time>2019-12-08T10:43:00.000Z</time>
      </trkpt>
      <trkpt lat="43.66143" lon="6.67147">
        <ele>723.77</ele>
        <time>2019-12-08T10:43:01.000Z</time>
      </trkpt>
      <trkpt lat="43.66146" lon="6.67145">
        <ele>723.86</ele>
        <time>2019-12-08T10:43:02.000Z</time>
      </trkpt>
      <trkpt lat="43.66149" lon="6.67144">
        <ele>724.11</ele>
        <time>2019-12-08T10:43:03.000Z</time>
      </trkpt>
      <trkpt lat="43.66152" lon="6.67142">
        <ele>724.37</ele>
        <time>2019-12-08T10:43:04.000Z</time>
      </trkpt>
      <trkpt lat="43.66156" lon="6.67141">
        <ele>724.65</ele>
        <time>2019-12-08T10:43:05.000Z</time>
      </trkpt>
      <trkpt lat="43.66159" lon="6.6714">
        <ele>724.78</ele>
        <time>2019-12-08T10:43:06.000Z</time>
      </trkpt>
      <trkpt lat="43.66162" lon="6.67139">
        <ele>724.95</ele>
        <time>2019-12-08T10:43:07.000Z</time>
      </trkpt>
      <trkpt lat="43.66165" lon="6.67137">
        <ele>725.33</ele>
        <time>2019-12-08T10:43:08.000Z</time>
      </trkpt>
      <trkpt lat="43.66168" lon="6.67136">
        <ele>725.68</ele>
        <time>2019-12-08T10:43:09.000Z</time>
      </trkpt>
      <trkpt lat="43.66171" lon="6.67135">
        <ele>725.84</ele>
        <time>2019-12-08T10:43:10.000Z</time>
      </trkpt>
      <trkpt lat="43.66175" lon="6.67134">
        <ele>726.14</ele>
        <time>2019-12-08T10:43:11.000Z</time>
      </trkpt>
      <trkpt lat="43.66178" lon="6.67134">
        <ele>726.3</ele>
        <time>2019-12-08T10:43:12.000Z</time>
      </trkpt>
      <trkpt lat="43.66181" lon="6.67134">
        <ele>726.44</ele>
        <time>2019-12-08T10:43:13.000Z</time>
      </trkpt>
      <trkpt lat="43.66185" lon="6.67134">
        <ele>726.51</ele>
        <time>2019-12-08T10:43:14.000Z</time>
      </trkpt>
      <trkpt lat="43.66189" lon="6.67134">
        <ele>726.6</ele>
        <time>2019-12-08T10:43:15.000Z</time>
      </trkpt>
      <trkpt lat="43.66192" lon="6.67134">
        <ele>726.59</ele>
        <time>2019-12-08T10:43:16.000Z</time>
      </trkpt>
      <trkpt lat="43.66196" lon="6.67135">
        <ele>726.6</ele>
        <time>2019-12-08T10:43:17.000Z</time>
      </trkpt>
      <trkpt lat="43.662" lon="6.67137">
        <ele>726.57</ele>
        <time>2019-12-08T10:43:18.000Z</time>
      </trkpt>
      <trkpt lat="43.66204" lon="6.67139">
        <ele>726.54</ele>
        <time>2019-12-08T10:43:19.000Z</time>
      </trkpt>
      <trkpt lat="43.66208" lon="6.67141">
        <ele>726.65</ele>
        <time>2019-12-08T10:43:20.000Z</time>
      </trkpt>
      <trkpt lat="43.66211" lon="6.67144">
        <ele>726.78</ele>
        <time>2019-12-08T10:43:21.000Z</time>
      </trkpt>
      <trkpt lat="43.66215" lon="6.67147">
        <ele>726.98</ele>
        <time>2019-12-08T10:43:22.000Z</time>
      </trkpt>
      <trkpt lat="43.66218" lon="6.6715">
        <ele>726.98</ele>
        <time>2019-12-08T10:43:23.000Z</time>
      </trkpt>
      <trkpt lat="43.66222" lon="6.67153">
        <ele>727.1</ele>
        <time>2019-12-08T10:43:24.000Z</time>
      </trkpt>
      <trkpt lat="43.66226" lon="6.67157">
        <ele>727.12</ele>
        <time>2019-12-08T10:43:25.000Z</time>
      </trkpt>
      <trkpt lat="43.6623" lon="6.6716">
        <ele>727.07</ele>
        <time>2019-12-08T10:43:26.000Z</time>
      </trkpt>
      <trkpt lat="43.66234" lon="6.67164">
        <ele>727.04</ele>
        <time>2019-12-08T10:43:27.000Z</time>
      </trkpt>
      <trkpt lat="43.66238" lon="6.67169">
        <ele>727.04</ele>
        <time>2019-12-08T10:43:28.000Z</time>
      </trkpt>
      <trkpt lat="43.66242" lon="6.67174">
        <ele>727.06</ele>
        <time>2019-12-08T10:43:29.000Z</time>
      </trkpt>
      <trkpt lat="43.66245" lon="6.6718">
        <ele>727</ele>
        <time>2019-12-08T10:43:30.000Z</time>
      </trkpt>
      <trkpt lat="43.66248" lon="6.67186">
        <ele>727</ele>
        <time>2019-12-08T10:43:31.000Z</time>
      </trkpt>
      <trkpt lat="43.66251" lon="6.67192">
        <ele>726.99</ele>
        <time>2019-12-08T10:43:32.000Z</time>
      </trkpt>
      <trkpt lat="43.66254" lon="6.67199">
        <ele>727</ele>
        <time>2019-12-08T10:43:33.000Z</time>
      </trkpt>
      <trkpt lat="43.66256" lon="6.67206">
        <ele>727.15</ele>
        <time>2019-12-08T10:43:34.000Z</time>
      </trkpt>
      <trkpt lat="43.66259" lon="6.67212">
        <ele>727.24</ele>
        <time>2019-12-08T10:43:35.000Z</time>
      </trkpt>
      <trkpt lat="43.66261" lon="6.67219">
        <ele>727.52</ele>
        <time>2019-12-08T10:43:36.000Z</time>
      </trkpt>
      <trkpt lat="43.66263" lon="6.67225">
        <ele>727.78</ele>
        <time>2019-12-08T10:43:37.000Z</time>
      </trkpt>
      <trkpt lat="43.66265" lon="6.67231">
        <ele>728</ele>
        <time>2019-12-08T10:43:38.000Z</time>
      </trkpt>
      <trkpt lat="43.66266" lon="6.67236">
        <ele>728.1</ele>
        <time>2019-12-08T10:43:39.000Z</time>
      </trkpt>
      <trkpt lat="43.66268" lon="6.67242">
        <ele>728.34</ele>
        <time>2019-12-08T10:43:40.000Z</time>
      </trkpt>
      <trkpt lat="43.6627" lon="6.67248">
        <ele>728.54</ele>
        <time>2019-12-08T10:43:41.000Z</time>
      </trkpt>
      <trkpt lat="43.66271" lon="6.67253">
        <ele>728.77</ele>
        <time>2019-12-08T10:43:42.000Z</time>
      </trkpt>
      <trkpt lat="43.66273" lon="6.67259">
        <ele>728.88</ele>
        <time>2019-12-08T10:43:43.000Z</time>
      </trkpt>
      <trkpt lat="43.66275" lon="6.67264">
        <ele>729.13</ele>
        <time>2019-12-08T10:43:44.000Z</time>
      </trkpt>
      <trkpt lat="43.66277" lon="6.6727">
        <ele>729.33</ele>
        <time>2019-12-08T10:43:45.000Z</time>
      </trkpt>
      <trkpt lat="43.66279" lon="6.67275">
        <ele>729.54</ele>
        <time>2019-12-08T10:43:46.000Z</time>
      </trkpt>
      <trkpt lat="43.66281" lon="6.6728">
        <ele>729.62</ele>
        <time>2019-12-08T10:43:47.000Z</time>
      </trkpt>
      <trkpt lat="43.66282" lon="6.67286">
        <ele>729.73</ele>
        <time>2019-12-08T10:43:48.000Z</time>
      </trkpt>
      <trkpt lat="43.66285" lon="6.67291">
        <ele>729.89</ele>
        <time>2019-12-08T10:43:49.000Z</time>
      </trkpt>
      <trkpt lat="43.66287" lon="6.67296">
        <ele>730.02</ele>
        <time>2019-12-08T10:43:50.000Z</time>
      </trkpt>
      <trkpt lat="43.66289" lon="6.67301">
        <ele>730.15</ele>
        <time>2019-12-08T10:43:51.000Z</time>
      </trkpt>
      <trkpt lat="43.66291" lon="6.67306">
        <ele>730.21</ele>
        <time>2019-12-08T10:43:52.000Z</time>
      </trkpt>
      <trkpt lat="43.66294" lon="6.67311">
        <ele>730.29</ele>
        <time>2019-12-08T10:43:53.000Z</time>
      </trkpt>
      <trkpt lat="43.66296" lon="6.67316">
        <ele>730.34</ele>
        <time>2019-12-08T10:43:54.000Z</time>
      </trkpt>
      <trkpt lat="43.66299" lon="6.67321">
        <ele>730.39</ele>
        <time>2019-12-08T10:43:55.000Z</time>
      </trkpt>
      <trkpt lat="43.66301" lon="6.67327">
        <ele>730.5</ele>
        <time>2019-12-08T10:43:56.000Z</time>
      </trkpt>
      <trkpt lat="43.66304" lon="6.67332">
        <ele>730.64</ele>
        <time>2019-12-08T10:43:57.000Z</time>
      </trkpt>
      <trkpt lat="43.66306" lon="6.67337">
        <ele>730.74</ele>
        <time>2019-12-08T10:43:58.000Z</time>
      </trkpt>
      <trkpt lat="43.66309" lon="6.67343">
        <ele>730.85</ele>
        <time>2019-12-08T10:43:59.000Z</time>
      </trkpt>
      <trkpt lat="43.66312" lon="6.67348">
        <ele>730.89</ele>
        <time>2019-12-08T10:44:00.000Z</time>
      </trkpt>
      <trkpt lat="43.66315" lon="6.67353">
        <ele>730.89</ele>
        <time>2019-12-08T10:44:01.000Z</time>
      </trkpt>
      <trkpt lat="43.66317" lon="6.67358">
        <ele>730.99</ele>
        <time>2019-12-08T10:44:02.000Z</time>
      </trkpt>
      <trkpt lat="43.6632" lon="6.67363">
        <ele>731.1</ele>
        <time>2019-12-08T10:44:03.000Z</time>
      </trkpt>
      <trkpt lat="43.66323" lon="6.67368">
        <ele>731.17</ele>
        <time>2019-12-08T10:44:04.000Z</time>
      </trkpt>
      <trkpt lat="43.66326" lon="6.67372">
        <ele>731.36</ele>
        <time>2019-12-08T10:44:05.000Z</time>
      </trkpt>
      <trkpt lat="43.66329" lon="6.67376">
        <ele>731.62</ele>
        <time>2019-12-08T10:44:06.000Z</time>
      </trkpt>
      <trkpt lat="43.66333" lon="6.6738">
        <ele>731.89</ele>
        <time>2019-12-08T10:44:07.000Z</time>
      </trkpt>
      <trkpt lat="43.66336" lon="6.67384">
        <ele>731.98</ele>
        <time>2019-12-08T10:44:08.000Z</time>
      </trkpt>
      <trkpt lat="43.66339" lon="6.67387">
        <ele>732.24</ele>
        <time>2019-12-08T10:44:09.000Z</time>
      </trkpt>
      <trkpt lat="43.66343" lon="6.67391">
        <ele>732.56</ele>
        <time>2019-12-08T10:44:10.000Z</time>
      </trkpt>
      <trkpt lat="43.66346" lon="6.67395">
        <ele>732.83</ele>
        <time>2019-12-08T10:44:11.000Z</time>
      </trkpt>
      <trkpt lat="43.66349" lon="6.67398">
        <ele>732.97</ele>
        <time>2019-12-08T10:44:12.000Z</time>
      </trkpt>
      <trkpt lat="43.66352" lon="6.67403">
        <ele>733.25</ele>
        <time>2019-12-08T10:44:13.000Z</time>
      </trkpt>
      <trkpt lat="43.66355" lon="6.67407">
        <ele>733.46</ele>
        <time>2019-12-08T10:44:14.000Z</time>
      </trkpt>
      <trkpt lat="43.66358" lon="6.67411">
        <ele>733.59</ele>
        <time>2019-12-08T10:44:15.000Z</time>
      </trkpt>
      <trkpt lat="43.66361" lon="6.67415">
        <ele>733.65</ele>
        <time>2019-12-08T10:44:16.000Z</time>
      </trkpt>
      <trkpt lat="43.66365" lon="6.6742">
        <ele>733.77</ele>
        <time>2019-12-08T10:44:17.000Z</time>
      </trkpt>
      <trkpt lat="43.66368" lon="6.67425">
        <ele>733.95</ele>
        <time>2019-12-08T10:44:18.000Z</time>
      </trkpt>
      <trkpt lat="43.66371" lon="6.67429">
        <ele>734.08</ele>
        <time>2019-12-08T10:44:19.000Z</time>
      </trkpt>
      <trkpt lat="43.66373" lon="6.67434">
        <ele>734.13</ele>
        <time>2019-12-08T10:44:20.000Z</time>
      </trkpt>
      <trkpt lat="43.66376" lon="6.67439">
        <ele>734.24</ele>
        <time>2019-12-08T10:44:21.000Z</time>
      </trkpt>
      <trkpt lat="43.66379" lon="6.67444">
        <ele>734.29</ele>
        <time>2019-12-08T10:44:22.000Z</time>
      </trkpt>
      <trkpt lat="43.66382" lon="6.67449">
        <ele>734.29</ele>
        <time>2019-12-08T10:44:23.000Z</time>
      </trkpt>
      <trkpt lat="43.66386" lon="6.67454">
        <ele>734.25</ele>
        <time>2019-12-08T10:44:24.000Z</time>
      </trkpt>
      <trkpt lat="43.66389" lon="6.67459">
        <ele>734.26</ele>
        <time>2019-12-08T10:44:25.000Z</time>
      </trkpt>
      <trkpt lat="43.66392" lon="6.67465">
        <ele>734.29</ele>
        <time>2019-12-08T10:44:26.000Z</time>
      </trkpt>
      <trkpt lat="43.66395" lon="6.6747">
        <ele>734.35</ele>
        <time>2019-12-08T10:44:27.000Z</time>
      </trkpt>
      <trkpt lat="43.66397" lon="6.67476">
        <ele>734.42</ele>
        <time>2019-12-08T10:44:28.000Z</time>
      </trkpt>
      <trkpt lat="43.664" lon="6.67482">
        <ele>734.42</ele>
        <time>2019-12-08T10:44:29.000Z</time>
      </trkpt>
      <trkpt lat="43.66403" lon="6.67488">
        <ele>734.49</ele>
        <time>2019-12-08T10:44:30.000Z</time>
      </trkpt>
      <trkpt lat="43.66405" lon="6.67494">
        <ele>734.43</ele>
        <time>2019-12-08T10:44:31.000Z</time>
      </trkpt>
      <trkpt lat="43.66407" lon="6.675">
        <ele>734.46</ele>
        <time>2019-12-08T10:44:32.000Z</time>
      </trkpt>
      <trkpt lat="43.6641" lon="6.67506">
        <ele>734.61</ele>
        <time>2019-12-08T10:44:33.000Z</time>
      </trkpt>
      <trkpt lat="43.66412" lon="6.67512">
        <ele>734.76</ele>
        <time>2019-12-08T10:44:34.000Z</time>
      </trkpt>
      <trkpt lat="43.66415" lon="6.67518">
        <ele>734.97</ele>
        <time>2019-12-08T10:44:35.000Z</time>
      </trkpt>
      <trkpt lat="43.66417" lon="6.67524">
        <ele>735.2</ele>
        <time>2019-12-08T10:44:36.000Z</time>
      </trkpt>
      <trkpt lat="43.6642" lon="6.67529">
        <ele>735.25</ele>
        <time>2019-12-08T10:44:37.000Z</time>
      </trkpt>
      <trkpt lat="43.66422" lon="6.67534">
        <ele>735.49</ele>
        <time>2019-12-08T10:44:38.000Z</time>
      </trkpt>
      <trkpt lat="43.66424" lon="6.67539">
        <ele>735.76</ele>
        <time>2019-12-08T10:44:39.000Z</time>
      </trkpt>
      <trkpt lat="43.66427" lon="6.67544">
        <ele>736.09</ele>
        <time>2019-12-08T10:44:40.000Z</time>
      </trkpt>
      <trkpt lat="43.6643" lon="6.67549">
        <ele>736.23</ele>
        <time>2019-12-08T10:44:41.000Z</time>
      </trkpt>
      <trkpt lat="43.66432" lon="6.67554">
        <ele>736.55</ele>
        <time>2019-12-08T10:44:42.000Z</time>
      </trkpt>
      <trkpt lat="43.66434" lon="6.67559">
        <ele>736.82</ele>
        <time>2019-12-08T10:44:43.000Z</time>
      </trkpt>
      <trkpt lat="43.66436" lon="6.67565">
        <ele>737.01</ele>
        <time>2019-12-08T10:44:44.000Z</time>
      </trkpt>
      <trkpt lat="43.66438" lon="6.6757">
        <ele>737.12</ele>
        <time>2019-12-08T10:44:45.000Z</time>
      </trkpt>
      <trkpt lat="43.6644" lon="6.67576">
        <ele>737.31</ele>
        <time>2019-12-08T10:44:46.000Z</time>
      </trkpt>
      <trkpt lat="43.66442" lon="6.67581">
        <ele>737.44</ele>
        <time>2019-12-08T10:44:47.000Z</time>
      </trkpt>
      <trkpt lat="43.66444" lon="6.67586">
        <ele>737.62</ele>
        <time>2019-12-08T10:44:48.000Z</time>
      </trkpt>
      <trkpt lat="43.66446" lon="6.67591">
        <ele>737.69</ele>
        <time>2019-12-08T10:44:49.000Z</time>
      </trkpt>
      <trkpt lat="43.66449" lon="6.67596">
        <ele>737.8</ele>
        <time>2019-12-08T10:44:50.000Z</time>
      </trkpt>
      <trkpt lat="43.66451" lon="6.67602">
        <ele>737.99</ele>
        <time>2019-12-08T10:44:51.000Z</time>
      </trkpt>
      <trkpt lat="43.66454" lon="6.67607">
        <ele>738.09</ele>
        <time>2019-12-08T10:44:52.000Z</time>
      </trkpt>
      <trkpt lat="43.66456" lon="6.67612">
        <ele>738.13</ele>
        <time>2019-12-08T10:44:53.000Z</time>
      </trkpt>
      <trkpt lat="43.66459" lon="6.67617">
        <ele>738.23</ele>
        <time>2019-12-08T10:44:54.000Z</time>
      </trkpt>
      <trkpt lat="43.66462" lon="6.67623">
        <ele>738.29</ele>
        <time>2019-12-08T10:44:55.000Z</time>
      </trkpt>
      <trkpt lat="43.66466" lon="6.67628">
        <ele>738.32</ele>
        <time>2019-12-08T10:44:56.000Z</time>
      </trkpt>
      <trkpt lat="43.66469" lon="6.67634">
        <ele>738.29</ele>
        <time>2019-12-08T10:44:57.000Z</time>
      </trkpt>
      <trkpt lat="43.66472" lon="6.67639">
        <ele>738.31</ele>
        <time>2019-12-08T10:44:58.000Z</time>
      </trkpt>
      <trkpt lat="43.66475" lon="6.67645">
        <ele>738.29</ele>
        <time>2019-12-08T10:44:59.000Z</time>
      </trkpt>
      <trkpt lat="43.66478" lon="6.6765">
        <ele>738.28</ele>
        <time>2019-12-08T10:45:00.000Z</time>
      </trkpt>
      <trkpt lat="43.66481" lon="6.67656">
        <ele>738.29</ele>
        <time>2019-12-08T10:45:01.000Z</time>
      </trkpt>
      <trkpt lat="43.66485" lon="6.67661">
        <ele>738.38</ele>
        <time>2019-12-08T10:45:02.000Z</time>
      </trkpt>
      <trkpt lat="43.66488" lon="6.67666">
        <ele>738.46</ele>
        <time>2019-12-08T10:45:03.000Z</time>
      </trkpt>
      <trkpt lat="43.66491" lon="6.67672">
        <ele>738.6</ele>
        <time>2019-12-08T10:45:04.000Z</time>
      </trkpt>
      <trkpt lat="43.66495" lon="6.67677">
        <ele>738.74</ele>
        <time>2019-12-08T10:45:05.000Z</time>
      </trkpt>
      <trkpt lat="43.66498" lon="6.67682">
        <ele>738.76</ele>
        <time>2019-12-08T10:45:06.000Z</time>
      </trkpt>
      <trkpt lat="43.66502" lon="6.67688">
        <ele>738.88</ele>
        <time>2019-12-08T10:45:07.000Z</time>
      </trkpt>
      <trkpt lat="43.66505" lon="6.67693">
        <ele>738.93</ele>
        <time>2019-12-08T10:45:08.000Z</time>
      </trkpt>
      <trkpt lat="43.66509" lon="6.67699">
        <ele>738.97</ele>
        <time>2019-12-08T10:45:09.000Z</time>
      </trkpt>
      <trkpt lat="43.66512" lon="6.67704">
        <ele>738.93</ele>
        <time>2019-12-08T10:45:10.000Z</time>
      </trkpt>
      <trkpt lat="43.66516" lon="6.6771">
        <ele>738.9</ele>
        <time>2019-12-08T10:45:11.000Z</time>
      </trkpt>
      <trkpt lat="43.6652" lon="6.67715">
        <ele>738.86</ele>
        <time>2019-12-08T10:45:12.000Z</time>
      </trkpt>
      <trkpt lat="43.66524" lon="6.67721">
        <ele>738.68</ele>
        <time>2019-12-08T10:45:13.000Z</time>
      </trkpt>
      <trkpt lat="43.66529" lon="6.67727">
        <ele>738.58</ele>
        <time>2019-12-08T10:45:14.000Z</time>
      </trkpt>
      <trkpt lat="43.66533" lon="6.67733">
        <ele>738.38</ele>
        <time>2019-12-08T10:45:15.000Z</time>
      </trkpt>
      <trkpt lat="43.66538" lon="6.67739">
        <ele>738.14</ele>
        <time>2019-12-08T10:45:16.000Z</time>
      </trkpt>
      <trkpt lat="43.66543" lon="6.67744">
        <ele>738</ele>
        <time>2019-12-08T10:45:17.000Z</time>
      </trkpt>
      <trkpt lat="43.66549" lon="6.6775">
        <ele>737.97</ele>
        <time>2019-12-08T10:45:18.000Z</time>
      </trkpt>
      <trkpt lat="43.66554" lon="6.67755">
        <ele>737.93</ele>
        <time>2019-12-08T10:45:19.000Z</time>
      </trkpt>
      <trkpt lat="43.66559" lon="6.67761">
        <ele>737.92</ele>
        <time>2019-12-08T10:45:20.000Z</time>
      </trkpt>
      <trkpt lat="43.66563" lon="6.67766">
        <ele>737.98</ele>
        <time>2019-12-08T10:45:21.000Z</time>
      </trkpt>
      <trkpt lat="43.66568" lon="6.67772">
        <ele>738.02</ele>
        <time>2019-12-08T10:45:22.000Z</time>
      </trkpt>
      <trkpt lat="43.66573" lon="6.67777">
        <ele>738.18</ele>
        <time>2019-12-08T10:45:23.000Z</time>
      </trkpt>
      <trkpt lat="43.66577" lon="6.67782">
        <ele>738.45</ele>
        <time>2019-12-08T10:45:24.000Z</time>
      </trkpt>
      <trkpt lat="43.66581" lon="6.67786">
        <ele>738.71</ele>
        <time>2019-12-08T10:45:25.000Z</time>
      </trkpt>
      <trkpt lat="43.66586" lon="6.6779">
        <ele>738.85</ele>
        <time>2019-12-08T10:45:26.000Z</time>
      </trkpt>
      <trkpt lat="43.6659" lon="6.67794">
        <ele>739.12</ele>
        <time>2019-12-08T10:45:27.000Z</time>
      </trkpt>
      <trkpt lat="43.66593" lon="6.67797">
        <ele>739.44</ele>
        <time>2019-12-08T10:45:28.000Z</time>
      </trkpt>
      <trkpt lat="43.66597" lon="6.67801">
        <ele>739.77</ele>
        <time>2019-12-08T10:45:29.000Z</time>
      </trkpt>
      <trkpt lat="43.66601" lon="6.67804">
        <ele>739.93</ele>
        <time>2019-12-08T10:45:30.000Z</time>
      </trkpt>
      <trkpt lat="43.66604" lon="6.67807">
        <ele>740.26</ele>
        <time>2019-12-08T10:45:31.000Z</time>
      </trkpt>
      <trkpt lat="43.66608" lon="6.6781">
        <ele>740.56</ele>
        <time>2019-12-08T10:45:32.000Z</time>
      </trkpt>
      <trkpt lat="43.66611" lon="6.67813">
        <ele>740.82</ele>
        <time>2019-12-08T10:45:33.000Z</time>
      </trkpt>
      <trkpt lat="43.66614" lon="6.67816">
        <ele>741.03</ele>
        <time>2019-12-08T10:45:34.000Z</time>
      </trkpt>
      <trkpt lat="43.66617" lon="6.67819">
        <ele>741.13</ele>
        <time>2019-12-08T10:45:35.000Z</time>
      </trkpt>
      <trkpt lat="43.66621" lon="6.67822">
        <ele>741.4</ele>
        <time>2019-12-08T10:45:36.000Z</time>
      </trkpt>
      <trkpt lat="43.66624" lon="6.67825">
        <ele>741.63</ele>
        <time>2019-12-08T10:45:37.000Z</time>
      </trkpt>
      <trkpt lat="43.66627" lon="6.67828">
        <ele>741.72</ele>
        <time>2019-12-08T10:45:38.000Z</time>
      </trkpt>
      <trkpt lat="43.6663" lon="6.67832">
        <ele>741.93</ele>
        <time>2019-12-08T10:45:39.000Z</time>
      </trkpt>
      <trkpt lat="43.66633" lon="6.67835">
        <ele>742.19</ele>
        <time>2019-12-08T10:45:40.000Z</time>
      </trkpt>
      <trkpt lat="43.66636" lon="6.67838">
        <ele>742.36</ele>
        <time>2019-12-08T10:45:41.000Z</time>
      </trkpt>
      <trkpt lat="43.6664" lon="6.67842">
        <ele>742.57</ele>
        <time>2019-12-08T10:45:42.000Z</time>
      </trkpt>
      <trkpt lat="43.66643" lon="6.67845">
        <ele>742.66</ele>
        <time>2019-12-08T10:45:43.000Z</time>
      </trkpt>
      <trkpt lat="43.66646" lon="6.67848">
        <ele>742.85</ele>
        <time>2019-12-08T10:45:44.000Z</time>
      </trkpt>
      <trkpt lat="43.66649" lon="6.67851">
        <ele>743.02</ele>
        <time>2019-12-08T10:45:45.000Z</time>
      </trkpt>
      <trkpt lat="43.66652" lon="6.67854">
        <ele>743.21</ele>
        <time>2019-12-08T10:45:46.000Z</time>
      </trkpt>
      <trkpt lat="43.66655" lon="6.67857">
        <ele>743.34</ele>
        <time>2019-12-08T10:45:47.000Z</time>
      </trkpt>
      <trkpt lat="43.66658" lon="6.6786">
        <ele>743.62</ele>
        <time>2019-12-08T10:45:48.000Z</time>
      </trkpt>
      <trkpt lat="43.66661" lon="6.67863">
        <ele>743.87</ele>
        <time>2019-12-08T10:45:49.000Z</time>
      </trkpt>
      <trkpt lat="43.66664" lon="6.67866">
        <ele>744.17</ele>
        <time>2019-12-08T10:45:50.000Z</time>
      </trkpt>
      <trkpt lat="43.66667" lon="6.67868">
        <ele>744.27</ele>
        <time>2019-12-08T10:45:51.000Z</time>
      </trkpt>
      <trkpt lat="43.6667" lon="6.67871">
        <ele>744.49</ele>
        <time>2019-12-08T10:45:52.000Z</time>
      </trkpt>
      <trkpt lat="43.66673" lon="6.67874">
        <ele>744.73</ele>
        <time>2019-12-08T10:45:53.000Z</time>
      </trkpt>
      <trkpt lat="43.66676" lon="6.67877">
        <ele>744.98</ele>
        <time>2019-12-08T10:45:54.000Z</time>
      </trkpt>
      <trkpt lat="43.66679" lon="6.6788">
        <ele>745.1</ele>
        <time>2019-12-08T10:45:55.000Z</time>
      </trkpt>
      <trkpt lat="43.66682" lon="6.67884">
        <ele>745.36</ele>
        <time>2019-12-08T10:45:56.000Z</time>
      </trkpt>
      <trkpt lat="43.66684" lon="6.67887">
        <ele>745.58</ele>
        <time>2019-12-08T10:45:57.000Z</time>
      </trkpt>
      <trkpt lat="43.66687" lon="6.6789">
        <ele>745.68</ele>
        <time>2019-12-08T10:45:58.000Z</time>
      </trkpt>
      <trkpt lat="43.66689" lon="6.67893">
        <ele>745.68</ele>
        <time>2019-12-08T10:45:59.000Z</time>
      </trkpt>
      <trkpt lat="43.66692" lon="6.67897">
        <ele>745.67</ele>
        <time>2019-12-08T10:46:00.000Z</time>
      </trkpt>
      <trkpt lat="43.66694" lon="6.679">
        <ele>745.74</ele>
        <time>2019-12-08T10:46:01.000Z</time>
      </trkpt>
      <trkpt lat="43.66697" lon="6.67904">
        <ele>746.1</ele>
        <time>2019-12-08T10:46:02.000Z</time>
      </trkpt>
      <trkpt lat="43.66699" lon="6.67908">
        <ele>746.32</ele>
        <time>2019-12-08T10:46:03.000Z</time>
      </trkpt>
      <trkpt lat="43.66701" lon="6.67911">
        <ele>746.88</ele>
        <time>2019-12-08T10:46:04.000Z</time>
      </trkpt>
      <trkpt lat="43.66703" lon="6.67915">
        <ele>747.47</ele>
        <time>2019-12-08T10:46:05.000Z</time>
      </trkpt>
      <trkpt lat="43.66706" lon="6.67919">
        <ele>747.81</ele>
        <time>2019-12-08T10:46:06.000Z</time>
      </trkpt>
      <trkpt lat="43.66708" lon="6.67923">
        <ele>747.9</ele>
        <time>2019-12-08T10:46:07.000Z</time>
      </trkpt>
      <trkpt lat="43.6671" lon="6.67926">
        <ele>748.19</ele>
        <time>2019-12-08T10:46:08.000Z</time>
      </trkpt>
      <trkpt lat="43.66712" lon="6.6793">
        <ele>748.47</ele>
        <time>2019-12-08T10:46:09.000Z</time>
      </trkpt>
      <trkpt lat="43.66714" lon="6.67934">
        <ele>748.76</ele>
        <time>2019-12-08T10:46:10.000Z</time>
      </trkpt>
      <trkpt lat="43.66716" lon="6.67938">
        <ele>749.11</ele>
        <time>2019-12-08T10:46:11.000Z</time>
      </trkpt>
      <trkpt lat="43.66719" lon="6.67942">
        <ele>749.24</ele>
        <time>2019-12-08T10:46:12.000Z</time>
      </trkpt>
      <trkpt lat="43.66721" lon="6.67946">
        <ele>749.49</ele>
        <time>2019-12-08T10:46:13.000Z</time>
      </trkpt>
      <trkpt lat="43.66723" lon="6.6795">
        <ele>749.79</ele>
        <time>2019-12-08T10:46:14.000Z</time>
      </trkpt>
      <trkpt lat="43.66725" lon="6.67954">
        <ele>749.79</ele>
        <time>2019-12-08T10:46:15.000Z</time>
      </trkpt>
      <trkpt lat="43.66727" lon="6.67958">
        <ele>750.16</ele>
        <time>2019-12-08T10:46:16.000Z</time>
      </trkpt>
      <trkpt lat="43.66729" lon="6.67962">
        <ele>750.46</ele>
        <time>2019-12-08T10:46:17.000Z</time>
      </trkpt>
      <trkpt lat="43.66732" lon="6.67966">
        <ele>750.67</ele>
        <time>2019-12-08T10:46:18.000Z</time>
      </trkpt>
      <trkpt lat="43.66734" lon="6.6797">
        <ele>750.88</ele>
        <time>2019-12-08T10:46:19.000Z</time>
      </trkpt>
      <trkpt lat="43.66737" lon="6.67974">
        <ele>750.9</ele>
        <time>2019-12-08T10:46:20.000Z</time>
      </trkpt>
      <trkpt lat="43.66739" lon="6.67978">
        <ele>751.03</ele>
        <time>2019-12-08T10:46:21.000Z</time>
      </trkpt>
      <trkpt lat="43.66741" lon="6.67983">
        <ele>751.14</ele>
        <time>2019-12-08T10:46:22.000Z</time>
      </trkpt>
      <trkpt lat="43.66744" lon="6.67987">
        <ele>751.18</ele>
        <time>2019-12-08T10:46:23.000Z</time>
      </trkpt>
      <trkpt lat="43.66747" lon="6.67991">
        <ele>751.2</ele>
        <time>2019-12-08T10:46:24.000Z</time>
      </trkpt>
      <trkpt lat="43.66749" lon="6.67995">
        <ele>751.27</ele>
        <time>2019-12-08T10:46:25.000Z</time>
      </trkpt>
      <trkpt lat="43.66751" lon="6.67999">
        <ele>751.24</ele>
        <time>2019-12-08T10:46:26.000Z</time>
      </trkpt>
      <trkpt lat="43.66753" lon="6.68003">
        <ele>751.3</ele>
        <time>2019-12-08T10:46:27.000Z</time>
      </trkpt>
      <trkpt lat="43.66755" lon="6.68007">
        <ele>751.3</ele>
        <time>2019-12-08T10:46:28.000Z</time>
      </trkpt>
      <trkpt lat="43.66758" lon="6.6801">
        <ele>751.26</ele>
        <time>2019-12-08T10:46:29.000Z</time>
      </trkpt>
      <trkpt lat="43.6676" lon="6.68014">
        <ele>751.24</ele>
        <time>2019-12-08T10:46:30.000Z</time>
      </trkpt>
      <trkpt lat="43.66762" lon="6.68017">
        <ele>751.17</ele>
        <time>2019-12-08T10:46:31.000Z</time>
      </trkpt>
      <trkpt lat="43.66764" lon="6.68021">
        <ele>751.14</ele>
        <time>2019-12-08T10:46:32.000Z</time>
      </trkpt>
      <trkpt lat="43.66766" lon="6.68026">
        <ele>751.04</ele>
        <time>2019-12-08T10:46:33.000Z</time>
      </trkpt>
      <trkpt lat="43.66769" lon="6.6803">
        <ele>750.88</ele>
        <time>2019-12-08T10:46:34.000Z</time>
      </trkpt>
      <trkpt lat="43.66772" lon="6.68034">
        <ele>750.74</ele>
        <time>2019-12-08T10:46:35.000Z</time>
      </trkpt>
      <trkpt lat="43.66774" lon="6.68039">
        <ele>750.65</ele>
        <time>2019-12-08T10:46:36.000Z</time>
      </trkpt>
      <trkpt lat="43.66777" lon="6.68042">
        <ele>750.43</ele>
        <time>2019-12-08T10:46:37.000Z</time>
      </trkpt>
      <trkpt lat="43.6678" lon="6.68044">
        <ele>750.29</ele>
        <time>2019-12-08T10:46:38.000Z</time>
      </trkpt>
      <trkpt lat="43.66782" lon="6.68046">
        <ele>750.08</ele>
        <time>2019-12-08T10:46:39.000Z</time>
      </trkpt>
      <trkpt lat="43.66784" lon="6.68047">
        <ele>749.89</ele>
        <time>2019-12-08T10:46:40.000Z</time>
      </trkpt>
      <trkpt lat="43.66785" lon="6.68049">
        <ele>749.8</ele>
        <time>2019-12-08T10:46:41.000Z</time>
      </trkpt>
      <trkpt lat="43.66786" lon="6.68049">
        <ele>749.64</ele>
        <time>2019-12-08T10:46:42.000Z</time>
      </trkpt>
      <trkpt lat="43.66787" lon="6.68049">
        <ele>749.54</ele>
        <time>2019-12-08T10:46:43.000Z</time>
      </trkpt>
      <trkpt lat="43.66787" lon="6.68049">
        <ele>749.53</ele>
        <time>2019-12-08T10:46:44.000Z</time>
      </trkpt>
      <trkpt lat="43.66794" lon="6.6804">
        <ele>749.05</ele>
        <time>2019-12-08T10:47:57.000Z</time>
      </trkpt>
      <trkpt lat="43.66796" lon="6.68038">
        <ele>749.07</ele>
        <time>2019-12-08T10:47:58.000Z</time>
      </trkpt>
      <trkpt lat="43.66797" lon="6.68034">
        <ele>749.08</ele>
        <time>2019-12-08T10:47:59.000Z</time>
      </trkpt>
      <trkpt lat="43.66799" lon="6.68029">
        <ele>749.09</ele>
        <time>2019-12-08T10:48:00.000Z</time>
      </trkpt>
      <trkpt lat="43.668" lon="6.68024">
        <ele>749.12</ele>
        <time>2019-12-08T10:48:01.000Z</time>
      </trkpt>
      <trkpt lat="43.66802" lon="6.68018">
        <ele>749.08</ele>
        <time>2019-12-08T10:48:02.000Z</time>
      </trkpt>
      <trkpt lat="43.66804" lon="6.68013">
        <ele>749.06</ele>
        <time>2019-12-08T10:48:03.000Z</time>
      </trkpt>
      <trkpt lat="43.66806" lon="6.68007">
        <ele>749.06</ele>
        <time>2019-12-08T10:48:04.000Z</time>
      </trkpt>
      <trkpt lat="43.66809" lon="6.68002">
        <ele>749.04</ele>
        <time>2019-12-08T10:48:05.000Z</time>
      </trkpt>
      <trkpt lat="43.66812" lon="6.67996">
        <ele>749.08</ele>
        <time>2019-12-08T10:48:06.000Z</time>
      </trkpt>
      <trkpt lat="43.66815" lon="6.67991">
        <ele>749.08</ele>
        <time>2019-12-08T10:48:07.000Z</time>
      </trkpt>
      <trkpt lat="43.66818" lon="6.67987">
        <ele>749.15</ele>
        <time>2019-12-08T10:48:08.000Z</time>
      </trkpt>
      <trkpt lat="43.66821" lon="6.67982">
        <ele>749.2</ele>
        <time>2019-12-08T10:48:09.000Z</time>
      </trkpt>
      <trkpt lat="43.66824" lon="6.67978">
        <ele>749.42</ele>
        <time>2019-12-08T10:48:10.000Z</time>
      </trkpt>
      <trkpt lat="43.66827" lon="6.67974">
        <ele>749.56</ele>
        <time>2019-12-08T10:48:11.000Z</time>
      </trkpt>
      <trkpt lat="43.6683" lon="6.6797">
        <ele>749.84</ele>
        <time>2019-12-08T10:48:12.000Z</time>
      </trkpt>
      <trkpt lat="43.66832" lon="6.67967">
        <ele>750.17</ele>
        <time>2019-12-08T10:48:13.000Z</time>
      </trkpt>
      <trkpt lat="43.66835" lon="6.67963">
        <ele>750.52</ele>
        <time>2019-12-08T10:48:14.000Z</time>
      </trkpt>
      <trkpt lat="43.66837" lon="6.6796">
        <ele>750.64</ele>
        <time>2019-12-08T10:48:15.000Z</time>
      </trkpt>
      <trkpt lat="43.66839" lon="6.67956">
        <ele>750.92</ele>
        <time>2019-12-08T10:48:16.000Z</time>
      </trkpt>
      <trkpt lat="43.66842" lon="6.67953">
        <ele>751.22</ele>
        <time>2019-12-08T10:48:17.000Z</time>
      </trkpt>
      <trkpt lat="43.66844" lon="6.67949">
        <ele>751.54</ele>
        <time>2019-12-08T10:48:18.000Z</time>
      </trkpt>
      <trkpt lat="43.66846" lon="6.67946">
        <ele>751.88</ele>
        <time>2019-12-08T10:48:19.000Z</time>
      </trkpt>
      <trkpt lat="43.66849" lon="6.67943">
        <ele>752.11</ele>
        <time>2019-12-08T10:48:20.000Z</time>
      </trkpt>
      <trkpt lat="43.66851" lon="6.67939">
        <ele>752.5</ele>
        <time>2019-12-08T10:48:21.000Z</time>
      </trkpt>
      <trkpt lat="43.66853" lon="6.67936">
        <ele>752.79</ele>
        <time>2019-12-08T10:48:22.000Z</time>
      </trkpt>
      <trkpt lat="43.66855" lon="6.67932">
        <ele>752.93</ele>
        <time>2019-12-08T10:48:23.000Z</time>
      </trkpt>
      <trkpt lat="43.66856" lon="6.67928">
        <ele>753.21</ele>
        <time>2019-12-08T10:48:24.000Z</time>
      </trkpt>
      <trkpt lat="43.66858" lon="6.67924">
        <ele>753.46</ele>
        <time>2019-12-08T10:48:25.000Z</time>
      </trkpt>
      <trkpt lat="43.66859" lon="6.6792">
        <ele>753.75</ele>
        <time>2019-12-08T10:48:26.000Z</time>
      </trkpt>
      <trkpt lat="43.66861" lon="6.67917">
        <ele>754.13</ele>
        <time>2019-12-08T10:48:27.000Z</time>
      </trkpt>
      <trkpt lat="43.66863" lon="6.67913">
        <ele>754.28</ele>
        <time>2019-12-08T10:48:28.000Z</time>
      </trkpt>
      <trkpt lat="43.66864" lon="6.67909">
        <ele>754.74</ele>
        <time>2019-12-08T10:48:29.000Z</time>
      </trkpt>
      <trkpt lat="43.66865" lon="6.67904">
        <ele>755.06</ele>
        <time>2019-12-08T10:48:30.000Z</time>
      </trkpt>
      <trkpt lat="43.66866" lon="6.679">
        <ele>755.3</ele>
        <time>2019-12-08T10:48:31.000Z</time>
      </trkpt>
      <trkpt lat="43.66867" lon="6.67895">
        <ele>755.45</ele>
        <time>2019-12-08T10:48:32.000Z</time>
      </trkpt>
      <trkpt lat="43.66867" lon="6.67891">
        <ele>755.72</ele>
        <time>2019-12-08T10:48:33.000Z</time>
      </trkpt>
      <trkpt lat="43.66868" lon="6.67886">
        <ele>755.92</ele>
        <time>2019-12-08T10:48:34.000Z</time>
      </trkpt>
      <trkpt lat="43.66868" lon="6.67882">
        <ele>756.24</ele>
        <time>2019-12-08T10:48:35.000Z</time>
      </trkpt>
      <trkpt lat="43.66868" lon="6.67877">
        <ele>756.4</ele>
        <time>2019-12-08T10:48:36.000Z</time>
      </trkpt>
      <trkpt lat="43.66868" lon="6.67873">
        <ele>756.63</ele>
        <time>2019-12-08T10:48:37.000Z</time>
      </trkpt>
      <trkpt lat="43.66867" lon="6.67868">
        <ele>756.84</ele>
        <time>2019-12-08T10:48:38.000Z</time>
      </trkpt>
      <trkpt lat="43.66867" lon="6.67864">
        <ele>757.15</ele>
        <time>2019-12-08T10:48:39.000Z</time>
      </trkpt>
      <trkpt lat="43.66867" lon="6.67859">
        <ele>757.25</ele>
        <time>2019-12-08T10:48:40.000Z</time>
      </trkpt>
      <trkpt lat="43.66867" lon="6.67855">
        <ele>757.53</ele>
        <time>2019-12-08T10:48:41.000Z</time>
      </trkpt>
      <trkpt lat="43.66866" lon="6.6785">
        <ele>757.78</ele>
        <time>2019-12-08T10:48:42.000Z</time>
      </trkpt>
      <trkpt lat="43.66866" lon="6.67846">
        <ele>758.11</ele>
        <time>2019-12-08T10:48:43.000Z</time>
      </trkpt>
      <trkpt lat="43.66866" lon="6.67841">
        <ele>758.2</ele>
        <time>2019-12-08T10:48:44.000Z</time>
      </trkpt>
      <trkpt lat="43.66866" lon="6.67836">
        <ele>758.44</ele>
        <time>2019-12-08T10:48:45.000Z</time>
      </trkpt>
      <trkpt lat="43.66865" lon="6.67832">
        <ele>758.73</ele>
        <time>2019-12-08T10:48:46.000Z</time>
      </trkpt>
      <trkpt lat="43.66865" lon="6.67827">
        <ele>758.96</ele>
        <time>2019-12-08T10:48:47.000Z</time>
      </trkpt>
      <trkpt lat="43.66864" lon="6.67823">
        <ele>759.18</ele>
        <time>2019-12-08T10:48:48.000Z</time>
      </trkpt>
      <trkpt lat="43.66864" lon="6.67818">
        <ele>759.29</ele>
        <time>2019-12-08T10:48:49.000Z</time>
      </trkpt>
      <trkpt lat="43.66864" lon="6.67814">
        <ele>759.52</ele>
        <time>2019-12-08T10:48:50.000Z</time>
      </trkpt>
      <trkpt lat="43.66863" lon="6.67809">
        <ele>759.77</ele>
        <time>2019-12-08T10:48:51.000Z</time>
      </trkpt>
      <trkpt lat="43.66863" lon="6.67805">
        <ele>759.91</ele>
        <time>2019-12-08T10:48:52.000Z</time>
      </trkpt>
      <trkpt lat="43.66863" lon="6.678">
        <ele>760.22</ele>
        <time>2019-12-08T10:48:53.000Z</time>
      </trkpt>
      <trkpt lat="43.66863" lon="6.67796">
        <ele>760.53</ele>
        <time>2019-12-08T10:48:54.000Z</time>
      </trkpt>
      <trkpt lat="43.66863" lon="6.67791">
        <ele>760.81</ele>
        <time>2019-12-08T10:48:55.000Z</time>
      </trkpt>
      <trkpt lat="43.66862" lon="6.67787">
        <ele>761.14</ele>
        <time>2019-12-08T10:48:56.000Z</time>
      </trkpt>
      <trkpt lat="43.66862" lon="6.67782">
        <ele>761.27</ele>
        <time>2019-12-08T10:48:57.000Z</time>
      </trkpt>
      <trkpt lat="43.66862" lon="6.67778">
        <ele>761.55</ele>
        <time>2019-12-08T10:48:58.000Z</time>
      </trkpt>
      <trkpt lat="43.66862" lon="6.67773">
        <ele>761.85</ele>
        <time>2019-12-08T10:48:59.000Z</time>
      </trkpt>
      <trkpt lat="43.66863" lon="6.67769">
        <ele>762.12</ele>
        <time>2019-12-08T10:49:00.000Z</time>
      </trkpt>
      <trkpt lat="43.66863" lon="6.67765">
        <ele>762.27</ele>
        <time>2019-12-08T10:49:01.000Z</time>
      </trkpt>
      <trkpt lat="43.66864" lon="6.67761">
        <ele>762.58</ele>
        <time>2019-12-08T10:49:02.000Z</time>
      </trkpt>
      <trkpt lat="43.66866" lon="6.67757">
        <ele>762.83</ele>
        <time>2019-12-08T10:49:03.000Z</time>
      </trkpt>
      <trkpt lat="43.66868" lon="6.67754">
        <ele>763.02</ele>
        <time>2019-12-08T10:49:04.000Z</time>
      </trkpt>
      <trkpt lat="43.66871" lon="6.67752">
        <ele>763.11</ele>
        <time>2019-12-08T10:49:05.000Z</time>
      </trkpt>
      <trkpt lat="43.66873" lon="6.67751">
        <ele>763.37</ele>
        <time>2019-12-08T10:49:06.000Z</time>
      </trkpt>
      <trkpt lat="43.66876" lon="6.6775">
        <ele>763.7</ele>
        <time>2019-12-08T10:49:07.000Z</time>
      </trkpt>
      <trkpt lat="43.66878" lon="6.6775">
        <ele>764.14</ele>
        <time>2019-12-08T10:49:08.000Z</time>
      </trkpt>
      <trkpt lat="43.66881" lon="6.67751">
        <ele>764.34</ele>
        <time>2019-12-08T10:49:09.000Z</time>
      </trkpt>
      <trkpt lat="43.66884" lon="6.67752">
        <ele>764.77</ele>
        <time>2019-12-08T10:49:10.000Z</time>
      </trkpt>
      <trkpt lat="43.66887" lon="6.67753">
        <ele>765.06</ele>
        <time>2019-12-08T10:49:11.000Z</time>
      </trkpt>
      <trkpt lat="43.66889" lon="6.67755">
        <ele>765.41</ele>
        <time>2019-12-08T10:49:12.000Z</time>
      </trkpt>
      <trkpt lat="43.66892" lon="6.67757">
        <ele>765.61</ele>
        <time>2019-12-08T10:49:13.000Z</time>
      </trkpt>
      <trkpt lat="43.66894" lon="6.67759">
        <ele>765.95</ele>
        <time>2019-12-08T10:49:14.000Z</time>
      </trkpt>
      <trkpt lat="43.66897" lon="6.67761">
        <ele>766.23</ele>
        <time>2019-12-08T10:49:15.000Z</time>
      </trkpt>
      <trkpt lat="43.669" lon="6.67763">
        <ele>766.5</ele>
        <time>2019-12-08T10:49:16.000Z</time>
      </trkpt>
      <trkpt lat="43.66902" lon="6.67765">
        <ele>766.68</ele>
        <time>2019-12-08T10:49:17.000Z</time>
      </trkpt>
      <trkpt lat="43.66904" lon="6.67768">
        <ele>766.81</ele>
        <time>2019-12-08T10:49:18.000Z</time>
      </trkpt>
      <trkpt lat="43.66906" lon="6.6777">
        <ele>767.06</ele>
        <time>2019-12-08T10:49:19.000Z</time>
      </trkpt>
      <trkpt lat="43.66908" lon="6.67773">
        <ele>767.32</ele>
        <time>2019-12-08T10:49:20.000Z</time>
      </trkpt>
      <trkpt lat="43.6691" lon="6.67776">
        <ele>767.47</ele>
        <time>2019-12-08T10:49:21.000Z</time>
      </trkpt>
      <trkpt lat="43.66912" lon="6.6778">
        <ele>767.7</ele>
        <time>2019-12-08T10:49:22.000Z</time>
      </trkpt>
      <trkpt lat="43.66914" lon="6.67783">
        <ele>767.96</ele>
        <time>2019-12-08T10:49:23.000Z</time>
      </trkpt>
      <trkpt lat="43.66915" lon="6.67787">
        <ele>768.13</ele>
        <time>2019-12-08T10:49:24.000Z</time>
      </trkpt>
      <trkpt lat="43.66917" lon="6.6779">
        <ele>768.37</ele>
        <time>2019-12-08T10:49:25.000Z</time>
      </trkpt>
      <trkpt lat="43.66919" lon="6.67794">
        <ele>768.46</ele>
        <time>2019-12-08T10:49:26.000Z</time>
      </trkpt>
      <trkpt lat="43.6692" lon="6.67798">
        <ele>768.66</ele>
        <time>2019-12-08T10:49:27.000Z</time>
      </trkpt>
      <trkpt lat="43.66921" lon="6.67801">
        <ele>768.92</ele>
        <time>2019-12-08T10:49:28.000Z</time>
      </trkpt>
      <trkpt lat="43.66923" lon="6.67805">
        <ele>769.15</ele>
        <time>2019-12-08T10:49:29.000Z</time>
      </trkpt>
      <trkpt lat="43.66924" lon="6.67809">
        <ele>769.27</ele>
        <time>2019-12-08T10:49:30.000Z</time>
      </trkpt>
      <trkpt lat="43.66925" lon="6.67813">
        <ele>769.58</ele>
        <time>2019-12-08T10:49:31.000Z</time>
      </trkpt>
      <trkpt lat="43.66926" lon="6.67816">
        <ele>769.87</ele>
        <time>2019-12-08T10:49:32.000Z</time>
      </trkpt>
      <trkpt lat="43.66928" lon="6.6782">
        <ele>770.15</ele>
        <time>2019-12-08T10:49:33.000Z</time>
      </trkpt>
      <trkpt lat="43.66929" lon="6.67824">
        <ele>770.29</ele>
        <time>2019-12-08T10:49:34.000Z</time>
      </trkpt>
      <trkpt lat="43.6693" lon="6.67828">
        <ele>770.5</ele>
        <time>2019-12-08T10:49:35.000Z</time>
      </trkpt>
      <trkpt lat="43.66931" lon="6.67831">
        <ele>770.73</ele>
        <time>2019-12-08T10:49:36.000Z</time>
      </trkpt>
      <trkpt lat="43.66933" lon="6.67835">
        <ele>770.93</ele>
        <time>2019-12-08T10:49:37.000Z</time>
      </trkpt>
      <trkpt lat="43.66934" lon="6.67839">
        <ele>771.01</ele>
        <time>2019-12-08T10:49:38.000Z</time>
      </trkpt>
      <trkpt lat="43.66935" lon="6.67842">
        <ele>771.19</ele>
        <time>2019-12-08T10:49:39.000Z</time>
      </trkpt>
      <trkpt lat="43.66937" lon="6.67846">
        <ele>771.44</ele>
        <time>2019-12-08T10:49:40.000Z</time>
      </trkpt>
      <trkpt lat="43.66938" lon="6.6785">
        <ele>771.7</ele>
        <time>2019-12-08T10:49:41.000Z</time>
      </trkpt>
      <trkpt lat="43.6694" lon="6.67853">
        <ele>771.85</ele>
        <time>2019-12-08T10:49:42.000Z</time>
      </trkpt>
      <trkpt lat="43.66941" lon="6.67857">
        <ele>772.16</ele>
        <time>2019-12-08T10:49:43.000Z</time>
      </trkpt>
      <trkpt lat="43.66943" lon="6.6786">
        <ele>772.38</ele>
        <time>2019-12-08T10:49:44.000Z</time>
      </trkpt>
      <trkpt lat="43.66945" lon="6.67864">
        <ele>772.58</ele>
        <time>2019-12-08T10:49:45.000Z</time>
      </trkpt>
      <trkpt lat="43.66947" lon="6.67867">
        <ele>772.67</ele>
        <time>2019-12-08T10:49:46.000Z</time>
      </trkpt>
      <trkpt lat="43.66948" lon="6.67871">
        <ele>772.83</ele>
        <time>2019-12-08T10:49:47.000Z</time>
      </trkpt>
      <trkpt lat="43.6695" lon="6.67874">
        <ele>773</ele>
        <time>2019-12-08T10:49:48.000Z</time>
      </trkpt>
      <trkpt lat="43.66952" lon="6.67877">
        <ele>773.21</ele>
        <time>2019-12-08T10:49:49.000Z</time>
      </trkpt>
      <trkpt lat="43.66954" lon="6.6788">
        <ele>773.3</ele>
        <time>2019-12-08T10:49:50.000Z</time>
      </trkpt>
      <trkpt lat="43.66956" lon="6.67883">
        <ele>773.49</ele>
        <time>2019-12-08T10:49:51.000Z</time>
      </trkpt>
      <trkpt lat="43.66958" lon="6.67886">
        <ele>773.66</ele>
        <time>2019-12-08T10:49:52.000Z</time>
      </trkpt>
      <trkpt lat="43.6696" lon="6.67888">
        <ele>773.93</ele>
        <time>2019-12-08T10:49:53.000Z</time>
      </trkpt>
      <trkpt lat="43.66962" lon="6.67891">
        <ele>774.2</ele>
        <time>2019-12-08T10:49:54.000Z</time>
      </trkpt>
      <trkpt lat="43.66965" lon="6.67893">
        <ele>774.29</ele>
        <time>2019-12-08T10:49:55.000Z</time>
      </trkpt>
      <trkpt lat="43.66967" lon="6.67896">
        <ele>774.56</ele>
        <time>2019-12-08T10:49:56.000Z</time>
      </trkpt>
      <trkpt lat="43.66969" lon="6.67898">
        <ele>774.83</ele>
        <time>2019-12-08T10:49:57.000Z</time>
      </trkpt>
      <trkpt lat="43.66972" lon="6.679">
        <ele>774.91</ele>
        <time>2019-12-08T10:49:58.000Z</time>
      </trkpt>
      <trkpt lat="43.66974" lon="6.67903">
        <ele>775.19</ele>
        <time>2019-12-08T10:49:59.000Z</time>
      </trkpt>
      <trkpt lat="43.66977" lon="6.67905">
        <ele>775.55</ele>
        <time>2019-12-08T10:50:00.000Z</time>
      </trkpt>
      <trkpt lat="43.6698" lon="6.67907">
        <ele>775.78</ele>
        <time>2019-12-08T10:50:01.000Z</time>
      </trkpt>
      <trkpt lat="43.66982" lon="6.67909">
        <ele>776.1</ele>
        <time>2019-12-08T10:50:02.000Z</time>
      </trkpt>
      <trkpt lat="43.66985" lon="6.67912">
        <ele>776.1</ele>
        <time>2019-12-08T10:50:03.000Z</time>
      </trkpt>
      <trkpt lat="43.66987" lon="6.67914">
        <ele>776.33</ele>
        <time>2019-12-08T10:50:04.000Z</time>
      </trkpt>
      <trkpt lat="43.6699" lon="6.67917">
        <ele>776.52</ele>
        <time>2019-12-08T10:50:05.000Z</time>
      </trkpt>
      <trkpt lat="43.66992" lon="6.67919">
        <ele>776.52</ele>
        <time>2019-12-08T10:50:06.000Z</time>
      </trkpt>
      <trkpt lat="43.66995" lon="6.67921">
        <ele>776.86</ele>
        <time>2019-12-08T10:50:07.000Z</time>
      </trkpt>
      <trkpt lat="43.66998" lon="6.67924">
        <ele>777.13</ele>
        <time>2019-12-08T10:50:08.000Z</time>
      </trkpt>
      <trkpt lat="43.67" lon="6.67926">
        <ele>777.39</ele>
        <time>2019-12-08T10:50:09.000Z</time>
      </trkpt>
      <trkpt lat="43.67003" lon="6.67928">
        <ele>777.66</ele>
        <time>2019-12-08T10:50:10.000Z</time>
      </trkpt>
      <trkpt lat="43.67005" lon="6.67931">
        <ele>777.7</ele>
        <time>2019-12-08T10:50:11.000Z</time>
      </trkpt>
      <trkpt lat="43.67008" lon="6.67934">
        <ele>777.7</ele>
        <time>2019-12-08T10:50:12.000Z</time>
      </trkpt>
      <trkpt lat="43.67011" lon="6.67936">
        <ele>777.6</ele>
        <time>2019-12-08T10:50:13.000Z</time>
      </trkpt>
      <trkpt lat="43.67015" lon="6.67939">
        <ele>777.63</ele>
        <time>2019-12-08T10:50:14.000Z</time>
      </trkpt>
      <trkpt lat="43.67018" lon="6.67941">
        <ele>777.67</ele>
        <time>2019-12-08T10:50:15.000Z</time>
      </trkpt>
      <trkpt lat="43.67021" lon="6.67944">
        <ele>777.74</ele>
        <time>2019-12-08T10:50:16.000Z</time>
      </trkpt>
      <trkpt lat="43.67025" lon="6.67946">
        <ele>777.81</ele>
        <time>2019-12-08T10:50:17.000Z</time>
      </trkpt>
      <trkpt lat="43.67029" lon="6.67948">
        <ele>777.78</ele>
        <time>2019-12-08T10:50:18.000Z</time>
      </trkpt>
      <trkpt lat="43.67033" lon="6.6795">
        <ele>777.69</ele>
        <time>2019-12-08T10:50:19.000Z</time>
      </trkpt>
      <trkpt lat="43.67038" lon="6.67952">
        <ele>777.52</ele>
        <time>2019-12-08T10:50:20.000Z</time>
      </trkpt>
      <trkpt lat="43.67042" lon="6.67953">
        <ele>777.48</ele>
        <time>2019-12-08T10:50:21.000Z</time>
      </trkpt>
      <trkpt lat="43.67047" lon="6.67954">
        <ele>777.51</ele>
        <time>2019-12-08T10:50:22.000Z</time>
      </trkpt>
      <trkpt lat="43.67052" lon="6.67954">
        <ele>777.54</ele>
        <time>2019-12-08T10:50:23.000Z</time>
      </trkpt>
      <trkpt lat="43.67058" lon="6.67953">
        <ele>777.62</ele>
        <time>2019-12-08T10:50:24.000Z</time>
      </trkpt>
      <trkpt lat="43.67063" lon="6.67952">
        <ele>777.54</ele>
        <time>2019-12-08T10:50:25.000Z</time>
      </trkpt>
      <trkpt lat="43.67069" lon="6.6795">
        <ele>777.37</ele>
        <time>2019-12-08T10:50:26.000Z</time>
      </trkpt>
      <trkpt lat="43.67075" lon="6.67947">
        <ele>777.22</ele>
        <time>2019-12-08T10:50:27.000Z</time>
      </trkpt>
      <trkpt lat="43.67082" lon="6.67945">
        <ele>776.94</ele>
        <time>2019-12-08T10:50:28.000Z</time>
      </trkpt>
      <trkpt lat="43.67088" lon="6.67942">
        <ele>776.72</ele>
        <time>2019-12-08T10:50:29.000Z</time>
      </trkpt>
      <trkpt lat="43.67095" lon="6.67939">
        <ele>776.53</ele>
        <time>2019-12-08T10:50:30.000Z</time>
      </trkpt>
      <trkpt lat="43.67102" lon="6.67936">
        <ele>776.36</ele>
        <time>2019-12-08T10:50:31.000Z</time>
      </trkpt>
      <trkpt lat="43.67141" lon="6.67919">
        <ele>774.83</ele>
        <time>2019-12-08T10:50:36.000Z</time>
      </trkpt>
      <trkpt lat="43.67149" lon="6.67915">
        <ele>774.22</ele>
        <time>2019-12-08T10:50:37.000Z</time>
      </trkpt>
      <trkpt lat="43.67158" lon="6.67909">
        <ele>773.5</ele>
        <time>2019-12-08T10:50:38.000Z</time>
      </trkpt>
      <trkpt lat="43.67165" lon="6.679">
        <ele>772.72</ele>
        <time>2019-12-08T10:50:39.000Z</time>
      </trkpt>
      <trkpt lat="43.67171" lon="6.67889">
        <ele>772.4</ele>
        <time>2019-12-08T10:50:40.000Z</time>
      </trkpt>
      <trkpt lat="43.67174" lon="6.67876">
        <ele>771.67</ele>
        <time>2019-12-08T10:50:41.000Z</time>
      </trkpt>
      <trkpt lat="43.67177" lon="6.67862">
        <ele>770.98</ele>
        <time>2019-12-08T10:50:42.000Z</time>
      </trkpt>
      <trkpt lat="43.6718" lon="6.67848">
        <ele>770.33</ele>
        <time>2019-12-08T10:50:43.000Z</time>
      </trkpt>
      <trkpt lat="43.67182" lon="6.67833">
        <ele>769.9</ele>
        <time>2019-12-08T10:50:44.000Z</time>
      </trkpt>
      <trkpt lat="43.67184" lon="6.67819">
        <ele>769.01</ele>
        <time>2019-12-08T10:50:45.000Z</time>
      </trkpt>
      <trkpt lat="43.67186" lon="6.67804">
        <ele>768.16</ele>
        <time>2019-12-08T10:50:46.000Z</time>
      </trkpt>
      <trkpt lat="43.67189" lon="6.6779">
        <ele>767.21</ele>
        <time>2019-12-08T10:50:47.000Z</time>
      </trkpt>
      <trkpt lat="43.67192" lon="6.67775">
        <ele>766.78</ele>
        <time>2019-12-08T10:50:48.000Z</time>
      </trkpt>
      <trkpt lat="43.67196" lon="6.67762">
        <ele>765.96</ele>
        <time>2019-12-08T10:50:49.000Z</time>
      </trkpt>
      <trkpt lat="43.67202" lon="6.6775">
        <ele>765.2</ele>
        <time>2019-12-08T10:50:50.000Z</time>
      </trkpt>
      <trkpt lat="43.6721" lon="6.67739">
        <ele>764.49</ele>
        <time>2019-12-08T10:50:51.000Z</time>
      </trkpt>
      <trkpt lat="43.6722" lon="6.67731">
        <ele>764.18</ele>
        <time>2019-12-08T10:50:52.000Z</time>
      </trkpt>
      <trkpt lat="43.6723" lon="6.67724">
        <ele>763.63</ele>
        <time>2019-12-08T10:50:53.000Z</time>
      </trkpt>
      <trkpt lat="43.6724" lon="6.67718">
        <ele>762.85</ele>
        <time>2019-12-08T10:50:54.000Z</time>
      </trkpt>
      <trkpt lat="43.67251" lon="6.67713">
        <ele>762.1</ele>
        <time>2019-12-08T10:50:55.000Z</time>
      </trkpt>
      <trkpt lat="43.67265" lon="6.67713">
        <ele>761.73</ele>
        <time>2019-12-08T10:50:56.000Z</time>
      </trkpt>
      <trkpt lat="43.67277" lon="6.67716">
        <ele>760.83</ele>
        <time>2019-12-08T10:50:57.000Z</time>
      </trkpt>
      <trkpt lat="43.67288" lon="6.67726">
        <ele>759.84</ele>
        <time>2019-12-08T10:50:58.000Z</time>
      </trkpt>
      <trkpt lat="43.67298" lon="6.67736">
        <ele>758.94</ele>
        <time>2019-12-08T10:50:59.000Z</time>
      </trkpt>
      <trkpt lat="43.67307" lon="6.67747">
        <ele>758.39</ele>
        <time>2019-12-08T10:51:00.000Z</time>
      </trkpt>
      <trkpt lat="43.67316" lon="6.67758">
        <ele>757.28</ele>
        <time>2019-12-08T10:51:01.000Z</time>
      </trkpt>
      <trkpt lat="43.67326" lon="6.67769">
        <ele>756.19</ele>
        <time>2019-12-08T10:51:02.000Z</time>
      </trkpt>
      <trkpt lat="43.67336" lon="6.6778">
        <ele>755.18</ele>
        <time>2019-12-08T10:51:03.000Z</time>
      </trkpt>
      <trkpt lat="43.67345" lon="6.67792">
        <ele>754.65</ele>
        <time>2019-12-08T10:51:04.000Z</time>
      </trkpt>
      <trkpt lat="43.67355" lon="6.67803">
        <ele>753.67</ele>
        <time>2019-12-08T10:51:05.000Z</time>
      </trkpt>
      <trkpt lat="43.67364" lon="6.67814">
        <ele>752.8</ele>
        <time>2019-12-08T10:51:06.000Z</time>
      </trkpt>
      <trkpt lat="43.67374" lon="6.67826">
        <ele>751.92</ele>
        <time>2019-12-08T10:51:07.000Z</time>
      </trkpt>
      <trkpt lat="43.67383" lon="6.67837">
        <ele>750.98</ele>
        <time>2019-12-08T10:51:08.000Z</time>
      </trkpt>
      <trkpt lat="43.67393" lon="6.67848">
        <ele>750.51</ele>
        <time>2019-12-08T10:51:09.000Z</time>
      </trkpt>
      <trkpt lat="43.67403" lon="6.67859">
        <ele>749.38</ele>
        <time>2019-12-08T10:51:10.000Z</time>
      </trkpt>
      <trkpt lat="43.67413" lon="6.6787">
        <ele>748.31</ele>
        <time>2019-12-08T10:51:11.000Z</time>
      </trkpt>
      <trkpt lat="43.67422" lon="6.67882">
        <ele>747.26</ele>
        <time>2019-12-08T10:51:12.000Z</time>
      </trkpt>
      <trkpt lat="43.67432" lon="6.67893">
        <ele>746.77</ele>
        <time>2019-12-08T10:51:13.000Z</time>
      </trkpt>
      <trkpt lat="43.67442" lon="6.67905">
        <ele>745.74</ele>
        <time>2019-12-08T10:51:14.000Z</time>
      </trkpt>
      <trkpt lat="43.67451" lon="6.67916">
        <ele>744.7</ele>
        <time>2019-12-08T10:51:15.000Z</time>
      </trkpt>
      <trkpt lat="43.67461" lon="6.67928">
        <ele>743.55</ele>
        <time>2019-12-08T10:51:16.000Z</time>
      </trkpt>
      <trkpt lat="43.67471" lon="6.6794">
        <ele>742.98</ele>
        <time>2019-12-08T10:51:17.000Z</time>
      </trkpt>
      <trkpt lat="43.67481" lon="6.67951">
        <ele>741.88</ele>
        <time>2019-12-08T10:51:18.000Z</time>
      </trkpt>
      <trkpt lat="43.67491" lon="6.67963">
        <ele>740.91</ele>
        <time>2019-12-08T10:51:19.000Z</time>
      </trkpt>
      <trkpt lat="43.67501" lon="6.67974">
        <ele>739.92</ele>
        <time>2019-12-08T10:51:20.000Z</time>
      </trkpt>
      <trkpt lat="43.67512" lon="6.67984">
        <ele>739.45</ele>
        <time>2019-12-08T10:51:21.000Z</time>
      </trkpt>
      <trkpt lat="43.67523" lon="6.6799">
        <ele>738.3</ele>
        <time>2019-12-08T10:51:22.000Z</time>
      </trkpt>
      <trkpt lat="43.67536" lon="6.67994">
        <ele>737.19</ele>
        <time>2019-12-08T10:51:23.000Z</time>
      </trkpt>
      <trkpt lat="43.67549" lon="6.67995">
        <ele>735.98</ele>
        <time>2019-12-08T10:51:24.000Z</time>
      </trkpt>
      <trkpt lat="43.67562" lon="6.67995">
        <ele>735.44</ele>
        <time>2019-12-08T10:51:25.000Z</time>
      </trkpt>
      <trkpt lat="43.67576" lon="6.67996">
        <ele>734.35</ele>
        <time>2019-12-08T10:51:26.000Z</time>
      </trkpt>
      <trkpt lat="43.67589" lon="6.67997">
        <ele>733.46</ele>
        <time>2019-12-08T10:51:27.000Z</time>
      </trkpt>
      <trkpt lat="43.67602" lon="6.67999">
        <ele>732.6</ele>
        <time>2019-12-08T10:51:28.000Z</time>
      </trkpt>
      <trkpt lat="43.67615" lon="6.68004">
        <ele>732.16</ele>
        <time>2019-12-08T10:51:29.000Z</time>
      </trkpt>
      <trkpt lat="43.67627" lon="6.6801">
        <ele>731.44</ele>
        <time>2019-12-08T10:51:30.000Z</time>
      </trkpt>
      <trkpt lat="43.67638" lon="6.68017">
        <ele>730.97</ele>
        <time>2019-12-08T10:51:31.000Z</time>
      </trkpt>
      <trkpt lat="43.67649" lon="6.68024">
        <ele>730.45</ele>
        <time>2019-12-08T10:51:32.000Z</time>
      </trkpt>
      <trkpt lat="43.67659" lon="6.68032">
        <ele>730.3</ele>
        <time>2019-12-08T10:51:33.000Z</time>
      </trkpt>
      <trkpt lat="43.67669" lon="6.6804">
        <ele>730.15</ele>
        <time>2019-12-08T10:51:34.000Z</time>
      </trkpt>
      <trkpt lat="43.67678" lon="6.68047">
        <ele>730.04</ele>
        <time>2019-12-08T10:51:35.000Z</time>
      </trkpt>
      <trkpt lat="43.67687" lon="6.68055">
        <ele>729.99</ele>
        <time>2019-12-08T10:51:36.000Z</time>
      </trkpt>
      <trkpt lat="43.67696" lon="6.68064">
        <ele>729.96</ele>
        <time>2019-12-08T10:51:37.000Z</time>
      </trkpt>
      <trkpt lat="43.67704" lon="6.68073">
        <ele>730.01</ele>
        <time>2019-12-08T10:51:38.000Z</time>
      </trkpt>
      <trkpt lat="43.67711" lon="6.68083">
        <ele>730.06</ele>
        <time>2019-12-08T10:51:39.000Z</time>
      </trkpt>
      <trkpt lat="43.67719" lon="6.68092">
        <ele>729.96</ele>
        <time>2019-12-08T10:51:40.000Z</time>
      </trkpt>
      <trkpt lat="43.67726" lon="6.68102">
        <ele>729.91</ele>
        <time>2019-12-08T10:51:41.000Z</time>
      </trkpt>
      <trkpt lat="43.67733" lon="6.68111">
        <ele>729.89</ele>
        <time>2019-12-08T10:51:42.000Z</time>
      </trkpt>
      <trkpt lat="43.6774" lon="6.6812">
        <ele>729.78</ele>
        <time>2019-12-08T10:51:43.000Z</time>
      </trkpt>
      <trkpt lat="43.67747" lon="6.68129">
        <ele>729.8</ele>
        <time>2019-12-08T10:51:44.000Z</time>
      </trkpt>
      <trkpt lat="43.67754" lon="6.68138">
        <ele>729.81</ele>
        <time>2019-12-08T10:51:45.000Z</time>
      </trkpt>
      <trkpt lat="43.67761" lon="6.68146">
        <ele>729.73</ele>
        <time>2019-12-08T10:51:46.000Z</time>
      </trkpt>
      <trkpt lat="43.67768" lon="6.68155">
        <ele>729.55</ele>
        <time>2019-12-08T10:51:47.000Z</time>
      </trkpt>
      <trkpt lat="43.67775" lon="6.68164">
        <ele>729.38</ele>
        <time>2019-12-08T10:51:48.000Z</time>
      </trkpt>
      <trkpt lat="43.67782" lon="6.68173">
        <ele>729.26</ele>
        <time>2019-12-08T10:51:49.000Z</time>
      </trkpt>
      <trkpt lat="43.67789" lon="6.68182">
        <ele>729.25</ele>
        <time>2019-12-08T10:51:50.000Z</time>
      </trkpt>
      <trkpt lat="43.67796" lon="6.68191">
        <ele>729.17</ele>
        <time>2019-12-08T10:51:51.000Z</time>
      </trkpt>
      <trkpt lat="43.67802" lon="6.682">
        <ele>729.07</ele>
        <time>2019-12-08T10:51:52.000Z</time>
      </trkpt>
      <trkpt lat="43.67809" lon="6.68209">
        <ele>728.84</ele>
        <time>2019-12-08T10:51:53.000Z</time>
      </trkpt>
      <trkpt lat="43.67816" lon="6.68218">
        <ele>728.75</ele>
        <time>2019-12-08T10:51:54.000Z</time>
      </trkpt>
      <trkpt lat="43.67822" lon="6.68227">
        <ele>728.7</ele>
        <time>2019-12-08T10:51:55.000Z</time>
      </trkpt>
      <trkpt lat="43.67828" lon="6.68237">
        <ele>728.7</ele>
        <time>2019-12-08T10:51:56.000Z</time>
      </trkpt>
      <trkpt lat="43.67833" lon="6.68247">
        <ele>728.85</ele>
        <time>2019-12-08T10:51:57.000Z</time>
      </trkpt>
      <trkpt lat="43.67837" lon="6.68258">
        <ele>728.99</ele>
        <time>2019-12-08T10:51:58.000Z</time>
      </trkpt>
      <trkpt lat="43.6784" lon="6.68269">
        <ele>729.23</ele>
        <time>2019-12-08T10:51:59.000Z</time>
      </trkpt>
      <trkpt lat="43.67842" lon="6.6828">
        <ele>729.4</ele>
        <time>2019-12-08T10:52:00.000Z</time>
      </trkpt>
      <trkpt lat="43.67844" lon="6.68292">
        <ele>729.49</ele>
        <time>2019-12-08T10:52:01.000Z</time>
      </trkpt>
      <trkpt lat="43.67846" lon="6.68303">
        <ele>729.49</ele>
        <time>2019-12-08T10:52:02.000Z</time>
      </trkpt>
      <trkpt lat="43.67847" lon="6.68315">
        <ele>729.38</ele>
        <time>2019-12-08T10:52:03.000Z</time>
      </trkpt>
      <trkpt lat="43.67848" lon="6.68326">
        <ele>729.34</ele>
        <time>2019-12-08T10:52:04.000Z</time>
      </trkpt>
      <trkpt lat="43.67849" lon="6.68338">
        <ele>729.33</ele>
        <time>2019-12-08T10:52:05.000Z</time>
      </trkpt>
      <trkpt lat="43.6785" lon="6.68349">
        <ele>729.3</ele>
        <time>2019-12-08T10:52:06.000Z</time>
      </trkpt>
      <trkpt lat="43.67851" lon="6.68361">
        <ele>729.27</ele>
        <time>2019-12-08T10:52:07.000Z</time>
      </trkpt>
      <trkpt lat="43.67852" lon="6.68372">
        <ele>729.27</ele>
        <time>2019-12-08T10:52:08.000Z</time>
      </trkpt>
      <trkpt lat="43.67854" lon="6.68384">
        <ele>729.39</ele>
        <time>2019-12-08T10:52:09.000Z</time>
      </trkpt>
      <trkpt lat="43.67855" lon="6.68395">
        <ele>729.56</ele>
        <time>2019-12-08T10:52:10.000Z</time>
      </trkpt>
      <trkpt lat="43.67856" lon="6.68406">
        <ele>729.64</ele>
        <time>2019-12-08T10:52:11.000Z</time>
      </trkpt>
      <trkpt lat="43.67857" lon="6.68417">
        <ele>729.76</ele>
        <time>2019-12-08T10:52:12.000Z</time>
      </trkpt>
      <trkpt lat="43.67859" lon="6.68429">
        <ele>729.83</ele>
        <time>2019-12-08T10:52:13.000Z</time>
      </trkpt>
      <trkpt lat="43.6786" lon="6.6844">
        <ele>729.81</ele>
        <time>2019-12-08T10:52:14.000Z</time>
      </trkpt>
      <trkpt lat="43.67861" lon="6.68451">
        <ele>729.73</ele>
        <time>2019-12-08T10:52:15.000Z</time>
      </trkpt>
      <trkpt lat="43.67863" lon="6.68462">
        <ele>729.61</ele>
        <time>2019-12-08T10:52:16.000Z</time>
      </trkpt>
      <trkpt lat="43.67864" lon="6.68473">
        <ele>729.55</ele>
        <time>2019-12-08T10:52:17.000Z</time>
      </trkpt>
      <trkpt lat="43.67865" lon="6.68484">
        <ele>729.53</ele>
        <time>2019-12-08T10:52:18.000Z</time>
      </trkpt>
      <trkpt lat="43.67866" lon="6.68495">
        <ele>729.52</ele>
        <time>2019-12-08T10:52:19.000Z</time>
      </trkpt>
      <trkpt lat="43.67868" lon="6.68506">
        <ele>729.56</ele>
        <time>2019-12-08T10:52:20.000Z</time>
      </trkpt>
      <trkpt lat="43.67869" lon="6.68517">
        <ele>729.63</ele>
        <time>2019-12-08T10:52:21.000Z</time>
      </trkpt>
      <trkpt lat="43.6787" lon="6.68527">
        <ele>729.56</ele>
        <time>2019-12-08T10:52:22.000Z</time>
      </trkpt>
      <trkpt lat="43.67872" lon="6.68538">
        <ele>729.51</ele>
        <time>2019-12-08T10:52:23.000Z</time>
      </trkpt>
      <trkpt lat="43.67873" lon="6.68549">
        <ele>729.42</ele>
        <time>2019-12-08T10:52:24.000Z</time>
      </trkpt>
      <trkpt lat="43.67874" lon="6.6856">
        <ele>729.38</ele>
        <time>2019-12-08T10:52:25.000Z</time>
      </trkpt>
      <trkpt lat="43.67875" lon="6.6857">
        <ele>729.45</ele>
        <time>2019-12-08T10:52:26.000Z</time>
      </trkpt>
      <trkpt lat="43.67876" lon="6.68581">
        <ele>729.41</ele>
        <time>2019-12-08T10:52:27.000Z</time>
      </trkpt>
      <trkpt lat="43.67876" lon="6.68591">
        <ele>729.42</ele>
        <time>2019-12-08T10:52:28.000Z</time>
      </trkpt>
      <trkpt lat="43.67876" lon="6.68602">
        <ele>729.36</ele>
        <time>2019-12-08T10:52:29.000Z</time>
      </trkpt>
      <trkpt lat="43.67874" lon="6.68613">
        <ele>729.25</ele>
        <time>2019-12-08T10:52:30.000Z</time>
      </trkpt>
      <trkpt lat="43.67872" lon="6.68623">
        <ele>729.16</ele>
        <time>2019-12-08T10:52:31.000Z</time>
      </trkpt>
      <trkpt lat="43.67869" lon="6.68632">
        <ele>729.13</ele>
        <time>2019-12-08T10:52:32.000Z</time>
      </trkpt>
      <trkpt lat="43.67865" lon="6.68641">
        <ele>729.1</ele>
        <time>2019-12-08T10:52:33.000Z</time>
      </trkpt>
      <trkpt lat="43.67861" lon="6.6865">
        <ele>729.16</ele>
        <time>2019-12-08T10:52:34.000Z</time>
      </trkpt>
      <trkpt lat="43.67857" lon="6.68658">
        <ele>729.21</ele>
        <time>2019-12-08T10:52:35.000Z</time>
      </trkpt>
      <trkpt lat="43.67853" lon="6.68666">
        <ele>729.31</ele>
        <time>2019-12-08T10:52:36.000Z</time>
      </trkpt>
      <trkpt lat="43.67848" lon="6.68675">
        <ele>729.34</ele>
        <time>2019-12-08T10:52:37.000Z</time>
      </trkpt>
      <trkpt lat="43.67844" lon="6.68683">
        <ele>729.37</ele>
        <time>2019-12-08T10:52:38.000Z</time>
      </trkpt>
      <trkpt lat="43.67841" lon="6.68692">
        <ele>729.35</ele>
        <time>2019-12-08T10:52:39.000Z</time>
      </trkpt>
      <trkpt lat="43.67839" lon="6.68702">
        <ele>729.33</ele>
        <time>2019-12-08T10:52:40.000Z</time>
      </trkpt>
      <trkpt lat="43.67837" lon="6.68712">
        <ele>729.31</ele>
        <time>2019-12-08T10:52:41.000Z</time>
      </trkpt>
      <trkpt lat="43.67836" lon="6.68722">
        <ele>729.28</ele>
        <time>2019-12-08T10:52:42.000Z</time>
      </trkpt>
      <trkpt lat="43.67835" lon="6.68732">
        <ele>729.26</ele>
        <time>2019-12-08T10:52:43.000Z</time>
      </trkpt>
      <trkpt lat="43.67834" lon="6.68742">
        <ele>729.24</ele>
        <time>2019-12-08T10:52:44.000Z</time>
      </trkpt>
      <trkpt lat="43.67833" lon="6.68753">
        <ele>729.21</ele>
        <time>2019-12-08T10:52:45.000Z</time>
      </trkpt>
      <trkpt lat="43.67832" lon="6.68763">
        <ele>729.16</ele>
        <time>2019-12-08T10:52:46.000Z</time>
      </trkpt>
      <trkpt lat="43.67831" lon="6.68773">
        <ele>729.23</ele>
        <time>2019-12-08T10:52:47.000Z</time>
      </trkpt>
      <trkpt lat="43.67831" lon="6.68784">
        <ele>729.24</ele>
        <time>2019-12-08T10:52:48.000Z</time>
      </trkpt>
      <trkpt lat="43.6783" lon="6.68794">
        <ele>729.29</ele>
        <time>2019-12-08T10:52:49.000Z</time>
      </trkpt>
      <trkpt lat="43.67829" lon="6.68804">
        <ele>729.3</ele>
        <time>2019-12-08T10:52:50.000Z</time>
      </trkpt>
      <trkpt lat="43.67828" lon="6.68815">
        <ele>729.24</ele>
        <time>2019-12-08T10:52:51.000Z</time>
      </trkpt>
      <trkpt lat="43.67827" lon="6.68825">
        <ele>729.16</ele>
        <time>2019-12-08T10:52:52.000Z</time>
      </trkpt>
      <trkpt lat="43.67827" lon="6.68835">
        <ele>729.12</ele>
        <time>2019-12-08T10:52:53.000Z</time>
      </trkpt>
      <trkpt lat="43.67827" lon="6.68845">
        <ele>729.09</ele>
        <time>2019-12-08T10:52:54.000Z</time>
      </trkpt>
      <trkpt lat="43.67829" lon="6.68855">
        <ele>729.19</ele>
        <time>2019-12-08T10:52:55.000Z</time>
      </trkpt>
      <trkpt lat="43.67831" lon="6.68865">
        <ele>729.19</ele>
        <time>2019-12-08T10:52:56.000Z</time>
      </trkpt>
      <trkpt lat="43.67835" lon="6.68874">
        <ele>729.22</ele>
        <time>2019-12-08T10:52:57.000Z</time>
      </trkpt>
      <trkpt lat="43.6784" lon="6.68882">
        <ele>729.26</ele>
        <time>2019-12-08T10:52:58.000Z</time>
      </trkpt>
      <trkpt lat="43.67844" lon="6.6889">
        <ele>729.34</ele>
        <time>2019-12-08T10:52:59.000Z</time>
      </trkpt>
      <trkpt lat="43.67849" lon="6.68898">
        <ele>729.32</ele>
        <time>2019-12-08T10:53:00.000Z</time>
      </trkpt>
      <trkpt lat="43.67854" lon="6.68906">
        <ele>729.22</ele>
        <time>2019-12-08T10:53:01.000Z</time>
      </trkpt>
      <trkpt lat="43.67859" lon="6.68914">
        <ele>729.17</ele>
        <time>2019-12-08T10:53:02.000Z</time>
      </trkpt>
      <trkpt lat="43.67864" lon="6.68922">
        <ele>729.07</ele>
        <time>2019-12-08T10:53:03.000Z</time>
      </trkpt>
      <trkpt lat="43.67869" lon="6.6893">
        <ele>729.08</ele>
        <time>2019-12-08T10:53:04.000Z</time>
      </trkpt>
      <trkpt lat="43.67874" lon="6.68939">
        <ele>728.95</ele>
        <time>2019-12-08T10:53:05.000Z</time>
      </trkpt>
      <trkpt lat="43.67879" lon="6.68947">
        <ele>728.82</ele>
        <time>2019-12-08T10:53:06.000Z</time>
      </trkpt>
      <trkpt lat="43.67885" lon="6.68955">
        <ele>728.59</ele>
        <time>2019-12-08T10:53:07.000Z</time>
      </trkpt>
      <trkpt lat="43.6789" lon="6.68963">
        <ele>728.04</ele>
        <time>2019-12-08T10:53:08.000Z</time>
      </trkpt>
      <trkpt lat="43.67895" lon="6.68971">
        <ele>727.82</ele>
        <time>2019-12-08T10:53:09.000Z</time>
      </trkpt>
      <trkpt lat="43.67901" lon="6.6898">
        <ele>727.51</ele>
        <time>2019-12-08T10:53:10.000Z</time>
      </trkpt>
      <trkpt lat="43.67906" lon="6.68989">
        <ele>727.11</ele>
        <time>2019-12-08T10:53:11.000Z</time>
      </trkpt>
      <trkpt lat="43.67909" lon="6.69">
        <ele>726.88</ele>
        <time>2019-12-08T10:53:12.000Z</time>
      </trkpt>
      <trkpt lat="43.67911" lon="6.69012">
        <ele>726.66</ele>
        <time>2019-12-08T10:53:13.000Z</time>
      </trkpt>
      <trkpt lat="43.6791" lon="6.69025">
        <ele>726.25</ele>
        <time>2019-12-08T10:53:14.000Z</time>
      </trkpt>
      <trkpt lat="43.67907" lon="6.69037">
        <ele>725.67</ele>
        <time>2019-12-08T10:53:15.000Z</time>
      </trkpt>
      <trkpt lat="43.67903" lon="6.69049">
        <ele>725</ele>
        <time>2019-12-08T10:53:16.000Z</time>
      </trkpt>
      <trkpt lat="43.679" lon="6.69061">
        <ele>724.71</ele>
        <time>2019-12-08T10:53:17.000Z</time>
      </trkpt>
      <trkpt lat="43.67897" lon="6.69073">
        <ele>724.26</ele>
        <time>2019-12-08T10:53:18.000Z</time>
      </trkpt>
      <trkpt lat="43.67895" lon="6.69086">
        <ele>724.26</ele>
        <time>2019-12-08T10:53:19.000Z</time>
      </trkpt>
      <trkpt lat="43.67896" lon="6.691">
        <ele>723.93</ele>
        <time>2019-12-08T10:53:20.000Z</time>
      </trkpt>
      <trkpt lat="43.67898" lon="6.69113">
        <ele>723.26</ele>
        <time>2019-12-08T10:53:21.000Z</time>
      </trkpt>
      <trkpt lat="43.67901" lon="6.69126">
        <ele>722.72</ele>
        <time>2019-12-08T10:53:22.000Z</time>
      </trkpt>
      <trkpt lat="43.67907" lon="6.69138">
        <ele>722.21</ele>
        <time>2019-12-08T10:53:23.000Z</time>
      </trkpt>
      <trkpt lat="43.67913" lon="6.69148">
        <ele>721.76</ele>
        <time>2019-12-08T10:53:24.000Z</time>
      </trkpt>
      <trkpt lat="43.67921" lon="6.69156">
        <ele>721.54</ele>
        <time>2019-12-08T10:53:25.000Z</time>
      </trkpt>
      <trkpt lat="43.6793" lon="6.69163">
        <ele>720.95</ele>
        <time>2019-12-08T10:53:26.000Z</time>
      </trkpt>
      <trkpt lat="43.67941" lon="6.69168">
        <ele>720.25</ele>
        <time>2019-12-08T10:53:27.000Z</time>
      </trkpt>
      <trkpt lat="43.67951" lon="6.69171">
        <ele>719.39</ele>
        <time>2019-12-08T10:53:28.000Z</time>
      </trkpt>
      <trkpt lat="43.67962" lon="6.69175">
        <ele>718.95</ele>
        <time>2019-12-08T10:53:29.000Z</time>
      </trkpt>
      <trkpt lat="43.67973" lon="6.69178">
        <ele>718.18</ele>
        <time>2019-12-08T10:53:30.000Z</time>
      </trkpt>
      <trkpt lat="43.67985" lon="6.6918">
        <ele>717.29</ele>
        <time>2019-12-08T10:53:31.000Z</time>
      </trkpt>
      <trkpt lat="43.67996" lon="6.69181">
        <ele>717.29</ele>
        <time>2019-12-08T10:53:32.000Z</time>
      </trkpt>
      <trkpt lat="43.68008" lon="6.6918">
        <ele>716.32</ele>
        <time>2019-12-08T10:53:33.000Z</time>
      </trkpt>
      <trkpt lat="43.6802" lon="6.69178">
        <ele>715.41</ele>
        <time>2019-12-08T10:53:34.000Z</time>
      </trkpt>
      <trkpt lat="43.68032" lon="6.69175">
        <ele>714.33</ele>
        <time>2019-12-08T10:53:35.000Z</time>
      </trkpt>
      <trkpt lat="43.68044" lon="6.69172">
        <ele>713.38</ele>
        <time>2019-12-08T10:53:36.000Z</time>
      </trkpt>
      <trkpt lat="43.68056" lon="6.69169">
        <ele>712.94</ele>
        <time>2019-12-08T10:53:37.000Z</time>
      </trkpt>
      <trkpt lat="43.68068" lon="6.69164">
        <ele>711.93</ele>
        <time>2019-12-08T10:53:38.000Z</time>
      </trkpt>
      <trkpt lat="43.68078" lon="6.69156">
        <ele>710.93</ele>
        <time>2019-12-08T10:53:39.000Z</time>
      </trkpt>
      <trkpt lat="43.68088" lon="6.69146">
        <ele>710</ele>
        <time>2019-12-08T10:53:40.000Z</time>
      </trkpt>
      <trkpt lat="43.68097" lon="6.69134">
        <ele>709.53</ele>
        <time>2019-12-08T10:53:41.000Z</time>
      </trkpt>
      <trkpt lat="43.68106" lon="6.69122">
        <ele>708.71</ele>
        <time>2019-12-08T10:53:42.000Z</time>
      </trkpt>
      <trkpt lat="43.68116" lon="6.69112">
        <ele>707.92</ele>
        <time>2019-12-08T10:53:43.000Z</time>
      </trkpt>
      <trkpt lat="43.68127" lon="6.69104">
        <ele>707.04</ele>
        <time>2019-12-08T10:53:44.000Z</time>
      </trkpt>
      <trkpt lat="43.68139" lon="6.69098">
        <ele>706.07</ele>
        <time>2019-12-08T10:53:45.000Z</time>
      </trkpt>
      <trkpt lat="43.68151" lon="6.69094">
        <ele>705.52</ele>
        <time>2019-12-08T10:53:46.000Z</time>
      </trkpt>
      <trkpt lat="43.68163" lon="6.69092">
        <ele>704.38</ele>
        <time>2019-12-08T10:53:47.000Z</time>
      </trkpt>
      <trkpt lat="43.68176" lon="6.69091">
        <ele>703.3</ele>
        <time>2019-12-08T10:53:48.000Z</time>
      </trkpt>
      <trkpt lat="43.68189" lon="6.69091">
        <ele>702.78</ele>
        <time>2019-12-08T10:53:49.000Z</time>
      </trkpt>
      <trkpt lat="43.68202" lon="6.69091">
        <ele>701.72</ele>
        <time>2019-12-08T10:53:50.000Z</time>
      </trkpt>
      <trkpt lat="43.68215" lon="6.69093">
        <ele>700.7</ele>
        <time>2019-12-08T10:53:51.000Z</time>
      </trkpt>
      <trkpt lat="43.68227" lon="6.69097">
        <ele>699.59</ele>
        <time>2019-12-08T10:53:52.000Z</time>
      </trkpt>
      <trkpt lat="43.68239" lon="6.69103">
        <ele>698.46</ele>
        <time>2019-12-08T10:53:53.000Z</time>
      </trkpt>
      <trkpt lat="43.6825" lon="6.69111">
        <ele>697.89</ele>
        <time>2019-12-08T10:53:54.000Z</time>
      </trkpt>
      <trkpt lat="43.6826" lon="6.69123">
        <ele>696.74</ele>
        <time>2019-12-08T10:53:55.000Z</time>
      </trkpt>
      <trkpt lat="43.68268" lon="6.69136">
        <ele>695.62</ele>
        <time>2019-12-08T10:53:56.000Z</time>
      </trkpt>
      <trkpt lat="43.68277" lon="6.69148">
        <ele>695.03</ele>
        <time>2019-12-08T10:53:57.000Z</time>
      </trkpt>
      <trkpt lat="43.68285" lon="6.69158">
        <ele>693.88</ele>
        <time>2019-12-08T10:53:58.000Z</time>
      </trkpt>
      <trkpt lat="43.68294" lon="6.69166">
        <ele>692.7</ele>
        <time>2019-12-08T10:53:59.000Z</time>
      </trkpt>
      <trkpt lat="43.68304" lon="6.69169">
        <ele>691.53</ele>
        <time>2019-12-08T10:54:00.000Z</time>
      </trkpt>
      <trkpt lat="43.68316" lon="6.69162">
        <ele>690.54</ele>
        <time>2019-12-08T10:54:01.000Z</time>
      </trkpt>
      <trkpt lat="43.68326" lon="6.69158">
        <ele>690.13</ele>
        <time>2019-12-08T10:54:02.000Z</time>
      </trkpt>
      <trkpt lat="43.68337" lon="6.69153">
        <ele>689.26</ele>
        <time>2019-12-08T10:54:03.000Z</time>
      </trkpt>
      <trkpt lat="43.68348" lon="6.69148">
        <ele>688.68</ele>
        <time>2019-12-08T10:54:04.000Z</time>
      </trkpt>
      <trkpt lat="43.68358" lon="6.69147">
        <ele>688.01</ele>
        <time>2019-12-08T10:54:05.000Z</time>
      </trkpt>
      <trkpt lat="43.68369" lon="6.69153">
        <ele>687.63</ele>
        <time>2019-12-08T10:54:06.000Z</time>
      </trkpt>
      <trkpt lat="43.68378" lon="6.6916">
        <ele>686.76</ele>
        <time>2019-12-08T10:54:07.000Z</time>
      </trkpt>
      <trkpt lat="43.68386" lon="6.69169">
        <ele>686.02</ele>
        <time>2019-12-08T10:54:08.000Z</time>
      </trkpt>
      <trkpt lat="43.68392" lon="6.6918">
        <ele>685.65</ele>
        <time>2019-12-08T10:54:09.000Z</time>
      </trkpt>
      <trkpt lat="43.68394" lon="6.69193">
        <ele>685.47</ele>
        <time>2019-12-08T10:54:10.000Z</time>
      </trkpt>
      <trkpt lat="43.6839" lon="6.69205">
        <ele>685.31</ele>
        <time>2019-12-08T10:54:11.000Z</time>
      </trkpt>
      <trkpt lat="43.68383" lon="6.69214">
        <ele>685.43</ele>
        <time>2019-12-08T10:54:12.000Z</time>
      </trkpt>
      <trkpt lat="43.68376" lon="6.69221">
        <ele>685.41</ele>
        <time>2019-12-08T10:54:13.000Z</time>
      </trkpt>
      <trkpt lat="43.68369" lon="6.69227">
        <ele>685.52</ele>
        <time>2019-12-08T10:54:14.000Z</time>
      </trkpt>
      <trkpt lat="43.68364" lon="6.69231">
        <ele>685.69</ele>
        <time>2019-12-08T10:54:15.000Z</time>
      </trkpt>
      <trkpt lat="43.68358" lon="6.69237">
        <ele>686.09</ele>
        <time>2019-12-08T10:54:16.000Z</time>
      </trkpt>
      <trkpt lat="43.68354" lon="6.69244">
        <ele>686.58</ele>
        <time>2019-12-08T10:54:17.000Z</time>
      </trkpt>
      <trkpt lat="43.6835" lon="6.6925">
        <ele>686.89</ele>
        <time>2019-12-08T10:54:18.000Z</time>
      </trkpt>
      <trkpt lat="43.68346" lon="6.69256">
        <ele>687.39</ele>
        <time>2019-12-08T10:54:19.000Z</time>
      </trkpt>
      <trkpt lat="43.68343" lon="6.69262">
        <ele>687.87</ele>
        <time>2019-12-08T10:54:20.000Z</time>
      </trkpt>
      <trkpt lat="43.68339" lon="6.69268">
        <ele>688.39</ele>
        <time>2019-12-08T10:54:21.000Z</time>
      </trkpt>
      <trkpt lat="43.68336" lon="6.69273">
        <ele>688.81</ele>
        <time>2019-12-08T10:54:22.000Z</time>
      </trkpt>
      <trkpt lat="43.68333" lon="6.69278">
        <ele>689</ele>
        <time>2019-12-08T10:54:23.000Z</time>
      </trkpt>
      <trkpt lat="43.6833" lon="6.69283">
        <ele>689.32</ele>
        <time>2019-12-08T10:54:24.000Z</time>
      </trkpt>
      <trkpt lat="43.68328" lon="6.69288">
        <ele>689.68</ele>
        <time>2019-12-08T10:54:25.000Z</time>
      </trkpt>
      <trkpt lat="43.68325" lon="6.69293">
        <ele>689.78</ele>
        <time>2019-12-08T10:54:26.000Z</time>
      </trkpt>
      <trkpt lat="43.68323" lon="6.69297">
        <ele>690.07</ele>
        <time>2019-12-08T10:54:27.000Z</time>
      </trkpt>
      <trkpt lat="43.6832" lon="6.69301">
        <ele>690.42</ele>
        <time>2019-12-08T10:54:28.000Z</time>
      </trkpt>
      <trkpt lat="43.68318" lon="6.69305">
        <ele>690.78</ele>
        <time>2019-12-08T10:54:29.000Z</time>
      </trkpt>
      <trkpt lat="43.68315" lon="6.69308">
        <ele>691.12</ele>
        <time>2019-12-08T10:54:30.000Z</time>
      </trkpt>
      <trkpt lat="43.68312" lon="6.69312">
        <ele>691.32</ele>
        <time>2019-12-08T10:54:31.000Z</time>
      </trkpt>
      <trkpt lat="43.68309" lon="6.69314">
        <ele>691.72</ele>
        <time>2019-12-08T10:54:32.000Z</time>
      </trkpt>
      <trkpt lat="43.68305" lon="6.69317">
        <ele>692.15</ele>
        <time>2019-12-08T10:54:33.000Z</time>
      </trkpt>
      <trkpt lat="43.68302" lon="6.69319">
        <ele>692.55</ele>
        <time>2019-12-08T10:54:34.000Z</time>
      </trkpt>
      <trkpt lat="43.68299" lon="6.69321">
        <ele>692.74</ele>
        <time>2019-12-08T10:54:35.000Z</time>
      </trkpt>
      <trkpt lat="43.68296" lon="6.69322">
        <ele>693.09</ele>
        <time>2019-12-08T10:54:36.000Z</time>
      </trkpt>
      <trkpt lat="43.68293" lon="6.69324">
        <ele>693.38</ele>
        <time>2019-12-08T10:54:37.000Z</time>
      </trkpt>
      <trkpt lat="43.68289" lon="6.69326">
        <ele>693.64</ele>
        <time>2019-12-08T10:54:38.000Z</time>
      </trkpt>
      <trkpt lat="43.68286" lon="6.69328">
        <ele>693.75</ele>
        <time>2019-12-08T10:54:39.000Z</time>
      </trkpt>
      <trkpt lat="43.68283" lon="6.69329">
        <ele>694.09</ele>
        <time>2019-12-08T10:54:40.000Z</time>
      </trkpt>
      <trkpt lat="43.68279" lon="6.69331">
        <ele>694.42</ele>
        <time>2019-12-08T10:54:41.000Z</time>
      </trkpt>
      <trkpt lat="43.68276" lon="6.69333">
        <ele>694.77</ele>
        <time>2019-12-08T10:54:42.000Z</time>
      </trkpt>
      <trkpt lat="43.68273" lon="6.69335">
        <ele>694.94</ele>
        <time>2019-12-08T10:54:43.000Z</time>
      </trkpt>
      <trkpt lat="43.6827" lon="6.69337">
        <ele>695.24</ele>
        <time>2019-12-08T10:54:44.000Z</time>
      </trkpt>
      <trkpt lat="43.68266" lon="6.69339">
        <ele>695.5</ele>
        <time>2019-12-08T10:54:45.000Z</time>
      </trkpt>
      <trkpt lat="43.68263" lon="6.69341">
        <ele>695.81</ele>
        <time>2019-12-08T10:54:46.000Z</time>
      </trkpt>
      <trkpt lat="43.6826" lon="6.69344">
        <ele>695.9</ele>
        <time>2019-12-08T10:54:47.000Z</time>
      </trkpt>
      <trkpt lat="43.68257" lon="6.69346">
        <ele>696.18</ele>
        <time>2019-12-08T10:54:48.000Z</time>
      </trkpt>
      <trkpt lat="43.68254" lon="6.69349">
        <ele>696.46</ele>
        <time>2019-12-08T10:54:49.000Z</time>
      </trkpt>
      <trkpt lat="43.68251" lon="6.69352">
        <ele>696.79</ele>
        <time>2019-12-08T10:54:50.000Z</time>
      </trkpt>
      <trkpt lat="43.68249" lon="6.69355">
        <ele>697.14</ele>
        <time>2019-12-08T10:54:51.000Z</time>
      </trkpt>
      <trkpt lat="43.68246" lon="6.69359">
        <ele>697.27</ele>
        <time>2019-12-08T10:54:52.000Z</time>
      </trkpt>
      <trkpt lat="43.68244" lon="6.69363">
        <ele>697.56</ele>
        <time>2019-12-08T10:54:53.000Z</time>
      </trkpt>
      <trkpt lat="43.68242" lon="6.69366">
        <ele>697.88</ele>
        <time>2019-12-08T10:54:54.000Z</time>
      </trkpt>
      <trkpt lat="43.6824" lon="6.6937">
        <ele>698.01</ele>
        <time>2019-12-08T10:54:55.000Z</time>
      </trkpt>
      <trkpt lat="43.68238" lon="6.69374">
        <ele>698.01</ele>
        <time>2019-12-08T10:54:56.000Z</time>
      </trkpt>
      <trkpt lat="43.68236" lon="6.69377">
        <ele>698.4</ele>
        <time>2019-12-08T10:54:57.000Z</time>
      </trkpt>
      <trkpt lat="43.68235" lon="6.69381">
        <ele>698.85</ele>
        <time>2019-12-08T10:54:58.000Z</time>
      </trkpt>
      <trkpt lat="43.68233" lon="6.69385">
        <ele>699.25</ele>
        <time>2019-12-08T10:54:59.000Z</time>
      </trkpt>
      <trkpt lat="43.68231" lon="6.69389">
        <ele>699.41</ele>
        <time>2019-12-08T10:55:00.000Z</time>
      </trkpt>
      <trkpt lat="43.68229" lon="6.69393">
        <ele>699.74</ele>
        <time>2019-12-08T10:55:01.000Z</time>
      </trkpt>
      <trkpt lat="43.68227" lon="6.69397">
        <ele>699.93</ele>
        <time>2019-12-08T10:55:02.000Z</time>
      </trkpt>
      <trkpt lat="43.68226" lon="6.69401">
        <ele>700.18</ele>
        <time>2019-12-08T10:55:03.000Z</time>
      </trkpt>
      <trkpt lat="43.68224" lon="6.69404">
        <ele>700.28</ele>
        <time>2019-12-08T10:55:04.000Z</time>
      </trkpt>
      <trkpt lat="43.68222" lon="6.69408">
        <ele>700.56</ele>
        <time>2019-12-08T10:55:05.000Z</time>
      </trkpt>
      <trkpt lat="43.68221" lon="6.69413">
        <ele>700.84</ele>
        <time>2019-12-08T10:55:06.000Z</time>
      </trkpt>
      <trkpt lat="43.68219" lon="6.69417">
        <ele>701.08</ele>
        <time>2019-12-08T10:55:07.000Z</time>
      </trkpt>
      <trkpt lat="43.68218" lon="6.69422">
        <ele>701.23</ele>
        <time>2019-12-08T10:55:08.000Z</time>
      </trkpt>
      <trkpt lat="43.68217" lon="6.69426">
        <ele>701.51</ele>
        <time>2019-12-08T10:55:09.000Z</time>
      </trkpt>
      <trkpt lat="43.68215" lon="6.6943">
        <ele>701.78</ele>
        <time>2019-12-08T10:55:10.000Z</time>
      </trkpt>
      <trkpt lat="43.68214" lon="6.69435">
        <ele>702.09</ele>
        <time>2019-12-08T10:55:11.000Z</time>
      </trkpt>
      <trkpt lat="43.68213" lon="6.69439">
        <ele>702.21</ele>
        <time>2019-12-08T10:55:12.000Z</time>
      </trkpt>
      <trkpt lat="43.68212" lon="6.69443">
        <ele>702.49</ele>
        <time>2019-12-08T10:55:13.000Z</time>
      </trkpt>
      <trkpt lat="43.68211" lon="6.69448">
        <ele>702.73</ele>
        <time>2019-12-08T10:55:14.000Z</time>
      </trkpt>
      <trkpt lat="43.6821" lon="6.69452">
        <ele>702.93</ele>
        <time>2019-12-08T10:55:15.000Z</time>
      </trkpt>
      <trkpt lat="43.68209" lon="6.69456">
        <ele>703.04</ele>
        <time>2019-12-08T10:55:16.000Z</time>
      </trkpt>
      <trkpt lat="43.68208" lon="6.69461">
        <ele>703.29</ele>
        <time>2019-12-08T10:55:17.000Z</time>
      </trkpt>
      <trkpt lat="43.68207" lon="6.69465">
        <ele>703.52</ele>
        <time>2019-12-08T10:55:18.000Z</time>
      </trkpt>
      <trkpt lat="43.68206" lon="6.6947">
        <ele>703.77</ele>
        <time>2019-12-08T10:55:19.000Z</time>
      </trkpt>
      <trkpt lat="43.68205" lon="6.69474">
        <ele>703.93</ele>
        <time>2019-12-08T10:55:20.000Z</time>
      </trkpt>
      <trkpt lat="43.68204" lon="6.69478">
        <ele>704.24</ele>
        <time>2019-12-08T10:55:21.000Z</time>
      </trkpt>
      <trkpt lat="43.68203" lon="6.69482">
        <ele>704.54</ele>
        <time>2019-12-08T10:55:22.000Z</time>
      </trkpt>
      <trkpt lat="43.68202" lon="6.69486">
        <ele>704.88</ele>
        <time>2019-12-08T10:55:23.000Z</time>
      </trkpt>
      <trkpt lat="43.68201" lon="6.6949">
        <ele>705.03</ele>
        <time>2019-12-08T10:55:24.000Z</time>
      </trkpt>
      <trkpt lat="43.682" lon="6.69494">
        <ele>705.37</ele>
        <time>2019-12-08T10:55:25.000Z</time>
      </trkpt>
      <trkpt lat="43.68199" lon="6.69498">
        <ele>705.68</ele>
        <time>2019-12-08T10:55:26.000Z</time>
      </trkpt>
      <trkpt lat="43.68197" lon="6.69501">
        <ele>706.05</ele>
        <time>2019-12-08T10:55:27.000Z</time>
      </trkpt>
      <trkpt lat="43.68195" lon="6.69504">
        <ele>706.32</ele>
        <time>2019-12-08T10:55:28.000Z</time>
      </trkpt>
      <trkpt lat="43.68193" lon="6.69507">
        <ele>706.45</ele>
        <time>2019-12-08T10:55:29.000Z</time>
      </trkpt>
      <trkpt lat="43.6819" lon="6.69509">
        <ele>706.68</ele>
        <time>2019-12-08T10:55:30.000Z</time>
      </trkpt>
      <trkpt lat="43.68187" lon="6.6951">
        <ele>706.81</ele>
        <time>2019-12-08T10:55:31.000Z</time>
      </trkpt>
      <trkpt lat="43.68184" lon="6.6951">
        <ele>707.01</ele>
        <time>2019-12-08T10:55:32.000Z</time>
      </trkpt>
      <trkpt lat="43.68181" lon="6.69509">
        <ele>707.15</ele>
        <time>2019-12-08T10:55:33.000Z</time>
      </trkpt>
      <trkpt lat="43.68178" lon="6.69508">
        <ele>707.42</ele>
        <time>2019-12-08T10:55:34.000Z</time>
      </trkpt>
      <trkpt lat="43.68175" lon="6.69507">
        <ele>707.75</ele>
        <time>2019-12-08T10:55:35.000Z</time>
      </trkpt>
      <trkpt lat="43.68172" lon="6.69505">
        <ele>708.15</ele>
        <time>2019-12-08T10:55:36.000Z</time>
      </trkpt>
      <trkpt lat="43.68169" lon="6.69504">
        <ele>708.35</ele>
        <time>2019-12-08T10:55:37.000Z</time>
      </trkpt>
      <trkpt lat="43.68166" lon="6.69503">
        <ele>708.71</ele>
        <time>2019-12-08T10:55:38.000Z</time>
      </trkpt>
      <trkpt lat="43.68163" lon="6.69501">
        <ele>709.1</ele>
        <time>2019-12-08T10:55:39.000Z</time>
      </trkpt>
      <trkpt lat="43.6816" lon="6.695">
        <ele>709.36</ele>
        <time>2019-12-08T10:55:40.000Z</time>
      </trkpt>
      <trkpt lat="43.68157" lon="6.69498">
        <ele>709.5</ele>
        <time>2019-12-08T10:55:41.000Z</time>
      </trkpt>
      <trkpt lat="43.68154" lon="6.69497">
        <ele>709.74</ele>
        <time>2019-12-08T10:55:42.000Z</time>
      </trkpt>
      <trkpt lat="43.68151" lon="6.69496">
        <ele>710</ele>
        <time>2019-12-08T10:55:43.000Z</time>
      </trkpt>
      <trkpt lat="43.68149" lon="6.69495">
        <ele>710.3</ele>
        <time>2019-12-08T10:55:44.000Z</time>
      </trkpt>
      <trkpt lat="43.68146" lon="6.69493">
        <ele>710.3</ele>
        <time>2019-12-08T10:55:45.000Z</time>
      </trkpt>
      <trkpt lat="43.68143" lon="6.69492">
        <ele>710.59</ele>
        <time>2019-12-08T10:55:46.000Z</time>
      </trkpt>
      <trkpt lat="43.6814" lon="6.69491">
        <ele>710.85</ele>
        <time>2019-12-08T10:55:47.000Z</time>
      </trkpt>
      <trkpt lat="43.68137" lon="6.6949">
        <ele>710.85</ele>
        <time>2019-12-08T10:55:48.000Z</time>
      </trkpt>
      <trkpt lat="43.68134" lon="6.69489">
        <ele>711.12</ele>
        <time>2019-12-08T10:55:49.000Z</time>
      </trkpt>
      <trkpt lat="43.68131" lon="6.69488">
        <ele>711.32</ele>
        <time>2019-12-08T10:55:50.000Z</time>
      </trkpt>
      <trkpt lat="43.68128" lon="6.69488">
        <ele>711.58</ele>
        <time>2019-12-08T10:55:51.000Z</time>
      </trkpt>
      <trkpt lat="43.68125" lon="6.69488">
        <ele>711.88</ele>
        <time>2019-12-08T10:55:52.000Z</time>
      </trkpt>
      <trkpt lat="43.68122" lon="6.69488">
        <ele>712.03</ele>
        <time>2019-12-08T10:55:53.000Z</time>
      </trkpt>
      <trkpt lat="43.68118" lon="6.69489">
        <ele>712.03</ele>
        <time>2019-12-08T10:55:54.000Z</time>
      </trkpt>
      <trkpt lat="43.68116" lon="6.69491">
        <ele>712.36</ele>
        <time>2019-12-08T10:55:55.000Z</time>
      </trkpt>
      <trkpt lat="43.68113" lon="6.69492">
        <ele>712.75</ele>
        <time>2019-12-08T10:55:56.000Z</time>
      </trkpt>
      <trkpt lat="43.6811" lon="6.69494">
        <ele>712.94</ele>
        <time>2019-12-08T10:55:57.000Z</time>
      </trkpt>
      <trkpt lat="43.68107" lon="6.69497">
        <ele>713.34</ele>
        <time>2019-12-08T10:55:58.000Z</time>
      </trkpt>
      <trkpt lat="43.68105" lon="6.695">
        <ele>713.65</ele>
        <time>2019-12-08T10:55:59.000Z</time>
      </trkpt>
      <trkpt lat="43.68102" lon="6.69503">
        <ele>713.91</ele>
        <time>2019-12-08T10:56:00.000Z</time>
      </trkpt>
      <trkpt lat="43.681" lon="6.69505">
        <ele>714.04</ele>
        <time>2019-12-08T10:56:01.000Z</time>
      </trkpt>
      <trkpt lat="43.68097" lon="6.69508">
        <ele>714.23</ele>
        <time>2019-12-08T10:56:02.000Z</time>
      </trkpt>
      <trkpt lat="43.68095" lon="6.69511">
        <ele>714.48</ele>
        <time>2019-12-08T10:56:03.000Z</time>
      </trkpt>
      <trkpt lat="43.68093" lon="6.69514">
        <ele>714.75</ele>
        <time>2019-12-08T10:56:04.000Z</time>
      </trkpt>
      <trkpt lat="43.6809" lon="6.69517">
        <ele>714.98</ele>
        <time>2019-12-08T10:56:05.000Z</time>
      </trkpt>
      <trkpt lat="43.68088" lon="6.69521">
        <ele>715.15</ele>
        <time>2019-12-08T10:56:06.000Z</time>
      </trkpt>
      <trkpt lat="43.68086" lon="6.69524">
        <ele>715.37</ele>
        <time>2019-12-08T10:56:07.000Z</time>
      </trkpt>
      <trkpt lat="43.68083" lon="6.69527">
        <ele>715.56</ele>
        <time>2019-12-08T10:56:08.000Z</time>
      </trkpt>
      <trkpt lat="43.68081" lon="6.69529">
        <ele>715.77</ele>
        <time>2019-12-08T10:56:09.000Z</time>
      </trkpt>
      <trkpt lat="43.68078" lon="6.69532">
        <ele>715.95</ele>
        <time>2019-12-08T10:56:10.000Z</time>
      </trkpt>
      <trkpt lat="43.68076" lon="6.69535">
        <ele>716.23</ele>
        <time>2019-12-08T10:56:11.000Z</time>
      </trkpt>
      <trkpt lat="43.68073" lon="6.69538">
        <ele>716.51</ele>
        <time>2019-12-08T10:56:12.000Z</time>
      </trkpt>
      <trkpt lat="43.6807" lon="6.6954">
        <ele>716.76</ele>
        <time>2019-12-08T10:56:13.000Z</time>
      </trkpt>
      <trkpt lat="43.68067" lon="6.69542">
        <ele>716.89</ele>
        <time>2019-12-08T10:56:14.000Z</time>
      </trkpt>
      <trkpt lat="43.68064" lon="6.69544">
        <ele>717.12</ele>
        <time>2019-12-08T10:56:15.000Z</time>
      </trkpt>
      <trkpt lat="43.68061" lon="6.69546">
        <ele>717.39</ele>
        <time>2019-12-08T10:56:16.000Z</time>
      </trkpt>
      <trkpt lat="43.68058" lon="6.69547">
        <ele>717.65</ele>
        <time>2019-12-08T10:56:17.000Z</time>
      </trkpt>
      <trkpt lat="43.68055" lon="6.69549">
        <ele>717.83</ele>
        <time>2019-12-08T10:56:18.000Z</time>
      </trkpt>
      <trkpt lat="43.68052" lon="6.6955">
        <ele>718.13</ele>
        <time>2019-12-08T10:56:19.000Z</time>
      </trkpt>
      <trkpt lat="43.68049" lon="6.69551">
        <ele>718.41</ele>
        <time>2019-12-08T10:56:20.000Z</time>
      </trkpt>
      <trkpt lat="43.68046" lon="6.69553">
        <ele>718.71</ele>
        <time>2019-12-08T10:56:21.000Z</time>
      </trkpt>
      <trkpt lat="43.68043" lon="6.69554">
        <ele>718.86</ele>
        <time>2019-12-08T10:56:22.000Z</time>
      </trkpt>
      <trkpt lat="43.6804" lon="6.69556">
        <ele>719.06</ele>
        <time>2019-12-08T10:56:23.000Z</time>
      </trkpt>
      <trkpt lat="43.68037" lon="6.69557">
        <ele>719.33</ele>
        <time>2019-12-08T10:56:24.000Z</time>
      </trkpt>
      <trkpt lat="43.68034" lon="6.69559">
        <ele>719.61</ele>
        <time>2019-12-08T10:56:25.000Z</time>
      </trkpt>
      <trkpt lat="43.68031" lon="6.69561">
        <ele>719.75</ele>
        <time>2019-12-08T10:56:26.000Z</time>
      </trkpt>
      <trkpt lat="43.68029" lon="6.69564">
        <ele>720.04</ele>
        <time>2019-12-08T10:56:27.000Z</time>
      </trkpt>
      <trkpt lat="43.68026" lon="6.69566">
        <ele>720.33</ele>
        <time>2019-12-08T10:56:28.000Z</time>
      </trkpt>
      <trkpt lat="43.68023" lon="6.69569">
        <ele>720.53</ele>
        <time>2019-12-08T10:56:29.000Z</time>
      </trkpt>
      <trkpt lat="43.6802" lon="6.69572">
        <ele>720.71</ele>
        <time>2019-12-08T10:56:30.000Z</time>
      </trkpt>
      <trkpt lat="43.68018" lon="6.69575">
        <ele>720.81</ele>
        <time>2019-12-08T10:56:31.000Z</time>
      </trkpt>
      <trkpt lat="43.68015" lon="6.69578">
        <ele>721.03</ele>
        <time>2019-12-08T10:56:32.000Z</time>
      </trkpt>
      <trkpt lat="43.68013" lon="6.69581">
        <ele>721.23</ele>
        <time>2019-12-08T10:56:33.000Z</time>
      </trkpt>
      <trkpt lat="43.6801" lon="6.69583">
        <ele>721.34</ele>
        <time>2019-12-08T10:56:34.000Z</time>
      </trkpt>
      <trkpt lat="43.68007" lon="6.69586">
        <ele>721.6</ele>
        <time>2019-12-08T10:56:35.000Z</time>
      </trkpt>
      <trkpt lat="43.68005" lon="6.69589">
        <ele>721.82</ele>
        <time>2019-12-08T10:56:36.000Z</time>
      </trkpt>
      <trkpt lat="43.68002" lon="6.69592">
        <ele>722.08</ele>
        <time>2019-12-08T10:56:37.000Z</time>
      </trkpt>
      <trkpt lat="43.67999" lon="6.69594">
        <ele>722.36</ele>
        <time>2019-12-08T10:56:38.000Z</time>
      </trkpt>
      <trkpt lat="43.67997" lon="6.69597">
        <ele>722.49</ele>
        <time>2019-12-08T10:56:39.000Z</time>
      </trkpt>
      <trkpt lat="43.67995" lon="6.696">
        <ele>722.72</ele>
        <time>2019-12-08T10:56:40.000Z</time>
      </trkpt>
      <trkpt lat="43.67992" lon="6.69603">
        <ele>722.96</ele>
        <time>2019-12-08T10:56:41.000Z</time>
      </trkpt>
      <trkpt lat="43.6799" lon="6.69606">
        <ele>723.21</ele>
        <time>2019-12-08T10:56:42.000Z</time>
      </trkpt>
      <trkpt lat="43.67987" lon="6.69609">
        <ele>723.32</ele>
        <time>2019-12-08T10:56:43.000Z</time>
      </trkpt>
      <trkpt lat="43.67985" lon="6.69612">
        <ele>723.54</ele>
        <time>2019-12-08T10:56:44.000Z</time>
      </trkpt>
      <trkpt lat="43.67983" lon="6.69615">
        <ele>723.73</ele>
        <time>2019-12-08T10:56:45.000Z</time>
      </trkpt>
      <trkpt lat="43.67981" lon="6.69618">
        <ele>723.89</ele>
        <time>2019-12-08T10:56:46.000Z</time>
      </trkpt>
      <trkpt lat="43.67979" lon="6.69622">
        <ele>724.01</ele>
        <time>2019-12-08T10:56:47.000Z</time>
      </trkpt>
      <trkpt lat="43.67977" lon="6.69625">
        <ele>724.24</ele>
        <time>2019-12-08T10:56:48.000Z</time>
      </trkpt>
      <trkpt lat="43.67976" lon="6.69629">
        <ele>724.55</ele>
        <time>2019-12-08T10:56:49.000Z</time>
      </trkpt>
      <trkpt lat="43.67975" lon="6.69634">
        <ele>724.81</ele>
        <time>2019-12-08T10:56:50.000Z</time>
      </trkpt>
      <trkpt lat="43.67974" lon="6.69638">
        <ele>724.81</ele>
        <time>2019-12-08T10:56:51.000Z</time>
      </trkpt>
      <trkpt lat="43.67974" lon="6.69643">
        <ele>725.14</ele>
        <time>2019-12-08T10:56:52.000Z</time>
      </trkpt>
      <trkpt lat="43.67974" lon="6.69647">
        <ele>725.46</ele>
        <time>2019-12-08T10:56:53.000Z</time>
      </trkpt>
      <trkpt lat="43.67975" lon="6.69652">
        <ele>725.82</ele>
        <time>2019-12-08T10:56:54.000Z</time>
      </trkpt>
      <trkpt lat="43.67977" lon="6.69656">
        <ele>725.99</ele>
        <time>2019-12-08T10:56:55.000Z</time>
      </trkpt>
      <trkpt lat="43.67978" lon="6.69659">
        <ele>726.27</ele>
        <time>2019-12-08T10:56:56.000Z</time>
      </trkpt>
      <trkpt lat="43.67981" lon="6.69662">
        <ele>726.5</ele>
        <time>2019-12-08T10:56:57.000Z</time>
      </trkpt>
      <trkpt lat="43.67983" lon="6.69665">
        <ele>726.65</ele>
        <time>2019-12-08T10:56:58.000Z</time>
      </trkpt>
      <trkpt lat="43.67986" lon="6.69667">
        <ele>726.73</ele>
        <time>2019-12-08T10:56:59.000Z</time>
      </trkpt>
      <trkpt lat="43.67989" lon="6.69668">
        <ele>726.8</ele>
        <time>2019-12-08T10:57:00.000Z</time>
      </trkpt>
      <trkpt lat="43.67992" lon="6.69669">
        <ele>726.8</ele>
        <time>2019-12-08T10:57:01.000Z</time>
      </trkpt>
      <trkpt lat="43.67996" lon="6.69669">
        <ele>727.03</ele>
        <time>2019-12-08T10:57:02.000Z</time>
      </trkpt>
      <trkpt lat="43.67999" lon="6.69669">
        <ele>727.18</ele>
        <time>2019-12-08T10:57:03.000Z</time>
      </trkpt>
      <trkpt lat="43.68003" lon="6.69669">
        <ele>727.47</ele>
        <time>2019-12-08T10:57:04.000Z</time>
      </trkpt>
      <trkpt lat="43.68006" lon="6.69668">
        <ele>727.85</ele>
        <time>2019-12-08T10:57:05.000Z</time>
      </trkpt>
      <trkpt lat="43.68009" lon="6.69666">
        <ele>728.26</ele>
        <time>2019-12-08T10:57:06.000Z</time>
      </trkpt>
      <trkpt lat="43.68013" lon="6.69665">
        <ele>728.41</ele>
        <time>2019-12-08T10:57:07.000Z</time>
      </trkpt>
      <trkpt lat="43.68016" lon="6.69664">
        <ele>728.67</ele>
        <time>2019-12-08T10:57:08.000Z</time>
      </trkpt>
      <trkpt lat="43.68019" lon="6.69663">
        <ele>728.95</ele>
        <time>2019-12-08T10:57:09.000Z</time>
      </trkpt>
      <trkpt lat="43.68022" lon="6.69662">
        <ele>729.22</ele>
        <time>2019-12-08T10:57:10.000Z</time>
      </trkpt>
      <trkpt lat="43.68026" lon="6.69661">
        <ele>729.41</ele>
        <time>2019-12-08T10:57:11.000Z</time>
      </trkpt>
      <trkpt lat="43.68029" lon="6.6966">
        <ele>729.53</ele>
        <time>2019-12-08T10:57:12.000Z</time>
      </trkpt>
      <trkpt lat="43.68032" lon="6.69659">
        <ele>729.75</ele>
        <time>2019-12-08T10:57:13.000Z</time>
      </trkpt>
      <trkpt lat="43.68035" lon="6.69658">
        <ele>730.01</ele>
        <time>2019-12-08T10:57:14.000Z</time>
      </trkpt>
      <trkpt lat="43.68039" lon="6.69657">
        <ele>730.23</ele>
        <time>2019-12-08T10:57:15.000Z</time>
      </trkpt>
      <trkpt lat="43.68042" lon="6.69657">
        <ele>730.33</ele>
        <time>2019-12-08T10:57:16.000Z</time>
      </trkpt>
      <trkpt lat="43.68045" lon="6.69657">
        <ele>730.6</ele>
        <time>2019-12-08T10:57:17.000Z</time>
      </trkpt>
      <trkpt lat="43.68049" lon="6.69657">
        <ele>730.81</ele>
        <time>2019-12-08T10:57:18.000Z</time>
      </trkpt>
      <trkpt lat="43.68052" lon="6.69657">
        <ele>731.16</ele>
        <time>2019-12-08T10:57:19.000Z</time>
      </trkpt>
      <trkpt lat="43.68055" lon="6.69657">
        <ele>731.25</ele>
        <time>2019-12-08T10:57:20.000Z</time>
      </trkpt>
      <trkpt lat="43.68059" lon="6.69658">
        <ele>731.5</ele>
        <time>2019-12-08T10:57:21.000Z</time>
      </trkpt>
      <trkpt lat="43.68062" lon="6.6966">
        <ele>731.67</ele>
        <time>2019-12-08T10:57:22.000Z</time>
      </trkpt>
      <trkpt lat="43.68065" lon="6.69661">
        <ele>731.77</ele>
        <time>2019-12-08T10:57:23.000Z</time>
      </trkpt>
      <trkpt lat="43.68068" lon="6.69663">
        <ele>731.86</ele>
        <time>2019-12-08T10:57:24.000Z</time>
      </trkpt>
      <trkpt lat="43.68071" lon="6.69665">
        <ele>732.1</ele>
        <time>2019-12-08T10:57:25.000Z</time>
      </trkpt>
      <trkpt lat="43.68074" lon="6.69667">
        <ele>732.41</ele>
        <time>2019-12-08T10:57:26.000Z</time>
      </trkpt>
      <trkpt lat="43.68077" lon="6.69669">
        <ele>732.77</ele>
        <time>2019-12-08T10:57:27.000Z</time>
      </trkpt>
      <trkpt lat="43.68079" lon="6.69671">
        <ele>732.93</ele>
        <time>2019-12-08T10:57:28.000Z</time>
      </trkpt>
      <trkpt lat="43.68082" lon="6.69673">
        <ele>733.32</ele>
        <time>2019-12-08T10:57:29.000Z</time>
      </trkpt>
      <trkpt lat="43.68085" lon="6.69675">
        <ele>733.74</ele>
        <time>2019-12-08T10:57:30.000Z</time>
      </trkpt>
      <trkpt lat="43.68088" lon="6.69677">
        <ele>734.12</ele>
        <time>2019-12-08T10:57:31.000Z</time>
      </trkpt>
      <trkpt lat="43.68091" lon="6.69679">
        <ele>734.34</ele>
        <time>2019-12-08T10:57:32.000Z</time>
      </trkpt>
      <trkpt lat="43.68093" lon="6.69681">
        <ele>734.65</ele>
        <time>2019-12-08T10:57:33.000Z</time>
      </trkpt>
      <trkpt lat="43.68096" lon="6.69684">
        <ele>734.85</ele>
        <time>2019-12-08T10:57:34.000Z</time>
      </trkpt>
      <trkpt lat="43.68099" lon="6.69686">
        <ele>735.12</ele>
        <time>2019-12-08T10:57:35.000Z</time>
      </trkpt>
      <trkpt lat="43.68102" lon="6.69688">
        <ele>735.31</ele>
        <time>2019-12-08T10:57:36.000Z</time>
      </trkpt>
      <trkpt lat="43.68105" lon="6.6969">
        <ele>735.4</ele>
        <time>2019-12-08T10:57:37.000Z</time>
      </trkpt>
      <trkpt lat="43.68107" lon="6.69692">
        <ele>735.68</ele>
        <time>2019-12-08T10:57:38.000Z</time>
      </trkpt>
      <trkpt lat="43.6811" lon="6.69695">
        <ele>735.83</ele>
        <time>2019-12-08T10:57:39.000Z</time>
      </trkpt>
      <trkpt lat="43.68113" lon="6.69697">
        <ele>735.88</ele>
        <time>2019-12-08T10:57:40.000Z</time>
      </trkpt>
      <trkpt lat="43.68116" lon="6.69699">
        <ele>736.15</ele>
        <time>2019-12-08T10:57:41.000Z</time>
      </trkpt>
      <trkpt lat="43.68119" lon="6.69702">
        <ele>736.32</ele>
        <time>2019-12-08T10:57:42.000Z</time>
      </trkpt>
      <trkpt lat="43.68122" lon="6.69704">
        <ele>736.45</ele>
        <time>2019-12-08T10:57:43.000Z</time>
      </trkpt>
      <trkpt lat="43.68125" lon="6.69706">
        <ele>736.6</ele>
        <time>2019-12-08T10:57:44.000Z</time>
      </trkpt>
      <trkpt lat="43.68128" lon="6.69709">
        <ele>736.62</ele>
        <time>2019-12-08T10:57:45.000Z</time>
      </trkpt>
      <trkpt lat="43.68131" lon="6.69711">
        <ele>736.74</ele>
        <time>2019-12-08T10:57:46.000Z</time>
      </trkpt>
      <trkpt lat="43.68133" lon="6.69714">
        <ele>736.92</ele>
        <time>2019-12-08T10:57:47.000Z</time>
      </trkpt>
      <trkpt lat="43.68136" lon="6.69716">
        <ele>737.05</ele>
        <time>2019-12-08T10:57:48.000Z</time>
      </trkpt>
      <trkpt lat="43.68139" lon="6.69718">
        <ele>737.26</ele>
        <time>2019-12-08T10:57:49.000Z</time>
      </trkpt>
      <trkpt lat="43.68142" lon="6.69721">
        <ele>737.46</ele>
        <time>2019-12-08T10:57:50.000Z</time>
      </trkpt>
      <trkpt lat="43.68145" lon="6.69723">
        <ele>737.67</ele>
        <time>2019-12-08T10:57:51.000Z</time>
      </trkpt>
      <trkpt lat="43.68148" lon="6.69725">
        <ele>737.87</ele>
        <time>2019-12-08T10:57:52.000Z</time>
      </trkpt>
      <trkpt lat="43.68151" lon="6.69728">
        <ele>737.98</ele>
        <time>2019-12-08T10:57:53.000Z</time>
      </trkpt>
      <trkpt lat="43.68154" lon="6.6973">
        <ele>738.28</ele>
        <time>2019-12-08T10:57:54.000Z</time>
      </trkpt>
      <trkpt lat="43.68157" lon="6.69732">
        <ele>738.53</ele>
        <time>2019-12-08T10:57:55.000Z</time>
      </trkpt>
      <trkpt lat="43.6816" lon="6.69734">
        <ele>738.77</ele>
        <time>2019-12-08T10:57:56.000Z</time>
      </trkpt>
      <trkpt lat="43.68163" lon="6.69737">
        <ele>738.9</ele>
        <time>2019-12-08T10:57:57.000Z</time>
      </trkpt>
      <trkpt lat="43.68166" lon="6.69739">
        <ele>739.17</ele>
        <time>2019-12-08T10:57:58.000Z</time>
      </trkpt>
      <trkpt lat="43.68169" lon="6.69741">
        <ele>739.4</ele>
        <time>2019-12-08T10:57:59.000Z</time>
      </trkpt>
      <trkpt lat="43.68172" lon="6.69743">
        <ele>739.66</ele>
        <time>2019-12-08T10:58:00.000Z</time>
      </trkpt>
      <trkpt lat="43.68175" lon="6.69745">
        <ele>739.78</ele>
        <time>2019-12-08T10:58:01.000Z</time>
      </trkpt>
      <trkpt lat="43.68178" lon="6.69748">
        <ele>740</ele>
        <time>2019-12-08T10:58:02.000Z</time>
      </trkpt>
      <trkpt lat="43.68181" lon="6.6975">
        <ele>740.2</ele>
        <time>2019-12-08T10:58:03.000Z</time>
      </trkpt>
      <trkpt lat="43.68184" lon="6.69752">
        <ele>740.43</ele>
        <time>2019-12-08T10:58:04.000Z</time>
      </trkpt>
      <trkpt lat="43.68187" lon="6.69754">
        <ele>740.56</ele>
        <time>2019-12-08T10:58:05.000Z</time>
      </trkpt>
      <trkpt lat="43.68189" lon="6.69756">
        <ele>740.78</ele>
        <time>2019-12-08T10:58:06.000Z</time>
      </trkpt>
      <trkpt lat="43.68192" lon="6.69758">
        <ele>741.02</ele>
        <time>2019-12-08T10:58:07.000Z</time>
      </trkpt>
      <trkpt lat="43.68195" lon="6.69761">
        <ele>741.31</ele>
        <time>2019-12-08T10:58:08.000Z</time>
      </trkpt>
      <trkpt lat="43.68197" lon="6.69764">
        <ele>741.44</ele>
        <time>2019-12-08T10:58:09.000Z</time>
      </trkpt>
      <trkpt lat="43.682" lon="6.69767">
        <ele>741.68</ele>
        <time>2019-12-08T10:58:10.000Z</time>
      </trkpt>
      <trkpt lat="43.68202" lon="6.69769">
        <ele>741.68</ele>
        <time>2019-12-08T10:58:11.000Z</time>
      </trkpt>
      <trkpt lat="43.68205" lon="6.69771">
        <ele>741.97</ele>
        <time>2019-12-08T10:58:12.000Z</time>
      </trkpt>
      <trkpt lat="43.68208" lon="6.69773">
        <ele>742.21</ele>
        <time>2019-12-08T10:58:13.000Z</time>
      </trkpt>
      <trkpt lat="43.68211" lon="6.69775">
        <ele>742.34</ele>
        <time>2019-12-08T10:58:14.000Z</time>
      </trkpt>
      <trkpt lat="43.68214" lon="6.69778">
        <ele>742.63</ele>
        <time>2019-12-08T10:58:15.000Z</time>
      </trkpt>
      <trkpt lat="43.68217" lon="6.6978">
        <ele>742.93</ele>
        <time>2019-12-08T10:58:16.000Z</time>
      </trkpt>
      <trkpt lat="43.6822" lon="6.69782">
        <ele>743.09</ele>
        <time>2019-12-08T10:58:17.000Z</time>
      </trkpt>
      <trkpt lat="43.68222" lon="6.69784">
        <ele>743.4</ele>
        <time>2019-12-08T10:58:18.000Z</time>
      </trkpt>
      <trkpt lat="43.68225" lon="6.69786">
        <ele>743.67</ele>
        <time>2019-12-08T10:58:19.000Z</time>
      </trkpt>
      <trkpt lat="43.68228" lon="6.69789">
        <ele>743.92</ele>
        <time>2019-12-08T10:58:20.000Z</time>
      </trkpt>
      <trkpt lat="43.6823" lon="6.69791">
        <ele>744.14</ele>
        <time>2019-12-08T10:58:21.000Z</time>
      </trkpt>
      <trkpt lat="43.68233" lon="6.69794">
        <ele>744.3</ele>
        <time>2019-12-08T10:58:22.000Z</time>
      </trkpt>
      <trkpt lat="43.68235" lon="6.69797">
        <ele>744.52</ele>
        <time>2019-12-08T10:58:23.000Z</time>
      </trkpt>
      <trkpt lat="43.68238" lon="6.698">
        <ele>744.77</ele>
        <time>2019-12-08T10:58:24.000Z</time>
      </trkpt>
      <trkpt lat="43.6824" lon="6.69803">
        <ele>744.96</ele>
        <time>2019-12-08T10:58:25.000Z</time>
      </trkpt>
      <trkpt lat="43.68242" lon="6.69807">
        <ele>745.08</ele>
        <time>2019-12-08T10:58:26.000Z</time>
      </trkpt>
      <trkpt lat="43.68244" lon="6.6981">
        <ele>745.3</ele>
        <time>2019-12-08T10:58:27.000Z</time>
      </trkpt>
      <trkpt lat="43.68247" lon="6.69813">
        <ele>745.56</ele>
        <time>2019-12-08T10:58:28.000Z</time>
      </trkpt>
      <trkpt lat="43.68249" lon="6.69817">
        <ele>745.85</ele>
        <time>2019-12-08T10:58:29.000Z</time>
      </trkpt>
      <trkpt lat="43.68251" lon="6.6982">
        <ele>745.97</ele>
        <time>2019-12-08T10:58:30.000Z</time>
      </trkpt>
      <trkpt lat="43.68253" lon="6.69823">
        <ele>746.21</ele>
        <time>2019-12-08T10:58:31.000Z</time>
      </trkpt>
      <trkpt lat="43.68255" lon="6.69827">
        <ele>746.46</ele>
        <time>2019-12-08T10:58:32.000Z</time>
      </trkpt>
      <trkpt lat="43.68257" lon="6.6983">
        <ele>746.75</ele>
        <time>2019-12-08T10:58:33.000Z</time>
      </trkpt>
      <trkpt lat="43.68259" lon="6.69834">
        <ele>746.75</ele>
        <time>2019-12-08T10:58:34.000Z</time>
      </trkpt>
      <trkpt lat="43.68261" lon="6.69837">
        <ele>747.04</ele>
        <time>2019-12-08T10:58:35.000Z</time>
      </trkpt>
      <trkpt lat="43.68263" lon="6.69841">
        <ele>747.04</ele>
        <time>2019-12-08T10:58:36.000Z</time>
      </trkpt>
      <trkpt lat="43.68265" lon="6.69844">
        <ele>747.38</ele>
        <time>2019-12-08T10:58:37.000Z</time>
      </trkpt>
      <trkpt lat="43.68267" lon="6.69848">
        <ele>747.6</ele>
        <time>2019-12-08T10:58:38.000Z</time>
      </trkpt>
      <trkpt lat="43.68269" lon="6.69851">
        <ele>747.92</ele>
        <time>2019-12-08T10:58:39.000Z</time>
      </trkpt>
      <trkpt lat="43.68271" lon="6.69854">
        <ele>748.21</ele>
        <time>2019-12-08T10:58:40.000Z</time>
      </trkpt>
      <trkpt lat="43.68273" lon="6.69857">
        <ele>748.54</ele>
        <time>2019-12-08T10:58:41.000Z</time>
      </trkpt>
      <trkpt lat="43.68275" lon="6.69861">
        <ele>748.69</ele>
        <time>2019-12-08T10:58:42.000Z</time>
      </trkpt>
      <trkpt lat="43.68277" lon="6.69864">
        <ele>748.93</ele>
        <time>2019-12-08T10:58:43.000Z</time>
      </trkpt>
      <trkpt lat="43.68279" lon="6.69867">
        <ele>749.26</ele>
        <time>2019-12-08T10:58:44.000Z</time>
      </trkpt>
      <trkpt lat="43.68281" lon="6.69871">
        <ele>749.55</ele>
        <time>2019-12-08T10:58:45.000Z</time>
      </trkpt>
      <trkpt lat="43.68283" lon="6.69874">
        <ele>749.86</ele>
        <time>2019-12-08T10:58:46.000Z</time>
      </trkpt>
      <trkpt lat="43.68285" lon="6.69878">
        <ele>749.97</ele>
        <time>2019-12-08T10:58:47.000Z</time>
      </trkpt>
      <trkpt lat="43.68287" lon="6.69881">
        <ele>750.22</ele>
        <time>2019-12-08T10:58:48.000Z</time>
      </trkpt>
      <trkpt lat="43.68289" lon="6.69885">
        <ele>750.41</ele>
        <time>2019-12-08T10:58:49.000Z</time>
      </trkpt>
      <trkpt lat="43.68291" lon="6.69888">
        <ele>750.51</ele>
        <time>2019-12-08T10:58:50.000Z</time>
      </trkpt>
      <trkpt lat="43.68293" lon="6.69891">
        <ele>750.65</ele>
        <time>2019-12-08T10:58:51.000Z</time>
      </trkpt>
      <trkpt lat="43.68295" lon="6.69895">
        <ele>750.86</ele>
        <time>2019-12-08T10:58:52.000Z</time>
      </trkpt>
      <trkpt lat="43.68297" lon="6.69898">
        <ele>751.07</ele>
        <time>2019-12-08T10:58:53.000Z</time>
      </trkpt>
      <trkpt lat="43.68299" lon="6.69901">
        <ele>751.21</ele>
        <time>2019-12-08T10:58:54.000Z</time>
      </trkpt>
      <trkpt lat="43.68301" lon="6.69904">
        <ele>751.3</ele>
        <time>2019-12-08T10:58:55.000Z</time>
      </trkpt>
      <trkpt lat="43.68304" lon="6.69907">
        <ele>751.47</ele>
        <time>2019-12-08T10:58:56.000Z</time>
      </trkpt>
      <trkpt lat="43.68306" lon="6.69911">
        <ele>751.64</ele>
        <time>2019-12-08T10:58:57.000Z</time>
      </trkpt>
      <trkpt lat="43.68308" lon="6.69914">
        <ele>751.92</ele>
        <time>2019-12-08T10:58:58.000Z</time>
      </trkpt>
      <trkpt lat="43.6831" lon="6.69918">
        <ele>752.07</ele>
        <time>2019-12-08T10:58:59.000Z</time>
      </trkpt>
      <trkpt lat="43.68311" lon="6.69921">
        <ele>752.3</ele>
        <time>2019-12-08T10:59:00.000Z</time>
      </trkpt>
      <trkpt lat="43.68313" lon="6.69924">
        <ele>752.58</ele>
        <time>2019-12-08T10:59:01.000Z</time>
      </trkpt>
      <trkpt lat="43.68315" lon="6.69928">
        <ele>752.8</ele>
        <time>2019-12-08T10:59:02.000Z</time>
      </trkpt>
      <trkpt lat="43.68316" lon="6.69932">
        <ele>752.88</ele>
        <time>2019-12-08T10:59:03.000Z</time>
      </trkpt>
      <trkpt lat="43.68318" lon="6.69935">
        <ele>753.06</ele>
        <time>2019-12-08T10:59:04.000Z</time>
      </trkpt>
      <trkpt lat="43.68319" lon="6.69939">
        <ele>753.32</ele>
        <time>2019-12-08T10:59:05.000Z</time>
      </trkpt>
      <trkpt lat="43.6832" lon="6.69943">
        <ele>753.56</ele>
        <time>2019-12-08T10:59:06.000Z</time>
      </trkpt>
      <trkpt lat="43.68321" lon="6.69946">
        <ele>753.72</ele>
        <time>2019-12-08T10:59:07.000Z</time>
      </trkpt>
      <trkpt lat="43.68322" lon="6.6995">
        <ele>754.01</ele>
        <time>2019-12-08T10:59:08.000Z</time>
      </trkpt>
      <trkpt lat="43.68322" lon="6.69954">
        <ele>754.25</ele>
        <time>2019-12-08T10:59:09.000Z</time>
      </trkpt>
      <trkpt lat="43.68323" lon="6.69959">
        <ele>754.48</ele>
        <time>2019-12-08T10:59:10.000Z</time>
      </trkpt>
      <trkpt lat="43.68324" lon="6.69963">
        <ele>754.58</ele>
        <time>2019-12-08T10:59:11.000Z</time>
      </trkpt>
      <trkpt lat="43.68324" lon="6.69967">
        <ele>754.83</ele>
        <time>2019-12-08T10:59:12.000Z</time>
      </trkpt>
      <trkpt lat="43.68325" lon="6.69971">
        <ele>755.16</ele>
        <time>2019-12-08T10:59:13.000Z</time>
      </trkpt>
      <trkpt lat="43.68325" lon="6.69975">
        <ele>755.45</ele>
        <time>2019-12-08T10:59:14.000Z</time>
      </trkpt>
      <trkpt lat="43.68326" lon="6.69979">
        <ele>755.62</ele>
        <time>2019-12-08T10:59:15.000Z</time>
      </trkpt>
      <trkpt lat="43.68326" lon="6.69984">
        <ele>755.9</ele>
        <time>2019-12-08T10:59:16.000Z</time>
      </trkpt>
      <trkpt lat="43.68326" lon="6.69988">
        <ele>756.14</ele>
        <time>2019-12-08T10:59:17.000Z</time>
      </trkpt>
      <trkpt lat="43.68327" lon="6.69992">
        <ele>756.36</ele>
        <time>2019-12-08T10:59:18.000Z</time>
      </trkpt>
      <trkpt lat="43.68327" lon="6.69996">
        <ele>756.46</ele>
        <time>2019-12-08T10:59:19.000Z</time>
      </trkpt>
      <trkpt lat="43.68328" lon="6.70001">
        <ele>756.73</ele>
        <time>2019-12-08T10:59:20.000Z</time>
      </trkpt>
      <trkpt lat="43.68328" lon="6.70005">
        <ele>756.96</ele>
        <time>2019-12-08T10:59:21.000Z</time>
      </trkpt>
      <trkpt lat="43.68328" lon="6.70009">
        <ele>757.21</ele>
        <time>2019-12-08T10:59:22.000Z</time>
      </trkpt>
      <trkpt lat="43.68329" lon="6.70014">
        <ele>757.49</ele>
        <time>2019-12-08T10:59:23.000Z</time>
      </trkpt>
      <trkpt lat="43.68329" lon="6.70018">
        <ele>757.59</ele>
        <time>2019-12-08T10:59:24.000Z</time>
      </trkpt>
      <trkpt lat="43.6833" lon="6.70022">
        <ele>757.78</ele>
        <time>2019-12-08T10:59:25.000Z</time>
      </trkpt>
      <trkpt lat="43.6833" lon="6.70027">
        <ele>758.01</ele>
        <time>2019-12-08T10:59:26.000Z</time>
      </trkpt>
      <trkpt lat="43.68331" lon="6.70031">
        <ele>758.26</ele>
        <time>2019-12-08T10:59:27.000Z</time>
      </trkpt>
      <trkpt lat="43.68331" lon="6.70035">
        <ele>758.4</ele>
        <time>2019-12-08T10:59:28.000Z</time>
      </trkpt>
      <trkpt lat="43.68331" lon="6.7004">
        <ele>758.63</ele>
        <time>2019-12-08T10:59:29.000Z</time>
      </trkpt>
      <trkpt lat="43.68331" lon="6.70044">
        <ele>758.9</ele>
        <time>2019-12-08T10:59:30.000Z</time>
      </trkpt>
      <trkpt lat="43.68332" lon="6.70048">
        <ele>759.09</ele>
        <time>2019-12-08T10:59:31.000Z</time>
      </trkpt>
      <trkpt lat="43.68332" lon="6.70053">
        <ele>759.18</ele>
        <time>2019-12-08T10:59:32.000Z</time>
      </trkpt>
      <trkpt lat="43.68332" lon="6.70057">
        <ele>759.39</ele>
        <time>2019-12-08T10:59:33.000Z</time>
      </trkpt>
      <trkpt lat="43.68333" lon="6.70062">
        <ele>759.61</ele>
        <time>2019-12-08T10:59:34.000Z</time>
      </trkpt>
      <trkpt lat="43.68333" lon="6.70066">
        <ele>759.88</ele>
        <time>2019-12-08T10:59:35.000Z</time>
      </trkpt>
      <trkpt lat="43.68334" lon="6.7007">
        <ele>760.04</ele>
        <time>2019-12-08T10:59:36.000Z</time>
      </trkpt>
      <trkpt lat="43.68334" lon="6.70075">
        <ele>760.32</ele>
        <time>2019-12-08T10:59:37.000Z</time>
      </trkpt>
      <trkpt lat="43.68335" lon="6.70079">
        <ele>760.56</ele>
        <time>2019-12-08T10:59:38.000Z</time>
      </trkpt>
      <trkpt lat="43.68336" lon="6.70083">
        <ele>760.78</ele>
        <time>2019-12-08T10:59:39.000Z</time>
      </trkpt>
      <trkpt lat="43.68336" lon="6.70088">
        <ele>760.92</ele>
        <time>2019-12-08T10:59:40.000Z</time>
      </trkpt>
      <trkpt lat="43.68337" lon="6.70092">
        <ele>761.16</ele>
        <time>2019-12-08T10:59:41.000Z</time>
      </trkpt>
      <trkpt lat="43.68338" lon="6.70096">
        <ele>761.4</ele>
        <time>2019-12-08T10:59:42.000Z</time>
      </trkpt>
      <trkpt lat="43.68339" lon="6.701">
        <ele>761.69</ele>
        <time>2019-12-08T10:59:43.000Z</time>
      </trkpt>
      <trkpt lat="43.6834" lon="6.70105">
        <ele>761.83</ele>
        <time>2019-12-08T10:59:44.000Z</time>
      </trkpt>
      <trkpt lat="43.68341" lon="6.70109">
        <ele>762.05</ele>
        <time>2019-12-08T10:59:45.000Z</time>
      </trkpt>
      <trkpt lat="43.68342" lon="6.70113">
        <ele>762.27</ele>
        <time>2019-12-08T10:59:46.000Z</time>
      </trkpt>
      <trkpt lat="43.68344" lon="6.70116">
        <ele>762.49</ele>
        <time>2019-12-08T10:59:47.000Z</time>
      </trkpt>
      <trkpt lat="43.68345" lon="6.7012">
        <ele>762.61</ele>
        <time>2019-12-08T10:59:48.000Z</time>
      </trkpt>
      <trkpt lat="43.68347" lon="6.70124">
        <ele>762.82</ele>
        <time>2019-12-08T10:59:49.000Z</time>
      </trkpt>
      <trkpt lat="43.68349" lon="6.70127">
        <ele>763.02</ele>
        <time>2019-12-08T10:59:50.000Z</time>
      </trkpt>
      <trkpt lat="43.68351" lon="6.7013">
        <ele>763.26</ele>
        <time>2019-12-08T10:59:51.000Z</time>
      </trkpt>
      <trkpt lat="43.68353" lon="6.70133">
        <ele>763.34</ele>
        <time>2019-12-08T10:59:52.000Z</time>
      </trkpt>
      <trkpt lat="43.68355" lon="6.70136">
        <ele>763.49</ele>
        <time>2019-12-08T10:59:53.000Z</time>
      </trkpt>
      <trkpt lat="43.68357" lon="6.70139">
        <ele>763.49</ele>
        <time>2019-12-08T10:59:54.000Z</time>
      </trkpt>
      <trkpt lat="43.6836" lon="6.70142">
        <ele>763.77</ele>
        <time>2019-12-08T10:59:55.000Z</time>
      </trkpt>
      <trkpt lat="43.68362" lon="6.70145">
        <ele>764</ele>
        <time>2019-12-08T10:59:56.000Z</time>
      </trkpt>
      <trkpt lat="43.68364" lon="6.70148">
        <ele>764.1</ele>
        <time>2019-12-08T10:59:57.000Z</time>
      </trkpt>
      <trkpt lat="43.68367" lon="6.7015">
        <ele>764.42</ele>
        <time>2019-12-08T10:59:58.000Z</time>
      </trkpt>
      <trkpt lat="43.68369" lon="6.70153">
        <ele>764.67</ele>
        <time>2019-12-08T10:59:59.000Z</time>
      </trkpt>
      <trkpt lat="43.68371" lon="6.70156">
        <ele>764.97</ele>
        <time>2019-12-08T11:00:00.000Z</time>
      </trkpt>
      <trkpt lat="43.68374" lon="6.70159">
        <ele>765.04</ele>
        <time>2019-12-08T11:00:01.000Z</time>
      </trkpt>
      <trkpt lat="43.68376" lon="6.70162">
        <ele>765.26</ele>
        <time>2019-12-08T11:00:02.000Z</time>
      </trkpt>
      <trkpt lat="43.68379" lon="6.70164">
        <ele>765.53</ele>
        <time>2019-12-08T11:00:03.000Z</time>
      </trkpt>
      <trkpt lat="43.68381" lon="6.70167">
        <ele>765.81</ele>
        <time>2019-12-08T11:00:04.000Z</time>
      </trkpt>
      <trkpt lat="43.68384" lon="6.7017">
        <ele>766.01</ele>
        <time>2019-12-08T11:00:05.000Z</time>
      </trkpt>
      <trkpt lat="43.68386" lon="6.70173">
        <ele>766.34</ele>
        <time>2019-12-08T11:00:06.000Z</time>
      </trkpt>
      <trkpt lat="43.68388" lon="6.70176">
        <ele>766.61</ele>
        <time>2019-12-08T11:00:07.000Z</time>
      </trkpt>
      <trkpt lat="43.68391" lon="6.70179">
        <ele>766.78</ele>
        <time>2019-12-08T11:00:08.000Z</time>
      </trkpt>
      <trkpt lat="43.68394" lon="6.70181">
        <ele>766.92</ele>
        <time>2019-12-08T11:00:09.000Z</time>
      </trkpt>
      <trkpt lat="43.68396" lon="6.70184">
        <ele>767.08</ele>
        <time>2019-12-08T11:00:10.000Z</time>
      </trkpt>
      <trkpt lat="43.68398" lon="6.70187">
        <ele>767.34</ele>
        <time>2019-12-08T11:00:11.000Z</time>
      </trkpt>
      <trkpt lat="43.68401" lon="6.7019">
        <ele>767.61</ele>
        <time>2019-12-08T11:00:12.000Z</time>
      </trkpt>
      <trkpt lat="43.68404" lon="6.70193">
        <ele>767.76</ele>
        <time>2019-12-08T11:00:13.000Z</time>
      </trkpt>
      <trkpt lat="43.68406" lon="6.70196">
        <ele>768.02</ele>
        <time>2019-12-08T11:00:14.000Z</time>
      </trkpt>
      <trkpt lat="43.68408" lon="6.70199">
        <ele>768.29</ele>
        <time>2019-12-08T11:00:15.000Z</time>
      </trkpt>
      <trkpt lat="43.6841" lon="6.70202">
        <ele>768.52</ele>
        <time>2019-12-08T11:00:16.000Z</time>
      </trkpt>
      <trkpt lat="43.68413" lon="6.70205">
        <ele>768.65</ele>
        <time>2019-12-08T11:00:17.000Z</time>
      </trkpt>
      <trkpt lat="43.68415" lon="6.70208">
        <ele>768.83</ele>
        <time>2019-12-08T11:00:18.000Z</time>
      </trkpt>
      <trkpt lat="43.68417" lon="6.70211">
        <ele>769.04</ele>
        <time>2019-12-08T11:00:19.000Z</time>
      </trkpt>
      <trkpt lat="43.68419" lon="6.70214">
        <ele>769.36</ele>
        <time>2019-12-08T11:00:20.000Z</time>
      </trkpt>
      <trkpt lat="43.68421" lon="6.70217">
        <ele>769.55</ele>
        <time>2019-12-08T11:00:21.000Z</time>
      </trkpt>
      <trkpt lat="43.68423" lon="6.7022">
        <ele>769.89</ele>
        <time>2019-12-08T11:00:22.000Z</time>
      </trkpt>
      <trkpt lat="43.68425" lon="6.70223">
        <ele>770.25</ele>
        <time>2019-12-08T11:00:23.000Z</time>
      </trkpt>
      <trkpt lat="43.68427" lon="6.70227">
        <ele>770.59</ele>
        <time>2019-12-08T11:00:24.000Z</time>
      </trkpt>
      <trkpt lat="43.68429" lon="6.7023">
        <ele>770.76</ele>
        <time>2019-12-08T11:00:25.000Z</time>
      </trkpt>
      <trkpt lat="43.68431" lon="6.70234">
        <ele>771.02</ele>
        <time>2019-12-08T11:00:26.000Z</time>
      </trkpt>
      <trkpt lat="43.68433" lon="6.70237">
        <ele>771.25</ele>
        <time>2019-12-08T11:00:27.000Z</time>
      </trkpt>
      <trkpt lat="43.68435" lon="6.70241">
        <ele>771.54</ele>
        <time>2019-12-08T11:00:28.000Z</time>
      </trkpt>
      <trkpt lat="43.68436" lon="6.70245">
        <ele>771.65</ele>
        <time>2019-12-08T11:00:29.000Z</time>
      </trkpt>
      <trkpt lat="43.68438" lon="6.70248">
        <ele>771.85</ele>
        <time>2019-12-08T11:00:30.000Z</time>
      </trkpt>
      <trkpt lat="43.6844" lon="6.70252">
        <ele>772.15</ele>
        <time>2019-12-08T11:00:31.000Z</time>
      </trkpt>
      <trkpt lat="43.68442" lon="6.70255">
        <ele>772.39</ele>
        <time>2019-12-08T11:00:32.000Z</time>
      </trkpt>
      <trkpt lat="43.68444" lon="6.70258">
        <ele>772.65</ele>
        <time>2019-12-08T11:00:33.000Z</time>
      </trkpt>
      <trkpt lat="43.68446" lon="6.70261">
        <ele>772.79</ele>
        <time>2019-12-08T11:00:34.000Z</time>
      </trkpt>
      <trkpt lat="43.68448" lon="6.70264">
        <ele>773.01</ele>
        <time>2019-12-08T11:00:35.000Z</time>
      </trkpt>
      <trkpt lat="43.68451" lon="6.70267">
        <ele>773.23</ele>
        <time>2019-12-08T11:00:36.000Z</time>
      </trkpt>
      <trkpt lat="43.68453" lon="6.7027">
        <ele>773.34</ele>
        <time>2019-12-08T11:00:37.000Z</time>
      </trkpt>
      <trkpt lat="43.68456" lon="6.70273">
        <ele>773.53</ele>
        <time>2019-12-08T11:00:38.000Z</time>
      </trkpt>
      <trkpt lat="43.68459" lon="6.70275">
        <ele>773.69</ele>
        <time>2019-12-08T11:00:39.000Z</time>
      </trkpt>
      <trkpt lat="43.68461" lon="6.70278">
        <ele>773.85</ele>
        <time>2019-12-08T11:00:40.000Z</time>
      </trkpt>
      <trkpt lat="43.68464" lon="6.7028">
        <ele>774.04</ele>
        <time>2019-12-08T11:00:41.000Z</time>
      </trkpt>
      <trkpt lat="43.68467" lon="6.70282">
        <ele>774.13</ele>
        <time>2019-12-08T11:00:42.000Z</time>
      </trkpt>
      <trkpt lat="43.6847" lon="6.70284">
        <ele>774.29</ele>
        <time>2019-12-08T11:00:43.000Z</time>
      </trkpt>
      <trkpt lat="43.68473" lon="6.70286">
        <ele>774.53</ele>
        <time>2019-12-08T11:00:44.000Z</time>
      </trkpt>
      <trkpt lat="43.68475" lon="6.70288">
        <ele>774.71</ele>
        <time>2019-12-08T11:00:45.000Z</time>
      </trkpt>
      <trkpt lat="43.68478" lon="6.7029">
        <ele>774.8</ele>
        <time>2019-12-08T11:00:46.000Z</time>
      </trkpt>
      <trkpt lat="43.68481" lon="6.70291">
        <ele>774.99</ele>
        <time>2019-12-08T11:00:47.000Z</time>
      </trkpt>
      <trkpt lat="43.68484" lon="6.70293">
        <ele>774.99</ele>
        <time>2019-12-08T11:00:48.000Z</time>
      </trkpt>
      <trkpt lat="43.68487" lon="6.70295">
        <ele>775.26</ele>
        <time>2019-12-08T11:00:49.000Z</time>
      </trkpt>
      <trkpt lat="43.6849" lon="6.70296">
        <ele>775.39</ele>
        <time>2019-12-08T11:00:50.000Z</time>
      </trkpt>
      <trkpt lat="43.68493" lon="6.70298">
        <ele>775.64</ele>
        <time>2019-12-08T11:00:51.000Z</time>
      </trkpt>
      <trkpt lat="43.68496" lon="6.70299">
        <ele>775.86</ele>
        <time>2019-12-08T11:00:52.000Z</time>
      </trkpt>
      <trkpt lat="43.68498" lon="6.70301">
        <ele>776.11</ele>
        <time>2019-12-08T11:00:53.000Z</time>
      </trkpt>
      <trkpt lat="43.68501" lon="6.70303">
        <ele>776.41</ele>
        <time>2019-12-08T11:00:54.000Z</time>
      </trkpt>
      <trkpt lat="43.68504" lon="6.70305">
        <ele>776.53</ele>
        <time>2019-12-08T11:00:55.000Z</time>
      </trkpt>
      <trkpt lat="43.68507" lon="6.70307">
        <ele>776.74</ele>
        <time>2019-12-08T11:00:56.000Z</time>
      </trkpt>
      <trkpt lat="43.68509" lon="6.70309">
        <ele>776.94</ele>
        <time>2019-12-08T11:00:57.000Z</time>
      </trkpt>
      <trkpt lat="43.68512" lon="6.70311">
        <ele>776.99</ele>
        <time>2019-12-08T11:00:58.000Z</time>
      </trkpt>
      <trkpt lat="43.68515" lon="6.70314">
        <ele>777.08</ele>
        <time>2019-12-08T11:00:59.000Z</time>
      </trkpt>
      <trkpt lat="43.68518" lon="6.70316">
        <ele>777.27</ele>
        <time>2019-12-08T11:01:00.000Z</time>
      </trkpt>
      <trkpt lat="43.6852" lon="6.70318">
        <ele>777.52</ele>
        <time>2019-12-08T11:01:01.000Z</time>
      </trkpt>
      <trkpt lat="43.68523" lon="6.7032">
        <ele>777.84</ele>
        <time>2019-12-08T11:01:02.000Z</time>
      </trkpt>
      <trkpt lat="43.68525" lon="6.70323">
        <ele>778.03</ele>
        <time>2019-12-08T11:01:03.000Z</time>
      </trkpt>
      <trkpt lat="43.68527" lon="6.70326">
        <ele>778.35</ele>
        <time>2019-12-08T11:01:04.000Z</time>
      </trkpt>
      <trkpt lat="43.68529" lon="6.70329">
        <ele>778.67</ele>
        <time>2019-12-08T11:01:05.000Z</time>
      </trkpt>
      <trkpt lat="43.68531" lon="6.70333">
        <ele>778.99</ele>
        <time>2019-12-08T11:01:06.000Z</time>
      </trkpt>
      <trkpt lat="43.68533" lon="6.70336">
        <ele>779.14</ele>
        <time>2019-12-08T11:01:07.000Z</time>
      </trkpt>
      <trkpt lat="43.68535" lon="6.7034">
        <ele>779.47</ele>
        <time>2019-12-08T11:01:08.000Z</time>
      </trkpt>
      <trkpt lat="43.68536" lon="6.70344">
        <ele>779.76</ele>
        <time>2019-12-08T11:01:09.000Z</time>
      </trkpt>
      <trkpt lat="43.68538" lon="6.70348">
        <ele>780.02</ele>
        <time>2019-12-08T11:01:10.000Z</time>
      </trkpt>
      <trkpt lat="43.68539" lon="6.70352">
        <ele>780.13</ele>
        <time>2019-12-08T11:01:11.000Z</time>
      </trkpt>
      <trkpt lat="43.68541" lon="6.70356">
        <ele>780.4</ele>
        <time>2019-12-08T11:01:12.000Z</time>
      </trkpt>
      <trkpt lat="43.68542" lon="6.7036">
        <ele>780.55</ele>
        <time>2019-12-08T11:01:13.000Z</time>
      </trkpt>
      <trkpt lat="43.68544" lon="6.70364">
        <ele>780.73</ele>
        <time>2019-12-08T11:01:14.000Z</time>
      </trkpt>
      <trkpt lat="43.68545" lon="6.70368">
        <ele>780.79</ele>
        <time>2019-12-08T11:01:15.000Z</time>
      </trkpt>
      <trkpt lat="43.68547" lon="6.70372">
        <ele>781.03</ele>
        <time>2019-12-08T11:01:16.000Z</time>
      </trkpt>
      <trkpt lat="43.68548" lon="6.70376">
        <ele>781.17</ele>
        <time>2019-12-08T11:01:17.000Z</time>
      </trkpt>
      <trkpt lat="43.6855" lon="6.7038">
        <ele>781.47</ele>
        <time>2019-12-08T11:01:18.000Z</time>
      </trkpt>
      <trkpt lat="43.68551" lon="6.70384">
        <ele>781.61</ele>
        <time>2019-12-08T11:01:19.000Z</time>
      </trkpt>
      <trkpt lat="43.68553" lon="6.70388">
        <ele>781.86</ele>
        <time>2019-12-08T11:01:20.000Z</time>
      </trkpt>
      <trkpt lat="43.68554" lon="6.70392">
        <ele>781.97</ele>
        <time>2019-12-08T11:01:21.000Z</time>
      </trkpt>
      <trkpt lat="43.68556" lon="6.70396">
        <ele>782.42</ele>
        <time>2019-12-08T11:01:22.000Z</time>
      </trkpt>
      <trkpt lat="43.68557" lon="6.704">
        <ele>782.56</ele>
        <time>2019-12-08T11:01:23.000Z</time>
      </trkpt>
      <trkpt lat="43.68559" lon="6.70404">
        <ele>782.68</ele>
        <time>2019-12-08T11:01:24.000Z</time>
      </trkpt>
      <trkpt lat="43.6856" lon="6.70408">
        <ele>782.92</ele>
        <time>2019-12-08T11:01:25.000Z</time>
      </trkpt>
      <trkpt lat="43.68562" lon="6.70412">
        <ele>783.11</ele>
        <time>2019-12-08T11:01:26.000Z</time>
      </trkpt>
      <trkpt lat="43.68564" lon="6.70416">
        <ele>783.17</ele>
        <time>2019-12-08T11:01:27.000Z</time>
      </trkpt>
      <trkpt lat="43.68565" lon="6.70421">
        <ele>783.34</ele>
        <time>2019-12-08T11:01:28.000Z</time>
      </trkpt>
      <trkpt lat="43.68567" lon="6.70425">
        <ele>783.52</ele>
        <time>2019-12-08T11:01:29.000Z</time>
      </trkpt>
      <trkpt lat="43.68568" lon="6.70429">
        <ele>783.74</ele>
        <time>2019-12-08T11:01:30.000Z</time>
      </trkpt>
      <trkpt lat="43.6857" lon="6.70433">
        <ele>783.97</ele>
        <time>2019-12-08T11:01:31.000Z</time>
      </trkpt>
      <trkpt lat="43.68571" lon="6.70438">
        <ele>784.09</ele>
        <time>2019-12-08T11:01:32.000Z</time>
      </trkpt>
      <trkpt lat="43.68573" lon="6.70442">
        <ele>784.35</ele>
        <time>2019-12-08T11:01:33.000Z</time>
      </trkpt>
      <trkpt lat="43.68574" lon="6.70446">
        <ele>784.61</ele>
        <time>2019-12-08T11:01:34.000Z</time>
      </trkpt>
      <trkpt lat="43.68576" lon="6.70451">
        <ele>784.7</ele>
        <time>2019-12-08T11:01:35.000Z</time>
      </trkpt>
      <trkpt lat="43.68577" lon="6.70455">
        <ele>784.88</ele>
        <time>2019-12-08T11:01:36.000Z</time>
      </trkpt>
      <trkpt lat="43.68579" lon="6.70459">
        <ele>785.07</ele>
        <time>2019-12-08T11:01:37.000Z</time>
      </trkpt>
      <trkpt lat="43.68581" lon="6.70463">
        <ele>785.21</ele>
        <time>2019-12-08T11:01:38.000Z</time>
      </trkpt>
      <trkpt lat="43.68582" lon="6.70468">
        <ele>785.38</ele>
        <time>2019-12-08T11:01:39.000Z</time>
      </trkpt>
      <trkpt lat="43.68584" lon="6.70472">
        <ele>785.46</ele>
        <time>2019-12-08T11:01:40.000Z</time>
      </trkpt>
      <trkpt lat="43.68585" lon="6.70476">
        <ele>785.71</ele>
        <time>2019-12-08T11:01:41.000Z</time>
      </trkpt>
      <trkpt lat="43.68587" lon="6.70481">
        <ele>785.92</ele>
        <time>2019-12-08T11:01:42.000Z</time>
      </trkpt>
      <trkpt lat="43.68588" lon="6.70485">
        <ele>786.03</ele>
        <time>2019-12-08T11:01:43.000Z</time>
      </trkpt>
      <trkpt lat="43.6859" lon="6.70489">
        <ele>786.24</ele>
        <time>2019-12-08T11:01:44.000Z</time>
      </trkpt>
      <trkpt lat="43.68592" lon="6.70494">
        <ele>786.42</ele>
        <time>2019-12-08T11:01:45.000Z</time>
      </trkpt>
      <trkpt lat="43.68593" lon="6.70498">
        <ele>786.63</ele>
        <time>2019-12-08T11:01:46.000Z</time>
      </trkpt>
      <trkpt lat="43.68595" lon="6.70502">
        <ele>786.85</ele>
        <time>2019-12-08T11:01:47.000Z</time>
      </trkpt>
      <trkpt lat="43.68596" lon="6.70506">
        <ele>786.99</ele>
        <time>2019-12-08T11:01:48.000Z</time>
      </trkpt>
      <trkpt lat="43.68598" lon="6.7051">
        <ele>787.31</ele>
        <time>2019-12-08T11:01:49.000Z</time>
      </trkpt>
      <trkpt lat="43.68599" lon="6.70515">
        <ele>787.56</ele>
        <time>2019-12-08T11:01:50.000Z</time>
      </trkpt>
      <trkpt lat="43.68601" lon="6.70519">
        <ele>787.79</ele>
        <time>2019-12-08T11:01:51.000Z</time>
      </trkpt>
      <trkpt lat="43.68602" lon="6.70523">
        <ele>787.92</ele>
        <time>2019-12-08T11:01:52.000Z</time>
      </trkpt>
      <trkpt lat="43.68604" lon="6.70527">
        <ele>788.16</ele>
        <time>2019-12-08T11:01:53.000Z</time>
      </trkpt>
      <trkpt lat="43.68605" lon="6.70531">
        <ele>788.16</ele>
        <time>2019-12-08T11:01:54.000Z</time>
      </trkpt>
      <trkpt lat="43.68607" lon="6.70535">
        <ele>788.47</ele>
        <time>2019-12-08T11:01:55.000Z</time>
      </trkpt>
      <trkpt lat="43.68609" lon="6.70539">
        <ele>788.64</ele>
        <time>2019-12-08T11:01:56.000Z</time>
      </trkpt>
      <trkpt lat="43.6861" lon="6.70543">
        <ele>788.95</ele>
        <time>2019-12-08T11:01:57.000Z</time>
      </trkpt>
      <trkpt lat="43.68612" lon="6.70546">
        <ele>789.27</ele>
        <time>2019-12-08T11:01:58.000Z</time>
      </trkpt>
      <trkpt lat="43.68615" lon="6.7055">
        <ele>789.47</ele>
        <time>2019-12-08T11:01:59.000Z</time>
      </trkpt>
      <trkpt lat="43.68617" lon="6.70553">
        <ele>789.52</ele>
        <time>2019-12-08T11:02:00.000Z</time>
      </trkpt>
      <trkpt lat="43.68619" lon="6.70556">
        <ele>789.71</ele>
        <time>2019-12-08T11:02:01.000Z</time>
      </trkpt>
      <trkpt lat="43.68622" lon="6.70559">
        <ele>789.83</ele>
        <time>2019-12-08T11:02:02.000Z</time>
      </trkpt>
      <trkpt lat="43.68624" lon="6.70562">
        <ele>790.03</ele>
        <time>2019-12-08T11:02:03.000Z</time>
      </trkpt>
      <trkpt lat="43.68627" lon="6.70565">
        <ele>790.1</ele>
        <time>2019-12-08T11:02:04.000Z</time>
      </trkpt>
      <trkpt lat="43.6863" lon="6.70567">
        <ele>790.27</ele>
        <time>2019-12-08T11:02:05.000Z</time>
      </trkpt>
      <trkpt lat="43.68632" lon="6.70571">
        <ele>790.42</ele>
        <time>2019-12-08T11:02:06.000Z</time>
      </trkpt>
      <trkpt lat="43.68635" lon="6.70574">
        <ele>790.57</ele>
        <time>2019-12-08T11:02:07.000Z</time>
      </trkpt>
      <trkpt lat="43.68637" lon="6.70577">
        <ele>790.8</ele>
        <time>2019-12-08T11:02:08.000Z</time>
      </trkpt>
      <trkpt lat="43.68639" lon="6.7058">
        <ele>790.95</ele>
        <time>2019-12-08T11:02:09.000Z</time>
      </trkpt>
      <trkpt lat="43.68641" lon="6.70584">
        <ele>791.16</ele>
        <time>2019-12-08T11:02:10.000Z</time>
      </trkpt>
      <trkpt lat="43.68643" lon="6.70587">
        <ele>791.4</ele>
        <time>2019-12-08T11:02:11.000Z</time>
      </trkpt>
      <trkpt lat="43.68645" lon="6.70591">
        <ele>791.65</ele>
        <time>2019-12-08T11:02:12.000Z</time>
      </trkpt>
      <trkpt lat="43.68647" lon="6.70595">
        <ele>791.77</ele>
        <time>2019-12-08T11:02:13.000Z</time>
      </trkpt>
      <trkpt lat="43.68649" lon="6.70599">
        <ele>791.93</ele>
        <time>2019-12-08T11:02:14.000Z</time>
      </trkpt>
      <trkpt lat="43.68651" lon="6.70603">
        <ele>792.13</ele>
        <time>2019-12-08T11:02:15.000Z</time>
      </trkpt>
      <trkpt lat="43.68652" lon="6.70607">
        <ele>792.27</ele>
        <time>2019-12-08T11:02:16.000Z</time>
      </trkpt>
      <trkpt lat="43.68654" lon="6.70611">
        <ele>792.37</ele>
        <time>2019-12-08T11:02:17.000Z</time>
      </trkpt>
      <trkpt lat="43.68656" lon="6.70615">
        <ele>792.6</ele>
        <time>2019-12-08T11:02:18.000Z</time>
      </trkpt>
      <trkpt lat="43.68658" lon="6.70618">
        <ele>792.8</ele>
        <time>2019-12-08T11:02:19.000Z</time>
      </trkpt>
      <trkpt lat="43.68661" lon="6.70622">
        <ele>793.04</ele>
        <time>2019-12-08T11:02:20.000Z</time>
      </trkpt>
      <trkpt lat="43.68663" lon="6.70625">
        <ele>793.19</ele>
        <time>2019-12-08T11:02:21.000Z</time>
      </trkpt>
      <trkpt lat="43.68666" lon="6.70629">
        <ele>793.38</ele>
        <time>2019-12-08T11:02:22.000Z</time>
      </trkpt>
      <trkpt lat="43.68668" lon="6.70632">
        <ele>793.58</ele>
        <time>2019-12-08T11:02:23.000Z</time>
      </trkpt>
      <trkpt lat="43.6867" lon="6.70636">
        <ele>793.75</ele>
        <time>2019-12-08T11:02:24.000Z</time>
      </trkpt>
      <trkpt lat="43.68673" lon="6.70639">
        <ele>793.84</ele>
        <time>2019-12-08T11:02:25.000Z</time>
      </trkpt>
      <trkpt lat="43.68675" lon="6.70643">
        <ele>794.06</ele>
        <time>2019-12-08T11:02:26.000Z</time>
      </trkpt>
      <trkpt lat="43.68676" lon="6.70648">
        <ele>794.23</ele>
        <time>2019-12-08T11:02:27.000Z</time>
      </trkpt>
      <trkpt lat="43.68678" lon="6.70652">
        <ele>794.43</ele>
        <time>2019-12-08T11:02:28.000Z</time>
      </trkpt>
      <trkpt lat="43.68679" lon="6.70657">
        <ele>794.54</ele>
        <time>2019-12-08T11:02:29.000Z</time>
      </trkpt>
      <trkpt lat="43.6868" lon="6.70662">
        <ele>794.72</ele>
        <time>2019-12-08T11:02:30.000Z</time>
      </trkpt>
      <trkpt lat="43.68681" lon="6.70666">
        <ele>794.91</ele>
        <time>2019-12-08T11:02:31.000Z</time>
      </trkpt>
      <trkpt lat="43.68682" lon="6.70671">
        <ele>795.15</ele>
        <time>2019-12-08T11:02:32.000Z</time>
      </trkpt>
      <trkpt lat="43.68683" lon="6.70675">
        <ele>795.29</ele>
        <time>2019-12-08T11:02:33.000Z</time>
      </trkpt>
      <trkpt lat="43.68684" lon="6.7068">
        <ele>795.59</ele>
        <time>2019-12-08T11:02:34.000Z</time>
      </trkpt>
      <trkpt lat="43.68685" lon="6.70684">
        <ele>795.8</ele>
        <time>2019-12-08T11:02:35.000Z</time>
      </trkpt>
      <trkpt lat="43.68687" lon="6.70689">
        <ele>796.08</ele>
        <time>2019-12-08T11:02:36.000Z</time>
      </trkpt>
      <trkpt lat="43.68688" lon="6.70693">
        <ele>796.26</ele>
        <time>2019-12-08T11:02:37.000Z</time>
      </trkpt>
      <trkpt lat="43.6869" lon="6.70697">
        <ele>796.33</ele>
        <time>2019-12-08T11:02:38.000Z</time>
      </trkpt>
      <trkpt lat="43.68693" lon="6.70701">
        <ele>796.44</ele>
        <time>2019-12-08T11:02:39.000Z</time>
      </trkpt>
      <trkpt lat="43.68695" lon="6.70705">
        <ele>796.56</ele>
        <time>2019-12-08T11:02:40.000Z</time>
      </trkpt>
      <trkpt lat="43.68697" lon="6.70709">
        <ele>796.62</ele>
        <time>2019-12-08T11:02:41.000Z</time>
      </trkpt>
      <trkpt lat="43.687" lon="6.70713">
        <ele>796.62</ele>
        <time>2019-12-08T11:02:42.000Z</time>
      </trkpt>
      <trkpt lat="43.68703" lon="6.70717">
        <ele>796.69</ele>
        <time>2019-12-08T11:02:43.000Z</time>
      </trkpt>
      <trkpt lat="43.68706" lon="6.70721">
        <ele>796.75</ele>
        <time>2019-12-08T11:02:44.000Z</time>
      </trkpt>
      <trkpt lat="43.68708" lon="6.70725">
        <ele>796.81</ele>
        <time>2019-12-08T11:02:45.000Z</time>
      </trkpt>
      <trkpt lat="43.68711" lon="6.70729">
        <ele>796.84</ele>
        <time>2019-12-08T11:02:46.000Z</time>
      </trkpt>
      <trkpt lat="43.68714" lon="6.70733">
        <ele>796.94</ele>
        <time>2019-12-08T11:02:47.000Z</time>
      </trkpt>
      <trkpt lat="43.68717" lon="6.70737">
        <ele>797.09</ele>
        <time>2019-12-08T11:02:48.000Z</time>
      </trkpt>
      <trkpt lat="43.68721" lon="6.70741">
        <ele>797.15</ele>
        <time>2019-12-08T11:02:49.000Z</time>
      </trkpt>
      <trkpt lat="43.68724" lon="6.70745">
        <ele>797.32</ele>
        <time>2019-12-08T11:02:50.000Z</time>
      </trkpt>
      <trkpt lat="43.68727" lon="6.7075">
        <ele>797.49</ele>
        <time>2019-12-08T11:02:51.000Z</time>
      </trkpt>
      <trkpt lat="43.6873" lon="6.70753">
        <ele>797.64</ele>
        <time>2019-12-08T11:02:52.000Z</time>
      </trkpt>
      <trkpt lat="43.68733" lon="6.70758">
        <ele>797.84</ele>
        <time>2019-12-08T11:02:53.000Z</time>
      </trkpt>
      <trkpt lat="43.68737" lon="6.70762">
        <ele>797.94</ele>
        <time>2019-12-08T11:02:54.000Z</time>
      </trkpt>
      <trkpt lat="43.6874" lon="6.70766">
        <ele>798.05</ele>
        <time>2019-12-08T11:02:55.000Z</time>
      </trkpt>
      <trkpt lat="43.68743" lon="6.7077">
        <ele>798.13</ele>
        <time>2019-12-08T11:02:56.000Z</time>
      </trkpt>
      <trkpt lat="43.68745" lon="6.70774">
        <ele>798.23</ele>
        <time>2019-12-08T11:02:57.000Z</time>
      </trkpt>
      <trkpt lat="43.68747" lon="6.70778">
        <ele>798.32</ele>
        <time>2019-12-08T11:02:58.000Z</time>
      </trkpt>
      <trkpt lat="43.68749" lon="6.70782">
        <ele>798.57</ele>
        <time>2019-12-08T11:02:59.000Z</time>
      </trkpt>
      <trkpt lat="43.68752" lon="6.70786">
        <ele>798.8</ele>
        <time>2019-12-08T11:03:00.000Z</time>
      </trkpt>
      <trkpt lat="43.68755" lon="6.7079">
        <ele>799.08</ele>
        <time>2019-12-08T11:03:01.000Z</time>
      </trkpt>
      <trkpt lat="43.68759" lon="6.70794">
        <ele>799.19</ele>
        <time>2019-12-08T11:03:02.000Z</time>
      </trkpt>
      <trkpt lat="43.68762" lon="6.70798">
        <ele>799.28</ele>
        <time>2019-12-08T11:03:03.000Z</time>
      </trkpt>
      <trkpt lat="43.68765" lon="6.70802">
        <ele>799.26</ele>
        <time>2019-12-08T11:03:04.000Z</time>
      </trkpt>
      <trkpt lat="43.68769" lon="6.70807">
        <ele>799.22</ele>
        <time>2019-12-08T11:03:05.000Z</time>
      </trkpt>
      <trkpt lat="43.68773" lon="6.70812">
        <ele>799.21</ele>
        <time>2019-12-08T11:03:06.000Z</time>
      </trkpt>
      <trkpt lat="43.68777" lon="6.70817">
        <ele>799.09</ele>
        <time>2019-12-08T11:03:07.000Z</time>
      </trkpt>
      <trkpt lat="43.68781" lon="6.70822">
        <ele>798.91</ele>
        <time>2019-12-08T11:03:08.000Z</time>
      </trkpt>
      <trkpt lat="43.68785" lon="6.70827">
        <ele>798.86</ele>
        <time>2019-12-08T11:03:09.000Z</time>
      </trkpt>
      <trkpt lat="43.6879" lon="6.70833">
        <ele>798.8</ele>
        <time>2019-12-08T11:03:10.000Z</time>
      </trkpt>
      <trkpt lat="43.68794" lon="6.70839">
        <ele>798.59</ele>
        <time>2019-12-08T11:03:11.000Z</time>
      </trkpt>
      <trkpt lat="43.68799" lon="6.70846">
        <ele>798.42</ele>
        <time>2019-12-08T11:03:12.000Z</time>
      </trkpt>
      <trkpt lat="43.68804" lon="6.70852">
        <ele>798.2</ele>
        <time>2019-12-08T11:03:13.000Z</time>
      </trkpt>
      <trkpt lat="43.68809" lon="6.70859">
        <ele>798.05</ele>
        <time>2019-12-08T11:03:14.000Z</time>
      </trkpt>
      <trkpt lat="43.68815" lon="6.70866">
        <ele>797.76</ele>
        <time>2019-12-08T11:03:15.000Z</time>
      </trkpt>
      <trkpt lat="43.68821" lon="6.70874">
        <ele>797.58</ele>
        <time>2019-12-08T11:03:16.000Z</time>
      </trkpt>
      <trkpt lat="43.68827" lon="6.70881">
        <ele>797.36</ele>
        <time>2019-12-08T11:03:17.000Z</time>
      </trkpt>
      <trkpt lat="43.68833" lon="6.70889">
        <ele>797.22</ele>
        <time>2019-12-08T11:03:18.000Z</time>
      </trkpt>
      <trkpt lat="43.68839" lon="6.70896">
        <ele>796.96</ele>
        <time>2019-12-08T11:03:19.000Z</time>
      </trkpt>
      <trkpt lat="43.68846" lon="6.70903">
        <ele>796.72</ele>
        <time>2019-12-08T11:03:20.000Z</time>
      </trkpt>
      <trkpt lat="43.68854" lon="6.70909">
        <ele>796.42</ele>
        <time>2019-12-08T11:03:21.000Z</time>
      </trkpt>
      <trkpt lat="43.68862" lon="6.70913">
        <ele>796.25</ele>
        <time>2019-12-08T11:03:22.000Z</time>
      </trkpt>
      <trkpt lat="43.68869" lon="6.70918">
        <ele>796.18</ele>
        <time>2019-12-08T11:03:23.000Z</time>
      </trkpt>
      <trkpt lat="43.68877" lon="6.70923">
        <ele>796.01</ele>
        <time>2019-12-08T11:03:24.000Z</time>
      </trkpt>
      <trkpt lat="43.68884" lon="6.70929">
        <ele>795.84</ele>
        <time>2019-12-08T11:03:25.000Z</time>
      </trkpt>
      <trkpt lat="43.6889" lon="6.70935">
        <ele>795.59</ele>
        <time>2019-12-08T11:03:26.000Z</time>
      </trkpt>
      <trkpt lat="43.68897" lon="6.70941">
        <ele>795.45</ele>
        <time>2019-12-08T11:03:27.000Z</time>
      </trkpt>
      <trkpt lat="43.68904" lon="6.70948">
        <ele>795.23</ele>
        <time>2019-12-08T11:03:28.000Z</time>
      </trkpt>
      <trkpt lat="43.68911" lon="6.70956">
        <ele>794.97</ele>
        <time>2019-12-08T11:03:29.000Z</time>
      </trkpt>
      <trkpt lat="43.68917" lon="6.70964">
        <ele>794.66</ele>
        <time>2019-12-08T11:03:30.000Z</time>
      </trkpt>
      <trkpt lat="43.68924" lon="6.70972">
        <ele>794.5</ele>
        <time>2019-12-08T11:03:31.000Z</time>
      </trkpt>
      <trkpt lat="43.68932" lon="6.70979">
        <ele>794.09</ele>
        <time>2019-12-08T11:03:32.000Z</time>
      </trkpt>
      <trkpt lat="43.68939" lon="6.70987">
        <ele>793.62</ele>
        <time>2019-12-08T11:03:33.000Z</time>
      </trkpt>
      <trkpt lat="43.68946" lon="6.70995">
        <ele>793.23</ele>
        <time>2019-12-08T11:03:34.000Z</time>
      </trkpt>
      <trkpt lat="43.68953" lon="6.71004">
        <ele>793.03</ele>
        <time>2019-12-08T11:03:35.000Z</time>
      </trkpt>
      <trkpt lat="43.6896" lon="6.71012">
        <ele>792.83</ele>
        <time>2019-12-08T11:03:36.000Z</time>
      </trkpt>
      <trkpt lat="43.68968" lon="6.7102">
        <ele>792.34</ele>
        <time>2019-12-08T11:03:37.000Z</time>
      </trkpt>
      <trkpt lat="43.68975" lon="6.71029">
        <ele>791.78</ele>
        <time>2019-12-08T11:03:38.000Z</time>
      </trkpt>
      <trkpt lat="43.68983" lon="6.71038">
        <ele>791.55</ele>
        <time>2019-12-08T11:03:39.000Z</time>
      </trkpt>
      <trkpt lat="43.6899" lon="6.71047">
        <ele>791.03</ele>
        <time>2019-12-08T11:03:40.000Z</time>
      </trkpt>
      <trkpt lat="43.68998" lon="6.71056">
        <ele>790.58</ele>
        <time>2019-12-08T11:03:41.000Z</time>
      </trkpt>
      <trkpt lat="43.69005" lon="6.71064">
        <ele>790.19</ele>
        <time>2019-12-08T11:03:42.000Z</time>
      </trkpt>
      <trkpt lat="43.69013" lon="6.71073">
        <ele>790.09</ele>
        <time>2019-12-08T11:03:43.000Z</time>
      </trkpt>
      <trkpt lat="43.6902" lon="6.71081">
        <ele>789.88</ele>
        <time>2019-12-08T11:03:44.000Z</time>
      </trkpt>
      <trkpt lat="43.69027" lon="6.71089">
        <ele>789.72</ele>
        <time>2019-12-08T11:03:45.000Z</time>
      </trkpt>
      <trkpt lat="43.69034" lon="6.71098">
        <ele>789.61</ele>
        <time>2019-12-08T11:03:46.000Z</time>
      </trkpt>
      <trkpt lat="43.69041" lon="6.71106">
        <ele>789.57</ele>
        <time>2019-12-08T11:03:47.000Z</time>
      </trkpt>
      <trkpt lat="43.69047" lon="6.71115">
        <ele>789.48</ele>
        <time>2019-12-08T11:03:48.000Z</time>
      </trkpt>
      <trkpt lat="43.69054" lon="6.71123">
        <ele>789.46</ele>
        <time>2019-12-08T11:03:49.000Z</time>
      </trkpt>
      <trkpt lat="43.6906" lon="6.71131">
        <ele>789.45</ele>
        <time>2019-12-08T11:03:50.000Z</time>
      </trkpt>
      <trkpt lat="43.69067" lon="6.7114">
        <ele>789.46</ele>
        <time>2019-12-08T11:03:51.000Z</time>
      </trkpt>
      <trkpt lat="43.69074" lon="6.71147">
        <ele>789.48</ele>
        <time>2019-12-08T11:03:52.000Z</time>
      </trkpt>
      <trkpt lat="43.6908" lon="6.71155">
        <ele>789.43</ele>
        <time>2019-12-08T11:03:53.000Z</time>
      </trkpt>
      <trkpt lat="43.69087" lon="6.71163">
        <ele>789.38</ele>
        <time>2019-12-08T11:03:54.000Z</time>
      </trkpt>
      <trkpt lat="43.69093" lon="6.71172">
        <ele>789.39</ele>
        <time>2019-12-08T11:03:55.000Z</time>
      </trkpt>
      <trkpt lat="43.691" lon="6.71179">
        <ele>789.37</ele>
        <time>2019-12-08T11:03:56.000Z</time>
      </trkpt>
      <trkpt lat="43.69107" lon="6.71187">
        <ele>789.31</ele>
        <time>2019-12-08T11:03:57.000Z</time>
      </trkpt>
      <trkpt lat="43.69113" lon="6.71195">
        <ele>789.31</ele>
        <time>2019-12-08T11:03:58.000Z</time>
      </trkpt>
      <trkpt lat="43.69119" lon="6.71203">
        <ele>789.39</ele>
        <time>2019-12-08T11:03:59.000Z</time>
      </trkpt>
      <trkpt lat="43.69126" lon="6.7121">
        <ele>789.41</ele>
        <time>2019-12-08T11:04:00.000Z</time>
      </trkpt>
      <trkpt lat="43.69132" lon="6.71217">
        <ele>789.53</ele>
        <time>2019-12-08T11:04:01.000Z</time>
      </trkpt>
      <trkpt lat="43.69138" lon="6.71224">
        <ele>789.64</ele>
        <time>2019-12-08T11:04:02.000Z</time>
      </trkpt>
      <trkpt lat="43.69144" lon="6.71231">
        <ele>789.84</ele>
        <time>2019-12-08T11:04:03.000Z</time>
      </trkpt>
      <trkpt lat="43.6915" lon="6.71238">
        <ele>789.84</ele>
        <time>2019-12-08T11:04:04.000Z</time>
      </trkpt>
      <trkpt lat="43.69155" lon="6.71244">
        <ele>789.94</ele>
        <time>2019-12-08T11:04:05.000Z</time>
      </trkpt>
      <trkpt lat="43.69161" lon="6.7125">
        <ele>790.16</ele>
        <time>2019-12-08T11:04:06.000Z</time>
      </trkpt>
      <trkpt lat="43.69166" lon="6.71256">
        <ele>790.36</ele>
        <time>2019-12-08T11:04:07.000Z</time>
      </trkpt>
      <trkpt lat="43.69171" lon="6.71262">
        <ele>790.45</ele>
        <time>2019-12-08T11:04:08.000Z</time>
      </trkpt>
      <trkpt lat="43.69176" lon="6.71267">
        <ele>790.61</ele>
        <time>2019-12-08T11:04:09.000Z</time>
      </trkpt>
      <trkpt lat="43.69181" lon="6.71273">
        <ele>790.68</ele>
        <time>2019-12-08T11:04:10.000Z</time>
      </trkpt>
      <trkpt lat="43.69185" lon="6.71278">
        <ele>790.68</ele>
        <time>2019-12-08T11:04:11.000Z</time>
      </trkpt>
      <trkpt lat="43.6919" lon="6.71283">
        <ele>790.88</ele>
        <time>2019-12-08T11:04:12.000Z</time>
      </trkpt>
      <trkpt lat="43.69195" lon="6.71288">
        <ele>790.88</ele>
        <time>2019-12-08T11:04:13.000Z</time>
      </trkpt>
      <trkpt lat="43.69199" lon="6.71293">
        <ele>790.99</ele>
        <time>2019-12-08T11:04:14.000Z</time>
      </trkpt>
      <trkpt lat="43.69202" lon="6.71297">
        <ele>791.33</ele>
        <time>2019-12-08T11:04:15.000Z</time>
      </trkpt>
      <trkpt lat="43.69206" lon="6.71302">
        <ele>791.52</ele>
        <time>2019-12-08T11:04:16.000Z</time>
      </trkpt>
      <trkpt lat="43.69209" lon="6.71306">
        <ele>791.92</ele>
        <time>2019-12-08T11:04:17.000Z</time>
      </trkpt>
      <trkpt lat="43.69213" lon="6.71311">
        <ele>792.38</ele>
        <time>2019-12-08T11:04:18.000Z</time>
      </trkpt>
      <trkpt lat="43.69216" lon="6.71315">
        <ele>792.73</ele>
        <time>2019-12-08T11:04:19.000Z</time>
      </trkpt>
      <trkpt lat="43.6922" lon="6.71319">
        <ele>792.89</ele>
        <time>2019-12-08T11:04:20.000Z</time>
      </trkpt>
      <trkpt lat="43.69224" lon="6.71324">
        <ele>793.19</ele>
        <time>2019-12-08T11:04:21.000Z</time>
      </trkpt>
      <trkpt lat="43.69228" lon="6.71328">
        <ele>793.44</ele>
        <time>2019-12-08T11:04:22.000Z</time>
      </trkpt>
      <trkpt lat="43.69231" lon="6.71332">
        <ele>793.67</ele>
        <time>2019-12-08T11:04:23.000Z</time>
      </trkpt>
      <trkpt lat="43.69235" lon="6.71336">
        <ele>793.9</ele>
        <time>2019-12-08T11:04:24.000Z</time>
      </trkpt>
      <trkpt lat="43.69239" lon="6.7134">
        <ele>794.04</ele>
        <time>2019-12-08T11:04:25.000Z</time>
      </trkpt>
      <trkpt lat="43.69244" lon="6.71345">
        <ele>794.26</ele>
        <time>2019-12-08T11:04:26.000Z</time>
      </trkpt>
      <trkpt lat="43.69248" lon="6.71349">
        <ele>794.57</ele>
        <time>2019-12-08T11:04:27.000Z</time>
      </trkpt>
      <trkpt lat="43.69252" lon="6.71354">
        <ele>794.71</ele>
        <time>2019-12-08T11:04:28.000Z</time>
      </trkpt>
      <trkpt lat="43.69254" lon="6.7136">
        <ele>795.02</ele>
        <time>2019-12-08T11:04:29.000Z</time>
      </trkpt>
      <trkpt lat="43.69256" lon="6.71366">
        <ele>795.35</ele>
        <time>2019-12-08T11:04:30.000Z</time>
      </trkpt>
      <trkpt lat="43.69257" lon="6.71372">
        <ele>795.74</ele>
        <time>2019-12-08T11:04:31.000Z</time>
      </trkpt>
      <trkpt lat="43.69256" lon="6.71379">
        <ele>796.05</ele>
        <time>2019-12-08T11:04:32.000Z</time>
      </trkpt>
      <trkpt lat="43.69255" lon="6.71385">
        <ele>796.25</ele>
        <time>2019-12-08T11:04:33.000Z</time>
      </trkpt>
      <trkpt lat="43.69254" lon="6.71391">
        <ele>796.64</ele>
        <time>2019-12-08T11:04:34.000Z</time>
      </trkpt>
      <trkpt lat="43.69253" lon="6.71398">
        <ele>796.88</ele>
        <time>2019-12-08T11:04:35.000Z</time>
      </trkpt>
      <trkpt lat="43.69252" lon="6.71403">
        <ele>797.14</ele>
        <time>2019-12-08T11:04:36.000Z</time>
      </trkpt>
      <trkpt lat="43.69251" lon="6.71409">
        <ele>797.24</ele>
        <time>2019-12-08T11:04:37.000Z</time>
      </trkpt>
      <trkpt lat="43.69249" lon="6.71415">
        <ele>797.44</ele>
        <time>2019-12-08T11:04:38.000Z</time>
      </trkpt>
      <trkpt lat="43.69248" lon="6.7142">
        <ele>797.75</ele>
        <time>2019-12-08T11:04:39.000Z</time>
      </trkpt>
      <trkpt lat="43.69247" lon="6.71424">
        <ele>798.08</ele>
        <time>2019-12-08T11:04:40.000Z</time>
      </trkpt>
      <trkpt lat="43.69244" lon="6.71428">
        <ele>798.25</ele>
        <time>2019-12-08T11:04:41.000Z</time>
      </trkpt>
      <trkpt lat="43.69241" lon="6.71429">
        <ele>798.69</ele>
        <time>2019-12-08T11:04:42.000Z</time>
      </trkpt>
      <trkpt lat="43.69237" lon="6.71429">
        <ele>799.14</ele>
        <time>2019-12-08T11:04:43.000Z</time>
      </trkpt>
      <trkpt lat="43.69234" lon="6.71428">
        <ele>799.59</ele>
        <time>2019-12-08T11:04:44.000Z</time>
      </trkpt>
      <trkpt lat="43.6923" lon="6.71426">
        <ele>799.81</ele>
        <time>2019-12-08T11:04:45.000Z</time>
      </trkpt>
      <trkpt lat="43.69227" lon="6.71423">
        <ele>800.21</ele>
        <time>2019-12-08T11:04:46.000Z</time>
      </trkpt>
      <trkpt lat="43.69223" lon="6.7142">
        <ele>800.5</ele>
        <time>2019-12-08T11:04:47.000Z</time>
      </trkpt>
      <trkpt lat="43.6922" lon="6.71417">
        <ele>800.64</ele>
        <time>2019-12-08T11:04:48.000Z</time>
      </trkpt>
      <trkpt lat="43.69216" lon="6.71413">
        <ele>800.67</ele>
        <time>2019-12-08T11:04:49.000Z</time>
      </trkpt>
      <trkpt lat="43.69213" lon="6.7141">
        <ele>800.71</ele>
        <time>2019-12-08T11:04:50.000Z</time>
      </trkpt>
      <trkpt lat="43.69209" lon="6.71406">
        <ele>800.82</ele>
        <time>2019-12-08T11:04:51.000Z</time>
      </trkpt>
      <trkpt lat="43.69206" lon="6.71402">
        <ele>800.9</ele>
        <time>2019-12-08T11:04:52.000Z</time>
      </trkpt>
      <trkpt lat="43.69203" lon="6.71398">
        <ele>800.96</ele>
        <time>2019-12-08T11:04:53.000Z</time>
      </trkpt>
      <trkpt lat="43.69199" lon="6.71394">
        <ele>801.06</ele>
        <time>2019-12-08T11:04:54.000Z</time>
      </trkpt>
      <trkpt lat="43.69195" lon="6.71391">
        <ele>801.17</ele>
        <time>2019-12-08T11:04:55.000Z</time>
      </trkpt>
      <trkpt lat="43.69192" lon="6.71387">
        <ele>801.26</ele>
        <time>2019-12-08T11:04:56.000Z</time>
      </trkpt>
      <trkpt lat="43.69188" lon="6.71383">
        <ele>801.29</ele>
        <time>2019-12-08T11:04:57.000Z</time>
      </trkpt>
      <trkpt lat="43.69184" lon="6.7138">
        <ele>801.3</ele>
        <time>2019-12-08T11:04:58.000Z</time>
      </trkpt>
      <trkpt lat="43.6918" lon="6.71376">
        <ele>801.37</ele>
        <time>2019-12-08T11:04:59.000Z</time>
      </trkpt>
      <trkpt lat="43.69176" lon="6.71373">
        <ele>801.42</ele>
        <time>2019-12-08T11:05:00.000Z</time>
      </trkpt>
      <trkpt lat="43.69172" lon="6.7137">
        <ele>801.45</ele>
        <time>2019-12-08T11:05:01.000Z</time>
      </trkpt>
      <trkpt lat="43.69168" lon="6.71366">
        <ele>801.48</ele>
        <time>2019-12-08T11:05:02.000Z</time>
      </trkpt>
      <trkpt lat="43.69163" lon="6.71363">
        <ele>801.58</ele>
        <time>2019-12-08T11:05:03.000Z</time>
      </trkpt>
      <trkpt lat="43.69159" lon="6.7136">
        <ele>801.57</ele>
        <time>2019-12-08T11:05:04.000Z</time>
      </trkpt>
      <trkpt lat="43.69155" lon="6.71357">
        <ele>801.6</ele>
        <time>2019-12-08T11:05:05.000Z</time>
      </trkpt>
      <trkpt lat="43.6915" lon="6.71355">
        <ele>801.68</ele>
        <time>2019-12-08T11:05:06.000Z</time>
      </trkpt>
      <trkpt lat="43.69146" lon="6.71352">
        <ele>801.75</ele>
        <time>2019-12-08T11:05:07.000Z</time>
      </trkpt>
      <trkpt lat="43.69142" lon="6.7135">
        <ele>801.83</ele>
        <time>2019-12-08T11:05:08.000Z</time>
      </trkpt>
      <trkpt lat="43.69137" lon="6.71348">
        <ele>801.94</ele>
        <time>2019-12-08T11:05:09.000Z</time>
      </trkpt>
      <trkpt lat="43.69133" lon="6.71346">
        <ele>801.95</ele>
        <time>2019-12-08T11:05:10.000Z</time>
      </trkpt>
      <trkpt lat="43.69129" lon="6.71345">
        <ele>802.04</ele>
        <time>2019-12-08T11:05:11.000Z</time>
      </trkpt>
      <trkpt lat="43.69124" lon="6.71343">
        <ele>802.11</ele>
        <time>2019-12-08T11:05:12.000Z</time>
      </trkpt>
      <trkpt lat="43.6912" lon="6.7134">
        <ele>802.19</ele>
        <time>2019-12-08T11:05:13.000Z</time>
      </trkpt>
      <trkpt lat="43.69116" lon="6.71337">
        <ele>802.21</ele>
        <time>2019-12-08T11:05:14.000Z</time>
      </trkpt>
      <trkpt lat="43.69112" lon="6.71334">
        <ele>802.3</ele>
        <time>2019-12-08T11:05:15.000Z</time>
      </trkpt>
      <trkpt lat="43.69108" lon="6.71332">
        <ele>802.43</ele>
        <time>2019-12-08T11:05:16.000Z</time>
      </trkpt>
      <trkpt lat="43.69104" lon="6.7133">
        <ele>802.55</ele>
        <time>2019-12-08T11:05:17.000Z</time>
      </trkpt>
      <trkpt lat="43.69101" lon="6.71329">
        <ele>802.6</ele>
        <time>2019-12-08T11:05:18.000Z</time>
      </trkpt>
      <trkpt lat="43.69098" lon="6.71328">
        <ele>802.7</ele>
        <time>2019-12-08T11:05:19.000Z</time>
      </trkpt>
      <trkpt lat="43.69094" lon="6.71328">
        <ele>802.82</ele>
        <time>2019-12-08T11:05:20.000Z</time>
      </trkpt>
      <trkpt lat="43.69091" lon="6.71327">
        <ele>802.91</ele>
        <time>2019-12-08T11:05:21.000Z</time>
      </trkpt>
      <trkpt lat="43.69088" lon="6.71328">
        <ele>802.95</ele>
        <time>2019-12-08T11:05:22.000Z</time>
      </trkpt>
      <trkpt lat="43.69084" lon="6.71328">
        <ele>802.95</ele>
        <time>2019-12-08T11:05:23.000Z</time>
      </trkpt>
      <trkpt lat="43.6908" lon="6.71326">
        <ele>803.02</ele>
        <time>2019-12-08T11:05:24.000Z</time>
      </trkpt>
      <trkpt lat="43.69076" lon="6.71326">
        <ele>803.16</ele>
        <time>2019-12-08T11:05:25.000Z</time>
      </trkpt>
      <trkpt lat="43.69071" lon="6.71324">
        <ele>803.18</ele>
        <time>2019-12-08T11:05:26.000Z</time>
      </trkpt>
      <trkpt lat="43.69067" lon="6.71321">
        <ele>803.18</ele>
        <time>2019-12-08T11:05:27.000Z</time>
      </trkpt>
      <trkpt lat="43.69063" lon="6.7132">
        <ele>803.24</ele>
        <time>2019-12-08T11:05:28.000Z</time>
      </trkpt>
      <trkpt lat="43.69058" lon="6.71318">
        <ele>803.45</ele>
        <time>2019-12-08T11:05:29.000Z</time>
      </trkpt>
      <trkpt lat="43.69054" lon="6.71316">
        <ele>803.67</ele>
        <time>2019-12-08T11:05:30.000Z</time>
      </trkpt>
      <trkpt lat="43.69049" lon="6.71316">
        <ele>803.72</ele>
        <time>2019-12-08T11:05:31.000Z</time>
      </trkpt>
      <trkpt lat="43.69045" lon="6.71314">
        <ele>803.89</ele>
        <time>2019-12-08T11:05:32.000Z</time>
      </trkpt>
      <trkpt lat="43.69041" lon="6.71313">
        <ele>803.94</ele>
        <time>2019-12-08T11:05:33.000Z</time>
      </trkpt>
      <trkpt lat="43.69036" lon="6.71311">
        <ele>803.95</ele>
        <time>2019-12-08T11:05:34.000Z</time>
      </trkpt>
      <trkpt lat="43.69031" lon="6.71309">
        <ele>803.94</ele>
        <time>2019-12-08T11:05:35.000Z</time>
      </trkpt>
      <trkpt lat="43.69027" lon="6.71308">
        <ele>803.83</ele>
        <time>2019-12-08T11:05:36.000Z</time>
      </trkpt>
      <trkpt lat="43.69022" lon="6.71306">
        <ele>803.74</ele>
        <time>2019-12-08T11:05:37.000Z</time>
      </trkpt>
      <trkpt lat="43.69017" lon="6.71305">
        <ele>803.55</ele>
        <time>2019-12-08T11:05:38.000Z</time>
      </trkpt>
      <trkpt lat="43.69012" lon="6.71304">
        <ele>803.55</ele>
        <time>2019-12-08T11:05:39.000Z</time>
      </trkpt>
      <trkpt lat="43.69008" lon="6.71304">
        <ele>803.55</ele>
        <time>2019-12-08T11:05:40.000Z</time>
      </trkpt>
      <trkpt lat="43.69004" lon="6.71305">
        <ele>803.45</ele>
        <time>2019-12-08T11:05:41.000Z</time>
      </trkpt>
      <trkpt lat="43.69" lon="6.71306">
        <ele>803.27</ele>
        <time>2019-12-08T11:05:42.000Z</time>
      </trkpt>
      <trkpt lat="43.68996" lon="6.71306">
        <ele>803.18</ele>
        <time>2019-12-08T11:05:43.000Z</time>
      </trkpt>
      <trkpt lat="43.68992" lon="6.71305">
        <ele>803.04</ele>
        <time>2019-12-08T11:05:44.000Z</time>
      </trkpt>
      <trkpt lat="43.68988" lon="6.71304">
        <ele>802.93</ele>
        <time>2019-12-08T11:05:45.000Z</time>
      </trkpt>
      <trkpt lat="43.68985" lon="6.71302">
        <ele>802.86</ele>
        <time>2019-12-08T11:05:46.000Z</time>
      </trkpt>
      <trkpt lat="43.68981" lon="6.713">
        <ele>802.84</ele>
        <time>2019-12-08T11:05:47.000Z</time>
      </trkpt>
      <trkpt lat="43.68978" lon="6.71298">
        <ele>802.78</ele>
        <time>2019-12-08T11:05:48.000Z</time>
      </trkpt>
      <trkpt lat="43.68974" lon="6.71296">
        <ele>802.64</ele>
        <time>2019-12-08T11:05:49.000Z</time>
      </trkpt>
      <trkpt lat="43.68971" lon="6.71294">
        <ele>802.47</ele>
        <time>2019-12-08T11:05:50.000Z</time>
      </trkpt>
      <trkpt lat="43.68967" lon="6.71292">
        <ele>802.43</ele>
        <time>2019-12-08T11:05:51.000Z</time>
      </trkpt>
      <trkpt lat="43.68963" lon="6.7129">
        <ele>802.31</ele>
        <time>2019-12-08T11:05:52.000Z</time>
      </trkpt>
      <trkpt lat="43.68959" lon="6.71288">
        <ele>802.31</ele>
        <time>2019-12-08T11:05:53.000Z</time>
      </trkpt>
      <trkpt lat="43.68956" lon="6.71286">
        <ele>802.19</ele>
        <time>2019-12-08T11:05:54.000Z</time>
      </trkpt>
      <trkpt lat="43.68952" lon="6.71284">
        <ele>802.15</ele>
        <time>2019-12-08T11:05:55.000Z</time>
      </trkpt>
      <trkpt lat="43.68948" lon="6.71283">
        <ele>802.1</ele>
        <time>2019-12-08T11:05:56.000Z</time>
      </trkpt>
      <trkpt lat="43.68944" lon="6.71282">
        <ele>802.02</ele>
        <time>2019-12-08T11:05:57.000Z</time>
      </trkpt>
      <trkpt lat="43.68941" lon="6.71281">
        <ele>801.94</ele>
        <time>2019-12-08T11:05:58.000Z</time>
      </trkpt>
      <trkpt lat="43.68938" lon="6.71281">
        <ele>801.91</ele>
        <time>2019-12-08T11:05:59.000Z</time>
      </trkpt>
      <trkpt lat="43.68937" lon="6.71279">
        <ele>801.85</ele>
        <time>2019-12-08T11:06:00.000Z</time>
      </trkpt>
      <trkpt lat="43.68936" lon="6.71276">
        <ele>801.77</ele>
        <time>2019-12-08T11:06:01.000Z</time>
      </trkpt>
      <trkpt lat="43.68937" lon="6.71275">
        <ele>801.77</ele>
        <time>2019-12-08T11:06:02.000Z</time>
      </trkpt>
      <trkpt lat="43.68939" lon="6.71274">
        <ele>801.77</ele>
        <time>2019-12-08T11:06:03.000Z</time>
      </trkpt>
      <trkpt lat="43.68977" lon="6.71329">
        <ele>811.46</ele>
        <time>2019-12-08T12:30:21.000Z</time>
      </trkpt>
      <trkpt lat="43.68979" lon="6.71323">
        <ele>811.47</ele>
        <time>2019-12-08T12:30:22.000Z</time>
      </trkpt>
      <trkpt lat="43.68982" lon="6.71318">
        <ele>811.49</ele>
        <time>2019-12-08T12:30:23.000Z</time>
      </trkpt>
      <trkpt lat="43.68985" lon="6.71313">
        <ele>811.49</ele>
        <time>2019-12-08T12:30:24.000Z</time>
      </trkpt>
      <trkpt lat="43.68989" lon="6.71309">
        <ele>811.49</ele>
        <time>2019-12-08T12:30:25.000Z</time>
      </trkpt>
      <trkpt lat="43.68993" lon="6.71306">
        <ele>811.47</ele>
        <time>2019-12-08T12:30:26.000Z</time>
      </trkpt>
      <trkpt lat="43.68998" lon="6.71304">
        <ele>811.42</ele>
        <time>2019-12-08T12:30:27.000Z</time>
      </trkpt>
      <trkpt lat="43.69002" lon="6.71303">
        <ele>811.42</ele>
        <time>2019-12-08T12:30:28.000Z</time>
      </trkpt>
      <trkpt lat="43.69007" lon="6.71302">
        <ele>811.44</ele>
        <time>2019-12-08T12:30:29.000Z</time>
      </trkpt>
      <trkpt lat="43.69012" lon="6.71302">
        <ele>811.41</ele>
        <time>2019-12-08T12:30:30.000Z</time>
      </trkpt>
      <trkpt lat="43.69016" lon="6.71303">
        <ele>811.4</ele>
        <time>2019-12-08T12:30:31.000Z</time>
      </trkpt>
      <trkpt lat="43.69021" lon="6.71305">
        <ele>811.38</ele>
        <time>2019-12-08T12:30:32.000Z</time>
      </trkpt>
      <trkpt lat="43.69025" lon="6.71307">
        <ele>811.42</ele>
        <time>2019-12-08T12:30:33.000Z</time>
      </trkpt>
      <trkpt lat="43.69029" lon="6.71309">
        <ele>811.46</ele>
        <time>2019-12-08T12:30:34.000Z</time>
      </trkpt>
      <trkpt lat="43.69033" lon="6.71312">
        <ele>811.65</ele>
        <time>2019-12-08T12:30:35.000Z</time>
      </trkpt>
      <trkpt lat="43.69037" lon="6.71314">
        <ele>811.85</ele>
        <time>2019-12-08T12:30:36.000Z</time>
      </trkpt>
      <trkpt lat="43.69041" lon="6.71316">
        <ele>812.05</ele>
        <time>2019-12-08T12:30:37.000Z</time>
      </trkpt>
      <trkpt lat="43.69044" lon="6.71319">
        <ele>812.14</ele>
        <time>2019-12-08T12:30:38.000Z</time>
      </trkpt>
      <trkpt lat="43.69049" lon="6.71322">
        <ele>812.14</ele>
        <time>2019-12-08T12:30:39.000Z</time>
      </trkpt>
      <trkpt lat="43.69053" lon="6.71324">
        <ele>812.21</ele>
        <time>2019-12-08T12:30:40.000Z</time>
      </trkpt>
      <trkpt lat="43.69058" lon="6.71325">
        <ele>812.21</ele>
        <time>2019-12-08T12:30:41.000Z</time>
      </trkpt>
      <trkpt lat="43.69063" lon="6.71327">
        <ele>812.25</ele>
        <time>2019-12-08T12:30:42.000Z</time>
      </trkpt>
      <trkpt lat="43.69068" lon="6.71329">
        <ele>812.33</ele>
        <time>2019-12-08T12:30:43.000Z</time>
      </trkpt>
      <trkpt lat="43.69074" lon="6.71331">
        <ele>812.23</ele>
        <time>2019-12-08T12:30:44.000Z</time>
      </trkpt>
      <trkpt lat="43.69079" lon="6.71333">
        <ele>812.06</ele>
        <time>2019-12-08T12:30:45.000Z</time>
      </trkpt>
      <trkpt lat="43.69085" lon="6.71334">
        <ele>811.97</ele>
        <time>2019-12-08T12:30:46.000Z</time>
      </trkpt>
      <trkpt lat="43.69091" lon="6.71332">
        <ele>811.77</ele>
        <time>2019-12-08T12:30:47.000Z</time>
      </trkpt>
      <trkpt lat="43.691" lon="6.71331">
        <ele>811.67</ele>
        <time>2019-12-08T12:30:48.000Z</time>
      </trkpt>
      <trkpt lat="43.69105" lon="6.71333">
        <ele>811.49</ele>
        <time>2019-12-08T12:30:49.000Z</time>
      </trkpt>
      <trkpt lat="43.69109" lon="6.7133">
        <ele>811.43</ele>
        <time>2019-12-08T12:30:50.000Z</time>
      </trkpt>
      <trkpt lat="43.69115" lon="6.71333">
        <ele>811.3</ele>
        <time>2019-12-08T12:30:51.000Z</time>
      </trkpt>
      <trkpt lat="43.69121" lon="6.71336">
        <ele>811.18</ele>
        <time>2019-12-08T12:30:52.000Z</time>
      </trkpt>
      <trkpt lat="43.69127" lon="6.71339">
        <ele>811.13</ele>
        <time>2019-12-08T12:30:53.000Z</time>
      </trkpt>
      <trkpt lat="43.69133" lon="6.71343">
        <ele>811.08</ele>
        <time>2019-12-08T12:30:54.000Z</time>
      </trkpt>
      <trkpt lat="43.69139" lon="6.71346">
        <ele>811.06</ele>
        <time>2019-12-08T12:30:55.000Z</time>
      </trkpt>
      <trkpt lat="43.69145" lon="6.7135">
        <ele>811.06</ele>
        <time>2019-12-08T12:30:56.000Z</time>
      </trkpt>
      <trkpt lat="43.69151" lon="6.71354">
        <ele>810.92</ele>
        <time>2019-12-08T12:30:57.000Z</time>
      </trkpt>
      <trkpt lat="43.69157" lon="6.71358">
        <ele>810.77</ele>
        <time>2019-12-08T12:30:58.000Z</time>
      </trkpt>
      <trkpt lat="43.69163" lon="6.71362">
        <ele>810.66</ele>
        <time>2019-12-08T12:30:59.000Z</time>
      </trkpt>
      <trkpt lat="43.69169" lon="6.71366">
        <ele>810.44</ele>
        <time>2019-12-08T12:31:00.000Z</time>
      </trkpt>
      <trkpt lat="43.69175" lon="6.71371">
        <ele>810.31</ele>
        <time>2019-12-08T12:31:01.000Z</time>
      </trkpt>
      <trkpt lat="43.69181" lon="6.71376">
        <ele>810.26</ele>
        <time>2019-12-08T12:31:02.000Z</time>
      </trkpt>
      <trkpt lat="43.69187" lon="6.71381">
        <ele>810.19</ele>
        <time>2019-12-08T12:31:03.000Z</time>
      </trkpt>
      <trkpt lat="43.69193" lon="6.71387">
        <ele>810.16</ele>
        <time>2019-12-08T12:31:04.000Z</time>
      </trkpt>
      <trkpt lat="43.69199" lon="6.71392">
        <ele>810.08</ele>
        <time>2019-12-08T12:31:05.000Z</time>
      </trkpt>
      <trkpt lat="43.69205" lon="6.71397">
        <ele>809.97</ele>
        <time>2019-12-08T12:31:06.000Z</time>
      </trkpt>
      <trkpt lat="43.6921" lon="6.71402">
        <ele>809.93</ele>
        <time>2019-12-08T12:31:07.000Z</time>
      </trkpt>
      <trkpt lat="43.69216" lon="6.71409">
        <ele>809.87</ele>
        <time>2019-12-08T12:31:08.000Z</time>
      </trkpt>
      <trkpt lat="43.69222" lon="6.71414">
        <ele>809.84</ele>
        <time>2019-12-08T12:31:09.000Z</time>
      </trkpt>
      <trkpt lat="43.69227" lon="6.7142">
        <ele>809.74</ele>
        <time>2019-12-08T12:31:10.000Z</time>
      </trkpt>
      <trkpt lat="43.69231" lon="6.71426">
        <ele>809.66</ele>
        <time>2019-12-08T12:31:11.000Z</time>
      </trkpt>
      <trkpt lat="43.69235" lon="6.71431">
        <ele>809.41</ele>
        <time>2019-12-08T12:31:12.000Z</time>
      </trkpt>
      <trkpt lat="43.69238" lon="6.71435">
        <ele>809.08</ele>
        <time>2019-12-08T12:31:13.000Z</time>
      </trkpt>
      <trkpt lat="43.69241" lon="6.71437">
        <ele>808.8</ele>
        <time>2019-12-08T12:31:14.000Z</time>
      </trkpt>
      <trkpt lat="43.69244" lon="6.71437">
        <ele>808.66</ele>
        <time>2019-12-08T12:31:15.000Z</time>
      </trkpt>
      <trkpt lat="43.69246" lon="6.71434">
        <ele>808.45</ele>
        <time>2019-12-08T12:31:16.000Z</time>
      </trkpt>
      <trkpt lat="43.69249" lon="6.71429">
        <ele>808.24</ele>
        <time>2019-12-08T12:31:17.000Z</time>
      </trkpt>
      <trkpt lat="43.69251" lon="6.71422">
        <ele>807.98</ele>
        <time>2019-12-08T12:31:18.000Z</time>
      </trkpt>
      <trkpt lat="43.69254" lon="6.71414">
        <ele>807.81</ele>
        <time>2019-12-08T12:31:19.000Z</time>
      </trkpt>
      <trkpt lat="43.69256" lon="6.71405">
        <ele>807.45</ele>
        <time>2019-12-08T12:31:20.000Z</time>
      </trkpt>
      <trkpt lat="43.69258" lon="6.71395">
        <ele>807.04</ele>
        <time>2019-12-08T12:31:21.000Z</time>
      </trkpt>
      <trkpt lat="43.6926" lon="6.71385">
        <ele>806.62</ele>
        <time>2019-12-08T12:31:22.000Z</time>
      </trkpt>
      <trkpt lat="43.69261" lon="6.71372">
        <ele>806.4</ele>
        <time>2019-12-08T12:31:23.000Z</time>
      </trkpt>
      <trkpt lat="43.6926" lon="6.7136">
        <ele>805.94</ele>
        <time>2019-12-08T12:31:24.000Z</time>
      </trkpt>
      <trkpt lat="43.69256" lon="6.71348">
        <ele>805.94</ele>
        <time>2019-12-08T12:31:25.000Z</time>
      </trkpt>
      <trkpt lat="43.69251" lon="6.71339">
        <ele>805.45</ele>
        <time>2019-12-08T12:31:26.000Z</time>
      </trkpt>
      <trkpt lat="43.69245" lon="6.71331">
        <ele>805.21</ele>
        <time>2019-12-08T12:31:27.000Z</time>
      </trkpt>
      <trkpt lat="43.69239" lon="6.71322">
        <ele>804.7</ele>
        <time>2019-12-08T12:31:28.000Z</time>
      </trkpt>
      <trkpt lat="43.69232" lon="6.71313">
        <ele>804.19</ele>
        <time>2019-12-08T12:31:29.000Z</time>
      </trkpt>
      <trkpt lat="43.69225" lon="6.71305">
        <ele>803.78</ele>
        <time>2019-12-08T12:31:30.000Z</time>
      </trkpt>
      <trkpt lat="43.69218" lon="6.71296">
        <ele>803.55</ele>
        <time>2019-12-08T12:31:31.000Z</time>
      </trkpt>
      <trkpt lat="43.6921" lon="6.71288">
        <ele>803.08</ele>
        <time>2019-12-08T12:31:32.000Z</time>
      </trkpt>
      <trkpt lat="43.69202" lon="6.7128">
        <ele>802.61</ele>
        <time>2019-12-08T12:31:33.000Z</time>
      </trkpt>
      <trkpt lat="43.69195" lon="6.71272">
        <ele>802.25</ele>
        <time>2019-12-08T12:31:34.000Z</time>
      </trkpt>
      <trkpt lat="43.69187" lon="6.71264">
        <ele>801.89</ele>
        <time>2019-12-08T12:31:35.000Z</time>
      </trkpt>
      <trkpt lat="43.69179" lon="6.71255">
        <ele>801.7</ele>
        <time>2019-12-08T12:31:36.000Z</time>
      </trkpt>
      <trkpt lat="43.69172" lon="6.71247">
        <ele>801.35</ele>
        <time>2019-12-08T12:31:37.000Z</time>
      </trkpt>
      <trkpt lat="43.69164" lon="6.71238">
        <ele>800.88</ele>
        <time>2019-12-08T12:31:38.000Z</time>
      </trkpt>
      <trkpt lat="43.69157" lon="6.7123">
        <ele>800.63</ele>
        <time>2019-12-08T12:31:39.000Z</time>
      </trkpt>
      <trkpt lat="43.69149" lon="6.71221">
        <ele>800.2</ele>
        <time>2019-12-08T12:31:40.000Z</time>
      </trkpt>
      <trkpt lat="43.69142" lon="6.71212">
        <ele>799.84</ele>
        <time>2019-12-08T12:31:41.000Z</time>
      </trkpt>
      <trkpt lat="43.69134" lon="6.71204">
        <ele>799.5</ele>
        <time>2019-12-08T12:31:42.000Z</time>
      </trkpt>
      <trkpt lat="43.69127" lon="6.71195">
        <ele>799.24</ele>
        <time>2019-12-08T12:31:43.000Z</time>
      </trkpt>
      <trkpt lat="43.6912" lon="6.71187">
        <ele>799.07</ele>
        <time>2019-12-08T12:31:44.000Z</time>
      </trkpt>
      <trkpt lat="43.69112" lon="6.71178">
        <ele>798.79</ele>
        <time>2019-12-08T12:31:45.000Z</time>
      </trkpt>
      <trkpt lat="43.69105" lon="6.7117">
        <ele>798.57</ele>
        <time>2019-12-08T12:31:46.000Z</time>
      </trkpt>
      <trkpt lat="43.69099" lon="6.71162">
        <ele>798.35</ele>
        <time>2019-12-08T12:31:47.000Z</time>
      </trkpt>
      <trkpt lat="43.69092" lon="6.71154">
        <ele>798.24</ele>
        <time>2019-12-08T12:31:48.000Z</time>
      </trkpt>
      <trkpt lat="43.69086" lon="6.71147">
        <ele>798.18</ele>
        <time>2019-12-08T12:31:49.000Z</time>
      </trkpt>
      <trkpt lat="43.69079" lon="6.71139">
        <ele>798.16</ele>
        <time>2019-12-08T12:31:50.000Z</time>
      </trkpt>
      <trkpt lat="43.69073" lon="6.71132">
        <ele>798.28</ele>
        <time>2019-12-08T12:31:51.000Z</time>
      </trkpt>
      <trkpt lat="43.69067" lon="6.71125">
        <ele>798.36</ele>
        <time>2019-12-08T12:31:52.000Z</time>
      </trkpt>
      <trkpt lat="43.69061" lon="6.71118">
        <ele>798.46</ele>
        <time>2019-12-08T12:31:53.000Z</time>
      </trkpt>
      <trkpt lat="43.69056" lon="6.71111">
        <ele>798.31</ele>
        <time>2019-12-08T12:31:54.000Z</time>
      </trkpt>
      <trkpt lat="43.6905" lon="6.71104">
        <ele>798.17</ele>
        <time>2019-12-08T12:31:55.000Z</time>
      </trkpt>
      <trkpt lat="43.69044" lon="6.71097">
        <ele>798.08</ele>
        <time>2019-12-08T12:31:56.000Z</time>
      </trkpt>
      <trkpt lat="43.69039" lon="6.7109">
        <ele>797.94</ele>
        <time>2019-12-08T12:31:57.000Z</time>
      </trkpt>
      <trkpt lat="43.69034" lon="6.71084">
        <ele>797.82</ele>
        <time>2019-12-08T12:31:58.000Z</time>
      </trkpt>
      <trkpt lat="43.69028" lon="6.71077">
        <ele>797.81</ele>
        <time>2019-12-08T12:31:59.000Z</time>
      </trkpt>
      <trkpt lat="43.69023" lon="6.71071">
        <ele>797.62</ele>
        <time>2019-12-08T12:32:00.000Z</time>
      </trkpt>
      <trkpt lat="43.69018" lon="6.71065">
        <ele>797.52</ele>
        <time>2019-12-08T12:32:01.000Z</time>
      </trkpt>
      <trkpt lat="43.69012" lon="6.71058">
        <ele>797.39</ele>
        <time>2019-12-08T12:32:02.000Z</time>
      </trkpt>
      <trkpt lat="43.69007" lon="6.71052">
        <ele>797.26</ele>
        <time>2019-12-08T12:32:03.000Z</time>
      </trkpt>
      <trkpt lat="43.69002" lon="6.71047">
        <ele>797.24</ele>
        <time>2019-12-08T12:32:04.000Z</time>
      </trkpt>
      <trkpt lat="43.68997" lon="6.71041">
        <ele>797.34</ele>
        <time>2019-12-08T12:32:05.000Z</time>
      </trkpt>
      <trkpt lat="43.68991" lon="6.71035">
        <ele>797.44</ele>
        <time>2019-12-08T12:32:06.000Z</time>
      </trkpt>
      <trkpt lat="43.68986" lon="6.71029">
        <ele>797.51</ele>
        <time>2019-12-08T12:32:07.000Z</time>
      </trkpt>
      <trkpt lat="43.68981" lon="6.71023">
        <ele>797.59</ele>
        <time>2019-12-08T12:32:08.000Z</time>
      </trkpt>
      <trkpt lat="43.68977" lon="6.71017">
        <ele>797.7</ele>
        <time>2019-12-08T12:32:09.000Z</time>
      </trkpt>
      <trkpt lat="43.68972" lon="6.71011">
        <ele>797.81</ele>
        <time>2019-12-08T12:32:10.000Z</time>
      </trkpt>
      <trkpt lat="43.68967" lon="6.71006">
        <ele>797.97</ele>
        <time>2019-12-08T12:32:11.000Z</time>
      </trkpt>
      <trkpt lat="43.68963" lon="6.71002">
        <ele>798.12</ele>
        <time>2019-12-08T12:32:12.000Z</time>
      </trkpt>
      <trkpt lat="43.68958" lon="6.70997">
        <ele>798.21</ele>
        <time>2019-12-08T12:32:13.000Z</time>
      </trkpt>
      <trkpt lat="43.68954" lon="6.70992">
        <ele>798.44</ele>
        <time>2019-12-08T12:32:14.000Z</time>
      </trkpt>
      <trkpt lat="43.68951" lon="6.70988">
        <ele>798.63</ele>
        <time>2019-12-08T12:32:15.000Z</time>
      </trkpt>
      <trkpt lat="43.68947" lon="6.70983">
        <ele>798.9</ele>
        <time>2019-12-08T12:32:16.000Z</time>
      </trkpt>
      <trkpt lat="43.68943" lon="6.70979">
        <ele>799.05</ele>
        <time>2019-12-08T12:32:17.000Z</time>
      </trkpt>
      <trkpt lat="43.6894" lon="6.70974">
        <ele>799.32</ele>
        <time>2019-12-08T12:32:18.000Z</time>
      </trkpt>
      <trkpt lat="43.68936" lon="6.7097">
        <ele>799.55</ele>
        <time>2019-12-08T12:32:19.000Z</time>
      </trkpt>
      <trkpt lat="43.68932" lon="6.70966">
        <ele>799.79</ele>
        <time>2019-12-08T12:32:20.000Z</time>
      </trkpt>
      <trkpt lat="43.68929" lon="6.70962">
        <ele>799.91</ele>
        <time>2019-12-08T12:32:21.000Z</time>
      </trkpt>
      <trkpt lat="43.68925" lon="6.70957">
        <ele>800.19</ele>
        <time>2019-12-08T12:32:22.000Z</time>
      </trkpt>
      <trkpt lat="43.68922" lon="6.70953">
        <ele>800.46</ele>
        <time>2019-12-08T12:32:23.000Z</time>
      </trkpt>
      <trkpt lat="43.68918" lon="6.70949">
        <ele>800.74</ele>
        <time>2019-12-08T12:32:24.000Z</time>
      </trkpt>
      <trkpt lat="43.68915" lon="6.70945">
        <ele>800.84</ele>
        <time>2019-12-08T12:32:25.000Z</time>
      </trkpt>
      <trkpt lat="43.68911" lon="6.70942">
        <ele>801.04</ele>
        <time>2019-12-08T12:32:26.000Z</time>
      </trkpt>
      <trkpt lat="43.68908" lon="6.70938">
        <ele>801.27</ele>
        <time>2019-12-08T12:32:27.000Z</time>
      </trkpt>
      <trkpt lat="43.68904" lon="6.70934">
        <ele>801.45</ele>
        <time>2019-12-08T12:32:28.000Z</time>
      </trkpt>
      <trkpt lat="43.68901" lon="6.7093">
        <ele>801.56</ele>
        <time>2019-12-08T12:32:29.000Z</time>
      </trkpt>
      <trkpt lat="43.68897" lon="6.70926">
        <ele>801.73</ele>
        <time>2019-12-08T12:32:30.000Z</time>
      </trkpt>
      <trkpt lat="43.68894" lon="6.70923">
        <ele>801.92</ele>
        <time>2019-12-08T12:32:31.000Z</time>
      </trkpt>
      <trkpt lat="43.6889" lon="6.70919">
        <ele>802.06</ele>
        <time>2019-12-08T12:32:32.000Z</time>
      </trkpt>
      <trkpt lat="43.68887" lon="6.70916">
        <ele>802.14</ele>
        <time>2019-12-08T12:32:33.000Z</time>
      </trkpt>
      <trkpt lat="43.68883" lon="6.70912">
        <ele>802.32</ele>
        <time>2019-12-08T12:32:34.000Z</time>
      </trkpt>
      <trkpt lat="43.68878" lon="6.70909">
        <ele>802.47</ele>
        <time>2019-12-08T12:32:35.000Z</time>
      </trkpt>
      <trkpt lat="43.68874" lon="6.70906">
        <ele>802.62</ele>
        <time>2019-12-08T12:32:36.000Z</time>
      </trkpt>
      <trkpt lat="43.68869" lon="6.70904">
        <ele>802.68</ele>
        <time>2019-12-08T12:32:37.000Z</time>
      </trkpt>
      <trkpt lat="43.68865" lon="6.70901">
        <ele>802.82</ele>
        <time>2019-12-08T12:32:38.000Z</time>
      </trkpt>
      <trkpt lat="43.6886" lon="6.70898">
        <ele>802.87</ele>
        <time>2019-12-08T12:32:39.000Z</time>
      </trkpt>
      <trkpt lat="43.68855" lon="6.70895">
        <ele>802.9</ele>
        <time>2019-12-08T12:32:40.000Z</time>
      </trkpt>
      <trkpt lat="43.68851" lon="6.70892">
        <ele>802.92</ele>
        <time>2019-12-08T12:32:41.000Z</time>
      </trkpt>
      <trkpt lat="43.68846" lon="6.70888">
        <ele>802.92</ele>
        <time>2019-12-08T12:32:42.000Z</time>
      </trkpt>
      <trkpt lat="43.68842" lon="6.70884">
        <ele>802.98</ele>
        <time>2019-12-08T12:32:43.000Z</time>
      </trkpt>
      <trkpt lat="43.68838" lon="6.7088">
        <ele>803.09</ele>
        <time>2019-12-08T12:32:44.000Z</time>
      </trkpt>
      <trkpt lat="43.68834" lon="6.70876">
        <ele>803.27</ele>
        <time>2019-12-08T12:32:45.000Z</time>
      </trkpt>
      <trkpt lat="43.68831" lon="6.70872">
        <ele>803.38</ele>
        <time>2019-12-08T12:32:46.000Z</time>
      </trkpt>
      <trkpt lat="43.68827" lon="6.70867">
        <ele>803.59</ele>
        <time>2019-12-08T12:32:47.000Z</time>
      </trkpt>
      <trkpt lat="43.68824" lon="6.70863">
        <ele>803.9</ele>
        <time>2019-12-08T12:32:48.000Z</time>
      </trkpt>
      <trkpt lat="43.68821" lon="6.70859">
        <ele>804.04</ele>
        <time>2019-12-08T12:32:49.000Z</time>
      </trkpt>
      <trkpt lat="43.68818" lon="6.70855">
        <ele>804.36</ele>
        <time>2019-12-08T12:32:50.000Z</time>
      </trkpt>
      <trkpt lat="43.68815" lon="6.70851">
        <ele>804.72</ele>
        <time>2019-12-08T12:32:51.000Z</time>
      </trkpt>
      <trkpt lat="43.68812" lon="6.70847">
        <ele>805</ele>
        <time>2019-12-08T12:32:52.000Z</time>
      </trkpt>
      <trkpt lat="43.68809" lon="6.70843">
        <ele>805.17</ele>
        <time>2019-12-08T12:32:53.000Z</time>
      </trkpt>
      <trkpt lat="43.68806" lon="6.70839">
        <ele>805.22</ele>
        <time>2019-12-08T12:32:54.000Z</time>
      </trkpt>
      <trkpt lat="43.68803" lon="6.70835">
        <ele>805.4</ele>
        <time>2019-12-08T12:32:55.000Z</time>
      </trkpt>
      <trkpt lat="43.688" lon="6.70831">
        <ele>805.5</ele>
        <time>2019-12-08T12:32:56.000Z</time>
      </trkpt>
      <trkpt lat="43.68797" lon="6.70827">
        <ele>805.64</ele>
        <time>2019-12-08T12:32:57.000Z</time>
      </trkpt>
      <trkpt lat="43.68794" lon="6.70823">
        <ele>805.73</ele>
        <time>2019-12-08T12:32:58.000Z</time>
      </trkpt>
      <trkpt lat="43.68791" lon="6.70819">
        <ele>805.95</ele>
        <time>2019-12-08T12:32:59.000Z</time>
      </trkpt>
      <trkpt lat="43.68788" lon="6.70815">
        <ele>806.13</ele>
        <time>2019-12-08T12:33:00.000Z</time>
      </trkpt>
      <trkpt lat="43.68785" lon="6.70811">
        <ele>806.32</ele>
        <time>2019-12-08T12:33:01.000Z</time>
      </trkpt>
      <trkpt lat="43.68782" lon="6.70807">
        <ele>806.41</ele>
        <time>2019-12-08T12:33:02.000Z</time>
      </trkpt>
      <trkpt lat="43.68778" lon="6.70803">
        <ele>806.58</ele>
        <time>2019-12-08T12:33:03.000Z</time>
      </trkpt>
      <trkpt lat="43.68775" lon="6.70798">
        <ele>806.71</ele>
        <time>2019-12-08T12:33:04.000Z</time>
      </trkpt>
      <trkpt lat="43.68772" lon="6.70794">
        <ele>806.83</ele>
        <time>2019-12-08T12:33:05.000Z</time>
      </trkpt>
      <trkpt lat="43.68769" lon="6.7079">
        <ele>806.85</ele>
        <time>2019-12-08T12:33:06.000Z</time>
      </trkpt>
      <trkpt lat="43.68766" lon="6.70785">
        <ele>807</ele>
        <time>2019-12-08T12:33:07.000Z</time>
      </trkpt>
      <trkpt lat="43.68762" lon="6.70781">
        <ele>807.06</ele>
        <time>2019-12-08T12:33:08.000Z</time>
      </trkpt>
      <trkpt lat="43.68759" lon="6.70777">
        <ele>807.07</ele>
        <time>2019-12-08T12:33:09.000Z</time>
      </trkpt>
      <trkpt lat="43.68755" lon="6.70772">
        <ele>807.13</ele>
        <time>2019-12-08T12:33:10.000Z</time>
      </trkpt>
      <trkpt lat="43.68752" lon="6.70767">
        <ele>807.14</ele>
        <time>2019-12-08T12:33:11.000Z</time>
      </trkpt>
      <trkpt lat="43.68748" lon="6.70763">
        <ele>807.03</ele>
        <time>2019-12-08T12:33:12.000Z</time>
      </trkpt>
      <trkpt lat="43.68744" lon="6.70757">
        <ele>806.79</ele>
        <time>2019-12-08T12:33:13.000Z</time>
      </trkpt>
      <trkpt lat="43.68739" lon="6.70751">
        <ele>806.6</ele>
        <time>2019-12-08T12:33:14.000Z</time>
      </trkpt>
      <trkpt lat="43.68735" lon="6.70745">
        <ele>806.49</ele>
        <time>2019-12-08T12:33:15.000Z</time>
      </trkpt>
      <trkpt lat="43.6873" lon="6.70739">
        <ele>806.27</ele>
        <time>2019-12-08T12:33:16.000Z</time>
      </trkpt>
      <trkpt lat="43.68725" lon="6.70732">
        <ele>806.19</ele>
        <time>2019-12-08T12:33:17.000Z</time>
      </trkpt>
      <trkpt lat="43.6872" lon="6.70726">
        <ele>806.13</ele>
        <time>2019-12-08T12:33:18.000Z</time>
      </trkpt>
      <trkpt lat="43.68715" lon="6.70719">
        <ele>805.99</ele>
        <time>2019-12-08T12:33:19.000Z</time>
      </trkpt>
      <trkpt lat="43.6871" lon="6.70712">
        <ele>805.87</ele>
        <time>2019-12-08T12:33:20.000Z</time>
      </trkpt>
      <trkpt lat="43.68705" lon="6.70705">
        <ele>805.65</ele>
        <time>2019-12-08T12:33:21.000Z</time>
      </trkpt>
      <trkpt lat="43.687" lon="6.70697">
        <ele>805.45</ele>
        <time>2019-12-08T12:33:22.000Z</time>
      </trkpt>
      <trkpt lat="43.68696" lon="6.70689">
        <ele>805.34</ele>
        <time>2019-12-08T12:33:23.000Z</time>
      </trkpt>
      <trkpt lat="43.68691" lon="6.70681">
        <ele>805.08</ele>
        <time>2019-12-08T12:33:24.000Z</time>
      </trkpt>
      <trkpt lat="43.68688" lon="6.70671">
        <ele>804.94</ele>
        <time>2019-12-08T12:33:25.000Z</time>
      </trkpt>
      <trkpt lat="43.68685" lon="6.70661">
        <ele>804.92</ele>
        <time>2019-12-08T12:33:26.000Z</time>
      </trkpt>
      <trkpt lat="43.68683" lon="6.70651">
        <ele>804.83</ele>
        <time>2019-12-08T12:33:27.000Z</time>
      </trkpt>
      <trkpt lat="43.68679" lon="6.70641">
        <ele>804.68</ele>
        <time>2019-12-08T12:33:28.000Z</time>
      </trkpt>
      <trkpt lat="43.68675" lon="6.70631">
        <ele>804.47</ele>
        <time>2019-12-08T12:33:29.000Z</time>
      </trkpt>
      <trkpt lat="43.6867" lon="6.70622">
        <ele>804.02</ele>
        <time>2019-12-08T12:33:30.000Z</time>
      </trkpt>
      <trkpt lat="43.68664" lon="6.70613">
        <ele>803.73</ele>
        <time>2019-12-08T12:33:31.000Z</time>
      </trkpt>
      <trkpt lat="43.68658" lon="6.70604">
        <ele>803.16</ele>
        <time>2019-12-08T12:33:32.000Z</time>
      </trkpt>
      <trkpt lat="43.68653" lon="6.70593">
        <ele>802.57</ele>
        <time>2019-12-08T12:33:33.000Z</time>
      </trkpt>
      <trkpt lat="43.68648" lon="6.70582">
        <ele>802.07</ele>
        <time>2019-12-08T12:33:34.000Z</time>
      </trkpt>
      <trkpt lat="43.68643" lon="6.70571">
        <ele>801.8</ele>
        <time>2019-12-08T12:33:35.000Z</time>
      </trkpt>
      <trkpt lat="43.68637" lon="6.70561">
        <ele>801.29</ele>
        <time>2019-12-08T12:33:36.000Z</time>
      </trkpt>
      <trkpt lat="43.6863" lon="6.70551">
        <ele>800.79</ele>
        <time>2019-12-08T12:33:37.000Z</time>
      </trkpt>
      <trkpt lat="43.68622" lon="6.70542">
        <ele>800.2</ele>
        <time>2019-12-08T12:33:38.000Z</time>
      </trkpt>
      <trkpt lat="43.68615" lon="6.70532">
        <ele>799.92</ele>
        <time>2019-12-08T12:33:39.000Z</time>
      </trkpt>
      <trkpt lat="43.68609" lon="6.7052">
        <ele>799.33</ele>
        <time>2019-12-08T12:33:40.000Z</time>
      </trkpt>
      <trkpt lat="43.68604" lon="6.70507">
        <ele>798.66</ele>
        <time>2019-12-08T12:33:41.000Z</time>
      </trkpt>
      <trkpt lat="43.68599" lon="6.70494">
        <ele>798.66</ele>
        <time>2019-12-08T12:33:42.000Z</time>
      </trkpt>
      <trkpt lat="43.68595" lon="6.70481">
        <ele>797.93</ele>
        <time>2019-12-08T12:33:43.000Z</time>
      </trkpt>
      <trkpt lat="43.6859" lon="6.70468">
        <ele>797.26</ele>
        <time>2019-12-08T12:33:44.000Z</time>
      </trkpt>
      <trkpt lat="43.68585" lon="6.70454">
        <ele>796.58</ele>
        <time>2019-12-08T12:33:45.000Z</time>
      </trkpt>
      <trkpt lat="43.6858" lon="6.70441">
        <ele>795.9</ele>
        <time>2019-12-08T12:33:46.000Z</time>
      </trkpt>
      <trkpt lat="43.68575" lon="6.70427">
        <ele>795.64</ele>
        <time>2019-12-08T12:33:47.000Z</time>
      </trkpt>
      <trkpt lat="43.68571" lon="6.70413">
        <ele>794.97</ele>
        <time>2019-12-08T12:33:48.000Z</time>
      </trkpt>
      <trkpt lat="43.68566" lon="6.704">
        <ele>794.2</ele>
        <time>2019-12-08T12:33:49.000Z</time>
      </trkpt>
      <trkpt lat="43.68561" lon="6.70386">
        <ele>793.56</ele>
        <time>2019-12-08T12:33:50.000Z</time>
      </trkpt>
      <trkpt lat="43.68556" lon="6.70372">
        <ele>793.21</ele>
        <time>2019-12-08T12:33:51.000Z</time>
      </trkpt>
      <trkpt lat="43.68551" lon="6.70357">
        <ele>792.45</ele>
        <time>2019-12-08T12:33:52.000Z</time>
      </trkpt>
      <trkpt lat="43.68545" lon="6.70344">
        <ele>791.75</ele>
        <time>2019-12-08T12:33:53.000Z</time>
      </trkpt>
      <trkpt lat="43.68539" lon="6.7033">
        <ele>791</ele>
        <time>2019-12-08T12:33:54.000Z</time>
      </trkpt>
      <trkpt lat="43.68533" lon="6.70317">
        <ele>790.68</ele>
        <time>2019-12-08T12:33:55.000Z</time>
      </trkpt>
      <trkpt lat="43.68525" lon="6.70305">
        <ele>790.12</ele>
        <time>2019-12-08T12:33:56.000Z</time>
      </trkpt>
      <trkpt lat="43.68515" lon="6.70296">
        <ele>789.51</ele>
        <time>2019-12-08T12:33:57.000Z</time>
      </trkpt>
      <trkpt lat="43.68505" lon="6.70288">
        <ele>788.67</ele>
        <time>2019-12-08T12:33:58.000Z</time>
      </trkpt>
      <trkpt lat="43.68492" lon="6.70283">
        <ele>787.86</ele>
        <time>2019-12-08T12:33:59.000Z</time>
      </trkpt>
      <trkpt lat="43.68481" lon="6.70276">
        <ele>787.34</ele>
        <time>2019-12-08T12:34:00.000Z</time>
      </trkpt>
      <trkpt lat="43.6847" lon="6.70269">
        <ele>786.31</ele>
        <time>2019-12-08T12:34:01.000Z</time>
      </trkpt>
      <trkpt lat="43.6846" lon="6.70261">
        <ele>785.41</ele>
        <time>2019-12-08T12:34:02.000Z</time>
      </trkpt>
      <trkpt lat="43.68451" lon="6.70251">
        <ele>784.48</ele>
        <time>2019-12-08T12:34:03.000Z</time>
      </trkpt>
      <trkpt lat="43.68442" lon="6.70239">
        <ele>783.95</ele>
        <time>2019-12-08T12:34:04.000Z</time>
      </trkpt>
      <trkpt lat="43.68435" lon="6.70225">
        <ele>782.97</ele>
        <time>2019-12-08T12:34:05.000Z</time>
      </trkpt>
      <trkpt lat="43.68428" lon="6.70211">
        <ele>781.94</ele>
        <time>2019-12-08T12:34:06.000Z</time>
      </trkpt>
      <trkpt lat="43.6842" lon="6.70199">
        <ele>780.96</ele>
        <time>2019-12-08T12:34:07.000Z</time>
      </trkpt>
      <trkpt lat="43.68411" lon="6.70187">
        <ele>780.5</ele>
        <time>2019-12-08T12:34:08.000Z</time>
      </trkpt>
      <trkpt lat="43.68401" lon="6.70175">
        <ele>779.65</ele>
        <time>2019-12-08T12:34:09.000Z</time>
      </trkpt>
      <trkpt lat="43.68391" lon="6.70164">
        <ele>779.65</ele>
        <time>2019-12-08T12:34:10.000Z</time>
      </trkpt>
      <trkpt lat="43.68381" lon="6.70153">
        <ele>778.48</ele>
        <time>2019-12-08T12:34:11.000Z</time>
      </trkpt>
      <trkpt lat="43.68372" lon="6.70141">
        <ele>777.9</ele>
        <time>2019-12-08T12:34:12.000Z</time>
      </trkpt>
      <trkpt lat="43.68362" lon="6.7013">
        <ele>776.73</ele>
        <time>2019-12-08T12:34:13.000Z</time>
      </trkpt>
      <trkpt lat="43.68353" lon="6.70117">
        <ele>775.58</ele>
        <time>2019-12-08T12:34:14.000Z</time>
      </trkpt>
      <trkpt lat="43.68345" lon="6.70103">
        <ele>774.36</ele>
        <time>2019-12-08T12:34:15.000Z</time>
      </trkpt>
      <trkpt lat="43.68339" lon="6.70088">
        <ele>773.81</ele>
        <time>2019-12-08T12:34:16.000Z</time>
      </trkpt>
      <trkpt lat="43.68336" lon="6.70071">
        <ele>772.66</ele>
        <time>2019-12-08T12:34:17.000Z</time>
      </trkpt>
      <trkpt lat="43.68334" lon="6.70053">
        <ele>771.54</ele>
        <time>2019-12-08T12:34:18.000Z</time>
      </trkpt>
      <trkpt lat="43.68332" lon="6.70035">
        <ele>770.49</ele>
        <time>2019-12-08T12:34:19.000Z</time>
      </trkpt>
      <trkpt lat="43.6833" lon="6.70018">
        <ele>770</ele>
        <time>2019-12-08T12:34:20.000Z</time>
      </trkpt>
      <trkpt lat="43.68328" lon="6.69999">
        <ele>769.05</ele>
        <time>2019-12-08T12:34:21.000Z</time>
      </trkpt>
      <trkpt lat="43.68327" lon="6.69981">
        <ele>768.1</ele>
        <time>2019-12-08T12:34:22.000Z</time>
      </trkpt>
      <trkpt lat="43.68326" lon="6.69963">
        <ele>767.02</ele>
        <time>2019-12-08T12:34:23.000Z</time>
      </trkpt>
      <trkpt lat="43.68324" lon="6.69945">
        <ele>765.98</ele>
        <time>2019-12-08T12:34:24.000Z</time>
      </trkpt>
      <trkpt lat="43.6832" lon="6.69927">
        <ele>765.43</ele>
        <time>2019-12-08T12:34:25.000Z</time>
      </trkpt>
      <trkpt lat="43.68314" lon="6.69911">
        <ele>764.38</ele>
        <time>2019-12-08T12:34:26.000Z</time>
      </trkpt>
      <trkpt lat="43.68307" lon="6.69895">
        <ele>764.38</ele>
        <time>2019-12-08T12:34:27.000Z</time>
      </trkpt>
      <trkpt lat="43.68298" lon="6.69881">
        <ele>763.7</ele>
        <time>2019-12-08T12:34:28.000Z</time>
      </trkpt>
      <trkpt lat="43.6829" lon="6.69867">
        <ele>762.37</ele>
        <time>2019-12-08T12:34:29.000Z</time>
      </trkpt>
      <trkpt lat="43.68281" lon="6.69853">
        <ele>761.12</ele>
        <time>2019-12-08T12:34:30.000Z</time>
      </trkpt>
      <trkpt lat="43.68273" lon="6.69838">
        <ele>759.87</ele>
        <time>2019-12-08T12:34:31.000Z</time>
      </trkpt>
      <trkpt lat="43.68264" lon="6.69824">
        <ele>758.76</ele>
        <time>2019-12-08T12:34:32.000Z</time>
      </trkpt>
      <trkpt lat="43.68255" lon="6.69809">
        <ele>758.26</ele>
        <time>2019-12-08T12:34:33.000Z</time>
      </trkpt>
      <trkpt lat="43.68246" lon="6.69795">
        <ele>757.12</ele>
        <time>2019-12-08T12:34:34.000Z</time>
      </trkpt>
      <trkpt lat="43.68236" lon="6.69782">
        <ele>755.93</ele>
        <time>2019-12-08T12:34:35.000Z</time>
      </trkpt>
      <trkpt lat="43.68226" lon="6.69771">
        <ele>755.37</ele>
        <time>2019-12-08T12:34:36.000Z</time>
      </trkpt>
      <trkpt lat="43.68214" lon="6.69761">
        <ele>754.27</ele>
        <time>2019-12-08T12:34:37.000Z</time>
      </trkpt>
      <trkpt lat="43.68202" lon="6.69752">
        <ele>753.24</ele>
        <time>2019-12-08T12:34:38.000Z</time>
      </trkpt>
      <trkpt lat="43.6819" lon="6.69742">
        <ele>752.25</ele>
        <time>2019-12-08T12:34:39.000Z</time>
      </trkpt>
      <trkpt lat="43.68178" lon="6.69733">
        <ele>751.24</ele>
        <time>2019-12-08T12:34:40.000Z</time>
      </trkpt>
      <trkpt lat="43.68166" lon="6.69724">
        <ele>750.72</ele>
        <time>2019-12-08T12:34:41.000Z</time>
      </trkpt>
      <trkpt lat="43.68154" lon="6.69714">
        <ele>749.72</ele>
        <time>2019-12-08T12:34:42.000Z</time>
      </trkpt>
      <trkpt lat="43.68143" lon="6.69705">
        <ele>748.84</ele>
        <time>2019-12-08T12:34:43.000Z</time>
      </trkpt>
      <trkpt lat="43.68131" lon="6.69696">
        <ele>748.03</ele>
        <time>2019-12-08T12:34:44.000Z</time>
      </trkpt>
      <trkpt lat="43.68119" lon="6.69687">
        <ele>747.63</ele>
        <time>2019-12-08T12:34:45.000Z</time>
      </trkpt>
      <trkpt lat="43.68107" lon="6.69678">
        <ele>746.9</ele>
        <time>2019-12-08T12:34:46.000Z</time>
      </trkpt>
      <trkpt lat="43.68096" lon="6.6967">
        <ele>746.16</ele>
        <time>2019-12-08T12:34:47.000Z</time>
      </trkpt>
      <trkpt lat="43.68084" lon="6.69661">
        <ele>745.33</ele>
        <time>2019-12-08T12:34:48.000Z</time>
      </trkpt>
      <trkpt lat="43.68073" lon="6.69653">
        <ele>744.89</ele>
        <time>2019-12-08T12:34:49.000Z</time>
      </trkpt>
      <trkpt lat="43.6806" lon="6.69646">
        <ele>743.89</ele>
        <time>2019-12-08T12:34:50.000Z</time>
      </trkpt>
      <trkpt lat="43.68048" lon="6.69644">
        <ele>742.78</ele>
        <time>2019-12-08T12:34:51.000Z</time>
      </trkpt>
      <trkpt lat="43.68034" lon="6.69647">
        <ele>741.6</ele>
        <time>2019-12-08T12:34:52.000Z</time>
      </trkpt>
      <trkpt lat="43.68022" lon="6.6965">
        <ele>741.07</ele>
        <time>2019-12-08T12:34:53.000Z</time>
      </trkpt>
      <trkpt lat="43.6801" lon="6.69655">
        <ele>740.1</ele>
        <time>2019-12-08T12:34:54.000Z</time>
      </trkpt>
      <trkpt lat="43.67999" lon="6.69658">
        <ele>739.06</ele>
        <time>2019-12-08T12:34:55.000Z</time>
      </trkpt>
      <trkpt lat="43.67987" lon="6.69657">
        <ele>737.96</ele>
        <time>2019-12-08T12:34:56.000Z</time>
      </trkpt>
      <trkpt lat="43.67979" lon="6.69649">
        <ele>737.37</ele>
        <time>2019-12-08T12:34:57.000Z</time>
      </trkpt>
      <trkpt lat="43.67975" lon="6.69638">
        <ele>736.08</ele>
        <time>2019-12-08T12:34:58.000Z</time>
      </trkpt>
      <trkpt lat="43.67977" lon="6.69626">
        <ele>734.75</ele>
        <time>2019-12-08T12:34:59.000Z</time>
      </trkpt>
      <trkpt lat="43.67982" lon="6.69614">
        <ele>733.63</ele>
        <time>2019-12-08T12:35:00.000Z</time>
      </trkpt>
      <trkpt lat="43.67989" lon="6.69604">
        <ele>733.12</ele>
        <time>2019-12-08T12:35:01.000Z</time>
      </trkpt>
      <trkpt lat="43.67997" lon="6.69595">
        <ele>732.2</ele>
        <time>2019-12-08T12:35:02.000Z</time>
      </trkpt>
      <trkpt lat="43.68005" lon="6.69586">
        <ele>732.2</ele>
        <time>2019-12-08T12:35:03.000Z</time>
      </trkpt>
      <trkpt lat="43.68014" lon="6.69577">
        <ele>731.25</ele>
        <time>2019-12-08T12:35:04.000Z</time>
      </trkpt>
      <trkpt lat="43.68023" lon="6.69568">
        <ele>730.84</ele>
        <time>2019-12-08T12:35:05.000Z</time>
      </trkpt>
      <trkpt lat="43.68033" lon="6.69559">
        <ele>729.9</ele>
        <time>2019-12-08T12:35:06.000Z</time>
      </trkpt>
      <trkpt lat="43.68043" lon="6.69553">
        <ele>728.93</ele>
        <time>2019-12-08T12:35:07.000Z</time>
      </trkpt>
      <trkpt lat="43.68055" lon="6.69547">
        <ele>728.03</ele>
        <time>2019-12-08T12:35:08.000Z</time>
      </trkpt>
      <trkpt lat="43.68066" lon="6.69542">
        <ele>727.08</ele>
        <time>2019-12-08T12:35:09.000Z</time>
      </trkpt>
      <trkpt lat="43.68077" lon="6.69534">
        <ele>726.63</ele>
        <time>2019-12-08T12:35:10.000Z</time>
      </trkpt>
      <trkpt lat="43.68086" lon="6.69523">
        <ele>725.76</ele>
        <time>2019-12-08T12:35:11.000Z</time>
      </trkpt>
      <trkpt lat="43.68096" lon="6.69512">
        <ele>724.87</ele>
        <time>2019-12-08T12:35:12.000Z</time>
      </trkpt>
      <trkpt lat="43.68105" lon="6.69501">
        <ele>724.46</ele>
        <time>2019-12-08T12:35:13.000Z</time>
      </trkpt>
      <trkpt lat="43.68114" lon="6.69492">
        <ele>723.6</ele>
        <time>2019-12-08T12:35:14.000Z</time>
      </trkpt>
      <trkpt lat="43.68125" lon="6.69488">
        <ele>722.58</ele>
        <time>2019-12-08T12:35:15.000Z</time>
      </trkpt>
      <trkpt lat="43.68136" lon="6.69491">
        <ele>721.55</ele>
        <time>2019-12-08T12:35:16.000Z</time>
      </trkpt>
      <trkpt lat="43.68148" lon="6.69494">
        <ele>720.49</ele>
        <time>2019-12-08T12:35:17.000Z</time>
      </trkpt>
      <trkpt lat="43.68159" lon="6.69498">
        <ele>719.98</ele>
        <time>2019-12-08T12:35:18.000Z</time>
      </trkpt>
      <trkpt lat="43.68169" lon="6.69502">
        <ele>719.04</ele>
        <time>2019-12-08T12:35:19.000Z</time>
      </trkpt>
      <trkpt lat="43.68179" lon="6.69506">
        <ele>718.13</ele>
        <time>2019-12-08T12:35:20.000Z</time>
      </trkpt>
      <trkpt lat="43.68189" lon="6.69506">
        <ele>717.16</ele>
        <time>2019-12-08T12:35:21.000Z</time>
      </trkpt>
      <trkpt lat="43.68197" lon="6.69501">
        <ele>716.67</ele>
        <time>2019-12-08T12:35:22.000Z</time>
      </trkpt>
      <trkpt lat="43.68203" lon="6.69493">
        <ele>715.79</ele>
        <time>2019-12-08T12:35:23.000Z</time>
      </trkpt>
      <trkpt lat="43.68207" lon="6.69481">
        <ele>714.81</ele>
        <time>2019-12-08T12:35:24.000Z</time>
      </trkpt>
      <trkpt lat="43.68211" lon="6.69467">
        <ele>714.81</ele>
        <time>2019-12-08T12:35:25.000Z</time>
      </trkpt>
      <trkpt lat="43.68214" lon="6.69453">
        <ele>713.76</ele>
        <time>2019-12-08T12:35:26.000Z</time>
      </trkpt>
      <trkpt lat="43.68217" lon="6.69439">
        <ele>712.8</ele>
        <time>2019-12-08T12:35:27.000Z</time>
      </trkpt>
      <trkpt lat="43.68221" lon="6.69425">
        <ele>711.89</ele>
        <time>2019-12-08T12:35:28.000Z</time>
      </trkpt>
      <trkpt lat="43.68225" lon="6.6941">
        <ele>711.01</ele>
        <time>2019-12-08T12:35:29.000Z</time>
      </trkpt>
      <trkpt lat="43.68231" lon="6.69396">
        <ele>710.6</ele>
        <time>2019-12-08T12:35:30.000Z</time>
      </trkpt>
      <trkpt lat="43.68237" lon="6.69381">
        <ele>709.7</ele>
        <time>2019-12-08T12:35:31.000Z</time>
      </trkpt>
      <trkpt lat="43.68244" lon="6.69367">
        <ele>708.67</ele>
        <time>2019-12-08T12:35:32.000Z</time>
      </trkpt>
      <trkpt lat="43.68251" lon="6.69353">
        <ele>707.58</ele>
        <time>2019-12-08T12:35:33.000Z</time>
      </trkpt>
      <trkpt lat="43.6826" lon="6.69341">
        <ele>707.01</ele>
        <time>2019-12-08T12:35:34.000Z</time>
      </trkpt>
      <trkpt lat="43.68271" lon="6.69333">
        <ele>705.93</ele>
        <time>2019-12-08T12:35:35.000Z</time>
      </trkpt>
      <trkpt lat="43.68283" lon="6.69326">
        <ele>704.93</ele>
        <time>2019-12-08T12:35:36.000Z</time>
      </trkpt>
      <trkpt lat="43.68295" lon="6.69319">
        <ele>703.9</ele>
        <time>2019-12-08T12:35:37.000Z</time>
      </trkpt>
      <trkpt lat="43.68307" lon="6.69313">
        <ele>702.87</ele>
        <time>2019-12-08T12:35:38.000Z</time>
      </trkpt>
      <trkpt lat="43.68318" lon="6.69304">
        <ele>702.41</ele>
        <time>2019-12-08T12:35:39.000Z</time>
      </trkpt>
      <trkpt lat="43.68328" lon="6.69293">
        <ele>701.41</ele>
        <time>2019-12-08T12:35:40.000Z</time>
      </trkpt>
      <trkpt lat="43.68336" lon="6.69279">
        <ele>700.39</ele>
        <time>2019-12-08T12:35:41.000Z</time>
      </trkpt>
      <trkpt lat="43.68344" lon="6.69265">
        <ele>699.88</ele>
        <time>2019-12-08T12:35:42.000Z</time>
      </trkpt>
      <trkpt lat="43.68377" lon="6.69215">
        <ele>696.07</ele>
        <time>2019-12-08T12:35:46.000Z</time>
      </trkpt>
      <trkpt lat="43.68386" lon="6.69208">
        <ele>695.55</ele>
        <time>2019-12-08T12:35:47.000Z</time>
      </trkpt>
      <trkpt lat="43.68393" lon="6.692">
        <ele>695.55</ele>
        <time>2019-12-08T12:35:48.000Z</time>
      </trkpt>
      <trkpt lat="43.68396" lon="6.69191">
        <ele>694.79</ele>
        <time>2019-12-08T12:35:49.000Z</time>
      </trkpt>
      <trkpt lat="43.68394" lon="6.69181">
        <ele>693.32</ele>
        <time>2019-12-08T12:35:50.000Z</time>
      </trkpt>
      <trkpt lat="43.6839" lon="6.69172">
        <ele>692.64</ele>
        <time>2019-12-08T12:35:51.000Z</time>
      </trkpt>
      <trkpt lat="43.68385" lon="6.69163">
        <ele>691.46</ele>
        <time>2019-12-08T12:35:52.000Z</time>
      </trkpt>
      <trkpt lat="43.68379" lon="6.69155">
        <ele>690.67</ele>
        <time>2019-12-08T12:35:53.000Z</time>
      </trkpt>
      <trkpt lat="43.68374" lon="6.69148">
        <ele>690.53</ele>
        <time>2019-12-08T12:35:54.000Z</time>
      </trkpt>
      <trkpt lat="43.68368" lon="6.69143">
        <ele>690.48</ele>
        <time>2019-12-08T12:35:55.000Z</time>
      </trkpt>
      <trkpt lat="43.68361" lon="6.6914">
        <ele>690.54</ele>
        <time>2019-12-08T12:35:56.000Z</time>
      </trkpt>
      <trkpt lat="43.68353" lon="6.69141">
        <ele>690.72</ele>
        <time>2019-12-08T12:35:57.000Z</time>
      </trkpt>
      <trkpt lat="43.68346" lon="6.69143">
        <ele>690.97</ele>
        <time>2019-12-08T12:35:58.000Z</time>
      </trkpt>
      <trkpt lat="43.6834" lon="6.69145">
        <ele>691.15</ele>
        <time>2019-12-08T12:35:59.000Z</time>
      </trkpt>
      <trkpt lat="43.68334" lon="6.69147">
        <ele>691.52</ele>
        <time>2019-12-08T12:36:00.000Z</time>
      </trkpt>
      <trkpt lat="43.68329" lon="6.69148">
        <ele>691.86</ele>
        <time>2019-12-08T12:36:01.000Z</time>
      </trkpt>
      <trkpt lat="43.68324" lon="6.6915">
        <ele>692.27</ele>
        <time>2019-12-08T12:36:02.000Z</time>
      </trkpt>
      <trkpt lat="43.6832" lon="6.69151">
        <ele>692.42</ele>
        <time>2019-12-08T12:36:03.000Z</time>
      </trkpt>
      <trkpt lat="43.68316" lon="6.69153">
        <ele>692.75</ele>
        <time>2019-12-08T12:36:04.000Z</time>
      </trkpt>
      <trkpt lat="43.68312" lon="6.69155">
        <ele>693.13</ele>
        <time>2019-12-08T12:36:05.000Z</time>
      </trkpt>
      <trkpt lat="43.68308" lon="6.69157">
        <ele>693.41</ele>
        <time>2019-12-08T12:36:06.000Z</time>
      </trkpt>
      <trkpt lat="43.68305" lon="6.69158">
        <ele>693.52</ele>
        <time>2019-12-08T12:36:07.000Z</time>
      </trkpt>
      <trkpt lat="43.68301" lon="6.69159">
        <ele>693.84</ele>
        <time>2019-12-08T12:36:08.000Z</time>
      </trkpt>
      <trkpt lat="43.68298" lon="6.6916">
        <ele>694.16</ele>
        <time>2019-12-08T12:36:09.000Z</time>
      </trkpt>
      <trkpt lat="43.68295" lon="6.69159">
        <ele>694.52</ele>
        <time>2019-12-08T12:36:10.000Z</time>
      </trkpt>
      <trkpt lat="43.68292" lon="6.69159">
        <ele>694.7</ele>
        <time>2019-12-08T12:36:11.000Z</time>
      </trkpt>
      <trkpt lat="43.68288" lon="6.69158">
        <ele>695.11</ele>
        <time>2019-12-08T12:36:12.000Z</time>
      </trkpt>
      <trkpt lat="43.68286" lon="6.69157">
        <ele>695.46</ele>
        <time>2019-12-08T12:36:13.000Z</time>
      </trkpt>
      <trkpt lat="43.68283" lon="6.69155">
        <ele>695.8</ele>
        <time>2019-12-08T12:36:14.000Z</time>
      </trkpt>
      <trkpt lat="43.68281" lon="6.69153">
        <ele>695.95</ele>
        <time>2019-12-08T12:36:15.000Z</time>
      </trkpt>
      <trkpt lat="43.68277" lon="6.69152">
        <ele>696.23</ele>
        <time>2019-12-08T12:36:16.000Z</time>
      </trkpt>
      <trkpt lat="43.68275" lon="6.69149">
        <ele>696.52</ele>
        <time>2019-12-08T12:36:17.000Z</time>
      </trkpt>
      <trkpt lat="43.68273" lon="6.69146">
        <ele>696.78</ele>
        <time>2019-12-08T12:36:18.000Z</time>
      </trkpt>
      <trkpt lat="43.6827" lon="6.69143">
        <ele>696.91</ele>
        <time>2019-12-08T12:36:19.000Z</time>
      </trkpt>
      <trkpt lat="43.68268" lon="6.6914">
        <ele>697.17</ele>
        <time>2019-12-08T12:36:20.000Z</time>
      </trkpt>
      <trkpt lat="43.68267" lon="6.69136">
        <ele>697.35</ele>
        <time>2019-12-08T12:36:21.000Z</time>
      </trkpt>
      <trkpt lat="43.68264" lon="6.69133">
        <ele>697.55</ele>
        <time>2019-12-08T12:36:22.000Z</time>
      </trkpt>
      <trkpt lat="43.68262" lon="6.69129">
        <ele>697.72</ele>
        <time>2019-12-08T12:36:23.000Z</time>
      </trkpt>
      <trkpt lat="43.68261" lon="6.69125">
        <ele>697.8</ele>
        <time>2019-12-08T12:36:24.000Z</time>
      </trkpt>
      <trkpt lat="43.68258" lon="6.69123">
        <ele>698.04</ele>
        <time>2019-12-08T12:36:25.000Z</time>
      </trkpt>
      <trkpt lat="43.68256" lon="6.69119">
        <ele>698.28</ele>
        <time>2019-12-08T12:36:26.000Z</time>
      </trkpt>
      <trkpt lat="43.68254" lon="6.69116">
        <ele>698.55</ele>
        <time>2019-12-08T12:36:27.000Z</time>
      </trkpt>
      <trkpt lat="43.68251" lon="6.69113">
        <ele>698.69</ele>
        <time>2019-12-08T12:36:28.000Z</time>
      </trkpt>
      <trkpt lat="43.68249" lon="6.6911">
        <ele>698.99</ele>
        <time>2019-12-08T12:36:29.000Z</time>
      </trkpt>
      <trkpt lat="43.68247" lon="6.69107">
        <ele>699.12</ele>
        <time>2019-12-08T12:36:30.000Z</time>
      </trkpt>
      <trkpt lat="43.68242" lon="6.69102">
        <ele>699.31</ele>
        <time>2019-12-08T12:36:32.000Z</time>
      </trkpt>
      <trkpt lat="43.6824" lon="6.691">
        <ele>699.61</ele>
        <time>2019-12-08T12:36:33.000Z</time>
      </trkpt>
      <trkpt lat="43.68237" lon="6.69098">
        <ele>699.79</ele>
        <time>2019-12-08T12:36:34.000Z</time>
      </trkpt>
      <trkpt lat="43.68234" lon="6.69096">
        <ele>700.17</ele>
        <time>2019-12-08T12:36:35.000Z</time>
      </trkpt>
      <trkpt lat="43.68231" lon="6.69094">
        <ele>700.34</ele>
        <time>2019-12-08T12:36:36.000Z</time>
      </trkpt>
      <trkpt lat="43.68229" lon="6.69092">
        <ele>700.65</ele>
        <time>2019-12-08T12:36:37.000Z</time>
      </trkpt>
      <trkpt lat="43.68227" lon="6.6909">
        <ele>700.89</ele>
        <time>2019-12-08T12:36:38.000Z</time>
      </trkpt>
      <trkpt lat="43.68224" lon="6.69088">
        <ele>701.11</ele>
        <time>2019-12-08T12:36:39.000Z</time>
      </trkpt>
      <trkpt lat="43.68221" lon="6.69087">
        <ele>701.26</ele>
        <time>2019-12-08T12:36:40.000Z</time>
      </trkpt>
      <trkpt lat="43.68218" lon="6.69086">
        <ele>701.54</ele>
        <time>2019-12-08T12:36:41.000Z</time>
      </trkpt>
      <trkpt lat="43.68216" lon="6.69084">
        <ele>701.85</ele>
        <time>2019-12-08T12:36:42.000Z</time>
      </trkpt>
      <trkpt lat="43.68213" lon="6.69084">
        <ele>702.17</ele>
        <time>2019-12-08T12:36:43.000Z</time>
      </trkpt>
      <trkpt lat="43.68209" lon="6.69084">
        <ele>702.32</ele>
        <time>2019-12-08T12:36:44.000Z</time>
      </trkpt>
      <trkpt lat="43.68206" lon="6.69084">
        <ele>702.57</ele>
        <time>2019-12-08T12:36:45.000Z</time>
      </trkpt>
      <trkpt lat="43.68203" lon="6.69084">
        <ele>702.83</ele>
        <time>2019-12-08T12:36:46.000Z</time>
      </trkpt>
      <trkpt lat="43.682" lon="6.69083">
        <ele>703.05</ele>
        <time>2019-12-08T12:36:47.000Z</time>
      </trkpt>
      <trkpt lat="43.68197" lon="6.69082">
        <ele>703.15</ele>
        <time>2019-12-08T12:36:48.000Z</time>
      </trkpt>
      <trkpt lat="43.68194" lon="6.69081">
        <ele>703.39</ele>
        <time>2019-12-08T12:36:49.000Z</time>
      </trkpt>
      <trkpt lat="43.68191" lon="6.69081">
        <ele>703.65</ele>
        <time>2019-12-08T12:36:50.000Z</time>
      </trkpt>
      <trkpt lat="43.68188" lon="6.69081">
        <ele>703.89</ele>
        <time>2019-12-08T12:36:51.000Z</time>
      </trkpt>
      <trkpt lat="43.68185" lon="6.69081">
        <ele>704.02</ele>
        <time>2019-12-08T12:36:52.000Z</time>
      </trkpt>
      <trkpt lat="43.68182" lon="6.69081">
        <ele>704.31</ele>
        <time>2019-12-08T12:36:53.000Z</time>
      </trkpt>
      <trkpt lat="43.68179" lon="6.6908">
        <ele>704.55</ele>
        <time>2019-12-08T12:36:54.000Z</time>
      </trkpt>
      <trkpt lat="43.68176" lon="6.6908">
        <ele>704.82</ele>
        <time>2019-12-08T12:36:55.000Z</time>
      </trkpt>
      <trkpt lat="43.68173" lon="6.69081">
        <ele>705.07</ele>
        <time>2019-12-08T12:36:56.000Z</time>
      </trkpt>
      <trkpt lat="43.6817" lon="6.69081">
        <ele>705.21</ele>
        <time>2019-12-08T12:36:57.000Z</time>
      </trkpt>
      <trkpt lat="43.68166" lon="6.69081">
        <ele>705.49</ele>
        <time>2019-12-08T12:36:58.000Z</time>
      </trkpt>
      <trkpt lat="43.68163" lon="6.69083">
        <ele>705.74</ele>
        <time>2019-12-08T12:36:59.000Z</time>
      </trkpt>
      <trkpt lat="43.6816" lon="6.69084">
        <ele>705.87</ele>
        <time>2019-12-08T12:37:00.000Z</time>
      </trkpt>
      <trkpt lat="43.68157" lon="6.69084">
        <ele>706.13</ele>
        <time>2019-12-08T12:37:01.000Z</time>
      </trkpt>
      <trkpt lat="43.68154" lon="6.69085">
        <ele>706.32</ele>
        <time>2019-12-08T12:37:02.000Z</time>
      </trkpt>
      <trkpt lat="43.68151" lon="6.69085">
        <ele>706.55</ele>
        <time>2019-12-08T12:37:03.000Z</time>
      </trkpt>
      <trkpt lat="43.68148" lon="6.69086">
        <ele>706.82</ele>
        <time>2019-12-08T12:37:04.000Z</time>
      </trkpt>
      <trkpt lat="43.68145" lon="6.69087">
        <ele>706.9</ele>
        <time>2019-12-08T12:37:05.000Z</time>
      </trkpt>
      <trkpt lat="43.68142" lon="6.69088">
        <ele>707.16</ele>
        <time>2019-12-08T12:37:06.000Z</time>
      </trkpt>
      <trkpt lat="43.6814" lon="6.69089">
        <ele>707.38</ele>
        <time>2019-12-08T12:37:07.000Z</time>
      </trkpt>
      <trkpt lat="43.68137" lon="6.6909">
        <ele>707.64</ele>
        <time>2019-12-08T12:37:08.000Z</time>
      </trkpt>
      <trkpt lat="43.68129" lon="6.69095">
        <ele>708.04</ele>
        <time>2019-12-08T12:37:10.000Z</time>
      </trkpt>
      <trkpt lat="43.68126" lon="6.69097">
        <ele>708.27</ele>
        <time>2019-12-08T12:37:11.000Z</time>
      </trkpt>
      <trkpt lat="43.68123" lon="6.69098">
        <ele>708.5</ele>
        <time>2019-12-08T12:37:12.000Z</time>
      </trkpt>
      <trkpt lat="43.68119" lon="6.69101">
        <ele>708.6</ele>
        <time>2019-12-08T12:37:13.000Z</time>
      </trkpt>
      <trkpt lat="43.68117" lon="6.69103">
        <ele>708.87</ele>
        <time>2019-12-08T12:37:14.000Z</time>
      </trkpt>
      <trkpt lat="43.68114" lon="6.69104">
        <ele>709.16</ele>
        <time>2019-12-08T12:37:15.000Z</time>
      </trkpt>
      <trkpt lat="43.68111" lon="6.69107">
        <ele>709.48</ele>
        <time>2019-12-08T12:37:16.000Z</time>
      </trkpt>
      <trkpt lat="43.68109" lon="6.6911">
        <ele>709.62</ele>
        <time>2019-12-08T12:37:17.000Z</time>
      </trkpt>
      <trkpt lat="43.68106" lon="6.69113">
        <ele>709.9</ele>
        <time>2019-12-08T12:37:18.000Z</time>
      </trkpt>
      <trkpt lat="43.68104" lon="6.69115">
        <ele>710.16</ele>
        <time>2019-12-08T12:37:19.000Z</time>
      </trkpt>
      <trkpt lat="43.68102" lon="6.69118">
        <ele>710.4</ele>
        <time>2019-12-08T12:37:20.000Z</time>
      </trkpt>
      <trkpt lat="43.681" lon="6.6912">
        <ele>710.53</ele>
        <time>2019-12-08T12:37:21.000Z</time>
      </trkpt>
      <trkpt lat="43.68098" lon="6.69123">
        <ele>710.77</ele>
        <time>2019-12-08T12:37:22.000Z</time>
      </trkpt>
      <trkpt lat="43.68096" lon="6.69126">
        <ele>711.09</ele>
        <time>2019-12-08T12:37:23.000Z</time>
      </trkpt>
      <trkpt lat="43.68094" lon="6.69128">
        <ele>711.37</ele>
        <time>2019-12-08T12:37:24.000Z</time>
      </trkpt>
      <trkpt lat="43.68092" lon="6.69131">
        <ele>711.55</ele>
        <time>2019-12-08T12:37:25.000Z</time>
      </trkpt>
      <trkpt lat="43.6809" lon="6.69134">
        <ele>711.74</ele>
        <time>2019-12-08T12:37:26.000Z</time>
      </trkpt>
      <trkpt lat="43.68088" lon="6.69137">
        <ele>711.92</ele>
        <time>2019-12-08T12:37:27.000Z</time>
      </trkpt>
      <trkpt lat="43.68086" lon="6.6914">
        <ele>712.09</ele>
        <time>2019-12-08T12:37:28.000Z</time>
      </trkpt>
      <trkpt lat="43.68084" lon="6.69143">
        <ele>712.17</ele>
        <time>2019-12-08T12:37:29.000Z</time>
      </trkpt>
      <trkpt lat="43.68082" lon="6.69146">
        <ele>712.34</ele>
        <time>2019-12-08T12:37:30.000Z</time>
      </trkpt>
      <trkpt lat="43.68079" lon="6.69148">
        <ele>712.65</ele>
        <time>2019-12-08T12:37:31.000Z</time>
      </trkpt>
      <trkpt lat="43.68077" lon="6.6915">
        <ele>712.88</ele>
        <time>2019-12-08T12:37:32.000Z</time>
      </trkpt>
      <trkpt lat="43.68075" lon="6.69153">
        <ele>713.21</ele>
        <time>2019-12-08T12:37:33.000Z</time>
      </trkpt>
      <trkpt lat="43.68072" lon="6.69155">
        <ele>713.35</ele>
        <time>2019-12-08T12:37:34.000Z</time>
      </trkpt>
      <trkpt lat="43.68069" lon="6.69156">
        <ele>713.63</ele>
        <time>2019-12-08T12:37:35.000Z</time>
      </trkpt>
      <trkpt lat="43.68066" lon="6.69159">
        <ele>713.86</ele>
        <time>2019-12-08T12:37:36.000Z</time>
      </trkpt>
      <trkpt lat="43.68062" lon="6.6916">
        <ele>714.08</ele>
        <time>2019-12-08T12:37:37.000Z</time>
      </trkpt>
      <trkpt lat="43.68059" lon="6.69161">
        <ele>714.19</ele>
        <time>2019-12-08T12:37:38.000Z</time>
      </trkpt>
      <trkpt lat="43.68056" lon="6.69162">
        <ele>714.45</ele>
        <time>2019-12-08T12:37:39.000Z</time>
      </trkpt>
      <trkpt lat="43.68053" lon="6.69163">
        <ele>714.73</ele>
        <time>2019-12-08T12:37:40.000Z</time>
      </trkpt>
      <trkpt lat="43.6805" lon="6.69163">
        <ele>715.08</ele>
        <time>2019-12-08T12:37:41.000Z</time>
      </trkpt>
      <trkpt lat="43.68046" lon="6.69164">
        <ele>715.25</ele>
        <time>2019-12-08T12:37:42.000Z</time>
      </trkpt>
      <trkpt lat="43.68043" lon="6.69165">
        <ele>715.53</ele>
        <time>2019-12-08T12:37:43.000Z</time>
      </trkpt>
      <trkpt lat="43.68039" lon="6.69166">
        <ele>715.83</ele>
        <time>2019-12-08T12:37:44.000Z</time>
      </trkpt>
      <trkpt lat="43.68036" lon="6.69167">
        <ele>716.03</ele>
        <time>2019-12-08T12:37:45.000Z</time>
      </trkpt>
      <trkpt lat="43.68033" lon="6.69168">
        <ele>716.17</ele>
        <time>2019-12-08T12:37:46.000Z</time>
      </trkpt>
      <trkpt lat="43.6803" lon="6.69168">
        <ele>716.42</ele>
        <time>2019-12-08T12:37:47.000Z</time>
      </trkpt>
      <trkpt lat="43.68027" lon="6.69169">
        <ele>716.69</ele>
        <time>2019-12-08T12:37:48.000Z</time>
      </trkpt>
      <trkpt lat="43.68024" lon="6.6917">
        <ele>717.03</ele>
        <time>2019-12-08T12:37:49.000Z</time>
      </trkpt>
      <trkpt lat="43.68021" lon="6.6917">
        <ele>717.19</ele>
        <time>2019-12-08T12:37:50.000Z</time>
      </trkpt>
      <trkpt lat="43.68018" lon="6.69171">
        <ele>717.42</ele>
        <time>2019-12-08T12:37:51.000Z</time>
      </trkpt>
      <trkpt lat="43.68015" lon="6.69171">
        <ele>717.63</ele>
        <time>2019-12-08T12:37:52.000Z</time>
      </trkpt>
      <trkpt lat="43.68012" lon="6.69171">
        <ele>717.78</ele>
        <time>2019-12-08T12:37:53.000Z</time>
      </trkpt>
      <trkpt lat="43.68009" lon="6.69171">
        <ele>717.93</ele>
        <time>2019-12-08T12:37:54.000Z</time>
      </trkpt>
      <trkpt lat="43.68006" lon="6.6917">
        <ele>718.01</ele>
        <time>2019-12-08T12:37:55.000Z</time>
      </trkpt>
      <trkpt lat="43.68003" lon="6.6917">
        <ele>718.28</ele>
        <time>2019-12-08T12:37:56.000Z</time>
      </trkpt>
      <trkpt lat="43.68" lon="6.6917">
        <ele>718.56</ele>
        <time>2019-12-08T12:37:57.000Z</time>
      </trkpt>
      <trkpt lat="43.67997" lon="6.69169">
        <ele>718.71</ele>
        <time>2019-12-08T12:37:58.000Z</time>
      </trkpt>
      <trkpt lat="43.67994" lon="6.6917">
        <ele>718.97</ele>
        <time>2019-12-08T12:37:59.000Z</time>
      </trkpt>
      <trkpt lat="43.67991" lon="6.69169">
        <ele>719.24</ele>
        <time>2019-12-08T12:38:00.000Z</time>
      </trkpt>
      <trkpt lat="43.67988" lon="6.69169">
        <ele>719.49</ele>
        <time>2019-12-08T12:38:01.000Z</time>
      </trkpt>
      <trkpt lat="43.67985" lon="6.69169">
        <ele>719.72</ele>
        <time>2019-12-08T12:38:02.000Z</time>
      </trkpt>
      <trkpt lat="43.67982" lon="6.69168">
        <ele>719.86</ele>
        <time>2019-12-08T12:38:03.000Z</time>
      </trkpt>
      <trkpt lat="43.67979" lon="6.69168">
        <ele>720.19</ele>
        <time>2019-12-08T12:38:04.000Z</time>
      </trkpt>
      <trkpt lat="43.67975" lon="6.69167">
        <ele>720.5</ele>
        <time>2019-12-08T12:38:05.000Z</time>
      </trkpt>
      <trkpt lat="43.67972" lon="6.69167">
        <ele>720.81</ele>
        <time>2019-12-08T12:38:06.000Z</time>
      </trkpt>
      <trkpt lat="43.67969" lon="6.69166">
        <ele>720.98</ele>
        <time>2019-12-08T12:38:07.000Z</time>
      </trkpt>
      <trkpt lat="43.67966" lon="6.69165">
        <ele>721.21</ele>
        <time>2019-12-08T12:38:08.000Z</time>
      </trkpt>
      <trkpt lat="43.67963" lon="6.69164">
        <ele>721.43</ele>
        <time>2019-12-08T12:38:09.000Z</time>
      </trkpt>
      <trkpt lat="43.67959" lon="6.69163">
        <ele>721.7</ele>
        <time>2019-12-08T12:38:10.000Z</time>
      </trkpt>
      <trkpt lat="43.67956" lon="6.69161">
        <ele>721.82</ele>
        <time>2019-12-08T12:38:11.000Z</time>
      </trkpt>
      <trkpt lat="43.67953" lon="6.6916">
        <ele>722.08</ele>
        <time>2019-12-08T12:38:12.000Z</time>
      </trkpt>
      <trkpt lat="43.6795" lon="6.69159">
        <ele>722.35</ele>
        <time>2019-12-08T12:38:13.000Z</time>
      </trkpt>
      <trkpt lat="43.67947" lon="6.69158">
        <ele>722.55</ele>
        <time>2019-12-08T12:38:14.000Z</time>
      </trkpt>
      <trkpt lat="43.67944" lon="6.69156">
        <ele>722.67</ele>
        <time>2019-12-08T12:38:15.000Z</time>
      </trkpt>
      <trkpt lat="43.67941" lon="6.69155">
        <ele>722.89</ele>
        <time>2019-12-08T12:38:16.000Z</time>
      </trkpt>
      <trkpt lat="43.67938" lon="6.69154">
        <ele>723.08</ele>
        <time>2019-12-08T12:38:17.000Z</time>
      </trkpt>
      <trkpt lat="43.67935" lon="6.69153">
        <ele>723.32</ele>
        <time>2019-12-08T12:38:18.000Z</time>
      </trkpt>
      <trkpt lat="43.67932" lon="6.69151">
        <ele>723.43</ele>
        <time>2019-12-08T12:38:19.000Z</time>
      </trkpt>
      <trkpt lat="43.67929" lon="6.69149">
        <ele>723.68</ele>
        <time>2019-12-08T12:38:20.000Z</time>
      </trkpt>
      <trkpt lat="43.67926" lon="6.69147">
        <ele>723.94</ele>
        <time>2019-12-08T12:38:21.000Z</time>
      </trkpt>
      <trkpt lat="43.67924" lon="6.69145">
        <ele>724.19</ele>
        <time>2019-12-08T12:38:22.000Z</time>
      </trkpt>
      <trkpt lat="43.67922" lon="6.69142">
        <ele>724.32</ele>
        <time>2019-12-08T12:38:23.000Z</time>
      </trkpt>
      <trkpt lat="43.67919" lon="6.6914">
        <ele>724.55</ele>
        <time>2019-12-08T12:38:24.000Z</time>
      </trkpt>
      <trkpt lat="43.67916" lon="6.69137">
        <ele>724.78</ele>
        <time>2019-12-08T12:38:25.000Z</time>
      </trkpt>
      <trkpt lat="43.67914" lon="6.69134">
        <ele>724.98</ele>
        <time>2019-12-08T12:38:26.000Z</time>
      </trkpt>
      <trkpt lat="43.67912" lon="6.6913">
        <ele>725.06</ele>
        <time>2019-12-08T12:38:27.000Z</time>
      </trkpt>
      <trkpt lat="43.6791" lon="6.69126">
        <ele>725.23</ele>
        <time>2019-12-08T12:38:28.000Z</time>
      </trkpt>
      <trkpt lat="43.67908" lon="6.69122">
        <ele>725.38</ele>
        <time>2019-12-08T12:38:29.000Z</time>
      </trkpt>
      <trkpt lat="43.67906" lon="6.69118">
        <ele>725.54</ele>
        <time>2019-12-08T12:38:30.000Z</time>
      </trkpt>
      <trkpt lat="43.67904" lon="6.69114">
        <ele>725.63</ele>
        <time>2019-12-08T12:38:31.000Z</time>
      </trkpt>
      <trkpt lat="43.67903" lon="6.69109">
        <ele>725.84</ele>
        <time>2019-12-08T12:38:32.000Z</time>
      </trkpt>
      <trkpt lat="43.67902" lon="6.69105">
        <ele>725.97</ele>
        <time>2019-12-08T12:38:33.000Z</time>
      </trkpt>
      <trkpt lat="43.67901" lon="6.691">
        <ele>726.13</ele>
        <time>2019-12-08T12:38:34.000Z</time>
      </trkpt>
      <trkpt lat="43.679" lon="6.69095">
        <ele>726.17</ele>
        <time>2019-12-08T12:38:35.000Z</time>
      </trkpt>
      <trkpt lat="43.67899" lon="6.69091">
        <ele>726.23</ele>
        <time>2019-12-08T12:38:36.000Z</time>
      </trkpt>
      <trkpt lat="43.67899" lon="6.69086">
        <ele>726.33</ele>
        <time>2019-12-08T12:38:37.000Z</time>
      </trkpt>
      <trkpt lat="43.67899" lon="6.69081">
        <ele>726.5</ele>
        <time>2019-12-08T12:38:38.000Z</time>
      </trkpt>
      <trkpt lat="43.67899" lon="6.69076">
        <ele>726.66</ele>
        <time>2019-12-08T12:38:39.000Z</time>
      </trkpt>
      <trkpt lat="43.67899" lon="6.69071">
        <ele>726.77</ele>
        <time>2019-12-08T12:38:40.000Z</time>
      </trkpt>
      <trkpt lat="43.679" lon="6.69066">
        <ele>726.97</ele>
        <time>2019-12-08T12:38:41.000Z</time>
      </trkpt>
      <trkpt lat="43.67901" lon="6.69062">
        <ele>727.13</ele>
        <time>2019-12-08T12:38:42.000Z</time>
      </trkpt>
      <trkpt lat="43.67902" lon="6.69057">
        <ele>727.34</ele>
        <time>2019-12-08T12:38:43.000Z</time>
      </trkpt>
      <trkpt lat="43.67903" lon="6.69052">
        <ele>727.43</ele>
        <time>2019-12-08T12:38:44.000Z</time>
      </trkpt>
      <trkpt lat="43.67905" lon="6.69047">
        <ele>727.68</ele>
        <time>2019-12-08T12:38:45.000Z</time>
      </trkpt>
      <trkpt lat="43.67906" lon="6.69043">
        <ele>727.91</ele>
        <time>2019-12-08T12:38:46.000Z</time>
      </trkpt>
      <trkpt lat="43.67908" lon="6.69038">
        <ele>728.21</ele>
        <time>2019-12-08T12:38:47.000Z</time>
      </trkpt>
      <trkpt lat="43.67909" lon="6.69034">
        <ele>728.36</ele>
        <time>2019-12-08T12:38:48.000Z</time>
      </trkpt>
      <trkpt lat="43.67911" lon="6.69029">
        <ele>728.58</ele>
        <time>2019-12-08T12:38:49.000Z</time>
      </trkpt>
      <trkpt lat="43.67912" lon="6.69025">
        <ele>728.82</ele>
        <time>2019-12-08T12:38:50.000Z</time>
      </trkpt>
      <trkpt lat="43.67913" lon="6.6902">
        <ele>729.11</ele>
        <time>2019-12-08T12:38:51.000Z</time>
      </trkpt>
      <trkpt lat="43.67914" lon="6.69015">
        <ele>729.2</ele>
        <time>2019-12-08T12:38:52.000Z</time>
      </trkpt>
      <trkpt lat="43.67914" lon="6.6901">
        <ele>729.41</ele>
        <time>2019-12-08T12:38:53.000Z</time>
      </trkpt>
      <trkpt lat="43.67914" lon="6.69005">
        <ele>729.64</ele>
        <time>2019-12-08T12:38:54.000Z</time>
      </trkpt>
      <trkpt lat="43.67914" lon="6.69">
        <ele>729.76</ele>
        <time>2019-12-08T12:38:55.000Z</time>
      </trkpt>
      <trkpt lat="43.67913" lon="6.68995">
        <ele>729.86</ele>
        <time>2019-12-08T12:38:56.000Z</time>
      </trkpt>
      <trkpt lat="43.67912" lon="6.68991">
        <ele>730.1</ele>
        <time>2019-12-08T12:38:57.000Z</time>
      </trkpt>
      <trkpt lat="43.67911" lon="6.68986">
        <ele>730.32</ele>
        <time>2019-12-08T12:38:58.000Z</time>
      </trkpt>
      <trkpt lat="43.6791" lon="6.68981">
        <ele>730.57</ele>
        <time>2019-12-08T12:38:59.000Z</time>
      </trkpt>
      <trkpt lat="43.67908" lon="6.68977">
        <ele>730.71</ele>
        <time>2019-12-08T12:39:00.000Z</time>
      </trkpt>
      <trkpt lat="43.67906" lon="6.68972">
        <ele>730.93</ele>
        <time>2019-12-08T12:39:01.000Z</time>
      </trkpt>
      <trkpt lat="43.67904" lon="6.68968">
        <ele>731.17</ele>
        <time>2019-12-08T12:39:02.000Z</time>
      </trkpt>
      <trkpt lat="43.67901" lon="6.68964">
        <ele>731.36</ele>
        <time>2019-12-08T12:39:03.000Z</time>
      </trkpt>
      <trkpt lat="43.67899" lon="6.6896">
        <ele>731.51</ele>
        <time>2019-12-08T12:39:04.000Z</time>
      </trkpt>
      <trkpt lat="43.67896" lon="6.68956">
        <ele>731.8</ele>
        <time>2019-12-08T12:39:05.000Z</time>
      </trkpt>
      <trkpt lat="43.67894" lon="6.68952">
        <ele>731.97</ele>
        <time>2019-12-08T12:39:06.000Z</time>
      </trkpt>
      <trkpt lat="43.67891" lon="6.68948">
        <ele>732.21</ele>
        <time>2019-12-08T12:39:07.000Z</time>
      </trkpt>
      <trkpt lat="43.67889" lon="6.68945">
        <ele>732.29</ele>
        <time>2019-12-08T12:39:08.000Z</time>
      </trkpt>
      <trkpt lat="43.67886" lon="6.68941">
        <ele>732.42</ele>
        <time>2019-12-08T12:39:09.000Z</time>
      </trkpt>
      <trkpt lat="43.67883" lon="6.68937">
        <ele>732.6</ele>
        <time>2019-12-08T12:39:10.000Z</time>
      </trkpt>
      <trkpt lat="43.67881" lon="6.68933">
        <ele>732.85</ele>
        <time>2019-12-08T12:39:11.000Z</time>
      </trkpt>
      <trkpt lat="43.67879" lon="6.68929">
        <ele>733.01</ele>
        <time>2019-12-08T12:39:12.000Z</time>
      </trkpt>
      <trkpt lat="43.67876" lon="6.68925">
        <ele>733.09</ele>
        <time>2019-12-08T12:39:13.000Z</time>
      </trkpt>
      <trkpt lat="43.67873" lon="6.68921">
        <ele>733.29</ele>
        <time>2019-12-08T12:39:14.000Z</time>
      </trkpt>
      <trkpt lat="43.67871" lon="6.68917">
        <ele>733.37</ele>
        <time>2019-12-08T12:39:15.000Z</time>
      </trkpt>
      <trkpt lat="43.67869" lon="6.68913">
        <ele>733.47</ele>
        <time>2019-12-08T12:39:16.000Z</time>
      </trkpt>
      <trkpt lat="43.67866" lon="6.68909">
        <ele>733.52</ele>
        <time>2019-12-08T12:39:17.000Z</time>
      </trkpt>
      <trkpt lat="43.67863" lon="6.68904">
        <ele>733.6</ele>
        <time>2019-12-08T12:39:18.000Z</time>
      </trkpt>
      <trkpt lat="43.67861" lon="6.689">
        <ele>733.72</ele>
        <time>2019-12-08T12:39:19.000Z</time>
      </trkpt>
      <trkpt lat="43.67858" lon="6.68895">
        <ele>733.78</ele>
        <time>2019-12-08T12:39:20.000Z</time>
      </trkpt>
      <trkpt lat="43.67855" lon="6.6889">
        <ele>733.82</ele>
        <time>2019-12-08T12:39:21.000Z</time>
      </trkpt>
      <trkpt lat="43.67852" lon="6.68885">
        <ele>733.82</ele>
        <time>2019-12-08T12:39:22.000Z</time>
      </trkpt>
      <trkpt lat="43.67848" lon="6.6888">
        <ele>733.93</ele>
        <time>2019-12-08T12:39:23.000Z</time>
      </trkpt>
      <trkpt lat="43.67845" lon="6.68874">
        <ele>733.98</ele>
        <time>2019-12-08T12:39:24.000Z</time>
      </trkpt>
      <trkpt lat="43.67842" lon="6.68869">
        <ele>734.04</ele>
        <time>2019-12-08T12:39:25.000Z</time>
      </trkpt>
      <trkpt lat="43.67839" lon="6.68864">
        <ele>734.06</ele>
        <time>2019-12-08T12:39:26.000Z</time>
      </trkpt>
      <trkpt lat="43.67836" lon="6.68857">
        <ele>734</ele>
        <time>2019-12-08T12:39:27.000Z</time>
      </trkpt>
      <trkpt lat="43.67833" lon="6.68851">
        <ele>733.91</ele>
        <time>2019-12-08T12:39:28.000Z</time>
      </trkpt>
      <trkpt lat="43.67831" lon="6.68844">
        <ele>733.86</ele>
        <time>2019-12-08T12:39:29.000Z</time>
      </trkpt>
      <trkpt lat="43.6783" lon="6.68837">
        <ele>733.78</ele>
        <time>2019-12-08T12:39:30.000Z</time>
      </trkpt>
      <trkpt lat="43.67829" lon="6.68829">
        <ele>733.81</ele>
        <time>2019-12-08T12:39:31.000Z</time>
      </trkpt>
      <trkpt lat="43.67829" lon="6.68821">
        <ele>733.84</ele>
        <time>2019-12-08T12:39:32.000Z</time>
      </trkpt>
      <trkpt lat="43.67829" lon="6.68813">
        <ele>733.87</ele>
        <time>2019-12-08T12:39:33.000Z</time>
      </trkpt>
      <trkpt lat="43.67829" lon="6.68805">
        <ele>733.88</ele>
        <time>2019-12-08T12:39:34.000Z</time>
      </trkpt>
      <trkpt lat="43.6783" lon="6.68797">
        <ele>733.89</ele>
        <time>2019-12-08T12:39:35.000Z</time>
      </trkpt>
      <trkpt lat="43.6783" lon="6.68789">
        <ele>733.87</ele>
        <time>2019-12-08T12:39:36.000Z</time>
      </trkpt>
      <trkpt lat="43.67831" lon="6.6878">
        <ele>733.9</ele>
        <time>2019-12-08T12:39:37.000Z</time>
      </trkpt>
      <trkpt lat="43.67832" lon="6.68772">
        <ele>733.9</ele>
        <time>2019-12-08T12:39:38.000Z</time>
      </trkpt>
      <trkpt lat="43.67832" lon="6.68763">
        <ele>733.93</ele>
        <time>2019-12-08T12:39:39.000Z</time>
      </trkpt>
      <trkpt lat="43.67832" lon="6.68754">
        <ele>733.94</ele>
        <time>2019-12-08T12:39:40.000Z</time>
      </trkpt>
      <trkpt lat="43.67833" lon="6.68746">
        <ele>733.93</ele>
        <time>2019-12-08T12:39:41.000Z</time>
      </trkpt>
      <trkpt lat="43.67833" lon="6.68737">
        <ele>733.93</ele>
        <time>2019-12-08T12:39:42.000Z</time>
      </trkpt>
      <trkpt lat="43.67834" lon="6.68728">
        <ele>733.95</ele>
        <time>2019-12-08T12:39:43.000Z</time>
      </trkpt>
      <trkpt lat="43.67836" lon="6.68719">
        <ele>733.95</ele>
        <time>2019-12-08T12:39:44.000Z</time>
      </trkpt>
      <trkpt lat="43.67836" lon="6.68711">
        <ele>733.92</ele>
        <time>2019-12-08T12:39:45.000Z</time>
      </trkpt>
      <trkpt lat="43.67837" lon="6.68702">
        <ele>733.88</ele>
        <time>2019-12-08T12:39:46.000Z</time>
      </trkpt>
      <trkpt lat="43.67839" lon="6.68693">
        <ele>733.85</ele>
        <time>2019-12-08T12:39:47.000Z</time>
      </trkpt>
      <trkpt lat="43.67841" lon="6.68684">
        <ele>733.85</ele>
        <time>2019-12-08T12:39:48.000Z</time>
      </trkpt>
      <trkpt lat="43.67844" lon="6.68676">
        <ele>733.86</ele>
        <time>2019-12-08T12:39:49.000Z</time>
      </trkpt>
      <trkpt lat="43.67847" lon="6.68668">
        <ele>733.88</ele>
        <time>2019-12-08T12:39:50.000Z</time>
      </trkpt>
      <trkpt lat="43.67851" lon="6.6866">
        <ele>733.91</ele>
        <time>2019-12-08T12:39:51.000Z</time>
      </trkpt>
      <trkpt lat="43.67854" lon="6.68652">
        <ele>733.9</ele>
        <time>2019-12-08T12:39:52.000Z</time>
      </trkpt>
      <trkpt lat="43.67858" lon="6.68644">
        <ele>733.94</ele>
        <time>2019-12-08T12:39:53.000Z</time>
      </trkpt>
      <trkpt lat="43.67862" lon="6.68637">
        <ele>734</ele>
        <time>2019-12-08T12:39:54.000Z</time>
      </trkpt>
      <trkpt lat="43.67866" lon="6.68629">
        <ele>734.06</ele>
        <time>2019-12-08T12:39:55.000Z</time>
      </trkpt>
      <trkpt lat="43.67869" lon="6.68621">
        <ele>734.15</ele>
        <time>2019-12-08T12:39:56.000Z</time>
      </trkpt>
      <trkpt lat="43.67872" lon="6.68612">
        <ele>734.23</ele>
        <time>2019-12-08T12:39:57.000Z</time>
      </trkpt>
      <trkpt lat="43.67875" lon="6.68603">
        <ele>734.28</ele>
        <time>2019-12-08T12:39:58.000Z</time>
      </trkpt>
      <trkpt lat="43.67876" lon="6.68594">
        <ele>734.28</ele>
        <time>2019-12-08T12:39:59.000Z</time>
      </trkpt>
      <trkpt lat="43.67877" lon="6.68585">
        <ele>734.33</ele>
        <time>2019-12-08T12:40:00.000Z</time>
      </trkpt>
      <trkpt lat="43.67877" lon="6.68576">
        <ele>734.3</ele>
        <time>2019-12-08T12:40:01.000Z</time>
      </trkpt>
      <trkpt lat="43.67876" lon="6.68567">
        <ele>734.28</ele>
        <time>2019-12-08T12:40:02.000Z</time>
      </trkpt>
      <trkpt lat="43.67875" lon="6.68557">
        <ele>734.24</ele>
        <time>2019-12-08T12:40:03.000Z</time>
      </trkpt>
      <trkpt lat="43.67874" lon="6.68548">
        <ele>734.24</ele>
        <time>2019-12-08T12:40:04.000Z</time>
      </trkpt>
      <trkpt lat="43.67873" lon="6.68539">
        <ele>734.23</ele>
        <time>2019-12-08T12:40:05.000Z</time>
      </trkpt>
      <trkpt lat="43.67872" lon="6.6853">
        <ele>734.22</ele>
        <time>2019-12-08T12:40:06.000Z</time>
      </trkpt>
      <trkpt lat="43.67871" lon="6.6852">
        <ele>734.21</ele>
        <time>2019-12-08T12:40:07.000Z</time>
      </trkpt>
      <trkpt lat="43.6787" lon="6.68511">
        <ele>734.13</ele>
        <time>2019-12-08T12:40:08.000Z</time>
      </trkpt>
      <trkpt lat="43.67869" lon="6.68502">
        <ele>734.01</ele>
        <time>2019-12-08T12:40:09.000Z</time>
      </trkpt>
      <trkpt lat="43.67868" lon="6.68492">
        <ele>733.95</ele>
        <time>2019-12-08T12:40:10.000Z</time>
      </trkpt>
      <trkpt lat="43.67866" lon="6.68483">
        <ele>733.92</ele>
        <time>2019-12-08T12:40:11.000Z</time>
      </trkpt>
      <trkpt lat="43.67865" lon="6.68474">
        <ele>733.9</ele>
        <time>2019-12-08T12:40:12.000Z</time>
      </trkpt>
      <trkpt lat="43.67864" lon="6.68464">
        <ele>733.92</ele>
        <time>2019-12-08T12:40:13.000Z</time>
      </trkpt>
      <trkpt lat="43.67863" lon="6.68455">
        <ele>733.96</ele>
        <time>2019-12-08T12:40:14.000Z</time>
      </trkpt>
      <trkpt lat="43.67862" lon="6.68446">
        <ele>733.98</ele>
        <time>2019-12-08T12:40:15.000Z</time>
      </trkpt>
      <trkpt lat="43.67861" lon="6.68436">
        <ele>734.02</ele>
        <time>2019-12-08T12:40:16.000Z</time>
      </trkpt>
      <trkpt lat="43.67859" lon="6.68426">
        <ele>734.09</ele>
        <time>2019-12-08T12:40:17.000Z</time>
      </trkpt>
      <trkpt lat="43.67858" lon="6.68417">
        <ele>734.11</ele>
        <time>2019-12-08T12:40:18.000Z</time>
      </trkpt>
      <trkpt lat="43.67857" lon="6.68407">
        <ele>734.12</ele>
        <time>2019-12-08T12:40:19.000Z</time>
      </trkpt>
      <trkpt lat="43.67856" lon="6.68397">
        <ele>734.18</ele>
        <time>2019-12-08T12:40:20.000Z</time>
      </trkpt>
      <trkpt lat="43.67855" lon="6.68388">
        <ele>734.21</ele>
        <time>2019-12-08T12:40:21.000Z</time>
      </trkpt>
      <trkpt lat="43.67853" lon="6.68378">
        <ele>734.16</ele>
        <time>2019-12-08T12:40:22.000Z</time>
      </trkpt>
      <trkpt lat="43.67852" lon="6.68368">
        <ele>734.14</ele>
        <time>2019-12-08T12:40:23.000Z</time>
      </trkpt>
      <trkpt lat="43.67851" lon="6.68359">
        <ele>734.14</ele>
        <time>2019-12-08T12:40:24.000Z</time>
      </trkpt>
      <trkpt lat="43.6785" lon="6.68349">
        <ele>734.17</ele>
        <time>2019-12-08T12:40:25.000Z</time>
      </trkpt>
      <trkpt lat="43.67849" lon="6.68339">
        <ele>734.13</ele>
        <time>2019-12-08T12:40:26.000Z</time>
      </trkpt>
      <trkpt lat="43.67848" lon="6.68329">
        <ele>734.13</ele>
        <time>2019-12-08T12:40:27.000Z</time>
      </trkpt>
      <trkpt lat="43.67847" lon="6.6832">
        <ele>734.13</ele>
        <time>2019-12-08T12:40:28.000Z</time>
      </trkpt>
      <trkpt lat="43.67845" lon="6.6831">
        <ele>734.08</ele>
        <time>2019-12-08T12:40:29.000Z</time>
      </trkpt>
      <trkpt lat="43.67844" lon="6.683">
        <ele>734.07</ele>
        <time>2019-12-08T12:40:30.000Z</time>
      </trkpt>
      <trkpt lat="43.67843" lon="6.68291">
        <ele>734.08</ele>
        <time>2019-12-08T12:40:31.000Z</time>
      </trkpt>
      <trkpt lat="43.67842" lon="6.68281">
        <ele>734.11</ele>
        <time>2019-12-08T12:40:32.000Z</time>
      </trkpt>
      <trkpt lat="43.67841" lon="6.68271">
        <ele>734.13</ele>
        <time>2019-12-08T12:40:33.000Z</time>
      </trkpt>
      <trkpt lat="43.67839" lon="6.68262">
        <ele>734.14</ele>
        <time>2019-12-08T12:40:34.000Z</time>
      </trkpt>
      <trkpt lat="43.67837" lon="6.68252">
        <ele>734.11</ele>
        <time>2019-12-08T12:40:35.000Z</time>
      </trkpt>
      <trkpt lat="43.67834" lon="6.68243">
        <ele>734.09</ele>
        <time>2019-12-08T12:40:36.000Z</time>
      </trkpt>
      <trkpt lat="43.67831" lon="6.68234">
        <ele>733.99</ele>
        <time>2019-12-08T12:40:37.000Z</time>
      </trkpt>
      <trkpt lat="43.67827" lon="6.68226">
        <ele>733.82</ele>
        <time>2019-12-08T12:40:38.000Z</time>
      </trkpt>
      <trkpt lat="43.67823" lon="6.68218">
        <ele>733.8</ele>
        <time>2019-12-08T12:40:39.000Z</time>
      </trkpt>
      <trkpt lat="43.67818" lon="6.68211">
        <ele>733.75</ele>
        <time>2019-12-08T12:40:40.000Z</time>
      </trkpt>
      <trkpt lat="43.67812" lon="6.68204">
        <ele>733.71</ele>
        <time>2019-12-08T12:40:41.000Z</time>
      </trkpt>
      <trkpt lat="43.67807" lon="6.68197">
        <ele>733.7</ele>
        <time>2019-12-08T12:40:42.000Z</time>
      </trkpt>
      <trkpt lat="43.67802" lon="6.6819">
        <ele>733.69</ele>
        <time>2019-12-08T12:40:43.000Z</time>
      </trkpt>
      <trkpt lat="43.67797" lon="6.68183">
        <ele>733.61</ele>
        <time>2019-12-08T12:40:44.000Z</time>
      </trkpt>
      <trkpt lat="43.67791" lon="6.68176">
        <ele>733.57</ele>
        <time>2019-12-08T12:40:45.000Z</time>
      </trkpt>
      <trkpt lat="43.67786" lon="6.68169">
        <ele>733.56</ele>
        <time>2019-12-08T12:40:46.000Z</time>
      </trkpt>
      <trkpt lat="43.67781" lon="6.68163">
        <ele>733.66</ele>
        <time>2019-12-08T12:40:47.000Z</time>
      </trkpt>
      <trkpt lat="43.67776" lon="6.68156">
        <ele>733.71</ele>
        <time>2019-12-08T12:40:48.000Z</time>
      </trkpt>
      <trkpt lat="43.6777" lon="6.6815">
        <ele>733.78</ele>
        <time>2019-12-08T12:40:49.000Z</time>
      </trkpt>
      <trkpt lat="43.67765" lon="6.68144">
        <ele>733.92</ele>
        <time>2019-12-08T12:40:50.000Z</time>
      </trkpt>
      <trkpt lat="43.6776" lon="6.68137">
        <ele>733.94</ele>
        <time>2019-12-08T12:40:51.000Z</time>
      </trkpt>
      <trkpt lat="43.67755" lon="6.68131">
        <ele>734.05</ele>
        <time>2019-12-08T12:40:52.000Z</time>
      </trkpt>
      <trkpt lat="43.6775" lon="6.68124">
        <ele>734.24</ele>
        <time>2019-12-08T12:40:53.000Z</time>
      </trkpt>
      <trkpt lat="43.67745" lon="6.68118">
        <ele>734.37</ele>
        <time>2019-12-08T12:40:54.000Z</time>
      </trkpt>
      <trkpt lat="43.6774" lon="6.68112">
        <ele>734.52</ele>
        <time>2019-12-08T12:40:55.000Z</time>
      </trkpt>
      <trkpt lat="43.67735" lon="6.68105">
        <ele>734.61</ele>
        <time>2019-12-08T12:40:56.000Z</time>
      </trkpt>
      <trkpt lat="43.6773" lon="6.68099">
        <ele>734.78</ele>
        <time>2019-12-08T12:40:57.000Z</time>
      </trkpt>
      <trkpt lat="43.67725" lon="6.68093">
        <ele>734.84</ele>
        <time>2019-12-08T12:40:58.000Z</time>
      </trkpt>
      <trkpt lat="43.67719" lon="6.68086">
        <ele>734.97</ele>
        <time>2019-12-08T12:40:59.000Z</time>
      </trkpt>
      <trkpt lat="43.67714" lon="6.6808">
        <ele>734.89</ele>
        <time>2019-12-08T12:41:00.000Z</time>
      </trkpt>
      <trkpt lat="43.67709" lon="6.68074">
        <ele>734.79</ele>
        <time>2019-12-08T12:41:01.000Z</time>
      </trkpt>
      <trkpt lat="43.67704" lon="6.68067">
        <ele>734.69</ele>
        <time>2019-12-08T12:41:02.000Z</time>
      </trkpt>
      <trkpt lat="43.67699" lon="6.6806">
        <ele>734.52</ele>
        <time>2019-12-08T12:41:03.000Z</time>
      </trkpt>
      <trkpt lat="43.67693" lon="6.68054">
        <ele>734.49</ele>
        <time>2019-12-08T12:41:04.000Z</time>
      </trkpt>
      <trkpt lat="43.67688" lon="6.68048">
        <ele>734.51</ele>
        <time>2019-12-08T12:41:05.000Z</time>
      </trkpt>
      <trkpt lat="43.67683" lon="6.68042">
        <ele>734.48</ele>
        <time>2019-12-08T12:41:06.000Z</time>
      </trkpt>
      <trkpt lat="43.67677" lon="6.68037">
        <ele>734.49</ele>
        <time>2019-12-08T12:41:07.000Z</time>
      </trkpt>
      <trkpt lat="43.67671" lon="6.68032">
        <ele>734.51</ele>
        <time>2019-12-08T12:41:08.000Z</time>
      </trkpt>
      <trkpt lat="43.67665" lon="6.68027">
        <ele>734.53</ele>
        <time>2019-12-08T12:41:09.000Z</time>
      </trkpt>
      <trkpt lat="43.67659" lon="6.68022">
        <ele>734.53</ele>
        <time>2019-12-08T12:41:10.000Z</time>
      </trkpt>
      <trkpt lat="43.67652" lon="6.68018">
        <ele>734.47</ele>
        <time>2019-12-08T12:41:11.000Z</time>
      </trkpt>
      <trkpt lat="43.67646" lon="6.68014">
        <ele>734.44</ele>
        <time>2019-12-08T12:41:12.000Z</time>
      </trkpt>
      <trkpt lat="43.6764" lon="6.6801">
        <ele>734.32</ele>
        <time>2019-12-08T12:41:13.000Z</time>
      </trkpt>
      <trkpt lat="43.67634" lon="6.68006">
        <ele>734.2</ele>
        <time>2019-12-08T12:41:14.000Z</time>
      </trkpt>
      <trkpt lat="43.67627" lon="6.68001">
        <ele>734.25</ele>
        <time>2019-12-08T12:41:15.000Z</time>
      </trkpt>
      <trkpt lat="43.67621" lon="6.67997">
        <ele>734.3</ele>
        <time>2019-12-08T12:41:16.000Z</time>
      </trkpt>
      <trkpt lat="43.67615" lon="6.67993">
        <ele>734.37</ele>
        <time>2019-12-08T12:41:17.000Z</time>
      </trkpt>
      <trkpt lat="43.67608" lon="6.6799">
        <ele>734.39</ele>
        <time>2019-12-08T12:41:18.000Z</time>
      </trkpt>
      <trkpt lat="43.67602" lon="6.67987">
        <ele>734.43</ele>
        <time>2019-12-08T12:41:19.000Z</time>
      </trkpt>
      <trkpt lat="43.67596" lon="6.67985">
        <ele>734.43</ele>
        <time>2019-12-08T12:41:20.000Z</time>
      </trkpt>
      <trkpt lat="43.67589" lon="6.67983">
        <ele>734.51</ele>
        <time>2019-12-08T12:41:21.000Z</time>
      </trkpt>
      <trkpt lat="43.67583" lon="6.67983">
        <ele>734.72</ele>
        <time>2019-12-08T12:41:22.000Z</time>
      </trkpt>
      <trkpt lat="43.67577" lon="6.67982">
        <ele>734.88</ele>
        <time>2019-12-08T12:41:23.000Z</time>
      </trkpt>
      <trkpt lat="43.67572" lon="6.67982">
        <ele>734.98</ele>
        <time>2019-12-08T12:41:24.000Z</time>
      </trkpt>
      <trkpt lat="43.67566" lon="6.67982">
        <ele>735.24</ele>
        <time>2019-12-08T12:41:25.000Z</time>
      </trkpt>
      <trkpt lat="43.67561" lon="6.67982">
        <ele>735.46</ele>
        <time>2019-12-08T12:41:26.000Z</time>
      </trkpt>
      <trkpt lat="43.67557" lon="6.67982">
        <ele>735.79</ele>
        <time>2019-12-08T12:41:27.000Z</time>
      </trkpt>
      <trkpt lat="43.67553" lon="6.67982">
        <ele>736.1</ele>
        <time>2019-12-08T12:41:28.000Z</time>
      </trkpt>
      <trkpt lat="43.67549" lon="6.67982">
        <ele>736.22</ele>
        <time>2019-12-08T12:41:29.000Z</time>
      </trkpt>
      <trkpt lat="43.67546" lon="6.67981">
        <ele>736.5</ele>
        <time>2019-12-08T12:41:30.000Z</time>
      </trkpt>
      <trkpt lat="43.67542" lon="6.67982">
        <ele>736.83</ele>
        <time>2019-12-08T12:41:31.000Z</time>
      </trkpt>
      <trkpt lat="43.67539" lon="6.67982">
        <ele>737.16</ele>
        <time>2019-12-08T12:41:32.000Z</time>
      </trkpt>
      <trkpt lat="43.67536" lon="6.67981">
        <ele>737.34</ele>
        <time>2019-12-08T12:41:33.000Z</time>
      </trkpt>
      <trkpt lat="43.67533" lon="6.67981">
        <ele>737.65</ele>
        <time>2019-12-08T12:41:34.000Z</time>
      </trkpt>
      <trkpt lat="43.67529" lon="6.6798">
        <ele>737.94</ele>
        <time>2019-12-08T12:41:35.000Z</time>
      </trkpt>
      <trkpt lat="43.67526" lon="6.6798">
        <ele>738.17</ele>
        <time>2019-12-08T12:41:36.000Z</time>
      </trkpt>
      <trkpt lat="43.67523" lon="6.67979">
        <ele>738.3</ele>
        <time>2019-12-08T12:41:37.000Z</time>
      </trkpt>
      <trkpt lat="43.6752" lon="6.67978">
        <ele>738.53</ele>
        <time>2019-12-08T12:41:38.000Z</time>
      </trkpt>
      <trkpt lat="43.67517" lon="6.67977">
        <ele>738.81</ele>
        <time>2019-12-08T12:41:39.000Z</time>
      </trkpt>
      <trkpt lat="43.67514" lon="6.67976">
        <ele>739.08</ele>
        <time>2019-12-08T12:41:40.000Z</time>
      </trkpt>
      <trkpt lat="43.67511" lon="6.67975">
        <ele>739.22</ele>
        <time>2019-12-08T12:41:41.000Z</time>
      </trkpt>
      <trkpt lat="43.67508" lon="6.67973">
        <ele>739.54</ele>
        <time>2019-12-08T12:41:42.000Z</time>
      </trkpt>
      <trkpt lat="43.67505" lon="6.67971">
        <ele>739.83</ele>
        <time>2019-12-08T12:41:43.000Z</time>
      </trkpt>
      <trkpt lat="43.67502" lon="6.67968">
        <ele>740.08</ele>
        <time>2019-12-08T12:41:44.000Z</time>
      </trkpt>
      <trkpt lat="43.675" lon="6.67966">
        <ele>740.23</ele>
        <time>2019-12-08T12:41:45.000Z</time>
      </trkpt>
      <trkpt lat="43.67497" lon="6.67963">
        <ele>740.43</ele>
        <time>2019-12-08T12:41:46.000Z</time>
      </trkpt>
      <trkpt lat="43.67495" lon="6.67961">
        <ele>740.63</ele>
        <time>2019-12-08T12:41:47.000Z</time>
      </trkpt>
      <trkpt lat="43.67492" lon="6.67958">
        <ele>740.88</ele>
        <time>2019-12-08T12:41:48.000Z</time>
      </trkpt>
      <trkpt lat="43.6749" lon="6.67955">
        <ele>741</ele>
        <time>2019-12-08T12:41:49.000Z</time>
      </trkpt>
      <trkpt lat="43.67487" lon="6.67953">
        <ele>741.24</ele>
        <time>2019-12-08T12:41:50.000Z</time>
      </trkpt>
      <trkpt lat="43.67485" lon="6.6795">
        <ele>741.54</ele>
        <time>2019-12-08T12:41:51.000Z</time>
      </trkpt>
      <trkpt lat="43.67482" lon="6.67947">
        <ele>741.79</ele>
        <time>2019-12-08T12:41:52.000Z</time>
      </trkpt>
      <trkpt lat="43.6748" lon="6.67944">
        <ele>741.95</ele>
        <time>2019-12-08T12:41:53.000Z</time>
      </trkpt>
      <trkpt lat="43.67477" lon="6.67941">
        <ele>742.21</ele>
        <time>2019-12-08T12:41:54.000Z</time>
      </trkpt>
      <trkpt lat="43.67475" lon="6.67938">
        <ele>742.47</ele>
        <time>2019-12-08T12:41:55.000Z</time>
      </trkpt>
      <trkpt lat="43.67472" lon="6.67935">
        <ele>742.72</ele>
        <time>2019-12-08T12:41:56.000Z</time>
      </trkpt>
      <trkpt lat="43.6747" lon="6.67932">
        <ele>742.85</ele>
        <time>2019-12-08T12:41:57.000Z</time>
      </trkpt>
      <trkpt lat="43.67468" lon="6.67929">
        <ele>743.14</ele>
        <time>2019-12-08T12:41:58.000Z</time>
      </trkpt>
      <trkpt lat="43.67465" lon="6.67927">
        <ele>743.4</ele>
        <time>2019-12-08T12:41:59.000Z</time>
      </trkpt>
      <trkpt lat="43.67463" lon="6.67924">
        <ele>743.69</ele>
        <time>2019-12-08T12:42:00.000Z</time>
      </trkpt>
      <trkpt lat="43.6746" lon="6.67921">
        <ele>743.85</ele>
        <time>2019-12-08T12:42:01.000Z</time>
      </trkpt>
      <trkpt lat="43.67458" lon="6.67918">
        <ele>744.14</ele>
        <time>2019-12-08T12:42:02.000Z</time>
      </trkpt>
      <trkpt lat="43.67456" lon="6.67915">
        <ele>744.5</ele>
        <time>2019-12-08T12:42:03.000Z</time>
      </trkpt>
      <trkpt lat="43.67453" lon="6.67912">
        <ele>744.76</ele>
        <time>2019-12-08T12:42:04.000Z</time>
      </trkpt>
      <trkpt lat="43.67451" lon="6.67909">
        <ele>745</ele>
        <time>2019-12-08T12:42:05.000Z</time>
      </trkpt>
      <trkpt lat="43.67448" lon="6.67906">
        <ele>745.11</ele>
        <time>2019-12-08T12:42:06.000Z</time>
      </trkpt>
      <trkpt lat="43.67446" lon="6.67904">
        <ele>745.28</ele>
        <time>2019-12-08T12:42:07.000Z</time>
      </trkpt>
      <trkpt lat="43.67444" lon="6.67901">
        <ele>745.49</ele>
        <time>2019-12-08T12:42:08.000Z</time>
      </trkpt>
      <trkpt lat="43.67441" lon="6.67898">
        <ele>745.75</ele>
        <time>2019-12-08T12:42:09.000Z</time>
      </trkpt>
      <trkpt lat="43.67439" lon="6.67895">
        <ele>745.86</ele>
        <time>2019-12-08T12:42:10.000Z</time>
      </trkpt>
      <trkpt lat="43.67436" lon="6.67892">
        <ele>746.19</ele>
        <time>2019-12-08T12:42:11.000Z</time>
      </trkpt>
      <trkpt lat="43.67434" lon="6.67889">
        <ele>746.48</ele>
        <time>2019-12-08T12:42:12.000Z</time>
      </trkpt>
      <trkpt lat="43.67432" lon="6.67887">
        <ele>746.76</ele>
        <time>2019-12-08T12:42:13.000Z</time>
      </trkpt>
      <trkpt lat="43.67429" lon="6.67884">
        <ele>746.93</ele>
        <time>2019-12-08T12:42:14.000Z</time>
      </trkpt>
      <trkpt lat="43.67427" lon="6.67881">
        <ele>747.1</ele>
        <time>2019-12-08T12:42:15.000Z</time>
      </trkpt>
      <trkpt lat="43.67425" lon="6.67878">
        <ele>747.38</ele>
        <time>2019-12-08T12:42:16.000Z</time>
      </trkpt>
      <trkpt lat="43.67422" lon="6.67876">
        <ele>747.7</ele>
        <time>2019-12-08T12:42:17.000Z</time>
      </trkpt>
      <trkpt lat="43.6742" lon="6.67873">
        <ele>747.87</ele>
        <time>2019-12-08T12:42:18.000Z</time>
      </trkpt>
      <trkpt lat="43.67417" lon="6.6787">
        <ele>748.12</ele>
        <time>2019-12-08T12:42:19.000Z</time>
      </trkpt>
      <trkpt lat="43.67415" lon="6.67868">
        <ele>748.4</ele>
        <time>2019-12-08T12:42:20.000Z</time>
      </trkpt>
      <trkpt lat="43.67413" lon="6.67865">
        <ele>748.67</ele>
        <time>2019-12-08T12:42:21.000Z</time>
      </trkpt>
      <trkpt lat="43.6741" lon="6.67862">
        <ele>748.79</ele>
        <time>2019-12-08T12:42:22.000Z</time>
      </trkpt>
      <trkpt lat="43.67408" lon="6.67859">
        <ele>749.01</ele>
        <time>2019-12-08T12:42:23.000Z</time>
      </trkpt>
      <trkpt lat="43.67406" lon="6.67857">
        <ele>749.23</ele>
        <time>2019-12-08T12:42:24.000Z</time>
      </trkpt>
      <trkpt lat="43.67403" lon="6.67854">
        <ele>749.38</ele>
        <time>2019-12-08T12:42:25.000Z</time>
      </trkpt>
      <trkpt lat="43.67401" lon="6.67851">
        <ele>749.47</ele>
        <time>2019-12-08T12:42:26.000Z</time>
      </trkpt>
      <trkpt lat="43.67399" lon="6.67849">
        <ele>749.63</ele>
        <time>2019-12-08T12:42:27.000Z</time>
      </trkpt>
      <trkpt lat="43.67396" lon="6.67846">
        <ele>749.9</ele>
        <time>2019-12-08T12:42:28.000Z</time>
      </trkpt>
      <trkpt lat="43.67394" lon="6.67843">
        <ele>750.2</ele>
        <time>2019-12-08T12:42:29.000Z</time>
      </trkpt>
      <trkpt lat="43.67392" lon="6.67841">
        <ele>750.35</ele>
        <time>2019-12-08T12:42:30.000Z</time>
      </trkpt>
      <trkpt lat="43.67389" lon="6.67838">
        <ele>750.67</ele>
        <time>2019-12-08T12:42:31.000Z</time>
      </trkpt>
      <trkpt lat="43.67387" lon="6.67835">
        <ele>750.95</ele>
        <time>2019-12-08T12:42:32.000Z</time>
      </trkpt>
      <trkpt lat="43.67385" lon="6.67833">
        <ele>751.2</ele>
        <time>2019-12-08T12:42:33.000Z</time>
      </trkpt>
      <trkpt lat="43.67382" lon="6.6783">
        <ele>751.44</ele>
        <time>2019-12-08T12:42:34.000Z</time>
      </trkpt>
      <trkpt lat="43.6738" lon="6.67827">
        <ele>751.53</ele>
        <time>2019-12-08T12:42:35.000Z</time>
      </trkpt>
      <trkpt lat="43.67378" lon="6.67825">
        <ele>751.79</ele>
        <time>2019-12-08T12:42:36.000Z</time>
      </trkpt>
      <trkpt lat="43.67375" lon="6.67822">
        <ele>752.03</ele>
        <time>2019-12-08T12:42:37.000Z</time>
      </trkpt>
      <trkpt lat="43.67373" lon="6.67819">
        <ele>752.16</ele>
        <time>2019-12-08T12:42:38.000Z</time>
      </trkpt>
      <trkpt lat="43.67371" lon="6.67816">
        <ele>752.4</ele>
        <time>2019-12-08T12:42:39.000Z</time>
      </trkpt>
      <trkpt lat="43.67368" lon="6.67813">
        <ele>752.6</ele>
        <time>2019-12-08T12:42:40.000Z</time>
      </trkpt>
      <trkpt lat="43.67366" lon="6.67811">
        <ele>752.84</ele>
        <time>2019-12-08T12:42:41.000Z</time>
      </trkpt>
      <trkpt lat="43.67364" lon="6.67808">
        <ele>753.04</ele>
        <time>2019-12-08T12:42:42.000Z</time>
      </trkpt>
      <trkpt lat="43.67361" lon="6.67805">
        <ele>753.15</ele>
        <time>2019-12-08T12:42:43.000Z</time>
      </trkpt>
      <trkpt lat="43.67359" lon="6.67802">
        <ele>753.41</ele>
        <time>2019-12-08T12:42:44.000Z</time>
      </trkpt>
      <trkpt lat="43.67357" lon="6.67799">
        <ele>753.69</ele>
        <time>2019-12-08T12:42:45.000Z</time>
      </trkpt>
      <trkpt lat="43.67354" lon="6.67797">
        <ele>753.88</ele>
        <time>2019-12-08T12:42:46.000Z</time>
      </trkpt>
      <trkpt lat="43.67352" lon="6.67794">
        <ele>753.97</ele>
        <time>2019-12-08T12:42:47.000Z</time>
      </trkpt>
      <trkpt lat="43.67349" lon="6.67791">
        <ele>754.18</ele>
        <time>2019-12-08T12:42:48.000Z</time>
      </trkpt>
      <trkpt lat="43.67347" lon="6.67788">
        <ele>754.36</ele>
        <time>2019-12-08T12:42:49.000Z</time>
      </trkpt>
      <trkpt lat="43.67345" lon="6.67785">
        <ele>754.55</ele>
        <time>2019-12-08T12:42:50.000Z</time>
      </trkpt>
      <trkpt lat="43.67342" lon="6.67783">
        <ele>754.7</ele>
        <time>2019-12-08T12:42:51.000Z</time>
      </trkpt>
      <trkpt lat="43.6734" lon="6.6778">
        <ele>754.91</ele>
        <time>2019-12-08T12:42:52.000Z</time>
      </trkpt>
      <trkpt lat="43.67337" lon="6.67777">
        <ele>755.18</ele>
        <time>2019-12-08T12:42:53.000Z</time>
      </trkpt>
      <trkpt lat="43.67335" lon="6.67774">
        <ele>755.5</ele>
        <time>2019-12-08T12:42:54.000Z</time>
      </trkpt>
      <trkpt lat="43.67333" lon="6.67771">
        <ele>755.63</ele>
        <time>2019-12-08T12:42:55.000Z</time>
      </trkpt>
      <trkpt lat="43.6733" lon="6.67768">
        <ele>755.76</ele>
        <time>2019-12-08T12:42:56.000Z</time>
      </trkpt>
      <trkpt lat="43.67328" lon="6.67766">
        <ele>756.11</ele>
        <time>2019-12-08T12:42:57.000Z</time>
      </trkpt>
      <trkpt lat="43.67325" lon="6.67763">
        <ele>756.42</ele>
        <time>2019-12-08T12:42:58.000Z</time>
      </trkpt>
      <trkpt lat="43.67323" lon="6.6776">
        <ele>756.55</ele>
        <time>2019-12-08T12:42:59.000Z</time>
      </trkpt>
      <trkpt lat="43.67321" lon="6.67757">
        <ele>756.85</ele>
        <time>2019-12-08T12:43:00.000Z</time>
      </trkpt>
      <trkpt lat="43.67318" lon="6.67755">
        <ele>757.13</ele>
        <time>2019-12-08T12:43:01.000Z</time>
      </trkpt>
      <trkpt lat="43.67316" lon="6.67752">
        <ele>757.41</ele>
        <time>2019-12-08T12:43:02.000Z</time>
      </trkpt>
      <trkpt lat="43.67314" lon="6.67749">
        <ele>757.73</ele>
        <time>2019-12-08T12:43:03.000Z</time>
      </trkpt>
      <trkpt lat="43.67311" lon="6.67746">
        <ele>757.84</ele>
        <time>2019-12-08T12:43:04.000Z</time>
      </trkpt>
      <trkpt lat="43.67309" lon="6.67743">
        <ele>758.05</ele>
        <time>2019-12-08T12:43:05.000Z</time>
      </trkpt>
      <trkpt lat="43.67306" lon="6.67741">
        <ele>758.32</ele>
        <time>2019-12-08T12:43:06.000Z</time>
      </trkpt>
      <trkpt lat="43.67304" lon="6.67738">
        <ele>758.43</ele>
        <time>2019-12-08T12:43:07.000Z</time>
      </trkpt>
      <trkpt lat="43.67302" lon="6.67735">
        <ele>758.64</ele>
        <time>2019-12-08T12:43:08.000Z</time>
      </trkpt>
      <trkpt lat="43.67299" lon="6.67732">
        <ele>758.95</ele>
        <time>2019-12-08T12:43:09.000Z</time>
      </trkpt>
      <trkpt lat="43.67297" lon="6.67729">
        <ele>759.21</ele>
        <time>2019-12-08T12:43:10.000Z</time>
      </trkpt>
      <trkpt lat="43.67295" lon="6.67727">
        <ele>759.43</ele>
        <time>2019-12-08T12:43:11.000Z</time>
      </trkpt>
      <trkpt lat="43.67292" lon="6.67724">
        <ele>759.54</ele>
        <time>2019-12-08T12:43:12.000Z</time>
      </trkpt>
      <trkpt lat="43.6729" lon="6.67721">
        <ele>759.78</ele>
        <time>2019-12-08T12:43:13.000Z</time>
      </trkpt>
      <trkpt lat="43.67287" lon="6.67718">
        <ele>760</ele>
        <time>2019-12-08T12:43:14.000Z</time>
      </trkpt>
      <trkpt lat="43.67285" lon="6.67716">
        <ele>760.26</ele>
        <time>2019-12-08T12:43:15.000Z</time>
      </trkpt>
      <trkpt lat="43.67282" lon="6.67713">
        <ele>760.38</ele>
        <time>2019-12-08T12:43:16.000Z</time>
      </trkpt>
      <trkpt lat="43.6728" lon="6.67711">
        <ele>760.63</ele>
        <time>2019-12-08T12:43:17.000Z</time>
      </trkpt>
      <trkpt lat="43.67277" lon="6.67709">
        <ele>760.95</ele>
        <time>2019-12-08T12:43:18.000Z</time>
      </trkpt>
      <trkpt lat="43.67274" lon="6.67707">
        <ele>761.23</ele>
        <time>2019-12-08T12:43:19.000Z</time>
      </trkpt>
      <trkpt lat="43.67271" lon="6.67706">
        <ele>761.37</ele>
        <time>2019-12-08T12:43:20.000Z</time>
      </trkpt>
      <trkpt lat="43.67268" lon="6.67705">
        <ele>761.65</ele>
        <time>2019-12-08T12:43:21.000Z</time>
      </trkpt>
      <trkpt lat="43.67265" lon="6.67704">
        <ele>761.86</ele>
        <time>2019-12-08T12:43:22.000Z</time>
      </trkpt>
      <trkpt lat="43.67262" lon="6.67703">
        <ele>762.09</ele>
        <time>2019-12-08T12:43:23.000Z</time>
      </trkpt>
      <trkpt lat="43.67259" lon="6.67703">
        <ele>762.19</ele>
        <time>2019-12-08T12:43:24.000Z</time>
      </trkpt>
      <trkpt lat="43.67256" lon="6.67703">
        <ele>762.49</ele>
        <time>2019-12-08T12:43:25.000Z</time>
      </trkpt>
      <trkpt lat="43.67253" lon="6.67703">
        <ele>762.71</ele>
        <time>2019-12-08T12:43:26.000Z</time>
      </trkpt>
      <trkpt lat="43.6725" lon="6.67704">
        <ele>762.97</ele>
        <time>2019-12-08T12:43:27.000Z</time>
      </trkpt>
      <trkpt lat="43.67246" lon="6.67705">
        <ele>763.09</ele>
        <time>2019-12-08T12:43:28.000Z</time>
      </trkpt>
      <trkpt lat="43.67243" lon="6.67705">
        <ele>763.38</ele>
        <time>2019-12-08T12:43:29.000Z</time>
      </trkpt>
      <trkpt lat="43.67241" lon="6.67707">
        <ele>763.62</ele>
        <time>2019-12-08T12:43:30.000Z</time>
      </trkpt>
      <trkpt lat="43.67238" lon="6.67708">
        <ele>763.88</ele>
        <time>2019-12-08T12:43:31.000Z</time>
      </trkpt>
      <trkpt lat="43.67235" lon="6.6771">
        <ele>764.04</ele>
        <time>2019-12-08T12:43:32.000Z</time>
      </trkpt>
      <trkpt lat="43.67232" lon="6.67712">
        <ele>764.26</ele>
        <time>2019-12-08T12:43:33.000Z</time>
      </trkpt>
      <trkpt lat="43.67229" lon="6.67713">
        <ele>764.51</ele>
        <time>2019-12-08T12:43:34.000Z</time>
      </trkpt>
      <trkpt lat="43.67226" lon="6.67715">
        <ele>764.79</ele>
        <time>2019-12-08T12:43:35.000Z</time>
      </trkpt>
      <trkpt lat="43.67224" lon="6.67717">
        <ele>764.93</ele>
        <time>2019-12-08T12:43:36.000Z</time>
      </trkpt>
      <trkpt lat="43.67221" lon="6.67719">
        <ele>765.17</ele>
        <time>2019-12-08T12:43:37.000Z</time>
      </trkpt>
      <trkpt lat="43.67218" lon="6.67721">
        <ele>765.5</ele>
        <time>2019-12-08T12:43:38.000Z</time>
      </trkpt>
      <trkpt lat="43.67215" lon="6.67723">
        <ele>765.74</ele>
        <time>2019-12-08T12:43:39.000Z</time>
      </trkpt>
      <trkpt lat="43.67212" lon="6.67725">
        <ele>765.87</ele>
        <time>2019-12-08T12:43:40.000Z</time>
      </trkpt>
      <trkpt lat="43.67209" lon="6.67727">
        <ele>766.14</ele>
        <time>2019-12-08T12:43:41.000Z</time>
      </trkpt>
      <trkpt lat="43.67207" lon="6.6773">
        <ele>766.35</ele>
        <time>2019-12-08T12:43:42.000Z</time>
      </trkpt>
      <trkpt lat="43.67204" lon="6.67732">
        <ele>766.65</ele>
        <time>2019-12-08T12:43:43.000Z</time>
      </trkpt>
      <trkpt lat="43.67201" lon="6.67735">
        <ele>766.73</ele>
        <time>2019-12-08T12:43:44.000Z</time>
      </trkpt>
      <trkpt lat="43.67199" lon="6.67738">
        <ele>766.96</ele>
        <time>2019-12-08T12:43:45.000Z</time>
      </trkpt>
      <trkpt lat="43.67197" lon="6.67741">
        <ele>767.23</ele>
        <time>2019-12-08T12:43:46.000Z</time>
      </trkpt>
      <trkpt lat="43.67194" lon="6.67745">
        <ele>767.46</ele>
        <time>2019-12-08T12:43:47.000Z</time>
      </trkpt>
      <trkpt lat="43.67192" lon="6.67748">
        <ele>767.74</ele>
        <time>2019-12-08T12:43:48.000Z</time>
      </trkpt>
      <trkpt lat="43.6719" lon="6.67752">
        <ele>767.87</ele>
        <time>2019-12-08T12:43:49.000Z</time>
      </trkpt>
      <trkpt lat="43.67189" lon="6.67756">
        <ele>768.11</ele>
        <time>2019-12-08T12:43:50.000Z</time>
      </trkpt>
      <trkpt lat="43.67187" lon="6.6776">
        <ele>768.35</ele>
        <time>2019-12-08T12:43:51.000Z</time>
      </trkpt>
      <trkpt lat="43.67186" lon="6.67764">
        <ele>768.59</ele>
        <time>2019-12-08T12:43:52.000Z</time>
      </trkpt>
      <trkpt lat="43.67185" lon="6.67768">
        <ele>768.66</ele>
        <time>2019-12-08T12:43:53.000Z</time>
      </trkpt>
      <trkpt lat="43.67184" lon="6.67772">
        <ele>768.88</ele>
        <time>2019-12-08T12:43:54.000Z</time>
      </trkpt>
      <trkpt lat="43.67183" lon="6.67777">
        <ele>769.11</ele>
        <time>2019-12-08T12:43:55.000Z</time>
      </trkpt>
      <trkpt lat="43.67182" lon="6.67781">
        <ele>769.36</ele>
        <time>2019-12-08T12:43:56.000Z</time>
      </trkpt>
      <trkpt lat="43.67181" lon="6.67785">
        <ele>769.46</ele>
        <time>2019-12-08T12:43:57.000Z</time>
      </trkpt>
      <trkpt lat="43.6718" lon="6.67789">
        <ele>769.79</ele>
        <time>2019-12-08T12:43:58.000Z</time>
      </trkpt>
      <trkpt lat="43.6718" lon="6.67793">
        <ele>770.01</ele>
        <time>2019-12-08T12:43:59.000Z</time>
      </trkpt>
      <trkpt lat="43.67179" lon="6.67798">
        <ele>770.31</ele>
        <time>2019-12-08T12:44:00.000Z</time>
      </trkpt>
      <trkpt lat="43.67178" lon="6.67802">
        <ele>770.44</ele>
        <time>2019-12-08T12:44:01.000Z</time>
      </trkpt>
      <trkpt lat="43.67177" lon="6.67806">
        <ele>770.7</ele>
        <time>2019-12-08T12:44:02.000Z</time>
      </trkpt>
      <trkpt lat="43.67177" lon="6.6781">
        <ele>770.93</ele>
        <time>2019-12-08T12:44:03.000Z</time>
      </trkpt>
      <trkpt lat="43.67176" lon="6.67815">
        <ele>771.14</ele>
        <time>2019-12-08T12:44:04.000Z</time>
      </trkpt>
      <trkpt lat="43.67175" lon="6.67819">
        <ele>771.22</ele>
        <time>2019-12-08T12:44:05.000Z</time>
      </trkpt>
      <trkpt lat="43.67175" lon="6.67823">
        <ele>771.45</ele>
        <time>2019-12-08T12:44:06.000Z</time>
      </trkpt>
      <trkpt lat="43.67174" lon="6.67827">
        <ele>771.68</ele>
        <time>2019-12-08T12:44:07.000Z</time>
      </trkpt>
      <trkpt lat="43.67174" lon="6.67832">
        <ele>771.92</ele>
        <time>2019-12-08T12:44:08.000Z</time>
      </trkpt>
      <trkpt lat="43.67173" lon="6.67836">
        <ele>772.04</ele>
        <time>2019-12-08T12:44:09.000Z</time>
      </trkpt>
      <trkpt lat="43.67173" lon="6.67841">
        <ele>772.31</ele>
        <time>2019-12-08T12:44:10.000Z</time>
      </trkpt>
      <trkpt lat="43.67172" lon="6.67845">
        <ele>772.5</ele>
        <time>2019-12-08T12:44:11.000Z</time>
      </trkpt>
      <trkpt lat="43.67172" lon="6.6785">
        <ele>772.69</ele>
        <time>2019-12-08T12:44:12.000Z</time>
      </trkpt>
      <trkpt lat="43.67171" lon="6.67854">
        <ele>772.79</ele>
        <time>2019-12-08T12:44:13.000Z</time>
      </trkpt>
      <trkpt lat="43.67171" lon="6.67859">
        <ele>772.99</ele>
        <time>2019-12-08T12:44:14.000Z</time>
      </trkpt>
      <trkpt lat="43.6717" lon="6.67863">
        <ele>773.25</ele>
        <time>2019-12-08T12:44:15.000Z</time>
      </trkpt>
      <trkpt lat="43.67169" lon="6.67867">
        <ele>773.53</ele>
        <time>2019-12-08T12:44:16.000Z</time>
      </trkpt>
      <trkpt lat="43.67168" lon="6.67872">
        <ele>773.66</ele>
        <time>2019-12-08T12:44:17.000Z</time>
      </trkpt>
      <trkpt lat="43.67167" lon="6.67876">
        <ele>773.94</ele>
        <time>2019-12-08T12:44:18.000Z</time>
      </trkpt>
      <trkpt lat="43.67166" lon="6.6788">
        <ele>774.16</ele>
        <time>2019-12-08T12:44:19.000Z</time>
      </trkpt>
      <trkpt lat="43.67164" lon="6.67884">
        <ele>774.34</ele>
        <time>2019-12-08T12:44:20.000Z</time>
      </trkpt>
      <trkpt lat="43.67163" lon="6.67888">
        <ele>774.61</ele>
        <time>2019-12-08T12:44:21.000Z</time>
      </trkpt>
      <trkpt lat="43.67161" lon="6.67892">
        <ele>774.73</ele>
        <time>2019-12-08T12:44:22.000Z</time>
      </trkpt>
      <trkpt lat="43.67159" lon="6.67895">
        <ele>774.92</ele>
        <time>2019-12-08T12:44:23.000Z</time>
      </trkpt>
      <trkpt lat="43.67157" lon="6.67898">
        <ele>775.18</ele>
        <time>2019-12-08T12:44:24.000Z</time>
      </trkpt>
      <trkpt lat="43.67154" lon="6.67901">
        <ele>775.39</ele>
        <time>2019-12-08T12:44:25.000Z</time>
      </trkpt>
      <trkpt lat="43.67152" lon="6.67903">
        <ele>775.49</ele>
        <time>2019-12-08T12:44:26.000Z</time>
      </trkpt>
      <trkpt lat="43.67149" lon="6.67905">
        <ele>775.76</ele>
        <time>2019-12-08T12:44:27.000Z</time>
      </trkpt>
      <trkpt lat="43.67146" lon="6.67907">
        <ele>776.03</ele>
        <time>2019-12-08T12:44:28.000Z</time>
      </trkpt>
      <trkpt lat="43.67143" lon="6.67908">
        <ele>776.35</ele>
        <time>2019-12-08T12:44:29.000Z</time>
      </trkpt>
      <trkpt lat="43.6714" lon="6.6791">
        <ele>776.49</ele>
        <time>2019-12-08T12:44:30.000Z</time>
      </trkpt>
      <trkpt lat="43.67137" lon="6.67911">
        <ele>776.75</ele>
        <time>2019-12-08T12:44:31.000Z</time>
      </trkpt>
      <trkpt lat="43.67134" lon="6.67912">
        <ele>777.05</ele>
        <time>2019-12-08T12:44:32.000Z</time>
      </trkpt>
      <trkpt lat="43.67131" lon="6.67913">
        <ele>777.36</ele>
        <time>2019-12-08T12:44:33.000Z</time>
      </trkpt>
      <trkpt lat="43.67128" lon="6.67915">
        <ele>777.49</ele>
        <time>2019-12-08T12:44:34.000Z</time>
      </trkpt>
      <trkpt lat="43.67124" lon="6.67917">
        <ele>777.85</ele>
        <time>2019-12-08T12:44:35.000Z</time>
      </trkpt>
      <trkpt lat="43.67121" lon="6.67918">
        <ele>778.14</ele>
        <time>2019-12-08T12:44:36.000Z</time>
      </trkpt>
      <trkpt lat="43.67118" lon="6.6792">
        <ele>778.37</ele>
        <time>2019-12-08T12:44:37.000Z</time>
      </trkpt>
      <trkpt lat="43.67115" lon="6.67921">
        <ele>778.49</ele>
        <time>2019-12-08T12:44:38.000Z</time>
      </trkpt>
      <trkpt lat="43.67111" lon="6.67923">
        <ele>778.77</ele>
        <time>2019-12-08T12:44:39.000Z</time>
      </trkpt>
      <trkpt lat="43.67108" lon="6.67924">
        <ele>779.01</ele>
        <time>2019-12-08T12:44:40.000Z</time>
      </trkpt>
      <trkpt lat="43.67105" lon="6.67926">
        <ele>779.25</ele>
        <time>2019-12-08T12:44:41.000Z</time>
      </trkpt>
      <trkpt lat="43.67102" lon="6.67927">
        <ele>779.38</ele>
        <time>2019-12-08T12:44:42.000Z</time>
      </trkpt>
      <trkpt lat="43.67098" lon="6.67929">
        <ele>779.61</ele>
        <time>2019-12-08T12:44:43.000Z</time>
      </trkpt>
      <trkpt lat="43.67095" lon="6.67931">
        <ele>779.85</ele>
        <time>2019-12-08T12:44:44.000Z</time>
      </trkpt>
      <trkpt lat="43.67092" lon="6.67932">
        <ele>780.04</ele>
        <time>2019-12-08T12:44:45.000Z</time>
      </trkpt>
      <trkpt lat="43.67088" lon="6.67933">
        <ele>780.14</ele>
        <time>2019-12-08T12:44:46.000Z</time>
      </trkpt>
      <trkpt lat="43.67085" lon="6.67935">
        <ele>780.33</ele>
        <time>2019-12-08T12:44:47.000Z</time>
      </trkpt>
      <trkpt lat="43.67081" lon="6.67936">
        <ele>780.49</ele>
        <time>2019-12-08T12:44:48.000Z</time>
      </trkpt>
      <trkpt lat="43.67078" lon="6.67938">
        <ele>780.63</ele>
        <time>2019-12-08T12:44:49.000Z</time>
      </trkpt>
      <trkpt lat="43.67075" lon="6.6794">
        <ele>780.8</ele>
        <time>2019-12-08T12:44:50.000Z</time>
      </trkpt>
      <trkpt lat="43.67071" lon="6.67941">
        <ele>780.88</ele>
        <time>2019-12-08T12:44:51.000Z</time>
      </trkpt>
      <trkpt lat="43.67068" lon="6.67943">
        <ele>781.01</ele>
        <time>2019-12-08T12:44:52.000Z</time>
      </trkpt>
      <trkpt lat="43.67064" lon="6.67944">
        <ele>781.12</ele>
        <time>2019-12-08T12:44:53.000Z</time>
      </trkpt>
      <trkpt lat="43.67061" lon="6.67946">
        <ele>781.18</ele>
        <time>2019-12-08T12:44:54.000Z</time>
      </trkpt>
      <trkpt lat="43.67057" lon="6.67946">
        <ele>781.24</ele>
        <time>2019-12-08T12:44:55.000Z</time>
      </trkpt>
      <trkpt lat="43.67054" lon="6.67946">
        <ele>781.44</ele>
        <time>2019-12-08T12:44:56.000Z</time>
      </trkpt>
      <trkpt lat="43.6705" lon="6.67946">
        <ele>781.62</ele>
        <time>2019-12-08T12:44:57.000Z</time>
      </trkpt>
      <trkpt lat="43.67046" lon="6.67946">
        <ele>781.8</ele>
        <time>2019-12-08T12:44:58.000Z</time>
      </trkpt>
      <trkpt lat="43.67042" lon="6.67945">
        <ele>781.91</ele>
        <time>2019-12-08T12:44:59.000Z</time>
      </trkpt>
      <trkpt lat="43.67039" lon="6.67945">
        <ele>781.99</ele>
        <time>2019-12-08T12:45:00.000Z</time>
      </trkpt>
      <trkpt lat="43.67035" lon="6.67943">
        <ele>782.06</ele>
        <time>2019-12-08T12:45:01.000Z</time>
      </trkpt>
      <trkpt lat="43.67031" lon="6.67942">
        <ele>782.14</ele>
        <time>2019-12-08T12:45:02.000Z</time>
      </trkpt>
      <trkpt lat="43.67027" lon="6.6794">
        <ele>782.16</ele>
        <time>2019-12-08T12:45:03.000Z</time>
      </trkpt>
      <trkpt lat="43.67023" lon="6.67937">
        <ele>782.26</ele>
        <time>2019-12-08T12:45:04.000Z</time>
      </trkpt>
      <trkpt lat="43.67019" lon="6.67934">
        <ele>782.38</ele>
        <time>2019-12-08T12:45:05.000Z</time>
      </trkpt>
      <trkpt lat="43.67016" lon="6.67931">
        <ele>782.38</ele>
        <time>2019-12-08T12:45:06.000Z</time>
      </trkpt>
      <trkpt lat="43.67012" lon="6.67927">
        <ele>782.47</ele>
        <time>2019-12-08T12:45:07.000Z</time>
      </trkpt>
      <trkpt lat="43.67008" lon="6.67924">
        <ele>782.59</ele>
        <time>2019-12-08T12:45:08.000Z</time>
      </trkpt>
      <trkpt lat="43.67004" lon="6.6792">
        <ele>782.68</ele>
        <time>2019-12-08T12:45:09.000Z</time>
      </trkpt>
      <trkpt lat="43.67" lon="6.67917">
        <ele>782.71</ele>
        <time>2019-12-08T12:45:10.000Z</time>
      </trkpt>
      <trkpt lat="43.66996" lon="6.67913">
        <ele>782.68</ele>
        <time>2019-12-08T12:45:11.000Z</time>
      </trkpt>
      <trkpt lat="43.66991" lon="6.67909">
        <ele>782.59</ele>
        <time>2019-12-08T12:45:12.000Z</time>
      </trkpt>
      <trkpt lat="43.66951" lon="6.67866">
        <ele>780.35</ele>
        <time>2019-12-08T12:45:19.000Z</time>
      </trkpt>
      <trkpt lat="43.66946" lon="6.67856">
        <ele>779.72</ele>
        <time>2019-12-08T12:45:20.000Z</time>
      </trkpt>
      <trkpt lat="43.66941" lon="6.67845">
        <ele>778.97</ele>
        <time>2019-12-08T12:45:21.000Z</time>
      </trkpt>
      <trkpt lat="43.66937" lon="6.67834">
        <ele>778.21</ele>
        <time>2019-12-08T12:45:22.000Z</time>
      </trkpt>
      <trkpt lat="43.66932" lon="6.67821">
        <ele>777.91</ele>
        <time>2019-12-08T12:45:23.000Z</time>
      </trkpt>
      <trkpt lat="43.66928" lon="6.67808">
        <ele>777.3</ele>
        <time>2019-12-08T12:45:24.000Z</time>
      </trkpt>
      <trkpt lat="43.66923" lon="6.67795">
        <ele>776.67</ele>
        <time>2019-12-08T12:45:25.000Z</time>
      </trkpt>
      <trkpt lat="43.66918" lon="6.67782">
        <ele>775.92</ele>
        <time>2019-12-08T12:45:26.000Z</time>
      </trkpt>
      <trkpt lat="43.66912" lon="6.6777">
        <ele>775.15</ele>
        <time>2019-12-08T12:45:27.000Z</time>
      </trkpt>
      <trkpt lat="43.66905" lon="6.6776">
        <ele>774.82</ele>
        <time>2019-12-08T12:45:28.000Z</time>
      </trkpt>
      <trkpt lat="43.66898" lon="6.67751">
        <ele>774.1</ele>
        <time>2019-12-08T12:45:29.000Z</time>
      </trkpt>
      <trkpt lat="43.6689" lon="6.67744">
        <ele>773.27</ele>
        <time>2019-12-08T12:45:30.000Z</time>
      </trkpt>
      <trkpt lat="43.66883" lon="6.67738">
        <ele>772.86</ele>
        <time>2019-12-08T12:45:31.000Z</time>
      </trkpt>
      <trkpt lat="43.66875" lon="6.67741">
        <ele>771.99</ele>
        <time>2019-12-08T12:45:32.000Z</time>
      </trkpt>
      <trkpt lat="43.6687" lon="6.67749">
        <ele>770.92</ele>
        <time>2019-12-08T12:45:33.000Z</time>
      </trkpt>
      <trkpt lat="43.66864" lon="6.67761">
        <ele>769.97</ele>
        <time>2019-12-08T12:45:34.000Z</time>
      </trkpt>
      <trkpt lat="43.66863" lon="6.67774">
        <ele>769.24</ele>
        <time>2019-12-08T12:45:35.000Z</time>
      </trkpt>
      <trkpt lat="43.66862" lon="6.67788">
        <ele>768.85</ele>
        <time>2019-12-08T12:45:36.000Z</time>
      </trkpt>
      <trkpt lat="43.66862" lon="6.67803">
        <ele>768.14</ele>
        <time>2019-12-08T12:45:37.000Z</time>
      </trkpt>
      <trkpt lat="43.66862" lon="6.67817">
        <ele>767.46</ele>
        <time>2019-12-08T12:45:38.000Z</time>
      </trkpt>
      <trkpt lat="43.66862" lon="6.67832">
        <ele>766.77</ele>
        <time>2019-12-08T12:45:39.000Z</time>
      </trkpt>
      <trkpt lat="43.66862" lon="6.67846">
        <ele>766.47</ele>
        <time>2019-12-08T12:45:40.000Z</time>
      </trkpt>
      <trkpt lat="43.66862" lon="6.67861">
        <ele>765.75</ele>
        <time>2019-12-08T12:45:41.000Z</time>
      </trkpt>
      <trkpt lat="43.66863" lon="6.67876">
        <ele>764.95</ele>
        <time>2019-12-08T12:45:42.000Z</time>
      </trkpt>
      <trkpt lat="43.66862" lon="6.67891">
        <ele>764.08</ele>
        <time>2019-12-08T12:45:43.000Z</time>
      </trkpt>
      <trkpt lat="43.66861" lon="6.67905">
        <ele>763.59</ele>
        <time>2019-12-08T12:45:44.000Z</time>
      </trkpt>
      <trkpt lat="43.66857" lon="6.67919">
        <ele>762.52</ele>
        <time>2019-12-08T12:45:45.000Z</time>
      </trkpt>
      <trkpt lat="43.66852" lon="6.67932">
        <ele>761.57</ele>
        <time>2019-12-08T12:45:46.000Z</time>
      </trkpt>
      <trkpt lat="43.66845" lon="6.67944">
        <ele>760.64</ele>
        <time>2019-12-08T12:45:47.000Z</time>
      </trkpt>
      <trkpt lat="43.66837" lon="6.67955">
        <ele>760.12</ele>
        <time>2019-12-08T12:45:48.000Z</time>
      </trkpt>
      <trkpt lat="43.66828" lon="6.67967">
        <ele>759.28</ele>
        <time>2019-12-08T12:45:49.000Z</time>
      </trkpt>
      <trkpt lat="43.6682" lon="6.67979">
        <ele>758.41</ele>
        <time>2019-12-08T12:45:50.000Z</time>
      </trkpt>
      <trkpt lat="43.66812" lon="6.67991">
        <ele>757.53</ele>
        <time>2019-12-08T12:45:51.000Z</time>
      </trkpt>
      <trkpt lat="43.66805" lon="6.68004">
        <ele>757.13</ele>
        <time>2019-12-08T12:45:52.000Z</time>
      </trkpt>
      <trkpt lat="43.66799" lon="6.68017">
        <ele>756.43</ele>
        <time>2019-12-08T12:45:53.000Z</time>
      </trkpt>
      <trkpt lat="43.66792" lon="6.68032">
        <ele>755.89</ele>
        <time>2019-12-08T12:45:54.000Z</time>
      </trkpt>
      <trkpt lat="43.66789" lon="6.68046">
        <ele>755.49</ele>
        <time>2019-12-08T12:45:55.000Z</time>
      </trkpt>
      <trkpt lat="43.66785" lon="6.68059">
        <ele>755.23</ele>
        <time>2019-12-08T12:45:56.000Z</time>
      </trkpt>
      <trkpt lat="43.66782" lon="6.68071">
        <ele>755.11</ele>
        <time>2019-12-08T12:45:57.000Z</time>
      </trkpt>
      <trkpt lat="43.6678" lon="6.68084">
        <ele>754.94</ele>
        <time>2019-12-08T12:45:58.000Z</time>
      </trkpt>
      <trkpt lat="43.66777" lon="6.68096">
        <ele>754.87</ele>
        <time>2019-12-08T12:45:59.000Z</time>
      </trkpt>
      <trkpt lat="43.66775" lon="6.68108">
        <ele>754.93</ele>
        <time>2019-12-08T12:46:00.000Z</time>
      </trkpt>
      <trkpt lat="43.66772" lon="6.68119">
        <ele>755.05</ele>
        <time>2019-12-08T12:46:01.000Z</time>
      </trkpt>
      <trkpt lat="43.6677" lon="6.6813">
        <ele>755.27</ele>
        <time>2019-12-08T12:46:02.000Z</time>
      </trkpt>
      <trkpt lat="43.66768" lon="6.68142">
        <ele>755.49</ele>
        <time>2019-12-08T12:46:03.000Z</time>
      </trkpt>
      <trkpt lat="43.66766" lon="6.68153">
        <ele>755.83</ele>
        <time>2019-12-08T12:46:04.000Z</time>
      </trkpt>
      <trkpt lat="43.66764" lon="6.68163">
        <ele>755.97</ele>
        <time>2019-12-08T12:46:05.000Z</time>
      </trkpt>
      <trkpt lat="43.66762" lon="6.68174">
        <ele>756.25</ele>
        <time>2019-12-08T12:46:06.000Z</time>
      </trkpt>
      <trkpt lat="43.6676" lon="6.68183">
        <ele>756.55</ele>
        <time>2019-12-08T12:46:07.000Z</time>
      </trkpt>
      <trkpt lat="43.66758" lon="6.68192">
        <ele>756.71</ele>
        <time>2019-12-08T12:46:08.000Z</time>
      </trkpt>
      <trkpt lat="43.66755" lon="6.68201">
        <ele>756.78</ele>
        <time>2019-12-08T12:46:09.000Z</time>
      </trkpt>
      <trkpt lat="43.66753" lon="6.68211">
        <ele>756.99</ele>
        <time>2019-12-08T12:46:10.000Z</time>
      </trkpt>
      <trkpt lat="43.66751" lon="6.6822">
        <ele>757.18</ele>
        <time>2019-12-08T12:46:11.000Z</time>
      </trkpt>
      <trkpt lat="43.66749" lon="6.6823">
        <ele>757.46</ele>
        <time>2019-12-08T12:46:12.000Z</time>
      </trkpt>
      <trkpt lat="43.66747" lon="6.6824">
        <ele>757.57</ele>
        <time>2019-12-08T12:46:13.000Z</time>
      </trkpt>
      <trkpt lat="43.66745" lon="6.68249">
        <ele>757.73</ele>
        <time>2019-12-08T12:46:14.000Z</time>
      </trkpt>
      <trkpt lat="43.66743" lon="6.68258">
        <ele>757.82</ele>
        <time>2019-12-08T12:46:15.000Z</time>
      </trkpt>
      <trkpt lat="43.6674" lon="6.68267">
        <ele>757.83</ele>
        <time>2019-12-08T12:46:16.000Z</time>
      </trkpt>
      <trkpt lat="43.66736" lon="6.68275">
        <ele>757.81</ele>
        <time>2019-12-08T12:46:17.000Z</time>
      </trkpt>
      <trkpt lat="43.66731" lon="6.68282">
        <ele>757.83</ele>
        <time>2019-12-08T12:46:18.000Z</time>
      </trkpt>
      <trkpt lat="43.66725" lon="6.68287">
        <ele>757.85</ele>
        <time>2019-12-08T12:46:19.000Z</time>
      </trkpt>
      <trkpt lat="43.66718" lon="6.68291">
        <ele>757.78</ele>
        <time>2019-12-08T12:46:20.000Z</time>
      </trkpt>
      <trkpt lat="43.66712" lon="6.68293">
        <ele>757.72</ele>
        <time>2019-12-08T12:46:21.000Z</time>
      </trkpt>
      <trkpt lat="43.66704" lon="6.68294">
        <ele>757.64</ele>
        <time>2019-12-08T12:46:22.000Z</time>
      </trkpt>
      <trkpt lat="43.66697" lon="6.68295">
        <ele>757.65</ele>
        <time>2019-12-08T12:46:23.000Z</time>
      </trkpt>
      <trkpt lat="43.6669" lon="6.68296">
        <ele>757.71</ele>
        <time>2019-12-08T12:46:24.000Z</time>
      </trkpt>
      <trkpt lat="43.66683" lon="6.68297">
        <ele>757.82</ele>
        <time>2019-12-08T12:46:25.000Z</time>
      </trkpt>
      <trkpt lat="43.66676" lon="6.68298">
        <ele>758.01</ele>
        <time>2019-12-08T12:46:26.000Z</time>
      </trkpt>
      <trkpt lat="43.66669" lon="6.68299">
        <ele>758.13</ele>
        <time>2019-12-08T12:46:27.000Z</time>
      </trkpt>
      <trkpt lat="43.66662" lon="6.683">
        <ele>758.1</ele>
        <time>2019-12-08T12:46:28.000Z</time>
      </trkpt>
      <trkpt lat="43.66654" lon="6.68301">
        <ele>758.05</ele>
        <time>2019-12-08T12:46:29.000Z</time>
      </trkpt>
      <trkpt lat="43.66646" lon="6.68303">
        <ele>757.89</ele>
        <time>2019-12-08T12:46:30.000Z</time>
      </trkpt>
      <trkpt lat="43.66639" lon="6.68304">
        <ele>757.78</ele>
        <time>2019-12-08T12:46:31.000Z</time>
      </trkpt>
      <trkpt lat="43.66631" lon="6.68306">
        <ele>757.69</ele>
        <time>2019-12-08T12:46:32.000Z</time>
      </trkpt>
      <trkpt lat="43.66624" lon="6.68307">
        <ele>757.69</ele>
        <time>2019-12-08T12:46:33.000Z</time>
      </trkpt>
      <trkpt lat="43.66616" lon="6.68308">
        <ele>757.69</ele>
        <time>2019-12-08T12:46:34.000Z</time>
      </trkpt>
      <trkpt lat="43.66608" lon="6.68309">
        <ele>757.63</ele>
        <time>2019-12-08T12:46:35.000Z</time>
      </trkpt>
      <trkpt lat="43.66601" lon="6.68311">
        <ele>757.52</ele>
        <time>2019-12-08T12:46:36.000Z</time>
      </trkpt>
      <trkpt lat="43.66593" lon="6.68312">
        <ele>757.37</ele>
        <time>2019-12-08T12:46:37.000Z</time>
      </trkpt>
      <trkpt lat="43.66585" lon="6.68313">
        <ele>757.28</ele>
        <time>2019-12-08T12:46:38.000Z</time>
      </trkpt>
      <trkpt lat="43.66577" lon="6.68315">
        <ele>757.1</ele>
        <time>2019-12-08T12:46:39.000Z</time>
      </trkpt>
      <trkpt lat="43.66568" lon="6.68317">
        <ele>756.87</ele>
        <time>2019-12-08T12:46:40.000Z</time>
      </trkpt>
      <trkpt lat="43.6656" lon="6.68319">
        <ele>756.58</ele>
        <time>2019-12-08T12:46:41.000Z</time>
      </trkpt>
      <trkpt lat="43.66552" lon="6.68321">
        <ele>756.47</ele>
        <time>2019-12-08T12:46:42.000Z</time>
      </trkpt>
      <trkpt lat="43.66543" lon="6.68323">
        <ele>756.02</ele>
        <time>2019-12-08T12:46:43.000Z</time>
      </trkpt>
      <trkpt lat="43.66535" lon="6.68326">
        <ele>755.5</ele>
        <time>2019-12-08T12:46:44.000Z</time>
      </trkpt>
      <trkpt lat="43.66526" lon="6.68328">
        <ele>754.97</ele>
        <time>2019-12-08T12:46:45.000Z</time>
      </trkpt>
      <trkpt lat="43.66517" lon="6.68331">
        <ele>754.65</ele>
        <time>2019-12-08T12:46:46.000Z</time>
      </trkpt>
      <trkpt lat="43.66509" lon="6.68334">
        <ele>753.98</ele>
        <time>2019-12-08T12:46:47.000Z</time>
      </trkpt>
      <trkpt lat="43.665" lon="6.68339">
        <ele>753.35</ele>
        <time>2019-12-08T12:46:48.000Z</time>
      </trkpt>
      <trkpt lat="43.66493" lon="6.68345">
        <ele>752.66</ele>
        <time>2019-12-08T12:46:49.000Z</time>
      </trkpt>
      <trkpt lat="43.66486" lon="6.68354">
        <ele>752.31</ele>
        <time>2019-12-08T12:46:50.000Z</time>
      </trkpt>
      <trkpt lat="43.66479" lon="6.68364">
        <ele>751.58</ele>
        <time>2019-12-08T12:46:51.000Z</time>
      </trkpt>
      <trkpt lat="43.66472" lon="6.68375">
        <ele>750.81</ele>
        <time>2019-12-08T12:46:52.000Z</time>
      </trkpt>
      <trkpt lat="43.66466" lon="6.68386">
        <ele>750.07</ele>
        <time>2019-12-08T12:46:53.000Z</time>
      </trkpt>
      <trkpt lat="43.66459" lon="6.68397">
        <ele>749.67</ele>
        <time>2019-12-08T12:46:54.000Z</time>
      </trkpt>
      <trkpt lat="43.66453" lon="6.68408">
        <ele>748.82</ele>
        <time>2019-12-08T12:46:55.000Z</time>
      </trkpt>
      <trkpt lat="43.6645" lon="6.68424">
        <ele>748.04</ele>
        <time>2019-12-08T12:46:56.000Z</time>
      </trkpt>
      <trkpt lat="43.66449" lon="6.68442">
        <ele>747.16</ele>
        <time>2019-12-08T12:46:57.000Z</time>
      </trkpt>
      <trkpt lat="43.66453" lon="6.68456">
        <ele>746.76</ele>
        <time>2019-12-08T12:46:58.000Z</time>
      </trkpt>
      <trkpt lat="43.66457" lon="6.68469">
        <ele>745.96</ele>
        <time>2019-12-08T12:46:59.000Z</time>
      </trkpt>
      <trkpt lat="43.66462" lon="6.68483">
        <ele>745.12</ele>
        <time>2019-12-08T12:47:00.000Z</time>
      </trkpt>
      <trkpt lat="43.66466" lon="6.68497">
        <ele>744.3</ele>
        <time>2019-12-08T12:47:01.000Z</time>
      </trkpt>
      <trkpt lat="43.66471" lon="6.68511">
        <ele>743.9</ele>
        <time>2019-12-08T12:47:02.000Z</time>
      </trkpt>
      <trkpt lat="43.66475" lon="6.68525">
        <ele>743.03</ele>
        <time>2019-12-08T12:47:03.000Z</time>
      </trkpt>
      <trkpt lat="43.6648" lon="6.68539">
        <ele>742.19</ele>
        <time>2019-12-08T12:47:04.000Z</time>
      </trkpt>
      <trkpt lat="43.66484" lon="6.68554">
        <ele>741.35</ele>
        <time>2019-12-08T12:47:05.000Z</time>
      </trkpt>
      <trkpt lat="43.66488" lon="6.68569">
        <ele>740.49</ele>
        <time>2019-12-08T12:47:06.000Z</time>
      </trkpt>
      <trkpt lat="43.66492" lon="6.68582">
        <ele>739.96</ele>
        <time>2019-12-08T12:47:07.000Z</time>
      </trkpt>
      <trkpt lat="43.66496" lon="6.68594">
        <ele>739</ele>
        <time>2019-12-08T12:47:08.000Z</time>
      </trkpt>
      <trkpt lat="43.66496" lon="6.68604">
        <ele>738.03</ele>
        <time>2019-12-08T12:47:09.000Z</time>
      </trkpt>
      <trkpt lat="43.66492" lon="6.68612">
        <ele>737.52</ele>
        <time>2019-12-08T12:47:10.000Z</time>
      </trkpt>
      <trkpt lat="43.66484" lon="6.68617">
        <ele>736.44</ele>
        <time>2019-12-08T12:47:11.000Z</time>
      </trkpt>
      <trkpt lat="43.66474" lon="6.68617">
        <ele>736.44</ele>
        <time>2019-12-08T12:47:12.000Z</time>
      </trkpt>
      <trkpt lat="43.66463" lon="6.68611">
        <ele>735.14</ele>
        <time>2019-12-08T12:47:13.000Z</time>
      </trkpt>
      <trkpt lat="43.66453" lon="6.68606">
        <ele>733.96</ele>
        <time>2019-12-08T12:47:14.000Z</time>
      </trkpt>
      <trkpt lat="43.66443" lon="6.686">
        <ele>733.42</ele>
        <time>2019-12-08T12:47:15.000Z</time>
      </trkpt>
      <trkpt lat="43.66433" lon="6.68593">
        <ele>732.17</ele>
        <time>2019-12-08T12:47:16.000Z</time>
      </trkpt>
      <trkpt lat="43.66424" lon="6.68586">
        <ele>731.36</ele>
        <time>2019-12-08T12:47:17.000Z</time>
      </trkpt>
      <trkpt lat="43.66413" lon="6.68581">
        <ele>730.66</ele>
        <time>2019-12-08T12:47:18.000Z</time>
      </trkpt>
      <trkpt lat="43.66402" lon="6.68578">
        <ele>730.26</ele>
        <time>2019-12-08T12:47:19.000Z</time>
      </trkpt>
      <trkpt lat="43.66391" lon="6.68577">
        <ele>729.45</ele>
        <time>2019-12-08T12:47:20.000Z</time>
      </trkpt>
      <trkpt lat="43.6638" lon="6.68576">
        <ele>728.64</ele>
        <time>2019-12-08T12:47:21.000Z</time>
      </trkpt>
      <trkpt lat="43.66368" lon="6.68577">
        <ele>727.64</ele>
        <time>2019-12-08T12:47:22.000Z</time>
      </trkpt>
      <trkpt lat="43.66356" lon="6.68576">
        <ele>727.16</ele>
        <time>2019-12-08T12:47:23.000Z</time>
      </trkpt>
      <trkpt lat="43.66345" lon="6.68576">
        <ele>726.12</ele>
        <time>2019-12-08T12:47:24.000Z</time>
      </trkpt>
      <trkpt lat="43.66333" lon="6.68576">
        <ele>725.11</ele>
        <time>2019-12-08T12:47:25.000Z</time>
      </trkpt>
      <trkpt lat="43.66321" lon="6.68576">
        <ele>724.1</ele>
        <time>2019-12-08T12:47:26.000Z</time>
      </trkpt>
      <trkpt lat="43.66309" lon="6.68576">
        <ele>723.59</ele>
        <time>2019-12-08T12:47:27.000Z</time>
      </trkpt>
      <trkpt lat="43.66296" lon="6.68575">
        <ele>722.64</ele>
        <time>2019-12-08T12:47:28.000Z</time>
      </trkpt>
      <trkpt lat="43.66284" lon="6.68575">
        <ele>721.82</ele>
        <time>2019-12-08T12:47:29.000Z</time>
      </trkpt>
      <trkpt lat="43.66271" lon="6.68574">
        <ele>720.98</ele>
        <time>2019-12-08T12:47:30.000Z</time>
      </trkpt>
      <trkpt lat="43.66259" lon="6.68574">
        <ele>720.57</ele>
        <time>2019-12-08T12:47:31.000Z</time>
      </trkpt>
      <trkpt lat="43.66246" lon="6.68574">
        <ele>720.15</ele>
        <time>2019-12-08T12:47:32.000Z</time>
      </trkpt>
      <trkpt lat="43.66233" lon="6.68573">
        <ele>719.19</ele>
        <time>2019-12-08T12:47:33.000Z</time>
      </trkpt>
      <trkpt lat="43.6622" lon="6.68572">
        <ele>718.07</ele>
        <time>2019-12-08T12:47:34.000Z</time>
      </trkpt>
      <trkpt lat="43.66208" lon="6.68567">
        <ele>717.45</ele>
        <time>2019-12-08T12:47:35.000Z</time>
      </trkpt>
      <trkpt lat="43.66196" lon="6.6856">
        <ele>716.16</ele>
        <time>2019-12-08T12:47:36.000Z</time>
      </trkpt>
      <trkpt lat="43.66184" lon="6.68552">
        <ele>714.96</ele>
        <time>2019-12-08T12:47:37.000Z</time>
      </trkpt>
      <trkpt lat="43.66172" lon="6.68546">
        <ele>713.94</ele>
        <time>2019-12-08T12:47:38.000Z</time>
      </trkpt>
      <trkpt lat="43.66159" lon="6.6854">
        <ele>713.46</ele>
        <time>2019-12-08T12:47:39.000Z</time>
      </trkpt>
      <trkpt lat="43.66147" lon="6.68536">
        <ele>712.58</ele>
        <time>2019-12-08T12:47:40.000Z</time>
      </trkpt>
      <trkpt lat="43.66134" lon="6.68532">
        <ele>711.79</ele>
        <time>2019-12-08T12:47:41.000Z</time>
      </trkpt>
      <trkpt lat="43.66121" lon="6.6853">
        <ele>710.85</ele>
        <time>2019-12-08T12:47:42.000Z</time>
      </trkpt>
      <trkpt lat="43.66108" lon="6.68528">
        <ele>709.83</ele>
        <time>2019-12-08T12:47:43.000Z</time>
      </trkpt>
      <trkpt lat="43.66095" lon="6.68529">
        <ele>709.29</ele>
        <time>2019-12-08T12:47:44.000Z</time>
      </trkpt>
      <trkpt lat="43.66082" lon="6.6853">
        <ele>708.23</ele>
        <time>2019-12-08T12:47:45.000Z</time>
      </trkpt>
      <trkpt lat="43.66068" lon="6.68532">
        <ele>707.14</ele>
        <time>2019-12-08T12:47:46.000Z</time>
      </trkpt>
      <trkpt lat="43.66055" lon="6.68534">
        <ele>706.58</ele>
        <time>2019-12-08T12:47:47.000Z</time>
      </trkpt>
      <trkpt lat="43.66042" lon="6.68535">
        <ele>705.47</ele>
        <time>2019-12-08T12:47:48.000Z</time>
      </trkpt>
      <trkpt lat="43.66028" lon="6.68537">
        <ele>704.43</ele>
        <time>2019-12-08T12:47:49.000Z</time>
      </trkpt>
      <trkpt lat="43.66015" lon="6.68538">
        <ele>703.33</ele>
        <time>2019-12-08T12:47:50.000Z</time>
      </trkpt>
      <trkpt lat="43.66002" lon="6.68542">
        <ele>702.23</ele>
        <time>2019-12-08T12:47:51.000Z</time>
      </trkpt>
      <trkpt lat="43.65989" lon="6.68548">
        <ele>701.66</ele>
        <time>2019-12-08T12:47:52.000Z</time>
      </trkpt>
      <trkpt lat="43.65977" lon="6.68557">
        <ele>701.05</ele>
        <time>2019-12-08T12:47:53.000Z</time>
      </trkpt>
      <trkpt lat="43.65965" lon="6.68565">
        <ele>699.79</ele>
        <time>2019-12-08T12:47:54.000Z</time>
      </trkpt>
      <trkpt lat="43.65952" lon="6.6857">
        <ele>698.62</ele>
        <time>2019-12-08T12:47:55.000Z</time>
      </trkpt>
      <trkpt lat="43.65939" lon="6.68575">
        <ele>698.02</ele>
        <time>2019-12-08T12:47:56.000Z</time>
      </trkpt>
      <trkpt lat="43.65925" lon="6.68579">
        <ele>696.87</ele>
        <time>2019-12-08T12:47:57.000Z</time>
      </trkpt>
      <trkpt lat="43.65912" lon="6.68585">
        <ele>695.82</ele>
        <time>2019-12-08T12:47:58.000Z</time>
      </trkpt>
      <trkpt lat="43.659" lon="6.68593">
        <ele>694.68</ele>
        <time>2019-12-08T12:47:59.000Z</time>
      </trkpt>
      <trkpt lat="43.65888" lon="6.68602">
        <ele>694.11</ele>
        <time>2019-12-08T12:48:00.000Z</time>
      </trkpt>
      <trkpt lat="43.65877" lon="6.68611">
        <ele>693.01</ele>
        <time>2019-12-08T12:48:01.000Z</time>
      </trkpt>
      <trkpt lat="43.65865" lon="6.6862">
        <ele>691.8</ele>
        <time>2019-12-08T12:48:02.000Z</time>
      </trkpt>
      <trkpt lat="43.65853" lon="6.6863">
        <ele>690.61</ele>
        <time>2019-12-08T12:48:03.000Z</time>
      </trkpt>
      <trkpt lat="43.65841" lon="6.68639">
        <ele>689.96</ele>
        <time>2019-12-08T12:48:04.000Z</time>
      </trkpt>
      <trkpt lat="43.65829" lon="6.68649">
        <ele>688.73</ele>
        <time>2019-12-08T12:48:05.000Z</time>
      </trkpt>
      <trkpt lat="43.65817" lon="6.68658">
        <ele>687.52</ele>
        <time>2019-12-08T12:48:06.000Z</time>
      </trkpt>
      <trkpt lat="43.65805" lon="6.68667">
        <ele>686.32</ele>
        <time>2019-12-08T12:48:07.000Z</time>
      </trkpt>
      <trkpt lat="43.65793" lon="6.68677">
        <ele>685.8</ele>
        <time>2019-12-08T12:48:08.000Z</time>
      </trkpt>
      <trkpt lat="43.65781" lon="6.68687">
        <ele>684.79</ele>
        <time>2019-12-08T12:48:09.000Z</time>
      </trkpt>
      <trkpt lat="43.65769" lon="6.68696">
        <ele>683.74</ele>
        <time>2019-12-08T12:48:10.000Z</time>
      </trkpt>
      <trkpt lat="43.65758" lon="6.68707">
        <ele>682.62</ele>
        <time>2019-12-08T12:48:11.000Z</time>
      </trkpt>
      <trkpt lat="43.65747" lon="6.68719">
        <ele>682.04</ele>
        <time>2019-12-08T12:48:12.000Z</time>
      </trkpt>
      <trkpt lat="43.65737" lon="6.68732">
        <ele>680.86</ele>
        <time>2019-12-08T12:48:13.000Z</time>
      </trkpt>
      <trkpt lat="43.65728" lon="6.68746">
        <ele>679.75</ele>
        <time>2019-12-08T12:48:14.000Z</time>
      </trkpt>
      <trkpt lat="43.65717" lon="6.68759">
        <ele>678.67</ele>
        <time>2019-12-08T12:48:15.000Z</time>
      </trkpt>
      <trkpt lat="43.65706" lon="6.6877">
        <ele>678.08</ele>
        <time>2019-12-08T12:48:16.000Z</time>
      </trkpt>
      <trkpt lat="43.65693" lon="6.68777">
        <ele>676.93</ele>
        <time>2019-12-08T12:48:17.000Z</time>
      </trkpt>
      <trkpt lat="43.65679" lon="6.68782">
        <ele>675.77</ele>
        <time>2019-12-08T12:48:18.000Z</time>
      </trkpt>
      <trkpt lat="43.65666" lon="6.68787">
        <ele>674.55</ele>
        <time>2019-12-08T12:48:19.000Z</time>
      </trkpt>
      <trkpt lat="43.65652" lon="6.68792">
        <ele>673.35</ele>
        <time>2019-12-08T12:48:20.000Z</time>
      </trkpt>
      <trkpt lat="43.65639" lon="6.68799">
        <ele>672.76</ele>
        <time>2019-12-08T12:48:21.000Z</time>
      </trkpt>
      <trkpt lat="43.65628" lon="6.68809">
        <ele>671.58</ele>
        <time>2019-12-08T12:48:22.000Z</time>
      </trkpt>
      <trkpt lat="43.65618" lon="6.68822">
        <ele>670.99</ele>
        <time>2019-12-08T12:48:23.000Z</time>
      </trkpt>
      <trkpt lat="43.65611" lon="6.68838">
        <ele>669.68</ele>
        <time>2019-12-08T12:48:24.000Z</time>
      </trkpt>
      <trkpt lat="43.65606" lon="6.68855">
        <ele>669.09</ele>
        <time>2019-12-08T12:48:25.000Z</time>
      </trkpt>
      <trkpt lat="43.65601" lon="6.68873">
        <ele>667.88</ele>
        <time>2019-12-08T12:48:26.000Z</time>
      </trkpt>
      <trkpt lat="43.65597" lon="6.6889">
        <ele>666.8</ele>
        <time>2019-12-08T12:48:27.000Z</time>
      </trkpt>
      <trkpt lat="43.65594" lon="6.68907">
        <ele>665.66</ele>
        <time>2019-12-08T12:48:28.000Z</time>
      </trkpt>
      <trkpt lat="43.65594" lon="6.68927">
        <ele>665.17</ele>
        <time>2019-12-08T12:48:29.000Z</time>
      </trkpt>
      <trkpt lat="43.65598" lon="6.68943">
        <ele>665.17</ele>
        <time>2019-12-08T12:48:30.000Z</time>
      </trkpt>
      <trkpt lat="43.65603" lon="6.68957">
        <ele>663.7</ele>
        <time>2019-12-08T12:48:31.000Z</time>
      </trkpt>
      <trkpt lat="43.65607" lon="6.68969">
        <ele>662.25</ele>
        <time>2019-12-08T12:48:32.000Z</time>
      </trkpt>
      <trkpt lat="43.65609" lon="6.6898">
        <ele>661.47</ele>
        <time>2019-12-08T12:48:33.000Z</time>
      </trkpt>
      <trkpt lat="43.65606" lon="6.68988">
        <ele>660.05</ele>
        <time>2019-12-08T12:48:34.000Z</time>
      </trkpt>
      <trkpt lat="43.65598" lon="6.68993">
        <ele>658.81</ele>
        <time>2019-12-08T12:48:35.000Z</time>
      </trkpt>
      <trkpt lat="43.65589" lon="6.68991">
        <ele>657.72</ele>
        <time>2019-12-08T12:48:36.000Z</time>
      </trkpt>
      <trkpt lat="43.65583" lon="6.68981">
        <ele>657.19</ele>
        <time>2019-12-08T12:48:37.000Z</time>
      </trkpt>
      <trkpt lat="43.65578" lon="6.68969">
        <ele>656.21</ele>
        <time>2019-12-08T12:48:38.000Z</time>
      </trkpt>
      <trkpt lat="43.65574" lon="6.68958">
        <ele>655.35</ele>
        <time>2019-12-08T12:48:39.000Z</time>
      </trkpt>
      <trkpt lat="43.65571" lon="6.68945">
        <ele>654.59</ele>
        <time>2019-12-08T12:48:40.000Z</time>
      </trkpt>
      <trkpt lat="43.65568" lon="6.68932">
        <ele>654.24</ele>
        <time>2019-12-08T12:48:41.000Z</time>
      </trkpt>
      <trkpt lat="43.65565" lon="6.68919">
        <ele>653.5</ele>
        <time>2019-12-08T12:48:42.000Z</time>
      </trkpt>
      <trkpt lat="43.65562" lon="6.68905">
        <ele>652.94</ele>
        <time>2019-12-08T12:48:43.000Z</time>
      </trkpt>
      <trkpt lat="43.65559" lon="6.6889">
        <ele>652.35</ele>
        <time>2019-12-08T12:48:44.000Z</time>
      </trkpt>
      <trkpt lat="43.65556" lon="6.68876">
        <ele>652.05</ele>
        <time>2019-12-08T12:48:45.000Z</time>
      </trkpt>
      <trkpt lat="43.65553" lon="6.68861">
        <ele>651.52</ele>
        <time>2019-12-08T12:48:46.000Z</time>
      </trkpt>
      <trkpt lat="43.6555" lon="6.68846">
        <ele>650.89</ele>
        <time>2019-12-08T12:48:47.000Z</time>
      </trkpt>
      <trkpt lat="43.65548" lon="6.6883">
        <ele>650.03</ele>
        <time>2019-12-08T12:48:48.000Z</time>
      </trkpt>
      <trkpt lat="43.65546" lon="6.68814">
        <ele>649.55</ele>
        <time>2019-12-08T12:48:49.000Z</time>
      </trkpt>
      <trkpt lat="43.65546" lon="6.68797">
        <ele>648.52</ele>
        <time>2019-12-08T12:48:50.000Z</time>
      </trkpt>
      <trkpt lat="43.65547" lon="6.6878">
        <ele>647.46</ele>
        <time>2019-12-08T12:48:51.000Z</time>
      </trkpt>
      <trkpt lat="43.65548" lon="6.68764">
        <ele>646.48</ele>
        <time>2019-12-08T12:48:52.000Z</time>
      </trkpt>
      <trkpt lat="43.65549" lon="6.68747">
        <ele>645.63</ele>
        <time>2019-12-08T12:48:53.000Z</time>
      </trkpt>
      <trkpt lat="43.65551" lon="6.6873">
        <ele>645.19</ele>
        <time>2019-12-08T12:48:54.000Z</time>
      </trkpt>
      <trkpt lat="43.65553" lon="6.68713">
        <ele>644.38</ele>
        <time>2019-12-08T12:48:55.000Z</time>
      </trkpt>
      <trkpt lat="43.65557" lon="6.68696">
        <ele>643.53</ele>
        <time>2019-12-08T12:48:56.000Z</time>
      </trkpt>
      <trkpt lat="43.65561" lon="6.68679">
        <ele>643.06</ele>
        <time>2019-12-08T12:48:57.000Z</time>
      </trkpt>
      <trkpt lat="43.65566" lon="6.68663">
        <ele>642.04</ele>
        <time>2019-12-08T12:48:58.000Z</time>
      </trkpt>
      <trkpt lat="43.65572" lon="6.68646">
        <ele>641.1</ele>
        <time>2019-12-08T12:48:59.000Z</time>
      </trkpt>
      <trkpt lat="43.65578" lon="6.6863">
        <ele>640.16</ele>
        <time>2019-12-08T12:49:00.000Z</time>
      </trkpt>
      <trkpt lat="43.65586" lon="6.68615">
        <ele>639.15</ele>
        <time>2019-12-08T12:49:01.000Z</time>
      </trkpt>
      <trkpt lat="43.65594" lon="6.686">
        <ele>638.62</ele>
        <time>2019-12-08T12:49:02.000Z</time>
      </trkpt>
      <trkpt lat="43.65602" lon="6.68587">
        <ele>637.58</ele>
        <time>2019-12-08T12:49:03.000Z</time>
      </trkpt>
      <trkpt lat="43.6561" lon="6.68573">
        <ele>636.47</ele>
        <time>2019-12-08T12:49:04.000Z</time>
      </trkpt>
      <trkpt lat="43.65615" lon="6.68558">
        <ele>636.47</ele>
        <time>2019-12-08T12:49:05.000Z</time>
      </trkpt>
      <trkpt lat="43.65618" lon="6.68542">
        <ele>636.47</ele>
        <time>2019-12-08T12:49:06.000Z</time>
      </trkpt>
      <trkpt lat="43.65619" lon="6.68528">
        <ele>635.54</ele>
        <time>2019-12-08T12:49:07.000Z</time>
      </trkpt>
      <trkpt lat="43.65618" lon="6.68516">
        <ele>634.51</ele>
        <time>2019-12-08T12:49:08.000Z</time>
      </trkpt>
      <trkpt lat="43.65612" lon="6.68503">
        <ele>634.51</ele>
        <time>2019-12-08T12:49:09.000Z</time>
      </trkpt>
      <trkpt lat="43.65604" lon="6.68498">
        <ele>633.45</ele>
        <time>2019-12-08T12:49:10.000Z</time>
      </trkpt>
      <trkpt lat="43.65595" lon="6.68499">
        <ele>632.38</ele>
        <time>2019-12-08T12:49:11.000Z</time>
      </trkpt>
      <trkpt lat="43.65585" lon="6.68504">
        <ele>630.31</ele>
        <time>2019-12-08T12:49:12.000Z</time>
      </trkpt>
      <trkpt lat="43.65576" lon="6.68511">
        <ele>628.3</ele>
        <time>2019-12-08T12:49:13.000Z</time>
      </trkpt>
      <trkpt lat="43.65567" lon="6.68518">
        <ele>627.67</ele>
        <time>2019-12-08T12:49:14.000Z</time>
      </trkpt>
      <trkpt lat="43.65558" lon="6.68525">
        <ele>626.8</ele>
        <time>2019-12-08T12:49:15.000Z</time>
      </trkpt>
      <trkpt lat="43.65548" lon="6.68532">
        <ele>626.14</ele>
        <time>2019-12-08T12:49:16.000Z</time>
      </trkpt>
      <trkpt lat="43.65538" lon="6.68539">
        <ele>625.37</ele>
        <time>2019-12-08T12:49:17.000Z</time>
      </trkpt>
      <trkpt lat="43.65528" lon="6.68546">
        <ele>625.03</ele>
        <time>2019-12-08T12:49:18.000Z</time>
      </trkpt>
      <trkpt lat="43.65517" lon="6.68554">
        <ele>624.25</ele>
        <time>2019-12-08T12:49:19.000Z</time>
      </trkpt>
      <trkpt lat="43.65506" lon="6.68561">
        <ele>623.37</ele>
        <time>2019-12-08T12:49:20.000Z</time>
      </trkpt>
      <trkpt lat="43.65495" lon="6.68569">
        <ele>622.45</ele>
        <time>2019-12-08T12:49:21.000Z</time>
      </trkpt>
      <trkpt lat="43.65484" lon="6.68576">
        <ele>621.54</ele>
        <time>2019-12-08T12:49:22.000Z</time>
      </trkpt>
      <trkpt lat="43.65473" lon="6.68584">
        <ele>621.09</ele>
        <time>2019-12-08T12:49:23.000Z</time>
      </trkpt>
      <trkpt lat="43.65461" lon="6.68591">
        <ele>620.12</ele>
        <time>2019-12-08T12:49:24.000Z</time>
      </trkpt>
      <trkpt lat="43.65449" lon="6.68596">
        <ele>619.24</ele>
        <time>2019-12-08T12:49:25.000Z</time>
      </trkpt>
      <trkpt lat="43.65436" lon="6.68598">
        <ele>618.75</ele>
        <time>2019-12-08T12:49:26.000Z</time>
      </trkpt>
      <trkpt lat="43.65424" lon="6.68598">
        <ele>617.69</ele>
        <time>2019-12-08T12:49:27.000Z</time>
      </trkpt>
      <trkpt lat="43.65411" lon="6.68596">
        <ele>616.59</ele>
        <time>2019-12-08T12:49:28.000Z</time>
      </trkpt>
      <trkpt lat="43.65398" lon="6.68597">
        <ele>615.43</ele>
        <time>2019-12-08T12:49:29.000Z</time>
      </trkpt>
      <trkpt lat="43.65386" lon="6.68604">
        <ele>614.4</ele>
        <time>2019-12-08T12:49:30.000Z</time>
      </trkpt>
      <trkpt lat="43.65375" lon="6.68614">
        <ele>613.92</ele>
        <time>2019-12-08T12:49:31.000Z</time>
      </trkpt>
      <trkpt lat="43.65366" lon="6.68625">
        <ele>612.95</ele>
        <time>2019-12-08T12:49:32.000Z</time>
      </trkpt>
      <trkpt lat="43.65355" lon="6.68636">
        <ele>612.1</ele>
        <time>2019-12-08T12:49:33.000Z</time>
      </trkpt>
      <trkpt lat="43.65344" lon="6.68647">
        <ele>611.63</ele>
        <time>2019-12-08T12:49:34.000Z</time>
      </trkpt>
      <trkpt lat="43.65333" lon="6.68658">
        <ele>610.69</ele>
        <time>2019-12-08T12:49:35.000Z</time>
      </trkpt>
      <trkpt lat="43.65323" lon="6.6867">
        <ele>609.73</ele>
        <time>2019-12-08T12:49:36.000Z</time>
      </trkpt>
      <trkpt lat="43.65312" lon="6.68682">
        <ele>608.7</ele>
        <time>2019-12-08T12:49:37.000Z</time>
      </trkpt>
      <trkpt lat="43.65303" lon="6.68695">
        <ele>607.74</ele>
        <time>2019-12-08T12:49:38.000Z</time>
      </trkpt>
      <trkpt lat="43.65293" lon="6.68708">
        <ele>607.23</ele>
        <time>2019-12-08T12:49:39.000Z</time>
      </trkpt>
      <trkpt lat="43.65283" lon="6.68721">
        <ele>606.24</ele>
        <time>2019-12-08T12:49:40.000Z</time>
      </trkpt>
      <trkpt lat="43.65272" lon="6.68732">
        <ele>605.27</ele>
        <time>2019-12-08T12:49:41.000Z</time>
      </trkpt>
      <trkpt lat="43.65261" lon="6.6874">
        <ele>604.2</ele>
        <time>2019-12-08T12:49:42.000Z</time>
      </trkpt>
      <trkpt lat="43.65248" lon="6.68747">
        <ele>603.63</ele>
        <time>2019-12-08T12:49:43.000Z</time>
      </trkpt>
      <trkpt lat="43.65235" lon="6.68753">
        <ele>602.49</ele>
        <time>2019-12-08T12:49:44.000Z</time>
      </trkpt>
      <trkpt lat="43.65223" lon="6.6876">
        <ele>601.46</ele>
        <time>2019-12-08T12:49:45.000Z</time>
      </trkpt>
      <trkpt lat="43.65209" lon="6.68766">
        <ele>600.39</ele>
        <time>2019-12-08T12:49:46.000Z</time>
      </trkpt>
      <trkpt lat="43.65197" lon="6.68772">
        <ele>599.89</ele>
        <time>2019-12-08T12:49:47.000Z</time>
      </trkpt>
      <trkpt lat="43.65184" lon="6.68778">
        <ele>598.83</ele>
        <time>2019-12-08T12:49:48.000Z</time>
      </trkpt>
      <trkpt lat="43.65171" lon="6.68784">
        <ele>597.66</ele>
        <time>2019-12-08T12:49:49.000Z</time>
      </trkpt>
      <trkpt lat="43.65157" lon="6.68791">
        <ele>596.53</ele>
        <time>2019-12-08T12:49:50.000Z</time>
      </trkpt>
      <trkpt lat="43.65144" lon="6.68796">
        <ele>596.53</ele>
        <time>2019-12-08T12:49:51.000Z</time>
      </trkpt>
      <trkpt lat="43.65131" lon="6.68803">
        <ele>596.53</ele>
        <time>2019-12-08T12:49:52.000Z</time>
      </trkpt>
      <trkpt lat="43.65118" lon="6.68809">
        <ele>594.91</ele>
        <time>2019-12-08T12:49:53.000Z</time>
      </trkpt>
      <trkpt lat="43.65105" lon="6.68816">
        <ele>593.34</ele>
        <time>2019-12-08T12:49:54.000Z</time>
      </trkpt>
      <trkpt lat="43.65092" lon="6.68823">
        <ele>592.59</ele>
        <time>2019-12-08T12:49:55.000Z</time>
      </trkpt>
      <trkpt lat="43.6508" lon="6.68829">
        <ele>591.16</ele>
        <time>2019-12-08T12:49:56.000Z</time>
      </trkpt>
      <trkpt lat="43.65067" lon="6.68829">
        <ele>589.93</ele>
        <time>2019-12-08T12:49:57.000Z</time>
      </trkpt>
      <trkpt lat="43.65055" lon="6.68824">
        <ele>588.78</ele>
        <time>2019-12-08T12:49:58.000Z</time>
      </trkpt>
      <trkpt lat="43.65044" lon="6.68815">
        <ele>587.38</ele>
        <time>2019-12-08T12:49:59.000Z</time>
      </trkpt>
      <trkpt lat="43.65034" lon="6.68805">
        <ele>586.61</ele>
        <time>2019-12-08T12:50:00.000Z</time>
      </trkpt>
      <trkpt lat="43.65023" lon="6.68795">
        <ele>585.13</ele>
        <time>2019-12-08T12:50:01.000Z</time>
      </trkpt>
      <trkpt lat="43.65012" lon="6.68786">
        <ele>583.83</ele>
        <time>2019-12-08T12:50:02.000Z</time>
      </trkpt>
      <trkpt lat="43.65" lon="6.68777">
        <ele>583.29</ele>
        <time>2019-12-08T12:50:03.000Z</time>
      </trkpt>
      <trkpt lat="43.64989" lon="6.68767">
        <ele>582.37</ele>
        <time>2019-12-08T12:50:04.000Z</time>
      </trkpt>
      <trkpt lat="43.64978" lon="6.68758">
        <ele>582.37</ele>
        <time>2019-12-08T12:50:05.000Z</time>
      </trkpt>
      <trkpt lat="43.64966" lon="6.68749">
        <ele>581.8</ele>
        <time>2019-12-08T12:50:06.000Z</time>
      </trkpt>
      <trkpt lat="43.64955" lon="6.6874">
        <ele>580.65</ele>
        <time>2019-12-08T12:50:07.000Z</time>
      </trkpt>
      <trkpt lat="43.64943" lon="6.68731">
        <ele>580.04</ele>
        <time>2019-12-08T12:50:08.000Z</time>
      </trkpt>
      <trkpt lat="43.64933" lon="6.68721">
        <ele>578.69</ele>
        <time>2019-12-08T12:50:09.000Z</time>
      </trkpt>
      <trkpt lat="43.64923" lon="6.68709">
        <ele>577.18</ele>
        <time>2019-12-08T12:50:10.000Z</time>
      </trkpt>
      <trkpt lat="43.64915" lon="6.68694">
        <ele>575.88</ele>
        <time>2019-12-08T12:50:11.000Z</time>
      </trkpt>
      <trkpt lat="43.64909" lon="6.68678">
        <ele>575.2</ele>
        <time>2019-12-08T12:50:12.000Z</time>
      </trkpt>
      <trkpt lat="43.64904" lon="6.68662">
        <ele>573.84</ele>
        <time>2019-12-08T12:50:13.000Z</time>
      </trkpt>
      <trkpt lat="43.64899" lon="6.68645">
        <ele>572.66</ele>
        <time>2019-12-08T12:50:14.000Z</time>
      </trkpt>
      <trkpt lat="43.64895" lon="6.68628">
        <ele>571.57</ele>
        <time>2019-12-08T12:50:15.000Z</time>
      </trkpt>
      <trkpt lat="43.6489" lon="6.68611">
        <ele>571.03</ele>
        <time>2019-12-08T12:50:16.000Z</time>
      </trkpt>
      <trkpt lat="43.64886" lon="6.68593">
        <ele>570.12</ele>
        <time>2019-12-08T12:50:17.000Z</time>
      </trkpt>
      <trkpt lat="43.6488" lon="6.68577">
        <ele>569.12</ele>
        <time>2019-12-08T12:50:18.000Z</time>
      </trkpt>
      <trkpt lat="43.64873" lon="6.68561">
        <ele>568.2</ele>
        <time>2019-12-08T12:50:19.000Z</time>
      </trkpt>
      <trkpt lat="43.64866" lon="6.68545">
        <ele>567.69</ele>
        <time>2019-12-08T12:50:20.000Z</time>
      </trkpt>
      <trkpt lat="43.64858" lon="6.68531">
        <ele>566.62</ele>
        <time>2019-12-08T12:50:21.000Z</time>
      </trkpt>
      <trkpt lat="43.6485" lon="6.68516">
        <ele>565.54</ele>
        <time>2019-12-08T12:50:22.000Z</time>
      </trkpt>
      <trkpt lat="43.64842" lon="6.68501">
        <ele>564.57</ele>
        <time>2019-12-08T12:50:23.000Z</time>
      </trkpt>
      <trkpt lat="43.64834" lon="6.68487">
        <ele>564.03</ele>
        <time>2019-12-08T12:50:24.000Z</time>
      </trkpt>
      <trkpt lat="43.64826" lon="6.68472">
        <ele>563.02</ele>
        <time>2019-12-08T12:50:25.000Z</time>
      </trkpt>
      <trkpt lat="43.64818" lon="6.68458">
        <ele>562</ele>
        <time>2019-12-08T12:50:26.000Z</time>
      </trkpt>
      <trkpt lat="43.64808" lon="6.68445">
        <ele>560.85</ele>
        <time>2019-12-08T12:50:27.000Z</time>
      </trkpt>
      <trkpt lat="43.64797" lon="6.68436">
        <ele>560.29</ele>
        <time>2019-12-08T12:50:28.000Z</time>
      </trkpt>
      <trkpt lat="43.64784" lon="6.68432">
        <ele>559.2</ele>
        <time>2019-12-08T12:50:29.000Z</time>
      </trkpt>
      <trkpt lat="43.64773" lon="6.68427">
        <ele>558.22</ele>
        <time>2019-12-08T12:50:30.000Z</time>
      </trkpt>
      <trkpt lat="43.64763" lon="6.6842">
        <ele>557.19</ele>
        <time>2019-12-08T12:50:31.000Z</time>
      </trkpt>
      <trkpt lat="43.64756" lon="6.68407">
        <ele>556.66</ele>
        <time>2019-12-08T12:50:32.000Z</time>
      </trkpt>
      <trkpt lat="43.64752" lon="6.68393">
        <ele>556.66</ele>
        <time>2019-12-08T12:50:33.000Z</time>
      </trkpt>
      <trkpt lat="43.6475" lon="6.68379">
        <ele>555.93</ele>
        <time>2019-12-08T12:50:34.000Z</time>
      </trkpt>
      <trkpt lat="43.64747" lon="6.68367">
        <ele>554.56</ele>
        <time>2019-12-08T12:50:35.000Z</time>
      </trkpt>
      <trkpt lat="43.64741" lon="6.6836">
        <ele>554.56</ele>
        <time>2019-12-08T12:50:36.000Z</time>
      </trkpt>
      <trkpt lat="43.64735" lon="6.68361">
        <ele>553.69</ele>
        <time>2019-12-08T12:50:37.000Z</time>
      </trkpt>
      <trkpt lat="43.64729" lon="6.68371">
        <ele>552.09</ele>
        <time>2019-12-08T12:50:38.000Z</time>
      </trkpt>
      <trkpt lat="43.64725" lon="6.68384">
        <ele>552.09</ele>
        <time>2019-12-08T12:50:39.000Z</time>
      </trkpt>
      <trkpt lat="43.64725" lon="6.68397">
        <ele>550.41</ele>
        <time>2019-12-08T12:50:40.000Z</time>
      </trkpt>
      <trkpt lat="43.64725" lon="6.6841">
        <ele>550.41</ele>
        <time>2019-12-08T12:50:41.000Z</time>
      </trkpt>
      <trkpt lat="43.64725" lon="6.68425">
        <ele>549.12</ele>
        <time>2019-12-08T12:50:42.000Z</time>
      </trkpt>
      <trkpt lat="43.64727" lon="6.6844">
        <ele>549.12</ele>
        <time>2019-12-08T12:50:43.000Z</time>
      </trkpt>
      <trkpt lat="43.6473" lon="6.68455">
        <ele>547.82</ele>
        <time>2019-12-08T12:50:44.000Z</time>
      </trkpt>
      <trkpt lat="43.64734" lon="6.6847">
        <ele>547.29</ele>
        <time>2019-12-08T12:50:45.000Z</time>
      </trkpt>
      <trkpt lat="43.6474" lon="6.68483">
        <ele>546.28</ele>
        <time>2019-12-08T12:50:46.000Z</time>
      </trkpt>
      <trkpt lat="43.64747" lon="6.68495">
        <ele>545.36</ele>
        <time>2019-12-08T12:50:47.000Z</time>
      </trkpt>
      <trkpt lat="43.64755" lon="6.68508">
        <ele>544.59</ele>
        <time>2019-12-08T12:50:48.000Z</time>
      </trkpt>
      <trkpt lat="43.64762" lon="6.68521">
        <ele>544.36</ele>
        <time>2019-12-08T12:50:49.000Z</time>
      </trkpt>
      <trkpt lat="43.64769" lon="6.68534">
        <ele>543.62</ele>
        <time>2019-12-08T12:50:50.000Z</time>
      </trkpt>
      <trkpt lat="43.64776" lon="6.68549">
        <ele>542.74</ele>
        <time>2019-12-08T12:50:51.000Z</time>
      </trkpt>
      <trkpt lat="43.6478" lon="6.68564">
        <ele>541.67</ele>
        <time>2019-12-08T12:50:52.000Z</time>
      </trkpt>
      <trkpt lat="43.64782" lon="6.68581">
        <ele>541.15</ele>
        <time>2019-12-08T12:50:53.000Z</time>
      </trkpt>
      <trkpt lat="43.64779" lon="6.68599">
        <ele>539.97</ele>
        <time>2019-12-08T12:50:54.000Z</time>
      </trkpt>
      <trkpt lat="43.64775" lon="6.68616">
        <ele>538.98</ele>
        <time>2019-12-08T12:50:55.000Z</time>
      </trkpt>
      <trkpt lat="43.64771" lon="6.68633">
        <ele>538.18</ele>
        <time>2019-12-08T12:50:56.000Z</time>
      </trkpt>
      <trkpt lat="43.64766" lon="6.68649">
        <ele>537.74</ele>
        <time>2019-12-08T12:50:57.000Z</time>
      </trkpt>
      <trkpt lat="43.64761" lon="6.68666">
        <ele>536.77</ele>
        <time>2019-12-08T12:50:58.000Z</time>
      </trkpt>
      <trkpt lat="43.64757" lon="6.68682">
        <ele>535.72</ele>
        <time>2019-12-08T12:50:59.000Z</time>
      </trkpt>
      <trkpt lat="43.64756" lon="6.687">
        <ele>534.66</ele>
        <time>2019-12-08T12:51:00.000Z</time>
      </trkpt>
      <trkpt lat="43.64756" lon="6.68717">
        <ele>534.15</ele>
        <time>2019-12-08T12:51:01.000Z</time>
      </trkpt>
      <trkpt lat="43.64758" lon="6.68735">
        <ele>533.12</ele>
        <time>2019-12-08T12:51:02.000Z</time>
      </trkpt>
      <trkpt lat="43.6476" lon="6.68752">
        <ele>532.11</ele>
        <time>2019-12-08T12:51:03.000Z</time>
      </trkpt>
      <trkpt lat="43.64762" lon="6.68771">
        <ele>531.11</ele>
        <time>2019-12-08T12:51:04.000Z</time>
      </trkpt>
      <trkpt lat="43.64765" lon="6.68789">
        <ele>530.58</ele>
        <time>2019-12-08T12:51:05.000Z</time>
      </trkpt>
      <trkpt lat="43.64767" lon="6.68807">
        <ele>529.48</ele>
        <time>2019-12-08T12:51:06.000Z</time>
      </trkpt>
      <trkpt lat="43.64769" lon="6.68825">
        <ele>528.29</ele>
        <time>2019-12-08T12:51:07.000Z</time>
      </trkpt>
      <trkpt lat="43.64771" lon="6.68843">
        <ele>527.16</ele>
        <time>2019-12-08T12:51:08.000Z</time>
      </trkpt>
      <trkpt lat="43.64774" lon="6.68861">
        <ele>526.06</ele>
        <time>2019-12-08T12:51:09.000Z</time>
      </trkpt>
      <trkpt lat="43.64777" lon="6.68878">
        <ele>525.5</ele>
        <time>2019-12-08T12:51:10.000Z</time>
      </trkpt>
      <trkpt lat="43.64783" lon="6.68894">
        <ele>524.27</ele>
        <time>2019-12-08T12:51:11.000Z</time>
      </trkpt>
      <trkpt lat="43.64791" lon="6.6891">
        <ele>523.2</ele>
        <time>2019-12-08T12:51:12.000Z</time>
      </trkpt>
      <trkpt lat="43.64799" lon="6.68925">
        <ele>522.64</ele>
        <time>2019-12-08T12:51:13.000Z</time>
      </trkpt>
      <trkpt lat="43.64807" lon="6.68939">
        <ele>521.66</ele>
        <time>2019-12-08T12:51:14.000Z</time>
      </trkpt>
      <trkpt lat="43.64815" lon="6.68953">
        <ele>520.76</ele>
        <time>2019-12-08T12:51:15.000Z</time>
      </trkpt>
      <trkpt lat="43.64823" lon="6.68968">
        <ele>519.91</ele>
        <time>2019-12-08T12:51:16.000Z</time>
      </trkpt>
      <trkpt lat="43.6483" lon="6.68983">
        <ele>519.16</ele>
        <time>2019-12-08T12:51:17.000Z</time>
      </trkpt>
      <trkpt lat="43.64834" lon="6.69">
        <ele>518.74</ele>
        <time>2019-12-08T12:51:18.000Z</time>
      </trkpt>
      <trkpt lat="43.64837" lon="6.69017">
        <ele>517.83</ele>
        <time>2019-12-08T12:51:19.000Z</time>
      </trkpt>
      <trkpt lat="43.6484" lon="6.69034">
        <ele>516.66</ele>
        <time>2019-12-08T12:51:20.000Z</time>
      </trkpt>
      <trkpt lat="43.64844" lon="6.6905">
        <ele>515.24</ele>
        <time>2019-12-08T12:51:21.000Z</time>
      </trkpt>
      <trkpt lat="43.6485" lon="6.69066">
        <ele>515.24</ele>
        <time>2019-12-08T12:51:22.000Z</time>
      </trkpt>
      <trkpt lat="43.64859" lon="6.69075">
        <ele>514.48</ele>
        <time>2019-12-08T12:51:23.000Z</time>
      </trkpt>
      <trkpt lat="43.64869" lon="6.69084">
        <ele>512.99</ele>
        <time>2019-12-08T12:51:24.000Z</time>
      </trkpt>
      <trkpt lat="43.64879" lon="6.69093">
        <ele>511.58</ele>
        <time>2019-12-08T12:51:25.000Z</time>
      </trkpt>
      <trkpt lat="43.64888" lon="6.69102">
        <ele>510.99</ele>
        <time>2019-12-08T12:51:26.000Z</time>
      </trkpt>
      <trkpt lat="43.64895" lon="6.69112">
        <ele>509.92</ele>
        <time>2019-12-08T12:51:27.000Z</time>
      </trkpt>
      <trkpt lat="43.64898" lon="6.69125">
        <ele>509.92</ele>
        <time>2019-12-08T12:51:28.000Z</time>
      </trkpt>
      <trkpt lat="43.64897" lon="6.69138">
        <ele>509.92</ele>
        <time>2019-12-08T12:51:29.000Z</time>
      </trkpt>
      <trkpt lat="43.64891" lon="6.69148">
        <ele>509.92</ele>
        <time>2019-12-08T12:51:30.000Z</time>
      </trkpt>
      <trkpt lat="43.64881" lon="6.69155">
        <ele>509.05</ele>
        <time>2019-12-08T12:51:31.000Z</time>
      </trkpt>
      <trkpt lat="43.64871" lon="6.6916">
        <ele>508.12</ele>
        <time>2019-12-08T12:51:32.000Z</time>
      </trkpt>
      <trkpt lat="43.64861" lon="6.69165">
        <ele>506.26</ele>
        <time>2019-12-08T12:51:33.000Z</time>
      </trkpt>
      <trkpt lat="43.6485" lon="6.6917">
        <ele>505.35</ele>
        <time>2019-12-08T12:51:34.000Z</time>
      </trkpt>
      <trkpt lat="43.6484" lon="6.69175">
        <ele>504.41</ele>
        <time>2019-12-08T12:51:35.000Z</time>
      </trkpt>
      <trkpt lat="43.64829" lon="6.69179">
        <ele>503.48</ele>
        <time>2019-12-08T12:51:36.000Z</time>
      </trkpt>
      <trkpt lat="43.64817" lon="6.69184">
        <ele>502.14</ele>
        <time>2019-12-08T12:51:37.000Z</time>
      </trkpt>
      <trkpt lat="43.64806" lon="6.69188">
        <ele>501.7</ele>
        <time>2019-12-08T12:51:38.000Z</time>
      </trkpt>
      <trkpt lat="43.64794" lon="6.69192">
        <ele>501.27</ele>
        <time>2019-12-08T12:51:39.000Z</time>
      </trkpt>
      <trkpt lat="43.64782" lon="6.69197">
        <ele>500.74</ele>
        <time>2019-12-08T12:51:40.000Z</time>
      </trkpt>
      <trkpt lat="43.6477" lon="6.69202">
        <ele>499.73</ele>
        <time>2019-12-08T12:51:41.000Z</time>
      </trkpt>
      <trkpt lat="43.64758" lon="6.69205">
        <ele>499.27</ele>
        <time>2019-12-08T12:51:42.000Z</time>
      </trkpt>
      <trkpt lat="43.64744" lon="6.69202">
        <ele>498.18</ele>
        <time>2019-12-08T12:51:43.000Z</time>
      </trkpt>
      <trkpt lat="43.64732" lon="6.69196">
        <ele>497.02</ele>
        <time>2019-12-08T12:51:44.000Z</time>
      </trkpt>
      <trkpt lat="43.64721" lon="6.6919">
        <ele>496.05</ele>
        <time>2019-12-08T12:51:45.000Z</time>
      </trkpt>
      <trkpt lat="43.6471" lon="6.69182">
        <ele>495.1</ele>
        <time>2019-12-08T12:51:46.000Z</time>
      </trkpt>
      <trkpt lat="43.64699" lon="6.69175">
        <ele>494.66</ele>
        <time>2019-12-08T12:51:47.000Z</time>
      </trkpt>
      <trkpt lat="43.64688" lon="6.69168">
        <ele>493.81</ele>
        <time>2019-12-08T12:51:48.000Z</time>
      </trkpt>
      <trkpt lat="43.64676" lon="6.69161">
        <ele>493.21</ele>
        <time>2019-12-08T12:51:49.000Z</time>
      </trkpt>
      <trkpt lat="43.64666" lon="6.6915">
        <ele>492.83</ele>
        <time>2019-12-08T12:51:50.000Z</time>
      </trkpt>
      <trkpt lat="43.64657" lon="6.69136">
        <ele>492.39</ele>
        <time>2019-12-08T12:51:51.000Z</time>
      </trkpt>
      <trkpt lat="43.64655" lon="6.69119">
        <ele>491.41</ele>
        <time>2019-12-08T12:51:52.000Z</time>
      </trkpt>
      <trkpt lat="43.64652" lon="6.69104">
        <ele>490.33</ele>
        <time>2019-12-08T12:51:53.000Z</time>
      </trkpt>
      <trkpt lat="43.64651" lon="6.69088">
        <ele>489.07</ele>
        <time>2019-12-08T12:51:54.000Z</time>
      </trkpt>
      <trkpt lat="43.64648" lon="6.69072">
        <ele>488.53</ele>
        <time>2019-12-08T12:51:55.000Z</time>
      </trkpt>
      <trkpt lat="43.64646" lon="6.69055">
        <ele>487.56</ele>
        <time>2019-12-08T12:51:56.000Z</time>
      </trkpt>
      <trkpt lat="43.64644" lon="6.69039">
        <ele>486.65</ele>
        <time>2019-12-08T12:51:57.000Z</time>
      </trkpt>
      <trkpt lat="43.64641" lon="6.69022">
        <ele>485.78</ele>
        <time>2019-12-08T12:51:58.000Z</time>
      </trkpt>
      <trkpt lat="43.64637" lon="6.69006">
        <ele>485.33</ele>
        <time>2019-12-08T12:51:59.000Z</time>
      </trkpt>
      <trkpt lat="43.64632" lon="6.68991">
        <ele>484.39</ele>
        <time>2019-12-08T12:52:00.000Z</time>
      </trkpt>
      <trkpt lat="43.64623" lon="6.68979">
        <ele>483.49</ele>
        <time>2019-12-08T12:52:01.000Z</time>
      </trkpt>
      <trkpt lat="43.64613" lon="6.68971">
        <ele>482.61</ele>
        <time>2019-12-08T12:52:02.000Z</time>
      </trkpt>
      <trkpt lat="43.64603" lon="6.68963">
        <ele>482.22</ele>
        <time>2019-12-08T12:52:03.000Z</time>
      </trkpt>
      <trkpt lat="43.64592" lon="6.68957">
        <ele>481.38</ele>
        <time>2019-12-08T12:52:04.000Z</time>
      </trkpt>
      <trkpt lat="43.64581" lon="6.68955">
        <ele>480.6</ele>
        <time>2019-12-08T12:52:05.000Z</time>
      </trkpt>
      <trkpt lat="43.64569" lon="6.68956">
        <ele>479.66</ele>
        <time>2019-12-08T12:52:06.000Z</time>
      </trkpt>
      <trkpt lat="43.64557" lon="6.6896">
        <ele>479.22</ele>
        <time>2019-12-08T12:52:07.000Z</time>
      </trkpt>
      <trkpt lat="43.64544" lon="6.68964">
        <ele>478.78</ele>
        <time>2019-12-08T12:52:08.000Z</time>
      </trkpt>
      <trkpt lat="43.64532" lon="6.68968">
        <ele>477.84</ele>
        <time>2019-12-08T12:52:09.000Z</time>
      </trkpt>
      <trkpt lat="43.64519" lon="6.68971">
        <ele>476.86</ele>
        <time>2019-12-08T12:52:10.000Z</time>
      </trkpt>
      <trkpt lat="43.64507" lon="6.68974">
        <ele>476.45</ele>
        <time>2019-12-08T12:52:11.000Z</time>
      </trkpt>
      <trkpt lat="43.64495" lon="6.68978">
        <ele>476.02</ele>
        <time>2019-12-08T12:52:12.000Z</time>
      </trkpt>
      <trkpt lat="43.64483" lon="6.68983">
        <ele>475.16</ele>
        <time>2019-12-08T12:52:13.000Z</time>
      </trkpt>
      <trkpt lat="43.64472" lon="6.6899">
        <ele>475.16</ele>
        <time>2019-12-08T12:52:14.000Z</time>
      </trkpt>
      <trkpt lat="43.64463" lon="6.68998">
        <ele>475.16</ele>
        <time>2019-12-08T12:52:15.000Z</time>
      </trkpt>
      <trkpt lat="43.64453" lon="6.69008">
        <ele>474.48</ele>
        <time>2019-12-08T12:52:16.000Z</time>
      </trkpt>
      <trkpt lat="43.64444" lon="6.69017">
        <ele>473.94</ele>
        <time>2019-12-08T12:52:17.000Z</time>
      </trkpt>
      <trkpt lat="43.64434" lon="6.69024">
        <ele>473.5</ele>
        <time>2019-12-08T12:52:18.000Z</time>
      </trkpt>
      <trkpt lat="43.64423" lon="6.69029">
        <ele>473.28</ele>
        <time>2019-12-08T12:52:19.000Z</time>
      </trkpt>
      <trkpt lat="43.64412" lon="6.69032">
        <ele>472.81</ele>
        <time>2019-12-08T12:52:20.000Z</time>
      </trkpt>
      <trkpt lat="43.644" lon="6.69034">
        <ele>472.32</ele>
        <time>2019-12-08T12:52:21.000Z</time>
      </trkpt>
      <trkpt lat="43.64388" lon="6.69036">
        <ele>471.88</ele>
        <time>2019-12-08T12:52:22.000Z</time>
      </trkpt>
      <trkpt lat="43.64377" lon="6.69038">
        <ele>471.42</ele>
        <time>2019-12-08T12:52:23.000Z</time>
      </trkpt>
      <trkpt lat="43.64367" lon="6.69041">
        <ele>471.22</ele>
        <time>2019-12-08T12:52:24.000Z</time>
      </trkpt>
      <trkpt lat="43.64355" lon="6.69044">
        <ele>470.76</ele>
        <time>2019-12-08T12:52:25.000Z</time>
      </trkpt>
      <trkpt lat="43.64344" lon="6.69048">
        <ele>470.23</ele>
        <time>2019-12-08T12:52:26.000Z</time>
      </trkpt>
      <trkpt lat="43.64333" lon="6.69053">
        <ele>469.66</ele>
        <time>2019-12-08T12:52:27.000Z</time>
      </trkpt>
      <trkpt lat="43.64322" lon="6.69057">
        <ele>469.34</ele>
        <time>2019-12-08T12:52:28.000Z</time>
      </trkpt>
      <trkpt lat="43.64311" lon="6.69061">
        <ele>468.68</ele>
        <time>2019-12-08T12:52:29.000Z</time>
      </trkpt>
      <trkpt lat="43.643" lon="6.69066">
        <ele>467.98</ele>
        <time>2019-12-08T12:52:30.000Z</time>
      </trkpt>
      <trkpt lat="43.6429" lon="6.69072">
        <ele>467.29</ele>
        <time>2019-12-08T12:52:31.000Z</time>
      </trkpt>
      <trkpt lat="43.6428" lon="6.69081">
        <ele>466.99</ele>
        <time>2019-12-08T12:52:32.000Z</time>
      </trkpt>
      <trkpt lat="43.64271" lon="6.69091">
        <ele>466.47</ele>
        <time>2019-12-08T12:52:33.000Z</time>
      </trkpt>
      <trkpt lat="43.64263" lon="6.69101">
        <ele>466.14</ele>
        <time>2019-12-08T12:52:34.000Z</time>
      </trkpt>
      <trkpt lat="43.64255" lon="6.69111">
        <ele>466.07</ele>
        <time>2019-12-08T12:52:35.000Z</time>
      </trkpt>
      <trkpt lat="43.64248" lon="6.69121">
        <ele>465.98</ele>
        <time>2019-12-08T12:52:36.000Z</time>
      </trkpt>
      <trkpt lat="43.64241" lon="6.69131">
        <ele>466</ele>
        <time>2019-12-08T12:52:37.000Z</time>
      </trkpt>
      <trkpt lat="43.64234" lon="6.6914">
        <ele>466.03</ele>
        <time>2019-12-08T12:52:38.000Z</time>
      </trkpt>
      <trkpt lat="43.64227" lon="6.6915">
        <ele>465.88</ele>
        <time>2019-12-08T12:52:39.000Z</time>
      </trkpt>
      <trkpt lat="43.6422" lon="6.69159">
        <ele>465.83</ele>
        <time>2019-12-08T12:52:40.000Z</time>
      </trkpt>
      <trkpt lat="43.64214" lon="6.69168">
        <ele>465.75</ele>
        <time>2019-12-08T12:52:41.000Z</time>
      </trkpt>
      <trkpt lat="43.64207" lon="6.69177">
        <ele>465.58</ele>
        <time>2019-12-08T12:52:42.000Z</time>
      </trkpt>
      <trkpt lat="43.64201" lon="6.69186">
        <ele>465.49</ele>
        <time>2019-12-08T12:52:43.000Z</time>
      </trkpt>
      <trkpt lat="43.64194" lon="6.69194">
        <ele>465.5</ele>
        <time>2019-12-08T12:52:44.000Z</time>
      </trkpt>
      <trkpt lat="43.64187" lon="6.69202">
        <ele>465.43</ele>
        <time>2019-12-08T12:52:45.000Z</time>
      </trkpt>
      <trkpt lat="43.64179" lon="6.69209">
        <ele>465.33</ele>
        <time>2019-12-08T12:52:46.000Z</time>
      </trkpt>
      <trkpt lat="43.64171" lon="6.69215">
        <ele>465.23</ele>
        <time>2019-12-08T12:52:47.000Z</time>
      </trkpt>
      <trkpt lat="43.64163" lon="6.6922">
        <ele>465.14</ele>
        <time>2019-12-08T12:52:48.000Z</time>
      </trkpt>
      <trkpt lat="43.64155" lon="6.69224">
        <ele>464.92</ele>
        <time>2019-12-08T12:52:49.000Z</time>
      </trkpt>
      <trkpt lat="43.64147" lon="6.69229">
        <ele>464.69</ele>
        <time>2019-12-08T12:52:50.000Z</time>
      </trkpt>
      <trkpt lat="43.64139" lon="6.69232">
        <ele>464.5</ele>
        <time>2019-12-08T12:52:51.000Z</time>
      </trkpt>
      <trkpt lat="43.6413" lon="6.69236">
        <ele>464.45</ele>
        <time>2019-12-08T12:52:52.000Z</time>
      </trkpt>
      <trkpt lat="43.64122" lon="6.6924">
        <ele>464.39</ele>
        <time>2019-12-08T12:52:53.000Z</time>
      </trkpt>
      <trkpt lat="43.64115" lon="6.69244">
        <ele>464.28</ele>
        <time>2019-12-08T12:52:54.000Z</time>
      </trkpt>
      <trkpt lat="43.64108" lon="6.6925">
        <ele>464.22</ele>
        <time>2019-12-08T12:52:55.000Z</time>
      </trkpt>
      <trkpt lat="43.64101" lon="6.69257">
        <ele>464.13</ele>
        <time>2019-12-08T12:52:56.000Z</time>
      </trkpt>
      <trkpt lat="43.64095" lon="6.69265">
        <ele>464.08</ele>
        <time>2019-12-08T12:52:57.000Z</time>
      </trkpt>
      <trkpt lat="43.64088" lon="6.69274">
        <ele>463.99</ele>
        <time>2019-12-08T12:52:58.000Z</time>
      </trkpt>
      <trkpt lat="43.64082" lon="6.69282">
        <ele>463.8</ele>
        <time>2019-12-08T12:52:59.000Z</time>
      </trkpt>
      <trkpt lat="43.64076" lon="6.69291">
        <ele>463.59</ele>
        <time>2019-12-08T12:53:00.000Z</time>
      </trkpt>
      <trkpt lat="43.64069" lon="6.693">
        <ele>463.44</ele>
        <time>2019-12-08T12:53:01.000Z</time>
      </trkpt>
      <trkpt lat="43.64063" lon="6.69309">
        <ele>463.08</ele>
        <time>2019-12-08T12:53:02.000Z</time>
      </trkpt>
      <trkpt lat="43.64056" lon="6.69318">
        <ele>462.8</ele>
        <time>2019-12-08T12:53:03.000Z</time>
      </trkpt>
      <trkpt lat="43.6405" lon="6.69326">
        <ele>462.5</ele>
        <time>2019-12-08T12:53:04.000Z</time>
      </trkpt>
      <trkpt lat="43.64042" lon="6.69334">
        <ele>462.32</ele>
        <time>2019-12-08T12:53:05.000Z</time>
      </trkpt>
      <trkpt lat="43.64035" lon="6.69341">
        <ele>462.01</ele>
        <time>2019-12-08T12:53:06.000Z</time>
      </trkpt>
      <trkpt lat="43.64026" lon="6.69347">
        <ele>461.76</ele>
        <time>2019-12-08T12:53:07.000Z</time>
      </trkpt>
      <trkpt lat="43.64018" lon="6.69353">
        <ele>461.38</ele>
        <time>2019-12-08T12:53:08.000Z</time>
      </trkpt>
      <trkpt lat="43.64009" lon="6.69358">
        <ele>461.15</ele>
        <time>2019-12-08T12:53:09.000Z</time>
      </trkpt>
      <trkpt lat="43.64001" lon="6.69364">
        <ele>460.69</ele>
        <time>2019-12-08T12:53:10.000Z</time>
      </trkpt>
      <trkpt lat="43.63993" lon="6.69372">
        <ele>460.09</ele>
        <time>2019-12-08T12:53:11.000Z</time>
      </trkpt>
      <trkpt lat="43.63985" lon="6.69381">
        <ele>459.44</ele>
        <time>2019-12-08T12:53:12.000Z</time>
      </trkpt>
      <trkpt lat="43.63978" lon="6.6939">
        <ele>459.16</ele>
        <time>2019-12-08T12:53:13.000Z</time>
      </trkpt>
      <trkpt lat="43.6397" lon="6.694">
        <ele>458.5</ele>
        <time>2019-12-08T12:53:14.000Z</time>
      </trkpt>
      <trkpt lat="43.63963" lon="6.69411">
        <ele>457.79</ele>
        <time>2019-12-08T12:53:15.000Z</time>
      </trkpt>
      <trkpt lat="43.63955" lon="6.69422">
        <ele>457.06</ele>
        <time>2019-12-08T12:53:16.000Z</time>
      </trkpt>
      <trkpt lat="43.63948" lon="6.69434">
        <ele>456.64</ele>
        <time>2019-12-08T12:53:17.000Z</time>
      </trkpt>
      <trkpt lat="43.63941" lon="6.69446">
        <ele>455.72</ele>
        <time>2019-12-08T12:53:18.000Z</time>
      </trkpt>
      <trkpt lat="43.63934" lon="6.69459">
        <ele>454.89</ele>
        <time>2019-12-08T12:53:19.000Z</time>
      </trkpt>
      <trkpt lat="43.63926" lon="6.69471">
        <ele>454.09</ele>
        <time>2019-12-08T12:53:20.000Z</time>
      </trkpt>
      <trkpt lat="43.63919" lon="6.69484">
        <ele>453.64</ele>
        <time>2019-12-08T12:53:21.000Z</time>
      </trkpt>
      <trkpt lat="43.63911" lon="6.69496">
        <ele>452.9</ele>
        <time>2019-12-08T12:53:22.000Z</time>
      </trkpt>
      <trkpt lat="43.63903" lon="6.69507">
        <ele>452.23</ele>
        <time>2019-12-08T12:53:23.000Z</time>
      </trkpt>
      <trkpt lat="43.63894" lon="6.69517">
        <ele>451.41</ele>
        <time>2019-12-08T12:53:24.000Z</time>
      </trkpt>
      <trkpt lat="43.63885" lon="6.69526">
        <ele>450.6</ele>
        <time>2019-12-08T12:53:25.000Z</time>
      </trkpt>
      <trkpt lat="43.63875" lon="6.69534">
        <ele>450.19</ele>
        <time>2019-12-08T12:53:26.000Z</time>
      </trkpt>
      <trkpt lat="43.63865" lon="6.69543">
        <ele>449.36</ele>
        <time>2019-12-08T12:53:27.000Z</time>
      </trkpt>
      <trkpt lat="43.63855" lon="6.69552">
        <ele>448.62</ele>
        <time>2019-12-08T12:53:28.000Z</time>
      </trkpt>
      <trkpt lat="43.63846" lon="6.69561">
        <ele>448.26</ele>
        <time>2019-12-08T12:53:29.000Z</time>
      </trkpt>
      <trkpt lat="43.63837" lon="6.6957">
        <ele>447.58</ele>
        <time>2019-12-08T12:53:30.000Z</time>
      </trkpt>
      <trkpt lat="43.63829" lon="6.6958">
        <ele>446.92</ele>
        <time>2019-12-08T12:53:31.000Z</time>
      </trkpt>
      <trkpt lat="43.63823" lon="6.69592">
        <ele>446.4</ele>
        <time>2019-12-08T12:53:32.000Z</time>
      </trkpt>
      <trkpt lat="43.63818" lon="6.69605">
        <ele>445.84</ele>
        <time>2019-12-08T12:53:33.000Z</time>
      </trkpt>
      <trkpt lat="43.63814" lon="6.69618">
        <ele>445.61</ele>
        <time>2019-12-08T12:53:34.000Z</time>
      </trkpt>
      <trkpt lat="43.6381" lon="6.69632">
        <ele>445.12</ele>
        <time>2019-12-08T12:53:35.000Z</time>
      </trkpt>
      <trkpt lat="43.63804" lon="6.69644">
        <ele>444.65</ele>
        <time>2019-12-08T12:53:36.000Z</time>
      </trkpt>
      <trkpt lat="43.63797" lon="6.69654">
        <ele>444.02</ele>
        <time>2019-12-08T12:53:37.000Z</time>
      </trkpt>
      <trkpt lat="43.63788" lon="6.69662">
        <ele>443.73</ele>
        <time>2019-12-08T12:53:38.000Z</time>
      </trkpt>
      <trkpt lat="43.63778" lon="6.69667">
        <ele>443.12</ele>
        <time>2019-12-08T12:53:39.000Z</time>
      </trkpt>
      <trkpt lat="43.63768" lon="6.69673">
        <ele>442.46</ele>
        <time>2019-12-08T12:53:40.000Z</time>
      </trkpt>
      <trkpt lat="43.63757" lon="6.69677">
        <ele>441.8</ele>
        <time>2019-12-08T12:53:41.000Z</time>
      </trkpt>
      <trkpt lat="43.63747" lon="6.69682">
        <ele>441.45</ele>
        <time>2019-12-08T12:53:42.000Z</time>
      </trkpt>
      <trkpt lat="43.63736" lon="6.69687">
        <ele>440.78</ele>
        <time>2019-12-08T12:53:43.000Z</time>
      </trkpt>
      <trkpt lat="43.63725" lon="6.69692">
        <ele>440.78</ele>
        <time>2019-12-08T12:53:44.000Z</time>
      </trkpt>
      <trkpt lat="43.63714" lon="6.69697">
        <ele>439.74</ele>
        <time>2019-12-08T12:53:45.000Z</time>
      </trkpt>
      <trkpt lat="43.63704" lon="6.69703">
        <ele>439.23</ele>
        <time>2019-12-08T12:53:46.000Z</time>
      </trkpt>
      <trkpt lat="43.63694" lon="6.69711">
        <ele>438.25</ele>
        <time>2019-12-08T12:53:47.000Z</time>
      </trkpt>
      <trkpt lat="43.63685" lon="6.69721">
        <ele>437.29</ele>
        <time>2019-12-08T12:53:48.000Z</time>
      </trkpt>
      <trkpt lat="43.63677" lon="6.69733">
        <ele>437.29</ele>
        <time>2019-12-08T12:53:49.000Z</time>
      </trkpt>
      <trkpt lat="43.6367" lon="6.69746">
        <ele>436.3</ele>
        <time>2019-12-08T12:53:50.000Z</time>
      </trkpt>
      <trkpt lat="43.63662" lon="6.69759">
        <ele>435.42</ele>
        <time>2019-12-08T12:53:51.000Z</time>
      </trkpt>
      <trkpt lat="43.63654" lon="6.69771">
        <ele>434.42</ele>
        <time>2019-12-08T12:53:52.000Z</time>
      </trkpt>
      <trkpt lat="43.63646" lon="6.69784">
        <ele>433.4</ele>
        <time>2019-12-08T12:53:53.000Z</time>
      </trkpt>
      <trkpt lat="43.63638" lon="6.69797">
        <ele>432.61</ele>
        <time>2019-12-08T12:53:54.000Z</time>
      </trkpt>
      <trkpt lat="43.6363" lon="6.6981">
        <ele>432.23</ele>
        <time>2019-12-08T12:53:55.000Z</time>
      </trkpt>
      <trkpt lat="43.63622" lon="6.69823">
        <ele>431.42</ele>
        <time>2019-12-08T12:53:56.000Z</time>
      </trkpt>
      <trkpt lat="43.63615" lon="6.69836">
        <ele>430.75</ele>
        <time>2019-12-08T12:53:57.000Z</time>
      </trkpt>
      <trkpt lat="43.63607" lon="6.69849">
        <ele>430.46</ele>
        <time>2019-12-08T12:53:58.000Z</time>
      </trkpt>
      <trkpt lat="43.636" lon="6.69861">
        <ele>429.89</ele>
        <time>2019-12-08T12:53:59.000Z</time>
      </trkpt>
      <trkpt lat="43.63593" lon="6.69874">
        <ele>429.48</ele>
        <time>2019-12-08T12:54:00.000Z</time>
      </trkpt>
      <trkpt lat="43.63587" lon="6.69888">
        <ele>429.11</ele>
        <time>2019-12-08T12:54:01.000Z</time>
      </trkpt>
      <trkpt lat="43.63582" lon="6.69902">
        <ele>428.79</ele>
        <time>2019-12-08T12:54:02.000Z</time>
      </trkpt>
      <trkpt lat="43.63578" lon="6.69917">
        <ele>428.64</ele>
        <time>2019-12-08T12:54:03.000Z</time>
      </trkpt>
      <trkpt lat="43.63576" lon="6.69932">
        <ele>428.32</ele>
        <time>2019-12-08T12:54:04.000Z</time>
      </trkpt>
      <trkpt lat="43.63575" lon="6.69947">
        <ele>428.04</ele>
        <time>2019-12-08T12:54:05.000Z</time>
      </trkpt>
      <trkpt lat="43.63573" lon="6.69962">
        <ele>427.85</ele>
        <time>2019-12-08T12:54:06.000Z</time>
      </trkpt>
      <trkpt lat="43.6357" lon="6.69976">
        <ele>427.57</ele>
        <time>2019-12-08T12:54:07.000Z</time>
      </trkpt>
      <trkpt lat="43.63567" lon="6.69991">
        <ele>426.89</ele>
        <time>2019-12-08T12:54:08.000Z</time>
      </trkpt>
      <trkpt lat="43.63562" lon="6.70004">
        <ele>426.27</ele>
        <time>2019-12-08T12:54:09.000Z</time>
      </trkpt>
      <trkpt lat="43.63558" lon="6.70018">
        <ele>425.66</ele>
        <time>2019-12-08T12:54:10.000Z</time>
      </trkpt>
      <trkpt lat="43.63553" lon="6.70031">
        <ele>425.4</ele>
        <time>2019-12-08T12:54:11.000Z</time>
      </trkpt>
      <trkpt lat="43.63549" lon="6.70045">
        <ele>425.03</ele>
        <time>2019-12-08T12:54:12.000Z</time>
      </trkpt>
      <trkpt lat="43.63545" lon="6.70059">
        <ele>424.73</ele>
        <time>2019-12-08T12:54:13.000Z</time>
      </trkpt>
      <trkpt lat="43.63543" lon="6.70073">
        <ele>424.37</ele>
        <time>2019-12-08T12:54:14.000Z</time>
      </trkpt>
      <trkpt lat="43.63542" lon="6.70087">
        <ele>424.18</ele>
        <time>2019-12-08T12:54:15.000Z</time>
      </trkpt>
      <trkpt lat="43.63541" lon="6.70102">
        <ele>423.81</ele>
        <time>2019-12-08T12:54:16.000Z</time>
      </trkpt>
      <trkpt lat="43.6354" lon="6.70116">
        <ele>423.48</ele>
        <time>2019-12-08T12:54:17.000Z</time>
      </trkpt>
      <trkpt lat="43.6354" lon="6.7013">
        <ele>423.1</ele>
        <time>2019-12-08T12:54:18.000Z</time>
      </trkpt>
      <trkpt lat="43.63539" lon="6.70145">
        <ele>422.86</ele>
        <time>2019-12-08T12:54:19.000Z</time>
      </trkpt>
      <trkpt lat="43.63538" lon="6.70159">
        <ele>422.51</ele>
        <time>2019-12-08T12:54:20.000Z</time>
      </trkpt>
      <trkpt lat="43.63536" lon="6.70173">
        <ele>422.05</ele>
        <time>2019-12-08T12:54:21.000Z</time>
      </trkpt>
      <trkpt lat="43.63533" lon="6.70188">
        <ele>421.6</ele>
        <time>2019-12-08T12:54:22.000Z</time>
      </trkpt>
      <trkpt lat="43.6353" lon="6.70202">
        <ele>421.39</ele>
        <time>2019-12-08T12:54:23.000Z</time>
      </trkpt>
      <trkpt lat="43.63527" lon="6.70216">
        <ele>420.99</ele>
        <time>2019-12-08T12:54:24.000Z</time>
      </trkpt>
      <trkpt lat="43.63523" lon="6.7023">
        <ele>420.51</ele>
        <time>2019-12-08T12:54:25.000Z</time>
      </trkpt>
      <trkpt lat="43.63519" lon="6.70244">
        <ele>420.03</ele>
        <time>2019-12-08T12:54:26.000Z</time>
      </trkpt>
      <trkpt lat="43.63515" lon="6.70257">
        <ele>419.78</ele>
        <time>2019-12-08T12:54:27.000Z</time>
      </trkpt>
      <trkpt lat="43.63511" lon="6.70271">
        <ele>419.29</ele>
        <time>2019-12-08T12:54:28.000Z</time>
      </trkpt>
      <trkpt lat="43.63506" lon="6.70283">
        <ele>418.84</ele>
        <time>2019-12-08T12:54:29.000Z</time>
      </trkpt>
      <trkpt lat="43.63499" lon="6.70295">
        <ele>418.5</ele>
        <time>2019-12-08T12:54:30.000Z</time>
      </trkpt>
      <trkpt lat="43.63492" lon="6.70305">
        <ele>418.16</ele>
        <time>2019-12-08T12:54:31.000Z</time>
      </trkpt>
      <trkpt lat="43.63484" lon="6.70315">
        <ele>418.01</ele>
        <time>2019-12-08T12:54:32.000Z</time>
      </trkpt>
      <trkpt lat="43.63476" lon="6.70323">
        <ele>417.69</ele>
        <time>2019-12-08T12:54:33.000Z</time>
      </trkpt>
      <trkpt lat="43.63467" lon="6.70331">
        <ele>417.36</ele>
        <time>2019-12-08T12:54:34.000Z</time>
      </trkpt>
      <trkpt lat="43.63458" lon="6.70338">
        <ele>417.16</ele>
        <time>2019-12-08T12:54:35.000Z</time>
      </trkpt>
      <trkpt lat="43.63448" lon="6.70343">
        <ele>416.76</ele>
        <time>2019-12-08T12:54:36.000Z</time>
      </trkpt>
      <trkpt lat="43.63438" lon="6.70348">
        <ele>416.35</ele>
        <time>2019-12-08T12:54:37.000Z</time>
      </trkpt>
      <trkpt lat="43.63428" lon="6.7035">
        <ele>415.9</ele>
        <time>2019-12-08T12:54:38.000Z</time>
      </trkpt>
      <trkpt lat="43.63417" lon="6.70349">
        <ele>415.35</ele>
        <time>2019-12-08T12:54:39.000Z</time>
      </trkpt>
      <trkpt lat="43.63407" lon="6.70346">
        <ele>415.08</ele>
        <time>2019-12-08T12:54:40.000Z</time>
      </trkpt>
      <trkpt lat="43.63396" lon="6.70342">
        <ele>414.57</ele>
        <time>2019-12-08T12:54:41.000Z</time>
      </trkpt>
      <trkpt lat="43.63385" lon="6.70339">
        <ele>414.06</ele>
        <time>2019-12-08T12:54:42.000Z</time>
      </trkpt>
      <trkpt lat="43.63375" lon="6.70335">
        <ele>413.64</ele>
        <time>2019-12-08T12:54:43.000Z</time>
      </trkpt>
      <trkpt lat="43.63364" lon="6.70331">
        <ele>413.47</ele>
        <time>2019-12-08T12:54:44.000Z</time>
      </trkpt>
      <trkpt lat="43.63354" lon="6.70328">
        <ele>413.11</ele>
        <time>2019-12-08T12:54:45.000Z</time>
      </trkpt>
      <trkpt lat="43.63343" lon="6.70325">
        <ele>412.62</ele>
        <time>2019-12-08T12:54:46.000Z</time>
      </trkpt>
      <trkpt lat="43.63333" lon="6.70321">
        <ele>412.15</ele>
        <time>2019-12-08T12:54:47.000Z</time>
      </trkpt>
      <trkpt lat="43.63322" lon="6.70318">
        <ele>411.95</ele>
        <time>2019-12-08T12:54:48.000Z</time>
      </trkpt>
      <trkpt lat="43.63312" lon="6.70315">
        <ele>411.46</ele>
        <time>2019-12-08T12:54:49.000Z</time>
      </trkpt>
      <trkpt lat="43.63301" lon="6.70311">
        <ele>410.99</ele>
        <time>2019-12-08T12:54:50.000Z</time>
      </trkpt>
      <trkpt lat="43.63291" lon="6.70308">
        <ele>410.6</ele>
        <time>2019-12-08T12:54:51.000Z</time>
      </trkpt>
      <trkpt lat="43.63281" lon="6.70304">
        <ele>410.39</ele>
        <time>2019-12-08T12:54:52.000Z</time>
      </trkpt>
      <trkpt lat="43.6327" lon="6.70301">
        <ele>410.19</ele>
        <time>2019-12-08T12:54:53.000Z</time>
      </trkpt>
      <trkpt lat="43.6326" lon="6.70298">
        <ele>409.86</ele>
        <time>2019-12-08T12:54:54.000Z</time>
      </trkpt>
      <trkpt lat="43.6325" lon="6.70295">
        <ele>409.57</ele>
        <time>2019-12-08T12:54:55.000Z</time>
      </trkpt>
      <trkpt lat="43.6324" lon="6.70292">
        <ele>409.44</ele>
        <time>2019-12-08T12:54:56.000Z</time>
      </trkpt>
      <trkpt lat="43.63231" lon="6.70289">
        <ele>409.32</ele>
        <time>2019-12-08T12:54:57.000Z</time>
      </trkpt>
      <trkpt lat="43.63222" lon="6.70285">
        <ele>409.16</ele>
        <time>2019-12-08T12:54:58.000Z</time>
      </trkpt>
      <trkpt lat="43.63212" lon="6.70282">
        <ele>409.06</ele>
        <time>2019-12-08T12:54:59.000Z</time>
      </trkpt>
      <trkpt lat="43.63203" lon="6.7028">
        <ele>408.97</ele>
        <time>2019-12-08T12:55:00.000Z</time>
      </trkpt>
      <trkpt lat="43.63193" lon="6.70277">
        <ele>408.87</ele>
        <time>2019-12-08T12:55:01.000Z</time>
      </trkpt>
      <trkpt lat="43.63184" lon="6.70273">
        <ele>408.71</ele>
        <time>2019-12-08T12:55:02.000Z</time>
      </trkpt>
      <trkpt lat="43.63176" lon="6.70269">
        <ele>408.61</ele>
        <time>2019-12-08T12:55:03.000Z</time>
      </trkpt>
      <trkpt lat="43.63167" lon="6.70264">
        <ele>408.53</ele>
        <time>2019-12-08T12:55:04.000Z</time>
      </trkpt>
      <trkpt lat="43.63159" lon="6.70259">
        <ele>408.33</ele>
        <time>2019-12-08T12:55:05.000Z</time>
      </trkpt>
      <trkpt lat="43.6315" lon="6.70254">
        <ele>408.02</ele>
        <time>2019-12-08T12:55:06.000Z</time>
      </trkpt>
      <trkpt lat="43.63141" lon="6.7025">
        <ele>407.68</ele>
        <time>2019-12-08T12:55:07.000Z</time>
      </trkpt>
      <trkpt lat="43.63131" lon="6.70247">
        <ele>407.15</ele>
        <time>2019-12-08T12:55:08.000Z</time>
      </trkpt>
      <trkpt lat="43.63121" lon="6.70244">
        <ele>406.82</ele>
        <time>2019-12-08T12:55:09.000Z</time>
      </trkpt>
      <trkpt lat="43.6311" lon="6.70242">
        <ele>406.05</ele>
        <time>2019-12-08T12:55:10.000Z</time>
      </trkpt>
      <trkpt lat="43.631" lon="6.70239">
        <ele>406.05</ele>
        <time>2019-12-08T12:55:11.000Z</time>
      </trkpt>
      <trkpt lat="43.63089" lon="6.70237">
        <ele>404.7</ele>
        <time>2019-12-08T12:55:12.000Z</time>
      </trkpt>
      <trkpt lat="43.63078" lon="6.70235">
        <ele>404.24</ele>
        <time>2019-12-08T12:55:13.000Z</time>
      </trkpt>
      <trkpt lat="43.63067" lon="6.70233">
        <ele>403.42</ele>
        <time>2019-12-08T12:55:14.000Z</time>
      </trkpt>
      <trkpt lat="43.63056" lon="6.7023">
        <ele>402.82</ele>
        <time>2019-12-08T12:55:15.000Z</time>
      </trkpt>
      <trkpt lat="43.63045" lon="6.70228">
        <ele>402.35</ele>
        <time>2019-12-08T12:55:16.000Z</time>
      </trkpt>
      <trkpt lat="43.63034" lon="6.70225">
        <ele>402.19</ele>
        <time>2019-12-08T12:55:17.000Z</time>
      </trkpt>
      <trkpt lat="43.63024" lon="6.70223">
        <ele>401.91</ele>
        <time>2019-12-08T12:55:18.000Z</time>
      </trkpt>
      <trkpt lat="43.63014" lon="6.70221">
        <ele>401.68</ele>
        <time>2019-12-08T12:55:19.000Z</time>
      </trkpt>
      <trkpt lat="43.63004" lon="6.70218">
        <ele>401.51</ele>
        <time>2019-12-08T12:55:20.000Z</time>
      </trkpt>
      <trkpt lat="43.62994" lon="6.70215">
        <ele>401.43</ele>
        <time>2019-12-08T12:55:21.000Z</time>
      </trkpt>
      <trkpt lat="43.62985" lon="6.70211">
        <ele>401.27</ele>
        <time>2019-12-08T12:55:22.000Z</time>
      </trkpt>
      <trkpt lat="43.62975" lon="6.70207">
        <ele>401.16</ele>
        <time>2019-12-08T12:55:23.000Z</time>
      </trkpt>
      <trkpt lat="43.62967" lon="6.70201">
        <ele>401</ele>
        <time>2019-12-08T12:55:24.000Z</time>
      </trkpt>
      <trkpt lat="43.62958" lon="6.70195">
        <ele>400.94</ele>
        <time>2019-12-08T12:55:25.000Z</time>
      </trkpt>
      <trkpt lat="43.6295" lon="6.70189">
        <ele>400.79</ele>
        <time>2019-12-08T12:55:26.000Z</time>
      </trkpt>
      <trkpt lat="43.62942" lon="6.70183">
        <ele>400.62</ele>
        <time>2019-12-08T12:55:27.000Z</time>
      </trkpt>
      <trkpt lat="43.62934" lon="6.70177">
        <ele>400.49</ele>
        <time>2019-12-08T12:55:28.000Z</time>
      </trkpt>
      <trkpt lat="43.62926" lon="6.70171">
        <ele>400.43</ele>
        <time>2019-12-08T12:55:29.000Z</time>
      </trkpt>
      <trkpt lat="43.62918" lon="6.70165">
        <ele>400.29</ele>
        <time>2019-12-08T12:55:30.000Z</time>
      </trkpt>
      <trkpt lat="43.62911" lon="6.70158">
        <ele>400.2</ele>
        <time>2019-12-08T12:55:31.000Z</time>
      </trkpt>
      <trkpt lat="43.62903" lon="6.7015">
        <ele>400.15</ele>
        <time>2019-12-08T12:55:32.000Z</time>
      </trkpt>
      <trkpt lat="43.62897" lon="6.70143">
        <ele>400.15</ele>
        <time>2019-12-08T12:55:33.000Z</time>
      </trkpt>
      <trkpt lat="43.6289" lon="6.70136">
        <ele>400.11</ele>
        <time>2019-12-08T12:55:34.000Z</time>
      </trkpt>
      <trkpt lat="43.62883" lon="6.70129">
        <ele>400.03</ele>
        <time>2019-12-08T12:55:35.000Z</time>
      </trkpt>
      <trkpt lat="43.62876" lon="6.70121">
        <ele>399.92</ele>
        <time>2019-12-08T12:55:36.000Z</time>
      </trkpt>
      <trkpt lat="43.6287" lon="6.70114">
        <ele>399.85</ele>
        <time>2019-12-08T12:55:37.000Z</time>
      </trkpt>
      <trkpt lat="43.62863" lon="6.70107">
        <ele>399.77</ele>
        <time>2019-12-08T12:55:38.000Z</time>
      </trkpt>
      <trkpt lat="43.62857" lon="6.701">
        <ele>399.7</ele>
        <time>2019-12-08T12:55:39.000Z</time>
      </trkpt>
      <trkpt lat="43.62851" lon="6.70092">
        <ele>399.65</ele>
        <time>2019-12-08T12:55:40.000Z</time>
      </trkpt>
      <trkpt lat="43.62846" lon="6.70084">
        <ele>399.61</ele>
        <time>2019-12-08T12:55:41.000Z</time>
      </trkpt>
      <trkpt lat="43.6284" lon="6.70075">
        <ele>399.44</ele>
        <time>2019-12-08T12:55:42.000Z</time>
      </trkpt>
      <trkpt lat="43.62835" lon="6.70066">
        <ele>399.22</ele>
        <time>2019-12-08T12:55:43.000Z</time>
      </trkpt>
      <trkpt lat="43.6283" lon="6.70056">
        <ele>398.91</ele>
        <time>2019-12-08T12:55:44.000Z</time>
      </trkpt>
      <trkpt lat="43.62826" lon="6.70045">
        <ele>398.74</ele>
        <time>2019-12-08T12:55:45.000Z</time>
      </trkpt>
      <trkpt lat="43.62821" lon="6.70035">
        <ele>398.32</ele>
        <time>2019-12-08T12:55:46.000Z</time>
      </trkpt>
      <trkpt lat="43.62816" lon="6.70024">
        <ele>397.8</ele>
        <time>2019-12-08T12:55:47.000Z</time>
      </trkpt>
      <trkpt lat="43.62812" lon="6.70013">
        <ele>397.2</ele>
        <time>2019-12-08T12:55:48.000Z</time>
      </trkpt>
      <trkpt lat="43.62807" lon="6.70001">
        <ele>396.4</ele>
        <time>2019-12-08T12:55:49.000Z</time>
      </trkpt>
      <trkpt lat="43.62803" lon="6.69989">
        <ele>396.02</ele>
        <time>2019-12-08T12:55:50.000Z</time>
      </trkpt>
      <trkpt lat="43.62799" lon="6.69977">
        <ele>395.3</ele>
        <time>2019-12-08T12:55:51.000Z</time>
      </trkpt>
      <trkpt lat="43.62795" lon="6.69964">
        <ele>394.58</ele>
        <time>2019-12-08T12:55:52.000Z</time>
      </trkpt>
      <trkpt lat="43.62792" lon="6.69951">
        <ele>394.05</ele>
        <time>2019-12-08T12:55:53.000Z</time>
      </trkpt>
      <trkpt lat="43.62789" lon="6.69938">
        <ele>393.8</ele>
        <time>2019-12-08T12:55:54.000Z</time>
      </trkpt>
      <trkpt lat="43.62787" lon="6.69924">
        <ele>393.18</ele>
        <time>2019-12-08T12:55:55.000Z</time>
      </trkpt>
      <trkpt lat="43.62785" lon="6.6991">
        <ele>392.43</ele>
        <time>2019-12-08T12:55:56.000Z</time>
      </trkpt>
      <trkpt lat="43.62784" lon="6.69896">
        <ele>391.52</ele>
        <time>2019-12-08T12:55:57.000Z</time>
      </trkpt>
      <trkpt lat="43.62781" lon="6.69883">
        <ele>390.95</ele>
        <time>2019-12-08T12:55:58.000Z</time>
      </trkpt>
      <trkpt lat="43.62775" lon="6.69871">
        <ele>390.95</ele>
        <time>2019-12-08T12:55:59.000Z</time>
      </trkpt>
      <trkpt lat="43.62767" lon="6.69861">
        <ele>389.81</ele>
        <time>2019-12-08T12:56:00.000Z</time>
      </trkpt>
      <trkpt lat="43.62757" lon="6.69855">
        <ele>388.77</ele>
        <time>2019-12-08T12:56:01.000Z</time>
      </trkpt>
      <trkpt lat="43.62747" lon="6.69849">
        <ele>388.28</ele>
        <time>2019-12-08T12:56:02.000Z</time>
      </trkpt>
      <trkpt lat="43.62737" lon="6.69842">
        <ele>387.35</ele>
        <time>2019-12-08T12:56:03.000Z</time>
      </trkpt>
      <trkpt lat="43.62728" lon="6.69836">
        <ele>386.67</ele>
        <time>2019-12-08T12:56:04.000Z</time>
      </trkpt>
      <trkpt lat="43.62718" lon="6.69829">
        <ele>386.04</ele>
        <time>2019-12-08T12:56:05.000Z</time>
      </trkpt>
      <trkpt lat="43.62708" lon="6.69823">
        <ele>385.67</ele>
        <time>2019-12-08T12:56:06.000Z</time>
      </trkpt>
      <trkpt lat="43.62698" lon="6.69819">
        <ele>384.85</ele>
        <time>2019-12-08T12:56:07.000Z</time>
      </trkpt>
      <trkpt lat="43.62687" lon="6.69816">
        <ele>384.05</ele>
        <time>2019-12-08T12:56:08.000Z</time>
      </trkpt>
      <trkpt lat="43.62676" lon="6.69814">
        <ele>383.18</ele>
        <time>2019-12-08T12:56:09.000Z</time>
      </trkpt>
      <trkpt lat="43.62665" lon="6.69813">
        <ele>382.72</ele>
        <time>2019-12-08T12:56:10.000Z</time>
      </trkpt>
      <trkpt lat="43.62654" lon="6.69813">
        <ele>381.88</ele>
        <time>2019-12-08T12:56:11.000Z</time>
      </trkpt>
      <trkpt lat="43.62643" lon="6.69813">
        <ele>381.05</ele>
        <time>2019-12-08T12:56:12.000Z</time>
      </trkpt>
      <trkpt lat="43.62632" lon="6.69813">
        <ele>380.61</ele>
        <time>2019-12-08T12:56:13.000Z</time>
      </trkpt>
      <trkpt lat="43.62621" lon="6.69812">
        <ele>380.11</ele>
        <time>2019-12-08T12:56:14.000Z</time>
      </trkpt>
      <trkpt lat="43.62609" lon="6.69812">
        <ele>379.02</ele>
        <time>2019-12-08T12:56:15.000Z</time>
      </trkpt>
      <trkpt lat="43.62598" lon="6.69811">
        <ele>377.95</ele>
        <time>2019-12-08T12:56:16.000Z</time>
      </trkpt>
      <trkpt lat="43.62587" lon="6.69811">
        <ele>376.88</ele>
        <time>2019-12-08T12:56:17.000Z</time>
      </trkpt>
      <trkpt lat="43.62576" lon="6.6981">
        <ele>375.97</ele>
        <time>2019-12-08T12:56:18.000Z</time>
      </trkpt>
      <trkpt lat="43.62564" lon="6.69811">
        <ele>375.54</ele>
        <time>2019-12-08T12:56:19.000Z</time>
      </trkpt>
      <trkpt lat="43.62553" lon="6.69811">
        <ele>374.77</ele>
        <time>2019-12-08T12:56:20.000Z</time>
      </trkpt>
      <trkpt lat="43.62542" lon="6.6981">
        <ele>374.08</ele>
        <time>2019-12-08T12:56:21.000Z</time>
      </trkpt>
      <trkpt lat="43.6253" lon="6.69807">
        <ele>373.78</ele>
        <time>2019-12-08T12:56:22.000Z</time>
      </trkpt>
      <trkpt lat="43.6252" lon="6.69803">
        <ele>373.33</ele>
        <time>2019-12-08T12:56:23.000Z</time>
      </trkpt>
      <trkpt lat="43.62511" lon="6.69797">
        <ele>373.33</ele>
        <time>2019-12-08T12:56:24.000Z</time>
      </trkpt>
      <trkpt lat="43.62501" lon="6.69791">
        <ele>373.33</ele>
        <time>2019-12-08T12:56:25.000Z</time>
      </trkpt>
      <trkpt lat="43.62492" lon="6.69783">
        <ele>373.33</ele>
        <time>2019-12-08T12:56:26.000Z</time>
      </trkpt>
      <trkpt lat="43.62483" lon="6.69775">
        <ele>373.33</ele>
        <time>2019-12-08T12:56:27.000Z</time>
      </trkpt>
      <trkpt lat="43.62474" lon="6.69767">
        <ele>371.64</ele>
        <time>2019-12-08T12:56:28.000Z</time>
      </trkpt>
      <trkpt lat="43.62465" lon="6.69759">
        <ele>369.88</ele>
        <time>2019-12-08T12:56:29.000Z</time>
      </trkpt>
      <trkpt lat="43.62456" lon="6.69752">
        <ele>368.06</ele>
        <time>2019-12-08T12:56:30.000Z</time>
      </trkpt>
      <trkpt lat="43.62447" lon="6.69744">
        <ele>367.1</ele>
        <time>2019-12-08T12:56:31.000Z</time>
      </trkpt>
      <trkpt lat="43.62439" lon="6.69736">
        <ele>365.85</ele>
        <time>2019-12-08T12:56:32.000Z</time>
      </trkpt>
      <trkpt lat="43.6243" lon="6.69729">
        <ele>364.99</ele>
        <time>2019-12-08T12:56:33.000Z</time>
      </trkpt>
      <trkpt lat="43.62423" lon="6.69723">
        <ele>364.02</ele>
        <time>2019-12-08T12:56:34.000Z</time>
      </trkpt>
      <trkpt lat="43.62417" lon="6.69718">
        <ele>363.5</ele>
        <time>2019-12-08T12:56:35.000Z</time>
      </trkpt>
      <trkpt lat="43.62411" lon="6.69714">
        <ele>362.46</ele>
        <time>2019-12-08T12:56:36.000Z</time>
      </trkpt>
      <trkpt lat="43.62405" lon="6.69708">
        <ele>361.53</ele>
        <time>2019-12-08T12:56:37.000Z</time>
      </trkpt>
      <trkpt lat="43.62399" lon="6.69702">
        <ele>360.81</ele>
        <time>2019-12-08T12:56:38.000Z</time>
      </trkpt>
      <trkpt lat="43.62394" lon="6.69694">
        <ele>360.51</ele>
        <time>2019-12-08T12:56:39.000Z</time>
      </trkpt>
      <trkpt lat="43.6239" lon="6.69685">
        <ele>359.98</ele>
        <time>2019-12-08T12:56:40.000Z</time>
      </trkpt>
      <trkpt lat="43.62387" lon="6.69674">
        <ele>359.37</ele>
        <time>2019-12-08T12:56:41.000Z</time>
      </trkpt>
      <trkpt lat="43.62385" lon="6.69663">
        <ele>358.69</ele>
        <time>2019-12-08T12:56:42.000Z</time>
      </trkpt>
      <trkpt lat="43.62383" lon="6.69651">
        <ele>358.34</ele>
        <time>2019-12-08T12:56:43.000Z</time>
      </trkpt>
      <trkpt lat="43.62382" lon="6.6964">
        <ele>357.86</ele>
        <time>2019-12-08T12:56:44.000Z</time>
      </trkpt>
      <trkpt lat="43.6238" lon="6.6963">
        <ele>357.52</ele>
        <time>2019-12-08T12:56:45.000Z</time>
      </trkpt>
      <trkpt lat="43.62379" lon="6.69621">
        <ele>357.31</ele>
        <time>2019-12-08T12:56:46.000Z</time>
      </trkpt>
      <trkpt lat="43.62378" lon="6.69613">
        <ele>357.1</ele>
        <time>2019-12-08T12:56:47.000Z</time>
      </trkpt>
      <trkpt lat="43.62377" lon="6.69604">
        <ele>356.98</ele>
        <time>2019-12-08T12:56:48.000Z</time>
      </trkpt>
      <trkpt lat="43.62377" lon="6.69594">
        <ele>356.69</ele>
        <time>2019-12-08T12:56:49.000Z</time>
      </trkpt>
      <trkpt lat="43.62377" lon="6.69585">
        <ele>356.45</ele>
        <time>2019-12-08T12:56:50.000Z</time>
      </trkpt>
      <trkpt lat="43.62377" lon="6.69575">
        <ele>356.33</ele>
        <time>2019-12-08T12:56:51.000Z</time>
      </trkpt>
      <trkpt lat="43.62377" lon="6.69564">
        <ele>356.14</ele>
        <time>2019-12-08T12:56:52.000Z</time>
      </trkpt>
      <trkpt lat="43.62377" lon="6.69553">
        <ele>355.86</ele>
        <time>2019-12-08T12:56:53.000Z</time>
      </trkpt>
      <trkpt lat="43.62377" lon="6.69542">
        <ele>355.44</ele>
        <time>2019-12-08T12:56:54.000Z</time>
      </trkpt>
      <trkpt lat="43.62381" lon="6.69529">
        <ele>355.23</ele>
        <time>2019-12-08T12:56:55.000Z</time>
      </trkpt>
      <trkpt lat="43.62384" lon="6.69517">
        <ele>355.08</ele>
        <time>2019-12-08T12:56:56.000Z</time>
      </trkpt>
      <trkpt lat="43.62387" lon="6.69506">
        <ele>354.85</ele>
        <time>2019-12-08T12:56:57.000Z</time>
      </trkpt>
      <trkpt lat="43.62389" lon="6.69496">
        <ele>354.76</ele>
        <time>2019-12-08T12:56:58.000Z</time>
      </trkpt>
      <trkpt lat="43.62393" lon="6.69486">
        <ele>354.66</ele>
        <time>2019-12-08T12:56:59.000Z</time>
      </trkpt>
      <trkpt lat="43.62399" lon="6.69475">
        <ele>354.59</ele>
        <time>2019-12-08T12:57:00.000Z</time>
      </trkpt>
      <trkpt lat="43.62403" lon="6.69465">
        <ele>354.58</ele>
        <time>2019-12-08T12:57:01.000Z</time>
      </trkpt>
      <trkpt lat="43.62407" lon="6.69453">
        <ele>354.65</ele>
        <time>2019-12-08T12:57:02.000Z</time>
      </trkpt>
      <trkpt lat="43.6241" lon="6.69449">
        <ele>354.74</ele>
        <time>2019-12-08T12:57:03.000Z</time>
      </trkpt>
      <trkpt lat="43.62415" lon="6.69448">
        <ele>354.75</ele>
        <time>2019-12-08T12:57:04.000Z</time>
      </trkpt>
      <trkpt lat="43.6242" lon="6.69442">
        <ele>354.7</ele>
        <time>2019-12-08T12:57:05.000Z</time>
      </trkpt>
      <trkpt lat="43.62425" lon="6.69432">
        <ele>354.52</ele>
        <time>2019-12-08T12:57:06.000Z</time>
      </trkpt>
      <trkpt lat="43.62428" lon="6.69425">
        <ele>354.22</ele>
        <time>2019-12-08T12:57:07.000Z</time>
      </trkpt>
      <trkpt lat="43.62436" lon="6.69424">
        <ele>354.02</ele>
        <time>2019-12-08T12:57:08.000Z</time>
      </trkpt>
      <trkpt lat="43.62459" lon="6.69431">
        <ele>353.28</ele>
        <time>2019-12-08T12:57:10.000Z</time>
      </trkpt>
      <trkpt lat="43.6247" lon="6.69433">
        <ele>352.66</ele>
        <time>2019-12-08T12:57:11.000Z</time>
      </trkpt>
      <trkpt lat="43.6248" lon="6.69433">
        <ele>352.38</ele>
        <time>2019-12-08T12:57:12.000Z</time>
      </trkpt>
      <trkpt lat="43.62491" lon="6.69433">
        <ele>351.76</ele>
        <time>2019-12-08T12:57:13.000Z</time>
      </trkpt>
      <trkpt lat="43.62501" lon="6.69434">
        <ele>351.29</ele>
        <time>2019-12-08T12:57:14.000Z</time>
      </trkpt>
      <trkpt lat="43.6251" lon="6.69436">
        <ele>350.88</ele>
        <time>2019-12-08T12:57:15.000Z</time>
      </trkpt>
      <trkpt lat="43.62518" lon="6.69438">
        <ele>350.71</ele>
        <time>2019-12-08T12:57:16.000Z</time>
      </trkpt>
      <trkpt lat="43.62526" lon="6.69438">
        <ele>350.34</ele>
        <time>2019-12-08T12:57:17.000Z</time>
      </trkpt>
      <trkpt lat="43.62534" lon="6.69434">
        <ele>349.94</ele>
        <time>2019-12-08T12:57:18.000Z</time>
      </trkpt>
      <trkpt lat="43.62542" lon="6.69427">
        <ele>349.51</ele>
        <time>2019-12-08T12:57:19.000Z</time>
      </trkpt>
      <trkpt lat="43.62549" lon="6.6942">
        <ele>349.31</ele>
        <time>2019-12-08T12:57:20.000Z</time>
      </trkpt>
      <trkpt lat="43.62554" lon="6.69411">
        <ele>348.85</ele>
        <time>2019-12-08T12:57:21.000Z</time>
      </trkpt>
      <trkpt lat="43.62559" lon="6.694">
        <ele>348.43</ele>
        <time>2019-12-08T12:57:22.000Z</time>
      </trkpt>
      <trkpt lat="43.62562" lon="6.69387">
        <ele>348.04</ele>
        <time>2019-12-08T12:57:23.000Z</time>
      </trkpt>
      <trkpt lat="43.62565" lon="6.69374">
        <ele>347.64</ele>
        <time>2019-12-08T12:57:24.000Z</time>
      </trkpt>
      <trkpt lat="43.62568" lon="6.69361">
        <ele>347.45</ele>
        <time>2019-12-08T12:57:25.000Z</time>
      </trkpt>
      <trkpt lat="43.62573" lon="6.6935">
        <ele>347.02</ele>
        <time>2019-12-08T12:57:26.000Z</time>
      </trkpt>
      <trkpt lat="43.62578" lon="6.69338">
        <ele>346.47</ele>
        <time>2019-12-08T12:57:27.000Z</time>
      </trkpt>
      <trkpt lat="43.62584" lon="6.69328">
        <ele>345.82</ele>
        <time>2019-12-08T12:57:28.000Z</time>
      </trkpt>
      <trkpt lat="43.62592" lon="6.69317">
        <ele>345.47</ele>
        <time>2019-12-08T12:57:29.000Z</time>
      </trkpt>
      <trkpt lat="43.62601" lon="6.69308">
        <ele>344.7</ele>
        <time>2019-12-08T12:57:30.000Z</time>
      </trkpt>
      <trkpt lat="43.6261" lon="6.69299">
        <ele>343.98</ele>
        <time>2019-12-08T12:57:31.000Z</time>
      </trkpt>
      <trkpt lat="43.62619" lon="6.69291">
        <ele>343.36</ele>
        <time>2019-12-08T12:57:32.000Z</time>
      </trkpt>
      <trkpt lat="43.62628" lon="6.69282">
        <ele>343.07</ele>
        <time>2019-12-08T12:57:33.000Z</time>
      </trkpt>
      <trkpt lat="43.62636" lon="6.69272">
        <ele>342.43</ele>
        <time>2019-12-08T12:57:34.000Z</time>
      </trkpt>
      <trkpt lat="43.62644" lon="6.69264">
        <ele>341.79</ele>
        <time>2019-12-08T12:57:35.000Z</time>
      </trkpt>
      <trkpt lat="43.62652" lon="6.69257">
        <ele>340.96</ele>
        <time>2019-12-08T12:57:36.000Z</time>
      </trkpt>
      <trkpt lat="43.62658" lon="6.69249">
        <ele>340.5</ele>
        <time>2019-12-08T12:57:37.000Z</time>
      </trkpt>
      <trkpt lat="43.62659" lon="6.6924">
        <ele>340.5</ele>
        <time>2019-12-08T12:57:38.000Z</time>
      </trkpt>
      <trkpt lat="43.62659" lon="6.69229">
        <ele>339.9</ele>
        <time>2019-12-08T12:57:39.000Z</time>
      </trkpt>
      <trkpt lat="43.62653" lon="6.69221">
        <ele>338.79</ele>
        <time>2019-12-08T12:57:40.000Z</time>
      </trkpt>
      <trkpt lat="43.62644" lon="6.69221">
        <ele>338.23</ele>
        <time>2019-12-08T12:57:41.000Z</time>
      </trkpt>
      <trkpt lat="43.62634" lon="6.69224">
        <ele>337.64</ele>
        <time>2019-12-08T12:57:42.000Z</time>
      </trkpt>
      <trkpt lat="43.62627" lon="6.69228">
        <ele>336.58</ele>
        <time>2019-12-08T12:57:43.000Z</time>
      </trkpt>
      <trkpt lat="43.62618" lon="6.69233">
        <ele>335.62</ele>
        <time>2019-12-08T12:57:44.000Z</time>
      </trkpt>
      <trkpt lat="43.62606" lon="6.69244">
        <ele>335.2</ele>
        <time>2019-12-08T12:57:45.000Z</time>
      </trkpt>
      <trkpt lat="43.62597" lon="6.69251">
        <ele>334.42</ele>
        <time>2019-12-08T12:57:46.000Z</time>
      </trkpt>
      <trkpt lat="43.62588" lon="6.69259">
        <ele>333.78</ele>
        <time>2019-12-08T12:57:47.000Z</time>
      </trkpt>
      <trkpt lat="43.62579" lon="6.69267">
        <ele>333.49</ele>
        <time>2019-12-08T12:57:48.000Z</time>
      </trkpt>
      <trkpt lat="43.6257" lon="6.69272">
        <ele>333.15</ele>
        <time>2019-12-08T12:57:49.000Z</time>
      </trkpt>
      <trkpt lat="43.62561" lon="6.69279">
        <ele>332.44</ele>
        <time>2019-12-08T12:57:50.000Z</time>
      </trkpt>
      <trkpt lat="43.62552" lon="6.69286">
        <ele>331.65</ele>
        <time>2019-12-08T12:57:51.000Z</time>
      </trkpt>
      <trkpt lat="43.62543" lon="6.69294">
        <ele>330.74</ele>
        <time>2019-12-08T12:57:52.000Z</time>
      </trkpt>
      <trkpt lat="43.62534" lon="6.69302">
        <ele>330.26</ele>
        <time>2019-12-08T12:57:53.000Z</time>
      </trkpt>
      <trkpt lat="43.62526" lon="6.69312">
        <ele>329.43</ele>
        <time>2019-12-08T12:57:54.000Z</time>
      </trkpt>
      <trkpt lat="43.62518" lon="6.69322">
        <ele>328.64</ele>
        <time>2019-12-08T12:57:55.000Z</time>
      </trkpt>
      <trkpt lat="43.62511" lon="6.69332">
        <ele>327.95</ele>
        <time>2019-12-08T12:57:56.000Z</time>
      </trkpt>
      <trkpt lat="43.62504" lon="6.6934">
        <ele>327.62</ele>
        <time>2019-12-08T12:57:57.000Z</time>
      </trkpt>
      <trkpt lat="43.62498" lon="6.6935">
        <ele>327.03</ele>
        <time>2019-12-08T12:57:58.000Z</time>
      </trkpt>
      <trkpt lat="43.62492" lon="6.69351">
        <ele>326.42</ele>
        <time>2019-12-08T12:57:59.000Z</time>
      </trkpt>
      <trkpt lat="43.6248" lon="6.69345">
        <ele>325.7</ele>
        <time>2019-12-08T12:58:00.000Z</time>
      </trkpt>
      <trkpt lat="43.62469" lon="6.6934">
        <ele>325.32</ele>
        <time>2019-12-08T12:58:01.000Z</time>
      </trkpt>
      <trkpt lat="43.62458" lon="6.69336">
        <ele>324.54</ele>
        <time>2019-12-08T12:58:02.000Z</time>
      </trkpt>
      <trkpt lat="43.62448" lon="6.69331">
        <ele>323.69</ele>
        <time>2019-12-08T12:58:03.000Z</time>
      </trkpt>
      <trkpt lat="43.62438" lon="6.69325">
        <ele>322.74</ele>
        <time>2019-12-08T12:58:04.000Z</time>
      </trkpt>
      <trkpt lat="43.62429" lon="6.69317">
        <ele>321.97</ele>
        <time>2019-12-08T12:58:05.000Z</time>
      </trkpt>
      <trkpt lat="43.6242" lon="6.69308">
        <ele>321.57</ele>
        <time>2019-12-08T12:58:06.000Z</time>
      </trkpt>
      <trkpt lat="43.62411" lon="6.693">
        <ele>320.74</ele>
        <time>2019-12-08T12:58:07.000Z</time>
      </trkpt>
      <trkpt lat="43.62401" lon="6.69295">
        <ele>319.98</ele>
        <time>2019-12-08T12:58:08.000Z</time>
      </trkpt>
      <trkpt lat="43.62391" lon="6.69291">
        <ele>319.26</ele>
        <time>2019-12-08T12:58:09.000Z</time>
      </trkpt>
      <trkpt lat="43.6238" lon="6.69289">
        <ele>318.82</ele>
        <time>2019-12-08T12:58:10.000Z</time>
      </trkpt>
      <trkpt lat="43.6237" lon="6.69289">
        <ele>317.94</ele>
        <time>2019-12-08T12:58:11.000Z</time>
      </trkpt>
      <trkpt lat="43.6236" lon="6.69293">
        <ele>317.05</ele>
        <time>2019-12-08T12:58:12.000Z</time>
      </trkpt>
      <trkpt lat="43.6235" lon="6.69299">
        <ele>316.37</ele>
        <time>2019-12-08T12:58:13.000Z</time>
      </trkpt>
      <trkpt lat="43.62341" lon="6.69307">
        <ele>316.08</ele>
        <time>2019-12-08T12:58:14.000Z</time>
      </trkpt>
      <trkpt lat="43.62333" lon="6.69316">
        <ele>315.68</ele>
        <time>2019-12-08T12:58:15.000Z</time>
      </trkpt>
      <trkpt lat="43.62325" lon="6.69324">
        <ele>315.48</ele>
        <time>2019-12-08T12:58:16.000Z</time>
      </trkpt>
      <trkpt lat="43.62318" lon="6.69335">
        <ele>315.24</ele>
        <time>2019-12-08T12:58:17.000Z</time>
      </trkpt>
      <trkpt lat="43.62312" lon="6.69346">
        <ele>315.14</ele>
        <time>2019-12-08T12:58:18.000Z</time>
      </trkpt>
      <trkpt lat="43.62307" lon="6.69357">
        <ele>315.07</ele>
        <time>2019-12-08T12:58:19.000Z</time>
      </trkpt>
      <trkpt lat="43.62301" lon="6.69368">
        <ele>314.95</ele>
        <time>2019-12-08T12:58:20.000Z</time>
      </trkpt>
      <trkpt lat="43.62296" lon="6.69379">
        <ele>314.79</ele>
        <time>2019-12-08T12:58:21.000Z</time>
      </trkpt>
      <trkpt lat="43.62291" lon="6.69389">
        <ele>314.8</ele>
        <time>2019-12-08T12:58:22.000Z</time>
      </trkpt>
      <trkpt lat="43.62287" lon="6.69399">
        <ele>314.77</ele>
        <time>2019-12-08T12:58:23.000Z</time>
      </trkpt>
      <trkpt lat="43.62282" lon="6.6941">
        <ele>314.72</ele>
        <time>2019-12-08T12:58:24.000Z</time>
      </trkpt>
      <trkpt lat="43.62277" lon="6.69419">
        <ele>314.7</ele>
        <time>2019-12-08T12:58:25.000Z</time>
      </trkpt>
      <trkpt lat="43.62271" lon="6.69429">
        <ele>314.66</ele>
        <time>2019-12-08T12:58:26.000Z</time>
      </trkpt>
      <trkpt lat="43.62265" lon="6.69438">
        <ele>314.35</ele>
        <time>2019-12-08T12:58:27.000Z</time>
      </trkpt>
      <trkpt lat="43.62259" lon="6.69447">
        <ele>313.86</ele>
        <time>2019-12-08T12:58:28.000Z</time>
      </trkpt>
      <trkpt lat="43.62252" lon="6.69455">
        <ele>313.22</ele>
        <time>2019-12-08T12:58:29.000Z</time>
      </trkpt>
      <trkpt lat="43.62244" lon="6.69464">
        <ele>312.85</ele>
        <time>2019-12-08T12:58:30.000Z</time>
      </trkpt>
      <trkpt lat="43.62236" lon="6.69472">
        <ele>312.17</ele>
        <time>2019-12-08T12:58:31.000Z</time>
      </trkpt>
      <trkpt lat="43.62228" lon="6.6948">
        <ele>311.5</ele>
        <time>2019-12-08T12:58:32.000Z</time>
      </trkpt>
      <trkpt lat="43.62219" lon="6.6949">
        <ele>310.9</ele>
        <time>2019-12-08T12:58:33.000Z</time>
      </trkpt>
      <trkpt lat="43.62211" lon="6.69499">
        <ele>310.24</ele>
        <time>2019-12-08T12:58:34.000Z</time>
      </trkpt>
      <trkpt lat="43.62202" lon="6.69507">
        <ele>309.91</ele>
        <time>2019-12-08T12:58:35.000Z</time>
      </trkpt>
      <trkpt lat="43.62193" lon="6.69515">
        <ele>309.35</ele>
        <time>2019-12-08T12:58:36.000Z</time>
      </trkpt>
      <trkpt lat="43.62184" lon="6.69521">
        <ele>308.64</ele>
        <time>2019-12-08T12:58:37.000Z</time>
      </trkpt>
      <trkpt lat="43.62177" lon="6.69525">
        <ele>308.22</ele>
        <time>2019-12-08T12:58:38.000Z</time>
      </trkpt>
      <trkpt lat="43.6217" lon="6.69525">
        <ele>307.37</ele>
        <time>2019-12-08T12:58:39.000Z</time>
      </trkpt>
      <trkpt lat="43.62165" lon="6.69519">
        <ele>307.37</ele>
        <time>2019-12-08T12:58:40.000Z</time>
      </trkpt>
      <trkpt lat="43.62162" lon="6.69507">
        <ele>306.01</ele>
        <time>2019-12-08T12:58:41.000Z</time>
      </trkpt>
      <trkpt lat="43.62163" lon="6.69495">
        <ele>304.58</ele>
        <time>2019-12-08T12:58:42.000Z</time>
      </trkpt>
      <trkpt lat="43.62167" lon="6.69484">
        <ele>303.91</ele>
        <time>2019-12-08T12:58:43.000Z</time>
      </trkpt>
      <trkpt lat="43.62171" lon="6.69472">
        <ele>302.71</ele>
        <time>2019-12-08T12:58:44.000Z</time>
      </trkpt>
      <trkpt lat="43.62175" lon="6.6946">
        <ele>301.71</ele>
        <time>2019-12-08T12:58:45.000Z</time>
      </trkpt>
      <trkpt lat="43.6218" lon="6.69447">
        <ele>300.93</ele>
        <time>2019-12-08T12:58:46.000Z</time>
      </trkpt>
      <trkpt lat="43.62184" lon="6.69434">
        <ele>300.55</ele>
        <time>2019-12-08T12:58:47.000Z</time>
      </trkpt>
      <trkpt lat="43.6219" lon="6.69421">
        <ele>299.8</ele>
        <time>2019-12-08T12:58:48.000Z</time>
      </trkpt>
      <trkpt lat="43.62195" lon="6.69407">
        <ele>299.08</ele>
        <time>2019-12-08T12:58:49.000Z</time>
      </trkpt>
      <trkpt lat="43.622" lon="6.69393">
        <ele>298.29</ele>
        <time>2019-12-08T12:58:50.000Z</time>
      </trkpt>
      <trkpt lat="43.62205" lon="6.69379">
        <ele>297.83</ele>
        <time>2019-12-08T12:58:51.000Z</time>
      </trkpt>
      <trkpt lat="43.62211" lon="6.69365">
        <ele>296.91</ele>
        <time>2019-12-08T12:58:52.000Z</time>
      </trkpt>
      <trkpt lat="43.62216" lon="6.69351">
        <ele>295.96</ele>
        <time>2019-12-08T12:58:53.000Z</time>
      </trkpt>
      <trkpt lat="43.62222" lon="6.69336">
        <ele>294.94</ele>
        <time>2019-12-08T12:58:54.000Z</time>
      </trkpt>
      <trkpt lat="43.62227" lon="6.69322">
        <ele>294.51</ele>
        <time>2019-12-08T12:58:55.000Z</time>
      </trkpt>
      <trkpt lat="43.62233" lon="6.69307">
        <ele>293.55</ele>
        <time>2019-12-08T12:58:56.000Z</time>
      </trkpt>
      <trkpt lat="43.62239" lon="6.69293">
        <ele>292.46</ele>
        <time>2019-12-08T12:58:57.000Z</time>
      </trkpt>
      <trkpt lat="43.62245" lon="6.69279">
        <ele>291.55</ele>
        <time>2019-12-08T12:58:58.000Z</time>
      </trkpt>
      <trkpt lat="43.62252" lon="6.69265">
        <ele>291.12</ele>
        <time>2019-12-08T12:58:59.000Z</time>
      </trkpt>
      <trkpt lat="43.62259" lon="6.69252">
        <ele>290.33</ele>
        <time>2019-12-08T12:59:00.000Z</time>
      </trkpt>
      <trkpt lat="43.62266" lon="6.69241">
        <ele>289.81</ele>
        <time>2019-12-08T12:59:01.000Z</time>
      </trkpt>
      <trkpt lat="43.62273" lon="6.69231">
        <ele>289.17</ele>
        <time>2019-12-08T12:59:02.000Z</time>
      </trkpt>
      <trkpt lat="43.62278" lon="6.69224">
        <ele>288.39</ele>
        <time>2019-12-08T12:59:03.000Z</time>
      </trkpt>
      <trkpt lat="43.62279" lon="6.69214">
        <ele>287.95</ele>
        <time>2019-12-08T12:59:04.000Z</time>
      </trkpt>
      <trkpt lat="43.62275" lon="6.69204">
        <ele>287.08</ele>
        <time>2019-12-08T12:59:05.000Z</time>
      </trkpt>
      <trkpt lat="43.62269" lon="6.692">
        <ele>286.24</ele>
        <time>2019-12-08T12:59:06.000Z</time>
      </trkpt>
      <trkpt lat="43.62263" lon="6.69202">
        <ele>285.86</ele>
        <time>2019-12-08T12:59:07.000Z</time>
      </trkpt>
      <trkpt lat="43.62255" lon="6.69206">
        <ele>285.24</ele>
        <time>2019-12-08T12:59:08.000Z</time>
      </trkpt>
      <trkpt lat="43.62247" lon="6.69212">
        <ele>284.76</ele>
        <time>2019-12-08T12:59:09.000Z</time>
      </trkpt>
      <trkpt lat="43.6224" lon="6.6922">
        <ele>284.36</ele>
        <time>2019-12-08T12:59:10.000Z</time>
      </trkpt>
      <trkpt lat="43.62233" lon="6.69227">
        <ele>284.36</ele>
        <time>2019-12-08T12:59:11.000Z</time>
      </trkpt>
      <trkpt lat="43.62226" lon="6.69236">
        <ele>283.93</ele>
        <time>2019-12-08T12:59:12.000Z</time>
      </trkpt>
      <trkpt lat="43.6222" lon="6.69244">
        <ele>283.39</ele>
        <time>2019-12-08T12:59:13.000Z</time>
      </trkpt>
      <trkpt lat="43.62214" lon="6.69254">
        <ele>282.87</ele>
        <time>2019-12-08T12:59:14.000Z</time>
      </trkpt>
      <trkpt lat="43.62208" lon="6.69264">
        <ele>282.31</ele>
        <time>2019-12-08T12:59:15.000Z</time>
      </trkpt>
      <trkpt lat="43.62201" lon="6.69274">
        <ele>282.07</ele>
        <time>2019-12-08T12:59:16.000Z</time>
      </trkpt>
      <trkpt lat="43.62194" lon="6.69283">
        <ele>281.65</ele>
        <time>2019-12-08T12:59:17.000Z</time>
      </trkpt>
      <trkpt lat="43.62187" lon="6.6929">
        <ele>281.22</ele>
        <time>2019-12-08T12:59:18.000Z</time>
      </trkpt>
      <trkpt lat="43.6218" lon="6.69295">
        <ele>280.76</ele>
        <time>2019-12-08T12:59:19.000Z</time>
      </trkpt>
      <trkpt lat="43.62173" lon="6.69298">
        <ele>280.54</ele>
        <time>2019-12-08T12:59:20.000Z</time>
      </trkpt>
      <trkpt lat="43.62166" lon="6.69294">
        <ele>279.9</ele>
        <time>2019-12-08T12:59:21.000Z</time>
      </trkpt>
      <trkpt lat="43.62161" lon="6.69286">
        <ele>279.9</ele>
        <time>2019-12-08T12:59:22.000Z</time>
      </trkpt>
      <trkpt lat="43.6216" lon="6.69274">
        <ele>279.9</ele>
        <time>2019-12-08T12:59:23.000Z</time>
      </trkpt>
      <trkpt lat="43.62162" lon="6.69263">
        <ele>279.36</ele>
        <time>2019-12-08T12:59:24.000Z</time>
      </trkpt>
      <trkpt lat="43.62165" lon="6.69251">
        <ele>278.13</ele>
        <time>2019-12-08T12:59:25.000Z</time>
      </trkpt>
      <trkpt lat="43.62168" lon="6.69239">
        <ele>276.98</ele>
        <time>2019-12-08T12:59:26.000Z</time>
      </trkpt>
      <trkpt lat="43.62172" lon="6.69227">
        <ele>275.76</ele>
        <time>2019-12-08T12:59:27.000Z</time>
      </trkpt>
      <trkpt lat="43.62176" lon="6.69215">
        <ele>275.2</ele>
        <time>2019-12-08T12:59:28.000Z</time>
      </trkpt>
      <trkpt lat="43.62205" lon="6.69122">
        <ele>270.11</ele>
        <time>2019-12-08T12:59:35.000Z</time>
      </trkpt>
      <trkpt lat="43.62209" lon="6.69113">
        <ele>269.59</ele>
        <time>2019-12-08T12:59:36.000Z</time>
      </trkpt>
      <trkpt lat="43.62212" lon="6.69104">
        <ele>268.58</ele>
        <time>2019-12-08T12:59:37.000Z</time>
      </trkpt>
      <trkpt lat="43.62211" lon="6.69096">
        <ele>267.61</ele>
        <time>2019-12-08T12:59:38.000Z</time>
      </trkpt>
      <trkpt lat="43.62208" lon="6.69088">
        <ele>266.82</ele>
        <time>2019-12-08T12:59:39.000Z</time>
      </trkpt>
      <trkpt lat="43.62204" lon="6.69082">
        <ele>266.82</ele>
        <time>2019-12-08T12:59:40.000Z</time>
      </trkpt>
      <trkpt lat="43.622" lon="6.69075">
        <ele>266.12</ele>
        <time>2019-12-08T12:59:41.000Z</time>
      </trkpt>
      <trkpt lat="43.62195" lon="6.69071">
        <ele>265.46</ele>
        <time>2019-12-08T12:59:42.000Z</time>
      </trkpt>
      <trkpt lat="43.6219" lon="6.6907">
        <ele>264.78</ele>
        <time>2019-12-08T12:59:43.000Z</time>
      </trkpt>
      <trkpt lat="43.62186" lon="6.69072">
        <ele>264.78</ele>
        <time>2019-12-08T12:59:44.000Z</time>
      </trkpt>
      <trkpt lat="43.62183" lon="6.69075">
        <ele>264.42</ele>
        <time>2019-12-08T12:59:45.000Z</time>
      </trkpt>
      <trkpt lat="43.62181" lon="6.6908">
        <ele>263.84</ele>
        <time>2019-12-08T12:59:46.000Z</time>
      </trkpt>
      <trkpt lat="43.62181" lon="6.69086">
        <ele>263.53</ele>
        <time>2019-12-08T12:59:47.000Z</time>
      </trkpt>
      <trkpt lat="43.6218" lon="6.69092">
        <ele>263.4</ele>
        <time>2019-12-08T12:59:48.000Z</time>
      </trkpt>
      <trkpt lat="43.62179" lon="6.69098">
        <ele>263.39</ele>
        <time>2019-12-08T12:59:49.000Z</time>
      </trkpt>
      <trkpt lat="43.62177" lon="6.69105">
        <ele>263.43</ele>
        <time>2019-12-08T12:59:50.000Z</time>
      </trkpt>
      <trkpt lat="43.62173" lon="6.69111">
        <ele>263.5</ele>
        <time>2019-12-08T12:59:51.000Z</time>
      </trkpt>
      <trkpt lat="43.62168" lon="6.69118">
        <ele>263.64</ele>
        <time>2019-12-08T12:59:52.000Z</time>
      </trkpt>
      <trkpt lat="43.62163" lon="6.69125">
        <ele>263.71</ele>
        <time>2019-12-08T12:59:53.000Z</time>
      </trkpt>
      <trkpt lat="43.62157" lon="6.69131">
        <ele>263.76</ele>
        <time>2019-12-08T12:59:54.000Z</time>
      </trkpt>
      <trkpt lat="43.62151" lon="6.69138">
        <ele>263.84</ele>
        <time>2019-12-08T12:59:55.000Z</time>
      </trkpt>
      <trkpt lat="43.62145" lon="6.69143">
        <ele>263.75</ele>
        <time>2019-12-08T12:59:56.000Z</time>
      </trkpt>
      <trkpt lat="43.62138" lon="6.69149">
        <ele>263.68</ele>
        <time>2019-12-08T12:59:57.000Z</time>
      </trkpt>
      <trkpt lat="43.62131" lon="6.69154">
        <ele>263.56</ele>
        <time>2019-12-08T12:59:58.000Z</time>
      </trkpt>
      <trkpt lat="43.62124" lon="6.69158">
        <ele>263.44</ele>
        <time>2019-12-08T12:59:59.000Z</time>
      </trkpt>
      <trkpt lat="43.62117" lon="6.69162">
        <ele>263.37</ele>
        <time>2019-12-08T13:00:00.000Z</time>
      </trkpt>
      <trkpt lat="43.6211" lon="6.69166">
        <ele>263.33</ele>
        <time>2019-12-08T13:00:01.000Z</time>
      </trkpt>
      <trkpt lat="43.62103" lon="6.6917">
        <ele>263.27</ele>
        <time>2019-12-08T13:00:02.000Z</time>
      </trkpt>
      <trkpt lat="43.62095" lon="6.69174">
        <ele>263.21</ele>
        <time>2019-12-08T13:00:03.000Z</time>
      </trkpt>
      <trkpt lat="43.62088" lon="6.69177">
        <ele>263.07</ele>
        <time>2019-12-08T13:00:04.000Z</time>
      </trkpt>
      <trkpt lat="43.6208" lon="6.69181">
        <ele>262.99</ele>
        <time>2019-12-08T13:00:05.000Z</time>
      </trkpt>
      <trkpt lat="43.62072" lon="6.69184">
        <ele>262.82</ele>
        <time>2019-12-08T13:00:06.000Z</time>
      </trkpt>
      <trkpt lat="43.62064" lon="6.69188">
        <ele>262.51</ele>
        <time>2019-12-08T13:00:07.000Z</time>
      </trkpt>
      <trkpt lat="43.62056" lon="6.69191">
        <ele>262.16</ele>
        <time>2019-12-08T13:00:08.000Z</time>
      </trkpt>
      <trkpt lat="43.62048" lon="6.69195">
        <ele>261.96</ele>
        <time>2019-12-08T13:00:09.000Z</time>
      </trkpt>
      <trkpt lat="43.62039" lon="6.69199">
        <ele>261.49</ele>
        <time>2019-12-08T13:00:10.000Z</time>
      </trkpt>
      <trkpt lat="43.6203" lon="6.69203">
        <ele>260.99</ele>
        <time>2019-12-08T13:00:11.000Z</time>
      </trkpt>
      <trkpt lat="43.62021" lon="6.69208">
        <ele>260.45</ele>
        <time>2019-12-08T13:00:12.000Z</time>
      </trkpt>
      <trkpt lat="43.62012" lon="6.69212">
        <ele>260.17</ele>
        <time>2019-12-08T13:00:13.000Z</time>
      </trkpt>
      <trkpt lat="43.62003" lon="6.69218">
        <ele>259.62</ele>
        <time>2019-12-08T13:00:14.000Z</time>
      </trkpt>
      <trkpt lat="43.61995" lon="6.69225">
        <ele>259.04</ele>
        <time>2019-12-08T13:00:15.000Z</time>
      </trkpt>
      <trkpt lat="43.61987" lon="6.69233">
        <ele>258.58</ele>
        <time>2019-12-08T13:00:16.000Z</time>
      </trkpt>
      <trkpt lat="43.61979" lon="6.69241">
        <ele>258.33</ele>
        <time>2019-12-08T13:00:17.000Z</time>
      </trkpt>
      <trkpt lat="43.61973" lon="6.69251">
        <ele>257.88</ele>
        <time>2019-12-08T13:00:18.000Z</time>
      </trkpt>
      <trkpt lat="43.61967" lon="6.6926">
        <ele>257.48</ele>
        <time>2019-12-08T13:00:19.000Z</time>
      </trkpt>
      <trkpt lat="43.61961" lon="6.69271">
        <ele>257.48</ele>
        <time>2019-12-08T13:00:20.000Z</time>
      </trkpt>
      <trkpt lat="43.61956" lon="6.69281">
        <ele>257.13</ele>
        <time>2019-12-08T13:00:21.000Z</time>
      </trkpt>
      <trkpt lat="43.61952" lon="6.69292">
        <ele>256.93</ele>
        <time>2019-12-08T13:00:22.000Z</time>
      </trkpt>
      <trkpt lat="43.61948" lon="6.69303">
        <ele>256.69</ele>
        <time>2019-12-08T13:00:23.000Z</time>
      </trkpt>
      <trkpt lat="43.61943" lon="6.69313">
        <ele>256.57</ele>
        <time>2019-12-08T13:00:24.000Z</time>
      </trkpt>
      <trkpt lat="43.61938" lon="6.69323">
        <ele>256.52</ele>
        <time>2019-12-08T13:00:25.000Z</time>
      </trkpt>
      <trkpt lat="43.61933" lon="6.69332">
        <ele>256.43</ele>
        <time>2019-12-08T13:00:26.000Z</time>
      </trkpt>
      <trkpt lat="43.61928" lon="6.69342">
        <ele>256.41</ele>
        <time>2019-12-08T13:00:27.000Z</time>
      </trkpt>
      <trkpt lat="43.61923" lon="6.69352">
        <ele>256.4</ele>
        <time>2019-12-08T13:00:28.000Z</time>
      </trkpt>
      <trkpt lat="43.61919" lon="6.69361">
        <ele>256.36</ele>
        <time>2019-12-08T13:00:29.000Z</time>
      </trkpt>
      <trkpt lat="43.61915" lon="6.69371">
        <ele>256.32</ele>
        <time>2019-12-08T13:00:30.000Z</time>
      </trkpt>
      <trkpt lat="43.6191" lon="6.69382">
        <ele>256.22</ele>
        <time>2019-12-08T13:00:31.000Z</time>
      </trkpt>
      <trkpt lat="43.61906" lon="6.69393">
        <ele>256.01</ele>
        <time>2019-12-08T13:00:32.000Z</time>
      </trkpt>
      <trkpt lat="43.61902" lon="6.69404">
        <ele>255.64</ele>
        <time>2019-12-08T13:00:33.000Z</time>
      </trkpt>
      <trkpt lat="43.61897" lon="6.69415">
        <ele>255.43</ele>
        <time>2019-12-08T13:00:34.000Z</time>
      </trkpt>
      <trkpt lat="43.61893" lon="6.69427">
        <ele>255.02</ele>
        <time>2019-12-08T13:00:35.000Z</time>
      </trkpt>
      <trkpt lat="43.61888" lon="6.69438">
        <ele>255.02</ele>
        <time>2019-12-08T13:00:36.000Z</time>
      </trkpt>
      <trkpt lat="43.61884" lon="6.6945">
        <ele>254.5</ele>
        <time>2019-12-08T13:00:37.000Z</time>
      </trkpt>
      <trkpt lat="43.61879" lon="6.69462">
        <ele>254.26</ele>
        <time>2019-12-08T13:00:38.000Z</time>
      </trkpt>
      <trkpt lat="43.61875" lon="6.69474">
        <ele>253.8</ele>
        <time>2019-12-08T13:00:39.000Z</time>
      </trkpt>
      <trkpt lat="43.6187" lon="6.69486">
        <ele>253.27</ele>
        <time>2019-12-08T13:00:40.000Z</time>
      </trkpt>
      <trkpt lat="43.61865" lon="6.69498">
        <ele>252.83</ele>
        <time>2019-12-08T13:00:41.000Z</time>
      </trkpt>
      <trkpt lat="43.6186" lon="6.6951">
        <ele>252.64</ele>
        <time>2019-12-08T13:00:42.000Z</time>
      </trkpt>
      <trkpt lat="43.61855" lon="6.69521">
        <ele>252.31</ele>
        <time>2019-12-08T13:00:43.000Z</time>
      </trkpt>
      <trkpt lat="43.6185" lon="6.69533">
        <ele>252.03</ele>
        <time>2019-12-08T13:00:44.000Z</time>
      </trkpt>
      <trkpt lat="43.61845" lon="6.69544">
        <ele>251.67</ele>
        <time>2019-12-08T13:00:45.000Z</time>
      </trkpt>
      <trkpt lat="43.61839" lon="6.69556">
        <ele>251.44</ele>
        <time>2019-12-08T13:00:46.000Z</time>
      </trkpt>
      <trkpt lat="43.61833" lon="6.69567">
        <ele>250.92</ele>
        <time>2019-12-08T13:00:47.000Z</time>
      </trkpt>
      <trkpt lat="43.61827" lon="6.69578">
        <ele>250.41</ele>
        <time>2019-12-08T13:00:48.000Z</time>
      </trkpt>
      <trkpt lat="43.61821" lon="6.69589">
        <ele>249.98</ele>
        <time>2019-12-08T13:00:49.000Z</time>
      </trkpt>
      <trkpt lat="43.61814" lon="6.696">
        <ele>249.77</ele>
        <time>2019-12-08T13:00:50.000Z</time>
      </trkpt>
      <trkpt lat="43.61808" lon="6.69611">
        <ele>249.39</ele>
        <time>2019-12-08T13:00:51.000Z</time>
      </trkpt>
      <trkpt lat="43.61802" lon="6.69623">
        <ele>248.99</ele>
        <time>2019-12-08T13:00:52.000Z</time>
      </trkpt>
      <trkpt lat="43.61796" lon="6.69635">
        <ele>248.51</ele>
        <time>2019-12-08T13:00:53.000Z</time>
      </trkpt>
      <trkpt lat="43.6179" lon="6.69647">
        <ele>248.29</ele>
        <time>2019-12-08T13:00:54.000Z</time>
      </trkpt>
      <trkpt lat="43.61786" lon="6.6966">
        <ele>247.85</ele>
        <time>2019-12-08T13:00:55.000Z</time>
      </trkpt>
      <trkpt lat="43.61783" lon="6.69674">
        <ele>247.42</ele>
        <time>2019-12-08T13:00:56.000Z</time>
      </trkpt>
      <trkpt lat="43.61781" lon="6.69689">
        <ele>247.08</ele>
        <time>2019-12-08T13:00:57.000Z</time>
      </trkpt>
      <trkpt lat="43.6178" lon="6.69703">
        <ele>246.78</ele>
        <time>2019-12-08T13:00:58.000Z</time>
      </trkpt>
      <trkpt lat="43.6178" lon="6.69717">
        <ele>246.68</ele>
        <time>2019-12-08T13:00:59.000Z</time>
      </trkpt>
      <trkpt lat="43.6178" lon="6.69731">
        <ele>246.48</ele>
        <time>2019-12-08T13:01:00.000Z</time>
      </trkpt>
      <trkpt lat="43.6178" lon="6.69744">
        <ele>246.3</ele>
        <time>2019-12-08T13:01:01.000Z</time>
      </trkpt>
      <trkpt lat="43.61781" lon="6.69758">
        <ele>246.21</ele>
        <time>2019-12-08T13:01:02.000Z</time>
      </trkpt>
      <trkpt lat="43.61782" lon="6.69771">
        <ele>245.93</ele>
        <time>2019-12-08T13:01:03.000Z</time>
      </trkpt>
      <trkpt lat="43.61783" lon="6.69784">
        <ele>245.58</ele>
        <time>2019-12-08T13:01:04.000Z</time>
      </trkpt>
      <trkpt lat="43.61783" lon="6.69798">
        <ele>245.25</ele>
        <time>2019-12-08T13:01:05.000Z</time>
      </trkpt>
      <trkpt lat="43.61784" lon="6.69811">
        <ele>244.98</ele>
        <time>2019-12-08T13:01:06.000Z</time>
      </trkpt>
      <trkpt lat="43.61784" lon="6.69824">
        <ele>244.85</ele>
        <time>2019-12-08T13:01:07.000Z</time>
      </trkpt>
      <trkpt lat="43.61783" lon="6.69838">
        <ele>244.59</ele>
        <time>2019-12-08T13:01:08.000Z</time>
      </trkpt>
      <trkpt lat="43.61782" lon="6.69851">
        <ele>244.32</ele>
        <time>2019-12-08T13:01:09.000Z</time>
      </trkpt>
      <trkpt lat="43.61781" lon="6.69865">
        <ele>243.92</ele>
        <time>2019-12-08T13:01:10.000Z</time>
      </trkpt>
      <trkpt lat="43.61779" lon="6.69878">
        <ele>243.71</ele>
        <time>2019-12-08T13:01:11.000Z</time>
      </trkpt>
      <trkpt lat="43.61776" lon="6.69892">
        <ele>243.19</ele>
        <time>2019-12-08T13:01:12.000Z</time>
      </trkpt>
      <trkpt lat="43.61773" lon="6.69905">
        <ele>243.04</ele>
        <time>2019-12-08T13:01:13.000Z</time>
      </trkpt>
      <trkpt lat="43.6177" lon="6.69918">
        <ele>242.72</ele>
        <time>2019-12-08T13:01:14.000Z</time>
      </trkpt>
      <trkpt lat="43.61767" lon="6.69931">
        <ele>242.51</ele>
        <time>2019-12-08T13:01:15.000Z</time>
      </trkpt>
      <trkpt lat="43.61764" lon="6.69944">
        <ele>242.43</ele>
        <time>2019-12-08T13:01:16.000Z</time>
      </trkpt>
      <trkpt lat="43.61761" lon="6.69957">
        <ele>241.98</ele>
        <time>2019-12-08T13:01:17.000Z</time>
      </trkpt>
      <trkpt lat="43.61758" lon="6.69969">
        <ele>241.65</ele>
        <time>2019-12-08T13:01:18.000Z</time>
      </trkpt>
      <trkpt lat="43.61755" lon="6.69982">
        <ele>241.53</ele>
        <time>2019-12-08T13:01:19.000Z</time>
      </trkpt>
      <trkpt lat="43.61752" lon="6.69995">
        <ele>241.24</ele>
        <time>2019-12-08T13:01:20.000Z</time>
      </trkpt>
      <trkpt lat="43.61749" lon="6.70007">
        <ele>240.87</ele>
        <time>2019-12-08T13:01:21.000Z</time>
      </trkpt>
      <trkpt lat="43.61747" lon="6.7002">
        <ele>240.45</ele>
        <time>2019-12-08T13:01:22.000Z</time>
      </trkpt>
      <trkpt lat="43.61744" lon="6.70034">
        <ele>240.19</ele>
        <time>2019-12-08T13:01:23.000Z</time>
      </trkpt>
      <trkpt lat="43.61743" lon="6.70047">
        <ele>239.91</ele>
        <time>2019-12-08T13:01:24.000Z</time>
      </trkpt>
      <trkpt lat="43.61742" lon="6.70061">
        <ele>239.28</ele>
        <time>2019-12-08T13:01:25.000Z</time>
      </trkpt>
      <trkpt lat="43.61743" lon="6.70075">
        <ele>238.59</ele>
        <time>2019-12-08T13:01:26.000Z</time>
      </trkpt>
      <trkpt lat="43.61743" lon="6.70089">
        <ele>237.95</ele>
        <time>2019-12-08T13:01:27.000Z</time>
      </trkpt>
      <trkpt lat="43.61744" lon="6.70103">
        <ele>237.63</ele>
        <time>2019-12-08T13:01:28.000Z</time>
      </trkpt>
      <trkpt lat="43.61745" lon="6.70118">
        <ele>237.07</ele>
        <time>2019-12-08T13:01:29.000Z</time>
      </trkpt>
      <trkpt lat="43.61747" lon="6.70132">
        <ele>236.73</ele>
        <time>2019-12-08T13:01:30.000Z</time>
      </trkpt>
      <trkpt lat="43.61748" lon="6.70145">
        <ele>236.56</ele>
        <time>2019-12-08T13:01:31.000Z</time>
      </trkpt>
      <trkpt lat="43.61749" lon="6.70159">
        <ele>236.31</ele>
        <time>2019-12-08T13:01:32.000Z</time>
      </trkpt>
      <trkpt lat="43.61751" lon="6.70172">
        <ele>236.33</ele>
        <time>2019-12-08T13:01:33.000Z</time>
      </trkpt>
      <trkpt lat="43.61752" lon="6.70185">
        <ele>236.4</ele>
        <time>2019-12-08T13:01:34.000Z</time>
      </trkpt>
      <trkpt lat="43.61753" lon="6.70198">
        <ele>236.47</ele>
        <time>2019-12-08T13:01:35.000Z</time>
      </trkpt>
      <trkpt lat="43.61754" lon="6.7021">
        <ele>236.47</ele>
        <time>2019-12-08T13:01:36.000Z</time>
      </trkpt>
      <trkpt lat="43.61755" lon="6.70222">
        <ele>236.7</ele>
        <time>2019-12-08T13:01:37.000Z</time>
      </trkpt>
      <trkpt lat="43.61756" lon="6.70233">
        <ele>236.89</ele>
        <time>2019-12-08T13:01:38.000Z</time>
      </trkpt>
      <trkpt lat="43.61757" lon="6.70244">
        <ele>237.2</ele>
        <time>2019-12-08T13:01:39.000Z</time>
      </trkpt>
      <trkpt lat="43.61757" lon="6.70254">
        <ele>237.37</ele>
        <time>2019-12-08T13:01:40.000Z</time>
      </trkpt>
      <trkpt lat="43.61758" lon="6.70263">
        <ele>237.77</ele>
        <time>2019-12-08T13:01:41.000Z</time>
      </trkpt>
      <trkpt lat="43.61759" lon="6.70272">
        <ele>238.2</ele>
        <time>2019-12-08T13:01:42.000Z</time>
      </trkpt>
      <trkpt lat="43.6176" lon="6.70281">
        <ele>238.62</ele>
        <time>2019-12-08T13:01:43.000Z</time>
      </trkpt>
      <trkpt lat="43.61761" lon="6.70289">
        <ele>238.87</ele>
        <time>2019-12-08T13:01:44.000Z</time>
      </trkpt>
      <trkpt lat="43.61762" lon="6.70296">
        <ele>239.3</ele>
        <time>2019-12-08T13:01:45.000Z</time>
      </trkpt>
      <trkpt lat="43.61764" lon="6.70303">
        <ele>239.77</ele>
        <time>2019-12-08T13:01:46.000Z</time>
      </trkpt>
      <trkpt lat="43.61765" lon="6.7031">
        <ele>240.2</ele>
        <time>2019-12-08T13:01:47.000Z</time>
      </trkpt>
      <trkpt lat="43.61766" lon="6.70318">
        <ele>240.39</ele>
        <time>2019-12-08T13:01:48.000Z</time>
      </trkpt>
      <trkpt lat="43.61767" lon="6.70325">
        <ele>240.69</ele>
        <time>2019-12-08T13:01:49.000Z</time>
      </trkpt>
      <trkpt lat="43.61769" lon="6.70333">
        <ele>241.02</ele>
        <time>2019-12-08T13:01:50.000Z</time>
      </trkpt>
      <trkpt lat="43.6177" lon="6.70341">
        <ele>241.12</ele>
        <time>2019-12-08T13:01:51.000Z</time>
      </trkpt>
      <trkpt lat="43.61772" lon="6.70349">
        <ele>241.06</ele>
        <time>2019-12-08T13:01:52.000Z</time>
      </trkpt>
      <trkpt lat="43.61773" lon="6.70357">
        <ele>241.02</ele>
        <time>2019-12-08T13:01:53.000Z</time>
      </trkpt>
      <trkpt lat="43.61774" lon="6.70365">
        <ele>240.93</ele>
        <time>2019-12-08T13:01:54.000Z</time>
      </trkpt>
      <trkpt lat="43.61775" lon="6.70374">
        <ele>240.76</ele>
        <time>2019-12-08T13:01:55.000Z</time>
      </trkpt>
      <trkpt lat="43.61776" lon="6.70383">
        <ele>240.73</ele>
        <time>2019-12-08T13:01:56.000Z</time>
      </trkpt>
      <trkpt lat="43.61777" lon="6.70392">
        <ele>240.76</ele>
        <time>2019-12-08T13:01:57.000Z</time>
      </trkpt>
      <trkpt lat="43.61777" lon="6.70401">
        <ele>240.74</ele>
        <time>2019-12-08T13:01:58.000Z</time>
      </trkpt>
      <trkpt lat="43.61778" lon="6.70411">
        <ele>240.64</ele>
        <time>2019-12-08T13:01:59.000Z</time>
      </trkpt>
      <trkpt lat="43.61778" lon="6.7042">
        <ele>240.54</ele>
        <time>2019-12-08T13:02:00.000Z</time>
      </trkpt>
      <trkpt lat="43.61779" lon="6.7043">
        <ele>240.48</ele>
        <time>2019-12-08T13:02:01.000Z</time>
      </trkpt>
      <trkpt lat="43.61779" lon="6.70439">
        <ele>240.48</ele>
        <time>2019-12-08T13:02:02.000Z</time>
      </trkpt>
      <trkpt lat="43.61779" lon="6.70449">
        <ele>240.38</ele>
        <time>2019-12-08T13:02:03.000Z</time>
      </trkpt>
      <trkpt lat="43.6178" lon="6.70459">
        <ele>240.46</ele>
        <time>2019-12-08T13:02:04.000Z</time>
      </trkpt>
      <trkpt lat="43.6178" lon="6.70468">
        <ele>240.49</ele>
        <time>2019-12-08T13:02:05.000Z</time>
      </trkpt>
      <trkpt lat="43.6178" lon="6.70478">
        <ele>240.63</ele>
        <time>2019-12-08T13:02:06.000Z</time>
      </trkpt>
      <trkpt lat="43.61781" lon="6.70487">
        <ele>240.62</ele>
        <time>2019-12-08T13:02:07.000Z</time>
      </trkpt>
      <trkpt lat="43.61782" lon="6.70497">
        <ele>240.46</ele>
        <time>2019-12-08T13:02:08.000Z</time>
      </trkpt>
      <trkpt lat="43.61782" lon="6.70506">
        <ele>240.37</ele>
        <time>2019-12-08T13:02:09.000Z</time>
      </trkpt>
      <trkpt lat="43.61783" lon="6.70516">
        <ele>240.27</ele>
        <time>2019-12-08T13:02:10.000Z</time>
      </trkpt>
      <trkpt lat="43.61784" lon="6.70525">
        <ele>240.3</ele>
        <time>2019-12-08T13:02:11.000Z</time>
      </trkpt>
      <trkpt lat="43.61784" lon="6.70535">
        <ele>240.42</ele>
        <time>2019-12-08T13:02:12.000Z</time>
      </trkpt>
      <trkpt lat="43.61785" lon="6.70544">
        <ele>240.48</ele>
        <time>2019-12-08T13:02:13.000Z</time>
      </trkpt>
      <trkpt lat="43.61785" lon="6.70554">
        <ele>240.66</ele>
        <time>2019-12-08T13:02:14.000Z</time>
      </trkpt>
      <trkpt lat="43.61785" lon="6.70563">
        <ele>240.84</ele>
        <time>2019-12-08T13:02:15.000Z</time>
      </trkpt>
      <trkpt lat="43.61786" lon="6.70573">
        <ele>240.88</ele>
        <time>2019-12-08T13:02:16.000Z</time>
      </trkpt>
      <trkpt lat="43.61786" lon="6.70582">
        <ele>240.89</ele>
        <time>2019-12-08T13:02:17.000Z</time>
      </trkpt>
      <trkpt lat="43.61786" lon="6.70592">
        <ele>240.85</ele>
        <time>2019-12-08T13:02:18.000Z</time>
      </trkpt>
      <trkpt lat="43.61787" lon="6.70602">
        <ele>240.9</ele>
        <time>2019-12-08T13:02:19.000Z</time>
      </trkpt>
      <trkpt lat="43.61787" lon="6.70611">
        <ele>241.1</ele>
        <time>2019-12-08T13:02:20.000Z</time>
      </trkpt>
      <trkpt lat="43.61788" lon="6.7062">
        <ele>241.17</ele>
        <time>2019-12-08T13:02:21.000Z</time>
      </trkpt>
      <trkpt lat="43.61788" lon="6.7063">
        <ele>241.24</ele>
        <time>2019-12-08T13:02:22.000Z</time>
      </trkpt>
      <trkpt lat="43.61789" lon="6.70639">
        <ele>241.35</ele>
        <time>2019-12-08T13:02:23.000Z</time>
      </trkpt>
      <trkpt lat="43.61789" lon="6.70649">
        <ele>241.3</ele>
        <time>2019-12-08T13:02:24.000Z</time>
      </trkpt>
      <trkpt lat="43.6179" lon="6.70658">
        <ele>241.26</ele>
        <time>2019-12-08T13:02:25.000Z</time>
      </trkpt>
      <trkpt lat="43.61791" lon="6.70667">
        <ele>241.33</ele>
        <time>2019-12-08T13:02:26.000Z</time>
      </trkpt>
      <trkpt lat="43.61792" lon="6.70676">
        <ele>241.44</ele>
        <time>2019-12-08T13:02:27.000Z</time>
      </trkpt>
      <trkpt lat="43.61792" lon="6.70685">
        <ele>241.61</ele>
        <time>2019-12-08T13:02:28.000Z</time>
      </trkpt>
      <trkpt lat="43.61792" lon="6.70694">
        <ele>241.63</ele>
        <time>2019-12-08T13:02:29.000Z</time>
      </trkpt>
      <trkpt lat="43.61792" lon="6.70704">
        <ele>241.63</ele>
        <time>2019-12-08T13:02:30.000Z</time>
      </trkpt>
      <trkpt lat="43.61792" lon="6.70713">
        <ele>241.62</ele>
        <time>2019-12-08T13:02:31.000Z</time>
      </trkpt>
      <trkpt lat="43.61793" lon="6.70722">
        <ele>241.62</ele>
        <time>2019-12-08T13:02:32.000Z</time>
      </trkpt>
      <trkpt lat="43.61793" lon="6.70732">
        <ele>241.63</ele>
        <time>2019-12-08T13:02:33.000Z</time>
      </trkpt>
      <trkpt lat="43.61794" lon="6.70742">
        <ele>241.63</ele>
        <time>2019-12-08T13:02:34.000Z</time>
      </trkpt>
      <trkpt lat="43.61794" lon="6.70752">
        <ele>241.59</ele>
        <time>2019-12-08T13:02:35.000Z</time>
      </trkpt>
      <trkpt lat="43.61794" lon="6.70762">
        <ele>241.62</ele>
        <time>2019-12-08T13:02:36.000Z</time>
      </trkpt>
      <trkpt lat="43.61794" lon="6.70771">
        <ele>241.6</ele>
        <time>2019-12-08T13:02:37.000Z</time>
      </trkpt>
      <trkpt lat="43.61794" lon="6.70781">
        <ele>241.57</ele>
        <time>2019-12-08T13:02:38.000Z</time>
      </trkpt>
      <trkpt lat="43.61793" lon="6.70791">
        <ele>241.59</ele>
        <time>2019-12-08T13:02:39.000Z</time>
      </trkpt>
      <trkpt lat="43.61792" lon="6.70801">
        <ele>241.56</ele>
        <time>2019-12-08T13:02:40.000Z</time>
      </trkpt>
      <trkpt lat="43.6179" lon="6.70811">
        <ele>241.59</ele>
        <time>2019-12-08T13:02:41.000Z</time>
      </trkpt>
      <trkpt lat="43.61788" lon="6.7082">
        <ele>241.6</ele>
        <time>2019-12-08T13:02:42.000Z</time>
      </trkpt>
      <trkpt lat="43.61787" lon="6.7083">
        <ele>241.67</ele>
        <time>2019-12-08T13:02:43.000Z</time>
      </trkpt>
      <trkpt lat="43.61785" lon="6.7084">
        <ele>241.7</ele>
        <time>2019-12-08T13:02:44.000Z</time>
      </trkpt>
      <trkpt lat="43.61783" lon="6.70849">
        <ele>241.71</ele>
        <time>2019-12-08T13:02:45.000Z</time>
      </trkpt>
      <trkpt lat="43.61782" lon="6.70859">
        <ele>241.71</ele>
        <time>2019-12-08T13:02:46.000Z</time>
      </trkpt>
      <trkpt lat="43.6178" lon="6.70868">
        <ele>241.86</ele>
        <time>2019-12-08T13:02:47.000Z</time>
      </trkpt>
      <trkpt lat="43.61778" lon="6.70877">
        <ele>241.99</ele>
        <time>2019-12-08T13:02:48.000Z</time>
      </trkpt>
      <trkpt lat="43.61777" lon="6.70886">
        <ele>242.15</ele>
        <time>2019-12-08T13:02:49.000Z</time>
      </trkpt>
      <trkpt lat="43.61775" lon="6.70895">
        <ele>242.2</ele>
        <time>2019-12-08T13:02:50.000Z</time>
      </trkpt>
      <trkpt lat="43.61774" lon="6.70904">
        <ele>242.3</ele>
        <time>2019-12-08T13:02:51.000Z</time>
      </trkpt>
      <trkpt lat="43.61773" lon="6.70913">
        <ele>242.3</ele>
        <time>2019-12-08T13:02:52.000Z</time>
      </trkpt>
      <trkpt lat="43.61771" lon="6.70922">
        <ele>242.28</ele>
        <time>2019-12-08T13:02:53.000Z</time>
      </trkpt>
      <trkpt lat="43.6177" lon="6.70932">
        <ele>242.29</ele>
        <time>2019-12-08T13:02:54.000Z</time>
      </trkpt>
      <trkpt lat="43.61769" lon="6.70942">
        <ele>242.43</ele>
        <time>2019-12-08T13:02:55.000Z</time>
      </trkpt>
      <trkpt lat="43.61767" lon="6.70951">
        <ele>242.39</ele>
        <time>2019-12-08T13:02:56.000Z</time>
      </trkpt>
      <trkpt lat="43.61765" lon="6.70961">
        <ele>242.38</ele>
        <time>2019-12-08T13:02:57.000Z</time>
      </trkpt>
      <trkpt lat="43.61764" lon="6.70971">
        <ele>242.36</ele>
        <time>2019-12-08T13:02:58.000Z</time>
      </trkpt>
      <trkpt lat="43.61763" lon="6.7098">
        <ele>242.36</ele>
        <time>2019-12-08T13:02:59.000Z</time>
      </trkpt>
      <trkpt lat="43.61761" lon="6.7099">
        <ele>242.29</ele>
        <time>2019-12-08T13:03:00.000Z</time>
      </trkpt>
      <trkpt lat="43.6176" lon="6.71001">
        <ele>242.17</ele>
        <time>2019-12-08T13:03:01.000Z</time>
      </trkpt>
      <trkpt lat="43.61759" lon="6.71011">
        <ele>242.06</ele>
        <time>2019-12-08T13:03:02.000Z</time>
      </trkpt>
      <trkpt lat="43.61757" lon="6.71022">
        <ele>241.87</ele>
        <time>2019-12-08T13:03:03.000Z</time>
      </trkpt>
      <trkpt lat="43.61757" lon="6.71033">
        <ele>241.53</ele>
        <time>2019-12-08T13:03:04.000Z</time>
      </trkpt>
      <trkpt lat="43.61756" lon="6.71044">
        <ele>241.29</ele>
        <time>2019-12-08T13:03:05.000Z</time>
      </trkpt>
      <trkpt lat="43.61756" lon="6.71055">
        <ele>241.12</ele>
        <time>2019-12-08T13:03:06.000Z</time>
      </trkpt>
      <trkpt lat="43.61755" lon="6.71066">
        <ele>240.85</ele>
        <time>2019-12-08T13:03:07.000Z</time>
      </trkpt>
      <trkpt lat="43.61755" lon="6.71078">
        <ele>240.6</ele>
        <time>2019-12-08T13:03:08.000Z</time>
      </trkpt>
      <trkpt lat="43.61755" lon="6.71089">
        <ele>240.3</ele>
        <time>2019-12-08T13:03:09.000Z</time>
      </trkpt>
      <trkpt lat="43.61755" lon="6.711">
        <ele>240.19</ele>
        <time>2019-12-08T13:03:10.000Z</time>
      </trkpt>
      <trkpt lat="43.61754" lon="6.71112">
        <ele>239.98</ele>
        <time>2019-12-08T13:03:11.000Z</time>
      </trkpt>
      <trkpt lat="43.61754" lon="6.71124">
        <ele>239.69</ele>
        <time>2019-12-08T13:03:12.000Z</time>
      </trkpt>
      <trkpt lat="43.61753" lon="6.71136">
        <ele>239.41</ele>
        <time>2019-12-08T13:03:13.000Z</time>
      </trkpt>
      <trkpt lat="43.61752" lon="6.71148">
        <ele>239.11</ele>
        <time>2019-12-08T13:03:14.000Z</time>
      </trkpt>
      <trkpt lat="43.61751" lon="6.7116">
        <ele>238.95</ele>
        <time>2019-12-08T13:03:15.000Z</time>
      </trkpt>
      <trkpt lat="43.6175" lon="6.71172">
        <ele>238.62</ele>
        <time>2019-12-08T13:03:16.000Z</time>
      </trkpt>
      <trkpt lat="43.61749" lon="6.71184">
        <ele>238.31</ele>
        <time>2019-12-08T13:03:17.000Z</time>
      </trkpt>
      <trkpt lat="43.61748" lon="6.71196">
        <ele>238.04</ele>
        <time>2019-12-08T13:03:18.000Z</time>
      </trkpt>
      <trkpt lat="43.61747" lon="6.71208">
        <ele>237.89</ele>
        <time>2019-12-08T13:03:19.000Z</time>
      </trkpt>
      <trkpt lat="43.61745" lon="6.7122">
        <ele>237.69</ele>
        <time>2019-12-08T13:03:20.000Z</time>
      </trkpt>
      <trkpt lat="43.61744" lon="6.71232">
        <ele>237.53</ele>
        <time>2019-12-08T13:03:21.000Z</time>
      </trkpt>
      <trkpt lat="43.61742" lon="6.71244">
        <ele>237.42</ele>
        <time>2019-12-08T13:03:22.000Z</time>
      </trkpt>
      <trkpt lat="43.61741" lon="6.71256">
        <ele>237.37</ele>
        <time>2019-12-08T13:03:23.000Z</time>
      </trkpt>
      <trkpt lat="43.6174" lon="6.71268">
        <ele>237.3</ele>
        <time>2019-12-08T13:03:24.000Z</time>
      </trkpt>
      <trkpt lat="43.61738" lon="6.71279">
        <ele>237.24</ele>
        <time>2019-12-08T13:03:25.000Z</time>
      </trkpt>
      <trkpt lat="43.61736" lon="6.7129">
        <ele>237.22</ele>
        <time>2019-12-08T13:03:26.000Z</time>
      </trkpt>
      <trkpt lat="43.61733" lon="6.713">
        <ele>237.21</ele>
        <time>2019-12-08T13:03:27.000Z</time>
      </trkpt>
      <trkpt lat="43.61731" lon="6.7131">
        <ele>237.23</ele>
        <time>2019-12-08T13:03:28.000Z</time>
      </trkpt>
      <trkpt lat="43.61727" lon="6.71321">
        <ele>237.22</ele>
        <time>2019-12-08T13:03:29.000Z</time>
      </trkpt>
      <trkpt lat="43.61724" lon="6.71331">
        <ele>237.05</ele>
        <time>2019-12-08T13:03:30.000Z</time>
      </trkpt>
      <trkpt lat="43.6172" lon="6.71342">
        <ele>236.95</ele>
        <time>2019-12-08T13:03:31.000Z</time>
      </trkpt>
      <trkpt lat="43.61716" lon="6.71353">
        <ele>236.8</ele>
        <time>2019-12-08T13:03:32.000Z</time>
      </trkpt>
      <trkpt lat="43.61712" lon="6.71363">
        <ele>236.5</ele>
        <time>2019-12-08T13:03:33.000Z</time>
      </trkpt>
      <trkpt lat="43.61708" lon="6.71374">
        <ele>236.34</ele>
        <time>2019-12-08T13:03:34.000Z</time>
      </trkpt>
      <trkpt lat="43.61704" lon="6.71384">
        <ele>236.21</ele>
        <time>2019-12-08T13:03:35.000Z</time>
      </trkpt>
      <trkpt lat="43.617" lon="6.71395">
        <ele>235.95</ele>
        <time>2019-12-08T13:03:36.000Z</time>
      </trkpt>
      <trkpt lat="43.61696" lon="6.71406">
        <ele>235.67</ele>
        <time>2019-12-08T13:03:37.000Z</time>
      </trkpt>
      <trkpt lat="43.61692" lon="6.71417">
        <ele>235.37</ele>
        <time>2019-12-08T13:03:38.000Z</time>
      </trkpt>
      <trkpt lat="43.61688" lon="6.71428">
        <ele>235.25</ele>
        <time>2019-12-08T13:03:39.000Z</time>
      </trkpt>
      <trkpt lat="43.61684" lon="6.71439">
        <ele>234.96</ele>
        <time>2019-12-08T13:03:40.000Z</time>
      </trkpt>
      <trkpt lat="43.6168" lon="6.7145">
        <ele>234.66</ele>
        <time>2019-12-08T13:03:41.000Z</time>
      </trkpt>
      <trkpt lat="43.61676" lon="6.71461">
        <ele>234.39</ele>
        <time>2019-12-08T13:03:42.000Z</time>
      </trkpt>
      <trkpt lat="43.61672" lon="6.71472">
        <ele>234.1</ele>
        <time>2019-12-08T13:03:43.000Z</time>
      </trkpt>
      <trkpt lat="43.61669" lon="6.71484">
        <ele>233.95</ele>
        <time>2019-12-08T13:03:44.000Z</time>
      </trkpt>
      <trkpt lat="43.61665" lon="6.71495">
        <ele>233.74</ele>
        <time>2019-12-08T13:03:45.000Z</time>
      </trkpt>
      <trkpt lat="43.61662" lon="6.71506">
        <ele>233.5</ele>
        <time>2019-12-08T13:03:46.000Z</time>
      </trkpt>
      <trkpt lat="43.61658" lon="6.71517">
        <ele>233.41</ele>
        <time>2019-12-08T13:03:47.000Z</time>
      </trkpt>
      <trkpt lat="43.61654" lon="6.71529">
        <ele>233.19</ele>
        <time>2019-12-08T13:03:48.000Z</time>
      </trkpt>
      <trkpt lat="43.61651" lon="6.7154">
        <ele>232.96</ele>
        <time>2019-12-08T13:03:49.000Z</time>
      </trkpt>
      <trkpt lat="43.61648" lon="6.71552">
        <ele>232.65</ele>
        <time>2019-12-08T13:03:50.000Z</time>
      </trkpt>
      <trkpt lat="43.61644" lon="6.71563">
        <ele>232.35</ele>
        <time>2019-12-08T13:03:51.000Z</time>
      </trkpt>
      <trkpt lat="43.61641" lon="6.71574">
        <ele>232.17</ele>
        <time>2019-12-08T13:03:52.000Z</time>
      </trkpt>
      <trkpt lat="43.61638" lon="6.71585">
        <ele>231.88</ele>
        <time>2019-12-08T13:03:53.000Z</time>
      </trkpt>
      <trkpt lat="43.61635" lon="6.71596">
        <ele>231.71</ele>
        <time>2019-12-08T13:03:54.000Z</time>
      </trkpt>
      <trkpt lat="43.61631" lon="6.71607">
        <ele>231.63</ele>
        <time>2019-12-08T13:03:55.000Z</time>
      </trkpt>
      <trkpt lat="43.61628" lon="6.71618">
        <ele>231.57</ele>
        <time>2019-12-08T13:03:56.000Z</time>
      </trkpt>
      <trkpt lat="43.61626" lon="6.71628">
        <ele>231.52</ele>
        <time>2019-12-08T13:03:57.000Z</time>
      </trkpt>
      <trkpt lat="43.61623" lon="6.71639">
        <ele>231.45</ele>
        <time>2019-12-08T13:03:58.000Z</time>
      </trkpt>
      <trkpt lat="43.6162" lon="6.71649">
        <ele>231.33</ele>
        <time>2019-12-08T13:03:59.000Z</time>
      </trkpt>
      <trkpt lat="43.61617" lon="6.71659">
        <ele>231.3</ele>
        <time>2019-12-08T13:04:00.000Z</time>
      </trkpt>
      <trkpt lat="43.61615" lon="6.71669">
        <ele>231.35</ele>
        <time>2019-12-08T13:04:01.000Z</time>
      </trkpt>
      <trkpt lat="43.61612" lon="6.71679">
        <ele>231.37</ele>
        <time>2019-12-08T13:04:02.000Z</time>
      </trkpt>
      <trkpt lat="43.6161" lon="6.71688">
        <ele>231.48</ele>
        <time>2019-12-08T13:04:03.000Z</time>
      </trkpt>
      <trkpt lat="43.61607" lon="6.71697">
        <ele>231.54</ele>
        <time>2019-12-08T13:04:04.000Z</time>
      </trkpt>
      <trkpt lat="43.61605" lon="6.71706">
        <ele>231.64</ele>
        <time>2019-12-08T13:04:05.000Z</time>
      </trkpt>
      <trkpt lat="43.61602" lon="6.71715">
        <ele>231.71</ele>
        <time>2019-12-08T13:04:06.000Z</time>
      </trkpt>
      <trkpt lat="43.61599" lon="6.71724">
        <ele>231.86</ele>
        <time>2019-12-08T13:04:07.000Z</time>
      </trkpt>
      <trkpt lat="43.61597" lon="6.71732">
        <ele>231.95</ele>
        <time>2019-12-08T13:04:08.000Z</time>
      </trkpt>
      <trkpt lat="43.61594" lon="6.71741">
        <ele>231.95</ele>
        <time>2019-12-08T13:04:09.000Z</time>
      </trkpt>
      <trkpt lat="43.61592" lon="6.71749">
        <ele>232.04</ele>
        <time>2019-12-08T13:04:10.000Z</time>
      </trkpt>
      <trkpt lat="43.61589" lon="6.71757">
        <ele>232.24</ele>
        <time>2019-12-08T13:04:11.000Z</time>
      </trkpt>
      <trkpt lat="43.61586" lon="6.71764">
        <ele>232.46</ele>
        <time>2019-12-08T13:04:12.000Z</time>
      </trkpt>
      <trkpt lat="43.61584" lon="6.71771">
        <ele>232.55</ele>
        <time>2019-12-08T13:04:13.000Z</time>
      </trkpt>
      <trkpt lat="43.61581" lon="6.71778">
        <ele>232.8</ele>
        <time>2019-12-08T13:04:14.000Z</time>
      </trkpt>
      <trkpt lat="43.61578" lon="6.71785">
        <ele>233.03</ele>
        <time>2019-12-08T13:04:15.000Z</time>
      </trkpt>
      <trkpt lat="43.61575" lon="6.71791">
        <ele>233.17</ele>
        <time>2019-12-08T13:04:16.000Z</time>
      </trkpt>
      <trkpt lat="43.61572" lon="6.71798">
        <ele>233.43</ele>
        <time>2019-12-08T13:04:17.000Z</time>
      </trkpt>
      <trkpt lat="43.61568" lon="6.71804">
        <ele>233.65</ele>
        <time>2019-12-08T13:04:18.000Z</time>
      </trkpt>
      <trkpt lat="43.61565" lon="6.7181">
        <ele>233.99</ele>
        <time>2019-12-08T13:04:19.000Z</time>
      </trkpt>
      <trkpt lat="43.61562" lon="6.71816">
        <ele>234.3</ele>
        <time>2019-12-08T13:04:20.000Z</time>
      </trkpt>
      <trkpt lat="43.61558" lon="6.71821">
        <ele>234.46</ele>
        <time>2019-12-08T13:04:21.000Z</time>
      </trkpt>
      <trkpt lat="43.61555" lon="6.71827">
        <ele>234.79</ele>
        <time>2019-12-08T13:04:22.000Z</time>
      </trkpt>
      <trkpt lat="43.61551" lon="6.71832">
        <ele>235.08</ele>
        <time>2019-12-08T13:04:23.000Z</time>
      </trkpt>
      <trkpt lat="43.61548" lon="6.71838">
        <ele>235.32</ele>
        <time>2019-12-08T13:04:24.000Z</time>
      </trkpt>
      <trkpt lat="43.61544" lon="6.71843">
        <ele>235.43</ele>
        <time>2019-12-08T13:04:25.000Z</time>
      </trkpt>
      <trkpt lat="43.6154" lon="6.71848">
        <ele>235.61</ele>
        <time>2019-12-08T13:04:26.000Z</time>
      </trkpt>
      <trkpt lat="43.61536" lon="6.71853">
        <ele>235.89</ele>
        <time>2019-12-08T13:04:27.000Z</time>
      </trkpt>
      <trkpt lat="43.61533" lon="6.71858">
        <ele>236.11</ele>
        <time>2019-12-08T13:04:28.000Z</time>
      </trkpt>
      <trkpt lat="43.61529" lon="6.71863">
        <ele>236.18</ele>
        <time>2019-12-08T13:04:29.000Z</time>
      </trkpt>
      <trkpt lat="43.61525" lon="6.71868">
        <ele>236.33</ele>
        <time>2019-12-08T13:04:30.000Z</time>
      </trkpt>
      <trkpt lat="43.61521" lon="6.71873">
        <ele>236.56</ele>
        <time>2019-12-08T13:04:31.000Z</time>
      </trkpt>
      <trkpt lat="43.61517" lon="6.71878">
        <ele>236.68</ele>
        <time>2019-12-08T13:04:32.000Z</time>
      </trkpt>
      <trkpt lat="43.61513" lon="6.71884">
        <ele>236.74</ele>
        <time>2019-12-08T13:04:33.000Z</time>
      </trkpt>
      <trkpt lat="43.61509" lon="6.7189">
        <ele>236.9</ele>
        <time>2019-12-08T13:04:34.000Z</time>
      </trkpt>
      <trkpt lat="43.61505" lon="6.71896">
        <ele>236.89</ele>
        <time>2019-12-08T13:04:35.000Z</time>
      </trkpt>
      <trkpt lat="43.615" lon="6.71902">
        <ele>236.83</ele>
        <time>2019-12-08T13:04:36.000Z</time>
      </trkpt>
      <trkpt lat="43.61496" lon="6.71908">
        <ele>236.81</ele>
        <time>2019-12-08T13:04:37.000Z</time>
      </trkpt>
      <trkpt lat="43.61491" lon="6.71915">
        <ele>236.81</ele>
        <time>2019-12-08T13:04:38.000Z</time>
      </trkpt>
      <trkpt lat="43.61487" lon="6.71921">
        <ele>236.82</ele>
        <time>2019-12-08T13:04:39.000Z</time>
      </trkpt>
      <trkpt lat="43.61482" lon="6.71928">
        <ele>236.85</ele>
        <time>2019-12-08T13:04:40.000Z</time>
      </trkpt>
      <trkpt lat="43.61478" lon="6.71935">
        <ele>236.88</ele>
        <time>2019-12-08T13:04:41.000Z</time>
      </trkpt>
      <trkpt lat="43.61474" lon="6.71942">
        <ele>236.86</ele>
        <time>2019-12-08T13:04:42.000Z</time>
      </trkpt>
      <trkpt lat="43.61469" lon="6.71949">
        <ele>236.8</ele>
        <time>2019-12-08T13:04:43.000Z</time>
      </trkpt>
      <trkpt lat="43.61465" lon="6.71956">
        <ele>236.71</ele>
        <time>2019-12-08T13:04:44.000Z</time>
      </trkpt>
      <trkpt lat="43.61461" lon="6.71963">
        <ele>236.7</ele>
        <time>2019-12-08T13:04:45.000Z</time>
      </trkpt>
      <trkpt lat="43.61456" lon="6.71971">
        <ele>236.65</ele>
        <time>2019-12-08T13:04:46.000Z</time>
      </trkpt>
      <trkpt lat="43.61451" lon="6.71979">
        <ele>236.59</ele>
        <time>2019-12-08T13:04:47.000Z</time>
      </trkpt>
      <trkpt lat="43.61447" lon="6.71986">
        <ele>236.59</ele>
        <time>2019-12-08T13:04:48.000Z</time>
      </trkpt>
      <trkpt lat="43.61443" lon="6.71994">
        <ele>236.55</ele>
        <time>2019-12-08T13:04:49.000Z</time>
      </trkpt>
      <trkpt lat="43.61438" lon="6.72002">
        <ele>236.43</ele>
        <time>2019-12-08T13:04:50.000Z</time>
      </trkpt>
      <trkpt lat="43.61433" lon="6.7201">
        <ele>236.37</ele>
        <time>2019-12-08T13:04:51.000Z</time>
      </trkpt>
      <trkpt lat="43.61429" lon="6.72018">
        <ele>236.37</ele>
        <time>2019-12-08T13:04:52.000Z</time>
      </trkpt>
      <trkpt lat="43.61424" lon="6.72026">
        <ele>236.3</ele>
        <time>2019-12-08T13:04:53.000Z</time>
      </trkpt>
      <trkpt lat="43.6142" lon="6.72034">
        <ele>236.28</ele>
        <time>2019-12-08T13:04:54.000Z</time>
      </trkpt>
      <trkpt lat="43.61416" lon="6.72042">
        <ele>236.36</ele>
        <time>2019-12-08T13:04:55.000Z</time>
      </trkpt>
      <trkpt lat="43.61411" lon="6.7205">
        <ele>236.44</ele>
        <time>2019-12-08T13:04:56.000Z</time>
      </trkpt>
      <trkpt lat="43.61407" lon="6.72058">
        <ele>236.55</ele>
        <time>2019-12-08T13:04:57.000Z</time>
      </trkpt>
      <trkpt lat="43.61403" lon="6.72065">
        <ele>236.68</ele>
        <time>2019-12-08T13:04:58.000Z</time>
      </trkpt>
      <trkpt lat="43.614" lon="6.72073">
        <ele>236.83</ele>
        <time>2019-12-08T13:04:59.000Z</time>
      </trkpt>
      <trkpt lat="43.61396" lon="6.72081">
        <ele>237.12</ele>
        <time>2019-12-08T13:05:00.000Z</time>
      </trkpt>
      <trkpt lat="43.61393" lon="6.72089">
        <ele>237.41</ele>
        <time>2019-12-08T13:05:01.000Z</time>
      </trkpt>
      <trkpt lat="43.61389" lon="6.72097">
        <ele>237.53</ele>
        <time>2019-12-08T13:05:02.000Z</time>
      </trkpt>
      <trkpt lat="43.61386" lon="6.72105">
        <ele>237.72</ele>
        <time>2019-12-08T13:05:03.000Z</time>
      </trkpt>
      <trkpt lat="43.61383" lon="6.72113">
        <ele>237.9</ele>
        <time>2019-12-08T13:05:04.000Z</time>
      </trkpt>
      <trkpt lat="43.61379" lon="6.72122">
        <ele>237.9</ele>
        <time>2019-12-08T13:05:05.000Z</time>
      </trkpt>
      <trkpt lat="43.61376" lon="6.72131">
        <ele>237.9</ele>
        <time>2019-12-08T13:05:06.000Z</time>
      </trkpt>
      <trkpt lat="43.61373" lon="6.72139">
        <ele>237.81</ele>
        <time>2019-12-08T13:05:07.000Z</time>
      </trkpt>
      <trkpt lat="43.61369" lon="6.72148">
        <ele>237.78</ele>
        <time>2019-12-08T13:05:08.000Z</time>
      </trkpt>
      <trkpt lat="43.61366" lon="6.72157">
        <ele>237.88</ele>
        <time>2019-12-08T13:05:09.000Z</time>
      </trkpt>
      <trkpt lat="43.61363" lon="6.72166">
        <ele>237.88</ele>
        <time>2019-12-08T13:05:10.000Z</time>
      </trkpt>
      <trkpt lat="43.61359" lon="6.72175">
        <ele>237.95</ele>
        <time>2019-12-08T13:05:11.000Z</time>
      </trkpt>
      <trkpt lat="43.61356" lon="6.72184">
        <ele>237.96</ele>
        <time>2019-12-08T13:05:12.000Z</time>
      </trkpt>
      <trkpt lat="43.61352" lon="6.72193">
        <ele>237.77</ele>
        <time>2019-12-08T13:05:13.000Z</time>
      </trkpt>
      <trkpt lat="43.61349" lon="6.72203">
        <ele>237.65</ele>
        <time>2019-12-08T13:05:14.000Z</time>
      </trkpt>
      <trkpt lat="43.61346" lon="6.72212">
        <ele>237.45</ele>
        <time>2019-12-08T13:05:15.000Z</time>
      </trkpt>
      <trkpt lat="43.61343" lon="6.72222">
        <ele>237.17</ele>
        <time>2019-12-08T13:05:16.000Z</time>
      </trkpt>
      <trkpt lat="43.61339" lon="6.72233">
        <ele>236.8</ele>
        <time>2019-12-08T13:05:17.000Z</time>
      </trkpt>
      <trkpt lat="43.61336" lon="6.72243">
        <ele>236.65</ele>
        <time>2019-12-08T13:05:18.000Z</time>
      </trkpt>
      <trkpt lat="43.61332" lon="6.72254">
        <ele>236.29</ele>
        <time>2019-12-08T13:05:19.000Z</time>
      </trkpt>
      <trkpt lat="43.61328" lon="6.72265">
        <ele>235.8</ele>
        <time>2019-12-08T13:05:20.000Z</time>
      </trkpt>
      <trkpt lat="43.61323" lon="6.72276">
        <ele>235.31</ele>
        <time>2019-12-08T13:05:21.000Z</time>
      </trkpt>
      <trkpt lat="43.61319" lon="6.72287">
        <ele>235.09</ele>
        <time>2019-12-08T13:05:22.000Z</time>
      </trkpt>
      <trkpt lat="43.61314" lon="6.72298">
        <ele>234.7</ele>
        <time>2019-12-08T13:05:23.000Z</time>
      </trkpt>
      <trkpt lat="43.61308" lon="6.72309">
        <ele>234.34</ele>
        <time>2019-12-08T13:05:24.000Z</time>
      </trkpt>
      <trkpt lat="43.61302" lon="6.72318">
        <ele>234.03</ele>
        <time>2019-12-08T13:05:25.000Z</time>
      </trkpt>
      <trkpt lat="43.61295" lon="6.72328">
        <ele>233.91</ele>
        <time>2019-12-08T13:05:26.000Z</time>
      </trkpt>
      <trkpt lat="43.61289" lon="6.72337">
        <ele>233.63</ele>
        <time>2019-12-08T13:05:27.000Z</time>
      </trkpt>
      <trkpt lat="43.61282" lon="6.72346">
        <ele>233.33</ele>
        <time>2019-12-08T13:05:28.000Z</time>
      </trkpt>
      <trkpt lat="43.61275" lon="6.72355">
        <ele>233.01</ele>
        <time>2019-12-08T13:05:29.000Z</time>
      </trkpt>
      <trkpt lat="43.61268" lon="6.72364">
        <ele>232.58</ele>
        <time>2019-12-08T13:05:30.000Z</time>
      </trkpt>
      <trkpt lat="43.61261" lon="6.72374">
        <ele>232.35</ele>
        <time>2019-12-08T13:05:31.000Z</time>
      </trkpt>
      <trkpt lat="43.61253" lon="6.72383">
        <ele>231.83</ele>
        <time>2019-12-08T13:05:32.000Z</time>
      </trkpt>
      <trkpt lat="43.61245" lon="6.72392">
        <ele>231.29</ele>
        <time>2019-12-08T13:05:33.000Z</time>
      </trkpt>
      <trkpt lat="43.61238" lon="6.72402">
        <ele>231</ele>
        <time>2019-12-08T13:05:34.000Z</time>
      </trkpt>
      <trkpt lat="43.61231" lon="6.72411">
        <ele>230.45</ele>
        <time>2019-12-08T13:05:35.000Z</time>
      </trkpt>
      <trkpt lat="43.61223" lon="6.72421">
        <ele>229.79</ele>
        <time>2019-12-08T13:05:36.000Z</time>
      </trkpt>
      <trkpt lat="43.61216" lon="6.72431">
        <ele>229.26</ele>
        <time>2019-12-08T13:05:37.000Z</time>
      </trkpt>
      <trkpt lat="43.61209" lon="6.72442">
        <ele>228.7</ele>
        <time>2019-12-08T13:05:38.000Z</time>
      </trkpt>
      <trkpt lat="43.61203" lon="6.72453">
        <ele>228.38</ele>
        <time>2019-12-08T13:05:39.000Z</time>
      </trkpt>
      <trkpt lat="43.61196" lon="6.72465">
        <ele>227.75</ele>
        <time>2019-12-08T13:05:40.000Z</time>
      </trkpt>
      <trkpt lat="43.6119" lon="6.72477">
        <ele>227.11</ele>
        <time>2019-12-08T13:05:41.000Z</time>
      </trkpt>
      <trkpt lat="43.61185" lon="6.72488">
        <ele>226.5</ele>
        <time>2019-12-08T13:05:42.000Z</time>
      </trkpt>
      <trkpt lat="43.61179" lon="6.725">
        <ele>226.16</ele>
        <time>2019-12-08T13:05:43.000Z</time>
      </trkpt>
      <trkpt lat="43.61174" lon="6.72512">
        <ele>225.63</ele>
        <time>2019-12-08T13:05:44.000Z</time>
      </trkpt>
      <trkpt lat="43.61168" lon="6.72524">
        <ele>225.18</ele>
        <time>2019-12-08T13:05:45.000Z</time>
      </trkpt>
      <trkpt lat="43.61163" lon="6.72535">
        <ele>224.8</ele>
        <time>2019-12-08T13:05:46.000Z</time>
      </trkpt>
      <trkpt lat="43.61158" lon="6.72546">
        <ele>224.64</ele>
        <time>2019-12-08T13:05:47.000Z</time>
      </trkpt>
      <trkpt lat="43.61152" lon="6.72557">
        <ele>224.58</ele>
        <time>2019-12-08T13:05:48.000Z</time>
      </trkpt>
      <trkpt lat="43.61147" lon="6.72567">
        <ele>224.48</ele>
        <time>2019-12-08T13:05:49.000Z</time>
      </trkpt>
      <trkpt lat="43.61141" lon="6.72577">
        <ele>224.37</ele>
        <time>2019-12-08T13:05:50.000Z</time>
      </trkpt>
      <trkpt lat="43.61135" lon="6.72587">
        <ele>224.39</ele>
        <time>2019-12-08T13:05:51.000Z</time>
      </trkpt>
      <trkpt lat="43.6113" lon="6.72597">
        <ele>224.42</ele>
        <time>2019-12-08T13:05:52.000Z</time>
      </trkpt>
      <trkpt lat="43.61124" lon="6.72606">
        <ele>224.35</ele>
        <time>2019-12-08T13:05:53.000Z</time>
      </trkpt>
      <trkpt lat="43.61118" lon="6.72615">
        <ele>224.46</ele>
        <time>2019-12-08T13:05:54.000Z</time>
      </trkpt>
      <trkpt lat="43.61113" lon="6.72624">
        <ele>224.5</ele>
        <time>2019-12-08T13:05:55.000Z</time>
      </trkpt>
      <trkpt lat="43.61107" lon="6.72633">
        <ele>224.45</ele>
        <time>2019-12-08T13:05:56.000Z</time>
      </trkpt>
      <trkpt lat="43.61102" lon="6.72642">
        <ele>224.39</ele>
        <time>2019-12-08T13:05:57.000Z</time>
      </trkpt>
      <trkpt lat="43.61097" lon="6.72651">
        <ele>224.35</ele>
        <time>2019-12-08T13:05:58.000Z</time>
      </trkpt>
      <trkpt lat="43.61093" lon="6.7266">
        <ele>224.29</ele>
        <time>2019-12-08T13:05:59.000Z</time>
      </trkpt>
      <trkpt lat="43.61088" lon="6.72669">
        <ele>224.32</ele>
        <time>2019-12-08T13:06:00.000Z</time>
      </trkpt>
      <trkpt lat="43.61084" lon="6.72678">
        <ele>224.38</ele>
        <time>2019-12-08T13:06:01.000Z</time>
      </trkpt>
      <trkpt lat="43.6108" lon="6.72688">
        <ele>224.43</ele>
        <time>2019-12-08T13:06:02.000Z</time>
      </trkpt>
      <trkpt lat="43.61077" lon="6.72698">
        <ele>224.45</ele>
        <time>2019-12-08T13:06:03.000Z</time>
      </trkpt>
      <trkpt lat="43.61074" lon="6.72708">
        <ele>224.5</ele>
        <time>2019-12-08T13:06:04.000Z</time>
      </trkpt>
      <trkpt lat="43.61071" lon="6.72718">
        <ele>224.44</ele>
        <time>2019-12-08T13:06:05.000Z</time>
      </trkpt>
      <trkpt lat="43.61069" lon="6.72729">
        <ele>224.35</ele>
        <time>2019-12-08T13:06:06.000Z</time>
      </trkpt>
      <trkpt lat="43.61068" lon="6.72739">
        <ele>224.23</ele>
        <time>2019-12-08T13:06:07.000Z</time>
      </trkpt>
      <trkpt lat="43.61066" lon="6.7275">
        <ele>224.18</ele>
        <time>2019-12-08T13:06:08.000Z</time>
      </trkpt>
      <trkpt lat="43.61065" lon="6.72761">
        <ele>224.1</ele>
        <time>2019-12-08T13:06:09.000Z</time>
      </trkpt>
      <trkpt lat="43.61064" lon="6.72773">
        <ele>224.04</ele>
        <time>2019-12-08T13:06:10.000Z</time>
      </trkpt>
      <trkpt lat="43.61063" lon="6.72784">
        <ele>224.04</ele>
        <time>2019-12-08T13:06:11.000Z</time>
      </trkpt>
      <trkpt lat="43.61062" lon="6.72796">
        <ele>224.05</ele>
        <time>2019-12-08T13:06:12.000Z</time>
      </trkpt>
      <trkpt lat="43.61061" lon="6.72807">
        <ele>223.97</ele>
        <time>2019-12-08T13:06:13.000Z</time>
      </trkpt>
      <trkpt lat="43.6106" lon="6.72819">
        <ele>223.91</ele>
        <time>2019-12-08T13:06:14.000Z</time>
      </trkpt>
      <trkpt lat="43.61059" lon="6.72831">
        <ele>223.76</ele>
        <time>2019-12-08T13:06:15.000Z</time>
      </trkpt>
      <trkpt lat="43.61058" lon="6.72843">
        <ele>223.66</ele>
        <time>2019-12-08T13:06:16.000Z</time>
      </trkpt>
      <trkpt lat="43.61056" lon="6.72856">
        <ele>223.47</ele>
        <time>2019-12-08T13:06:17.000Z</time>
      </trkpt>
      <trkpt lat="43.61055" lon="6.72868">
        <ele>223.26</ele>
        <time>2019-12-08T13:06:18.000Z</time>
      </trkpt>
      <trkpt lat="43.61054" lon="6.7288">
        <ele>223.06</ele>
        <time>2019-12-08T13:06:19.000Z</time>
      </trkpt>
      <trkpt lat="43.61052" lon="6.72893">
        <ele>222.95</ele>
        <time>2019-12-08T13:06:20.000Z</time>
      </trkpt>
      <trkpt lat="43.61051" lon="6.72906">
        <ele>222.71</ele>
        <time>2019-12-08T13:06:21.000Z</time>
      </trkpt>
      <trkpt lat="43.6105" lon="6.72919">
        <ele>222.45</ele>
        <time>2019-12-08T13:06:22.000Z</time>
      </trkpt>
      <trkpt lat="43.61048" lon="6.72931">
        <ele>222.14</ele>
        <time>2019-12-08T13:06:23.000Z</time>
      </trkpt>
      <trkpt lat="43.61047" lon="6.72945">
        <ele>221.97</ele>
        <time>2019-12-08T13:06:24.000Z</time>
      </trkpt>
      <trkpt lat="43.61046" lon="6.72958">
        <ele>221.6</ele>
        <time>2019-12-08T13:06:25.000Z</time>
      </trkpt>
      <trkpt lat="43.61044" lon="6.72971">
        <ele>221.22</ele>
        <time>2019-12-08T13:06:26.000Z</time>
      </trkpt>
      <trkpt lat="43.61043" lon="6.72984">
        <ele>220.84</ele>
        <time>2019-12-08T13:06:27.000Z</time>
      </trkpt>
      <trkpt lat="43.61042" lon="6.72998">
        <ele>220.61</ele>
        <time>2019-12-08T13:06:28.000Z</time>
      </trkpt>
      <trkpt lat="43.61041" lon="6.73011">
        <ele>220.18</ele>
        <time>2019-12-08T13:06:29.000Z</time>
      </trkpt>
      <trkpt lat="43.6104" lon="6.73025">
        <ele>219.67</ele>
        <time>2019-12-08T13:06:30.000Z</time>
      </trkpt>
      <trkpt lat="43.6104" lon="6.73039">
        <ele>219.15</ele>
        <time>2019-12-08T13:06:31.000Z</time>
      </trkpt>
      <trkpt lat="43.6104" lon="6.73053">
        <ele>218.87</ele>
        <time>2019-12-08T13:06:32.000Z</time>
      </trkpt>
      <trkpt lat="43.61041" lon="6.73066">
        <ele>218.42</ele>
        <time>2019-12-08T13:06:33.000Z</time>
      </trkpt>
      <trkpt lat="43.61043" lon="6.7308">
        <ele>217.95</ele>
        <time>2019-12-08T13:06:34.000Z</time>
      </trkpt>
      <trkpt lat="43.61045" lon="6.73093">
        <ele>217.54</ele>
        <time>2019-12-08T13:06:35.000Z</time>
      </trkpt>
      <trkpt lat="43.61048" lon="6.73106">
        <ele>217.22</ele>
        <time>2019-12-08T13:06:36.000Z</time>
      </trkpt>
      <trkpt lat="43.61051" lon="6.73118">
        <ele>217.05</ele>
        <time>2019-12-08T13:06:37.000Z</time>
      </trkpt>
      <trkpt lat="43.61054" lon="6.7313">
        <ele>216.76</ele>
        <time>2019-12-08T13:06:38.000Z</time>
      </trkpt>
      <trkpt lat="43.61057" lon="6.7314">
        <ele>216.54</ele>
        <time>2019-12-08T13:06:39.000Z</time>
      </trkpt>
      <trkpt lat="43.61058" lon="6.73149">
        <ele>216.44</ele>
        <time>2019-12-08T13:06:40.000Z</time>
      </trkpt>
      <trkpt lat="43.61057" lon="6.73157">
        <ele>216.25</ele>
        <time>2019-12-08T13:06:41.000Z</time>
      </trkpt>
      <trkpt lat="43.61053" lon="6.73163">
        <ele>216.14</ele>
        <time>2019-12-08T13:06:42.000Z</time>
      </trkpt>
      <trkpt lat="43.61048" lon="6.73167">
        <ele>216.06</ele>
        <time>2019-12-08T13:06:43.000Z</time>
      </trkpt>
      <trkpt lat="43.61042" lon="6.73169">
        <ele>216.05</ele>
        <time>2019-12-08T13:06:44.000Z</time>
      </trkpt>
      <trkpt lat="43.61035" lon="6.73169">
        <ele>216.06</ele>
        <time>2019-12-08T13:06:45.000Z</time>
      </trkpt>
      <trkpt lat="43.61029" lon="6.7317">
        <ele>216.04</ele>
        <time>2019-12-08T13:06:46.000Z</time>
      </trkpt>
      <trkpt lat="43.61022" lon="6.73173">
        <ele>215.96</ele>
        <time>2019-12-08T13:06:47.000Z</time>
      </trkpt>
      <trkpt lat="43.61016" lon="6.73178">
        <ele>215.78</ele>
        <time>2019-12-08T13:06:48.000Z</time>
      </trkpt>
      <trkpt lat="43.61012" lon="6.73186">
        <ele>215.66</ele>
        <time>2019-12-08T13:06:49.000Z</time>
      </trkpt>
      <trkpt lat="43.6101" lon="6.73195">
        <ele>215.44</ele>
        <time>2019-12-08T13:06:50.000Z</time>
      </trkpt>
      <trkpt lat="43.6101" lon="6.73205">
        <ele>215.23</ele>
        <time>2019-12-08T13:06:51.000Z</time>
      </trkpt>
      <trkpt lat="43.61011" lon="6.73215">
        <ele>215.18</ele>
        <time>2019-12-08T13:06:52.000Z</time>
      </trkpt>
      <trkpt lat="43.61013" lon="6.73224">
        <ele>215.18</ele>
        <time>2019-12-08T13:06:53.000Z</time>
      </trkpt>
      <trkpt lat="43.61015" lon="6.73234">
        <ele>215.25</ele>
        <time>2019-12-08T13:06:54.000Z</time>
      </trkpt>
      <trkpt lat="43.61016" lon="6.73244">
        <ele>215.39</ele>
        <time>2019-12-08T13:06:55.000Z</time>
      </trkpt>
      <trkpt lat="43.61016" lon="6.73255">
        <ele>215.52</ele>
        <time>2019-12-08T13:06:56.000Z</time>
      </trkpt>
      <trkpt lat="43.61015" lon="6.73265">
        <ele>215.54</ele>
        <time>2019-12-08T13:06:57.000Z</time>
      </trkpt>
      <trkpt lat="43.61014" lon="6.73276">
        <ele>215.57</ele>
        <time>2019-12-08T13:06:58.000Z</time>
      </trkpt>
      <trkpt lat="43.61013" lon="6.73287">
        <ele>215.57</ele>
        <time>2019-12-08T13:06:59.000Z</time>
      </trkpt>
      <trkpt lat="43.61011" lon="6.73297">
        <ele>215.49</ele>
        <time>2019-12-08T13:07:00.000Z</time>
      </trkpt>
      <trkpt lat="43.6101" lon="6.73308">
        <ele>215.4</ele>
        <time>2019-12-08T13:07:01.000Z</time>
      </trkpt>
      <trkpt lat="43.61008" lon="6.73319">
        <ele>215.33</ele>
        <time>2019-12-08T13:07:02.000Z</time>
      </trkpt>
      <trkpt lat="43.61006" lon="6.7333">
        <ele>215.27</ele>
        <time>2019-12-08T13:07:03.000Z</time>
      </trkpt>
      <trkpt lat="43.61004" lon="6.73342">
        <ele>215.18</ele>
        <time>2019-12-08T13:07:04.000Z</time>
      </trkpt>
      <trkpt lat="43.61002" lon="6.73353">
        <ele>215.12</ele>
        <time>2019-12-08T13:07:05.000Z</time>
      </trkpt>
      <trkpt lat="43.61" lon="6.73364">
        <ele>214.98</ele>
        <time>2019-12-08T13:07:06.000Z</time>
      </trkpt>
      <trkpt lat="43.60997" lon="6.73375">
        <ele>214.76</ele>
        <time>2019-12-08T13:07:07.000Z</time>
      </trkpt>
      <trkpt lat="43.60995" lon="6.73387">
        <ele>214.48</ele>
        <time>2019-12-08T13:07:08.000Z</time>
      </trkpt>
      <trkpt lat="43.60993" lon="6.73398">
        <ele>214.37</ele>
        <time>2019-12-08T13:07:09.000Z</time>
      </trkpt>
      <trkpt lat="43.6099" lon="6.7341">
        <ele>214.19</ele>
        <time>2019-12-08T13:07:10.000Z</time>
      </trkpt>
      <trkpt lat="43.60987" lon="6.73421">
        <ele>213.95</ele>
        <time>2019-12-08T13:07:11.000Z</time>
      </trkpt>
      <trkpt lat="43.60984" lon="6.73434">
        <ele>213.58</ele>
        <time>2019-12-08T13:07:12.000Z</time>
      </trkpt>
      <trkpt lat="43.60981" lon="6.73446">
        <ele>213.37</ele>
        <time>2019-12-08T13:07:13.000Z</time>
      </trkpt>
      <trkpt lat="43.60978" lon="6.73459">
        <ele>212.83</ele>
        <time>2019-12-08T13:07:14.000Z</time>
      </trkpt>
      <trkpt lat="43.60975" lon="6.73473">
        <ele>212.17</ele>
        <time>2019-12-08T13:07:15.000Z</time>
      </trkpt>
      <trkpt lat="43.60972" lon="6.73487">
        <ele>211.4</ele>
        <time>2019-12-08T13:07:16.000Z</time>
      </trkpt>
      <trkpt lat="43.60968" lon="6.73501">
        <ele>210.73</ele>
        <time>2019-12-08T13:07:17.000Z</time>
      </trkpt>
      <trkpt lat="43.60965" lon="6.73516">
        <ele>210.39</ele>
        <time>2019-12-08T13:07:18.000Z</time>
      </trkpt>
      <trkpt lat="43.60961" lon="6.73531">
        <ele>209.62</ele>
        <time>2019-12-08T13:07:19.000Z</time>
      </trkpt>
      <trkpt lat="43.60958" lon="6.73545">
        <ele>209.03</ele>
        <time>2019-12-08T13:07:20.000Z</time>
      </trkpt>
      <trkpt lat="43.60955" lon="6.7356">
        <ele>208.45</ele>
        <time>2019-12-08T13:07:21.000Z</time>
      </trkpt>
      <trkpt lat="43.60951" lon="6.73575">
        <ele>208.13</ele>
        <time>2019-12-08T13:07:22.000Z</time>
      </trkpt>
      <trkpt lat="43.60948" lon="6.7359">
        <ele>207.63</ele>
        <time>2019-12-08T13:07:23.000Z</time>
      </trkpt>
      <trkpt lat="43.60944" lon="6.73604">
        <ele>207.18</ele>
        <time>2019-12-08T13:07:24.000Z</time>
      </trkpt>
      <trkpt lat="43.60941" lon="6.73619">
        <ele>206.84</ele>
        <time>2019-12-08T13:07:25.000Z</time>
      </trkpt>
      <trkpt lat="43.60938" lon="6.73633">
        <ele>206.71</ele>
        <time>2019-12-08T13:07:26.000Z</time>
      </trkpt>
      <trkpt lat="43.60934" lon="6.73647">
        <ele>206.43</ele>
        <time>2019-12-08T13:07:27.000Z</time>
      </trkpt>
      <trkpt lat="43.60931" lon="6.73661">
        <ele>206.18</ele>
        <time>2019-12-08T13:07:28.000Z</time>
      </trkpt>
      <trkpt lat="43.60928" lon="6.73676">
        <ele>205.84</ele>
        <time>2019-12-08T13:07:29.000Z</time>
      </trkpt>
      <trkpt lat="43.60924" lon="6.7369">
        <ele>205.66</ele>
        <time>2019-12-08T13:07:30.000Z</time>
      </trkpt>
      <trkpt lat="43.60921" lon="6.73704">
        <ele>205.31</ele>
        <time>2019-12-08T13:07:31.000Z</time>
      </trkpt>
      <trkpt lat="43.60918" lon="6.73719">
        <ele>204.83</ele>
        <time>2019-12-08T13:07:32.000Z</time>
      </trkpt>
      <trkpt lat="43.60914" lon="6.73733">
        <ele>204.35</ele>
        <time>2019-12-08T13:07:33.000Z</time>
      </trkpt>
      <trkpt lat="43.60911" lon="6.73748">
        <ele>204.19</ele>
        <time>2019-12-08T13:07:34.000Z</time>
      </trkpt>
      <trkpt lat="43.60907" lon="6.73763">
        <ele>203.77</ele>
        <time>2019-12-08T13:07:35.000Z</time>
      </trkpt>
      <trkpt lat="43.60904" lon="6.73777">
        <ele>203.5</ele>
        <time>2019-12-08T13:07:36.000Z</time>
      </trkpt>
      <trkpt lat="43.609" lon="6.73792">
        <ele>203.39</ele>
        <time>2019-12-08T13:07:37.000Z</time>
      </trkpt>
      <trkpt lat="43.60897" lon="6.73807">
        <ele>203.27</ele>
        <time>2019-12-08T13:07:38.000Z</time>
      </trkpt>
      <trkpt lat="43.60893" lon="6.73821">
        <ele>203.07</ele>
        <time>2019-12-08T13:07:39.000Z</time>
      </trkpt>
      <trkpt lat="43.6089" lon="6.73836">
        <ele>202.85</ele>
        <time>2019-12-08T13:07:40.000Z</time>
      </trkpt>
      <trkpt lat="43.60886" lon="6.7385">
        <ele>202.61</ele>
        <time>2019-12-08T13:07:41.000Z</time>
      </trkpt>
      <trkpt lat="43.60883" lon="6.73865">
        <ele>202.55</ele>
        <time>2019-12-08T13:07:42.000Z</time>
      </trkpt>
      <trkpt lat="43.60879" lon="6.7388">
        <ele>202.4</ele>
        <time>2019-12-08T13:07:43.000Z</time>
      </trkpt>
      <trkpt lat="43.60876" lon="6.73895">
        <ele>202.2</ele>
        <time>2019-12-08T13:07:44.000Z</time>
      </trkpt>
      <trkpt lat="43.60873" lon="6.7391">
        <ele>201.86</ele>
        <time>2019-12-08T13:07:45.000Z</time>
      </trkpt>
      <trkpt lat="43.60869" lon="6.73924">
        <ele>201.33</ele>
        <time>2019-12-08T13:07:46.000Z</time>
      </trkpt>
      <trkpt lat="43.60866" lon="6.7394">
        <ele>201.02</ele>
        <time>2019-12-08T13:07:47.000Z</time>
      </trkpt>
      <trkpt lat="43.60862" lon="6.73955">
        <ele>200.51</ele>
        <time>2019-12-08T13:07:48.000Z</time>
      </trkpt>
      <trkpt lat="43.60859" lon="6.7397">
        <ele>200.04</ele>
        <time>2019-12-08T13:07:49.000Z</time>
      </trkpt>
      <trkpt lat="43.60855" lon="6.73985">
        <ele>199.86</ele>
        <time>2019-12-08T13:07:50.000Z</time>
      </trkpt>
      <trkpt lat="43.60852" lon="6.74">
        <ele>199.59</ele>
        <time>2019-12-08T13:07:51.000Z</time>
      </trkpt>
      <trkpt lat="43.60848" lon="6.74016">
        <ele>199.3</ele>
        <time>2019-12-08T13:07:52.000Z</time>
      </trkpt>
      <trkpt lat="43.60844" lon="6.74031">
        <ele>199.03</ele>
        <time>2019-12-08T13:07:53.000Z</time>
      </trkpt>
      <trkpt lat="43.60841" lon="6.74046">
        <ele>198.77</ele>
        <time>2019-12-08T13:07:54.000Z</time>
      </trkpt>
      <trkpt lat="43.60837" lon="6.74061">
        <ele>198.77</ele>
        <time>2019-12-08T13:07:55.000Z</time>
      </trkpt>
      <trkpt lat="43.60833" lon="6.74076">
        <ele>198.55</ele>
        <time>2019-12-08T13:07:56.000Z</time>
      </trkpt>
      <trkpt lat="43.6083" lon="6.74091">
        <ele>198.17</ele>
        <time>2019-12-08T13:07:57.000Z</time>
      </trkpt>
      <trkpt lat="43.60826" lon="6.74106">
        <ele>198.1</ele>
        <time>2019-12-08T13:07:58.000Z</time>
      </trkpt>
      <trkpt lat="43.60821" lon="6.74121">
        <ele>197.94</ele>
        <time>2019-12-08T13:07:59.000Z</time>
      </trkpt>
      <trkpt lat="43.60817" lon="6.74135">
        <ele>197.52</ele>
        <time>2019-12-08T13:08:00.000Z</time>
      </trkpt>
      <trkpt lat="43.60813" lon="6.74149">
        <ele>197.43</ele>
        <time>2019-12-08T13:08:01.000Z</time>
      </trkpt>
      <trkpt lat="43.6081" lon="6.74164">
        <ele>197.06</ele>
        <time>2019-12-08T13:08:02.000Z</time>
      </trkpt>
      <trkpt lat="43.60807" lon="6.74178">
        <ele>196.89</ele>
        <time>2019-12-08T13:08:03.000Z</time>
      </trkpt>
      <trkpt lat="43.60805" lon="6.74193">
        <ele>196.61</ele>
        <time>2019-12-08T13:08:04.000Z</time>
      </trkpt>
      <trkpt lat="43.60803" lon="6.74207">
        <ele>196.27</ele>
        <time>2019-12-08T13:08:05.000Z</time>
      </trkpt>
      <trkpt lat="43.608" lon="6.74222">
        <ele>196</ele>
        <time>2019-12-08T13:08:06.000Z</time>
      </trkpt>
      <trkpt lat="43.60797" lon="6.74235">
        <ele>195.91</ele>
        <time>2019-12-08T13:08:07.000Z</time>
      </trkpt>
      <trkpt lat="43.60792" lon="6.74248">
        <ele>195.6</ele>
        <time>2019-12-08T13:08:08.000Z</time>
      </trkpt>
      <trkpt lat="43.60789" lon="6.7426">
        <ele>195.17</ele>
        <time>2019-12-08T13:08:09.000Z</time>
      </trkpt>
      <trkpt lat="43.60788" lon="6.74273">
        <ele>194.83</ele>
        <time>2019-12-08T13:08:10.000Z</time>
      </trkpt>
      <trkpt lat="43.6079" lon="6.74287">
        <ele>194.65</ele>
        <time>2019-12-08T13:08:11.000Z</time>
      </trkpt>
      <trkpt lat="43.60792" lon="6.743">
        <ele>194.26</ele>
        <time>2019-12-08T13:08:12.000Z</time>
      </trkpt>
      <trkpt lat="43.60792" lon="6.74314">
        <ele>194.17</ele>
        <time>2019-12-08T13:08:13.000Z</time>
      </trkpt>
      <trkpt lat="43.60792" lon="6.74327">
        <ele>194.16</ele>
        <time>2019-12-08T13:08:14.000Z</time>
      </trkpt>
      <trkpt lat="43.60791" lon="6.74341">
        <ele>194.04</ele>
        <time>2019-12-08T13:08:15.000Z</time>
      </trkpt>
      <trkpt lat="43.60789" lon="6.74354">
        <ele>194</ele>
        <time>2019-12-08T13:08:16.000Z</time>
      </trkpt>
      <trkpt lat="43.60788" lon="6.74367">
        <ele>193.93</ele>
        <time>2019-12-08T13:08:17.000Z</time>
      </trkpt>
      <trkpt lat="43.60786" lon="6.74381">
        <ele>193.8</ele>
        <time>2019-12-08T13:08:18.000Z</time>
      </trkpt>
      <trkpt lat="43.60785" lon="6.74394">
        <ele>193.72</ele>
        <time>2019-12-08T13:08:19.000Z</time>
      </trkpt>
      <trkpt lat="43.60783" lon="6.74407">
        <ele>193.68</ele>
        <time>2019-12-08T13:08:20.000Z</time>
      </trkpt>
      <trkpt lat="43.60782" lon="6.7442">
        <ele>193.64</ele>
        <time>2019-12-08T13:08:21.000Z</time>
      </trkpt>
      <trkpt lat="43.60781" lon="6.74433">
        <ele>193.55</ele>
        <time>2019-12-08T13:08:22.000Z</time>
      </trkpt>
      <trkpt lat="43.6078" lon="6.74446">
        <ele>193.52</ele>
        <time>2019-12-08T13:08:23.000Z</time>
      </trkpt>
      <trkpt lat="43.60779" lon="6.74459">
        <ele>193.48</ele>
        <time>2019-12-08T13:08:24.000Z</time>
      </trkpt>
      <trkpt lat="43.60778" lon="6.74472">
        <ele>193.4</ele>
        <time>2019-12-08T13:08:25.000Z</time>
      </trkpt>
      <trkpt lat="43.60778" lon="6.74485">
        <ele>193.23</ele>
        <time>2019-12-08T13:08:26.000Z</time>
      </trkpt>
      <trkpt lat="43.60777" lon="6.74498">
        <ele>193.06</ele>
        <time>2019-12-08T13:08:27.000Z</time>
      </trkpt>
      <trkpt lat="43.60776" lon="6.74511">
        <ele>193.04</ele>
        <time>2019-12-08T13:08:28.000Z</time>
      </trkpt>
      <trkpt lat="43.60776" lon="6.74524">
        <ele>192.91</ele>
        <time>2019-12-08T13:08:29.000Z</time>
      </trkpt>
      <trkpt lat="43.60775" lon="6.74537">
        <ele>192.72</ele>
        <time>2019-12-08T13:08:30.000Z</time>
      </trkpt>
      <trkpt lat="43.60774" lon="6.7455">
        <ele>192.64</ele>
        <time>2019-12-08T13:08:31.000Z</time>
      </trkpt>
      <trkpt lat="43.60773" lon="6.74563">
        <ele>192.57</ele>
        <time>2019-12-08T13:08:32.000Z</time>
      </trkpt>
      <trkpt lat="43.60772" lon="6.74576">
        <ele>192.46</ele>
        <time>2019-12-08T13:08:33.000Z</time>
      </trkpt>
      <trkpt lat="43.6077" lon="6.74589">
        <ele>192.42</ele>
        <time>2019-12-08T13:08:34.000Z</time>
      </trkpt>
      <trkpt lat="43.60769" lon="6.74602">
        <ele>192.33</ele>
        <time>2019-12-08T13:08:35.000Z</time>
      </trkpt>
      <trkpt lat="43.60767" lon="6.74615">
        <ele>192.31</ele>
        <time>2019-12-08T13:08:36.000Z</time>
      </trkpt>
      <trkpt lat="43.60765" lon="6.74628">
        <ele>192.15</ele>
        <time>2019-12-08T13:08:37.000Z</time>
      </trkpt>
      <trkpt lat="43.60762" lon="6.74641">
        <ele>192.03</ele>
        <time>2019-12-08T13:08:38.000Z</time>
      </trkpt>
      <trkpt lat="43.6076" lon="6.74654">
        <ele>191.96</ele>
        <time>2019-12-08T13:08:39.000Z</time>
      </trkpt>
      <trkpt lat="43.60757" lon="6.74666">
        <ele>191.9</ele>
        <time>2019-12-08T13:08:40.000Z</time>
      </trkpt>
      <trkpt lat="43.60754" lon="6.74679">
        <ele>191.78</ele>
        <time>2019-12-08T13:08:41.000Z</time>
      </trkpt>
      <trkpt lat="43.60751" lon="6.74691">
        <ele>191.81</ele>
        <time>2019-12-08T13:08:42.000Z</time>
      </trkpt>
      <trkpt lat="43.60747" lon="6.74704">
        <ele>191.5</ele>
        <time>2019-12-08T13:08:43.000Z</time>
      </trkpt>
      <trkpt lat="43.60744" lon="6.74716">
        <ele>191.43</ele>
        <time>2019-12-08T13:08:44.000Z</time>
      </trkpt>
      <trkpt lat="43.60741" lon="6.74729">
        <ele>191.3</ele>
        <time>2019-12-08T13:08:45.000Z</time>
      </trkpt>
      <trkpt lat="43.60737" lon="6.74741">
        <ele>191.07</ele>
        <time>2019-12-08T13:08:46.000Z</time>
      </trkpt>
      <trkpt lat="43.60734" lon="6.74754">
        <ele>190.86</ele>
        <time>2019-12-08T13:08:47.000Z</time>
      </trkpt>
      <trkpt lat="43.60731" lon="6.74766">
        <ele>190.78</ele>
        <time>2019-12-08T13:08:48.000Z</time>
      </trkpt>
      <trkpt lat="43.60727" lon="6.74779">
        <ele>190.66</ele>
        <time>2019-12-08T13:08:49.000Z</time>
      </trkpt>
      <trkpt lat="43.60724" lon="6.74791">
        <ele>190.43</ele>
        <time>2019-12-08T13:08:50.000Z</time>
      </trkpt>
      <trkpt lat="43.60721" lon="6.74804">
        <ele>190.3</ele>
        <time>2019-12-08T13:08:51.000Z</time>
      </trkpt>
      <trkpt lat="43.60717" lon="6.74817">
        <ele>190.21</ele>
        <time>2019-12-08T13:08:52.000Z</time>
      </trkpt>
      <trkpt lat="43.60714" lon="6.74829">
        <ele>190.11</ele>
        <time>2019-12-08T13:08:53.000Z</time>
      </trkpt>
      <trkpt lat="43.60711" lon="6.74842">
        <ele>189.94</ele>
        <time>2019-12-08T13:08:54.000Z</time>
      </trkpt>
      <trkpt lat="43.60708" lon="6.74854">
        <ele>189.79</ele>
        <time>2019-12-08T13:08:55.000Z</time>
      </trkpt>
      <trkpt lat="43.60704" lon="6.74866">
        <ele>189.62</ele>
        <time>2019-12-08T13:08:56.000Z</time>
      </trkpt>
      <trkpt lat="43.60701" lon="6.74879">
        <ele>189.53</ele>
        <time>2019-12-08T13:08:57.000Z</time>
      </trkpt>
      <trkpt lat="43.60697" lon="6.74891">
        <ele>189.4</ele>
        <time>2019-12-08T13:08:58.000Z</time>
      </trkpt>
      <trkpt lat="43.60694" lon="6.74903">
        <ele>189.26</ele>
        <time>2019-12-08T13:08:59.000Z</time>
      </trkpt>
      <trkpt lat="43.6069" lon="6.74915">
        <ele>189.11</ele>
        <time>2019-12-08T13:09:00.000Z</time>
      </trkpt>
      <trkpt lat="43.60687" lon="6.74928">
        <ele>189.05</ele>
        <time>2019-12-08T13:09:01.000Z</time>
      </trkpt>
      <trkpt lat="43.60683" lon="6.7494">
        <ele>188.89</ele>
        <time>2019-12-08T13:09:02.000Z</time>
      </trkpt>
      <trkpt lat="43.6068" lon="6.74952">
        <ele>188.71</ele>
        <time>2019-12-08T13:09:03.000Z</time>
      </trkpt>
      <trkpt lat="43.60676" lon="6.74964">
        <ele>188.56</ele>
        <time>2019-12-08T13:09:04.000Z</time>
      </trkpt>
      <trkpt lat="43.60672" lon="6.74976">
        <ele>188.46</ele>
        <time>2019-12-08T13:09:05.000Z</time>
      </trkpt>
      <trkpt lat="43.60669" lon="6.74988">
        <ele>188.26</ele>
        <time>2019-12-08T13:09:06.000Z</time>
      </trkpt>
      <trkpt lat="43.60666" lon="6.75">
        <ele>188.17</ele>
        <time>2019-12-08T13:09:07.000Z</time>
      </trkpt>
      <trkpt lat="43.60662" lon="6.75013">
        <ele>188.03</ele>
        <time>2019-12-08T13:09:08.000Z</time>
      </trkpt>
      <trkpt lat="43.6066" lon="6.75025">
        <ele>188.03</ele>
        <time>2019-12-08T13:09:09.000Z</time>
      </trkpt>
      <trkpt lat="43.60657" lon="6.75037">
        <ele>188.03</ele>
        <time>2019-12-08T13:09:10.000Z</time>
      </trkpt>
      <trkpt lat="43.60655" lon="6.7505">
        <ele>187.91</ele>
        <time>2019-12-08T13:09:11.000Z</time>
      </trkpt>
      <trkpt lat="43.60653" lon="6.75063">
        <ele>187.81</ele>
        <time>2019-12-08T13:09:12.000Z</time>
      </trkpt>
      <trkpt lat="43.6065" lon="6.75075">
        <ele>187.72</ele>
        <time>2019-12-08T13:09:13.000Z</time>
      </trkpt>
      <trkpt lat="43.60648" lon="6.75087">
        <ele>187.6</ele>
        <time>2019-12-08T13:09:14.000Z</time>
      </trkpt>
      <trkpt lat="43.60646" lon="6.751">
        <ele>187.53</ele>
        <time>2019-12-08T13:09:15.000Z</time>
      </trkpt>
      <trkpt lat="43.60643" lon="6.75112">
        <ele>187.39</ele>
        <time>2019-12-08T13:09:16.000Z</time>
      </trkpt>
      <trkpt lat="43.60641" lon="6.75124">
        <ele>187.33</ele>
        <time>2019-12-08T13:09:17.000Z</time>
      </trkpt>
      <trkpt lat="43.60639" lon="6.75137">
        <ele>187.27</ele>
        <time>2019-12-08T13:09:18.000Z</time>
      </trkpt>
      <trkpt lat="43.60637" lon="6.75149">
        <ele>187.06</ele>
        <time>2019-12-08T13:09:19.000Z</time>
      </trkpt>
      <trkpt lat="43.60634" lon="6.75161">
        <ele>186.91</ele>
        <time>2019-12-08T13:09:20.000Z</time>
      </trkpt>
      <trkpt lat="43.60632" lon="6.75173">
        <ele>186.9</ele>
        <time>2019-12-08T13:09:21.000Z</time>
      </trkpt>
      <trkpt lat="43.6063" lon="6.75185">
        <ele>186.84</ele>
        <time>2019-12-08T13:09:22.000Z</time>
      </trkpt>
      <trkpt lat="43.60627" lon="6.75197">
        <ele>186.77</ele>
        <time>2019-12-08T13:09:23.000Z</time>
      </trkpt>
      <trkpt lat="43.60625" lon="6.75209">
        <ele>186.68</ele>
        <time>2019-12-08T13:09:24.000Z</time>
      </trkpt>
      <trkpt lat="43.60622" lon="6.75221">
        <ele>186.68</ele>
        <time>2019-12-08T13:09:25.000Z</time>
      </trkpt>
      <trkpt lat="43.6062" lon="6.75233">
        <ele>186.6</ele>
        <time>2019-12-08T13:09:26.000Z</time>
      </trkpt>
      <trkpt lat="43.60617" lon="6.75245">
        <ele>186.46</ele>
        <time>2019-12-08T13:09:27.000Z</time>
      </trkpt>
      <trkpt lat="43.60615" lon="6.75257">
        <ele>186.35</ele>
        <time>2019-12-08T13:09:28.000Z</time>
      </trkpt>
      <trkpt lat="43.60612" lon="6.75269">
        <ele>186.28</ele>
        <time>2019-12-08T13:09:29.000Z</time>
      </trkpt>
      <trkpt lat="43.6061" lon="6.7528">
        <ele>186</ele>
        <time>2019-12-08T13:09:30.000Z</time>
      </trkpt>
      <trkpt lat="43.60608" lon="6.75292">
        <ele>185.79</ele>
        <time>2019-12-08T13:09:31.000Z</time>
      </trkpt>
      <trkpt lat="43.60606" lon="6.75304">
        <ele>185.62</ele>
        <time>2019-12-08T13:09:32.000Z</time>
      </trkpt>
      <trkpt lat="43.60604" lon="6.75316">
        <ele>185.47</ele>
        <time>2019-12-08T13:09:33.000Z</time>
      </trkpt>
      <trkpt lat="43.60602" lon="6.75328">
        <ele>185.4</ele>
        <time>2019-12-08T13:09:34.000Z</time>
      </trkpt>
      <trkpt lat="43.60601" lon="6.7534">
        <ele>185.25</ele>
        <time>2019-12-08T13:09:35.000Z</time>
      </trkpt>
      <trkpt lat="43.60599" lon="6.75352">
        <ele>184.99</ele>
        <time>2019-12-08T13:09:36.000Z</time>
      </trkpt>
      <trkpt lat="43.60598" lon="6.75365">
        <ele>184.91</ele>
        <time>2019-12-08T13:09:37.000Z</time>
      </trkpt>
      <trkpt lat="43.60597" lon="6.75377">
        <ele>184.73</ele>
        <time>2019-12-08T13:09:38.000Z</time>
      </trkpt>
      <trkpt lat="43.60596" lon="6.75389">
        <ele>184.64</ele>
        <time>2019-12-08T13:09:39.000Z</time>
      </trkpt>
      <trkpt lat="43.60594" lon="6.75402">
        <ele>184.61</ele>
        <time>2019-12-08T13:09:40.000Z</time>
      </trkpt>
      <trkpt lat="43.60592" lon="6.75414">
        <ele>184.58</ele>
        <time>2019-12-08T13:09:41.000Z</time>
      </trkpt>
      <trkpt lat="43.6059" lon="6.75426">
        <ele>184.5</ele>
        <time>2019-12-08T13:09:42.000Z</time>
      </trkpt>
      <trkpt lat="43.60588" lon="6.75438">
        <ele>184.3</ele>
        <time>2019-12-08T13:09:43.000Z</time>
      </trkpt>
      <trkpt lat="43.60586" lon="6.7545">
        <ele>184.06</ele>
        <time>2019-12-08T13:09:44.000Z</time>
      </trkpt>
      <trkpt lat="43.60584" lon="6.75462">
        <ele>183.83</ele>
        <time>2019-12-08T13:09:45.000Z</time>
      </trkpt>
      <trkpt lat="43.60581" lon="6.75473">
        <ele>183.76</ele>
        <time>2019-12-08T13:09:46.000Z</time>
      </trkpt>
      <trkpt lat="43.60578" lon="6.75484">
        <ele>183.69</ele>
        <time>2019-12-08T13:09:47.000Z</time>
      </trkpt>
      <trkpt lat="43.60574" lon="6.75495">
        <ele>183.62</ele>
        <time>2019-12-08T13:09:48.000Z</time>
      </trkpt>
      <trkpt lat="43.6057" lon="6.75505">
        <ele>183.59</ele>
        <time>2019-12-08T13:09:49.000Z</time>
      </trkpt>
      <trkpt lat="43.60565" lon="6.75514">
        <ele>183.54</ele>
        <time>2019-12-08T13:09:50.000Z</time>
      </trkpt>
      <trkpt lat="43.60562" lon="6.75525">
        <ele>183.29</ele>
        <time>2019-12-08T13:09:51.000Z</time>
      </trkpt>
      <trkpt lat="43.60563" lon="6.75536">
        <ele>183.06</ele>
        <time>2019-12-08T13:09:52.000Z</time>
      </trkpt>
      <trkpt lat="43.60566" lon="6.75547">
        <ele>182.92</ele>
        <time>2019-12-08T13:09:53.000Z</time>
      </trkpt>
      <trkpt lat="43.60569" lon="6.75558">
        <ele>182.83</ele>
        <time>2019-12-08T13:09:54.000Z</time>
      </trkpt>
      <trkpt lat="43.60571" lon="6.75569">
        <ele>182.84</ele>
        <time>2019-12-08T13:09:55.000Z</time>
      </trkpt>
      <trkpt lat="43.60571" lon="6.7558">
        <ele>183.05</ele>
        <time>2019-12-08T13:09:56.000Z</time>
      </trkpt>
      <trkpt lat="43.60571" lon="6.75592">
        <ele>183.13</ele>
        <time>2019-12-08T13:09:57.000Z</time>
      </trkpt>
      <trkpt lat="43.60572" lon="6.75604">
        <ele>183.1</ele>
        <time>2019-12-08T13:09:58.000Z</time>
      </trkpt>
      <trkpt lat="43.60572" lon="6.75616">
        <ele>183.07</ele>
        <time>2019-12-08T13:09:59.000Z</time>
      </trkpt>
      <trkpt lat="43.60572" lon="6.75628">
        <ele>182.88</ele>
        <time>2019-12-08T13:10:00.000Z</time>
      </trkpt>
      <trkpt lat="43.60572" lon="6.7564">
        <ele>182.66</ele>
        <time>2019-12-08T13:10:01.000Z</time>
      </trkpt>
      <trkpt lat="43.60571" lon="6.75652">
        <ele>182.49</ele>
        <time>2019-12-08T13:10:02.000Z</time>
      </trkpt>
      <trkpt lat="43.6057" lon="6.75664">
        <ele>182.38</ele>
        <time>2019-12-08T13:10:03.000Z</time>
      </trkpt>
      <trkpt lat="43.60569" lon="6.75676">
        <ele>182.19</ele>
        <time>2019-12-08T13:10:04.000Z</time>
      </trkpt>
      <trkpt lat="43.60567" lon="6.75689">
        <ele>182</ele>
        <time>2019-12-08T13:10:05.000Z</time>
      </trkpt>
      <trkpt lat="43.60565" lon="6.75701">
        <ele>181.88</ele>
        <time>2019-12-08T13:10:06.000Z</time>
      </trkpt>
      <trkpt lat="43.60563" lon="6.75713">
        <ele>181.64</ele>
        <time>2019-12-08T13:10:07.000Z</time>
      </trkpt>
      <trkpt lat="43.60562" lon="6.75726">
        <ele>181.45</ele>
        <time>2019-12-08T13:10:08.000Z</time>
      </trkpt>
      <trkpt lat="43.60559" lon="6.75738">
        <ele>181.22</ele>
        <time>2019-12-08T13:10:09.000Z</time>
      </trkpt>
      <trkpt lat="43.60557" lon="6.7575">
        <ele>181.06</ele>
        <time>2019-12-08T13:10:10.000Z</time>
      </trkpt>
      <trkpt lat="43.60556" lon="6.75762">
        <ele>181.09</ele>
        <time>2019-12-08T13:10:11.000Z</time>
      </trkpt>
      <trkpt lat="43.60554" lon="6.75774">
        <ele>180.94</ele>
        <time>2019-12-08T13:10:12.000Z</time>
      </trkpt>
      <trkpt lat="43.60553" lon="6.75786">
        <ele>180.86</ele>
        <time>2019-12-08T13:10:13.000Z</time>
      </trkpt>
      <trkpt lat="43.60552" lon="6.75798">
        <ele>180.85</ele>
        <time>2019-12-08T13:10:14.000Z</time>
      </trkpt>
      <trkpt lat="43.60551" lon="6.7581">
        <ele>180.89</ele>
        <time>2019-12-08T13:10:15.000Z</time>
      </trkpt>
      <trkpt lat="43.60551" lon="6.75822">
        <ele>180.62</ele>
        <time>2019-12-08T13:10:16.000Z</time>
      </trkpt>
      <trkpt lat="43.60551" lon="6.75834">
        <ele>180.35</ele>
        <time>2019-12-08T13:10:17.000Z</time>
      </trkpt>
      <trkpt lat="43.60551" lon="6.75846">
        <ele>180.07</ele>
        <time>2019-12-08T13:10:18.000Z</time>
      </trkpt>
      <trkpt lat="43.60551" lon="6.75858">
        <ele>179.92</ele>
        <time>2019-12-08T13:10:19.000Z</time>
      </trkpt>
      <trkpt lat="43.60551" lon="6.7587">
        <ele>179.56</ele>
        <time>2019-12-08T13:10:20.000Z</time>
      </trkpt>
      <trkpt lat="43.60551" lon="6.75882">
        <ele>179.48</ele>
        <time>2019-12-08T13:10:21.000Z</time>
      </trkpt>
      <trkpt lat="43.60552" lon="6.75894">
        <ele>179.44</ele>
        <time>2019-12-08T13:10:22.000Z</time>
      </trkpt>
      <trkpt lat="43.60552" lon="6.75906">
        <ele>179.39</ele>
        <time>2019-12-08T13:10:23.000Z</time>
      </trkpt>
      <trkpt lat="43.60552" lon="6.75918">
        <ele>179.39</ele>
        <time>2019-12-08T13:10:24.000Z</time>
      </trkpt>
      <trkpt lat="43.60553" lon="6.75929">
        <ele>179.47</ele>
        <time>2019-12-08T13:10:25.000Z</time>
      </trkpt>
      <trkpt lat="43.60553" lon="6.7594">
        <ele>179.51</ele>
        <time>2019-12-08T13:10:26.000Z</time>
      </trkpt>
      <trkpt lat="43.60554" lon="6.75951">
        <ele>179.55</ele>
        <time>2019-12-08T13:10:27.000Z</time>
      </trkpt>
      <trkpt lat="43.60555" lon="6.75962">
        <ele>179.67</ele>
        <time>2019-12-08T13:10:28.000Z</time>
      </trkpt>
      <trkpt lat="43.60556" lon="6.75973">
        <ele>179.78</ele>
        <time>2019-12-08T13:10:29.000Z</time>
      </trkpt>
      <trkpt lat="43.60557" lon="6.75984">
        <ele>179.78</ele>
        <time>2019-12-08T13:10:30.000Z</time>
      </trkpt>
      <trkpt lat="43.60558" lon="6.75995">
        <ele>179.86</ele>
        <time>2019-12-08T13:10:31.000Z</time>
      </trkpt>
      <trkpt lat="43.60558" lon="6.76006">
        <ele>179.88</ele>
        <time>2019-12-08T13:10:32.000Z</time>
      </trkpt>
      <trkpt lat="43.60559" lon="6.76017">
        <ele>179.88</ele>
        <time>2019-12-08T13:10:33.000Z</time>
      </trkpt>
      <trkpt lat="43.6056" lon="6.76029">
        <ele>179.74</ele>
        <time>2019-12-08T13:10:34.000Z</time>
      </trkpt>
      <trkpt lat="43.60561" lon="6.7604">
        <ele>179.71</ele>
        <time>2019-12-08T13:10:35.000Z</time>
      </trkpt>
      <trkpt lat="43.60562" lon="6.76052">
        <ele>179.6</ele>
        <time>2019-12-08T13:10:36.000Z</time>
      </trkpt>
      <trkpt lat="43.60563" lon="6.76064">
        <ele>179.39</ele>
        <time>2019-12-08T13:10:37.000Z</time>
      </trkpt>
      <trkpt lat="43.60564" lon="6.76075">
        <ele>179.31</ele>
        <time>2019-12-08T13:10:38.000Z</time>
      </trkpt>
      <trkpt lat="43.60565" lon="6.76087">
        <ele>179.13</ele>
        <time>2019-12-08T13:10:39.000Z</time>
      </trkpt>
      <trkpt lat="43.60566" lon="6.76099">
        <ele>179.04</ele>
        <time>2019-12-08T13:10:40.000Z</time>
      </trkpt>
      <trkpt lat="43.60568" lon="6.76111">
        <ele>178.93</ele>
        <time>2019-12-08T13:10:41.000Z</time>
      </trkpt>
      <trkpt lat="43.60569" lon="6.76122">
        <ele>178.76</ele>
        <time>2019-12-08T13:10:42.000Z</time>
      </trkpt>
      <trkpt lat="43.6057" lon="6.76134">
        <ele>178.73</ele>
        <time>2019-12-08T13:10:43.000Z</time>
      </trkpt>
      <trkpt lat="43.60571" lon="6.76145">
        <ele>178.69</ele>
        <time>2019-12-08T13:10:44.000Z</time>
      </trkpt>
      <trkpt lat="43.60573" lon="6.76157">
        <ele>178.66</ele>
        <time>2019-12-08T13:10:45.000Z</time>
      </trkpt>
      <trkpt lat="43.60574" lon="6.76168">
        <ele>178.65</ele>
        <time>2019-12-08T13:10:46.000Z</time>
      </trkpt>
      <trkpt lat="43.60575" lon="6.76179">
        <ele>178.72</ele>
        <time>2019-12-08T13:10:47.000Z</time>
      </trkpt>
      <trkpt lat="43.60575" lon="6.76189">
        <ele>178.75</ele>
        <time>2019-12-08T13:10:48.000Z</time>
      </trkpt>
      <trkpt lat="43.60574" lon="6.762">
        <ele>178.84</ele>
        <time>2019-12-08T13:10:49.000Z</time>
      </trkpt>
      <trkpt lat="43.60573" lon="6.7621">
        <ele>178.93</ele>
        <time>2019-12-08T13:10:50.000Z</time>
      </trkpt>
      <trkpt lat="43.60573" lon="6.76221">
        <ele>179</ele>
        <time>2019-12-08T13:10:51.000Z</time>
      </trkpt>
      <trkpt lat="43.60573" lon="6.76231">
        <ele>179.04</ele>
        <time>2019-12-08T13:10:52.000Z</time>
      </trkpt>
      <trkpt lat="43.60574" lon="6.76241">
        <ele>179.08</ele>
        <time>2019-12-08T13:10:53.000Z</time>
      </trkpt>
      <trkpt lat="43.60574" lon="6.76252">
        <ele>179.2</ele>
        <time>2019-12-08T13:10:54.000Z</time>
      </trkpt>
      <trkpt lat="43.60574" lon="6.76262">
        <ele>179.2</ele>
        <time>2019-12-08T13:10:55.000Z</time>
      </trkpt>
      <trkpt lat="43.60574" lon="6.76272">
        <ele>179.15</ele>
        <time>2019-12-08T13:10:56.000Z</time>
      </trkpt>
      <trkpt lat="43.60574" lon="6.76283">
        <ele>179.19</ele>
        <time>2019-12-08T13:10:57.000Z</time>
      </trkpt>
      <trkpt lat="43.60574" lon="6.76293">
        <ele>179.35</ele>
        <time>2019-12-08T13:10:58.000Z</time>
      </trkpt>
      <trkpt lat="43.60574" lon="6.76303">
        <ele>179.42</ele>
        <time>2019-12-08T13:10:59.000Z</time>
      </trkpt>
      <trkpt lat="43.60574" lon="6.76313">
        <ele>179.56</ele>
        <time>2019-12-08T13:11:00.000Z</time>
      </trkpt>
      <trkpt lat="43.60574" lon="6.76324">
        <ele>179.85</ele>
        <time>2019-12-08T13:11:01.000Z</time>
      </trkpt>
      <trkpt lat="43.60574" lon="6.76334">
        <ele>179.94</ele>
        <time>2019-12-08T13:11:02.000Z</time>
      </trkpt>
      <trkpt lat="43.60574" lon="6.76344">
        <ele>179.93</ele>
        <time>2019-12-08T13:11:03.000Z</time>
      </trkpt>
      <trkpt lat="43.60574" lon="6.76354">
        <ele>179.95</ele>
        <time>2019-12-08T13:11:04.000Z</time>
      </trkpt>
      <trkpt lat="43.60574" lon="6.76365">
        <ele>179.98</ele>
        <time>2019-12-08T13:11:05.000Z</time>
      </trkpt>
      <trkpt lat="43.60574" lon="6.76375">
        <ele>179.93</ele>
        <time>2019-12-08T13:11:06.000Z</time>
      </trkpt>
      <trkpt lat="43.60574" lon="6.76386">
        <ele>180.01</ele>
        <time>2019-12-08T13:11:07.000Z</time>
      </trkpt>
      <trkpt lat="43.60575" lon="6.76396">
        <ele>180.02</ele>
        <time>2019-12-08T13:11:08.000Z</time>
      </trkpt>
      <trkpt lat="43.60575" lon="6.76406">
        <ele>179.99</ele>
        <time>2019-12-08T13:11:09.000Z</time>
      </trkpt>
      <trkpt lat="43.60575" lon="6.76417">
        <ele>179.82</ele>
        <time>2019-12-08T13:11:10.000Z</time>
      </trkpt>
      <trkpt lat="43.60576" lon="6.76428">
        <ele>179.7</ele>
        <time>2019-12-08T13:11:11.000Z</time>
      </trkpt>
      <trkpt lat="43.60577" lon="6.76438">
        <ele>179.74</ele>
        <time>2019-12-08T13:11:12.000Z</time>
      </trkpt>
      <trkpt lat="43.60578" lon="6.76449">
        <ele>179.67</ele>
        <time>2019-12-08T13:11:13.000Z</time>
      </trkpt>
      <trkpt lat="43.60578" lon="6.76459">
        <ele>179.64</ele>
        <time>2019-12-08T13:11:14.000Z</time>
      </trkpt>
      <trkpt lat="43.60579" lon="6.7647">
        <ele>179.62</ele>
        <time>2019-12-08T13:11:15.000Z</time>
      </trkpt>
      <trkpt lat="43.6058" lon="6.76481">
        <ele>179.55</ele>
        <time>2019-12-08T13:11:16.000Z</time>
      </trkpt>
      <trkpt lat="43.60581" lon="6.76492">
        <ele>179.58</ele>
        <time>2019-12-08T13:11:17.000Z</time>
      </trkpt>
      <trkpt lat="43.60581" lon="6.76502">
        <ele>179.68</ele>
        <time>2019-12-08T13:11:18.000Z</time>
      </trkpt>
      <trkpt lat="43.60581" lon="6.76513">
        <ele>179.82</ele>
        <time>2019-12-08T13:11:19.000Z</time>
      </trkpt>
      <trkpt lat="43.60581" lon="6.76524">
        <ele>179.86</ele>
        <time>2019-12-08T13:11:20.000Z</time>
      </trkpt>
      <trkpt lat="43.60581" lon="6.76535">
        <ele>179.82</ele>
        <time>2019-12-08T13:11:21.000Z</time>
      </trkpt>
      <trkpt lat="43.60581" lon="6.76545">
        <ele>179.73</ele>
        <time>2019-12-08T13:11:22.000Z</time>
      </trkpt>
      <trkpt lat="43.60581" lon="6.76556">
        <ele>179.54</ele>
        <time>2019-12-08T13:11:23.000Z</time>
      </trkpt>
      <trkpt lat="43.60581" lon="6.76567">
        <ele>179.28</ele>
        <time>2019-12-08T13:11:24.000Z</time>
      </trkpt>
      <trkpt lat="43.60582" lon="6.76578">
        <ele>179.17</ele>
        <time>2019-12-08T13:11:25.000Z</time>
      </trkpt>
      <trkpt lat="43.60582" lon="6.7659">
        <ele>179.11</ele>
        <time>2019-12-08T13:11:26.000Z</time>
      </trkpt>
      <trkpt lat="43.60582" lon="6.76601">
        <ele>179.11</ele>
        <time>2019-12-08T13:11:27.000Z</time>
      </trkpt>
      <trkpt lat="43.60582" lon="6.76612">
        <ele>179.04</ele>
        <time>2019-12-08T13:11:28.000Z</time>
      </trkpt>
      <trkpt lat="43.60582" lon="6.76624">
        <ele>178.97</ele>
        <time>2019-12-08T13:11:29.000Z</time>
      </trkpt>
      <trkpt lat="43.60582" lon="6.76635">
        <ele>178.85</ele>
        <time>2019-12-08T13:11:30.000Z</time>
      </trkpt>
      <trkpt lat="43.60582" lon="6.76647">
        <ele>178.49</ele>
        <time>2019-12-08T13:11:31.000Z</time>
      </trkpt>
      <trkpt lat="43.60582" lon="6.76659">
        <ele>178.22</ele>
        <time>2019-12-08T13:11:32.000Z</time>
      </trkpt>
      <trkpt lat="43.60581" lon="6.76671">
        <ele>178.13</ele>
        <time>2019-12-08T13:11:33.000Z</time>
      </trkpt>
      <trkpt lat="43.6058" lon="6.76682">
        <ele>178.06</ele>
        <time>2019-12-08T13:11:34.000Z</time>
      </trkpt>
      <trkpt lat="43.60579" lon="6.76694">
        <ele>177.82</ele>
        <time>2019-12-08T13:11:35.000Z</time>
      </trkpt>
      <trkpt lat="43.60578" lon="6.76706">
        <ele>177.69</ele>
        <time>2019-12-08T13:11:36.000Z</time>
      </trkpt>
      <trkpt lat="43.60578" lon="6.76718">
        <ele>177.65</ele>
        <time>2019-12-08T13:11:37.000Z</time>
      </trkpt>
      <trkpt lat="43.60576" lon="6.7673">
        <ele>177.48</ele>
        <time>2019-12-08T13:11:38.000Z</time>
      </trkpt>
      <trkpt lat="43.60575" lon="6.76742">
        <ele>177.31</ele>
        <time>2019-12-08T13:11:39.000Z</time>
      </trkpt>
      <trkpt lat="43.60573" lon="6.76753">
        <ele>177.18</ele>
        <time>2019-12-08T13:11:40.000Z</time>
      </trkpt>
      <trkpt lat="43.60571" lon="6.76765">
        <ele>177.13</ele>
        <time>2019-12-08T13:11:41.000Z</time>
      </trkpt>
      <trkpt lat="43.60568" lon="6.76776">
        <ele>177.03</ele>
        <time>2019-12-08T13:11:42.000Z</time>
      </trkpt>
      <trkpt lat="43.60565" lon="6.76788">
        <ele>177.02</ele>
        <time>2019-12-08T13:11:43.000Z</time>
      </trkpt>
      <trkpt lat="43.60562" lon="6.76799">
        <ele>176.99</ele>
        <time>2019-12-08T13:11:44.000Z</time>
      </trkpt>
      <trkpt lat="43.60559" lon="6.7681">
        <ele>176.96</ele>
        <time>2019-12-08T13:11:45.000Z</time>
      </trkpt>
      <trkpt lat="43.60556" lon="6.76821">
        <ele>176.9</ele>
        <time>2019-12-08T13:11:46.000Z</time>
      </trkpt>
      <trkpt lat="43.60552" lon="6.76832">
        <ele>176.83</ele>
        <time>2019-12-08T13:11:47.000Z</time>
      </trkpt>
      <trkpt lat="43.60549" lon="6.76843">
        <ele>176.66</ele>
        <time>2019-12-08T13:11:48.000Z</time>
      </trkpt>
      <trkpt lat="43.60545" lon="6.76854">
        <ele>176.51</ele>
        <time>2019-12-08T13:11:49.000Z</time>
      </trkpt>
      <trkpt lat="43.60541" lon="6.76865">
        <ele>176.49</ele>
        <time>2019-12-08T13:11:50.000Z</time>
      </trkpt>
      <trkpt lat="43.60538" lon="6.76876">
        <ele>176.41</ele>
        <time>2019-12-08T13:11:51.000Z</time>
      </trkpt>
      <trkpt lat="43.60534" lon="6.76887">
        <ele>176.34</ele>
        <time>2019-12-08T13:11:52.000Z</time>
      </trkpt>
      <trkpt lat="43.60531" lon="6.76898">
        <ele>176.33</ele>
        <time>2019-12-08T13:11:53.000Z</time>
      </trkpt>
      <trkpt lat="43.60527" lon="6.76909">
        <ele>176.35</ele>
        <time>2019-12-08T13:11:54.000Z</time>
      </trkpt>
      <trkpt lat="43.60524" lon="6.7692">
        <ele>176.28</ele>
        <time>2019-12-08T13:11:55.000Z</time>
      </trkpt>
      <trkpt lat="43.6052" lon="6.7693">
        <ele>176.53</ele>
        <time>2019-12-08T13:11:56.000Z</time>
      </trkpt>
      <trkpt lat="43.60517" lon="6.76941">
        <ele>176.66</ele>
        <time>2019-12-08T13:11:57.000Z</time>
      </trkpt>
      <trkpt lat="43.60513" lon="6.76952">
        <ele>176.69</ele>
        <time>2019-12-08T13:11:58.000Z</time>
      </trkpt>
      <trkpt lat="43.6051" lon="6.76962">
        <ele>176.81</ele>
        <time>2019-12-08T13:11:59.000Z</time>
      </trkpt>
      <trkpt lat="43.60507" lon="6.76972">
        <ele>176.82</ele>
        <time>2019-12-08T13:12:00.000Z</time>
      </trkpt>
      <trkpt lat="43.60503" lon="6.76983">
        <ele>176.81</ele>
        <time>2019-12-08T13:12:01.000Z</time>
      </trkpt>
      <trkpt lat="43.605" lon="6.76993">
        <ele>176.85</ele>
        <time>2019-12-08T13:12:02.000Z</time>
      </trkpt>
      <trkpt lat="43.60497" lon="6.77003">
        <ele>176.85</ele>
        <time>2019-12-08T13:12:03.000Z</time>
      </trkpt>
      <trkpt lat="43.60494" lon="6.77013">
        <ele>176.81</ele>
        <time>2019-12-08T13:12:04.000Z</time>
      </trkpt>
      <trkpt lat="43.60491" lon="6.77023">
        <ele>176.78</ele>
        <time>2019-12-08T13:12:05.000Z</time>
      </trkpt>
      <trkpt lat="43.60487" lon="6.77034">
        <ele>176.73</ele>
        <time>2019-12-08T13:12:06.000Z</time>
      </trkpt>
      <trkpt lat="43.60484" lon="6.77044">
        <ele>176.59</ele>
        <time>2019-12-08T13:12:07.000Z</time>
      </trkpt>
      <trkpt lat="43.60481" lon="6.77054">
        <ele>176.59</ele>
        <time>2019-12-08T13:12:08.000Z</time>
      </trkpt>
      <trkpt lat="43.60478" lon="6.77064">
        <ele>176.43</ele>
        <time>2019-12-08T13:12:09.000Z</time>
      </trkpt>
      <trkpt lat="43.60474" lon="6.77074">
        <ele>176.35</ele>
        <time>2019-12-08T13:12:10.000Z</time>
      </trkpt>
      <trkpt lat="43.60471" lon="6.77083">
        <ele>176.14</ele>
        <time>2019-12-08T13:12:11.000Z</time>
      </trkpt>
      <trkpt lat="43.60467" lon="6.77093">
        <ele>176.07</ele>
        <time>2019-12-08T13:12:12.000Z</time>
      </trkpt>
      <trkpt lat="43.60464" lon="6.77102">
        <ele>176.07</ele>
        <time>2019-12-08T13:12:13.000Z</time>
      </trkpt>
      <trkpt lat="43.6046" lon="6.77112">
        <ele>176.13</ele>
        <time>2019-12-08T13:12:14.000Z</time>
      </trkpt>
      <trkpt lat="43.60457" lon="6.77121">
        <ele>176.23</ele>
        <time>2019-12-08T13:12:15.000Z</time>
      </trkpt>
      <trkpt lat="43.60454" lon="6.7713">
        <ele>176.37</ele>
        <time>2019-12-08T13:12:16.000Z</time>
      </trkpt>
      <trkpt lat="43.6045" lon="6.7714">
        <ele>176.43</ele>
        <time>2019-12-08T13:12:17.000Z</time>
      </trkpt>
      <trkpt lat="43.60447" lon="6.77149">
        <ele>176.55</ele>
        <time>2019-12-08T13:12:18.000Z</time>
      </trkpt>
      <trkpt lat="43.60444" lon="6.77158">
        <ele>176.59</ele>
        <time>2019-12-08T13:12:19.000Z</time>
      </trkpt>
      <trkpt lat="43.60441" lon="6.77167">
        <ele>176.68</ele>
        <time>2019-12-08T13:12:20.000Z</time>
      </trkpt>
      <trkpt lat="43.60438" lon="6.77176">
        <ele>176.8</ele>
        <time>2019-12-08T13:12:21.000Z</time>
      </trkpt>
      <trkpt lat="43.60434" lon="6.77185">
        <ele>176.87</ele>
        <time>2019-12-08T13:12:22.000Z</time>
      </trkpt>
      <trkpt lat="43.60431" lon="6.77194">
        <ele>177.06</ele>
        <time>2019-12-08T13:12:23.000Z</time>
      </trkpt>
      <trkpt lat="43.60428" lon="6.77203">
        <ele>177.31</ele>
        <time>2019-12-08T13:12:24.000Z</time>
      </trkpt>
      <trkpt lat="43.60425" lon="6.77212">
        <ele>177.47</ele>
        <time>2019-12-08T13:12:25.000Z</time>
      </trkpt>
      <trkpt lat="43.60421" lon="6.77221">
        <ele>177.74</ele>
        <time>2019-12-08T13:12:26.000Z</time>
      </trkpt>
      <trkpt lat="43.60418" lon="6.77229">
        <ele>177.86</ele>
        <time>2019-12-08T13:12:27.000Z</time>
      </trkpt>
      <trkpt lat="43.60415" lon="6.77238">
        <ele>177.99</ele>
        <time>2019-12-08T13:12:28.000Z</time>
      </trkpt>
      <trkpt lat="43.60412" lon="6.77246">
        <ele>178.28</ele>
        <time>2019-12-08T13:12:29.000Z</time>
      </trkpt>
      <trkpt lat="43.60409" lon="6.77255">
        <ele>178.47</ele>
        <time>2019-12-08T13:12:30.000Z</time>
      </trkpt>
      <trkpt lat="43.60406" lon="6.77263">
        <ele>178.56</ele>
        <time>2019-12-08T13:12:31.000Z</time>
      </trkpt>
      <trkpt lat="43.60403" lon="6.77271">
        <ele>178.7</ele>
        <time>2019-12-08T13:12:32.000Z</time>
      </trkpt>
      <trkpt lat="43.604" lon="6.7728">
        <ele>178.73</ele>
        <time>2019-12-08T13:12:33.000Z</time>
      </trkpt>
      <trkpt lat="43.60397" lon="6.77288">
        <ele>178.77</ele>
        <time>2019-12-08T13:12:34.000Z</time>
      </trkpt>
      <trkpt lat="43.60394" lon="6.77297">
        <ele>178.78</ele>
        <time>2019-12-08T13:12:35.000Z</time>
      </trkpt>
      <trkpt lat="43.60391" lon="6.77305">
        <ele>178.84</ele>
        <time>2019-12-08T13:12:36.000Z</time>
      </trkpt>
      <trkpt lat="43.60388" lon="6.77313">
        <ele>178.99</ele>
        <time>2019-12-08T13:12:37.000Z</time>
      </trkpt>
      <trkpt lat="43.60385" lon="6.77322">
        <ele>179.09</ele>
        <time>2019-12-08T13:12:38.000Z</time>
      </trkpt>
      <trkpt lat="43.60382" lon="6.7733">
        <ele>179.16</ele>
        <time>2019-12-08T13:12:39.000Z</time>
      </trkpt>
      <trkpt lat="43.60379" lon="6.77339">
        <ele>179.34</ele>
        <time>2019-12-08T13:12:40.000Z</time>
      </trkpt>
      <trkpt lat="43.60376" lon="6.77347">
        <ele>179.43</ele>
        <time>2019-12-08T13:12:41.000Z</time>
      </trkpt>
      <trkpt lat="43.60373" lon="6.77355">
        <ele>179.59</ele>
        <time>2019-12-08T13:12:42.000Z</time>
      </trkpt>
      <trkpt lat="43.60371" lon="6.77363">
        <ele>179.68</ele>
        <time>2019-12-08T13:12:43.000Z</time>
      </trkpt>
      <trkpt lat="43.60368" lon="6.77371">
        <ele>179.75</ele>
        <time>2019-12-08T13:12:44.000Z</time>
      </trkpt>
      <trkpt lat="43.60365" lon="6.7738">
        <ele>179.82</ele>
        <time>2019-12-08T13:12:45.000Z</time>
      </trkpt>
      <trkpt lat="43.60362" lon="6.77388">
        <ele>179.96</ele>
        <time>2019-12-08T13:12:46.000Z</time>
      </trkpt>
      <trkpt lat="43.60359" lon="6.77396">
        <ele>179.99</ele>
        <time>2019-12-08T13:12:47.000Z</time>
      </trkpt>
      <trkpt lat="43.60356" lon="6.77405">
        <ele>180.1</ele>
        <time>2019-12-08T13:12:48.000Z</time>
      </trkpt>
      <trkpt lat="43.60353" lon="6.77413">
        <ele>180.33</ele>
        <time>2019-12-08T13:12:49.000Z</time>
      </trkpt>
      <trkpt lat="43.6035" lon="6.77421">
        <ele>180.48</ele>
        <time>2019-12-08T13:12:50.000Z</time>
      </trkpt>
      <trkpt lat="43.60347" lon="6.77429">
        <ele>180.55</ele>
        <time>2019-12-08T13:12:51.000Z</time>
      </trkpt>
      <trkpt lat="43.60344" lon="6.77438">
        <ele>180.85</ele>
        <time>2019-12-08T13:12:52.000Z</time>
      </trkpt>
      <trkpt lat="43.60341" lon="6.77446">
        <ele>181.1</ele>
        <time>2019-12-08T13:12:53.000Z</time>
      </trkpt>
      <trkpt lat="43.60338" lon="6.77454">
        <ele>181.37</ele>
        <time>2019-12-08T13:12:54.000Z</time>
      </trkpt>
      <trkpt lat="43.60335" lon="6.77462">
        <ele>181.6</ele>
        <time>2019-12-08T13:12:55.000Z</time>
      </trkpt>
      <trkpt lat="43.60333" lon="6.7747">
        <ele>181.67</ele>
        <time>2019-12-08T13:12:56.000Z</time>
      </trkpt>
      <trkpt lat="43.6033" lon="6.77478">
        <ele>181.77</ele>
        <time>2019-12-08T13:12:57.000Z</time>
      </trkpt>
      <trkpt lat="43.60327" lon="6.77486">
        <ele>181.8</ele>
        <time>2019-12-08T13:12:58.000Z</time>
      </trkpt>
      <trkpt lat="43.60324" lon="6.77494">
        <ele>181.83</ele>
        <time>2019-12-08T13:12:59.000Z</time>
      </trkpt>
      <trkpt lat="43.60321" lon="6.77502">
        <ele>181.85</ele>
        <time>2019-12-08T13:13:00.000Z</time>
      </trkpt>
      <trkpt lat="43.60318" lon="6.7751">
        <ele>181.87</ele>
        <time>2019-12-08T13:13:01.000Z</time>
      </trkpt>
      <trkpt lat="43.60315" lon="6.77519">
        <ele>181.93</ele>
        <time>2019-12-08T13:13:02.000Z</time>
      </trkpt>
      <trkpt lat="43.60312" lon="6.77527">
        <ele>181.95</ele>
        <time>2019-12-08T13:13:03.000Z</time>
      </trkpt>
      <trkpt lat="43.60309" lon="6.77535">
        <ele>181.99</ele>
        <time>2019-12-08T13:13:04.000Z</time>
      </trkpt>
      <trkpt lat="43.60307" lon="6.77543">
        <ele>182.17</ele>
        <time>2019-12-08T13:13:05.000Z</time>
      </trkpt>
      <trkpt lat="43.60304" lon="6.77551">
        <ele>182.37</ele>
        <time>2019-12-08T13:13:06.000Z</time>
      </trkpt>
      <trkpt lat="43.60301" lon="6.77559">
        <ele>182.57</ele>
        <time>2019-12-08T13:13:07.000Z</time>
      </trkpt>
      <trkpt lat="43.60298" lon="6.77568">
        <ele>182.67</ele>
        <time>2019-12-08T13:13:08.000Z</time>
      </trkpt>
      <trkpt lat="43.60295" lon="6.77576">
        <ele>182.75</ele>
        <time>2019-12-08T13:13:09.000Z</time>
      </trkpt>
      <trkpt lat="43.60292" lon="6.77584">
        <ele>182.64</ele>
        <time>2019-12-08T13:13:10.000Z</time>
      </trkpt>
      <trkpt lat="43.60289" lon="6.77593">
        <ele>182.44</ele>
        <time>2019-12-08T13:13:11.000Z</time>
      </trkpt>
      <trkpt lat="43.60286" lon="6.77601">
        <ele>182.32</ele>
        <time>2019-12-08T13:13:12.000Z</time>
      </trkpt>
      <trkpt lat="43.60283" lon="6.7761">
        <ele>182.2</ele>
        <time>2019-12-08T13:13:13.000Z</time>
      </trkpt>
      <trkpt lat="43.6028" lon="6.77618">
        <ele>181.99</ele>
        <time>2019-12-08T13:13:14.000Z</time>
      </trkpt>
      <trkpt lat="43.60277" lon="6.77627">
        <ele>181.88</ele>
        <time>2019-12-08T13:13:15.000Z</time>
      </trkpt>
      <trkpt lat="43.60274" lon="6.77636">
        <ele>181.87</ele>
        <time>2019-12-08T13:13:16.000Z</time>
      </trkpt>
      <trkpt lat="43.60271" lon="6.77644">
        <ele>181.65</ele>
        <time>2019-12-08T13:13:17.000Z</time>
      </trkpt>
      <trkpt lat="43.60268" lon="6.77653">
        <ele>181.57</ele>
        <time>2019-12-08T13:13:18.000Z</time>
      </trkpt>
      <trkpt lat="43.60265" lon="6.77662">
        <ele>181.54</ele>
        <time>2019-12-08T13:13:19.000Z</time>
      </trkpt>
      <trkpt lat="43.60261" lon="6.77671">
        <ele>181.48</ele>
        <time>2019-12-08T13:13:20.000Z</time>
      </trkpt>
      <trkpt lat="43.60258" lon="6.7768">
        <ele>181.31</ele>
        <time>2019-12-08T13:13:21.000Z</time>
      </trkpt>
      <trkpt lat="43.60255" lon="6.7769">
        <ele>181.26</ele>
        <time>2019-12-08T13:13:22.000Z</time>
      </trkpt>
      <trkpt lat="43.60252" lon="6.77699">
        <ele>181.11</ele>
        <time>2019-12-08T13:13:23.000Z</time>
      </trkpt>
      <trkpt lat="43.60249" lon="6.77708">
        <ele>181.02</ele>
        <time>2019-12-08T13:13:24.000Z</time>
      </trkpt>
      <trkpt lat="43.60245" lon="6.77718">
        <ele>180.82</ele>
        <time>2019-12-08T13:13:25.000Z</time>
      </trkpt>
      <trkpt lat="43.60242" lon="6.77727">
        <ele>180.63</ele>
        <time>2019-12-08T13:13:26.000Z</time>
      </trkpt>
      <trkpt lat="43.60239" lon="6.77737">
        <ele>180.37</ele>
        <time>2019-12-08T13:13:27.000Z</time>
      </trkpt>
      <trkpt lat="43.60235" lon="6.77746">
        <ele>180.21</ele>
        <time>2019-12-08T13:13:28.000Z</time>
      </trkpt>
      <trkpt lat="43.60232" lon="6.77755">
        <ele>179.96</ele>
        <time>2019-12-08T13:13:29.000Z</time>
      </trkpt>
      <trkpt lat="43.60228" lon="6.77765">
        <ele>179.82</ele>
        <time>2019-12-08T13:13:30.000Z</time>
      </trkpt>
      <trkpt lat="43.60225" lon="6.77774">
        <ele>179.74</ele>
        <time>2019-12-08T13:13:31.000Z</time>
      </trkpt>
      <trkpt lat="43.60222" lon="6.77783">
        <ele>179.67</ele>
        <time>2019-12-08T13:13:32.000Z</time>
      </trkpt>
      <trkpt lat="43.60218" lon="6.77792">
        <ele>179.69</ele>
        <time>2019-12-08T13:13:33.000Z</time>
      </trkpt>
      <trkpt lat="43.60215" lon="6.77801">
        <ele>179.74</ele>
        <time>2019-12-08T13:13:34.000Z</time>
      </trkpt>
      <trkpt lat="43.60212" lon="6.77809">
        <ele>179.89</ele>
        <time>2019-12-08T13:13:35.000Z</time>
      </trkpt>
      <trkpt lat="43.60208" lon="6.77817">
        <ele>180.17</ele>
        <time>2019-12-08T13:13:36.000Z</time>
      </trkpt>
      <trkpt lat="43.60202" lon="6.77823">
        <ele>180.26</ele>
        <time>2019-12-08T13:13:37.000Z</time>
      </trkpt>
      <trkpt lat="43.60197" lon="6.77827">
        <ele>180.39</ele>
        <time>2019-12-08T13:13:38.000Z</time>
      </trkpt>
      <trkpt lat="43.60191" lon="6.77832">
        <ele>180.41</ele>
        <time>2019-12-08T13:13:39.000Z</time>
      </trkpt>
      <trkpt lat="43.60187" lon="6.77839">
        <ele>180.31</ele>
        <time>2019-12-08T13:13:40.000Z</time>
      </trkpt>
      <trkpt lat="43.60184" lon="6.77847">
        <ele>180.23</ele>
        <time>2019-12-08T13:13:41.000Z</time>
      </trkpt>
      <trkpt lat="43.60183" lon="6.77856">
        <ele>180.12</ele>
        <time>2019-12-08T13:13:42.000Z</time>
      </trkpt>
      <trkpt lat="43.60183" lon="6.77864">
        <ele>180.13</ele>
        <time>2019-12-08T13:13:43.000Z</time>
      </trkpt>
      <trkpt lat="43.60184" lon="6.77873">
        <ele>180.25</ele>
        <time>2019-12-08T13:13:44.000Z</time>
      </trkpt>
      <trkpt lat="43.60183" lon="6.77881">
        <ele>180.35</ele>
        <time>2019-12-08T13:13:45.000Z</time>
      </trkpt>
      <trkpt lat="43.60182" lon="6.7789">
        <ele>180.59</ele>
        <time>2019-12-08T13:13:46.000Z</time>
      </trkpt>
      <trkpt lat="43.60179" lon="6.77898">
        <ele>180.8</ele>
        <time>2019-12-08T13:13:47.000Z</time>
      </trkpt>
      <trkpt lat="43.60177" lon="6.77906">
        <ele>181.01</ele>
        <time>2019-12-08T13:13:48.000Z</time>
      </trkpt>
      <trkpt lat="43.60174" lon="6.77913">
        <ele>181.1</ele>
        <time>2019-12-08T13:13:49.000Z</time>
      </trkpt>
      <trkpt lat="43.60172" lon="6.77921">
        <ele>181.22</ele>
        <time>2019-12-08T13:13:50.000Z</time>
      </trkpt>
      <trkpt lat="43.60169" lon="6.77928">
        <ele>181.29</ele>
        <time>2019-12-08T13:13:51.000Z</time>
      </trkpt>
      <trkpt lat="43.60167" lon="6.77935">
        <ele>181.34</ele>
        <time>2019-12-08T13:13:52.000Z</time>
      </trkpt>
      <trkpt lat="43.60164" lon="6.77942">
        <ele>181.38</ele>
        <time>2019-12-08T13:13:53.000Z</time>
      </trkpt>
      <trkpt lat="43.60161" lon="6.77948">
        <ele>181.41</ele>
        <time>2019-12-08T13:13:54.000Z</time>
      </trkpt>
      <trkpt lat="43.60159" lon="6.77955">
        <ele>181.45</ele>
        <time>2019-12-08T13:13:55.000Z</time>
      </trkpt>
      <trkpt lat="43.60157" lon="6.77962">
        <ele>181.59</ele>
        <time>2019-12-08T13:13:56.000Z</time>
      </trkpt>
      <trkpt lat="43.60154" lon="6.77968">
        <ele>181.62</ele>
        <time>2019-12-08T13:13:57.000Z</time>
      </trkpt>
      <trkpt lat="43.60152" lon="6.77975">
        <ele>181.7</ele>
        <time>2019-12-08T13:13:58.000Z</time>
      </trkpt>
      <trkpt lat="43.60149" lon="6.77982">
        <ele>181.86</ele>
        <time>2019-12-08T13:13:59.000Z</time>
      </trkpt>
      <trkpt lat="43.60147" lon="6.77988">
        <ele>182.04</ele>
        <time>2019-12-08T13:14:00.000Z</time>
      </trkpt>
      <trkpt lat="43.60144" lon="6.77995">
        <ele>182.11</ele>
        <time>2019-12-08T13:14:01.000Z</time>
      </trkpt>
      <trkpt lat="43.60142" lon="6.78002">
        <ele>182.27</ele>
        <time>2019-12-08T13:14:02.000Z</time>
      </trkpt>
      <trkpt lat="43.60139" lon="6.78009">
        <ele>182.39</ele>
        <time>2019-12-08T13:14:03.000Z</time>
      </trkpt>
      <trkpt lat="43.60136" lon="6.78015">
        <ele>182.59</ele>
        <time>2019-12-08T13:14:04.000Z</time>
      </trkpt>
      <trkpt lat="43.60134" lon="6.78022">
        <ele>182.7</ele>
        <time>2019-12-08T13:14:05.000Z</time>
      </trkpt>
      <trkpt lat="43.60131" lon="6.78029">
        <ele>182.79</ele>
        <time>2019-12-08T13:14:06.000Z</time>
      </trkpt>
      <trkpt lat="43.60128" lon="6.78036">
        <ele>182.97</ele>
        <time>2019-12-08T13:14:07.000Z</time>
      </trkpt>
      <trkpt lat="43.60126" lon="6.78042">
        <ele>183.1</ele>
        <time>2019-12-08T13:14:08.000Z</time>
      </trkpt>
      <trkpt lat="43.60123" lon="6.78049">
        <ele>183.14</ele>
        <time>2019-12-08T13:14:09.000Z</time>
      </trkpt>
      <trkpt lat="43.60121" lon="6.78056">
        <ele>183.26</ele>
        <time>2019-12-08T13:14:10.000Z</time>
      </trkpt>
      <trkpt lat="43.60118" lon="6.78063">
        <ele>183.43</ele>
        <time>2019-12-08T13:14:11.000Z</time>
      </trkpt>
      <trkpt lat="43.60116" lon="6.7807">
        <ele>183.6</ele>
        <time>2019-12-08T13:14:12.000Z</time>
      </trkpt>
      <trkpt lat="43.60113" lon="6.78076">
        <ele>183.79</ele>
        <time>2019-12-08T13:14:13.000Z</time>
      </trkpt>
      <trkpt lat="43.60111" lon="6.78083">
        <ele>183.87</ele>
        <time>2019-12-08T13:14:14.000Z</time>
      </trkpt>
      <trkpt lat="43.60108" lon="6.7809">
        <ele>184.04</ele>
        <time>2019-12-08T13:14:15.000Z</time>
      </trkpt>
      <trkpt lat="43.60105" lon="6.78096">
        <ele>184.1</ele>
        <time>2019-12-08T13:14:16.000Z</time>
      </trkpt>
      <trkpt lat="43.60103" lon="6.78103">
        <ele>184.16</ele>
        <time>2019-12-08T13:14:17.000Z</time>
      </trkpt>
      <trkpt lat="43.60101" lon="6.7811">
        <ele>184.21</ele>
        <time>2019-12-08T13:14:18.000Z</time>
      </trkpt>
      <trkpt lat="43.60098" lon="6.78117">
        <ele>184.32</ele>
        <time>2019-12-08T13:14:19.000Z</time>
      </trkpt>
      <trkpt lat="43.60095" lon="6.78124">
        <ele>184.39</ele>
        <time>2019-12-08T13:14:20.000Z</time>
      </trkpt>
      <trkpt lat="43.60093" lon="6.7813">
        <ele>184.53</ele>
        <time>2019-12-08T13:14:21.000Z</time>
      </trkpt>
      <trkpt lat="43.6009" lon="6.78137">
        <ele>184.62</ele>
        <time>2019-12-08T13:14:22.000Z</time>
      </trkpt>
      <trkpt lat="43.60088" lon="6.78144">
        <ele>184.75</ele>
        <time>2019-12-08T13:14:23.000Z</time>
      </trkpt>
      <trkpt lat="43.60085" lon="6.78151">
        <ele>184.85</ele>
        <time>2019-12-08T13:14:24.000Z</time>
      </trkpt>
      <trkpt lat="43.60083" lon="6.78157">
        <ele>184.98</ele>
        <time>2019-12-08T13:14:25.000Z</time>
      </trkpt>
      <trkpt lat="43.6008" lon="6.78164">
        <ele>185.03</ele>
        <time>2019-12-08T13:14:26.000Z</time>
      </trkpt>
      <trkpt lat="43.60078" lon="6.7817">
        <ele>185.07</ele>
        <time>2019-12-08T13:14:27.000Z</time>
      </trkpt>
      <trkpt lat="43.60075" lon="6.78177">
        <ele>185.27</ele>
        <time>2019-12-08T13:14:28.000Z</time>
      </trkpt>
      <trkpt lat="43.60073" lon="6.78183">
        <ele>185.43</ele>
        <time>2019-12-08T13:14:29.000Z</time>
      </trkpt>
      <trkpt lat="43.60071" lon="6.7819">
        <ele>185.55</ele>
        <time>2019-12-08T13:14:30.000Z</time>
      </trkpt>
      <trkpt lat="43.60068" lon="6.78196">
        <ele>185.74</ele>
        <time>2019-12-08T13:14:31.000Z</time>
      </trkpt>
      <trkpt lat="43.60066" lon="6.78203">
        <ele>185.87</ele>
        <time>2019-12-08T13:14:32.000Z</time>
      </trkpt>
      <trkpt lat="43.60063" lon="6.78209">
        <ele>186.04</ele>
        <time>2019-12-08T13:14:33.000Z</time>
      </trkpt>
      <trkpt lat="43.60061" lon="6.78216">
        <ele>186.08</ele>
        <time>2019-12-08T13:14:34.000Z</time>
      </trkpt>
      <trkpt lat="43.60058" lon="6.78222">
        <ele>186.18</ele>
        <time>2019-12-08T13:14:35.000Z</time>
      </trkpt>
      <trkpt lat="43.60056" lon="6.78229">
        <ele>186.36</ele>
        <time>2019-12-08T13:14:36.000Z</time>
      </trkpt>
      <trkpt lat="43.60053" lon="6.78235">
        <ele>186.48</ele>
        <time>2019-12-08T13:14:37.000Z</time>
      </trkpt>
      <trkpt lat="43.60051" lon="6.78242">
        <ele>186.54</ele>
        <time>2019-12-08T13:14:38.000Z</time>
      </trkpt>
      <trkpt lat="43.60049" lon="6.78248">
        <ele>186.8</ele>
        <time>2019-12-08T13:14:39.000Z</time>
      </trkpt>
      <trkpt lat="43.60046" lon="6.78255">
        <ele>187</ele>
        <time>2019-12-08T13:14:40.000Z</time>
      </trkpt>
      <trkpt lat="43.60044" lon="6.78261">
        <ele>187.24</ele>
        <time>2019-12-08T13:14:41.000Z</time>
      </trkpt>
      <trkpt lat="43.60041" lon="6.78268">
        <ele>187.54</ele>
        <time>2019-12-08T13:14:42.000Z</time>
      </trkpt>
      <trkpt lat="43.60039" lon="6.78275">
        <ele>187.66</ele>
        <time>2019-12-08T13:14:43.000Z</time>
      </trkpt>
      <trkpt lat="43.60036" lon="6.78281">
        <ele>187.83</ele>
        <time>2019-12-08T13:14:44.000Z</time>
      </trkpt>
      <trkpt lat="43.60034" lon="6.78287">
        <ele>188.09</ele>
        <time>2019-12-08T13:14:45.000Z</time>
      </trkpt>
      <trkpt lat="43.60032" lon="6.78294">
        <ele>188.21</ele>
        <time>2019-12-08T13:14:46.000Z</time>
      </trkpt>
      <trkpt lat="43.60029" lon="6.783">
        <ele>188.31</ele>
        <time>2019-12-08T13:14:47.000Z</time>
      </trkpt>
      <trkpt lat="43.60026" lon="6.78306">
        <ele>188.49</ele>
        <time>2019-12-08T13:14:48.000Z</time>
      </trkpt>
      <trkpt lat="43.60024" lon="6.78312">
        <ele>188.63</ele>
        <time>2019-12-08T13:14:49.000Z</time>
      </trkpt>
      <trkpt lat="43.60022" lon="6.78318">
        <ele>188.78</ele>
        <time>2019-12-08T13:14:50.000Z</time>
      </trkpt>
      <trkpt lat="43.6002" lon="6.78324">
        <ele>188.9</ele>
        <time>2019-12-08T13:14:51.000Z</time>
      </trkpt>
      <trkpt lat="43.60018" lon="6.7833">
        <ele>189.11</ele>
        <time>2019-12-08T13:14:52.000Z</time>
      </trkpt>
      <trkpt lat="43.60015" lon="6.78336">
        <ele>189.36</ele>
        <time>2019-12-08T13:14:53.000Z</time>
      </trkpt>
      <trkpt lat="43.60013" lon="6.78342">
        <ele>189.58</ele>
        <time>2019-12-08T13:14:54.000Z</time>
      </trkpt>
      <trkpt lat="43.60011" lon="6.78348">
        <ele>189.68</ele>
        <time>2019-12-08T13:14:55.000Z</time>
      </trkpt>
      <trkpt lat="43.60008" lon="6.78353">
        <ele>189.87</ele>
        <time>2019-12-08T13:14:56.000Z</time>
      </trkpt>
      <trkpt lat="43.60006" lon="6.78359">
        <ele>190.09</ele>
        <time>2019-12-08T13:14:57.000Z</time>
      </trkpt>
      <trkpt lat="43.60004" lon="6.78365">
        <ele>190.33</ele>
        <time>2019-12-08T13:14:58.000Z</time>
      </trkpt>
      <trkpt lat="43.60002" lon="6.78371">
        <ele>190.48</ele>
        <time>2019-12-08T13:14:59.000Z</time>
      </trkpt>
      <trkpt lat="43.6" lon="6.78376">
        <ele>190.78</ele>
        <time>2019-12-08T13:15:00.000Z</time>
      </trkpt>
      <trkpt lat="43.59998" lon="6.78382">
        <ele>191.09</ele>
        <time>2019-12-08T13:15:01.000Z</time>
      </trkpt>
      <trkpt lat="43.59996" lon="6.78388">
        <ele>191.43</ele>
        <time>2019-12-08T13:15:02.000Z</time>
      </trkpt>
      <trkpt lat="43.59994" lon="6.78393">
        <ele>191.55</ele>
        <time>2019-12-08T13:15:03.000Z</time>
      </trkpt>
      <trkpt lat="43.59992" lon="6.78398">
        <ele>191.82</ele>
        <time>2019-12-08T13:15:04.000Z</time>
      </trkpt>
      <trkpt lat="43.5999" lon="6.78404">
        <ele>192.07</ele>
        <time>2019-12-08T13:15:05.000Z</time>
      </trkpt>
      <trkpt lat="43.59988" lon="6.78409">
        <ele>192.26</ele>
        <time>2019-12-08T13:15:06.000Z</time>
      </trkpt>
      <trkpt lat="43.59986" lon="6.78415">
        <ele>192.36</ele>
        <time>2019-12-08T13:15:07.000Z</time>
      </trkpt>
      <trkpt lat="43.59984" lon="6.7842">
        <ele>192.63</ele>
        <time>2019-12-08T13:15:08.000Z</time>
      </trkpt>
      <trkpt lat="43.59982" lon="6.78426">
        <ele>192.89</ele>
        <time>2019-12-08T13:15:09.000Z</time>
      </trkpt>
      <trkpt lat="43.5998" lon="6.78431">
        <ele>193.13</ele>
        <time>2019-12-08T13:15:10.000Z</time>
      </trkpt>
      <trkpt lat="43.59978" lon="6.78436">
        <ele>193.27</ele>
        <time>2019-12-08T13:15:11.000Z</time>
      </trkpt>
      <trkpt lat="43.59976" lon="6.78441">
        <ele>193.53</ele>
        <time>2019-12-08T13:15:12.000Z</time>
      </trkpt>
      <trkpt lat="43.59974" lon="6.78446">
        <ele>193.77</ele>
        <time>2019-12-08T13:15:13.000Z</time>
      </trkpt>
      <trkpt lat="43.59973" lon="6.78451">
        <ele>193.98</ele>
        <time>2019-12-08T13:15:14.000Z</time>
      </trkpt>
      <trkpt lat="43.59971" lon="6.78456">
        <ele>194.3</ele>
        <time>2019-12-08T13:15:15.000Z</time>
      </trkpt>
      <trkpt lat="43.59969" lon="6.7846">
        <ele>194.45</ele>
        <time>2019-12-08T13:15:16.000Z</time>
      </trkpt>
      <trkpt lat="43.59967" lon="6.78465">
        <ele>194.7</ele>
        <time>2019-12-08T13:15:17.000Z</time>
      </trkpt>
      <trkpt lat="43.59965" lon="6.78469">
        <ele>195.07</ele>
        <time>2019-12-08T13:15:18.000Z</time>
      </trkpt>
      <trkpt lat="43.59963" lon="6.78474">
        <ele>195.24</ele>
        <time>2019-12-08T13:15:19.000Z</time>
      </trkpt>
      <trkpt lat="43.59961" lon="6.78478">
        <ele>195.51</ele>
        <time>2019-12-08T13:15:20.000Z</time>
      </trkpt>
      <trkpt lat="43.59959" lon="6.78483">
        <ele>195.82</ele>
        <time>2019-12-08T13:15:21.000Z</time>
      </trkpt>
      <trkpt lat="43.59957" lon="6.78488">
        <ele>196.08</ele>
        <time>2019-12-08T13:15:22.000Z</time>
      </trkpt>
      <trkpt lat="43.59955" lon="6.78492">
        <ele>196.44</ele>
        <time>2019-12-08T13:15:23.000Z</time>
      </trkpt>
      <trkpt lat="43.59954" lon="6.78497">
        <ele>196.6</ele>
        <time>2019-12-08T13:15:24.000Z</time>
      </trkpt>
      <trkpt lat="43.59952" lon="6.78502">
        <ele>196.93</ele>
        <time>2019-12-08T13:15:25.000Z</time>
      </trkpt>
      <trkpt lat="43.5995" lon="6.78507">
        <ele>197.25</ele>
        <time>2019-12-08T13:15:26.000Z</time>
      </trkpt>
      <trkpt lat="43.59948" lon="6.78511">
        <ele>197.53</ele>
        <time>2019-12-08T13:15:27.000Z</time>
      </trkpt>
      <trkpt lat="43.59946" lon="6.78516">
        <ele>197.64</ele>
        <time>2019-12-08T13:15:28.000Z</time>
      </trkpt>
      <trkpt lat="43.59944" lon="6.7852">
        <ele>197.88</ele>
        <time>2019-12-08T13:15:29.000Z</time>
      </trkpt>
      <trkpt lat="43.59942" lon="6.78525">
        <ele>198.21</ele>
        <time>2019-12-08T13:15:30.000Z</time>
      </trkpt>
      <trkpt lat="43.5994" lon="6.7853">
        <ele>198.51</ele>
        <time>2019-12-08T13:15:31.000Z</time>
      </trkpt>
      <trkpt lat="43.59938" lon="6.78534">
        <ele>198.65</ele>
        <time>2019-12-08T13:15:32.000Z</time>
      </trkpt>
      <trkpt lat="43.59936" lon="6.78539">
        <ele>198.94</ele>
        <time>2019-12-08T13:15:33.000Z</time>
      </trkpt>
      <trkpt lat="43.59934" lon="6.78544">
        <ele>199.16</ele>
        <time>2019-12-08T13:15:34.000Z</time>
      </trkpt>
      <trkpt lat="43.59931" lon="6.78548">
        <ele>199.42</ele>
        <time>2019-12-08T13:15:35.000Z</time>
      </trkpt>
      <trkpt lat="43.59929" lon="6.78553">
        <ele>199.52</ele>
        <time>2019-12-08T13:15:36.000Z</time>
      </trkpt>
      <trkpt lat="43.59926" lon="6.78556">
        <ele>199.79</ele>
        <time>2019-12-08T13:15:37.000Z</time>
      </trkpt>
      <trkpt lat="43.59922" lon="6.78559">
        <ele>200.05</ele>
        <time>2019-12-08T13:15:38.000Z</time>
      </trkpt>
      <trkpt lat="43.59918" lon="6.78561">
        <ele>200.23</ele>
        <time>2019-12-08T13:15:39.000Z</time>
      </trkpt>
      <trkpt lat="43.59914" lon="6.78562">
        <ele>200.34</ele>
        <time>2019-12-08T13:15:40.000Z</time>
      </trkpt>
      <trkpt lat="43.5991" lon="6.78564">
        <ele>200.48</ele>
        <time>2019-12-08T13:15:41.000Z</time>
      </trkpt>
      <trkpt lat="43.59906" lon="6.78566">
        <ele>200.48</ele>
        <time>2019-12-08T13:15:42.000Z</time>
      </trkpt>
      <trkpt lat="43.59902" lon="6.78569">
        <ele>200.59</ele>
        <time>2019-12-08T13:15:43.000Z</time>
      </trkpt>
      <trkpt lat="43.59899" lon="6.78573">
        <ele>200.62</ele>
        <time>2019-12-08T13:15:44.000Z</time>
      </trkpt>
      <trkpt lat="43.59897" lon="6.78578">
        <ele>200.75</ele>
        <time>2019-12-08T13:15:45.000Z</time>
      </trkpt>
      <trkpt lat="43.59894" lon="6.78582">
        <ele>200.9</ele>
        <time>2019-12-08T13:15:46.000Z</time>
      </trkpt>
      <trkpt lat="43.59891" lon="6.78586">
        <ele>201.16</ele>
        <time>2019-12-08T13:15:47.000Z</time>
      </trkpt>
      <trkpt lat="43.59888" lon="6.7859">
        <ele>201.29</ele>
        <time>2019-12-08T13:15:48.000Z</time>
      </trkpt>
      <trkpt lat="43.59884" lon="6.78592">
        <ele>201.51</ele>
        <time>2019-12-08T13:15:49.000Z</time>
      </trkpt>
      <trkpt lat="43.5988" lon="6.78594">
        <ele>201.51</ele>
        <time>2019-12-08T13:15:50.000Z</time>
      </trkpt>
      <trkpt lat="43.59875" lon="6.78595">
        <ele>201.74</ele>
        <time>2019-12-08T13:15:51.000Z</time>
      </trkpt>
      <trkpt lat="43.59871" lon="6.78596">
        <ele>201.89</ele>
        <time>2019-12-08T13:15:52.000Z</time>
      </trkpt>
      <trkpt lat="43.59866" lon="6.78596">
        <ele>201.88</ele>
        <time>2019-12-08T13:15:53.000Z</time>
      </trkpt>
      <trkpt lat="43.59861" lon="6.78596">
        <ele>201.91</ele>
        <time>2019-12-08T13:15:54.000Z</time>
      </trkpt>
      <trkpt lat="43.59856" lon="6.78596">
        <ele>201.91</ele>
        <time>2019-12-08T13:15:55.000Z</time>
      </trkpt>
      <trkpt lat="43.5985" lon="6.78596">
        <ele>201.87</ele>
        <time>2019-12-08T13:15:56.000Z</time>
      </trkpt>
      <trkpt lat="43.59845" lon="6.78596">
        <ele>201.79</ele>
        <time>2019-12-08T13:15:57.000Z</time>
      </trkpt>
      <trkpt lat="43.59839" lon="6.78596">
        <ele>201.71</ele>
        <time>2019-12-08T13:15:58.000Z</time>
      </trkpt>
      <trkpt lat="43.59833" lon="6.78597">
        <ele>201.6</ele>
        <time>2019-12-08T13:15:59.000Z</time>
      </trkpt>
      <trkpt lat="43.59827" lon="6.78598">
        <ele>201.48</ele>
        <time>2019-12-08T13:16:00.000Z</time>
      </trkpt>
      <trkpt lat="43.59821" lon="6.786">
        <ele>201.41</ele>
        <time>2019-12-08T13:16:01.000Z</time>
      </trkpt>
      <trkpt lat="43.59815" lon="6.78601">
        <ele>201.28</ele>
        <time>2019-12-08T13:16:02.000Z</time>
      </trkpt>
      <trkpt lat="43.59808" lon="6.78604">
        <ele>201.11</ele>
        <time>2019-12-08T13:16:03.000Z</time>
      </trkpt>
      <trkpt lat="43.59802" lon="6.78606">
        <ele>200.93</ele>
        <time>2019-12-08T13:16:04.000Z</time>
      </trkpt>
      <trkpt lat="43.59795" lon="6.78609">
        <ele>200.81</ele>
        <time>2019-12-08T13:16:05.000Z</time>
      </trkpt>
      <trkpt lat="43.59789" lon="6.78613">
        <ele>200.62</ele>
        <time>2019-12-08T13:16:06.000Z</time>
      </trkpt>
      <trkpt lat="43.59783" lon="6.78617">
        <ele>200.44</ele>
        <time>2019-12-08T13:16:07.000Z</time>
      </trkpt>
      <trkpt lat="43.59777" lon="6.78621">
        <ele>200.35</ele>
        <time>2019-12-08T13:16:08.000Z</time>
      </trkpt>
      <trkpt lat="43.59771" lon="6.78625">
        <ele>200.32</ele>
        <time>2019-12-08T13:16:09.000Z</time>
      </trkpt>
      <trkpt lat="43.59765" lon="6.7863">
        <ele>200.38</ele>
        <time>2019-12-08T13:16:10.000Z</time>
      </trkpt>
      <trkpt lat="43.5976" lon="6.78634">
        <ele>200.55</ele>
        <time>2019-12-08T13:16:11.000Z</time>
      </trkpt>
      <trkpt lat="43.59755" lon="6.78639">
        <ele>200.9</ele>
        <time>2019-12-08T13:16:12.000Z</time>
      </trkpt>
      <trkpt lat="43.5975" lon="6.78644">
        <ele>201.09</ele>
        <time>2019-12-08T13:16:13.000Z</time>
      </trkpt>
      <trkpt lat="43.59746" lon="6.78649">
        <ele>201.37</ele>
        <time>2019-12-08T13:16:14.000Z</time>
      </trkpt>
      <trkpt lat="43.59742" lon="6.78654">
        <ele>201.47</ele>
        <time>2019-12-08T13:16:15.000Z</time>
      </trkpt>
      <trkpt lat="43.59737" lon="6.78658">
        <ele>201.64</ele>
        <time>2019-12-08T13:16:16.000Z</time>
      </trkpt>
      <trkpt lat="43.59733" lon="6.78662">
        <ele>201.69</ele>
        <time>2019-12-08T13:16:17.000Z</time>
      </trkpt>
      <trkpt lat="43.59729" lon="6.78667">
        <ele>201.77</ele>
        <time>2019-12-08T13:16:18.000Z</time>
      </trkpt>
      <trkpt lat="43.59725" lon="6.78672">
        <ele>201.98</ele>
        <time>2019-12-08T13:16:19.000Z</time>
      </trkpt>
      <trkpt lat="43.59721" lon="6.78676">
        <ele>202.22</ele>
        <time>2019-12-08T13:16:20.000Z</time>
      </trkpt>
      <trkpt lat="43.59717" lon="6.78681">
        <ele>202.28</ele>
        <time>2019-12-08T13:16:21.000Z</time>
      </trkpt>
      <trkpt lat="43.59713" lon="6.78686">
        <ele>202.51</ele>
        <time>2019-12-08T13:16:22.000Z</time>
      </trkpt>
      <trkpt lat="43.59708" lon="6.78691">
        <ele>202.75</ele>
        <time>2019-12-08T13:16:23.000Z</time>
      </trkpt>
      <trkpt lat="43.59704" lon="6.78696">
        <ele>202.88</ele>
        <time>2019-12-08T13:16:24.000Z</time>
      </trkpt>
      <trkpt lat="43.597" lon="6.78701">
        <ele>202.89</ele>
        <time>2019-12-08T13:16:25.000Z</time>
      </trkpt>
      <trkpt lat="43.59695" lon="6.78706">
        <ele>203.02</ele>
        <time>2019-12-08T13:16:26.000Z</time>
      </trkpt>
      <trkpt lat="43.59691" lon="6.78711">
        <ele>203.09</ele>
        <time>2019-12-08T13:16:27.000Z</time>
      </trkpt>
      <trkpt lat="43.59687" lon="6.78716">
        <ele>203.22</ele>
        <time>2019-12-08T13:16:28.000Z</time>
      </trkpt>
      <trkpt lat="43.59683" lon="6.78722">
        <ele>203.28</ele>
        <time>2019-12-08T13:16:29.000Z</time>
      </trkpt>
      <trkpt lat="43.59679" lon="6.78727">
        <ele>203.47</ele>
        <time>2019-12-08T13:16:30.000Z</time>
      </trkpt>
      <trkpt lat="43.59674" lon="6.78732">
        <ele>203.63</ele>
        <time>2019-12-08T13:16:31.000Z</time>
      </trkpt>
      <trkpt lat="43.5967" lon="6.78737">
        <ele>203.76</ele>
        <time>2019-12-08T13:16:32.000Z</time>
      </trkpt>
      <trkpt lat="43.59666" lon="6.78742">
        <ele>203.88</ele>
        <time>2019-12-08T13:16:33.000Z</time>
      </trkpt>
      <trkpt lat="43.59662" lon="6.78747">
        <ele>204.07</ele>
        <time>2019-12-08T13:16:34.000Z</time>
      </trkpt>
      <trkpt lat="43.59658" lon="6.78752">
        <ele>204.19</ele>
        <time>2019-12-08T13:16:35.000Z</time>
      </trkpt>
      <trkpt lat="43.59653" lon="6.78757">
        <ele>204.31</ele>
        <time>2019-12-08T13:16:36.000Z</time>
      </trkpt>
      <trkpt lat="43.59649" lon="6.78762">
        <ele>204.43</ele>
        <time>2019-12-08T13:16:37.000Z</time>
      </trkpt>
      <trkpt lat="43.59645" lon="6.78766">
        <ele>204.47</ele>
        <time>2019-12-08T13:16:38.000Z</time>
      </trkpt>
      <trkpt lat="43.59641" lon="6.78771">
        <ele>204.69</ele>
        <time>2019-12-08T13:16:39.000Z</time>
      </trkpt>
      <trkpt lat="43.59636" lon="6.78776">
        <ele>204.92</ele>
        <time>2019-12-08T13:16:40.000Z</time>
      </trkpt>
      <trkpt lat="43.59632" lon="6.7878">
        <ele>205.04</ele>
        <time>2019-12-08T13:16:41.000Z</time>
      </trkpt>
      <trkpt lat="43.59627" lon="6.78784">
        <ele>205.18</ele>
        <time>2019-12-08T13:16:42.000Z</time>
      </trkpt>
      <trkpt lat="43.59622" lon="6.78789">
        <ele>205.27</ele>
        <time>2019-12-08T13:16:43.000Z</time>
      </trkpt>
      <trkpt lat="43.59618" lon="6.78793">
        <ele>205.34</ele>
        <time>2019-12-08T13:16:44.000Z</time>
      </trkpt>
      <trkpt lat="43.59613" lon="6.78797">
        <ele>205.37</ele>
        <time>2019-12-08T13:16:45.000Z</time>
      </trkpt>
      <trkpt lat="43.59608" lon="6.78801">
        <ele>205.39</ele>
        <time>2019-12-08T13:16:46.000Z</time>
      </trkpt>
      <trkpt lat="43.59603" lon="6.78806">
        <ele>205.42</ele>
        <time>2019-12-08T13:16:47.000Z</time>
      </trkpt>
      <trkpt lat="43.59598" lon="6.7881">
        <ele>205.45</ele>
        <time>2019-12-08T13:16:48.000Z</time>
      </trkpt>
      <trkpt lat="43.59594" lon="6.78815">
        <ele>205.51</ele>
        <time>2019-12-08T13:16:49.000Z</time>
      </trkpt>
      <trkpt lat="43.5959" lon="6.78821">
        <ele>205.55</ele>
        <time>2019-12-08T13:16:50.000Z</time>
      </trkpt>
      <trkpt lat="43.59587" lon="6.78828">
        <ele>205.55</ele>
        <time>2019-12-08T13:16:51.000Z</time>
      </trkpt>
      <trkpt lat="43.59585" lon="6.78836">
        <ele>205.7</ele>
        <time>2019-12-08T13:16:52.000Z</time>
      </trkpt>
      <trkpt lat="43.59583" lon="6.78843">
        <ele>205.83</ele>
        <time>2019-12-08T13:16:53.000Z</time>
      </trkpt>
      <trkpt lat="43.59582" lon="6.78851">
        <ele>205.84</ele>
        <time>2019-12-08T13:16:54.000Z</time>
      </trkpt>
      <trkpt lat="43.5958" lon="6.7886">
        <ele>205.83</ele>
        <time>2019-12-08T13:16:55.000Z</time>
      </trkpt>
      <trkpt lat="43.59571" lon="6.78877">
        <ele>205.43</ele>
        <time>2019-12-08T13:16:57.000Z</time>
      </trkpt>
      <trkpt lat="43.59563" lon="6.7888">
        <ele>205.25</ele>
        <time>2019-12-08T13:16:58.000Z</time>
      </trkpt>
      <trkpt lat="43.59555" lon="6.78883">
        <ele>204.76</ele>
        <time>2019-12-08T13:16:59.000Z</time>
      </trkpt>
      <trkpt lat="43.59546" lon="6.78884">
        <ele>204.27</ele>
        <time>2019-12-08T13:17:00.000Z</time>
      </trkpt>
      <trkpt lat="43.59538" lon="6.78885">
        <ele>203.72</ele>
        <time>2019-12-08T13:17:01.000Z</time>
      </trkpt>
      <trkpt lat="43.59529" lon="6.78887">
        <ele>203.45</ele>
        <time>2019-12-08T13:17:02.000Z</time>
      </trkpt>
      <trkpt lat="43.5952" lon="6.7889">
        <ele>202.91</ele>
        <time>2019-12-08T13:17:03.000Z</time>
      </trkpt>
      <trkpt lat="43.5951" lon="6.78893">
        <ele>202.32</ele>
        <time>2019-12-08T13:17:04.000Z</time>
      </trkpt>
      <trkpt lat="43.595" lon="6.78897">
        <ele>201.52</ele>
        <time>2019-12-08T13:17:05.000Z</time>
      </trkpt>
      <trkpt lat="43.5949" lon="6.78901">
        <ele>201.2</ele>
        <time>2019-12-08T13:17:06.000Z</time>
      </trkpt>
      <trkpt lat="43.5948" lon="6.78904">
        <ele>200.58</ele>
        <time>2019-12-08T13:17:07.000Z</time>
      </trkpt>
      <trkpt lat="43.5947" lon="6.78908">
        <ele>199.89</ele>
        <time>2019-12-08T13:17:08.000Z</time>
      </trkpt>
      <trkpt lat="43.59459" lon="6.78912">
        <ele>199.25</ele>
        <time>2019-12-08T13:17:09.000Z</time>
      </trkpt>
      <trkpt lat="43.59449" lon="6.78915">
        <ele>198.94</ele>
        <time>2019-12-08T13:17:10.000Z</time>
      </trkpt>
      <trkpt lat="43.59438" lon="6.7892">
        <ele>198.1</ele>
        <time>2019-12-08T13:17:11.000Z</time>
      </trkpt>
      <trkpt lat="43.59428" lon="6.78925">
        <ele>197.16</ele>
        <time>2019-12-08T13:17:12.000Z</time>
      </trkpt>
      <trkpt lat="43.59417" lon="6.78931">
        <ele>196.35</ele>
        <time>2019-12-08T13:17:13.000Z</time>
      </trkpt>
      <trkpt lat="43.59407" lon="6.78938">
        <ele>195.52</ele>
        <time>2019-12-08T13:17:14.000Z</time>
      </trkpt>
      <trkpt lat="43.59397" lon="6.78944">
        <ele>195.1</ele>
        <time>2019-12-08T13:17:15.000Z</time>
      </trkpt>
      <trkpt lat="43.59385" lon="6.78949">
        <ele>194.24</ele>
        <time>2019-12-08T13:17:16.000Z</time>
      </trkpt>
      <trkpt lat="43.59374" lon="6.78951">
        <ele>193.4</ele>
        <time>2019-12-08T13:17:17.000Z</time>
      </trkpt>
      <trkpt lat="43.59362" lon="6.78952">
        <ele>192.43</ele>
        <time>2019-12-08T13:17:18.000Z</time>
      </trkpt>
      <trkpt lat="43.5935" lon="6.78953">
        <ele>191.94</ele>
        <time>2019-12-08T13:17:19.000Z</time>
      </trkpt>
      <trkpt lat="43.59338" lon="6.78953">
        <ele>191.07</ele>
        <time>2019-12-08T13:17:20.000Z</time>
      </trkpt>
      <trkpt lat="43.59326" lon="6.78953">
        <ele>190.2</ele>
        <time>2019-12-08T13:17:21.000Z</time>
      </trkpt>
      <trkpt lat="43.59314" lon="6.78953">
        <ele>189.33</ele>
        <time>2019-12-08T13:17:22.000Z</time>
      </trkpt>
      <trkpt lat="43.59302" lon="6.78953">
        <ele>188.92</ele>
        <time>2019-12-08T13:17:23.000Z</time>
      </trkpt>
      <trkpt lat="43.5929" lon="6.78953">
        <ele>187.95</ele>
        <time>2019-12-08T13:17:24.000Z</time>
      </trkpt>
      <trkpt lat="43.59278" lon="6.78953">
        <ele>187.05</ele>
        <time>2019-12-08T13:17:25.000Z</time>
      </trkpt>
      <trkpt lat="43.59266" lon="6.7895">
        <ele>186.03</ele>
        <time>2019-12-08T13:17:26.000Z</time>
      </trkpt>
      <trkpt lat="43.59254" lon="6.78945">
        <ele>185.54</ele>
        <time>2019-12-08T13:17:27.000Z</time>
      </trkpt>
      <trkpt lat="43.59243" lon="6.78938">
        <ele>184.56</ele>
        <time>2019-12-08T13:17:28.000Z</time>
      </trkpt>
      <trkpt lat="43.59233" lon="6.7893">
        <ele>183.63</ele>
        <time>2019-12-08T13:17:29.000Z</time>
      </trkpt>
      <trkpt lat="43.59222" lon="6.78922">
        <ele>182.64</ele>
        <time>2019-12-08T13:17:30.000Z</time>
      </trkpt>
      <trkpt lat="43.5921" lon="6.78916">
        <ele>182.15</ele>
        <time>2019-12-08T13:17:31.000Z</time>
      </trkpt>
      <trkpt lat="43.59199" lon="6.78913">
        <ele>181.23</ele>
        <time>2019-12-08T13:17:32.000Z</time>
      </trkpt>
      <trkpt lat="43.59187" lon="6.78911">
        <ele>180.39</ele>
        <time>2019-12-08T13:17:33.000Z</time>
      </trkpt>
      <trkpt lat="43.59175" lon="6.7891">
        <ele>179.5</ele>
        <time>2019-12-08T13:17:34.000Z</time>
      </trkpt>
      <trkpt lat="43.59162" lon="6.78911">
        <ele>179.08</ele>
        <time>2019-12-08T13:17:35.000Z</time>
      </trkpt>
      <trkpt lat="43.5915" lon="6.78913">
        <ele>178.18</ele>
        <time>2019-12-08T13:17:36.000Z</time>
      </trkpt>
      <trkpt lat="43.59138" lon="6.78916">
        <ele>177.28</ele>
        <time>2019-12-08T13:17:37.000Z</time>
      </trkpt>
      <trkpt lat="43.59126" lon="6.78922">
        <ele>176.35</ele>
        <time>2019-12-08T13:17:38.000Z</time>
      </trkpt>
      <trkpt lat="43.59114" lon="6.78929">
        <ele>175.92</ele>
        <time>2019-12-08T13:17:39.000Z</time>
      </trkpt>
      <trkpt lat="43.59102" lon="6.78935">
        <ele>175.11</ele>
        <time>2019-12-08T13:17:40.000Z</time>
      </trkpt>
      <trkpt lat="43.59089" lon="6.7894">
        <ele>174.24</ele>
        <time>2019-12-08T13:17:41.000Z</time>
      </trkpt>
      <trkpt lat="43.59076" lon="6.78944">
        <ele>173.42</ele>
        <time>2019-12-08T13:17:42.000Z</time>
      </trkpt>
      <trkpt lat="43.59063" lon="6.78946">
        <ele>172.96</ele>
        <time>2019-12-08T13:17:43.000Z</time>
      </trkpt>
      <trkpt lat="43.5905" lon="6.78947">
        <ele>172.02</ele>
        <time>2019-12-08T13:17:44.000Z</time>
      </trkpt>
      <trkpt lat="43.59037" lon="6.78947">
        <ele>171.03</ele>
        <time>2019-12-08T13:17:45.000Z</time>
      </trkpt>
      <trkpt lat="43.59024" lon="6.78947">
        <ele>170.02</ele>
        <time>2019-12-08T13:17:46.000Z</time>
      </trkpt>
      <trkpt lat="43.59011" lon="6.78947">
        <ele>168.93</ele>
        <time>2019-12-08T13:17:47.000Z</time>
      </trkpt>
      <trkpt lat="43.58998" lon="6.78949">
        <ele>168.93</ele>
        <time>2019-12-08T13:17:48.000Z</time>
      </trkpt>
      <trkpt lat="43.58986" lon="6.78952">
        <ele>167.86</ele>
        <time>2019-12-08T13:17:49.000Z</time>
      </trkpt>
      <trkpt lat="43.58974" lon="6.78956">
        <ele>166.86</ele>
        <time>2019-12-08T13:17:50.000Z</time>
      </trkpt>
      <trkpt lat="43.58962" lon="6.78962">
        <ele>166.43</ele>
        <time>2019-12-08T13:17:51.000Z</time>
      </trkpt>
      <trkpt lat="43.58951" lon="6.78969">
        <ele>165.61</ele>
        <time>2019-12-08T13:17:52.000Z</time>
      </trkpt>
      <trkpt lat="43.5894" lon="6.78976">
        <ele>164.75</ele>
        <time>2019-12-08T13:17:53.000Z</time>
      </trkpt>
      <trkpt lat="43.58929" lon="6.78985">
        <ele>163.94</ele>
        <time>2019-12-08T13:17:54.000Z</time>
      </trkpt>
      <trkpt lat="43.5892" lon="6.78994">
        <ele>163.26</ele>
        <time>2019-12-08T13:17:55.000Z</time>
      </trkpt>
      <trkpt lat="43.5891" lon="6.79003">
        <ele>162.95</ele>
        <time>2019-12-08T13:17:56.000Z</time>
      </trkpt>
      <trkpt lat="43.58901" lon="6.79012">
        <ele>162.62</ele>
        <time>2019-12-08T13:17:57.000Z</time>
      </trkpt>
      <trkpt lat="43.58892" lon="6.79021">
        <ele>162.6</ele>
        <time>2019-12-08T13:17:58.000Z</time>
      </trkpt>
      <trkpt lat="43.58884" lon="6.79029">
        <ele>162.75</ele>
        <time>2019-12-08T13:17:59.000Z</time>
      </trkpt>
      <trkpt lat="43.58876" lon="6.79037">
        <ele>162.86</ele>
        <time>2019-12-08T13:18:00.000Z</time>
      </trkpt>
      <trkpt lat="43.58868" lon="6.79042">
        <ele>163.1</ele>
        <time>2019-12-08T13:18:01.000Z</time>
      </trkpt>
      <trkpt lat="43.5886" lon="6.79047">
        <ele>163.42</ele>
        <time>2019-12-08T13:18:02.000Z</time>
      </trkpt>
      <trkpt lat="43.58852" lon="6.7905">
        <ele>163.78</ele>
        <time>2019-12-08T13:18:03.000Z</time>
      </trkpt>
      <trkpt lat="43.58845" lon="6.79052">
        <ele>163.96</ele>
        <time>2019-12-08T13:18:04.000Z</time>
      </trkpt>
      <trkpt lat="43.58838" lon="6.79053">
        <ele>164.32</ele>
        <time>2019-12-08T13:18:05.000Z</time>
      </trkpt>
      <trkpt lat="43.58831" lon="6.79054">
        <ele>164.75</ele>
        <time>2019-12-08T13:18:06.000Z</time>
      </trkpt>
      <trkpt lat="43.58825" lon="6.79056">
        <ele>165.06</ele>
        <time>2019-12-08T13:18:07.000Z</time>
      </trkpt>
      <trkpt lat="43.58819" lon="6.79058">
        <ele>165.24</ele>
        <time>2019-12-08T13:18:08.000Z</time>
      </trkpt>
      <trkpt lat="43.58813" lon="6.7906">
        <ele>165.66</ele>
        <time>2019-12-08T13:18:09.000Z</time>
      </trkpt>
      <trkpt lat="43.58809" lon="6.79063">
        <ele>166.07</ele>
        <time>2019-12-08T13:18:10.000Z</time>
      </trkpt>
      <trkpt lat="43.58804" lon="6.79067">
        <ele>166.5</ele>
        <time>2019-12-08T13:18:11.000Z</time>
      </trkpt>
      <trkpt lat="43.588" lon="6.79072">
        <ele>166.67</ele>
        <time>2019-12-08T13:18:12.000Z</time>
      </trkpt>
      <trkpt lat="43.58797" lon="6.79077">
        <ele>167.12</ele>
        <time>2019-12-08T13:18:13.000Z</time>
      </trkpt>
      <trkpt lat="43.58794" lon="6.79082">
        <ele>167.39</ele>
        <time>2019-12-08T13:18:14.000Z</time>
      </trkpt>
      <trkpt lat="43.58791" lon="6.79088">
        <ele>167.66</ele>
        <time>2019-12-08T13:18:15.000Z</time>
      </trkpt>
      <trkpt lat="43.58789" lon="6.79094">
        <ele>167.88</ele>
        <time>2019-12-08T13:18:16.000Z</time>
      </trkpt>
      <trkpt lat="43.58788" lon="6.79101">
        <ele>167.96</ele>
        <time>2019-12-08T13:18:17.000Z</time>
      </trkpt>
      <trkpt lat="43.58787" lon="6.79107">
        <ele>168.09</ele>
        <time>2019-12-08T13:18:18.000Z</time>
      </trkpt>
      <trkpt lat="43.58786" lon="6.79114">
        <ele>168.29</ele>
        <time>2019-12-08T13:18:19.000Z</time>
      </trkpt>
      <trkpt lat="43.58786" lon="6.7912">
        <ele>168.41</ele>
        <time>2019-12-08T13:18:20.000Z</time>
      </trkpt>
      <trkpt lat="43.58786" lon="6.79127">
        <ele>168.66</ele>
        <time>2019-12-08T13:18:21.000Z</time>
      </trkpt>
      <trkpt lat="43.58787" lon="6.79134">
        <ele>168.95</ele>
        <time>2019-12-08T13:18:22.000Z</time>
      </trkpt>
      <trkpt lat="43.58788" lon="6.7914">
        <ele>169.31</ele>
        <time>2019-12-08T13:18:23.000Z</time>
      </trkpt>
      <trkpt lat="43.58789" lon="6.79147">
        <ele>169.51</ele>
        <time>2019-12-08T13:18:24.000Z</time>
      </trkpt>
      <trkpt lat="43.5879" lon="6.79153">
        <ele>169.59</ele>
        <time>2019-12-08T13:18:25.000Z</time>
      </trkpt>
      <trkpt lat="43.58791" lon="6.7916">
        <ele>169.76</ele>
        <time>2019-12-08T13:18:26.000Z</time>
      </trkpt>
      <trkpt lat="43.58792" lon="6.79166">
        <ele>169.8</ele>
        <time>2019-12-08T13:18:27.000Z</time>
      </trkpt>
      <trkpt lat="43.58793" lon="6.79173">
        <ele>169.93</ele>
        <time>2019-12-08T13:18:28.000Z</time>
      </trkpt>
      <trkpt lat="43.58793" lon="6.7918">
        <ele>170.04</ele>
        <time>2019-12-08T13:18:29.000Z</time>
      </trkpt>
      <trkpt lat="43.58793" lon="6.79186">
        <ele>170.29</ele>
        <time>2019-12-08T13:18:30.000Z</time>
      </trkpt>
      <trkpt lat="43.58793" lon="6.79193">
        <ele>170.61</ele>
        <time>2019-12-08T13:18:31.000Z</time>
      </trkpt>
      <trkpt lat="43.58792" lon="6.79199">
        <ele>170.89</ele>
        <time>2019-12-08T13:18:32.000Z</time>
      </trkpt>
      <trkpt lat="43.58791" lon="6.79205">
        <ele>171.02</ele>
        <time>2019-12-08T13:18:33.000Z</time>
      </trkpt>
      <trkpt lat="43.58789" lon="6.79211">
        <ele>171.36</ele>
        <time>2019-12-08T13:18:34.000Z</time>
      </trkpt>
      <trkpt lat="43.58787" lon="6.79216">
        <ele>171.68</ele>
        <time>2019-12-08T13:18:35.000Z</time>
      </trkpt>
      <trkpt lat="43.58784" lon="6.79221">
        <ele>172.02</ele>
        <time>2019-12-08T13:18:36.000Z</time>
      </trkpt>
      <trkpt lat="43.58781" lon="6.79226">
        <ele>172.16</ele>
        <time>2019-12-08T13:18:37.000Z</time>
      </trkpt>
      <trkpt lat="43.58777" lon="6.7923">
        <ele>172.52</ele>
        <time>2019-12-08T13:18:38.000Z</time>
      </trkpt>
      <trkpt lat="43.58773" lon="6.79233">
        <ele>172.77</ele>
        <time>2019-12-08T13:18:39.000Z</time>
      </trkpt>
      <trkpt lat="43.58769" lon="6.79236">
        <ele>173.05</ele>
        <time>2019-12-08T13:18:40.000Z</time>
      </trkpt>
      <trkpt lat="43.58765" lon="6.79238">
        <ele>173.24</ele>
        <time>2019-12-08T13:18:41.000Z</time>
      </trkpt>
      <trkpt lat="43.5876" lon="6.79239">
        <ele>173.54</ele>
        <time>2019-12-08T13:18:42.000Z</time>
      </trkpt>
      <trkpt lat="43.58756" lon="6.7924">
        <ele>173.83</ele>
        <time>2019-12-08T13:18:43.000Z</time>
      </trkpt>
      <trkpt lat="43.58751" lon="6.7924">
        <ele>174.14</ele>
        <time>2019-12-08T13:18:44.000Z</time>
      </trkpt>
      <trkpt lat="43.58746" lon="6.79239">
        <ele>174.3</ele>
        <time>2019-12-08T13:18:45.000Z</time>
      </trkpt>
      <trkpt lat="43.58742" lon="6.79239">
        <ele>174.53</ele>
        <time>2019-12-08T13:18:46.000Z</time>
      </trkpt>
      <trkpt lat="43.58738" lon="6.79238">
        <ele>174.85</ele>
        <time>2019-12-08T13:18:47.000Z</time>
      </trkpt>
      <trkpt lat="43.58734" lon="6.79238">
        <ele>175.06</ele>
        <time>2019-12-08T13:18:48.000Z</time>
      </trkpt>
      <trkpt lat="43.5873" lon="6.79237">
        <ele>175.19</ele>
        <time>2019-12-08T13:18:49.000Z</time>
      </trkpt>
      <trkpt lat="43.58726" lon="6.79236">
        <ele>175.41</ele>
        <time>2019-12-08T13:18:50.000Z</time>
      </trkpt>
      <trkpt lat="43.58722" lon="6.79235">
        <ele>175.61</ele>
        <time>2019-12-08T13:18:51.000Z</time>
      </trkpt>
      <trkpt lat="43.58718" lon="6.79234">
        <ele>175.83</ele>
        <time>2019-12-08T13:18:52.000Z</time>
      </trkpt>
      <trkpt lat="43.58714" lon="6.79233">
        <ele>176</ele>
        <time>2019-12-08T13:18:53.000Z</time>
      </trkpt>
      <trkpt lat="43.58711" lon="6.79233">
        <ele>176.24</ele>
        <time>2019-12-08T13:18:54.000Z</time>
      </trkpt>
      <trkpt lat="43.58707" lon="6.79233">
        <ele>176.5</ele>
        <time>2019-12-08T13:18:55.000Z</time>
      </trkpt>
      <trkpt lat="43.58703" lon="6.79233">
        <ele>176.76</ele>
        <time>2019-12-08T13:18:56.000Z</time>
      </trkpt>
      <trkpt lat="43.58699" lon="6.79234">
        <ele>176.76</ele>
        <time>2019-12-08T13:18:57.000Z</time>
      </trkpt>
      <trkpt lat="43.58695" lon="6.79235">
        <ele>176.98</ele>
        <time>2019-12-08T13:18:58.000Z</time>
      </trkpt>
      <trkpt lat="43.58691" lon="6.79237">
        <ele>177.19</ele>
        <time>2019-12-08T13:18:59.000Z</time>
      </trkpt>
      <trkpt lat="43.58688" lon="6.79239">
        <ele>177.39</ele>
        <time>2019-12-08T13:19:00.000Z</time>
      </trkpt>
      <trkpt lat="43.58684" lon="6.79241">
        <ele>177.66</ele>
        <time>2019-12-08T13:19:01.000Z</time>
      </trkpt>
      <trkpt lat="43.58681" lon="6.79244">
        <ele>177.77</ele>
        <time>2019-12-08T13:19:02.000Z</time>
      </trkpt>
      <trkpt lat="43.58678" lon="6.79248">
        <ele>178.05</ele>
        <time>2019-12-08T13:19:03.000Z</time>
      </trkpt>
      <trkpt lat="43.58675" lon="6.79251">
        <ele>178.46</ele>
        <time>2019-12-08T13:19:04.000Z</time>
      </trkpt>
      <trkpt lat="43.58672" lon="6.79255">
        <ele>178.67</ele>
        <time>2019-12-08T13:19:05.000Z</time>
      </trkpt>
      <trkpt lat="43.5867" lon="6.7926">
        <ele>178.8</ele>
        <time>2019-12-08T13:19:06.000Z</time>
      </trkpt>
      <trkpt lat="43.58667" lon="6.79265">
        <ele>179.08</ele>
        <time>2019-12-08T13:19:07.000Z</time>
      </trkpt>
      <trkpt lat="43.58665" lon="6.7927">
        <ele>179.2</ele>
        <time>2019-12-08T13:19:08.000Z</time>
      </trkpt>
      <trkpt lat="43.58664" lon="6.79275">
        <ele>179.39</ele>
        <time>2019-12-08T13:19:09.000Z</time>
      </trkpt>
      <trkpt lat="43.58663" lon="6.79281">
        <ele>179.43</ele>
        <time>2019-12-08T13:19:10.000Z</time>
      </trkpt>
      <trkpt lat="43.58662" lon="6.79287">
        <ele>179.47</ele>
        <time>2019-12-08T13:19:11.000Z</time>
      </trkpt>
      <trkpt lat="43.58661" lon="6.79293">
        <ele>179.4</ele>
        <time>2019-12-08T13:19:12.000Z</time>
      </trkpt>
      <trkpt lat="43.58661" lon="6.793">
        <ele>179.38</ele>
        <time>2019-12-08T13:19:13.000Z</time>
      </trkpt>
      <trkpt lat="43.58661" lon="6.79307">
        <ele>179.3</ele>
        <time>2019-12-08T13:19:14.000Z</time>
      </trkpt>
      <trkpt lat="43.58661" lon="6.79314">
        <ele>179.21</ele>
        <time>2019-12-08T13:19:15.000Z</time>
      </trkpt>
      <trkpt lat="43.58662" lon="6.79322">
        <ele>179.25</ele>
        <time>2019-12-08T13:19:16.000Z</time>
      </trkpt>
      <trkpt lat="43.58663" lon="6.79329">
        <ele>179.33</ele>
        <time>2019-12-08T13:19:17.000Z</time>
      </trkpt>
      <trkpt lat="43.58663" lon="6.79337">
        <ele>179.39</ele>
        <time>2019-12-08T13:19:18.000Z</time>
      </trkpt>
      <trkpt lat="43.58664" lon="6.79344">
        <ele>179.51</ele>
        <time>2019-12-08T13:19:19.000Z</time>
      </trkpt>
      <trkpt lat="43.58664" lon="6.79352">
        <ele>179.69</ele>
        <time>2019-12-08T13:19:20.000Z</time>
      </trkpt>
      <trkpt lat="43.58664" lon="6.7936">
        <ele>179.78</ele>
        <time>2019-12-08T13:19:21.000Z</time>
      </trkpt>
      <trkpt lat="43.58664" lon="6.79367">
        <ele>179.88</ele>
        <time>2019-12-08T13:19:22.000Z</time>
      </trkpt>
      <trkpt lat="43.58663" lon="6.79375">
        <ele>180.06</ele>
        <time>2019-12-08T13:19:23.000Z</time>
      </trkpt>
      <trkpt lat="43.58662" lon="6.79383">
        <ele>180.15</ele>
        <time>2019-12-08T13:19:24.000Z</time>
      </trkpt>
      <trkpt lat="43.58661" lon="6.79391">
        <ele>180.23</ele>
        <time>2019-12-08T13:19:25.000Z</time>
      </trkpt>
      <trkpt lat="43.58659" lon="6.79399">
        <ele>180.3</ele>
        <time>2019-12-08T13:19:26.000Z</time>
      </trkpt>
      <trkpt lat="43.58656" lon="6.79406">
        <ele>180.44</ele>
        <time>2019-12-08T13:19:27.000Z</time>
      </trkpt>
      <trkpt lat="43.58652" lon="6.79413">
        <ele>180.57</ele>
        <time>2019-12-08T13:19:28.000Z</time>
      </trkpt>
      <trkpt lat="43.58648" lon="6.79419">
        <ele>180.74</ele>
        <time>2019-12-08T13:19:29.000Z</time>
      </trkpt>
      <trkpt lat="43.58644" lon="6.79425">
        <ele>180.8</ele>
        <time>2019-12-08T13:19:30.000Z</time>
      </trkpt>
      <trkpt lat="43.58639" lon="6.79429">
        <ele>180.79</ele>
        <time>2019-12-08T13:19:31.000Z</time>
      </trkpt>
      <trkpt lat="43.58633" lon="6.79433">
        <ele>180.79</ele>
        <time>2019-12-08T13:19:32.000Z</time>
      </trkpt>
      <trkpt lat="43.58628" lon="6.79437">
        <ele>180.77</ele>
        <time>2019-12-08T13:19:33.000Z</time>
      </trkpt>
      <trkpt lat="43.58622" lon="6.7944">
        <ele>180.7</ele>
        <time>2019-12-08T13:19:34.000Z</time>
      </trkpt>
      <trkpt lat="43.58616" lon="6.79444">
        <ele>180.67</ele>
        <time>2019-12-08T13:19:35.000Z</time>
      </trkpt>
      <trkpt lat="43.5861" lon="6.79448">
        <ele>180.55</ele>
        <time>2019-12-08T13:19:36.000Z</time>
      </trkpt>
      <trkpt lat="43.58604" lon="6.79452">
        <ele>180.41</ele>
        <time>2019-12-08T13:19:37.000Z</time>
      </trkpt>
      <trkpt lat="43.58598" lon="6.79457">
        <ele>180.29</ele>
        <time>2019-12-08T13:19:38.000Z</time>
      </trkpt>
      <trkpt lat="43.58592" lon="6.79463">
        <ele>180.23</ele>
        <time>2019-12-08T13:19:39.000Z</time>
      </trkpt>
      <trkpt lat="43.58587" lon="6.79468">
        <ele>180.04</ele>
        <time>2019-12-08T13:19:40.000Z</time>
      </trkpt>
      <trkpt lat="43.58581" lon="6.79475">
        <ele>179.91</ele>
        <time>2019-12-08T13:19:41.000Z</time>
      </trkpt>
      <trkpt lat="43.58576" lon="6.79482">
        <ele>179.72</ele>
        <time>2019-12-08T13:19:42.000Z</time>
      </trkpt>
      <trkpt lat="43.58571" lon="6.7949">
        <ele>179.54</ele>
        <time>2019-12-08T13:19:43.000Z</time>
      </trkpt>
      <trkpt lat="43.58566" lon="6.79498">
        <ele>179.15</ele>
        <time>2019-12-08T13:19:44.000Z</time>
      </trkpt>
      <trkpt lat="43.58562" lon="6.79507">
        <ele>178.75</ele>
        <time>2019-12-08T13:19:45.000Z</time>
      </trkpt>
      <trkpt lat="43.58557" lon="6.79517">
        <ele>178.23</ele>
        <time>2019-12-08T13:19:46.000Z</time>
      </trkpt>
      <trkpt lat="43.58553" lon="6.79527">
        <ele>177.99</ele>
        <time>2019-12-08T13:19:47.000Z</time>
      </trkpt>
      <trkpt lat="43.58548" lon="6.79538">
        <ele>177.46</ele>
        <time>2019-12-08T13:19:48.000Z</time>
      </trkpt>
      <trkpt lat="43.58543" lon="6.79548">
        <ele>176.96</ele>
        <time>2019-12-08T13:19:49.000Z</time>
      </trkpt>
      <trkpt lat="43.58539" lon="6.79559">
        <ele>176.41</ele>
        <time>2019-12-08T13:19:50.000Z</time>
      </trkpt>
      <trkpt lat="43.58534" lon="6.79569">
        <ele>176.01</ele>
        <time>2019-12-08T13:19:51.000Z</time>
      </trkpt>
      <trkpt lat="43.58529" lon="6.7958">
        <ele>175.38</ele>
        <time>2019-12-08T13:19:52.000Z</time>
      </trkpt>
      <trkpt lat="43.58524" lon="6.7959">
        <ele>174.89</ele>
        <time>2019-12-08T13:19:53.000Z</time>
      </trkpt>
      <trkpt lat="43.58519" lon="6.79601">
        <ele>174.39</ele>
        <time>2019-12-08T13:19:54.000Z</time>
      </trkpt>
      <trkpt lat="43.58514" lon="6.79612">
        <ele>174.16</ele>
        <time>2019-12-08T13:19:55.000Z</time>
      </trkpt>
      <trkpt lat="43.58509" lon="6.79623">
        <ele>173.89</ele>
        <time>2019-12-08T13:19:56.000Z</time>
      </trkpt>
      <trkpt lat="43.58505" lon="6.79634">
        <ele>173.54</ele>
        <time>2019-12-08T13:19:57.000Z</time>
      </trkpt>
      <trkpt lat="43.58501" lon="6.79646">
        <ele>173.09</ele>
        <time>2019-12-08T13:19:58.000Z</time>
      </trkpt>
      <trkpt lat="43.58497" lon="6.79658">
        <ele>172.85</ele>
        <time>2019-12-08T13:19:59.000Z</time>
      </trkpt>
      <trkpt lat="43.58495" lon="6.79671">
        <ele>172.33</ele>
        <time>2019-12-08T13:20:00.000Z</time>
      </trkpt>
      <trkpt lat="43.58493" lon="6.79684">
        <ele>172.01</ele>
        <time>2019-12-08T13:20:01.000Z</time>
      </trkpt>
      <trkpt lat="43.58492" lon="6.79697">
        <ele>171.26</ele>
        <time>2019-12-08T13:20:02.000Z</time>
      </trkpt>
      <trkpt lat="43.58492" lon="6.79711">
        <ele>170.5</ele>
        <time>2019-12-08T13:20:03.000Z</time>
      </trkpt>
      <trkpt lat="43.58492" lon="6.79725">
        <ele>170.15</ele>
        <time>2019-12-08T13:20:04.000Z</time>
      </trkpt>
      <trkpt lat="43.58493" lon="6.79739">
        <ele>169.41</ele>
        <time>2019-12-08T13:20:05.000Z</time>
      </trkpt>
      <trkpt lat="43.58494" lon="6.79753">
        <ele>168.63</ele>
        <time>2019-12-08T13:20:06.000Z</time>
      </trkpt>
      <trkpt lat="43.58496" lon="6.79767">
        <ele>168.34</ele>
        <time>2019-12-08T13:20:07.000Z</time>
      </trkpt>
      <trkpt lat="43.58498" lon="6.79782">
        <ele>167.84</ele>
        <time>2019-12-08T13:20:08.000Z</time>
      </trkpt>
      <trkpt lat="43.58501" lon="6.79796">
        <ele>167.19</ele>
        <time>2019-12-08T13:20:09.000Z</time>
      </trkpt>
      <trkpt lat="43.58504" lon="6.79811">
        <ele>166.6</ele>
        <time>2019-12-08T13:20:10.000Z</time>
      </trkpt>
      <trkpt lat="43.58506" lon="6.79826">
        <ele>166</ele>
        <time>2019-12-08T13:20:11.000Z</time>
      </trkpt>
      <trkpt lat="43.58509" lon="6.79841">
        <ele>165.56</ele>
        <time>2019-12-08T13:20:12.000Z</time>
      </trkpt>
      <trkpt lat="43.5851" lon="6.79857">
        <ele>164.85</ele>
        <time>2019-12-08T13:20:13.000Z</time>
      </trkpt>
      <trkpt lat="43.5851" lon="6.79873">
        <ele>164.13</ele>
        <time>2019-12-08T13:20:14.000Z</time>
      </trkpt>
      <trkpt lat="43.58507" lon="6.79888">
        <ele>163.39</ele>
        <time>2019-12-08T13:20:15.000Z</time>
      </trkpt>
      <trkpt lat="43.58502" lon="6.79902">
        <ele>163.03</ele>
        <time>2019-12-08T13:20:16.000Z</time>
      </trkpt>
      <trkpt lat="43.58496" lon="6.79915">
        <ele>162.27</ele>
        <time>2019-12-08T13:20:17.000Z</time>
      </trkpt>
      <trkpt lat="43.5849" lon="6.79928">
        <ele>161.66</ele>
        <time>2019-12-08T13:20:18.000Z</time>
      </trkpt>
      <trkpt lat="43.58483" lon="6.7994">
        <ele>161.05</ele>
        <time>2019-12-08T13:20:19.000Z</time>
      </trkpt>
      <trkpt lat="43.58476" lon="6.79953">
        <ele>160.69</ele>
        <time>2019-12-08T13:20:20.000Z</time>
      </trkpt>
      <trkpt lat="43.5847" lon="6.79966">
        <ele>160.06</ele>
        <time>2019-12-08T13:20:21.000Z</time>
      </trkpt>
      <trkpt lat="43.58463" lon="6.79978">
        <ele>159.29</ele>
        <time>2019-12-08T13:20:22.000Z</time>
      </trkpt>
      <trkpt lat="43.58456" lon="6.79991">
        <ele>158.35</ele>
        <time>2019-12-08T13:20:23.000Z</time>
      </trkpt>
      <trkpt lat="43.5845" lon="6.80004">
        <ele>158.04</ele>
        <time>2019-12-08T13:20:24.000Z</time>
      </trkpt>
      <trkpt lat="43.58443" lon="6.80017">
        <ele>157.26</ele>
        <time>2019-12-08T13:20:25.000Z</time>
      </trkpt>
      <trkpt lat="43.58437" lon="6.80029">
        <ele>156.52</ele>
        <time>2019-12-08T13:20:26.000Z</time>
      </trkpt>
      <trkpt lat="43.5843" lon="6.80042">
        <ele>156.15</ele>
        <time>2019-12-08T13:20:27.000Z</time>
      </trkpt>
      <trkpt lat="43.58424" lon="6.80054">
        <ele>155.97</ele>
        <time>2019-12-08T13:20:28.000Z</time>
      </trkpt>
      <trkpt lat="43.58417" lon="6.80067">
        <ele>155.56</ele>
        <time>2019-12-08T13:20:29.000Z</time>
      </trkpt>
      <trkpt lat="43.58411" lon="6.80079">
        <ele>155.39</ele>
        <time>2019-12-08T13:20:30.000Z</time>
      </trkpt>
      <trkpt lat="43.58404" lon="6.80091">
        <ele>155.28</ele>
        <time>2019-12-08T13:20:31.000Z</time>
      </trkpt>
      <trkpt lat="43.58398" lon="6.80102">
        <ele>155.27</ele>
        <time>2019-12-08T13:20:32.000Z</time>
      </trkpt>
      <trkpt lat="43.58392" lon="6.80114">
        <ele>155.33</ele>
        <time>2019-12-08T13:20:33.000Z</time>
      </trkpt>
      <trkpt lat="43.58386" lon="6.80126">
        <ele>155.56</ele>
        <time>2019-12-08T13:20:34.000Z</time>
      </trkpt>
      <trkpt lat="43.5838" lon="6.80137">
        <ele>155.74</ele>
        <time>2019-12-08T13:20:35.000Z</time>
      </trkpt>
      <trkpt lat="43.58374" lon="6.80148">
        <ele>155.8</ele>
        <time>2019-12-08T13:20:36.000Z</time>
      </trkpt>
      <trkpt lat="43.58368" lon="6.80159">
        <ele>155.85</ele>
        <time>2019-12-08T13:20:37.000Z</time>
      </trkpt>
      <trkpt lat="43.58363" lon="6.80169">
        <ele>155.83</ele>
        <time>2019-12-08T13:20:38.000Z</time>
      </trkpt>
      <trkpt lat="43.58357" lon="6.8018">
        <ele>155.83</ele>
        <time>2019-12-08T13:20:39.000Z</time>
      </trkpt>
      <trkpt lat="43.58352" lon="6.8019">
        <ele>155.87</ele>
        <time>2019-12-08T13:20:40.000Z</time>
      </trkpt>
      <trkpt lat="43.58346" lon="6.802">
        <ele>155.78</ele>
        <time>2019-12-08T13:20:41.000Z</time>
      </trkpt>
      <trkpt lat="43.58341" lon="6.80211">
        <ele>155.67</ele>
        <time>2019-12-08T13:20:42.000Z</time>
      </trkpt>
      <trkpt lat="43.58335" lon="6.80221">
        <ele>155.7</ele>
        <time>2019-12-08T13:20:43.000Z</time>
      </trkpt>
      <trkpt lat="43.5833" lon="6.8023">
        <ele>155.44</ele>
        <time>2019-12-08T13:20:44.000Z</time>
      </trkpt>
      <trkpt lat="43.58325" lon="6.8024">
        <ele>155.42</ele>
        <time>2019-12-08T13:20:45.000Z</time>
      </trkpt>
      <trkpt lat="43.5832" lon="6.8025">
        <ele>155.51</ele>
        <time>2019-12-08T13:20:46.000Z</time>
      </trkpt>
      <trkpt lat="43.58315" lon="6.8026">
        <ele>155.57</ele>
        <time>2019-12-08T13:20:47.000Z</time>
      </trkpt>
      <trkpt lat="43.5831" lon="6.80269">
        <ele>155.56</ele>
        <time>2019-12-08T13:20:48.000Z</time>
      </trkpt>
      <trkpt lat="43.58305" lon="6.80279">
        <ele>155.62</ele>
        <time>2019-12-08T13:20:49.000Z</time>
      </trkpt>
      <trkpt lat="43.583" lon="6.80288">
        <ele>155.56</ele>
        <time>2019-12-08T13:20:50.000Z</time>
      </trkpt>
      <trkpt lat="43.58295" lon="6.80298">
        <ele>155.39</ele>
        <time>2019-12-08T13:20:51.000Z</time>
      </trkpt>
      <trkpt lat="43.58289" lon="6.80307">
        <ele>155.24</ele>
        <time>2019-12-08T13:20:52.000Z</time>
      </trkpt>
      <trkpt lat="43.58284" lon="6.80316">
        <ele>155.2</ele>
        <time>2019-12-08T13:20:53.000Z</time>
      </trkpt>
      <trkpt lat="43.58279" lon="6.80326">
        <ele>155.06</ele>
        <time>2019-12-08T13:20:54.000Z</time>
      </trkpt>
      <trkpt lat="43.58274" lon="6.80335">
        <ele>154.88</ele>
        <time>2019-12-08T13:20:55.000Z</time>
      </trkpt>
      <trkpt lat="43.58269" lon="6.80345">
        <ele>154.86</ele>
        <time>2019-12-08T13:20:56.000Z</time>
      </trkpt>
      <trkpt lat="43.58265" lon="6.80354">
        <ele>154.85</ele>
        <time>2019-12-08T13:20:57.000Z</time>
      </trkpt>
      <trkpt lat="43.58259" lon="6.80364">
        <ele>154.73</ele>
        <time>2019-12-08T13:20:58.000Z</time>
      </trkpt>
      <trkpt lat="43.58254" lon="6.80373">
        <ele>154.99</ele>
        <time>2019-12-08T13:20:59.000Z</time>
      </trkpt>
      <trkpt lat="43.5825" lon="6.80383">
        <ele>155.29</ele>
        <time>2019-12-08T13:21:00.000Z</time>
      </trkpt>
      <trkpt lat="43.58245" lon="6.80392">
        <ele>155.41</ele>
        <time>2019-12-08T13:21:01.000Z</time>
      </trkpt>
      <trkpt lat="43.5824" lon="6.80401">
        <ele>155.6</ele>
        <time>2019-12-08T13:21:02.000Z</time>
      </trkpt>
      <trkpt lat="43.58235" lon="6.8041">
        <ele>155.71</ele>
        <time>2019-12-08T13:21:03.000Z</time>
      </trkpt>
      <trkpt lat="43.5823" lon="6.8042">
        <ele>155.49</ele>
        <time>2019-12-08T13:21:04.000Z</time>
      </trkpt>
      <trkpt lat="43.58225" lon="6.80429">
        <ele>155.4</ele>
        <time>2019-12-08T13:21:05.000Z</time>
      </trkpt>
      <trkpt lat="43.5822" lon="6.80438">
        <ele>155.25</ele>
        <time>2019-12-08T13:21:06.000Z</time>
      </trkpt>
      <trkpt lat="43.58215" lon="6.80447">
        <ele>155.14</ele>
        <time>2019-12-08T13:21:07.000Z</time>
      </trkpt>
      <trkpt lat="43.5821" lon="6.80456">
        <ele>155.04</ele>
        <time>2019-12-08T13:21:08.000Z</time>
      </trkpt>
      <trkpt lat="43.58205" lon="6.80466">
        <ele>154.97</ele>
        <time>2019-12-08T13:21:09.000Z</time>
      </trkpt>
      <trkpt lat="43.582" lon="6.80474">
        <ele>154.84</ele>
        <time>2019-12-08T13:21:10.000Z</time>
      </trkpt>
      <trkpt lat="43.58196" lon="6.80483">
        <ele>154.72</ele>
        <time>2019-12-08T13:21:11.000Z</time>
      </trkpt>
      <trkpt lat="43.58191" lon="6.80491">
        <ele>154.63</ele>
        <time>2019-12-08T13:21:12.000Z</time>
      </trkpt>
      <trkpt lat="43.58187" lon="6.80499">
        <ele>154.65</ele>
        <time>2019-12-08T13:21:13.000Z</time>
      </trkpt>
      <trkpt lat="43.58182" lon="6.80507">
        <ele>154.68</ele>
        <time>2019-12-08T13:21:14.000Z</time>
      </trkpt>
      <trkpt lat="43.58178" lon="6.80515">
        <ele>154.7</ele>
        <time>2019-12-08T13:21:15.000Z</time>
      </trkpt>
      <trkpt lat="43.58175" lon="6.80524">
        <ele>154.76</ele>
        <time>2019-12-08T13:21:16.000Z</time>
      </trkpt>
      <trkpt lat="43.58172" lon="6.80533">
        <ele>154.8</ele>
        <time>2019-12-08T13:21:17.000Z</time>
      </trkpt>
      <trkpt lat="43.58171" lon="6.80542">
        <ele>154.89</ele>
        <time>2019-12-08T13:21:18.000Z</time>
      </trkpt>
      <trkpt lat="43.5817" lon="6.80551">
        <ele>155.03</ele>
        <time>2019-12-08T13:21:19.000Z</time>
      </trkpt>
      <trkpt lat="43.58169" lon="6.8056">
        <ele>155.14</ele>
        <time>2019-12-08T13:21:20.000Z</time>
      </trkpt>
      <trkpt lat="43.58169" lon="6.8057">
        <ele>155.28</ele>
        <time>2019-12-08T13:21:21.000Z</time>
      </trkpt>
      <trkpt lat="43.5817" lon="6.80579">
        <ele>155.36</ele>
        <time>2019-12-08T13:21:22.000Z</time>
      </trkpt>
      <trkpt lat="43.58172" lon="6.80589">
        <ele>155.4</ele>
        <time>2019-12-08T13:21:23.000Z</time>
      </trkpt>
      <trkpt lat="43.58174" lon="6.80598">
        <ele>155.4</ele>
        <time>2019-12-08T13:21:24.000Z</time>
      </trkpt>
      <trkpt lat="43.58177" lon="6.80607">
        <ele>155.33</ele>
        <time>2019-12-08T13:21:25.000Z</time>
      </trkpt>
      <trkpt lat="43.5818" lon="6.80616">
        <ele>155.31</ele>
        <time>2019-12-08T13:21:26.000Z</time>
      </trkpt>
      <trkpt lat="43.58184" lon="6.80625">
        <ele>155.24</ele>
        <time>2019-12-08T13:21:27.000Z</time>
      </trkpt>
      <trkpt lat="43.58188" lon="6.80633">
        <ele>155.19</ele>
        <time>2019-12-08T13:21:28.000Z</time>
      </trkpt>
      <trkpt lat="43.58192" lon="6.80641">
        <ele>155.11</ele>
        <time>2019-12-08T13:21:29.000Z</time>
      </trkpt>
      <trkpt lat="43.58196" lon="6.80649">
        <ele>155.04</ele>
        <time>2019-12-08T13:21:30.000Z</time>
      </trkpt>
      <trkpt lat="43.582" lon="6.80658">
        <ele>154.87</ele>
        <time>2019-12-08T13:21:31.000Z</time>
      </trkpt>
      <trkpt lat="43.58203" lon="6.80668">
        <ele>154.7</ele>
        <time>2019-12-08T13:21:32.000Z</time>
      </trkpt>
      <trkpt lat="43.58206" lon="6.80677">
        <ele>154.63</ele>
        <time>2019-12-08T13:21:33.000Z</time>
      </trkpt>
      <trkpt lat="43.58208" lon="6.80687">
        <ele>154.62</ele>
        <time>2019-12-08T13:21:34.000Z</time>
      </trkpt>
      <trkpt lat="43.5821" lon="6.80697">
        <ele>154.75</ele>
        <time>2019-12-08T13:21:35.000Z</time>
      </trkpt>
      <trkpt lat="43.58211" lon="6.80707">
        <ele>154.92</ele>
        <time>2019-12-08T13:21:36.000Z</time>
      </trkpt>
      <trkpt lat="43.58211" lon="6.80717">
        <ele>155.08</ele>
        <time>2019-12-08T13:21:37.000Z</time>
      </trkpt>
      <trkpt lat="43.58211" lon="6.80726">
        <ele>155.16</ele>
        <time>2019-12-08T13:21:38.000Z</time>
      </trkpt>
      <trkpt lat="43.5821" lon="6.80736">
        <ele>155.39</ele>
        <time>2019-12-08T13:21:39.000Z</time>
      </trkpt>
      <trkpt lat="43.58209" lon="6.80745">
        <ele>155.6</ele>
        <time>2019-12-08T13:21:40.000Z</time>
      </trkpt>
      <trkpt lat="43.58208" lon="6.80754">
        <ele>155.69</ele>
        <time>2019-12-08T13:21:41.000Z</time>
      </trkpt>
      <trkpt lat="43.58207" lon="6.80763">
        <ele>155.96</ele>
        <time>2019-12-08T13:21:42.000Z</time>
      </trkpt>
      <trkpt lat="43.58205" lon="6.80772">
        <ele>156.12</ele>
        <time>2019-12-08T13:21:43.000Z</time>
      </trkpt>
      <trkpt lat="43.58204" lon="6.80781">
        <ele>156.14</ele>
        <time>2019-12-08T13:21:44.000Z</time>
      </trkpt>
      <trkpt lat="43.58203" lon="6.8079">
        <ele>156.36</ele>
        <time>2019-12-08T13:21:45.000Z</time>
      </trkpt>
      <trkpt lat="43.58202" lon="6.808">
        <ele>156.53</ele>
        <time>2019-12-08T13:21:46.000Z</time>
      </trkpt>
      <trkpt lat="43.582" lon="6.80809">
        <ele>156.6</ele>
        <time>2019-12-08T13:21:47.000Z</time>
      </trkpt>
      <trkpt lat="43.58199" lon="6.80818">
        <ele>156.61</ele>
        <time>2019-12-08T13:21:48.000Z</time>
      </trkpt>
      <trkpt lat="43.58198" lon="6.80828">
        <ele>156.83</ele>
        <time>2019-12-08T13:21:49.000Z</time>
      </trkpt>
      <trkpt lat="43.58197" lon="6.80837">
        <ele>156.89</ele>
        <time>2019-12-08T13:21:50.000Z</time>
      </trkpt>
      <trkpt lat="43.58197" lon="6.80847">
        <ele>156.85</ele>
        <time>2019-12-08T13:21:51.000Z</time>
      </trkpt>
      <trkpt lat="43.58196" lon="6.80856">
        <ele>156.82</ele>
        <time>2019-12-08T13:21:52.000Z</time>
      </trkpt>
      <trkpt lat="43.58196" lon="6.80866">
        <ele>156.9</ele>
        <time>2019-12-08T13:21:53.000Z</time>
      </trkpt>
      <trkpt lat="43.58196" lon="6.80877">
        <ele>156.85</ele>
        <time>2019-12-08T13:21:54.000Z</time>
      </trkpt>
      <trkpt lat="43.58197" lon="6.80887">
        <ele>156.81</ele>
        <time>2019-12-08T13:21:55.000Z</time>
      </trkpt>
      <trkpt lat="43.58198" lon="6.80897">
        <ele>156.8</ele>
        <time>2019-12-08T13:21:56.000Z</time>
      </trkpt>
      <trkpt lat="43.58199" lon="6.80907">
        <ele>156.64</ele>
        <time>2019-12-08T13:21:57.000Z</time>
      </trkpt>
      <trkpt lat="43.58201" lon="6.80918">
        <ele>156.45</ele>
        <time>2019-12-08T13:21:58.000Z</time>
      </trkpt>
      <trkpt lat="43.58203" lon="6.80928">
        <ele>156.37</ele>
        <time>2019-12-08T13:21:59.000Z</time>
      </trkpt>
      <trkpt lat="43.58206" lon="6.80938">
        <ele>156.19</ele>
        <time>2019-12-08T13:22:00.000Z</time>
      </trkpt>
      <trkpt lat="43.58209" lon="6.80948">
        <ele>155.99</ele>
        <time>2019-12-08T13:22:01.000Z</time>
      </trkpt>
      <trkpt lat="43.58212" lon="6.80959">
        <ele>155.72</ele>
        <time>2019-12-08T13:22:02.000Z</time>
      </trkpt>
      <trkpt lat="43.58215" lon="6.80969">
        <ele>155.67</ele>
        <time>2019-12-08T13:22:03.000Z</time>
      </trkpt>
      <trkpt lat="43.58218" lon="6.80979">
        <ele>155.57</ele>
        <time>2019-12-08T13:22:04.000Z</time>
      </trkpt>
      <trkpt lat="43.58221" lon="6.8099">
        <ele>155.51</ele>
        <time>2019-12-08T13:22:05.000Z</time>
      </trkpt>
      <trkpt lat="43.58224" lon="6.81001">
        <ele>155.44</ele>
        <time>2019-12-08T13:22:06.000Z</time>
      </trkpt>
      <trkpt lat="43.58227" lon="6.81012">
        <ele>155.31</ele>
        <time>2019-12-08T13:22:07.000Z</time>
      </trkpt>
      <trkpt lat="43.5823" lon="6.81023">
        <ele>155.02</ele>
        <time>2019-12-08T13:22:08.000Z</time>
      </trkpt>
      <trkpt lat="43.58233" lon="6.81034">
        <ele>154.69</ele>
        <time>2019-12-08T13:22:09.000Z</time>
      </trkpt>
      <trkpt lat="43.58236" lon="6.81045">
        <ele>154.44</ele>
        <time>2019-12-08T13:22:10.000Z</time>
      </trkpt>
      <trkpt lat="43.58239" lon="6.81056">
        <ele>154.44</ele>
        <time>2019-12-08T13:22:11.000Z</time>
      </trkpt>
      <trkpt lat="43.58242" lon="6.81068">
        <ele>154.49</ele>
        <time>2019-12-08T13:22:12.000Z</time>
      </trkpt>
      <trkpt lat="43.58243" lon="6.8108">
        <ele>154.36</ele>
        <time>2019-12-08T13:22:13.000Z</time>
      </trkpt>
      <trkpt lat="43.58242" lon="6.81092">
        <ele>154.25</ele>
        <time>2019-12-08T13:22:14.000Z</time>
      </trkpt>
      <trkpt lat="43.58241" lon="6.81103">
        <ele>154.01</ele>
        <time>2019-12-08T13:22:15.000Z</time>
      </trkpt>
      <trkpt lat="43.58238" lon="6.81115">
        <ele>153.83</ele>
        <time>2019-12-08T13:22:16.000Z</time>
      </trkpt>
      <trkpt lat="43.58235" lon="6.81126">
        <ele>153.65</ele>
        <time>2019-12-08T13:22:17.000Z</time>
      </trkpt>
      <trkpt lat="43.58232" lon="6.81136">
        <ele>153.56</ele>
        <time>2019-12-08T13:22:18.000Z</time>
      </trkpt>
      <trkpt lat="43.58228" lon="6.81147">
        <ele>153.5</ele>
        <time>2019-12-08T13:22:19.000Z</time>
      </trkpt>
      <trkpt lat="43.58224" lon="6.81156">
        <ele>153.42</ele>
        <time>2019-12-08T13:22:20.000Z</time>
      </trkpt>
      <trkpt lat="43.5822" lon="6.81166">
        <ele>153.36</ele>
        <time>2019-12-08T13:22:21.000Z</time>
      </trkpt>
      <trkpt lat="43.58215" lon="6.81174">
        <ele>153.49</ele>
        <time>2019-12-08T13:22:22.000Z</time>
      </trkpt>
      <trkpt lat="43.5821" lon="6.81183">
        <ele>153.55</ele>
        <time>2019-12-08T13:22:23.000Z</time>
      </trkpt>
      <trkpt lat="43.58205" lon="6.8119">
        <ele>153.55</ele>
        <time>2019-12-08T13:22:24.000Z</time>
      </trkpt>
      <trkpt lat="43.58199" lon="6.81197">
        <ele>153.71</ele>
        <time>2019-12-08T13:22:25.000Z</time>
      </trkpt>
      <trkpt lat="43.58192" lon="6.81202">
        <ele>153.67</ele>
        <time>2019-12-08T13:22:26.000Z</time>
      </trkpt>
      <trkpt lat="43.58185" lon="6.81205">
        <ele>153.75</ele>
        <time>2019-12-08T13:22:27.000Z</time>
      </trkpt>
      <trkpt lat="43.58178" lon="6.81208">
        <ele>153.77</ele>
        <time>2019-12-08T13:22:28.000Z</time>
      </trkpt>
      <trkpt lat="43.58171" lon="6.81209">
        <ele>153.89</ele>
        <time>2019-12-08T13:22:29.000Z</time>
      </trkpt>
      <trkpt lat="43.58164" lon="6.81208">
        <ele>154.07</ele>
        <time>2019-12-08T13:22:30.000Z</time>
      </trkpt>
      <trkpt lat="43.58157" lon="6.81208">
        <ele>154.11</ele>
        <time>2019-12-08T13:22:31.000Z</time>
      </trkpt>
      <trkpt lat="43.58151" lon="6.81206">
        <ele>154.14</ele>
        <time>2019-12-08T13:22:32.000Z</time>
      </trkpt>
      <trkpt lat="43.58144" lon="6.81204">
        <ele>154.25</ele>
        <time>2019-12-08T13:22:33.000Z</time>
      </trkpt>
      <trkpt lat="43.58138" lon="6.81201">
        <ele>154.24</ele>
        <time>2019-12-08T13:22:34.000Z</time>
      </trkpt>
      <trkpt lat="43.58131" lon="6.81198">
        <ele>154.28</ele>
        <time>2019-12-08T13:22:35.000Z</time>
      </trkpt>
      <trkpt lat="43.58125" lon="6.81194">
        <ele>154.33</ele>
        <time>2019-12-08T13:22:36.000Z</time>
      </trkpt>
      <trkpt lat="43.58119" lon="6.8119">
        <ele>154.33</ele>
        <time>2019-12-08T13:22:37.000Z</time>
      </trkpt>
      <trkpt lat="43.58112" lon="6.81185">
        <ele>154.31</ele>
        <time>2019-12-08T13:22:38.000Z</time>
      </trkpt>
      <trkpt lat="43.58106" lon="6.81181">
        <ele>154.36</ele>
        <time>2019-12-08T13:22:39.000Z</time>
      </trkpt>
      <trkpt lat="43.58099" lon="6.81176">
        <ele>154.31</ele>
        <time>2019-12-08T13:22:40.000Z</time>
      </trkpt>
      <trkpt lat="43.58092" lon="6.81171">
        <ele>154.23</ele>
        <time>2019-12-08T13:22:41.000Z</time>
      </trkpt>
      <trkpt lat="43.58086" lon="6.81166">
        <ele>154.18</ele>
        <time>2019-12-08T13:22:42.000Z</time>
      </trkpt>
      <trkpt lat="43.58079" lon="6.81161">
        <ele>153.97</ele>
        <time>2019-12-08T13:22:43.000Z</time>
      </trkpt>
      <trkpt lat="43.58072" lon="6.81155">
        <ele>153.81</ele>
        <time>2019-12-08T13:22:44.000Z</time>
      </trkpt>
      <trkpt lat="43.58065" lon="6.8115">
        <ele>153.8</ele>
        <time>2019-12-08T13:22:45.000Z</time>
      </trkpt>
      <trkpt lat="43.58057" lon="6.81145">
        <ele>153.72</ele>
        <time>2019-12-08T13:22:46.000Z</time>
      </trkpt>
      <trkpt lat="43.5805" lon="6.8114">
        <ele>153.63</ele>
        <time>2019-12-08T13:22:47.000Z</time>
      </trkpt>
      <trkpt lat="43.58043" lon="6.81135">
        <ele>153.57</ele>
        <time>2019-12-08T13:22:48.000Z</time>
      </trkpt>
      <trkpt lat="43.58036" lon="6.81129">
        <ele>153.53</ele>
        <time>2019-12-08T13:22:49.000Z</time>
      </trkpt>
      <trkpt lat="43.58028" lon="6.81124">
        <ele>153.34</ele>
        <time>2019-12-08T13:22:50.000Z</time>
      </trkpt>
      <trkpt lat="43.58021" lon="6.81119">
        <ele>153.19</ele>
        <time>2019-12-08T13:22:51.000Z</time>
      </trkpt>
      <trkpt lat="43.58014" lon="6.81114">
        <ele>153.08</ele>
        <time>2019-12-08T13:22:52.000Z</time>
      </trkpt>
      <trkpt lat="43.58007" lon="6.81109">
        <ele>153.04</ele>
        <time>2019-12-08T13:22:53.000Z</time>
      </trkpt>
      <trkpt lat="43.57999" lon="6.81103">
        <ele>152.93</ele>
        <time>2019-12-08T13:22:54.000Z</time>
      </trkpt>
      <trkpt lat="43.57992" lon="6.81099">
        <ele>152.94</ele>
        <time>2019-12-08T13:22:55.000Z</time>
      </trkpt>
      <trkpt lat="43.57985" lon="6.81094">
        <ele>153.14</ele>
        <time>2019-12-08T13:22:56.000Z</time>
      </trkpt>
      <trkpt lat="43.57979" lon="6.81089">
        <ele>153.26</ele>
        <time>2019-12-08T13:22:57.000Z</time>
      </trkpt>
      <trkpt lat="43.57972" lon="6.81085">
        <ele>153.45</ele>
        <time>2019-12-08T13:22:58.000Z</time>
      </trkpt>
      <trkpt lat="43.57965" lon="6.81081">
        <ele>153.68</ele>
        <time>2019-12-08T13:22:59.000Z</time>
      </trkpt>
      <trkpt lat="43.57959" lon="6.81077">
        <ele>153.71</ele>
        <time>2019-12-08T13:23:00.000Z</time>
      </trkpt>
      <trkpt lat="43.57952" lon="6.81073">
        <ele>153.71</ele>
        <time>2019-12-08T13:23:01.000Z</time>
      </trkpt>
      <trkpt lat="43.57946" lon="6.81069">
        <ele>153.81</ele>
        <time>2019-12-08T13:23:02.000Z</time>
      </trkpt>
      <trkpt lat="43.5794" lon="6.81065">
        <ele>154</ele>
        <time>2019-12-08T13:23:03.000Z</time>
      </trkpt>
      <trkpt lat="43.57934" lon="6.81062">
        <ele>154.28</ele>
        <time>2019-12-08T13:23:04.000Z</time>
      </trkpt>
      <trkpt lat="43.57928" lon="6.81059">
        <ele>154.44</ele>
        <time>2019-12-08T13:23:05.000Z</time>
      </trkpt>
      <trkpt lat="43.57923" lon="6.81056">
        <ele>154.73</ele>
        <time>2019-12-08T13:23:06.000Z</time>
      </trkpt>
      <trkpt lat="43.57917" lon="6.81053">
        <ele>155.04</ele>
        <time>2019-12-08T13:23:07.000Z</time>
      </trkpt>
      <trkpt lat="43.57911" lon="6.81051">
        <ele>155.27</ele>
        <time>2019-12-08T13:23:08.000Z</time>
      </trkpt>
      <trkpt lat="43.57905" lon="6.81049">
        <ele>155.37</ele>
        <time>2019-12-08T13:23:09.000Z</time>
      </trkpt>
      <trkpt lat="43.579" lon="6.81047">
        <ele>155.56</ele>
        <time>2019-12-08T13:23:10.000Z</time>
      </trkpt>
      <trkpt lat="43.57894" lon="6.81045">
        <ele>155.68</ele>
        <time>2019-12-08T13:23:11.000Z</time>
      </trkpt>
      <trkpt lat="43.57889" lon="6.81043">
        <ele>155.85</ele>
        <time>2019-12-08T13:23:12.000Z</time>
      </trkpt>
      <trkpt lat="43.57883" lon="6.81041">
        <ele>155.99</ele>
        <time>2019-12-08T13:23:13.000Z</time>
      </trkpt>
      <trkpt lat="43.57878" lon="6.81039">
        <ele>156.05</ele>
        <time>2019-12-08T13:23:14.000Z</time>
      </trkpt>
      <trkpt lat="43.57872" lon="6.81038">
        <ele>156.22</ele>
        <time>2019-12-08T13:23:15.000Z</time>
      </trkpt>
      <trkpt lat="43.57867" lon="6.81036">
        <ele>156.4</ele>
        <time>2019-12-08T13:23:16.000Z</time>
      </trkpt>
      <trkpt lat="43.57861" lon="6.81034">
        <ele>156.49</ele>
        <time>2019-12-08T13:23:17.000Z</time>
      </trkpt>
      <trkpt lat="43.57856" lon="6.81033">
        <ele>156.67</ele>
        <time>2019-12-08T13:23:18.000Z</time>
      </trkpt>
      <trkpt lat="43.5785" lon="6.81031">
        <ele>156.89</ele>
        <time>2019-12-08T13:23:19.000Z</time>
      </trkpt>
      <trkpt lat="43.57844" lon="6.81029">
        <ele>156.98</ele>
        <time>2019-12-08T13:23:20.000Z</time>
      </trkpt>
      <trkpt lat="43.57839" lon="6.81027">
        <ele>157.07</ele>
        <time>2019-12-08T13:23:21.000Z</time>
      </trkpt>
      <trkpt lat="43.57833" lon="6.81024">
        <ele>157.13</ele>
        <time>2019-12-08T13:23:22.000Z</time>
      </trkpt>
      <trkpt lat="43.57828" lon="6.81022">
        <ele>157.27</ele>
        <time>2019-12-08T13:23:23.000Z</time>
      </trkpt>
      <trkpt lat="43.57823" lon="6.81019">
        <ele>157.43</ele>
        <time>2019-12-08T13:23:24.000Z</time>
      </trkpt>
      <trkpt lat="43.57817" lon="6.81016">
        <ele>157.52</ele>
        <time>2019-12-08T13:23:25.000Z</time>
      </trkpt>
      <trkpt lat="43.57812" lon="6.81013">
        <ele>157.71</ele>
        <time>2019-12-08T13:23:26.000Z</time>
      </trkpt>
      <trkpt lat="43.57806" lon="6.81009">
        <ele>157.84</ele>
        <time>2019-12-08T13:23:27.000Z</time>
      </trkpt>
      <trkpt lat="43.57801" lon="6.81006">
        <ele>157.96</ele>
        <time>2019-12-08T13:23:28.000Z</time>
      </trkpt>
      <trkpt lat="43.57796" lon="6.81002">
        <ele>158.07</ele>
        <time>2019-12-08T13:23:29.000Z</time>
      </trkpt>
      <trkpt lat="43.57791" lon="6.80998">
        <ele>158.1</ele>
        <time>2019-12-08T13:23:30.000Z</time>
      </trkpt>
      <trkpt lat="43.57786" lon="6.80994">
        <ele>158.15</ele>
        <time>2019-12-08T13:23:31.000Z</time>
      </trkpt>
      <trkpt lat="43.57781" lon="6.80991">
        <ele>158.23</ele>
        <time>2019-12-08T13:23:32.000Z</time>
      </trkpt>
      <trkpt lat="43.57775" lon="6.80987">
        <ele>158.32</ele>
        <time>2019-12-08T13:23:33.000Z</time>
      </trkpt>
      <trkpt lat="43.5777" lon="6.80983">
        <ele>158.35</ele>
        <time>2019-12-08T13:23:34.000Z</time>
      </trkpt>
      <trkpt lat="43.57765" lon="6.80979">
        <ele>158.64</ele>
        <time>2019-12-08T13:23:35.000Z</time>
      </trkpt>
      <trkpt lat="43.57759" lon="6.80975">
        <ele>158.73</ele>
        <time>2019-12-08T13:23:36.000Z</time>
      </trkpt>
      <trkpt lat="43.57754" lon="6.8097">
        <ele>158.85</ele>
        <time>2019-12-08T13:23:37.000Z</time>
      </trkpt>
      <trkpt lat="43.57749" lon="6.80966">
        <ele>158.92</ele>
        <time>2019-12-08T13:23:38.000Z</time>
      </trkpt>
      <trkpt lat="43.57743" lon="6.80962">
        <ele>159.1</ele>
        <time>2019-12-08T13:23:39.000Z</time>
      </trkpt>
      <trkpt lat="43.57738" lon="6.80958">
        <ele>158.95</ele>
        <time>2019-12-08T13:23:40.000Z</time>
      </trkpt>
      <trkpt lat="43.57732" lon="6.80954">
        <ele>159.06</ele>
        <time>2019-12-08T13:23:41.000Z</time>
      </trkpt>
      <trkpt lat="43.57727" lon="6.8095">
        <ele>159.01</ele>
        <time>2019-12-08T13:23:42.000Z</time>
      </trkpt>
      <trkpt lat="43.57722" lon="6.80946">
        <ele>159.04</ele>
        <time>2019-12-08T13:23:43.000Z</time>
      </trkpt>
      <trkpt lat="43.57716" lon="6.80942">
        <ele>159.09</ele>
        <time>2019-12-08T13:23:44.000Z</time>
      </trkpt>
      <trkpt lat="43.57711" lon="6.80937">
        <ele>159.17</ele>
        <time>2019-12-08T13:23:45.000Z</time>
      </trkpt>
      <trkpt lat="43.57705" lon="6.80933">
        <ele>159.21</ele>
        <time>2019-12-08T13:23:46.000Z</time>
      </trkpt>
      <trkpt lat="43.57699" lon="6.80929">
        <ele>159.27</ele>
        <time>2019-12-08T13:23:47.000Z</time>
      </trkpt>
      <trkpt lat="43.57693" lon="6.80924">
        <ele>159.3</ele>
        <time>2019-12-08T13:23:48.000Z</time>
      </trkpt>
      <trkpt lat="43.57688" lon="6.8092">
        <ele>159.33</ele>
        <time>2019-12-08T13:23:49.000Z</time>
      </trkpt>
      <trkpt lat="43.57682" lon="6.80915">
        <ele>159.27</ele>
        <time>2019-12-08T13:23:50.000Z</time>
      </trkpt>
      <trkpt lat="43.57675" lon="6.80911">
        <ele>159.25</ele>
        <time>2019-12-08T13:23:51.000Z</time>
      </trkpt>
      <trkpt lat="43.5767" lon="6.80906">
        <ele>159.15</ele>
        <time>2019-12-08T13:23:52.000Z</time>
      </trkpt>
      <trkpt lat="43.57663" lon="6.80902">
        <ele>159.01</ele>
        <time>2019-12-08T13:23:53.000Z</time>
      </trkpt>
      <trkpt lat="43.57657" lon="6.80897">
        <ele>158.85</ele>
        <time>2019-12-08T13:23:54.000Z</time>
      </trkpt>
      <trkpt lat="43.57651" lon="6.80892">
        <ele>158.82</ele>
        <time>2019-12-08T13:23:55.000Z</time>
      </trkpt>
      <trkpt lat="43.57645" lon="6.80887">
        <ele>158.82</ele>
        <time>2019-12-08T13:23:56.000Z</time>
      </trkpt>
      <trkpt lat="43.57638" lon="6.80883">
        <ele>158.72</ele>
        <time>2019-12-08T13:23:57.000Z</time>
      </trkpt>
      <trkpt lat="43.57632" lon="6.80878">
        <ele>158.62</ele>
        <time>2019-12-08T13:23:58.000Z</time>
      </trkpt>
      <trkpt lat="43.57626" lon="6.80873">
        <ele>158.53</ele>
        <time>2019-12-08T13:23:59.000Z</time>
      </trkpt>
      <trkpt lat="43.57619" lon="6.80868">
        <ele>158.42</ele>
        <time>2019-12-08T13:24:00.000Z</time>
      </trkpt>
      <trkpt lat="43.57613" lon="6.80863">
        <ele>158.21</ele>
        <time>2019-12-08T13:24:01.000Z</time>
      </trkpt>
      <trkpt lat="43.57606" lon="6.80858">
        <ele>158.04</ele>
        <time>2019-12-08T13:24:02.000Z</time>
      </trkpt>
      <trkpt lat="43.576" lon="6.80853">
        <ele>157.98</ele>
        <time>2019-12-08T13:24:03.000Z</time>
      </trkpt>
      <trkpt lat="43.57593" lon="6.80848">
        <ele>157.89</ele>
        <time>2019-12-08T13:24:04.000Z</time>
      </trkpt>
      <trkpt lat="43.57587" lon="6.80843">
        <ele>157.8</ele>
        <time>2019-12-08T13:24:05.000Z</time>
      </trkpt>
      <trkpt lat="43.5758" lon="6.80837">
        <ele>157.74</ele>
        <time>2019-12-08T13:24:06.000Z</time>
      </trkpt>
      <trkpt lat="43.57574" lon="6.80831">
        <ele>157.7</ele>
        <time>2019-12-08T13:24:07.000Z</time>
      </trkpt>
      <trkpt lat="43.57568" lon="6.80824">
        <ele>157.63</ele>
        <time>2019-12-08T13:24:08.000Z</time>
      </trkpt>
      <trkpt lat="43.57562" lon="6.80817">
        <ele>157.61</ele>
        <time>2019-12-08T13:24:09.000Z</time>
      </trkpt>
      <trkpt lat="43.57557" lon="6.8081">
        <ele>157.62</ele>
        <time>2019-12-08T13:24:10.000Z</time>
      </trkpt>
      <trkpt lat="43.57552" lon="6.80802">
        <ele>157.59</ele>
        <time>2019-12-08T13:24:11.000Z</time>
      </trkpt>
      <trkpt lat="43.57547" lon="6.80794">
        <ele>157.57</ele>
        <time>2019-12-08T13:24:12.000Z</time>
      </trkpt>
      <trkpt lat="43.57542" lon="6.80786">
        <ele>157.61</ele>
        <time>2019-12-08T13:24:13.000Z</time>
      </trkpt>
      <trkpt lat="43.57538" lon="6.80778">
        <ele>157.59</ele>
        <time>2019-12-08T13:24:14.000Z</time>
      </trkpt>
      <trkpt lat="43.57533" lon="6.8077">
        <ele>157.64</ele>
        <time>2019-12-08T13:24:15.000Z</time>
      </trkpt>
      <trkpt lat="43.57529" lon="6.80763">
        <ele>157.75</ele>
        <time>2019-12-08T13:24:16.000Z</time>
      </trkpt>
      <trkpt lat="43.57525" lon="6.80755">
        <ele>157.87</ele>
        <time>2019-12-08T13:24:17.000Z</time>
      </trkpt>
      <trkpt lat="43.57521" lon="6.80747">
        <ele>158.07</ele>
        <time>2019-12-08T13:24:18.000Z</time>
      </trkpt>
      <trkpt lat="43.57517" lon="6.80739">
        <ele>158.19</ele>
        <time>2019-12-08T13:24:19.000Z</time>
      </trkpt>
      <trkpt lat="43.57513" lon="6.80732">
        <ele>158.36</ele>
        <time>2019-12-08T13:24:20.000Z</time>
      </trkpt>
      <trkpt lat="43.5751" lon="6.80724">
        <ele>158.62</ele>
        <time>2019-12-08T13:24:21.000Z</time>
      </trkpt>
      <trkpt lat="43.57506" lon="6.80717">
        <ele>158.82</ele>
        <time>2019-12-08T13:24:22.000Z</time>
      </trkpt>
      <trkpt lat="43.57502" lon="6.8071">
        <ele>158.88</ele>
        <time>2019-12-08T13:24:23.000Z</time>
      </trkpt>
      <trkpt lat="43.57498" lon="6.80702">
        <ele>158.92</ele>
        <time>2019-12-08T13:24:24.000Z</time>
      </trkpt>
      <trkpt lat="43.57493" lon="6.80695">
        <ele>159</ele>
        <time>2019-12-08T13:24:25.000Z</time>
      </trkpt>
      <trkpt lat="43.57488" lon="6.80688">
        <ele>158.98</ele>
        <time>2019-12-08T13:24:26.000Z</time>
      </trkpt>
      <trkpt lat="43.57484" lon="6.80681">
        <ele>159.01</ele>
        <time>2019-12-08T13:24:27.000Z</time>
      </trkpt>
      <trkpt lat="43.57479" lon="6.80675">
        <ele>158.99</ele>
        <time>2019-12-08T13:24:28.000Z</time>
      </trkpt>
      <trkpt lat="43.57474" lon="6.80668">
        <ele>158.93</ele>
        <time>2019-12-08T13:24:29.000Z</time>
      </trkpt>
      <trkpt lat="43.57469" lon="6.80661">
        <ele>158.81</ele>
        <time>2019-12-08T13:24:30.000Z</time>
      </trkpt>
      <trkpt lat="43.57463" lon="6.80654">
        <ele>158.63</ele>
        <time>2019-12-08T13:24:31.000Z</time>
      </trkpt>
      <trkpt lat="43.57458" lon="6.80648">
        <ele>158.55</ele>
        <time>2019-12-08T13:24:32.000Z</time>
      </trkpt>
      <trkpt lat="43.57452" lon="6.80642">
        <ele>158.39</ele>
        <time>2019-12-08T13:24:33.000Z</time>
      </trkpt>
      <trkpt lat="43.57446" lon="6.80636">
        <ele>158.23</ele>
        <time>2019-12-08T13:24:34.000Z</time>
      </trkpt>
      <trkpt lat="43.5744" lon="6.8063">
        <ele>158.13</ele>
        <time>2019-12-08T13:24:35.000Z</time>
      </trkpt>
      <trkpt lat="43.5742" lon="6.80613">
        <ele>157.7</ele>
        <time>2019-12-08T13:24:38.000Z</time>
      </trkpt>
      <trkpt lat="43.57414" lon="6.80607">
        <ele>157.42</ele>
        <time>2019-12-08T13:24:39.000Z</time>
      </trkpt>
      <trkpt lat="43.57407" lon="6.80601">
        <ele>157.28</ele>
        <time>2019-12-08T13:24:40.000Z</time>
      </trkpt>
      <trkpt lat="43.57401" lon="6.80595">
        <ele>156.94</ele>
        <time>2019-12-08T13:24:41.000Z</time>
      </trkpt>
      <trkpt lat="43.57394" lon="6.80589">
        <ele>156.65</ele>
        <time>2019-12-08T13:24:42.000Z</time>
      </trkpt>
      <trkpt lat="43.57387" lon="6.80583">
        <ele>156.37</ele>
        <time>2019-12-08T13:24:43.000Z</time>
      </trkpt>
      <trkpt lat="43.57381" lon="6.80577">
        <ele>156.27</ele>
        <time>2019-12-08T13:24:44.000Z</time>
      </trkpt>
      <trkpt lat="43.57374" lon="6.80571">
        <ele>156.08</ele>
        <time>2019-12-08T13:24:45.000Z</time>
      </trkpt>
      <trkpt lat="43.57368" lon="6.80566">
        <ele>156.12</ele>
        <time>2019-12-08T13:24:46.000Z</time>
      </trkpt>
      <trkpt lat="43.57361" lon="6.8056">
        <ele>156.15</ele>
        <time>2019-12-08T13:24:47.000Z</time>
      </trkpt>
      <trkpt lat="43.57355" lon="6.80555">
        <ele>156.17</ele>
        <time>2019-12-08T13:24:48.000Z</time>
      </trkpt>
      <trkpt lat="43.57349" lon="6.80549">
        <ele>156.19</ele>
        <time>2019-12-08T13:24:49.000Z</time>
      </trkpt>
      <trkpt lat="43.57343" lon="6.80544">
        <ele>156.2</ele>
        <time>2019-12-08T13:24:50.000Z</time>
      </trkpt>
      <trkpt lat="43.57338" lon="6.8054">
        <ele>156.24</ele>
        <time>2019-12-08T13:24:51.000Z</time>
      </trkpt>
      <trkpt lat="43.57332" lon="6.80535">
        <ele>156.25</ele>
        <time>2019-12-08T13:24:52.000Z</time>
      </trkpt>
      <trkpt lat="43.57326" lon="6.8053">
        <ele>156.46</ele>
        <time>2019-12-08T13:24:53.000Z</time>
      </trkpt>
      <trkpt lat="43.57321" lon="6.80525">
        <ele>156.6</ele>
        <time>2019-12-08T13:24:54.000Z</time>
      </trkpt>
      <trkpt lat="43.57315" lon="6.80521">
        <ele>156.72</ele>
        <time>2019-12-08T13:24:55.000Z</time>
      </trkpt>
      <trkpt lat="43.5731" lon="6.80516">
        <ele>156.78</ele>
        <time>2019-12-08T13:24:56.000Z</time>
      </trkpt>
      <trkpt lat="43.57304" lon="6.80511">
        <ele>156.9</ele>
        <time>2019-12-08T13:24:57.000Z</time>
      </trkpt>
      <trkpt lat="43.57299" lon="6.80506">
        <ele>157.07</ele>
        <time>2019-12-08T13:24:58.000Z</time>
      </trkpt>
      <trkpt lat="43.57293" lon="6.80501">
        <ele>157.28</ele>
        <time>2019-12-08T13:24:59.000Z</time>
      </trkpt>
      <trkpt lat="43.57287" lon="6.80496">
        <ele>157.3</ele>
        <time>2019-12-08T13:25:00.000Z</time>
      </trkpt>
      <trkpt lat="43.57282" lon="6.80492">
        <ele>157.45</ele>
        <time>2019-12-08T13:25:01.000Z</time>
      </trkpt>
      <trkpt lat="43.57276" lon="6.80487">
        <ele>157.58</ele>
        <time>2019-12-08T13:25:02.000Z</time>
      </trkpt>
      <trkpt lat="43.57271" lon="6.80481">
        <ele>157.68</ele>
        <time>2019-12-08T13:25:03.000Z</time>
      </trkpt>
      <trkpt lat="43.57265" lon="6.80477">
        <ele>157.72</ele>
        <time>2019-12-08T13:25:04.000Z</time>
      </trkpt>
      <trkpt lat="43.5726" lon="6.80472">
        <ele>157.82</ele>
        <time>2019-12-08T13:25:05.000Z</time>
      </trkpt>
      <trkpt lat="43.57254" lon="6.80467">
        <ele>157.88</ele>
        <time>2019-12-08T13:25:06.000Z</time>
      </trkpt>
      <trkpt lat="43.57249" lon="6.80462">
        <ele>157.85</ele>
        <time>2019-12-08T13:25:07.000Z</time>
      </trkpt>
      <trkpt lat="43.57243" lon="6.80456">
        <ele>157.87</ele>
        <time>2019-12-08T13:25:08.000Z</time>
      </trkpt>
      <trkpt lat="43.57237" lon="6.80451">
        <ele>157.86</ele>
        <time>2019-12-08T13:25:09.000Z</time>
      </trkpt>
      <trkpt lat="43.57231" lon="6.80446">
        <ele>157.74</ele>
        <time>2019-12-08T13:25:10.000Z</time>
      </trkpt>
      <trkpt lat="43.57226" lon="6.80441">
        <ele>157.57</ele>
        <time>2019-12-08T13:25:11.000Z</time>
      </trkpt>
      <trkpt lat="43.5722" lon="6.80435">
        <ele>157.5</ele>
        <time>2019-12-08T13:25:12.000Z</time>
      </trkpt>
      <trkpt lat="43.57214" lon="6.8043">
        <ele>157.45</ele>
        <time>2019-12-08T13:25:13.000Z</time>
      </trkpt>
      <trkpt lat="43.57208" lon="6.80424">
        <ele>157.37</ele>
        <time>2019-12-08T13:25:14.000Z</time>
      </trkpt>
      <trkpt lat="43.57202" lon="6.80419">
        <ele>157.39</ele>
        <time>2019-12-08T13:25:15.000Z</time>
      </trkpt>
      <trkpt lat="43.57196" lon="6.80413">
        <ele>157.26</ele>
        <time>2019-12-08T13:25:16.000Z</time>
      </trkpt>
      <trkpt lat="43.5719" lon="6.80408">
        <ele>157.16</ele>
        <time>2019-12-08T13:25:17.000Z</time>
      </trkpt>
      <trkpt lat="43.57184" lon="6.80403">
        <ele>157.03</ele>
        <time>2019-12-08T13:25:18.000Z</time>
      </trkpt>
      <trkpt lat="43.57178" lon="6.80397">
        <ele>156.94</ele>
        <time>2019-12-08T13:25:19.000Z</time>
      </trkpt>
      <trkpt lat="43.57172" lon="6.80392">
        <ele>156.89</ele>
        <time>2019-12-08T13:25:20.000Z</time>
      </trkpt>
      <trkpt lat="43.57167" lon="6.80387">
        <ele>156.86</ele>
        <time>2019-12-08T13:25:21.000Z</time>
      </trkpt>
      <trkpt lat="43.57161" lon="6.80382">
        <ele>156.87</ele>
        <time>2019-12-08T13:25:22.000Z</time>
      </trkpt>
      <trkpt lat="43.57155" lon="6.80377">
        <ele>156.83</ele>
        <time>2019-12-08T13:25:23.000Z</time>
      </trkpt>
      <trkpt lat="43.5715" lon="6.80372">
        <ele>156.94</ele>
        <time>2019-12-08T13:25:24.000Z</time>
      </trkpt>
      <trkpt lat="43.57145" lon="6.80368">
        <ele>156.96</ele>
        <time>2019-12-08T13:25:25.000Z</time>
      </trkpt>
      <trkpt lat="43.5714" lon="6.80363">
        <ele>157.08</ele>
        <time>2019-12-08T13:25:26.000Z</time>
      </trkpt>
      <trkpt lat="43.57134" lon="6.80358">
        <ele>157.27</ele>
        <time>2019-12-08T13:25:27.000Z</time>
      </trkpt>
      <trkpt lat="43.57129" lon="6.80354">
        <ele>157.31</ele>
        <time>2019-12-08T13:25:28.000Z</time>
      </trkpt>
      <trkpt lat="43.57124" lon="6.8035">
        <ele>157.29</ele>
        <time>2019-12-08T13:25:29.000Z</time>
      </trkpt>
      <trkpt lat="43.57119" lon="6.80345">
        <ele>157.4</ele>
        <time>2019-12-08T13:25:30.000Z</time>
      </trkpt>
      <trkpt lat="43.57114" lon="6.80341">
        <ele>157.48</ele>
        <time>2019-12-08T13:25:31.000Z</time>
      </trkpt>
      <trkpt lat="43.5711" lon="6.80337">
        <ele>157.54</ele>
        <time>2019-12-08T13:25:32.000Z</time>
      </trkpt>
      <trkpt lat="43.57105" lon="6.80333">
        <ele>157.64</ele>
        <time>2019-12-08T13:25:33.000Z</time>
      </trkpt>
      <trkpt lat="43.57101" lon="6.80329">
        <ele>157.8</ele>
        <time>2019-12-08T13:25:34.000Z</time>
      </trkpt>
      <trkpt lat="43.57097" lon="6.80326">
        <ele>157.88</ele>
        <time>2019-12-08T13:25:35.000Z</time>
      </trkpt>
      <trkpt lat="43.57093" lon="6.80322">
        <ele>158.08</ele>
        <time>2019-12-08T13:25:36.000Z</time>
      </trkpt>
      <trkpt lat="43.57089" lon="6.80319">
        <ele>158.23</ele>
        <time>2019-12-08T13:25:37.000Z</time>
      </trkpt>
      <trkpt lat="43.57085" lon="6.80315">
        <ele>158.29</ele>
        <time>2019-12-08T13:25:38.000Z</time>
      </trkpt>
      <trkpt lat="43.57082" lon="6.80312">
        <ele>158.54</ele>
        <time>2019-12-08T13:25:39.000Z</time>
      </trkpt>
      <trkpt lat="43.57078" lon="6.80309">
        <ele>158.68</ele>
        <time>2019-12-08T13:25:40.000Z</time>
      </trkpt>
      <trkpt lat="43.57074" lon="6.80306">
        <ele>158.73</ele>
        <time>2019-12-08T13:25:41.000Z</time>
      </trkpt>
      <trkpt lat="43.5707" lon="6.80303">
        <ele>158.9</ele>
        <time>2019-12-08T13:25:42.000Z</time>
      </trkpt>
      <trkpt lat="43.57066" lon="6.803">
        <ele>159.11</ele>
        <time>2019-12-08T13:25:43.000Z</time>
      </trkpt>
      <trkpt lat="43.57062" lon="6.80297">
        <ele>159.31</ele>
        <time>2019-12-08T13:25:44.000Z</time>
      </trkpt>
      <trkpt lat="43.57058" lon="6.80294">
        <ele>159.63</ele>
        <time>2019-12-08T13:25:45.000Z</time>
      </trkpt>
      <trkpt lat="43.57054" lon="6.80292">
        <ele>159.78</ele>
        <time>2019-12-08T13:25:46.000Z</time>
      </trkpt>
      <trkpt lat="43.57049" lon="6.80289">
        <ele>159.98</ele>
        <time>2019-12-08T13:25:47.000Z</time>
      </trkpt>
      <trkpt lat="43.57045" lon="6.80287">
        <ele>160.14</ele>
        <time>2019-12-08T13:25:48.000Z</time>
      </trkpt>
      <trkpt lat="43.57041" lon="6.80285">
        <ele>160.32</ele>
        <time>2019-12-08T13:25:49.000Z</time>
      </trkpt>
      <trkpt lat="43.57037" lon="6.80282">
        <ele>160.38</ele>
        <time>2019-12-08T13:25:50.000Z</time>
      </trkpt>
      <trkpt lat="43.57032" lon="6.8028">
        <ele>160.56</ele>
        <time>2019-12-08T13:25:51.000Z</time>
      </trkpt>
      <trkpt lat="43.57028" lon="6.80278">
        <ele>160.74</ele>
        <time>2019-12-08T13:25:52.000Z</time>
      </trkpt>
      <trkpt lat="43.57023" lon="6.80277">
        <ele>160.83</ele>
        <time>2019-12-08T13:25:53.000Z</time>
      </trkpt>
      <trkpt lat="43.57019" lon="6.80275">
        <ele>160.87</ele>
        <time>2019-12-08T13:25:54.000Z</time>
      </trkpt>
      <trkpt lat="43.57014" lon="6.80274">
        <ele>161.06</ele>
        <time>2019-12-08T13:25:55.000Z</time>
      </trkpt>
      <trkpt lat="43.5701" lon="6.80272">
        <ele>161.21</ele>
        <time>2019-12-08T13:25:56.000Z</time>
      </trkpt>
      <trkpt lat="43.57005" lon="6.80271">
        <ele>161.48</ele>
        <time>2019-12-08T13:25:57.000Z</time>
      </trkpt>
      <trkpt lat="43.57001" lon="6.8027">
        <ele>161.62</ele>
        <time>2019-12-08T13:25:58.000Z</time>
      </trkpt>
      <trkpt lat="43.56997" lon="6.80269">
        <ele>161.78</ele>
        <time>2019-12-08T13:25:59.000Z</time>
      </trkpt>
      <trkpt lat="43.56992" lon="6.80268">
        <ele>161.85</ele>
        <time>2019-12-08T13:26:00.000Z</time>
      </trkpt>
      <trkpt lat="43.56988" lon="6.80267">
        <ele>161.98</ele>
        <time>2019-12-08T13:26:01.000Z</time>
      </trkpt>
      <trkpt lat="43.56983" lon="6.80266">
        <ele>162.04</ele>
        <time>2019-12-08T13:26:02.000Z</time>
      </trkpt>
      <trkpt lat="43.56979" lon="6.80265">
        <ele>162.22</ele>
        <time>2019-12-08T13:26:03.000Z</time>
      </trkpt>
      <trkpt lat="43.56974" lon="6.80264">
        <ele>162.46</ele>
        <time>2019-12-08T13:26:04.000Z</time>
      </trkpt>
      <trkpt lat="43.56969" lon="6.80263">
        <ele>162.62</ele>
        <time>2019-12-08T13:26:05.000Z</time>
      </trkpt>
      <trkpt lat="43.56965" lon="6.80262">
        <ele>162.71</ele>
        <time>2019-12-08T13:26:06.000Z</time>
      </trkpt>
      <trkpt lat="43.5696" lon="6.80261">
        <ele>162.74</ele>
        <time>2019-12-08T13:26:07.000Z</time>
      </trkpt>
      <trkpt lat="43.56955" lon="6.8026">
        <ele>162.76</ele>
        <time>2019-12-08T13:26:08.000Z</time>
      </trkpt>
      <trkpt lat="43.5695" lon="6.80258">
        <ele>162.83</ele>
        <time>2019-12-08T13:26:09.000Z</time>
      </trkpt>
      <trkpt lat="43.56946" lon="6.80257">
        <ele>162.9</ele>
        <time>2019-12-08T13:26:10.000Z</time>
      </trkpt>
      <trkpt lat="43.56941" lon="6.80256">
        <ele>163.1</ele>
        <time>2019-12-08T13:26:11.000Z</time>
      </trkpt>
      <trkpt lat="43.56936" lon="6.80254">
        <ele>163.31</ele>
        <time>2019-12-08T13:26:12.000Z</time>
      </trkpt>
      <trkpt lat="43.56932" lon="6.80253">
        <ele>163.51</ele>
        <time>2019-12-08T13:26:13.000Z</time>
      </trkpt>
      <trkpt lat="43.56927" lon="6.80251">
        <ele>163.73</ele>
        <time>2019-12-08T13:26:14.000Z</time>
      </trkpt>
      <trkpt lat="43.56923" lon="6.8025">
        <ele>163.82</ele>
        <time>2019-12-08T13:26:15.000Z</time>
      </trkpt>
      <trkpt lat="43.56918" lon="6.80248">
        <ele>163.93</ele>
        <time>2019-12-08T13:26:16.000Z</time>
      </trkpt>
      <trkpt lat="43.56913" lon="6.80246">
        <ele>164.22</ele>
        <time>2019-12-08T13:26:17.000Z</time>
      </trkpt>
      <trkpt lat="43.56909" lon="6.80244">
        <ele>164.38</ele>
        <time>2019-12-08T13:26:18.000Z</time>
      </trkpt>
      <trkpt lat="43.56904" lon="6.80242">
        <ele>164.51</ele>
        <time>2019-12-08T13:26:19.000Z</time>
      </trkpt>
      <trkpt lat="43.56899" lon="6.8024">
        <ele>164.74</ele>
        <time>2019-12-08T13:26:20.000Z</time>
      </trkpt>
      <trkpt lat="43.56895" lon="6.80238">
        <ele>164.95</ele>
        <time>2019-12-08T13:26:21.000Z</time>
      </trkpt>
      <trkpt lat="43.5689" lon="6.80235">
        <ele>165.08</ele>
        <time>2019-12-08T13:26:22.000Z</time>
      </trkpt>
      <trkpt lat="43.56885" lon="6.80233">
        <ele>165.18</ele>
        <time>2019-12-08T13:26:23.000Z</time>
      </trkpt>
      <trkpt lat="43.56881" lon="6.8023">
        <ele>165.22</ele>
        <time>2019-12-08T13:26:24.000Z</time>
      </trkpt>
      <trkpt lat="43.56876" lon="6.80227">
        <ele>165.35</ele>
        <time>2019-12-08T13:26:25.000Z</time>
      </trkpt>
      <trkpt lat="43.56872" lon="6.80224">
        <ele>165.46</ele>
        <time>2019-12-08T13:26:26.000Z</time>
      </trkpt>
      <trkpt lat="43.56867" lon="6.80221">
        <ele>165.55</ele>
        <time>2019-12-08T13:26:27.000Z</time>
      </trkpt>
      <trkpt lat="43.56862" lon="6.80218">
        <ele>165.68</ele>
        <time>2019-12-08T13:26:28.000Z</time>
      </trkpt>
      <trkpt lat="43.56858" lon="6.80215">
        <ele>165.79</ele>
        <time>2019-12-08T13:26:29.000Z</time>
      </trkpt>
      <trkpt lat="43.56853" lon="6.80212">
        <ele>165.79</ele>
        <time>2019-12-08T13:26:30.000Z</time>
      </trkpt>
      <trkpt lat="43.56848" lon="6.80208">
        <ele>165.81</ele>
        <time>2019-12-08T13:26:31.000Z</time>
      </trkpt>
      <trkpt lat="43.56843" lon="6.80204">
        <ele>165.81</ele>
        <time>2019-12-08T13:26:32.000Z</time>
      </trkpt>
      <trkpt lat="43.56838" lon="6.80201">
        <ele>165.78</ele>
        <time>2019-12-08T13:26:33.000Z</time>
      </trkpt>
      <trkpt lat="43.56833" lon="6.80197">
        <ele>165.77</ele>
        <time>2019-12-08T13:26:34.000Z</time>
      </trkpt>
      <trkpt lat="43.56828" lon="6.80193">
        <ele>165.77</ele>
        <time>2019-12-08T13:26:35.000Z</time>
      </trkpt>
      <trkpt lat="43.56823" lon="6.80189">
        <ele>165.8</ele>
        <time>2019-12-08T13:26:36.000Z</time>
      </trkpt>
      <trkpt lat="43.56818" lon="6.80185">
        <ele>165.81</ele>
        <time>2019-12-08T13:26:37.000Z</time>
      </trkpt>
      <trkpt lat="43.56813" lon="6.80181">
        <ele>165.83</ele>
        <time>2019-12-08T13:26:38.000Z</time>
      </trkpt>
      <trkpt lat="43.56808" lon="6.80177">
        <ele>165.83</ele>
        <time>2019-12-08T13:26:39.000Z</time>
      </trkpt>
      <trkpt lat="43.56802" lon="6.80172">
        <ele>165.81</ele>
        <time>2019-12-08T13:26:40.000Z</time>
      </trkpt>
      <trkpt lat="43.56797" lon="6.80168">
        <ele>165.7</ele>
        <time>2019-12-08T13:26:41.000Z</time>
      </trkpt>
      <trkpt lat="43.56792" lon="6.80163">
        <ele>165.53</ele>
        <time>2019-12-08T13:26:42.000Z</time>
      </trkpt>
      <trkpt lat="43.56787" lon="6.80159">
        <ele>165.45</ele>
        <time>2019-12-08T13:26:43.000Z</time>
      </trkpt>
      <trkpt lat="43.56782" lon="6.80154">
        <ele>165.41</ele>
        <time>2019-12-08T13:26:44.000Z</time>
      </trkpt>
      <trkpt lat="43.56776" lon="6.8015">
        <ele>165.39</ele>
        <time>2019-12-08T13:26:45.000Z</time>
      </trkpt>
      <trkpt lat="43.56771" lon="6.80145">
        <ele>165.51</ele>
        <time>2019-12-08T13:26:46.000Z</time>
      </trkpt>
      <trkpt lat="43.56765" lon="6.8014">
        <ele>165.61</ele>
        <time>2019-12-08T13:26:47.000Z</time>
      </trkpt>
      <trkpt lat="43.5676" lon="6.80136">
        <ele>165.63</ele>
        <time>2019-12-08T13:26:48.000Z</time>
      </trkpt>
      <trkpt lat="43.56754" lon="6.80131">
        <ele>165.65</ele>
        <time>2019-12-08T13:26:49.000Z</time>
      </trkpt>
      <trkpt lat="43.56749" lon="6.80127">
        <ele>165.54</ele>
        <time>2019-12-08T13:26:50.000Z</time>
      </trkpt>
      <trkpt lat="43.56743" lon="6.80122">
        <ele>165.37</ele>
        <time>2019-12-08T13:26:51.000Z</time>
      </trkpt>
      <trkpt lat="43.56738" lon="6.80118">
        <ele>165.42</ele>
        <time>2019-12-08T13:26:52.000Z</time>
      </trkpt>
      <trkpt lat="43.56732" lon="6.80114">
        <ele>165.32</ele>
        <time>2019-12-08T13:26:53.000Z</time>
      </trkpt>
      <trkpt lat="43.56726" lon="6.80109">
        <ele>165.18</ele>
        <time>2019-12-08T13:26:54.000Z</time>
      </trkpt>
      <trkpt lat="43.5672" lon="6.80105">
        <ele>165.06</ele>
        <time>2019-12-08T13:26:55.000Z</time>
      </trkpt>
      <trkpt lat="43.56713" lon="6.801">
        <ele>164.96</ele>
        <time>2019-12-08T13:26:56.000Z</time>
      </trkpt>
      <trkpt lat="43.56707" lon="6.80096">
        <ele>164.65</ele>
        <time>2019-12-08T13:26:57.000Z</time>
      </trkpt>
      <trkpt lat="43.567" lon="6.80092">
        <ele>164.43</ele>
        <time>2019-12-08T13:26:58.000Z</time>
      </trkpt>
      <trkpt lat="43.56693" lon="6.80088">
        <ele>164.2</ele>
        <time>2019-12-08T13:26:59.000Z</time>
      </trkpt>
      <trkpt lat="43.56686" lon="6.80084">
        <ele>164.01</ele>
        <time>2019-12-08T13:27:00.000Z</time>
      </trkpt>
      <trkpt lat="43.56679" lon="6.8008">
        <ele>163.65</ele>
        <time>2019-12-08T13:27:01.000Z</time>
      </trkpt>
      <trkpt lat="43.56671" lon="6.80076">
        <ele>163.33</ele>
        <time>2019-12-08T13:27:02.000Z</time>
      </trkpt>
      <trkpt lat="43.56663" lon="6.80072">
        <ele>162.9</ele>
        <time>2019-12-08T13:27:03.000Z</time>
      </trkpt>
      <trkpt lat="43.56656" lon="6.80068">
        <ele>162.7</ele>
        <time>2019-12-08T13:27:04.000Z</time>
      </trkpt>
      <trkpt lat="43.56648" lon="6.80065">
        <ele>162.35</ele>
        <time>2019-12-08T13:27:05.000Z</time>
      </trkpt>
      <trkpt lat="43.56639" lon="6.80061">
        <ele>161.96</ele>
        <time>2019-12-08T13:27:06.000Z</time>
      </trkpt>
      <trkpt lat="43.56631" lon="6.80058">
        <ele>161.56</ele>
        <time>2019-12-08T13:27:07.000Z</time>
      </trkpt>
      <trkpt lat="43.56623" lon="6.80054">
        <ele>161.37</ele>
        <time>2019-12-08T13:27:08.000Z</time>
      </trkpt>
      <trkpt lat="43.56615" lon="6.80051">
        <ele>160.99</ele>
        <time>2019-12-08T13:27:09.000Z</time>
      </trkpt>
      <trkpt lat="43.56607" lon="6.80047">
        <ele>160.68</ele>
        <time>2019-12-08T13:27:10.000Z</time>
      </trkpt>
      <trkpt lat="43.56599" lon="6.80044">
        <ele>160.54</ele>
        <time>2019-12-08T13:27:11.000Z</time>
      </trkpt>
      <trkpt lat="43.56591" lon="6.80041">
        <ele>160.48</ele>
        <time>2019-12-08T13:27:12.000Z</time>
      </trkpt>
      <trkpt lat="43.56583" lon="6.80038">
        <ele>160.47</ele>
        <time>2019-12-08T13:27:13.000Z</time>
      </trkpt>
      <trkpt lat="43.56575" lon="6.80034">
        <ele>160.41</ele>
        <time>2019-12-08T13:27:14.000Z</time>
      </trkpt>
      <trkpt lat="43.56567" lon="6.80031">
        <ele>160.29</ele>
        <time>2019-12-08T13:27:15.000Z</time>
      </trkpt>
      <trkpt lat="43.5656" lon="6.80028">
        <ele>160.28</ele>
        <time>2019-12-08T13:27:16.000Z</time>
      </trkpt>
      <trkpt lat="43.56552" lon="6.80025">
        <ele>160.28</ele>
        <time>2019-12-08T13:27:17.000Z</time>
      </trkpt>
      <trkpt lat="43.56545" lon="6.80022">
        <ele>160.24</ele>
        <time>2019-12-08T13:27:18.000Z</time>
      </trkpt>
      <trkpt lat="43.56538" lon="6.80019">
        <ele>160.29</ele>
        <time>2019-12-08T13:27:19.000Z</time>
      </trkpt>
      <trkpt lat="43.56531" lon="6.80016">
        <ele>160.29</ele>
        <time>2019-12-08T13:27:20.000Z</time>
      </trkpt>
      <trkpt lat="43.56524" lon="6.80013">
        <ele>160.17</ele>
        <time>2019-12-08T13:27:21.000Z</time>
      </trkpt>
      <trkpt lat="43.56517" lon="6.8001">
        <ele>160.03</ele>
        <time>2019-12-08T13:27:22.000Z</time>
      </trkpt>
      <trkpt lat="43.5651" lon="6.80007">
        <ele>159.95</ele>
        <time>2019-12-08T13:27:23.000Z</time>
      </trkpt>
      <trkpt lat="43.56503" lon="6.80004">
        <ele>159.88</ele>
        <time>2019-12-08T13:27:24.000Z</time>
      </trkpt>
      <trkpt lat="43.56496" lon="6.80002">
        <ele>159.79</ele>
        <time>2019-12-08T13:27:25.000Z</time>
      </trkpt>
      <trkpt lat="43.56488" lon="6.79999">
        <ele>159.83</ele>
        <time>2019-12-08T13:27:26.000Z</time>
      </trkpt>
      <trkpt lat="43.56481" lon="6.79996">
        <ele>159.83</ele>
        <time>2019-12-08T13:27:27.000Z</time>
      </trkpt>
      <trkpt lat="43.56474" lon="6.79993">
        <ele>159.73</ele>
        <time>2019-12-08T13:27:28.000Z</time>
      </trkpt>
      <trkpt lat="43.56466" lon="6.7999">
        <ele>159.54</ele>
        <time>2019-12-08T13:27:29.000Z</time>
      </trkpt>
      <trkpt lat="43.56459" lon="6.79987">
        <ele>159.42</ele>
        <time>2019-12-08T13:27:30.000Z</time>
      </trkpt>
      <trkpt lat="43.56451" lon="6.79984">
        <ele>159.13</ele>
        <time>2019-12-08T13:27:31.000Z</time>
      </trkpt>
      <trkpt lat="43.56443" lon="6.79981">
        <ele>158.8</ele>
        <time>2019-12-08T13:27:32.000Z</time>
      </trkpt>
      <trkpt lat="43.56435" lon="6.79978">
        <ele>158.65</ele>
        <time>2019-12-08T13:27:33.000Z</time>
      </trkpt>
      <trkpt lat="43.56427" lon="6.79974">
        <ele>158.29</ele>
        <time>2019-12-08T13:27:34.000Z</time>
      </trkpt>
      <trkpt lat="43.56419" lon="6.79971">
        <ele>157.94</ele>
        <time>2019-12-08T13:27:35.000Z</time>
      </trkpt>
      <trkpt lat="43.5641" lon="6.79967">
        <ele>157.56</ele>
        <time>2019-12-08T13:27:36.000Z</time>
      </trkpt>
      <trkpt lat="43.56401" lon="6.79965">
        <ele>157.37</ele>
        <time>2019-12-08T13:27:37.000Z</time>
      </trkpt>
      <trkpt lat="43.56392" lon="6.79962">
        <ele>157.1</ele>
        <time>2019-12-08T13:27:38.000Z</time>
      </trkpt>
      <trkpt lat="43.56383" lon="6.79961">
        <ele>156.63</ele>
        <time>2019-12-08T13:27:39.000Z</time>
      </trkpt>
      <trkpt lat="43.56374" lon="6.7996">
        <ele>156.32</ele>
        <time>2019-12-08T13:27:40.000Z</time>
      </trkpt>
      <trkpt lat="43.56365" lon="6.79961">
        <ele>156.14</ele>
        <time>2019-12-08T13:27:41.000Z</time>
      </trkpt>
      <trkpt lat="43.56356" lon="6.79962">
        <ele>155.85</ele>
        <time>2019-12-08T13:27:42.000Z</time>
      </trkpt>
      <trkpt lat="43.56347" lon="6.79963">
        <ele>155.47</ele>
        <time>2019-12-08T13:27:43.000Z</time>
      </trkpt>
      <trkpt lat="43.56338" lon="6.79966">
        <ele>155.42</ele>
        <time>2019-12-08T13:27:44.000Z</time>
      </trkpt>
      <trkpt lat="43.5633" lon="6.79968">
        <ele>155.32</ele>
        <time>2019-12-08T13:27:45.000Z</time>
      </trkpt>
      <trkpt lat="43.56321" lon="6.79972">
        <ele>155.04</ele>
        <time>2019-12-08T13:27:46.000Z</time>
      </trkpt>
      <trkpt lat="43.56313" lon="6.79976">
        <ele>154.92</ele>
        <time>2019-12-08T13:27:47.000Z</time>
      </trkpt>
      <trkpt lat="43.56304" lon="6.79981">
        <ele>154.77</ele>
        <time>2019-12-08T13:27:48.000Z</time>
      </trkpt>
      <trkpt lat="43.56297" lon="6.79987">
        <ele>154.56</ele>
        <time>2019-12-08T13:27:49.000Z</time>
      </trkpt>
      <trkpt lat="43.5629" lon="6.79995">
        <ele>154.41</ele>
        <time>2019-12-08T13:27:50.000Z</time>
      </trkpt>
      <trkpt lat="43.56283" lon="6.80003">
        <ele>154.3</ele>
        <time>2019-12-08T13:27:51.000Z</time>
      </trkpt>
      <trkpt lat="43.56276" lon="6.80011">
        <ele>154.03</ele>
        <time>2019-12-08T13:27:52.000Z</time>
      </trkpt>
      <trkpt lat="43.56269" lon="6.80019">
        <ele>153.89</ele>
        <time>2019-12-08T13:27:53.000Z</time>
      </trkpt>
      <trkpt lat="43.56262" lon="6.80027">
        <ele>153.87</ele>
        <time>2019-12-08T13:27:54.000Z</time>
      </trkpt>
      <trkpt lat="43.56255" lon="6.80035">
        <ele>153.91</ele>
        <time>2019-12-08T13:27:55.000Z</time>
      </trkpt>
      <trkpt lat="43.56247" lon="6.80043">
        <ele>153.94</ele>
        <time>2019-12-08T13:27:56.000Z</time>
      </trkpt>
      <trkpt lat="43.5624" lon="6.8005">
        <ele>153.89</ele>
        <time>2019-12-08T13:27:57.000Z</time>
      </trkpt>
      <trkpt lat="43.56234" lon="6.80058">
        <ele>154.01</ele>
        <time>2019-12-08T13:27:58.000Z</time>
      </trkpt>
      <trkpt lat="43.56227" lon="6.80066">
        <ele>153.95</ele>
        <time>2019-12-08T13:27:59.000Z</time>
      </trkpt>
      <trkpt lat="43.5622" lon="6.80073">
        <ele>153.93</ele>
        <time>2019-12-08T13:28:00.000Z</time>
      </trkpt>
      <trkpt lat="43.56214" lon="6.80081">
        <ele>154.01</ele>
        <time>2019-12-08T13:28:01.000Z</time>
      </trkpt>
      <trkpt lat="43.56207" lon="6.80088">
        <ele>154.01</ele>
        <time>2019-12-08T13:28:02.000Z</time>
      </trkpt>
      <trkpt lat="43.562" lon="6.80096">
        <ele>153.95</ele>
        <time>2019-12-08T13:28:03.000Z</time>
      </trkpt>
      <trkpt lat="43.56193" lon="6.80102">
        <ele>153.96</ele>
        <time>2019-12-08T13:28:04.000Z</time>
      </trkpt>
      <trkpt lat="43.56186" lon="6.80108">
        <ele>153.98</ele>
        <time>2019-12-08T13:28:05.000Z</time>
      </trkpt>
      <trkpt lat="43.56178" lon="6.80111">
        <ele>153.97</ele>
        <time>2019-12-08T13:28:06.000Z</time>
      </trkpt>
      <trkpt lat="43.5617" lon="6.80112">
        <ele>154.04</ele>
        <time>2019-12-08T13:28:07.000Z</time>
      </trkpt>
      <trkpt lat="43.56162" lon="6.80112">
        <ele>154.11</ele>
        <time>2019-12-08T13:28:08.000Z</time>
      </trkpt>
      <trkpt lat="43.56155" lon="6.8011">
        <ele>154.19</ele>
        <time>2019-12-08T13:28:09.000Z</time>
      </trkpt>
      <trkpt lat="43.56148" lon="6.80107">
        <ele>154.19</ele>
        <time>2019-12-08T13:28:10.000Z</time>
      </trkpt>
      <trkpt lat="43.56141" lon="6.80103">
        <ele>154.34</ele>
        <time>2019-12-08T13:28:11.000Z</time>
      </trkpt>
      <trkpt lat="43.56135" lon="6.80098">
        <ele>154.64</ele>
        <time>2019-12-08T13:28:12.000Z</time>
      </trkpt>
      <trkpt lat="43.5613" lon="6.80092">
        <ele>154.9</ele>
        <time>2019-12-08T13:28:13.000Z</time>
      </trkpt>
      <trkpt lat="43.56125" lon="6.80085">
        <ele>155.09</ele>
        <time>2019-12-08T13:28:14.000Z</time>
      </trkpt>
      <trkpt lat="43.56121" lon="6.80079">
        <ele>155.48</ele>
        <time>2019-12-08T13:28:15.000Z</time>
      </trkpt>
      <trkpt lat="43.56117" lon="6.80072">
        <ele>155.7</ele>
        <time>2019-12-08T13:28:16.000Z</time>
      </trkpt>
      <trkpt lat="43.56113" lon="6.80065">
        <ele>155.97</ele>
        <time>2019-12-08T13:28:17.000Z</time>
      </trkpt>
      <trkpt lat="43.5611" lon="6.80058">
        <ele>156.11</ele>
        <time>2019-12-08T13:28:18.000Z</time>
      </trkpt>
      <trkpt lat="43.56107" lon="6.80052">
        <ele>156.28</ele>
        <time>2019-12-08T13:28:19.000Z</time>
      </trkpt>
      <trkpt lat="43.56104" lon="6.80045">
        <ele>156.56</ele>
        <time>2019-12-08T13:28:20.000Z</time>
      </trkpt>
      <trkpt lat="43.56101" lon="6.80039">
        <ele>156.76</ele>
        <time>2019-12-08T13:28:21.000Z</time>
      </trkpt>
      <trkpt lat="43.56098" lon="6.80032">
        <ele>156.94</ele>
        <time>2019-12-08T13:28:22.000Z</time>
      </trkpt>
      <trkpt lat="43.56095" lon="6.80025">
        <ele>157.13</ele>
        <time>2019-12-08T13:28:23.000Z</time>
      </trkpt>
      <trkpt lat="43.56092" lon="6.80018">
        <ele>157.4</ele>
        <time>2019-12-08T13:28:24.000Z</time>
      </trkpt>
      <trkpt lat="43.56089" lon="6.80011">
        <ele>157.81</ele>
        <time>2019-12-08T13:28:25.000Z</time>
      </trkpt>
      <trkpt lat="43.56086" lon="6.80004">
        <ele>158.06</ele>
        <time>2019-12-08T13:28:26.000Z</time>
      </trkpt>
      <trkpt lat="43.56083" lon="6.79998">
        <ele>158.48</ele>
        <time>2019-12-08T13:28:27.000Z</time>
      </trkpt>
      <trkpt lat="43.56079" lon="6.7999">
        <ele>158.92</ele>
        <time>2019-12-08T13:28:28.000Z</time>
      </trkpt>
      <trkpt lat="43.56076" lon="6.79984">
        <ele>159.24</ele>
        <time>2019-12-08T13:28:29.000Z</time>
      </trkpt>
      <trkpt lat="43.56073" lon="6.79977">
        <ele>159.44</ele>
        <time>2019-12-08T13:28:30.000Z</time>
      </trkpt>
      <trkpt lat="43.5607" lon="6.79969">
        <ele>159.57</ele>
        <time>2019-12-08T13:28:31.000Z</time>
      </trkpt>
      <trkpt lat="43.56067" lon="6.79962">
        <ele>159.71</ele>
        <time>2019-12-08T13:28:32.000Z</time>
      </trkpt>
      <trkpt lat="43.56064" lon="6.79955">
        <ele>160.01</ele>
        <time>2019-12-08T13:28:33.000Z</time>
      </trkpt>
      <trkpt lat="43.5606" lon="6.79948">
        <ele>160.35</ele>
        <time>2019-12-08T13:28:34.000Z</time>
      </trkpt>
      <trkpt lat="43.56057" lon="6.79941">
        <ele>160.54</ele>
        <time>2019-12-08T13:28:35.000Z</time>
      </trkpt>
      <trkpt lat="43.56054" lon="6.79935">
        <ele>160.88</ele>
        <time>2019-12-08T13:28:36.000Z</time>
      </trkpt>
      <trkpt lat="43.5605" lon="6.79928">
        <ele>161.28</ele>
        <time>2019-12-08T13:28:37.000Z</time>
      </trkpt>
      <trkpt lat="43.56046" lon="6.79922">
        <ele>161.64</ele>
        <time>2019-12-08T13:28:38.000Z</time>
      </trkpt>
      <trkpt lat="43.56043" lon="6.79915">
        <ele>161.84</ele>
        <time>2019-12-08T13:28:39.000Z</time>
      </trkpt>
      <trkpt lat="43.56038" lon="6.79909">
        <ele>162.23</ele>
        <time>2019-12-08T13:28:40.000Z</time>
      </trkpt>
      <trkpt lat="43.56034" lon="6.79903">
        <ele>162.58</ele>
        <time>2019-12-08T13:28:41.000Z</time>
      </trkpt>
      <trkpt lat="43.56029" lon="6.79897">
        <ele>162.87</ele>
        <time>2019-12-08T13:28:42.000Z</time>
      </trkpt>
      <trkpt lat="43.56024" lon="6.79891">
        <ele>162.91</ele>
        <time>2019-12-08T13:28:43.000Z</time>
      </trkpt>
      <trkpt lat="43.5602" lon="6.79886">
        <ele>162.99</ele>
        <time>2019-12-08T13:28:44.000Z</time>
      </trkpt>
      <trkpt lat="43.56015" lon="6.7988">
        <ele>163</ele>
        <time>2019-12-08T13:28:45.000Z</time>
      </trkpt>
      <trkpt lat="43.5601" lon="6.79875">
        <ele>163.05</ele>
        <time>2019-12-08T13:28:46.000Z</time>
      </trkpt>
      <trkpt lat="43.56004" lon="6.7987">
        <ele>163.05</ele>
        <time>2019-12-08T13:28:47.000Z</time>
      </trkpt>
      <trkpt lat="43.55999" lon="6.79866">
        <ele>163.11</ele>
        <time>2019-12-08T13:28:48.000Z</time>
      </trkpt>
      <trkpt lat="43.55993" lon="6.79861">
        <ele>163.12</ele>
        <time>2019-12-08T13:28:49.000Z</time>
      </trkpt>
      <trkpt lat="43.55988" lon="6.79857">
        <ele>163.09</ele>
        <time>2019-12-08T13:28:50.000Z</time>
      </trkpt>
      <trkpt lat="43.55982" lon="6.79853">
        <ele>163.07</ele>
        <time>2019-12-08T13:28:51.000Z</time>
      </trkpt>
      <trkpt lat="43.55975" lon="6.79849">
        <ele>163.03</ele>
        <time>2019-12-08T13:28:52.000Z</time>
      </trkpt>
      <trkpt lat="43.55969" lon="6.79846">
        <ele>162.98</ele>
        <time>2019-12-08T13:28:53.000Z</time>
      </trkpt>
      <trkpt lat="43.55963" lon="6.79842">
        <ele>162.96</ele>
        <time>2019-12-08T13:28:54.000Z</time>
      </trkpt>
      <trkpt lat="43.55956" lon="6.7984">
        <ele>162.92</ele>
        <time>2019-12-08T13:28:55.000Z</time>
      </trkpt>
      <trkpt lat="43.55949" lon="6.79838">
        <ele>162.83</ele>
        <time>2019-12-08T13:28:56.000Z</time>
      </trkpt>
      <trkpt lat="43.55943" lon="6.79835">
        <ele>162.8</ele>
        <time>2019-12-08T13:28:57.000Z</time>
      </trkpt>
      <trkpt lat="43.55936" lon="6.79834">
        <ele>162.82</ele>
        <time>2019-12-08T13:28:58.000Z</time>
      </trkpt>
      <trkpt lat="43.55929" lon="6.79832">
        <ele>162.8</ele>
        <time>2019-12-08T13:28:59.000Z</time>
      </trkpt>
      <trkpt lat="43.55922" lon="6.79831">
        <ele>162.83</ele>
        <time>2019-12-08T13:29:00.000Z</time>
      </trkpt>
      <trkpt lat="43.55914" lon="6.79831">
        <ele>162.79</ele>
        <time>2019-12-08T13:29:01.000Z</time>
      </trkpt>
      <trkpt lat="43.55907" lon="6.7983">
        <ele>162.75</ele>
        <time>2019-12-08T13:29:02.000Z</time>
      </trkpt>
      <trkpt lat="43.559" lon="6.79831">
        <ele>162.63</ele>
        <time>2019-12-08T13:29:03.000Z</time>
      </trkpt>
      <trkpt lat="43.55892" lon="6.79831">
        <ele>162.53</ele>
        <time>2019-12-08T13:29:04.000Z</time>
      </trkpt>
      <trkpt lat="43.55885" lon="6.79831">
        <ele>162.32</ele>
        <time>2019-12-08T13:29:05.000Z</time>
      </trkpt>
      <trkpt lat="43.55877" lon="6.79831">
        <ele>162.14</ele>
        <time>2019-12-08T13:29:06.000Z</time>
      </trkpt>
      <trkpt lat="43.5587" lon="6.79831">
        <ele>161.89</ele>
        <time>2019-12-08T13:29:07.000Z</time>
      </trkpt>
      <trkpt lat="43.55862" lon="6.79831">
        <ele>161.78</ele>
        <time>2019-12-08T13:29:08.000Z</time>
      </trkpt>
      <trkpt lat="43.55855" lon="6.7983">
        <ele>161.66</ele>
        <time>2019-12-08T13:29:09.000Z</time>
      </trkpt>
      <trkpt lat="43.55847" lon="6.79829">
        <ele>161.68</ele>
        <time>2019-12-08T13:29:10.000Z</time>
      </trkpt>
      <trkpt lat="43.5584" lon="6.79827">
        <ele>161.66</ele>
        <time>2019-12-08T13:29:11.000Z</time>
      </trkpt>
      <trkpt lat="43.55832" lon="6.79825">
        <ele>161.69</ele>
        <time>2019-12-08T13:29:12.000Z</time>
      </trkpt>
      <trkpt lat="43.55825" lon="6.79822">
        <ele>161.79</ele>
        <time>2019-12-08T13:29:13.000Z</time>
      </trkpt>
      <trkpt lat="43.55818" lon="6.7982">
        <ele>161.7</ele>
        <time>2019-12-08T13:29:14.000Z</time>
      </trkpt>
      <trkpt lat="43.55811" lon="6.79817">
        <ele>161.56</ele>
        <time>2019-12-08T13:29:15.000Z</time>
      </trkpt>
      <trkpt lat="43.55805" lon="6.79813">
        <ele>161.46</ele>
        <time>2019-12-08T13:29:16.000Z</time>
      </trkpt>
      <trkpt lat="43.55798" lon="6.79809">
        <ele>161.34</ele>
        <time>2019-12-08T13:29:17.000Z</time>
      </trkpt>
      <trkpt lat="43.55791" lon="6.79804">
        <ele>161.21</ele>
        <time>2019-12-08T13:29:18.000Z</time>
      </trkpt>
      <trkpt lat="43.55785" lon="6.79799">
        <ele>161.2</ele>
        <time>2019-12-08T13:29:19.000Z</time>
      </trkpt>
      <trkpt lat="43.55778" lon="6.79794">
        <ele>161.18</ele>
        <time>2019-12-08T13:29:20.000Z</time>
      </trkpt>
      <trkpt lat="43.55772" lon="6.79789">
        <ele>161.42</ele>
        <time>2019-12-08T13:29:21.000Z</time>
      </trkpt>
      <trkpt lat="43.55766" lon="6.79783">
        <ele>161.37</ele>
        <time>2019-12-08T13:29:22.000Z</time>
      </trkpt>
      <trkpt lat="43.55759" lon="6.79778">
        <ele>161.41</ele>
        <time>2019-12-08T13:29:23.000Z</time>
      </trkpt>
      <trkpt lat="43.55753" lon="6.79772">
        <ele>161.41</ele>
        <time>2019-12-08T13:29:24.000Z</time>
      </trkpt>
      <trkpt lat="43.55746" lon="6.79766">
        <ele>161.38</ele>
        <time>2019-12-08T13:29:25.000Z</time>
      </trkpt>
      <trkpt lat="43.5574" lon="6.7976">
        <ele>161.45</ele>
        <time>2019-12-08T13:29:26.000Z</time>
      </trkpt>
      <trkpt lat="43.55733" lon="6.79754">
        <ele>161.49</ele>
        <time>2019-12-08T13:29:27.000Z</time>
      </trkpt>
      <trkpt lat="43.55727" lon="6.79748">
        <ele>161.48</ele>
        <time>2019-12-08T13:29:28.000Z</time>
      </trkpt>
      <trkpt lat="43.5572" lon="6.79742">
        <ele>161.37</ele>
        <time>2019-12-08T13:29:29.000Z</time>
      </trkpt>
      <trkpt lat="43.55713" lon="6.79736">
        <ele>161.2</ele>
        <time>2019-12-08T13:29:30.000Z</time>
      </trkpt>
      <trkpt lat="43.55706" lon="6.79729">
        <ele>160.92</ele>
        <time>2019-12-08T13:29:31.000Z</time>
      </trkpt>
      <trkpt lat="43.55699" lon="6.79722">
        <ele>160.81</ele>
        <time>2019-12-08T13:29:32.000Z</time>
      </trkpt>
      <trkpt lat="43.55691" lon="6.79716">
        <ele>160.56</ele>
        <time>2019-12-08T13:29:33.000Z</time>
      </trkpt>
      <trkpt lat="43.55684" lon="6.79709">
        <ele>160.4</ele>
        <time>2019-12-08T13:29:34.000Z</time>
      </trkpt>
      <trkpt lat="43.55676" lon="6.79702">
        <ele>160.06</ele>
        <time>2019-12-08T13:29:35.000Z</time>
      </trkpt>
      <trkpt lat="43.55669" lon="6.79695">
        <ele>159.99</ele>
        <time>2019-12-08T13:29:36.000Z</time>
      </trkpt>
      <trkpt lat="43.55661" lon="6.79688">
        <ele>159.79</ele>
        <time>2019-12-08T13:29:37.000Z</time>
      </trkpt>
      <trkpt lat="43.55653" lon="6.79681">
        <ele>159.28</ele>
        <time>2019-12-08T13:29:38.000Z</time>
      </trkpt>
      <trkpt lat="43.55645" lon="6.79674">
        <ele>158.9</ele>
        <time>2019-12-08T13:29:39.000Z</time>
      </trkpt>
      <trkpt lat="43.55637" lon="6.79668">
        <ele>158.5</ele>
        <time>2019-12-08T13:29:40.000Z</time>
      </trkpt>
      <trkpt lat="43.55629" lon="6.79661">
        <ele>158.26</ele>
        <time>2019-12-08T13:29:41.000Z</time>
      </trkpt>
      <trkpt lat="43.5562" lon="6.79655">
        <ele>157.97</ele>
        <time>2019-12-08T13:29:42.000Z</time>
      </trkpt>
      <trkpt lat="43.55612" lon="6.79649">
        <ele>157.84</ele>
        <time>2019-12-08T13:29:43.000Z</time>
      </trkpt>
      <trkpt lat="43.55603" lon="6.79644">
        <ele>157.63</ele>
        <time>2019-12-08T13:29:44.000Z</time>
      </trkpt>
      <trkpt lat="43.55594" lon="6.79638">
        <ele>157.53</ele>
        <time>2019-12-08T13:29:45.000Z</time>
      </trkpt>
      <trkpt lat="43.55586" lon="6.79633">
        <ele>157.32</ele>
        <time>2019-12-08T13:29:46.000Z</time>
      </trkpt>
      <trkpt lat="43.55577" lon="6.79628">
        <ele>157.29</ele>
        <time>2019-12-08T13:29:47.000Z</time>
      </trkpt>
      <trkpt lat="43.55569" lon="6.79624">
        <ele>157.32</ele>
        <time>2019-12-08T13:29:48.000Z</time>
      </trkpt>
      <trkpt lat="43.5556" lon="6.7962">
        <ele>157.33</ele>
        <time>2019-12-08T13:29:49.000Z</time>
      </trkpt>
      <trkpt lat="43.55552" lon="6.79616">
        <ele>157.4</ele>
        <time>2019-12-08T13:29:50.000Z</time>
      </trkpt>
      <trkpt lat="43.55543" lon="6.79613">
        <ele>157.57</ele>
        <time>2019-12-08T13:29:51.000Z</time>
      </trkpt>
      <trkpt lat="43.55535" lon="6.7961">
        <ele>157.69</ele>
        <time>2019-12-08T13:29:52.000Z</time>
      </trkpt>
      <trkpt lat="43.55526" lon="6.79607">
        <ele>157.79</ele>
        <time>2019-12-08T13:29:53.000Z</time>
      </trkpt>
      <trkpt lat="43.55518" lon="6.79605">
        <ele>157.85</ele>
        <time>2019-12-08T13:29:54.000Z</time>
      </trkpt>
      <trkpt lat="43.55509" lon="6.79602">
        <ele>157.87</ele>
        <time>2019-12-08T13:29:55.000Z</time>
      </trkpt>
      <trkpt lat="43.55501" lon="6.796">
        <ele>157.87</ele>
        <time>2019-12-08T13:29:56.000Z</time>
      </trkpt>
      <trkpt lat="43.55492" lon="6.79598">
        <ele>157.77</ele>
        <time>2019-12-08T13:29:57.000Z</time>
      </trkpt>
      <trkpt lat="43.55483" lon="6.79597">
        <ele>157.61</ele>
        <time>2019-12-08T13:29:58.000Z</time>
      </trkpt>
      <trkpt lat="43.55475" lon="6.79595">
        <ele>157.43</ele>
        <time>2019-12-08T13:29:59.000Z</time>
      </trkpt>
      <trkpt lat="43.55466" lon="6.79594">
        <ele>157.17</ele>
        <time>2019-12-08T13:30:00.000Z</time>
      </trkpt>
      <trkpt lat="43.55457" lon="6.79592">
        <ele>157.06</ele>
        <time>2019-12-08T13:30:01.000Z</time>
      </trkpt>
      <trkpt lat="43.55448" lon="6.7959">
        <ele>156.86</ele>
        <time>2019-12-08T13:30:02.000Z</time>
      </trkpt>
      <trkpt lat="43.5544" lon="6.79589">
        <ele>156.58</ele>
        <time>2019-12-08T13:30:03.000Z</time>
      </trkpt>
      <trkpt lat="43.55431" lon="6.79588">
        <ele>156.42</ele>
        <time>2019-12-08T13:30:04.000Z</time>
      </trkpt>
      <trkpt lat="43.55421" lon="6.79586">
        <ele>156.35</ele>
        <time>2019-12-08T13:30:05.000Z</time>
      </trkpt>
      <trkpt lat="43.55412" lon="6.79585">
        <ele>156.18</ele>
        <time>2019-12-08T13:30:06.000Z</time>
      </trkpt>
      <trkpt lat="43.55403" lon="6.79584">
        <ele>156.11</ele>
        <time>2019-12-08T13:30:07.000Z</time>
      </trkpt>
      <trkpt lat="43.55394" lon="6.79584">
        <ele>156.09</ele>
        <time>2019-12-08T13:30:08.000Z</time>
      </trkpt>
      <trkpt lat="43.55385" lon="6.79584">
        <ele>155.93</ele>
        <time>2019-12-08T13:30:09.000Z</time>
      </trkpt>
      <trkpt lat="43.55376" lon="6.79584">
        <ele>155.91</ele>
        <time>2019-12-08T13:30:10.000Z</time>
      </trkpt>
      <trkpt lat="43.55367" lon="6.79586">
        <ele>155.82</ele>
        <time>2019-12-08T13:30:11.000Z</time>
      </trkpt>
      <trkpt lat="43.55357" lon="6.79587">
        <ele>155.72</ele>
        <time>2019-12-08T13:30:12.000Z</time>
      </trkpt>
      <trkpt lat="43.55348" lon="6.79589">
        <ele>155.67</ele>
        <time>2019-12-08T13:30:13.000Z</time>
      </trkpt>
      <trkpt lat="43.55339" lon="6.79592">
        <ele>155.59</ele>
        <time>2019-12-08T13:30:14.000Z</time>
      </trkpt>
      <trkpt lat="43.55331" lon="6.79595">
        <ele>155.44</ele>
        <time>2019-12-08T13:30:15.000Z</time>
      </trkpt>
      <trkpt lat="43.55322" lon="6.79598">
        <ele>155.44</ele>
        <time>2019-12-08T13:30:16.000Z</time>
      </trkpt>
      <trkpt lat="43.55313" lon="6.79602">
        <ele>155.44</ele>
        <time>2019-12-08T13:30:17.000Z</time>
      </trkpt>
      <trkpt lat="43.55305" lon="6.79606">
        <ele>155.22</ele>
        <time>2019-12-08T13:30:18.000Z</time>
      </trkpt>
      <trkpt lat="43.55296" lon="6.79609">
        <ele>155.07</ele>
        <time>2019-12-08T13:30:19.000Z</time>
      </trkpt>
      <trkpt lat="43.55288" lon="6.79613">
        <ele>154.85</ele>
        <time>2019-12-08T13:30:20.000Z</time>
      </trkpt>
      <trkpt lat="43.55279" lon="6.79617">
        <ele>154.65</ele>
        <time>2019-12-08T13:30:21.000Z</time>
      </trkpt>
      <trkpt lat="43.55271" lon="6.7962">
        <ele>154.54</ele>
        <time>2019-12-08T13:30:22.000Z</time>
      </trkpt>
      <trkpt lat="43.55263" lon="6.79624">
        <ele>154.37</ele>
        <time>2019-12-08T13:30:23.000Z</time>
      </trkpt>
      <trkpt lat="43.55256" lon="6.79627">
        <ele>154.19</ele>
        <time>2019-12-08T13:30:24.000Z</time>
      </trkpt>
      <trkpt lat="43.55248" lon="6.79629">
        <ele>154.13</ele>
        <time>2019-12-08T13:30:25.000Z</time>
      </trkpt>
      <trkpt lat="43.55241" lon="6.79625">
        <ele>154.12</ele>
        <time>2019-12-08T13:30:26.000Z</time>
      </trkpt>
      <trkpt lat="43.55236" lon="6.79617">
        <ele>154.1</ele>
        <time>2019-12-08T13:30:27.000Z</time>
      </trkpt>
      <trkpt lat="43.55231" lon="6.79609">
        <ele>154.01</ele>
        <time>2019-12-08T13:30:28.000Z</time>
      </trkpt>
      <trkpt lat="43.55228" lon="6.796">
        <ele>154.05</ele>
        <time>2019-12-08T13:30:29.000Z</time>
      </trkpt>
      <trkpt lat="43.55225" lon="6.7959">
        <ele>153.98</ele>
        <time>2019-12-08T13:30:30.000Z</time>
      </trkpt>
      <trkpt lat="43.55223" lon="6.7958">
        <ele>153.88</ele>
        <time>2019-12-08T13:30:31.000Z</time>
      </trkpt>
      <trkpt lat="43.55221" lon="6.7957">
        <ele>153.93</ele>
        <time>2019-12-08T13:30:32.000Z</time>
      </trkpt>
      <trkpt lat="43.55218" lon="6.79559">
        <ele>153.92</ele>
        <time>2019-12-08T13:30:33.000Z</time>
      </trkpt>
      <trkpt lat="43.55216" lon="6.79549">
        <ele>153.92</ele>
        <time>2019-12-08T13:30:34.000Z</time>
      </trkpt>
      <trkpt lat="43.55213" lon="6.79539">
        <ele>153.92</ele>
        <time>2019-12-08T13:30:35.000Z</time>
      </trkpt>
      <trkpt lat="43.55211" lon="6.79529">
        <ele>153.78</ele>
        <time>2019-12-08T13:30:36.000Z</time>
      </trkpt>
      <trkpt lat="43.55208" lon="6.79518">
        <ele>153.77</ele>
        <time>2019-12-08T13:30:37.000Z</time>
      </trkpt>
      <trkpt lat="43.55206" lon="6.79508">
        <ele>153.73</ele>
        <time>2019-12-08T13:30:38.000Z</time>
      </trkpt>
      <trkpt lat="43.55204" lon="6.79498">
        <ele>153.68</ele>
        <time>2019-12-08T13:30:39.000Z</time>
      </trkpt>
      <trkpt lat="43.55201" lon="6.79488">
        <ele>153.74</ele>
        <time>2019-12-08T13:30:40.000Z</time>
      </trkpt>
      <trkpt lat="43.55199" lon="6.79478">
        <ele>153.74</ele>
        <time>2019-12-08T13:30:41.000Z</time>
      </trkpt>
      <trkpt lat="43.55198" lon="6.79467">
        <ele>153.84</ele>
        <time>2019-12-08T13:30:42.000Z</time>
      </trkpt>
      <trkpt lat="43.55198" lon="6.79457">
        <ele>153.95</ele>
        <time>2019-12-08T13:30:43.000Z</time>
      </trkpt>
      <trkpt lat="43.55198" lon="6.79446">
        <ele>154.03</ele>
        <time>2019-12-08T13:30:44.000Z</time>
      </trkpt>
      <trkpt lat="43.552" lon="6.79436">
        <ele>154</ele>
        <time>2019-12-08T13:30:45.000Z</time>
      </trkpt>
      <trkpt lat="43.55202" lon="6.79425">
        <ele>153.98</ele>
        <time>2019-12-08T13:30:46.000Z</time>
      </trkpt>
      <trkpt lat="43.55205" lon="6.79415">
        <ele>153.83</ele>
        <time>2019-12-08T13:30:47.000Z</time>
      </trkpt>
      <trkpt lat="43.55208" lon="6.79404">
        <ele>153.63</ele>
        <time>2019-12-08T13:30:48.000Z</time>
      </trkpt>
      <trkpt lat="43.55211" lon="6.79394">
        <ele>153.46</ele>
        <time>2019-12-08T13:30:49.000Z</time>
      </trkpt>
      <trkpt lat="43.55214" lon="6.79383">
        <ele>153.21</ele>
        <time>2019-12-08T13:30:50.000Z</time>
      </trkpt>
      <trkpt lat="43.55217" lon="6.79371">
        <ele>153.09</ele>
        <time>2019-12-08T13:30:51.000Z</time>
      </trkpt>
      <trkpt lat="43.55219" lon="6.7936">
        <ele>152.77</ele>
        <time>2019-12-08T13:30:52.000Z</time>
      </trkpt>
      <trkpt lat="43.55221" lon="6.79347">
        <ele>152.11</ele>
        <time>2019-12-08T13:30:53.000Z</time>
      </trkpt>
      <trkpt lat="43.55222" lon="6.79334">
        <ele>151.23</ele>
        <time>2019-12-08T13:30:54.000Z</time>
      </trkpt>
      <trkpt lat="43.55222" lon="6.7932">
        <ele>150.72</ele>
        <time>2019-12-08T13:30:55.000Z</time>
      </trkpt>
      <trkpt lat="43.5522" lon="6.79305">
        <ele>149.56</ele>
        <time>2019-12-08T13:30:56.000Z</time>
      </trkpt>
      <trkpt lat="43.55217" lon="6.7929">
        <ele>148.35</ele>
        <time>2019-12-08T13:30:57.000Z</time>
      </trkpt>
      <trkpt lat="43.55214" lon="6.79275">
        <ele>147.23</ele>
        <time>2019-12-08T13:30:58.000Z</time>
      </trkpt>
      <trkpt lat="43.5521" lon="6.79259">
        <ele>146.74</ele>
        <time>2019-12-08T13:30:59.000Z</time>
      </trkpt>
      <trkpt lat="43.55208" lon="6.79242">
        <ele>145.69</ele>
        <time>2019-12-08T13:31:00.000Z</time>
      </trkpt>
      <trkpt lat="43.55207" lon="6.79225">
        <ele>144.55</ele>
        <time>2019-12-08T13:31:01.000Z</time>
      </trkpt>
      <trkpt lat="43.55205" lon="6.79209">
        <ele>143.43</ele>
        <time>2019-12-08T13:31:02.000Z</time>
      </trkpt>
      <trkpt lat="43.55203" lon="6.79192">
        <ele>143.43</ele>
        <time>2019-12-08T13:31:03.000Z</time>
      </trkpt>
      <trkpt lat="43.55199" lon="6.79176">
        <ele>142.13</ele>
        <time>2019-12-08T13:31:04.000Z</time>
      </trkpt>
      <trkpt lat="43.55194" lon="6.79161">
        <ele>140.93</ele>
        <time>2019-12-08T13:31:05.000Z</time>
      </trkpt>
      <trkpt lat="43.55188" lon="6.79146">
        <ele>139.97</ele>
        <time>2019-12-08T13:31:06.000Z</time>
      </trkpt>
      <trkpt lat="43.55183" lon="6.79132">
        <ele>139.62</ele>
        <time>2019-12-08T13:31:07.000Z</time>
      </trkpt>
      <trkpt lat="43.55178" lon="6.79118">
        <ele>138.78</ele>
        <time>2019-12-08T13:31:08.000Z</time>
      </trkpt>
      <trkpt lat="43.55172" lon="6.79105">
        <ele>138</ele>
        <time>2019-12-08T13:31:09.000Z</time>
      </trkpt>
      <trkpt lat="43.55166" lon="6.79093">
        <ele>137.28</ele>
        <time>2019-12-08T13:31:10.000Z</time>
      </trkpt>
      <trkpt lat="43.55158" lon="6.79082">
        <ele>136.91</ele>
        <time>2019-12-08T13:31:11.000Z</time>
      </trkpt>
      <trkpt lat="43.5515" lon="6.79073">
        <ele>136.25</ele>
        <time>2019-12-08T13:31:12.000Z</time>
      </trkpt>
      <trkpt lat="43.55141" lon="6.79065">
        <ele>135.82</ele>
        <time>2019-12-08T13:31:13.000Z</time>
      </trkpt>
      <trkpt lat="43.55131" lon="6.79059">
        <ele>135.46</ele>
        <time>2019-12-08T13:31:14.000Z</time>
      </trkpt>
      <trkpt lat="43.55122" lon="6.79053">
        <ele>135.25</ele>
        <time>2019-12-08T13:31:15.000Z</time>
      </trkpt>
      <trkpt lat="43.55113" lon="6.79046">
        <ele>134.94</ele>
        <time>2019-12-08T13:31:16.000Z</time>
      </trkpt>
      <trkpt lat="43.55103" lon="6.7904">
        <ele>134.5</ele>
        <time>2019-12-08T13:31:17.000Z</time>
      </trkpt>
      <trkpt lat="43.55094" lon="6.79034">
        <ele>134.16</ele>
        <time>2019-12-08T13:31:18.000Z</time>
      </trkpt>
      <trkpt lat="43.55084" lon="6.79029">
        <ele>133.8</ele>
        <time>2019-12-08T13:31:19.000Z</time>
      </trkpt>
      <trkpt lat="43.55075" lon="6.79023">
        <ele>133.62</ele>
        <time>2019-12-08T13:31:20.000Z</time>
      </trkpt>
      <trkpt lat="43.55065" lon="6.79017">
        <ele>133.22</ele>
        <time>2019-12-08T13:31:21.000Z</time>
      </trkpt>
      <trkpt lat="43.55056" lon="6.79011">
        <ele>132.91</ele>
        <time>2019-12-08T13:31:22.000Z</time>
      </trkpt>
      <trkpt lat="43.55047" lon="6.79005">
        <ele>132.69</ele>
        <time>2019-12-08T13:31:23.000Z</time>
      </trkpt>
      <trkpt lat="43.55038" lon="6.79">
        <ele>132.34</ele>
        <time>2019-12-08T13:31:24.000Z</time>
      </trkpt>
      <trkpt lat="43.55029" lon="6.78994">
        <ele>132.07</ele>
        <time>2019-12-08T13:31:25.000Z</time>
      </trkpt>
      <trkpt lat="43.5502" lon="6.78988">
        <ele>131.85</ele>
        <time>2019-12-08T13:31:26.000Z</time>
      </trkpt>
      <trkpt lat="43.55013" lon="6.7898">
        <ele>131.62</ele>
        <time>2019-12-08T13:31:27.000Z</time>
      </trkpt>
      <trkpt lat="43.55005" lon="6.7897">
        <ele>131.51</ele>
        <time>2019-12-08T13:31:28.000Z</time>
      </trkpt>
      <trkpt lat="43.54999" lon="6.7896">
        <ele>131.18</ele>
        <time>2019-12-08T13:31:29.000Z</time>
      </trkpt>
      <trkpt lat="43.54993" lon="6.78949">
        <ele>130.71</ele>
        <time>2019-12-08T13:31:30.000Z</time>
      </trkpt>
      <trkpt lat="43.54987" lon="6.78938">
        <ele>130.24</ele>
        <time>2019-12-08T13:31:31.000Z</time>
      </trkpt>
      <trkpt lat="43.54982" lon="6.78926">
        <ele>130.03</ele>
        <time>2019-12-08T13:31:32.000Z</time>
      </trkpt>
      <trkpt lat="43.54978" lon="6.78914">
        <ele>129.65</ele>
        <time>2019-12-08T13:31:33.000Z</time>
      </trkpt>
      <trkpt lat="43.54974" lon="6.78901">
        <ele>129.45</ele>
        <time>2019-12-08T13:31:34.000Z</time>
      </trkpt>
      <trkpt lat="43.54971" lon="6.78889">
        <ele>129.24</ele>
        <time>2019-12-08T13:31:35.000Z</time>
      </trkpt>
      <trkpt lat="43.54968" lon="6.78876">
        <ele>129.15</ele>
        <time>2019-12-08T13:31:36.000Z</time>
      </trkpt>
      <trkpt lat="43.54966" lon="6.78863">
        <ele>128.99</ele>
        <time>2019-12-08T13:31:37.000Z</time>
      </trkpt>
      <trkpt lat="43.54967" lon="6.78849">
        <ele>128.99</ele>
        <time>2019-12-08T13:31:38.000Z</time>
      </trkpt>
      <trkpt lat="43.54968" lon="6.78836">
        <ele>128.7</ele>
        <time>2019-12-08T13:31:39.000Z</time>
      </trkpt>
      <trkpt lat="43.54971" lon="6.78822">
        <ele>128.52</ele>
        <time>2019-12-08T13:31:40.000Z</time>
      </trkpt>
      <trkpt lat="43.54974" lon="6.78808">
        <ele>128.18</ele>
        <time>2019-12-08T13:31:41.000Z</time>
      </trkpt>
      <trkpt lat="43.54978" lon="6.78795">
        <ele>127.8</ele>
        <time>2019-12-08T13:31:42.000Z</time>
      </trkpt>
      <trkpt lat="43.54983" lon="6.78782">
        <ele>127.56</ele>
        <time>2019-12-08T13:31:43.000Z</time>
      </trkpt>
      <trkpt lat="43.5499" lon="6.78769">
        <ele>127.41</ele>
        <time>2019-12-08T13:31:44.000Z</time>
      </trkpt>
      <trkpt lat="43.54997" lon="6.78757">
        <ele>126.98</ele>
        <time>2019-12-08T13:31:45.000Z</time>
      </trkpt>
      <trkpt lat="43.55005" lon="6.78746">
        <ele>126.6</ele>
        <time>2019-12-08T13:31:46.000Z</time>
      </trkpt>
      <trkpt lat="43.55014" lon="6.78735">
        <ele>126.07</ele>
        <time>2019-12-08T13:31:47.000Z</time>
      </trkpt>
      <trkpt lat="43.55022" lon="6.78725">
        <ele>125.49</ele>
        <time>2019-12-08T13:31:48.000Z</time>
      </trkpt>
      <trkpt lat="43.55031" lon="6.78714">
        <ele>125.3</ele>
        <time>2019-12-08T13:31:49.000Z</time>
      </trkpt>
      <trkpt lat="43.55039" lon="6.78704">
        <ele>125.01</ele>
        <time>2019-12-08T13:31:50.000Z</time>
      </trkpt>
      <trkpt lat="43.55046" lon="6.78693">
        <ele>124.64</ele>
        <time>2019-12-08T13:31:51.000Z</time>
      </trkpt>
      <trkpt lat="43.55053" lon="6.7868">
        <ele>124.45</ele>
        <time>2019-12-08T13:31:52.000Z</time>
      </trkpt>
      <trkpt lat="43.55057" lon="6.78667">
        <ele>124.14</ele>
        <time>2019-12-08T13:31:53.000Z</time>
      </trkpt>
      <trkpt lat="43.55061" lon="6.78653">
        <ele>123.72</ele>
        <time>2019-12-08T13:31:54.000Z</time>
      </trkpt>
      <trkpt lat="43.55064" lon="6.78638">
        <ele>123.34</ele>
        <time>2019-12-08T13:31:55.000Z</time>
      </trkpt>
      <trkpt lat="43.55068" lon="6.78624">
        <ele>122.98</ele>
        <time>2019-12-08T13:31:56.000Z</time>
      </trkpt>
      <trkpt lat="43.55071" lon="6.7861">
        <ele>122.83</ele>
        <time>2019-12-08T13:31:57.000Z</time>
      </trkpt>
      <trkpt lat="43.55074" lon="6.78595">
        <ele>122.49</ele>
        <time>2019-12-08T13:31:58.000Z</time>
      </trkpt>
      <trkpt lat="43.55077" lon="6.78581">
        <ele>122.05</ele>
        <time>2019-12-08T13:31:59.000Z</time>
      </trkpt>
      <trkpt lat="43.5508" lon="6.78567">
        <ele>121.6</ele>
        <time>2019-12-08T13:32:00.000Z</time>
      </trkpt>
      <trkpt lat="43.55084" lon="6.78553">
        <ele>121.38</ele>
        <time>2019-12-08T13:32:01.000Z</time>
      </trkpt>
      <trkpt lat="43.55088" lon="6.78539">
        <ele>120.79</ele>
        <time>2019-12-08T13:32:02.000Z</time>
      </trkpt>
      <trkpt lat="43.55093" lon="6.78526">
        <ele>120.27</ele>
        <time>2019-12-08T13:32:03.000Z</time>
      </trkpt>
      <trkpt lat="43.55098" lon="6.78512">
        <ele>119.76</ele>
        <time>2019-12-08T13:32:04.000Z</time>
      </trkpt>
      <trkpt lat="43.55102" lon="6.78499">
        <ele>119.57</ele>
        <time>2019-12-08T13:32:05.000Z</time>
      </trkpt>
      <trkpt lat="43.55107" lon="6.78487">
        <ele>119.09</ele>
        <time>2019-12-08T13:32:06.000Z</time>
      </trkpt>
      <trkpt lat="43.55113" lon="6.78475">
        <ele>118.69</ele>
        <time>2019-12-08T13:32:07.000Z</time>
      </trkpt>
      <trkpt lat="43.55119" lon="6.78465">
        <ele>118.32</ele>
        <time>2019-12-08T13:32:08.000Z</time>
      </trkpt>
      <trkpt lat="43.55126" lon="6.78453">
        <ele>118.12</ele>
        <time>2019-12-08T13:32:09.000Z</time>
      </trkpt>
      <trkpt lat="43.55132" lon="6.78441">
        <ele>117.65</ele>
        <time>2019-12-08T13:32:10.000Z</time>
      </trkpt>
      <trkpt lat="43.55137" lon="6.78428">
        <ele>117.13</ele>
        <time>2019-12-08T13:32:11.000Z</time>
      </trkpt>
      <trkpt lat="43.55142" lon="6.78415">
        <ele>116.34</ele>
        <time>2019-12-08T13:32:12.000Z</time>
      </trkpt>
      <trkpt lat="43.55146" lon="6.78401">
        <ele>115.89</ele>
        <time>2019-12-08T13:32:13.000Z</time>
      </trkpt>
      <trkpt lat="43.55149" lon="6.78388">
        <ele>114.77</ele>
        <time>2019-12-08T13:32:14.000Z</time>
      </trkpt>
      <trkpt lat="43.55153" lon="6.78375">
        <ele>113.54</ele>
        <time>2019-12-08T13:32:15.000Z</time>
      </trkpt>
      <trkpt lat="43.55155" lon="6.78361">
        <ele>112.29</ele>
        <time>2019-12-08T13:32:16.000Z</time>
      </trkpt>
      <trkpt lat="43.55159" lon="6.78346">
        <ele>112.29</ele>
        <time>2019-12-08T13:32:17.000Z</time>
      </trkpt>
      <trkpt lat="43.55162" lon="6.78332">
        <ele>111.56</ele>
        <time>2019-12-08T13:32:18.000Z</time>
      </trkpt>
      <trkpt lat="43.55165" lon="6.78317">
        <ele>110.15</ele>
        <time>2019-12-08T13:32:19.000Z</time>
      </trkpt>
      <trkpt lat="43.55168" lon="6.78303">
        <ele>108.89</ele>
        <time>2019-12-08T13:32:20.000Z</time>
      </trkpt>
      <trkpt lat="43.55171" lon="6.7829">
        <ele>108.29</ele>
        <time>2019-12-08T13:32:21.000Z</time>
      </trkpt>
      <trkpt lat="43.55175" lon="6.78279">
        <ele>107.14</ele>
        <time>2019-12-08T13:32:22.000Z</time>
      </trkpt>
      <trkpt lat="43.5518" lon="6.78269">
        <ele>106.43</ele>
        <time>2019-12-08T13:32:23.000Z</time>
      </trkpt>
      <trkpt lat="43.55182" lon="6.78258">
        <ele>106.03</ele>
        <time>2019-12-08T13:32:24.000Z</time>
      </trkpt>
      <trkpt lat="43.55184" lon="6.78247">
        <ele>106.03</ele>
        <time>2019-12-08T13:32:25.000Z</time>
      </trkpt>
      <trkpt lat="43.55194" lon="6.78204">
        <ele>106.84</ele>
        <time>2019-12-08T13:32:30.000Z</time>
      </trkpt>
      <trkpt lat="43.55196" lon="6.78196">
        <ele>107.15</ele>
        <time>2019-12-08T13:32:31.000Z</time>
      </trkpt>
      <trkpt lat="43.55197" lon="6.78189">
        <ele>107.48</ele>
        <time>2019-12-08T13:32:32.000Z</time>
      </trkpt>
      <trkpt lat="43.55196" lon="6.78182">
        <ele>107.82</ele>
        <time>2019-12-08T13:32:33.000Z</time>
      </trkpt>
      <trkpt lat="43.55195" lon="6.78176">
        <ele>108.01</ele>
        <time>2019-12-08T13:32:34.000Z</time>
      </trkpt>
      <trkpt lat="43.55194" lon="6.7817">
        <ele>108.36</ele>
        <time>2019-12-08T13:32:35.000Z</time>
      </trkpt>
      <trkpt lat="43.55193" lon="6.78164">
        <ele>108.8</ele>
        <time>2019-12-08T13:32:36.000Z</time>
      </trkpt>
      <trkpt lat="43.55192" lon="6.78159">
        <ele>109.21</ele>
        <time>2019-12-08T13:32:37.000Z</time>
      </trkpt>
      <trkpt lat="43.55191" lon="6.78154">
        <ele>109.46</ele>
        <time>2019-12-08T13:32:38.000Z</time>
      </trkpt>
      <trkpt lat="43.55189" lon="6.78149">
        <ele>109.94</ele>
        <time>2019-12-08T13:32:39.000Z</time>
      </trkpt>
      <trkpt lat="43.55188" lon="6.78144">
        <ele>110.41</ele>
        <time>2019-12-08T13:32:40.000Z</time>
      </trkpt>
      <trkpt lat="43.55188" lon="6.78139">
        <ele>110.88</ele>
        <time>2019-12-08T13:32:41.000Z</time>
      </trkpt>
      <trkpt lat="43.55188" lon="6.78134">
        <ele>110.88</ele>
        <time>2019-12-08T13:32:42.000Z</time>
      </trkpt>
      <trkpt lat="43.55188" lon="6.78129">
        <ele>111.32</ele>
        <time>2019-12-08T13:32:43.000Z</time>
      </trkpt>
      <trkpt lat="43.55188" lon="6.78124">
        <ele>111.85</ele>
        <time>2019-12-08T13:32:44.000Z</time>
      </trkpt>
      <trkpt lat="43.55188" lon="6.78119">
        <ele>112.36</ele>
        <time>2019-12-08T13:32:45.000Z</time>
      </trkpt>
      <trkpt lat="43.55188" lon="6.78113">
        <ele>112.65</ele>
        <time>2019-12-08T13:32:46.000Z</time>
      </trkpt>
      <trkpt lat="43.55189" lon="6.78108">
        <ele>113.2</ele>
        <time>2019-12-08T13:32:47.000Z</time>
      </trkpt>
      <trkpt lat="43.55189" lon="6.78104">
        <ele>113.64</ele>
        <time>2019-12-08T13:32:48.000Z</time>
      </trkpt>
      <trkpt lat="43.55189" lon="6.78099">
        <ele>114.06</ele>
        <time>2019-12-08T13:32:49.000Z</time>
      </trkpt>
      <trkpt lat="43.5519" lon="6.78093">
        <ele>114.28</ele>
        <time>2019-12-08T13:32:50.000Z</time>
      </trkpt>
      <trkpt lat="43.5519" lon="6.78088">
        <ele>114.73</ele>
        <time>2019-12-08T13:32:51.000Z</time>
      </trkpt>
      <trkpt lat="43.55191" lon="6.78083">
        <ele>115.18</ele>
        <time>2019-12-08T13:32:52.000Z</time>
      </trkpt>
      <trkpt lat="43.55191" lon="6.78078">
        <ele>115.18</ele>
        <time>2019-12-08T13:32:53.000Z</time>
      </trkpt>
      <trkpt lat="43.5519" lon="6.78073">
        <ele>115.72</ele>
        <time>2019-12-08T13:32:54.000Z</time>
      </trkpt>
      <trkpt lat="43.5519" lon="6.78068">
        <ele>115.97</ele>
        <time>2019-12-08T13:32:55.000Z</time>
      </trkpt>
      <trkpt lat="43.5519" lon="6.78063">
        <ele>116.38</ele>
        <time>2019-12-08T13:32:56.000Z</time>
      </trkpt>
      <trkpt lat="43.55189" lon="6.78058">
        <ele>116.74</ele>
        <time>2019-12-08T13:32:57.000Z</time>
      </trkpt>
      <trkpt lat="43.55189" lon="6.78053">
        <ele>116.93</ele>
        <time>2019-12-08T13:32:58.000Z</time>
      </trkpt>
      <trkpt lat="43.5519" lon="6.78048">
        <ele>117.21</ele>
        <time>2019-12-08T13:32:59.000Z</time>
      </trkpt>
      <trkpt lat="43.5519" lon="6.78044">
        <ele>117.5</ele>
        <time>2019-12-08T13:33:00.000Z</time>
      </trkpt>
      <trkpt lat="43.55191" lon="6.78039">
        <ele>117.79</ele>
        <time>2019-12-08T13:33:01.000Z</time>
      </trkpt>
      <trkpt lat="43.55192" lon="6.78034">
        <ele>118.02</ele>
        <time>2019-12-08T13:33:02.000Z</time>
      </trkpt>
      <trkpt lat="43.55193" lon="6.7803">
        <ele>118.14</ele>
        <time>2019-12-08T13:33:03.000Z</time>
      </trkpt>
      <trkpt lat="43.55194" lon="6.78025">
        <ele>118.33</ele>
        <time>2019-12-08T13:33:04.000Z</time>
      </trkpt>
      <trkpt lat="43.55196" lon="6.78021">
        <ele>118.54</ele>
        <time>2019-12-08T13:33:05.000Z</time>
      </trkpt>
      <trkpt lat="43.55197" lon="6.78018">
        <ele>118.73</ele>
        <time>2019-12-08T13:33:06.000Z</time>
      </trkpt>
      <trkpt lat="43.55199" lon="6.78015">
        <ele>118.73</ele>
        <time>2019-12-08T13:33:07.000Z</time>
      </trkpt>
      <trkpt lat="43.55201" lon="6.78011">
        <ele>119.01</ele>
        <time>2019-12-08T13:33:08.000Z</time>
      </trkpt>
      <trkpt lat="43.55202" lon="6.78008">
        <ele>119.3</ele>
        <time>2019-12-08T13:33:09.000Z</time>
      </trkpt>
    </trkseg>
  </trk>
</gpx>